<?xml version="1.0" encoding="UTF-8" standalone="no" ?>
<gpx xmlns="http://www.topografix.com/GPX/1/1" xmlns:xsi="http://www.w3.org/2001/XMLSchema-instance" xsi:schemaLocation="http://www.topografix.com/GPX/1/1 http://www.topografix.com/GPX/1/1/gpx.xsd" version="1.1" creator="VisuGPX - https://www.visugpx.com">
  <metadata>
    <name>Ski le Rochail</name>
  </metadata>
  <trk>
    <name><![CDATA[Ski le Rochail]]></name>
    <extensions>
      <line xmlns="http://www.topografix.com/GPX/gpx_style/0/2">
        <color>0000FF</color>
        <width>4</width>
      </line>
    </extensions>
    <trkseg>
      <trkpt lat="45.01749" lon="6.04068">
        <ele>1484.8000488281</ele>
        <time>2021-03-21T07:43:41.000Z</time>
      </trkpt>
      <trkpt lat="45.0175" lon="6.04059">
        <ele>1485.8000488281</ele>
        <time>2021-03-21T07:43:42.000Z</time>
      </trkpt>
      <trkpt lat="45.01752" lon="6.04062">
        <ele>1486.4000244141</ele>
        <time>2021-03-21T07:43:43.000Z</time>
      </trkpt>
      <trkpt lat="45.01735" lon="6.04062">
        <ele>1479</ele>
        <time>2021-03-21T07:43:44.000Z</time>
      </trkpt>
      <trkpt lat="45.01727" lon="6.04059">
        <ele>1477</ele>
        <time>2021-03-21T07:43:45.000Z</time>
      </trkpt>
      <trkpt lat="45.01731" lon="6.04061">
        <ele>1478</ele>
        <time>2021-03-21T07:43:46.000Z</time>
      </trkpt>
      <trkpt lat="45.01727" lon="6.04059">
        <ele>1477.1999511719</ele>
        <time>2021-03-21T07:43:47.000Z</time>
      </trkpt>
      <trkpt lat="45.0173" lon="6.0406">
        <ele>1477.5999755859</ele>
        <time>2021-03-21T07:43:48.000Z</time>
      </trkpt>
      <trkpt lat="45.01725" lon="6.0406">
        <ele>1476.4000244141</ele>
        <time>2021-03-21T07:43:49.000Z</time>
      </trkpt>
      <trkpt lat="45.01737" lon="6.0406">
        <ele>1479.4000244141</ele>
        <time>2021-03-21T07:43:50.000Z</time>
      </trkpt>
      <trkpt lat="45.01741" lon="6.04059">
        <ele>1481.4000244141</ele>
        <time>2021-03-21T07:43:51.000Z</time>
      </trkpt>
      <trkpt lat="45.01721" lon="6.0406">
        <ele>1475</ele>
        <time>2021-03-21T07:43:52.000Z</time>
      </trkpt>
      <trkpt lat="45.01728" lon="6.0406">
        <ele>1477.1999511719</ele>
        <time>2021-03-21T07:43:53.000Z</time>
      </trkpt>
      <trkpt lat="45.0173" lon="6.04062">
        <ele>1477.5999755859</ele>
        <time>2021-03-21T07:43:54.000Z</time>
      </trkpt>
      <trkpt lat="45.01726" lon="6.04062">
        <ele>1476.5999755859</ele>
        <time>2021-03-21T07:43:55.000Z</time>
      </trkpt>
      <trkpt lat="45.01734" lon="6.04059">
        <ele>1478.8000488281</ele>
        <time>2021-03-21T07:43:56.000Z</time>
      </trkpt>
      <trkpt lat="45.01723" lon="6.04065">
        <ele>1475.4000244141</ele>
        <time>2021-03-21T07:43:57.000Z</time>
      </trkpt>
      <trkpt lat="45.0173" lon="6.04064">
        <ele>1477.5999755859</ele>
        <time>2021-03-21T07:43:58.000Z</time>
      </trkpt>
      <trkpt lat="45.01722" lon="6.04067">
        <ele>1474.8000488281</ele>
        <time>2021-03-21T07:43:59.000Z</time>
      </trkpt>
      <trkpt lat="45.01724" lon="6.04064">
        <ele>1475.5999755859</ele>
        <time>2021-03-21T07:44:00.000Z</time>
      </trkpt>
      <trkpt lat="45.01733" lon="6.04063">
        <ele>1478.4000244141</ele>
        <time>2021-03-21T07:44:01.000Z</time>
      </trkpt>
      <trkpt lat="45.01734" lon="6.04063">
        <ele>1478.5999755859</ele>
        <time>2021-03-21T07:44:02.000Z</time>
      </trkpt>
      <trkpt lat="45.01735" lon="6.04062">
        <ele>1479</ele>
        <time>2021-03-21T07:44:03.000Z</time>
      </trkpt>
      <trkpt lat="45.01737" lon="6.04062">
        <ele>1479.4000244141</ele>
        <time>2021-03-21T07:44:04.000Z</time>
      </trkpt>
      <trkpt lat="45.01738" lon="6.04061">
        <ele>1480</ele>
        <time>2021-03-21T07:44:05.000Z</time>
      </trkpt>
      <trkpt lat="45.01739" lon="6.04062">
        <ele>1480.4000244141</ele>
        <time>2021-03-21T07:44:06.000Z</time>
      </trkpt>
      <trkpt lat="45.01748" lon="6.04062">
        <ele>1484.8000488281</ele>
        <time>2021-03-21T07:44:07.000Z</time>
      </trkpt>
      <trkpt lat="45.0175" lon="6.04063">
        <ele>1485.5999755859</ele>
        <time>2021-03-21T07:44:08.000Z</time>
      </trkpt>
      <trkpt lat="45.01752" lon="6.04063">
        <ele>1486.5999755859</ele>
        <time>2021-03-21T07:44:09.000Z</time>
      </trkpt>
      <trkpt lat="45.01754" lon="6.04062">
        <ele>1487.4000244141</ele>
        <time>2021-03-21T07:44:10.000Z</time>
      </trkpt>
      <trkpt lat="45.01754" lon="6.04062">
        <ele>1487.5999755859</ele>
        <time>2021-03-21T07:44:11.000Z</time>
      </trkpt>
      <trkpt lat="45.01756" lon="6.04062">
        <ele>1488.1999511719</ele>
        <time>2021-03-21T07:44:12.000Z</time>
      </trkpt>
      <trkpt lat="45.01756" lon="6.04062">
        <ele>1488.5999755859</ele>
        <time>2021-03-21T07:44:13.000Z</time>
      </trkpt>
      <trkpt lat="45.01759" lon="6.04061">
        <ele>1489.5999755859</ele>
        <time>2021-03-21T07:44:14.000Z</time>
      </trkpt>
      <trkpt lat="45.0176" lon="6.04061">
        <ele>1490</ele>
        <time>2021-03-21T07:44:15.000Z</time>
      </trkpt>
      <trkpt lat="45.01761" lon="6.0406">
        <ele>1490.4000244141</ele>
        <time>2021-03-21T07:44:16.000Z</time>
      </trkpt>
      <trkpt lat="45.01763" lon="6.0406">
        <ele>1491.1999511719</ele>
        <time>2021-03-21T07:44:17.000Z</time>
      </trkpt>
      <trkpt lat="45.01764" lon="6.0406">
        <ele>1491.8000488281</ele>
        <time>2021-03-21T07:44:18.000Z</time>
      </trkpt>
      <trkpt lat="45.01765" lon="6.04059">
        <ele>1492.5999755859</ele>
        <time>2021-03-21T07:44:19.000Z</time>
      </trkpt>
      <trkpt lat="45.01766" lon="6.04059">
        <ele>1493.1999511719</ele>
        <time>2021-03-21T07:44:20.000Z</time>
      </trkpt>
      <trkpt lat="45.01767" lon="6.04059">
        <ele>1493.5999755859</ele>
        <time>2021-03-21T07:44:21.000Z</time>
      </trkpt>
      <trkpt lat="45.01768" lon="6.04059">
        <ele>1494</ele>
        <time>2021-03-21T07:44:22.000Z</time>
      </trkpt>
      <trkpt lat="45.01768" lon="6.04058">
        <ele>1494.4000244141</ele>
        <time>2021-03-21T07:44:23.000Z</time>
      </trkpt>
      <trkpt lat="45.01768" lon="6.04058">
        <ele>1494.4000244141</ele>
        <time>2021-03-21T07:44:24.000Z</time>
      </trkpt>
      <trkpt lat="45.01769" lon="6.04058">
        <ele>1494.5999755859</ele>
        <time>2021-03-21T07:44:25.000Z</time>
      </trkpt>
      <trkpt lat="45.01769" lon="6.04058">
        <ele>1494.8000488281</ele>
        <time>2021-03-21T07:44:26.000Z</time>
      </trkpt>
      <trkpt lat="45.01769" lon="6.04057">
        <ele>1494.8000488281</ele>
        <time>2021-03-21T07:44:27.000Z</time>
      </trkpt>
      <trkpt lat="45.01771" lon="6.04057">
        <ele>1496.1999511719</ele>
        <time>2021-03-21T07:44:28.000Z</time>
      </trkpt>
      <trkpt lat="45.01773" lon="6.04057">
        <ele>1497.1999511719</ele>
        <time>2021-03-21T07:44:29.000Z</time>
      </trkpt>
      <trkpt lat="45.01774" lon="6.04057">
        <ele>1497.8000488281</ele>
        <time>2021-03-21T07:44:30.000Z</time>
      </trkpt>
      <trkpt lat="45.01775" lon="6.04057">
        <ele>1498.4000244141</ele>
        <time>2021-03-21T07:44:31.000Z</time>
      </trkpt>
      <trkpt lat="45.01776" lon="6.04057">
        <ele>1499</ele>
        <time>2021-03-21T07:44:32.000Z</time>
      </trkpt>
      <trkpt lat="45.01777" lon="6.04057">
        <ele>1499.4000244141</ele>
        <time>2021-03-21T07:44:33.000Z</time>
      </trkpt>
      <trkpt lat="45.01777" lon="6.04057">
        <ele>1499.8000488281</ele>
        <time>2021-03-21T07:44:34.000Z</time>
      </trkpt>
      <trkpt lat="45.01778" lon="6.04057">
        <ele>1500.1999511719</ele>
        <time>2021-03-21T07:44:35.000Z</time>
      </trkpt>
      <trkpt lat="45.01778" lon="6.04058">
        <ele>1500.5999755859</ele>
        <time>2021-03-21T07:44:36.000Z</time>
      </trkpt>
      <trkpt lat="45.01779" lon="6.04058">
        <ele>1501</ele>
        <time>2021-03-21T07:44:37.000Z</time>
      </trkpt>
      <trkpt lat="45.01779" lon="6.04058">
        <ele>1501</ele>
        <time>2021-03-21T07:44:38.000Z</time>
      </trkpt>
      <trkpt lat="45.01779" lon="6.04057">
        <ele>1501.1999511719</ele>
        <time>2021-03-21T07:44:39.000Z</time>
      </trkpt>
      <trkpt lat="45.0178" lon="6.04057">
        <ele>1501.5999755859</ele>
        <time>2021-03-21T07:44:40.000Z</time>
      </trkpt>
      <trkpt lat="45.01781" lon="6.04057">
        <ele>1501.8000488281</ele>
        <time>2021-03-21T07:44:41.000Z</time>
      </trkpt>
      <trkpt lat="45.01781" lon="6.04057">
        <ele>1502</ele>
        <time>2021-03-21T07:44:42.000Z</time>
      </trkpt>
      <trkpt lat="45.01781" lon="6.04057">
        <ele>1502.1999511719</ele>
        <time>2021-03-21T07:44:43.000Z</time>
      </trkpt>
      <trkpt lat="45.01781" lon="6.04057">
        <ele>1502.4000244141</ele>
        <time>2021-03-21T07:44:44.000Z</time>
      </trkpt>
      <trkpt lat="45.01782" lon="6.04057">
        <ele>1502.4000244141</ele>
        <time>2021-03-21T07:44:45.000Z</time>
      </trkpt>
      <trkpt lat="45.01782" lon="6.04057">
        <ele>1502.5999755859</ele>
        <time>2021-03-21T07:44:46.000Z</time>
      </trkpt>
      <trkpt lat="45.01782" lon="6.04057">
        <ele>1502.5999755859</ele>
        <time>2021-03-21T07:44:47.000Z</time>
      </trkpt>
      <trkpt lat="45.01782" lon="6.04057">
        <ele>1502.8000488281</ele>
        <time>2021-03-21T07:44:48.000Z</time>
      </trkpt>
      <trkpt lat="45.01782" lon="6.04056">
        <ele>1502.8000488281</ele>
        <time>2021-03-21T07:44:49.000Z</time>
      </trkpt>
      <trkpt lat="45.01782" lon="6.04056">
        <ele>1502.8000488281</ele>
        <time>2021-03-21T07:44:50.000Z</time>
      </trkpt>
      <trkpt lat="45.01783" lon="6.04055">
        <ele>1503</ele>
        <time>2021-03-21T07:44:51.000Z</time>
      </trkpt>
      <trkpt lat="45.01783" lon="6.04055">
        <ele>1503.1999511719</ele>
        <time>2021-03-21T07:44:52.000Z</time>
      </trkpt>
      <trkpt lat="45.01783" lon="6.04055">
        <ele>1503</ele>
        <time>2021-03-21T07:44:53.000Z</time>
      </trkpt>
      <trkpt lat="45.01783" lon="6.04055">
        <ele>1503</ele>
        <time>2021-03-21T07:44:54.000Z</time>
      </trkpt>
      <trkpt lat="45.01783" lon="6.04055">
        <ele>1503</ele>
        <time>2021-03-21T07:44:55.000Z</time>
      </trkpt>
      <trkpt lat="45.01783" lon="6.04055">
        <ele>1502.8000488281</ele>
        <time>2021-03-21T07:44:56.000Z</time>
      </trkpt>
      <trkpt lat="45.01782" lon="6.04055">
        <ele>1502.8000488281</ele>
        <time>2021-03-21T07:44:57.000Z</time>
      </trkpt>
      <trkpt lat="45.01782" lon="6.04055">
        <ele>1502.8000488281</ele>
        <time>2021-03-21T07:44:58.000Z</time>
      </trkpt>
      <trkpt lat="45.01782" lon="6.04055">
        <ele>1502.8000488281</ele>
        <time>2021-03-21T07:44:59.000Z</time>
      </trkpt>
      <trkpt lat="45.01783" lon="6.04056">
        <ele>1503</ele>
        <time>2021-03-21T07:45:00.000Z</time>
      </trkpt>
      <trkpt lat="45.01783" lon="6.04057">
        <ele>1503.4000244141</ele>
        <time>2021-03-21T07:45:01.000Z</time>
      </trkpt>
      <trkpt lat="45.01783" lon="6.04058">
        <ele>1503.4000244141</ele>
        <time>2021-03-21T07:45:02.000Z</time>
      </trkpt>
      <trkpt lat="45.01783" lon="6.04059">
        <ele>1503.5999755859</ele>
        <time>2021-03-21T07:45:03.000Z</time>
      </trkpt>
      <trkpt lat="45.01783" lon="6.0406">
        <ele>1503.5999755859</ele>
        <time>2021-03-21T07:45:04.000Z</time>
      </trkpt>
      <trkpt lat="45.01783" lon="6.04061">
        <ele>1503.5999755859</ele>
        <time>2021-03-21T07:45:05.000Z</time>
      </trkpt>
      <trkpt lat="45.01784" lon="6.04062">
        <ele>1503.8000488281</ele>
        <time>2021-03-21T07:45:06.000Z</time>
      </trkpt>
      <trkpt lat="45.01784" lon="6.04063">
        <ele>1504</ele>
        <time>2021-03-21T07:45:07.000Z</time>
      </trkpt>
      <trkpt lat="45.01784" lon="6.04063">
        <ele>1504.1999511719</ele>
        <time>2021-03-21T07:45:08.000Z</time>
      </trkpt>
      <trkpt lat="45.01784" lon="6.04063">
        <ele>1504.1999511719</ele>
        <time>2021-03-21T07:45:09.000Z</time>
      </trkpt>
      <trkpt lat="45.01784" lon="6.04063">
        <ele>1504.1999511719</ele>
        <time>2021-03-21T07:45:10.000Z</time>
      </trkpt>
      <trkpt lat="45.01784" lon="6.04062">
        <ele>1504.1999511719</ele>
        <time>2021-03-21T07:45:11.000Z</time>
      </trkpt>
      <trkpt lat="45.01784" lon="6.04063">
        <ele>1504</ele>
        <time>2021-03-21T07:45:12.000Z</time>
      </trkpt>
      <trkpt lat="45.01784" lon="6.04064">
        <ele>1504</ele>
        <time>2021-03-21T07:45:13.000Z</time>
      </trkpt>
      <trkpt lat="45.01784" lon="6.04064">
        <ele>1503.8000488281</ele>
        <time>2021-03-21T07:45:14.000Z</time>
      </trkpt>
      <trkpt lat="45.01784" lon="6.04064">
        <ele>1503.8000488281</ele>
        <time>2021-03-21T07:45:15.000Z</time>
      </trkpt>
      <trkpt lat="45.01784" lon="6.04064">
        <ele>1503.8000488281</ele>
        <time>2021-03-21T07:45:16.000Z</time>
      </trkpt>
      <trkpt lat="45.01784" lon="6.04064">
        <ele>1503.5999755859</ele>
        <time>2021-03-21T07:45:17.000Z</time>
      </trkpt>
      <trkpt lat="45.01784" lon="6.04065">
        <ele>1503.8000488281</ele>
        <time>2021-03-21T07:45:18.000Z</time>
      </trkpt>
      <trkpt lat="45.01784" lon="6.04065">
        <ele>1503.8000488281</ele>
        <time>2021-03-21T07:45:19.000Z</time>
      </trkpt>
      <trkpt lat="45.01784" lon="6.04064">
        <ele>1504</ele>
        <time>2021-03-21T07:45:20.000Z</time>
      </trkpt>
      <trkpt lat="45.01785" lon="6.04064">
        <ele>1504.4000244141</ele>
        <time>2021-03-21T07:45:21.000Z</time>
      </trkpt>
      <trkpt lat="45.01785" lon="6.04064">
        <ele>1504.4000244141</ele>
        <time>2021-03-21T07:45:22.000Z</time>
      </trkpt>
      <trkpt lat="45.01785" lon="6.04064">
        <ele>1504.5999755859</ele>
        <time>2021-03-21T07:45:23.000Z</time>
      </trkpt>
      <trkpt lat="45.01785" lon="6.04064">
        <ele>1504.5999755859</ele>
        <time>2021-03-21T07:45:24.000Z</time>
      </trkpt>
      <trkpt lat="45.01785" lon="6.04064">
        <ele>1504.4000244141</ele>
        <time>2021-03-21T07:45:25.000Z</time>
      </trkpt>
      <trkpt lat="45.01785" lon="6.04064">
        <ele>1504.4000244141</ele>
        <time>2021-03-21T07:45:26.000Z</time>
      </trkpt>
      <trkpt lat="45.01785" lon="6.04064">
        <ele>1504.5999755859</ele>
        <time>2021-03-21T07:45:27.000Z</time>
      </trkpt>
      <trkpt lat="45.01785" lon="6.04064">
        <ele>1504.5999755859</ele>
        <time>2021-03-21T07:45:28.000Z</time>
      </trkpt>
      <trkpt lat="45.01785" lon="6.04064">
        <ele>1504.8000488281</ele>
        <time>2021-03-21T07:45:29.000Z</time>
      </trkpt>
      <trkpt lat="45.01786" lon="6.04063">
        <ele>1505</ele>
        <time>2021-03-21T07:45:30.000Z</time>
      </trkpt>
      <trkpt lat="45.01786" lon="6.04063">
        <ele>1505.1999511719</ele>
        <time>2021-03-21T07:45:31.000Z</time>
      </trkpt>
      <trkpt lat="45.01786" lon="6.04063">
        <ele>1505.4000244141</ele>
        <time>2021-03-21T07:45:32.000Z</time>
      </trkpt>
      <trkpt lat="45.01787" lon="6.04063">
        <ele>1505.8000488281</ele>
        <time>2021-03-21T07:45:33.000Z</time>
      </trkpt>
      <trkpt lat="45.01787" lon="6.04063">
        <ele>1505.8000488281</ele>
        <time>2021-03-21T07:45:34.000Z</time>
      </trkpt>
      <trkpt lat="45.01788" lon="6.04063">
        <ele>1506.1999511719</ele>
        <time>2021-03-21T07:45:35.000Z</time>
      </trkpt>
      <trkpt lat="45.01788" lon="6.04062">
        <ele>1506.1999511719</ele>
        <time>2021-03-21T07:45:36.000Z</time>
      </trkpt>
      <trkpt lat="45.01788" lon="6.04062">
        <ele>1506.1999511719</ele>
        <time>2021-03-21T07:45:37.000Z</time>
      </trkpt>
      <trkpt lat="45.01788" lon="6.04062">
        <ele>1506.1999511719</ele>
        <time>2021-03-21T07:45:38.000Z</time>
      </trkpt>
      <trkpt lat="45.01788" lon="6.04062">
        <ele>1506.1999511719</ele>
        <time>2021-03-21T07:45:39.000Z</time>
      </trkpt>
      <trkpt lat="45.01788" lon="6.04062">
        <ele>1506.4000244141</ele>
        <time>2021-03-21T07:45:40.000Z</time>
      </trkpt>
      <trkpt lat="45.01789" lon="6.04062">
        <ele>1506.5999755859</ele>
        <time>2021-03-21T07:45:41.000Z</time>
      </trkpt>
      <trkpt lat="45.01788" lon="6.04062">
        <ele>1506.4000244141</ele>
        <time>2021-03-21T07:45:42.000Z</time>
      </trkpt>
      <trkpt lat="45.01788" lon="6.04061">
        <ele>1506.4000244141</ele>
        <time>2021-03-21T07:45:43.000Z</time>
      </trkpt>
      <trkpt lat="45.01789" lon="6.04061">
        <ele>1506.8000488281</ele>
        <time>2021-03-21T07:45:44.000Z</time>
      </trkpt>
      <trkpt lat="45.01789" lon="6.04062">
        <ele>1506.8000488281</ele>
        <time>2021-03-21T07:45:45.000Z</time>
      </trkpt>
      <trkpt lat="45.01789" lon="6.04062">
        <ele>1506.8000488281</ele>
        <time>2021-03-21T07:45:46.000Z</time>
      </trkpt>
      <trkpt lat="45.01789" lon="6.04063">
        <ele>1507</ele>
        <time>2021-03-21T07:45:47.000Z</time>
      </trkpt>
      <trkpt lat="45.01789" lon="6.04063">
        <ele>1507</ele>
        <time>2021-03-21T07:45:48.000Z</time>
      </trkpt>
      <trkpt lat="45.01789" lon="6.04063">
        <ele>1507</ele>
        <time>2021-03-21T07:45:49.000Z</time>
      </trkpt>
      <trkpt lat="45.01789" lon="6.04063">
        <ele>1507</ele>
        <time>2021-03-21T07:45:50.000Z</time>
      </trkpt>
      <trkpt lat="45.01789" lon="6.04063">
        <ele>1506.8000488281</ele>
        <time>2021-03-21T07:45:51.000Z</time>
      </trkpt>
      <trkpt lat="45.01789" lon="6.04063">
        <ele>1506.8000488281</ele>
        <time>2021-03-21T07:45:52.000Z</time>
      </trkpt>
      <trkpt lat="45.01789" lon="6.04063">
        <ele>1506.8000488281</ele>
        <time>2021-03-21T07:45:53.000Z</time>
      </trkpt>
      <trkpt lat="45.01789" lon="6.04063">
        <ele>1506.8000488281</ele>
        <time>2021-03-21T07:45:54.000Z</time>
      </trkpt>
      <trkpt lat="45.01789" lon="6.04063">
        <ele>1506.8000488281</ele>
        <time>2021-03-21T07:45:55.000Z</time>
      </trkpt>
      <trkpt lat="45.01789" lon="6.04063">
        <ele>1506.8000488281</ele>
        <time>2021-03-21T07:45:56.000Z</time>
      </trkpt>
      <trkpt lat="45.01789" lon="6.04063">
        <ele>1506.5999755859</ele>
        <time>2021-03-21T07:45:57.000Z</time>
      </trkpt>
      <trkpt lat="45.01791" lon="6.04064">
        <ele>1508</ele>
        <time>2021-03-21T07:45:58.000Z</time>
      </trkpt>
      <trkpt lat="45.0179" lon="6.04064">
        <ele>1507.5999755859</ele>
        <time>2021-03-21T07:45:59.000Z</time>
      </trkpt>
      <trkpt lat="45.0179" lon="6.04064">
        <ele>1507.5999755859</ele>
        <time>2021-03-21T07:46:00.000Z</time>
      </trkpt>
      <trkpt lat="45.0179" lon="6.04064">
        <ele>1507.4000244141</ele>
        <time>2021-03-21T07:46:01.000Z</time>
      </trkpt>
      <trkpt lat="45.0179" lon="6.04064">
        <ele>1507.4000244141</ele>
        <time>2021-03-21T07:46:02.000Z</time>
      </trkpt>
      <trkpt lat="45.01789" lon="6.04064">
        <ele>1507.1999511719</ele>
        <time>2021-03-21T07:46:03.000Z</time>
      </trkpt>
      <trkpt lat="45.0179" lon="6.04064">
        <ele>1507.4000244141</ele>
        <time>2021-03-21T07:46:04.000Z</time>
      </trkpt>
      <trkpt lat="45.0179" lon="6.04064">
        <ele>1507.4000244141</ele>
        <time>2021-03-21T07:46:05.000Z</time>
      </trkpt>
      <trkpt lat="45.0179" lon="6.04064">
        <ele>1507.4000244141</ele>
        <time>2021-03-21T07:46:06.000Z</time>
      </trkpt>
      <trkpt lat="45.01791" lon="6.04064">
        <ele>1507.8000488281</ele>
        <time>2021-03-21T07:46:07.000Z</time>
      </trkpt>
      <trkpt lat="45.01791" lon="6.04064">
        <ele>1508</ele>
        <time>2021-03-21T07:46:08.000Z</time>
      </trkpt>
      <trkpt lat="45.01791" lon="6.04064">
        <ele>1508</ele>
        <time>2021-03-21T07:46:09.000Z</time>
      </trkpt>
      <trkpt lat="45.01791" lon="6.04064">
        <ele>1508.1999511719</ele>
        <time>2021-03-21T07:46:10.000Z</time>
      </trkpt>
      <trkpt lat="45.01792" lon="6.04064">
        <ele>1508.4000244141</ele>
        <time>2021-03-21T07:46:11.000Z</time>
      </trkpt>
      <trkpt lat="45.01792" lon="6.04064">
        <ele>1508.4000244141</ele>
        <time>2021-03-21T07:46:12.000Z</time>
      </trkpt>
      <trkpt lat="45.01792" lon="6.04064">
        <ele>1508.4000244141</ele>
        <time>2021-03-21T07:46:13.000Z</time>
      </trkpt>
      <trkpt lat="45.01792" lon="6.04064">
        <ele>1508.5999755859</ele>
        <time>2021-03-21T07:46:14.000Z</time>
      </trkpt>
      <trkpt lat="45.01792" lon="6.04064">
        <ele>1508.8000488281</ele>
        <time>2021-03-21T07:46:15.000Z</time>
      </trkpt>
      <trkpt lat="45.01792" lon="6.04064">
        <ele>1508.5999755859</ele>
        <time>2021-03-21T07:46:16.000Z</time>
      </trkpt>
      <trkpt lat="45.01792" lon="6.04064">
        <ele>1508.8000488281</ele>
        <time>2021-03-21T07:46:17.000Z</time>
      </trkpt>
      <trkpt lat="45.01792" lon="6.04063">
        <ele>1508.8000488281</ele>
        <time>2021-03-21T07:46:18.000Z</time>
      </trkpt>
      <trkpt lat="45.01793" lon="6.04063">
        <ele>1509</ele>
        <time>2021-03-21T07:46:19.000Z</time>
      </trkpt>
      <trkpt lat="45.01793" lon="6.04063">
        <ele>1509.1999511719</ele>
        <time>2021-03-21T07:46:20.000Z</time>
      </trkpt>
      <trkpt lat="45.01793" lon="6.04063">
        <ele>1509.1999511719</ele>
        <time>2021-03-21T07:46:21.000Z</time>
      </trkpt>
      <trkpt lat="45.01794" lon="6.04063">
        <ele>1509.4000244141</ele>
        <time>2021-03-21T07:46:22.000Z</time>
      </trkpt>
      <trkpt lat="45.01794" lon="6.04063">
        <ele>1509.5999755859</ele>
        <time>2021-03-21T07:46:23.000Z</time>
      </trkpt>
      <trkpt lat="45.01794" lon="6.04063">
        <ele>1509.5999755859</ele>
        <time>2021-03-21T07:46:24.000Z</time>
      </trkpt>
      <trkpt lat="45.01794" lon="6.04063">
        <ele>1509.5999755859</ele>
        <time>2021-03-21T07:46:25.000Z</time>
      </trkpt>
      <trkpt lat="45.01794" lon="6.04063">
        <ele>1509.5999755859</ele>
        <time>2021-03-21T07:46:26.000Z</time>
      </trkpt>
      <trkpt lat="45.01794" lon="6.04063">
        <ele>1509.8000488281</ele>
        <time>2021-03-21T07:46:27.000Z</time>
      </trkpt>
      <trkpt lat="45.01794" lon="6.04063">
        <ele>1509.8000488281</ele>
        <time>2021-03-21T07:46:28.000Z</time>
      </trkpt>
      <trkpt lat="45.01794" lon="6.04064">
        <ele>1509.8000488281</ele>
        <time>2021-03-21T07:46:29.000Z</time>
      </trkpt>
      <trkpt lat="45.01794" lon="6.04064">
        <ele>1509.8000488281</ele>
        <time>2021-03-21T07:46:30.000Z</time>
      </trkpt>
      <trkpt lat="45.01795" lon="6.04064">
        <ele>1510</ele>
        <time>2021-03-21T07:46:31.000Z</time>
      </trkpt>
      <trkpt lat="45.01795" lon="6.04064">
        <ele>1510.1999511719</ele>
        <time>2021-03-21T07:46:32.000Z</time>
      </trkpt>
      <trkpt lat="45.01795" lon="6.04064">
        <ele>1510.4000244141</ele>
        <time>2021-03-21T07:46:33.000Z</time>
      </trkpt>
      <trkpt lat="45.01795" lon="6.04065">
        <ele>1510.4000244141</ele>
        <time>2021-03-21T07:46:34.000Z</time>
      </trkpt>
      <trkpt lat="45.01795" lon="6.04065">
        <ele>1510.4000244141</ele>
        <time>2021-03-21T07:46:35.000Z</time>
      </trkpt>
      <trkpt lat="45.01795" lon="6.04064">
        <ele>1510.5999755859</ele>
        <time>2021-03-21T07:46:36.000Z</time>
      </trkpt>
      <trkpt lat="45.01796" lon="6.04064">
        <ele>1510.5999755859</ele>
        <time>2021-03-21T07:46:37.000Z</time>
      </trkpt>
      <trkpt lat="45.01796" lon="6.04064">
        <ele>1510.5999755859</ele>
        <time>2021-03-21T07:46:38.000Z</time>
      </trkpt>
      <trkpt lat="45.01796" lon="6.04065">
        <ele>1510.5999755859</ele>
        <time>2021-03-21T07:46:39.000Z</time>
      </trkpt>
      <trkpt lat="45.01796" lon="6.04064">
        <ele>1510.5999755859</ele>
        <time>2021-03-21T07:46:40.000Z</time>
      </trkpt>
      <trkpt lat="45.01795" lon="6.04064">
        <ele>1510.4000244141</ele>
        <time>2021-03-21T07:46:41.000Z</time>
      </trkpt>
      <trkpt lat="45.01796" lon="6.04064">
        <ele>1510.5999755859</ele>
        <time>2021-03-21T07:46:42.000Z</time>
      </trkpt>
      <trkpt lat="45.01795" lon="6.04064">
        <ele>1510.5999755859</ele>
        <time>2021-03-21T07:46:43.000Z</time>
      </trkpt>
      <trkpt lat="45.01795" lon="6.04064">
        <ele>1510.4000244141</ele>
        <time>2021-03-21T07:46:44.000Z</time>
      </trkpt>
      <trkpt lat="45.01795" lon="6.04064">
        <ele>1510.4000244141</ele>
        <time>2021-03-21T07:46:45.000Z</time>
      </trkpt>
      <trkpt lat="45.01795" lon="6.04064">
        <ele>1510.4000244141</ele>
        <time>2021-03-21T07:46:46.000Z</time>
      </trkpt>
      <trkpt lat="45.01795" lon="6.04064">
        <ele>1510.4000244141</ele>
        <time>2021-03-21T07:46:47.000Z</time>
      </trkpt>
      <trkpt lat="45.01795" lon="6.04063">
        <ele>1510.4000244141</ele>
        <time>2021-03-21T07:46:48.000Z</time>
      </trkpt>
      <trkpt lat="45.01795" lon="6.04063">
        <ele>1510.4000244141</ele>
        <time>2021-03-21T07:46:49.000Z</time>
      </trkpt>
      <trkpt lat="45.01795" lon="6.04063">
        <ele>1510.4000244141</ele>
        <time>2021-03-21T07:46:50.000Z</time>
      </trkpt>
      <trkpt lat="45.01795" lon="6.04063">
        <ele>1510.4000244141</ele>
        <time>2021-03-21T07:46:51.000Z</time>
      </trkpt>
      <trkpt lat="45.01795" lon="6.04063">
        <ele>1510.4000244141</ele>
        <time>2021-03-21T07:46:52.000Z</time>
      </trkpt>
      <trkpt lat="45.01795" lon="6.04063">
        <ele>1510.4000244141</ele>
        <time>2021-03-21T07:46:53.000Z</time>
      </trkpt>
      <trkpt lat="45.01795" lon="6.04063">
        <ele>1510.4000244141</ele>
        <time>2021-03-21T07:46:54.000Z</time>
      </trkpt>
      <trkpt lat="45.01795" lon="6.04063">
        <ele>1510.4000244141</ele>
        <time>2021-03-21T07:46:55.000Z</time>
      </trkpt>
      <trkpt lat="45.01795" lon="6.04063">
        <ele>1510.4000244141</ele>
        <time>2021-03-21T07:46:56.000Z</time>
      </trkpt>
      <trkpt lat="45.01795" lon="6.04064">
        <ele>1510.4000244141</ele>
        <time>2021-03-21T07:46:57.000Z</time>
      </trkpt>
      <trkpt lat="45.01795" lon="6.04064">
        <ele>1510.4000244141</ele>
        <time>2021-03-21T07:46:58.000Z</time>
      </trkpt>
      <trkpt lat="45.01795" lon="6.04064">
        <ele>1510.4000244141</ele>
        <time>2021-03-21T07:46:59.000Z</time>
      </trkpt>
      <trkpt lat="45.01795" lon="6.04065">
        <ele>1510.4000244141</ele>
        <time>2021-03-21T07:47:00.000Z</time>
      </trkpt>
      <trkpt lat="45.01795" lon="6.04065">
        <ele>1510.4000244141</ele>
        <time>2021-03-21T07:47:01.000Z</time>
      </trkpt>
      <trkpt lat="45.01795" lon="6.04065">
        <ele>1510.4000244141</ele>
        <time>2021-03-21T07:47:02.000Z</time>
      </trkpt>
      <trkpt lat="45.01795" lon="6.04065">
        <ele>1510.4000244141</ele>
        <time>2021-03-21T07:47:03.000Z</time>
      </trkpt>
      <trkpt lat="45.01795" lon="6.04065">
        <ele>1510.4000244141</ele>
        <time>2021-03-21T07:47:04.000Z</time>
      </trkpt>
      <trkpt lat="45.01795" lon="6.04065">
        <ele>1510.1999511719</ele>
        <time>2021-03-21T07:47:05.000Z</time>
      </trkpt>
      <trkpt lat="45.01795" lon="6.04064">
        <ele>1510.1999511719</ele>
        <time>2021-03-21T07:47:06.000Z</time>
      </trkpt>
      <trkpt lat="45.01795" lon="6.04065">
        <ele>1510.1999511719</ele>
        <time>2021-03-21T07:47:07.000Z</time>
      </trkpt>
      <trkpt lat="45.01795" lon="6.04065">
        <ele>1510.1999511719</ele>
        <time>2021-03-21T07:47:08.000Z</time>
      </trkpt>
      <trkpt lat="45.01795" lon="6.04064">
        <ele>1510</ele>
        <time>2021-03-21T07:47:09.000Z</time>
      </trkpt>
      <trkpt lat="45.01795" lon="6.04064">
        <ele>1510.1999511719</ele>
        <time>2021-03-21T07:47:10.000Z</time>
      </trkpt>
      <trkpt lat="45.01795" lon="6.04065">
        <ele>1510</ele>
        <time>2021-03-21T07:47:11.000Z</time>
      </trkpt>
      <trkpt lat="45.01795" lon="6.04065">
        <ele>1510.1999511719</ele>
        <time>2021-03-21T07:47:12.000Z</time>
      </trkpt>
      <trkpt lat="45.01795" lon="6.04065">
        <ele>1510.1999511719</ele>
        <time>2021-03-21T07:47:13.000Z</time>
      </trkpt>
      <trkpt lat="45.01795" lon="6.04065">
        <ele>1510.1999511719</ele>
        <time>2021-03-21T07:47:14.000Z</time>
      </trkpt>
      <trkpt lat="45.01795" lon="6.04065">
        <ele>1510.1999511719</ele>
        <time>2021-03-21T07:47:15.000Z</time>
      </trkpt>
      <trkpt lat="45.01795" lon="6.04065">
        <ele>1510.1999511719</ele>
        <time>2021-03-21T07:47:16.000Z</time>
      </trkpt>
      <trkpt lat="45.01795" lon="6.04065">
        <ele>1510</ele>
        <time>2021-03-21T07:47:17.000Z</time>
      </trkpt>
      <trkpt lat="45.01794" lon="6.04065">
        <ele>1510</ele>
        <time>2021-03-21T07:47:18.000Z</time>
      </trkpt>
      <trkpt lat="45.01794" lon="6.04065">
        <ele>1509.8000488281</ele>
        <time>2021-03-21T07:47:19.000Z</time>
      </trkpt>
      <trkpt lat="45.01794" lon="6.04065">
        <ele>1509.8000488281</ele>
        <time>2021-03-21T07:47:20.000Z</time>
      </trkpt>
      <trkpt lat="45.01794" lon="6.04065">
        <ele>1509.8000488281</ele>
        <time>2021-03-21T07:47:21.000Z</time>
      </trkpt>
      <trkpt lat="45.01794" lon="6.04065">
        <ele>1509.8000488281</ele>
        <time>2021-03-21T07:47:22.000Z</time>
      </trkpt>
      <trkpt lat="45.01794" lon="6.04065">
        <ele>1509.8000488281</ele>
        <time>2021-03-21T07:47:23.000Z</time>
      </trkpt>
      <trkpt lat="45.01794" lon="6.04065">
        <ele>1509.8000488281</ele>
        <time>2021-03-21T07:47:24.000Z</time>
      </trkpt>
      <trkpt lat="45.01794" lon="6.04065">
        <ele>1509.5999755859</ele>
        <time>2021-03-21T07:47:25.000Z</time>
      </trkpt>
      <trkpt lat="45.01794" lon="6.04065">
        <ele>1509.5999755859</ele>
        <time>2021-03-21T07:47:26.000Z</time>
      </trkpt>
      <trkpt lat="45.01794" lon="6.04065">
        <ele>1509.5999755859</ele>
        <time>2021-03-21T07:47:27.000Z</time>
      </trkpt>
      <trkpt lat="45.01794" lon="6.04065">
        <ele>1509.5999755859</ele>
        <time>2021-03-21T07:47:28.000Z</time>
      </trkpt>
      <trkpt lat="45.01794" lon="6.04065">
        <ele>1509.5999755859</ele>
        <time>2021-03-21T07:47:29.000Z</time>
      </trkpt>
      <trkpt lat="45.01794" lon="6.04065">
        <ele>1509.5999755859</ele>
        <time>2021-03-21T07:47:30.000Z</time>
      </trkpt>
      <trkpt lat="45.01794" lon="6.04065">
        <ele>1509.4000244141</ele>
        <time>2021-03-21T07:47:31.000Z</time>
      </trkpt>
      <trkpt lat="45.01794" lon="6.04065">
        <ele>1509.5999755859</ele>
        <time>2021-03-21T07:47:32.000Z</time>
      </trkpt>
      <trkpt lat="45.01794" lon="6.04065">
        <ele>1509.5999755859</ele>
        <time>2021-03-21T07:47:33.000Z</time>
      </trkpt>
      <trkpt lat="45.01794" lon="6.04064">
        <ele>1509.4000244141</ele>
        <time>2021-03-21T07:47:34.000Z</time>
      </trkpt>
      <trkpt lat="45.01794" lon="6.04064">
        <ele>1509.5999755859</ele>
        <time>2021-03-21T07:47:35.000Z</time>
      </trkpt>
      <trkpt lat="45.01794" lon="6.04064">
        <ele>1509.5999755859</ele>
        <time>2021-03-21T07:47:36.000Z</time>
      </trkpt>
      <trkpt lat="45.01794" lon="6.04064">
        <ele>1509.5999755859</ele>
        <time>2021-03-21T07:47:37.000Z</time>
      </trkpt>
      <trkpt lat="45.01794" lon="6.04064">
        <ele>1509.8000488281</ele>
        <time>2021-03-21T07:47:38.000Z</time>
      </trkpt>
      <trkpt lat="45.01794" lon="6.04064">
        <ele>1509.8000488281</ele>
        <time>2021-03-21T07:47:39.000Z</time>
      </trkpt>
      <trkpt lat="45.01794" lon="6.04064">
        <ele>1509.8000488281</ele>
        <time>2021-03-21T07:47:40.000Z</time>
      </trkpt>
      <trkpt lat="45.01794" lon="6.04064">
        <ele>1509.8000488281</ele>
        <time>2021-03-21T07:47:41.000Z</time>
      </trkpt>
      <trkpt lat="45.01794" lon="6.04064">
        <ele>1509.8000488281</ele>
        <time>2021-03-21T07:47:42.000Z</time>
      </trkpt>
      <trkpt lat="45.01794" lon="6.04064">
        <ele>1509.8000488281</ele>
        <time>2021-03-21T07:47:43.000Z</time>
      </trkpt>
      <trkpt lat="45.01794" lon="6.04064">
        <ele>1509.8000488281</ele>
        <time>2021-03-21T07:47:44.000Z</time>
      </trkpt>
      <trkpt lat="45.01794" lon="6.04064">
        <ele>1509.8000488281</ele>
        <time>2021-03-21T07:47:45.000Z</time>
      </trkpt>
      <trkpt lat="45.01794" lon="6.04064">
        <ele>1509.8000488281</ele>
        <time>2021-03-21T07:47:46.000Z</time>
      </trkpt>
      <trkpt lat="45.01794" lon="6.04064">
        <ele>1509.8000488281</ele>
        <time>2021-03-21T07:47:47.000Z</time>
      </trkpt>
      <trkpt lat="45.01794" lon="6.04064">
        <ele>1509.8000488281</ele>
        <time>2021-03-21T07:47:48.000Z</time>
      </trkpt>
      <trkpt lat="45.01794" lon="6.04064">
        <ele>1510</ele>
        <time>2021-03-21T07:47:49.000Z</time>
      </trkpt>
      <trkpt lat="45.01794" lon="6.04064">
        <ele>1509.8000488281</ele>
        <time>2021-03-21T07:47:50.000Z</time>
      </trkpt>
      <trkpt lat="45.01794" lon="6.04063">
        <ele>1509.8000488281</ele>
        <time>2021-03-21T07:47:51.000Z</time>
      </trkpt>
      <trkpt lat="45.01794" lon="6.04063">
        <ele>1509.8000488281</ele>
        <time>2021-03-21T07:47:52.000Z</time>
      </trkpt>
      <trkpt lat="45.01794" lon="6.04063">
        <ele>1509.5999755859</ele>
        <time>2021-03-21T07:47:53.000Z</time>
      </trkpt>
      <trkpt lat="45.01794" lon="6.04062">
        <ele>1509.4000244141</ele>
        <time>2021-03-21T07:47:54.000Z</time>
      </trkpt>
      <trkpt lat="45.01793" lon="6.04062">
        <ele>1509.1999511719</ele>
        <time>2021-03-21T07:47:55.000Z</time>
      </trkpt>
      <trkpt lat="45.01794" lon="6.04062">
        <ele>1509.4000244141</ele>
        <time>2021-03-21T07:47:56.000Z</time>
      </trkpt>
      <trkpt lat="45.01794" lon="6.04062">
        <ele>1509.4000244141</ele>
        <time>2021-03-21T07:47:57.000Z</time>
      </trkpt>
      <trkpt lat="45.01794" lon="6.04062">
        <ele>1509.5999755859</ele>
        <time>2021-03-21T07:47:58.000Z</time>
      </trkpt>
      <trkpt lat="45.01794" lon="6.04061">
        <ele>1509.5999755859</ele>
        <time>2021-03-21T07:47:59.000Z</time>
      </trkpt>
      <trkpt lat="45.01794" lon="6.04061">
        <ele>1509.5999755859</ele>
        <time>2021-03-21T07:48:00.000Z</time>
      </trkpt>
      <trkpt lat="45.01794" lon="6.04061">
        <ele>1509.5999755859</ele>
        <time>2021-03-21T07:48:01.000Z</time>
      </trkpt>
      <trkpt lat="45.01794" lon="6.04061">
        <ele>1509.5999755859</ele>
        <time>2021-03-21T07:48:02.000Z</time>
      </trkpt>
      <trkpt lat="45.01794" lon="6.04061">
        <ele>1509.8000488281</ele>
        <time>2021-03-21T07:48:03.000Z</time>
      </trkpt>
      <trkpt lat="45.01794" lon="6.04061">
        <ele>1509.8000488281</ele>
        <time>2021-03-21T07:48:04.000Z</time>
      </trkpt>
      <trkpt lat="45.01794" lon="6.04061">
        <ele>1509.5999755859</ele>
        <time>2021-03-21T07:48:05.000Z</time>
      </trkpt>
      <trkpt lat="45.01794" lon="6.04061">
        <ele>1509.8000488281</ele>
        <time>2021-03-21T07:48:06.000Z</time>
      </trkpt>
      <trkpt lat="45.01795" lon="6.04061">
        <ele>1510</ele>
        <time>2021-03-21T07:48:07.000Z</time>
      </trkpt>
      <trkpt lat="45.01795" lon="6.04061">
        <ele>1510</ele>
        <time>2021-03-21T07:48:08.000Z</time>
      </trkpt>
      <trkpt lat="45.01795" lon="6.04061">
        <ele>1510</ele>
        <time>2021-03-21T07:48:09.000Z</time>
      </trkpt>
      <trkpt lat="45.01795" lon="6.0406">
        <ele>1510</ele>
        <time>2021-03-21T07:48:10.000Z</time>
      </trkpt>
      <trkpt lat="45.01795" lon="6.0406">
        <ele>1510</ele>
        <time>2021-03-21T07:48:11.000Z</time>
      </trkpt>
      <trkpt lat="45.01795" lon="6.0406">
        <ele>1510</ele>
        <time>2021-03-21T07:48:12.000Z</time>
      </trkpt>
      <trkpt lat="45.01795" lon="6.0406">
        <ele>1510.1999511719</ele>
        <time>2021-03-21T07:48:13.000Z</time>
      </trkpt>
      <trkpt lat="45.01794" lon="6.0406">
        <ele>1509.8000488281</ele>
        <time>2021-03-21T07:48:14.000Z</time>
      </trkpt>
      <trkpt lat="45.01794" lon="6.04059">
        <ele>1509.8000488281</ele>
        <time>2021-03-21T07:48:15.000Z</time>
      </trkpt>
      <trkpt lat="45.01795" lon="6.04059">
        <ele>1509.8000488281</ele>
        <time>2021-03-21T07:48:16.000Z</time>
      </trkpt>
      <trkpt lat="45.01795" lon="6.04059">
        <ele>1510</ele>
        <time>2021-03-21T07:48:17.000Z</time>
      </trkpt>
      <trkpt lat="45.01795" lon="6.04059">
        <ele>1510</ele>
        <time>2021-03-21T07:48:18.000Z</time>
      </trkpt>
      <trkpt lat="45.01795" lon="6.04059">
        <ele>1510.1999511719</ele>
        <time>2021-03-21T07:48:19.000Z</time>
      </trkpt>
      <trkpt lat="45.01795" lon="6.04059">
        <ele>1510.1999511719</ele>
        <time>2021-03-21T07:48:20.000Z</time>
      </trkpt>
      <trkpt lat="45.01795" lon="6.0406">
        <ele>1510.1999511719</ele>
        <time>2021-03-21T07:48:21.000Z</time>
      </trkpt>
      <trkpt lat="45.01795" lon="6.0406">
        <ele>1510</ele>
        <time>2021-03-21T07:48:22.000Z</time>
      </trkpt>
      <trkpt lat="45.01795" lon="6.0406">
        <ele>1510</ele>
        <time>2021-03-21T07:48:23.000Z</time>
      </trkpt>
      <trkpt lat="45.01794" lon="6.0406">
        <ele>1509.8000488281</ele>
        <time>2021-03-21T07:48:24.000Z</time>
      </trkpt>
      <trkpt lat="45.01794" lon="6.0406">
        <ele>1509.5999755859</ele>
        <time>2021-03-21T07:48:25.000Z</time>
      </trkpt>
      <trkpt lat="45.01794" lon="6.0406">
        <ele>1509.5999755859</ele>
        <time>2021-03-21T07:48:26.000Z</time>
      </trkpt>
      <trkpt lat="45.01794" lon="6.0406">
        <ele>1509.8000488281</ele>
        <time>2021-03-21T07:48:27.000Z</time>
      </trkpt>
      <trkpt lat="45.01794" lon="6.0406">
        <ele>1509.8000488281</ele>
        <time>2021-03-21T07:48:28.000Z</time>
      </trkpt>
      <trkpt lat="45.01794" lon="6.0406">
        <ele>1509.8000488281</ele>
        <time>2021-03-21T07:48:29.000Z</time>
      </trkpt>
      <trkpt lat="45.01794" lon="6.0406">
        <ele>1509.4000244141</ele>
        <time>2021-03-21T07:48:30.000Z</time>
      </trkpt>
      <trkpt lat="45.01793" lon="6.0406">
        <ele>1509.1999511719</ele>
        <time>2021-03-21T07:48:31.000Z</time>
      </trkpt>
      <trkpt lat="45.01793" lon="6.0406">
        <ele>1509.1999511719</ele>
        <time>2021-03-21T07:48:32.000Z</time>
      </trkpt>
      <trkpt lat="45.01793" lon="6.04059">
        <ele>1509</ele>
        <time>2021-03-21T07:48:33.000Z</time>
      </trkpt>
      <trkpt lat="45.01793" lon="6.04058">
        <ele>1508.8000488281</ele>
        <time>2021-03-21T07:48:34.000Z</time>
      </trkpt>
      <trkpt lat="45.01792" lon="6.04057">
        <ele>1508.5999755859</ele>
        <time>2021-03-21T07:48:35.000Z</time>
      </trkpt>
      <trkpt lat="45.01792" lon="6.04055">
        <ele>1508.4000244141</ele>
        <time>2021-03-21T07:48:36.000Z</time>
      </trkpt>
      <trkpt lat="45.01792" lon="6.04053">
        <ele>1508.1999511719</ele>
        <time>2021-03-21T07:48:37.000Z</time>
      </trkpt>
      <trkpt lat="45.01792" lon="6.04052">
        <ele>1508</ele>
        <time>2021-03-21T07:48:38.000Z</time>
      </trkpt>
      <trkpt lat="45.01792" lon="6.04049">
        <ele>1507.8000488281</ele>
        <time>2021-03-21T07:48:39.000Z</time>
      </trkpt>
      <trkpt lat="45.01791" lon="6.04047">
        <ele>1507.5999755859</ele>
        <time>2021-03-21T07:48:40.000Z</time>
      </trkpt>
      <trkpt lat="45.01791" lon="6.04045">
        <ele>1507.1999511719</ele>
        <time>2021-03-21T07:48:41.000Z</time>
      </trkpt>
      <trkpt lat="45.0179" lon="6.04042">
        <ele>1506.5999755859</ele>
        <time>2021-03-21T07:48:42.000Z</time>
      </trkpt>
      <trkpt lat="45.01789" lon="6.04039">
        <ele>1506</ele>
        <time>2021-03-21T07:48:43.000Z</time>
      </trkpt>
      <trkpt lat="45.01788" lon="6.04037">
        <ele>1505.4000244141</ele>
        <time>2021-03-21T07:48:44.000Z</time>
      </trkpt>
      <trkpt lat="45.01787" lon="6.04034">
        <ele>1504.8000488281</ele>
        <time>2021-03-21T07:48:45.000Z</time>
      </trkpt>
      <trkpt lat="45.01786" lon="6.04032">
        <ele>1504</ele>
        <time>2021-03-21T07:48:46.000Z</time>
      </trkpt>
      <trkpt lat="45.01784" lon="6.0403">
        <ele>1503</ele>
        <time>2021-03-21T07:48:47.000Z</time>
      </trkpt>
      <trkpt lat="45.01783" lon="6.04028">
        <ele>1502.1999511719</ele>
        <time>2021-03-21T07:48:48.000Z</time>
      </trkpt>
      <trkpt lat="45.01782" lon="6.04026">
        <ele>1501.5999755859</ele>
        <time>2021-03-21T07:48:49.000Z</time>
      </trkpt>
      <trkpt lat="45.0178" lon="6.04025">
        <ele>1500.5999755859</ele>
        <time>2021-03-21T07:48:50.000Z</time>
      </trkpt>
      <trkpt lat="45.01779" lon="6.04023">
        <ele>1499.8000488281</ele>
        <time>2021-03-21T07:48:51.000Z</time>
      </trkpt>
      <trkpt lat="45.01778" lon="6.04021">
        <ele>1498.8000488281</ele>
        <time>2021-03-21T07:48:52.000Z</time>
      </trkpt>
      <trkpt lat="45.01776" lon="6.0402">
        <ele>1498</ele>
        <time>2021-03-21T07:48:53.000Z</time>
      </trkpt>
      <trkpt lat="45.01775" lon="6.04018">
        <ele>1497</ele>
        <time>2021-03-21T07:48:54.000Z</time>
      </trkpt>
      <trkpt lat="45.01773" lon="6.04017">
        <ele>1496.1999511719</ele>
        <time>2021-03-21T07:48:55.000Z</time>
      </trkpt>
      <trkpt lat="45.01771" lon="6.04015">
        <ele>1495</ele>
        <time>2021-03-21T07:48:56.000Z</time>
      </trkpt>
      <trkpt lat="45.0177" lon="6.04014">
        <ele>1494.4000244141</ele>
        <time>2021-03-21T07:48:57.000Z</time>
      </trkpt>
      <trkpt lat="45.01769" lon="6.04013">
        <ele>1493.8000488281</ele>
        <time>2021-03-21T07:48:58.000Z</time>
      </trkpt>
      <trkpt lat="45.01767" lon="6.04013">
        <ele>1493</ele>
        <time>2021-03-21T07:48:59.000Z</time>
      </trkpt>
      <trkpt lat="45.01767" lon="6.04012">
        <ele>1492.5999755859</ele>
        <time>2021-03-21T07:49:00.000Z</time>
      </trkpt>
      <trkpt lat="45.01766" lon="6.04012">
        <ele>1492.1999511719</ele>
        <time>2021-03-21T07:49:01.000Z</time>
      </trkpt>
      <trkpt lat="45.01765" lon="6.04011">
        <ele>1491.8000488281</ele>
        <time>2021-03-21T07:49:02.000Z</time>
      </trkpt>
      <trkpt lat="45.01764" lon="6.04011">
        <ele>1491.4000244141</ele>
        <time>2021-03-21T07:49:03.000Z</time>
      </trkpt>
      <trkpt lat="45.01764" lon="6.04011">
        <ele>1491.4000244141</ele>
        <time>2021-03-21T07:49:04.000Z</time>
      </trkpt>
      <trkpt lat="45.01764" lon="6.04011">
        <ele>1491.5999755859</ele>
        <time>2021-03-21T07:49:05.000Z</time>
      </trkpt>
      <trkpt lat="45.01765" lon="6.04011">
        <ele>1491.8000488281</ele>
        <time>2021-03-21T07:49:06.000Z</time>
      </trkpt>
      <trkpt lat="45.01765" lon="6.04011">
        <ele>1491.8000488281</ele>
        <time>2021-03-21T07:49:07.000Z</time>
      </trkpt>
      <trkpt lat="45.01765" lon="6.04011">
        <ele>1491.8000488281</ele>
        <time>2021-03-21T07:49:08.000Z</time>
      </trkpt>
      <trkpt lat="45.01765" lon="6.04011">
        <ele>1491.8000488281</ele>
        <time>2021-03-21T07:49:09.000Z</time>
      </trkpt>
      <trkpt lat="45.01765" lon="6.04011">
        <ele>1492</ele>
        <time>2021-03-21T07:49:10.000Z</time>
      </trkpt>
      <trkpt lat="45.01766" lon="6.04011">
        <ele>1492.1999511719</ele>
        <time>2021-03-21T07:49:11.000Z</time>
      </trkpt>
      <trkpt lat="45.01766" lon="6.04011">
        <ele>1492.5999755859</ele>
        <time>2021-03-21T07:49:12.000Z</time>
      </trkpt>
      <trkpt lat="45.01766" lon="6.04011">
        <ele>1492.5999755859</ele>
        <time>2021-03-21T07:49:13.000Z</time>
      </trkpt>
      <trkpt lat="45.01767" lon="6.04011">
        <ele>1493</ele>
        <time>2021-03-21T07:49:14.000Z</time>
      </trkpt>
      <trkpt lat="45.01767" lon="6.04011">
        <ele>1493</ele>
        <time>2021-03-21T07:49:15.000Z</time>
      </trkpt>
      <trkpt lat="45.01767" lon="6.0401">
        <ele>1493.1999511719</ele>
        <time>2021-03-21T07:49:16.000Z</time>
      </trkpt>
      <trkpt lat="45.01768" lon="6.0401">
        <ele>1493.5999755859</ele>
        <time>2021-03-21T07:49:17.000Z</time>
      </trkpt>
      <trkpt lat="45.01768" lon="6.0401">
        <ele>1493.8000488281</ele>
        <time>2021-03-21T07:49:18.000Z</time>
      </trkpt>
      <trkpt lat="45.01768" lon="6.0401">
        <ele>1494</ele>
        <time>2021-03-21T07:49:19.000Z</time>
      </trkpt>
      <trkpt lat="45.01769" lon="6.04009">
        <ele>1494.4000244141</ele>
        <time>2021-03-21T07:49:20.000Z</time>
      </trkpt>
      <trkpt lat="45.01769" lon="6.04008">
        <ele>1494.8000488281</ele>
        <time>2021-03-21T07:49:21.000Z</time>
      </trkpt>
      <trkpt lat="45.01769" lon="6.04008">
        <ele>1494.8000488281</ele>
        <time>2021-03-21T07:49:22.000Z</time>
      </trkpt>
      <trkpt lat="45.0177" lon="6.04009">
        <ele>1494.8000488281</ele>
        <time>2021-03-21T07:49:23.000Z</time>
      </trkpt>
      <trkpt lat="45.0177" lon="6.04008">
        <ele>1495</ele>
        <time>2021-03-21T07:49:24.000Z</time>
      </trkpt>
      <trkpt lat="45.0177" lon="6.04008">
        <ele>1495</ele>
        <time>2021-03-21T07:49:25.000Z</time>
      </trkpt>
      <trkpt lat="45.0177" lon="6.04008">
        <ele>1495</ele>
        <time>2021-03-21T07:49:26.000Z</time>
      </trkpt>
      <trkpt lat="45.0177" lon="6.04008">
        <ele>1495.1999511719</ele>
        <time>2021-03-21T07:49:27.000Z</time>
      </trkpt>
      <trkpt lat="45.0177" lon="6.04008">
        <ele>1495.4000244141</ele>
        <time>2021-03-21T07:49:28.000Z</time>
      </trkpt>
      <trkpt lat="45.0177" lon="6.04008">
        <ele>1495.4000244141</ele>
        <time>2021-03-21T07:49:29.000Z</time>
      </trkpt>
      <trkpt lat="45.0177" lon="6.04008">
        <ele>1495.4000244141</ele>
        <time>2021-03-21T07:49:30.000Z</time>
      </trkpt>
      <trkpt lat="45.0177" lon="6.04007">
        <ele>1495.4000244141</ele>
        <time>2021-03-21T07:49:31.000Z</time>
      </trkpt>
      <trkpt lat="45.0177" lon="6.04007">
        <ele>1495.4000244141</ele>
        <time>2021-03-21T07:49:32.000Z</time>
      </trkpt>
      <trkpt lat="45.0177" lon="6.04007">
        <ele>1495.4000244141</ele>
        <time>2021-03-21T07:49:33.000Z</time>
      </trkpt>
      <trkpt lat="45.0177" lon="6.04007">
        <ele>1495.4000244141</ele>
        <time>2021-03-21T07:49:34.000Z</time>
      </trkpt>
      <trkpt lat="45.0177" lon="6.04007">
        <ele>1495.4000244141</ele>
        <time>2021-03-21T07:49:35.000Z</time>
      </trkpt>
      <trkpt lat="45.0177" lon="6.04006">
        <ele>1495.4000244141</ele>
        <time>2021-03-21T07:49:36.000Z</time>
      </trkpt>
      <trkpt lat="45.0177" lon="6.04006">
        <ele>1495.4000244141</ele>
        <time>2021-03-21T07:49:37.000Z</time>
      </trkpt>
      <trkpt lat="45.0177" lon="6.04006">
        <ele>1495.4000244141</ele>
        <time>2021-03-21T07:49:38.000Z</time>
      </trkpt>
      <trkpt lat="45.01769" lon="6.04006">
        <ele>1495.1999511719</ele>
        <time>2021-03-21T07:49:39.000Z</time>
      </trkpt>
      <trkpt lat="45.01769" lon="6.04006">
        <ele>1495</ele>
        <time>2021-03-21T07:49:40.000Z</time>
      </trkpt>
      <trkpt lat="45.01768" lon="6.04006">
        <ele>1494.5999755859</ele>
        <time>2021-03-21T07:49:41.000Z</time>
      </trkpt>
      <trkpt lat="45.01767" lon="6.04005">
        <ele>1494</ele>
        <time>2021-03-21T07:49:42.000Z</time>
      </trkpt>
      <trkpt lat="45.01766" lon="6.04005">
        <ele>1493.4000244141</ele>
        <time>2021-03-21T07:49:43.000Z</time>
      </trkpt>
      <trkpt lat="45.01765" lon="6.04005">
        <ele>1493</ele>
        <time>2021-03-21T07:49:44.000Z</time>
      </trkpt>
      <trkpt lat="45.01764" lon="6.04004">
        <ele>1492.4000244141</ele>
        <time>2021-03-21T07:49:45.000Z</time>
      </trkpt>
      <trkpt lat="45.01762" lon="6.04004">
        <ele>1491.8000488281</ele>
        <time>2021-03-21T07:49:46.000Z</time>
      </trkpt>
      <trkpt lat="45.01762" lon="6.04004">
        <ele>1491.5999755859</ele>
        <time>2021-03-21T07:49:47.000Z</time>
      </trkpt>
      <trkpt lat="45.01761" lon="6.04003">
        <ele>1491.1999511719</ele>
        <time>2021-03-21T07:49:48.000Z</time>
      </trkpt>
      <trkpt lat="45.0176" lon="6.04003">
        <ele>1491</ele>
        <time>2021-03-21T07:49:49.000Z</time>
      </trkpt>
      <trkpt lat="45.01759" lon="6.04003">
        <ele>1490.4000244141</ele>
        <time>2021-03-21T07:49:50.000Z</time>
      </trkpt>
      <trkpt lat="45.01757" lon="6.04001">
        <ele>1490</ele>
        <time>2021-03-21T07:49:51.000Z</time>
      </trkpt>
      <trkpt lat="45.01756" lon="6.04001">
        <ele>1489.8000488281</ele>
        <time>2021-03-21T07:49:52.000Z</time>
      </trkpt>
      <trkpt lat="45.01755" lon="6.04">
        <ele>1489.1999511719</ele>
        <time>2021-03-21T07:49:53.000Z</time>
      </trkpt>
      <trkpt lat="45.01754" lon="6.03999">
        <ele>1489.1999511719</ele>
        <time>2021-03-21T07:49:54.000Z</time>
      </trkpt>
      <trkpt lat="45.01753" lon="6.03999">
        <ele>1489</ele>
        <time>2021-03-21T07:49:55.000Z</time>
      </trkpt>
      <trkpt lat="45.01753" lon="6.03998">
        <ele>1488.8000488281</ele>
        <time>2021-03-21T07:49:56.000Z</time>
      </trkpt>
      <trkpt lat="45.01751" lon="6.03998">
        <ele>1488.4000244141</ele>
        <time>2021-03-21T07:49:57.000Z</time>
      </trkpt>
      <trkpt lat="45.0175" lon="6.03997">
        <ele>1487.8000488281</ele>
        <time>2021-03-21T07:49:58.000Z</time>
      </trkpt>
      <trkpt lat="45.01748" lon="6.03996">
        <ele>1487.4000244141</ele>
        <time>2021-03-21T07:49:59.000Z</time>
      </trkpt>
      <trkpt lat="45.01747" lon="6.03996">
        <ele>1487</ele>
        <time>2021-03-21T07:50:00.000Z</time>
      </trkpt>
      <trkpt lat="45.01746" lon="6.03995">
        <ele>1486.5999755859</ele>
        <time>2021-03-21T07:50:01.000Z</time>
      </trkpt>
      <trkpt lat="45.01745" lon="6.03995">
        <ele>1486.1999511719</ele>
        <time>2021-03-21T07:50:02.000Z</time>
      </trkpt>
      <trkpt lat="45.01743" lon="6.03994">
        <ele>1485.8000488281</ele>
        <time>2021-03-21T07:50:03.000Z</time>
      </trkpt>
      <trkpt lat="45.01742" lon="6.03994">
        <ele>1485.4000244141</ele>
        <time>2021-03-21T07:50:04.000Z</time>
      </trkpt>
      <trkpt lat="45.01741" lon="6.03993">
        <ele>1485.1999511719</ele>
        <time>2021-03-21T07:50:05.000Z</time>
      </trkpt>
      <trkpt lat="45.01741" lon="6.03993">
        <ele>1484.8000488281</ele>
        <time>2021-03-21T07:50:06.000Z</time>
      </trkpt>
      <trkpt lat="45.01739" lon="6.03992">
        <ele>1484.5999755859</ele>
        <time>2021-03-21T07:50:07.000Z</time>
      </trkpt>
      <trkpt lat="45.01738" lon="6.03991">
        <ele>1484.1999511719</ele>
        <time>2021-03-21T07:50:08.000Z</time>
      </trkpt>
      <trkpt lat="45.01738" lon="6.03991">
        <ele>1484.1999511719</ele>
        <time>2021-03-21T07:50:09.000Z</time>
      </trkpt>
      <trkpt lat="45.01736" lon="6.0399">
        <ele>1483.8000488281</ele>
        <time>2021-03-21T07:50:10.000Z</time>
      </trkpt>
      <trkpt lat="45.01735" lon="6.03989">
        <ele>1483.8000488281</ele>
        <time>2021-03-21T07:50:11.000Z</time>
      </trkpt>
      <trkpt lat="45.01735" lon="6.03989">
        <ele>1483.5999755859</ele>
        <time>2021-03-21T07:50:12.000Z</time>
      </trkpt>
      <trkpt lat="45.01734" lon="6.03988">
        <ele>1483.5999755859</ele>
        <time>2021-03-21T07:50:13.000Z</time>
      </trkpt>
      <trkpt lat="45.01734" lon="6.03987">
        <ele>1483.5999755859</ele>
        <time>2021-03-21T07:50:14.000Z</time>
      </trkpt>
      <trkpt lat="45.01733" lon="6.03986">
        <ele>1483.5999755859</ele>
        <time>2021-03-21T07:50:15.000Z</time>
      </trkpt>
      <trkpt lat="45.01731" lon="6.03985">
        <ele>1483.5999755859</ele>
        <time>2021-03-21T07:50:16.000Z</time>
      </trkpt>
      <trkpt lat="45.01731" lon="6.03984">
        <ele>1483.4000244141</ele>
        <time>2021-03-21T07:50:17.000Z</time>
      </trkpt>
      <trkpt lat="45.0173" lon="6.03983">
        <ele>1483.4000244141</ele>
        <time>2021-03-21T07:50:18.000Z</time>
      </trkpt>
      <trkpt lat="45.01729" lon="6.03982">
        <ele>1483.4000244141</ele>
        <time>2021-03-21T07:50:19.000Z</time>
      </trkpt>
      <trkpt lat="45.01729" lon="6.03982">
        <ele>1483.4000244141</ele>
        <time>2021-03-21T07:50:20.000Z</time>
      </trkpt>
      <trkpt lat="45.01729" lon="6.03982">
        <ele>1483.4000244141</ele>
        <time>2021-03-21T07:50:21.000Z</time>
      </trkpt>
      <trkpt lat="45.01728" lon="6.03981">
        <ele>1483.1999511719</ele>
        <time>2021-03-21T07:50:22.000Z</time>
      </trkpt>
      <trkpt lat="45.01727" lon="6.03981">
        <ele>1483.1999511719</ele>
        <time>2021-03-21T07:50:23.000Z</time>
      </trkpt>
      <trkpt lat="45.01725" lon="6.0398">
        <ele>1483</ele>
        <time>2021-03-21T07:50:24.000Z</time>
      </trkpt>
      <trkpt lat="45.01724" lon="6.03979">
        <ele>1483</ele>
        <time>2021-03-21T07:50:25.000Z</time>
      </trkpt>
      <trkpt lat="45.01724" lon="6.03979">
        <ele>1483</ele>
        <time>2021-03-21T07:50:26.000Z</time>
      </trkpt>
      <trkpt lat="45.01724" lon="6.03978">
        <ele>1483</ele>
        <time>2021-03-21T07:50:27.000Z</time>
      </trkpt>
      <trkpt lat="45.01724" lon="6.03978">
        <ele>1483</ele>
        <time>2021-03-21T07:50:28.000Z</time>
      </trkpt>
      <trkpt lat="45.01724" lon="6.03977">
        <ele>1483</ele>
        <time>2021-03-21T07:50:29.000Z</time>
      </trkpt>
      <trkpt lat="45.01723" lon="6.03977">
        <ele>1483</ele>
        <time>2021-03-21T07:50:30.000Z</time>
      </trkpt>
      <trkpt lat="45.01722" lon="6.03977">
        <ele>1482.8000488281</ele>
        <time>2021-03-21T07:50:31.000Z</time>
      </trkpt>
      <trkpt lat="45.01722" lon="6.03977">
        <ele>1482.8000488281</ele>
        <time>2021-03-21T07:50:32.000Z</time>
      </trkpt>
      <trkpt lat="45.01722" lon="6.03976">
        <ele>1482.8000488281</ele>
        <time>2021-03-21T07:50:33.000Z</time>
      </trkpt>
      <trkpt lat="45.01722" lon="6.03976">
        <ele>1482.8000488281</ele>
        <time>2021-03-21T07:50:34.000Z</time>
      </trkpt>
      <trkpt lat="45.01722" lon="6.03976">
        <ele>1482.8000488281</ele>
        <time>2021-03-21T07:50:35.000Z</time>
      </trkpt>
      <trkpt lat="45.01722" lon="6.03975">
        <ele>1482.8000488281</ele>
        <time>2021-03-21T07:50:36.000Z</time>
      </trkpt>
      <trkpt lat="45.01721" lon="6.03975">
        <ele>1482.8000488281</ele>
        <time>2021-03-21T07:50:37.000Z</time>
      </trkpt>
      <trkpt lat="45.01721" lon="6.03975">
        <ele>1482.5999755859</ele>
        <time>2021-03-21T07:50:38.000Z</time>
      </trkpt>
      <trkpt lat="45.01721" lon="6.03975">
        <ele>1482.8000488281</ele>
        <time>2021-03-21T07:50:39.000Z</time>
      </trkpt>
      <trkpt lat="45.01721" lon="6.03976">
        <ele>1482.5999755859</ele>
        <time>2021-03-21T07:50:40.000Z</time>
      </trkpt>
      <trkpt lat="45.01721" lon="6.03976">
        <ele>1482.5999755859</ele>
        <time>2021-03-21T07:50:41.000Z</time>
      </trkpt>
      <trkpt lat="45.0172" lon="6.03976">
        <ele>1482.5999755859</ele>
        <time>2021-03-21T07:50:42.000Z</time>
      </trkpt>
      <trkpt lat="45.0172" lon="6.03976">
        <ele>1482.5999755859</ele>
        <time>2021-03-21T07:50:43.000Z</time>
      </trkpt>
      <trkpt lat="45.0172" lon="6.03976">
        <ele>1482.5999755859</ele>
        <time>2021-03-21T07:50:44.000Z</time>
      </trkpt>
      <trkpt lat="45.0172" lon="6.03976">
        <ele>1482.5999755859</ele>
        <time>2021-03-21T07:50:45.000Z</time>
      </trkpt>
      <trkpt lat="45.0172" lon="6.03976">
        <ele>1482.5999755859</ele>
        <time>2021-03-21T07:50:46.000Z</time>
      </trkpt>
      <trkpt lat="45.0172" lon="6.03975">
        <ele>1482.5999755859</ele>
        <time>2021-03-21T07:50:47.000Z</time>
      </trkpt>
      <trkpt lat="45.0172" lon="6.03975">
        <ele>1482.5999755859</ele>
        <time>2021-03-21T07:50:48.000Z</time>
      </trkpt>
      <trkpt lat="45.0172" lon="6.03975">
        <ele>1482.5999755859</ele>
        <time>2021-03-21T07:50:49.000Z</time>
      </trkpt>
      <trkpt lat="45.0172" lon="6.03975">
        <ele>1482.5999755859</ele>
        <time>2021-03-21T07:50:50.000Z</time>
      </trkpt>
      <trkpt lat="45.0172" lon="6.03974">
        <ele>1482.5999755859</ele>
        <time>2021-03-21T07:50:51.000Z</time>
      </trkpt>
      <trkpt lat="45.0172" lon="6.03974">
        <ele>1482.5999755859</ele>
        <time>2021-03-21T07:50:52.000Z</time>
      </trkpt>
      <trkpt lat="45.0172" lon="6.03974">
        <ele>1482.5999755859</ele>
        <time>2021-03-21T07:50:53.000Z</time>
      </trkpt>
      <trkpt lat="45.0172" lon="6.03973">
        <ele>1482.8000488281</ele>
        <time>2021-03-21T07:50:54.000Z</time>
      </trkpt>
      <trkpt lat="45.0172" lon="6.03973">
        <ele>1482.8000488281</ele>
        <time>2021-03-21T07:50:55.000Z</time>
      </trkpt>
      <trkpt lat="45.0172" lon="6.03973">
        <ele>1482.8000488281</ele>
        <time>2021-03-21T07:50:56.000Z</time>
      </trkpt>
      <trkpt lat="45.0172" lon="6.03973">
        <ele>1482.8000488281</ele>
        <time>2021-03-21T07:50:57.000Z</time>
      </trkpt>
      <trkpt lat="45.0172" lon="6.03973">
        <ele>1482.8000488281</ele>
        <time>2021-03-21T07:50:58.000Z</time>
      </trkpt>
      <trkpt lat="45.0172" lon="6.03972">
        <ele>1482.8000488281</ele>
        <time>2021-03-21T07:50:59.000Z</time>
      </trkpt>
      <trkpt lat="45.01721" lon="6.03972">
        <ele>1482.8000488281</ele>
        <time>2021-03-21T07:51:00.000Z</time>
      </trkpt>
      <trkpt lat="45.0172" lon="6.03973">
        <ele>1482.8000488281</ele>
        <time>2021-03-21T07:51:01.000Z</time>
      </trkpt>
      <trkpt lat="45.01719" lon="6.03972">
        <ele>1482.5999755859</ele>
        <time>2021-03-21T07:51:02.000Z</time>
      </trkpt>
      <trkpt lat="45.01718" lon="6.03972">
        <ele>1482.5999755859</ele>
        <time>2021-03-21T07:51:03.000Z</time>
      </trkpt>
      <trkpt lat="45.01718" lon="6.03972">
        <ele>1482.5999755859</ele>
        <time>2021-03-21T07:51:04.000Z</time>
      </trkpt>
      <trkpt lat="45.01718" lon="6.03971">
        <ele>1482.5999755859</ele>
        <time>2021-03-21T07:51:05.000Z</time>
      </trkpt>
      <trkpt lat="45.01717" lon="6.03971">
        <ele>1482.5999755859</ele>
        <time>2021-03-21T07:51:06.000Z</time>
      </trkpt>
      <trkpt lat="45.01717" lon="6.03971">
        <ele>1482.4000244141</ele>
        <time>2021-03-21T07:51:07.000Z</time>
      </trkpt>
      <trkpt lat="45.01717" lon="6.03971">
        <ele>1482.4000244141</ele>
        <time>2021-03-21T07:51:08.000Z</time>
      </trkpt>
      <trkpt lat="45.01717" lon="6.0397">
        <ele>1482.4000244141</ele>
        <time>2021-03-21T07:51:09.000Z</time>
      </trkpt>
      <trkpt lat="45.01717" lon="6.0397">
        <ele>1482.5999755859</ele>
        <time>2021-03-21T07:51:10.000Z</time>
      </trkpt>
      <trkpt lat="45.01717" lon="6.0397">
        <ele>1482.5999755859</ele>
        <time>2021-03-21T07:51:11.000Z</time>
      </trkpt>
      <trkpt lat="45.01717" lon="6.03969">
        <ele>1482.5999755859</ele>
        <time>2021-03-21T07:51:12.000Z</time>
      </trkpt>
      <trkpt lat="45.01718" lon="6.03969">
        <ele>1482.5999755859</ele>
        <time>2021-03-21T07:51:13.000Z</time>
      </trkpt>
      <trkpt lat="45.01718" lon="6.03969">
        <ele>1482.5999755859</ele>
        <time>2021-03-21T07:51:14.000Z</time>
      </trkpt>
      <trkpt lat="45.01719" lon="6.03968">
        <ele>1483</ele>
        <time>2021-03-21T07:51:15.000Z</time>
      </trkpt>
      <trkpt lat="45.01718" lon="6.03967">
        <ele>1483</ele>
        <time>2021-03-21T07:51:16.000Z</time>
      </trkpt>
      <trkpt lat="45.01718" lon="6.03967">
        <ele>1482.8000488281</ele>
        <time>2021-03-21T07:51:17.000Z</time>
      </trkpt>
      <trkpt lat="45.01719" lon="6.03966">
        <ele>1483</ele>
        <time>2021-03-21T07:51:18.000Z</time>
      </trkpt>
      <trkpt lat="45.01719" lon="6.03967">
        <ele>1483.1999511719</ele>
        <time>2021-03-21T07:51:19.000Z</time>
      </trkpt>
      <trkpt lat="45.0172" lon="6.03967">
        <ele>1483.1999511719</ele>
        <time>2021-03-21T07:51:20.000Z</time>
      </trkpt>
      <trkpt lat="45.0172" lon="6.03967">
        <ele>1483.1999511719</ele>
        <time>2021-03-21T07:51:21.000Z</time>
      </trkpt>
      <trkpt lat="45.01721" lon="6.03968">
        <ele>1483.1999511719</ele>
        <time>2021-03-21T07:51:22.000Z</time>
      </trkpt>
      <trkpt lat="45.01721" lon="6.03968">
        <ele>1483.1999511719</ele>
        <time>2021-03-21T07:51:23.000Z</time>
      </trkpt>
      <trkpt lat="45.01721" lon="6.03968">
        <ele>1483.4000244141</ele>
        <time>2021-03-21T07:51:24.000Z</time>
      </trkpt>
      <trkpt lat="45.01721" lon="6.03968">
        <ele>1483.4000244141</ele>
        <time>2021-03-21T07:51:25.000Z</time>
      </trkpt>
      <trkpt lat="45.0172" lon="6.03968">
        <ele>1483.1999511719</ele>
        <time>2021-03-21T07:51:26.000Z</time>
      </trkpt>
      <trkpt lat="45.0172" lon="6.03968">
        <ele>1483.1999511719</ele>
        <time>2021-03-21T07:51:27.000Z</time>
      </trkpt>
      <trkpt lat="45.0172" lon="6.03967">
        <ele>1483.1999511719</ele>
        <time>2021-03-21T07:51:28.000Z</time>
      </trkpt>
      <trkpt lat="45.01719" lon="6.03967">
        <ele>1483</ele>
        <time>2021-03-21T07:51:29.000Z</time>
      </trkpt>
      <trkpt lat="45.01719" lon="6.03966">
        <ele>1483</ele>
        <time>2021-03-21T07:51:30.000Z</time>
      </trkpt>
      <trkpt lat="45.01718" lon="6.03965">
        <ele>1483</ele>
        <time>2021-03-21T07:51:31.000Z</time>
      </trkpt>
      <trkpt lat="45.01718" lon="6.03965">
        <ele>1483.1999511719</ele>
        <time>2021-03-21T07:51:32.000Z</time>
      </trkpt>
      <trkpt lat="45.01718" lon="6.03964">
        <ele>1483.1999511719</ele>
        <time>2021-03-21T07:51:33.000Z</time>
      </trkpt>
      <trkpt lat="45.01718" lon="6.03963">
        <ele>1483.1999511719</ele>
        <time>2021-03-21T07:51:34.000Z</time>
      </trkpt>
      <trkpt lat="45.01718" lon="6.03963">
        <ele>1483.1999511719</ele>
        <time>2021-03-21T07:51:35.000Z</time>
      </trkpt>
      <trkpt lat="45.01718" lon="6.03963">
        <ele>1483.4000244141</ele>
        <time>2021-03-21T07:51:36.000Z</time>
      </trkpt>
      <trkpt lat="45.01718" lon="6.03962">
        <ele>1483.4000244141</ele>
        <time>2021-03-21T07:51:37.000Z</time>
      </trkpt>
      <trkpt lat="45.01718" lon="6.03961">
        <ele>1483.4000244141</ele>
        <time>2021-03-21T07:51:38.000Z</time>
      </trkpt>
      <trkpt lat="45.01718" lon="6.03961">
        <ele>1483.4000244141</ele>
        <time>2021-03-21T07:51:39.000Z</time>
      </trkpt>
      <trkpt lat="45.01718" lon="6.0396">
        <ele>1483.5999755859</ele>
        <time>2021-03-21T07:51:40.000Z</time>
      </trkpt>
      <trkpt lat="45.01718" lon="6.03959">
        <ele>1483.5999755859</ele>
        <time>2021-03-21T07:51:41.000Z</time>
      </trkpt>
      <trkpt lat="45.01719" lon="6.03959">
        <ele>1484</ele>
        <time>2021-03-21T07:51:42.000Z</time>
      </trkpt>
      <trkpt lat="45.0172" lon="6.03959">
        <ele>1484</ele>
        <time>2021-03-21T07:51:43.000Z</time>
      </trkpt>
      <trkpt lat="45.0172" lon="6.03959">
        <ele>1484.1999511719</ele>
        <time>2021-03-21T07:51:44.000Z</time>
      </trkpt>
      <trkpt lat="45.01721" lon="6.03959">
        <ele>1484.4000244141</ele>
        <time>2021-03-21T07:51:45.000Z</time>
      </trkpt>
      <trkpt lat="45.01721" lon="6.03958">
        <ele>1484.4000244141</ele>
        <time>2021-03-21T07:51:46.000Z</time>
      </trkpt>
      <trkpt lat="45.01721" lon="6.03958">
        <ele>1484.5999755859</ele>
        <time>2021-03-21T07:51:47.000Z</time>
      </trkpt>
      <trkpt lat="45.01721" lon="6.03957">
        <ele>1484.5999755859</ele>
        <time>2021-03-21T07:51:48.000Z</time>
      </trkpt>
      <trkpt lat="45.01722" lon="6.03957">
        <ele>1484.8000488281</ele>
        <time>2021-03-21T07:51:49.000Z</time>
      </trkpt>
      <trkpt lat="45.01722" lon="6.03957">
        <ele>1484.8000488281</ele>
        <time>2021-03-21T07:51:50.000Z</time>
      </trkpt>
      <trkpt lat="45.01723" lon="6.03957">
        <ele>1485</ele>
        <time>2021-03-21T07:51:51.000Z</time>
      </trkpt>
      <trkpt lat="45.01723" lon="6.03956">
        <ele>1485.1999511719</ele>
        <time>2021-03-21T07:51:52.000Z</time>
      </trkpt>
      <trkpt lat="45.01724" lon="6.03956">
        <ele>1485.1999511719</ele>
        <time>2021-03-21T07:51:53.000Z</time>
      </trkpt>
      <trkpt lat="45.01724" lon="6.03956">
        <ele>1485.4000244141</ele>
        <time>2021-03-21T07:51:54.000Z</time>
      </trkpt>
      <trkpt lat="45.01724" lon="6.03956">
        <ele>1485.4000244141</ele>
        <time>2021-03-21T07:51:55.000Z</time>
      </trkpt>
      <trkpt lat="45.01724" lon="6.03957">
        <ele>1485.1999511719</ele>
        <time>2021-03-21T07:51:56.000Z</time>
      </trkpt>
      <trkpt lat="45.01724" lon="6.03957">
        <ele>1485.1999511719</ele>
        <time>2021-03-21T07:51:57.000Z</time>
      </trkpt>
      <trkpt lat="45.01724" lon="6.03957">
        <ele>1485.1999511719</ele>
        <time>2021-03-21T07:51:58.000Z</time>
      </trkpt>
      <trkpt lat="45.01724" lon="6.03957">
        <ele>1485.1999511719</ele>
        <time>2021-03-21T07:51:59.000Z</time>
      </trkpt>
      <trkpt lat="45.01724" lon="6.03957">
        <ele>1485.1999511719</ele>
        <time>2021-03-21T07:52:00.000Z</time>
      </trkpt>
      <trkpt lat="45.01723" lon="6.03957">
        <ele>1485</ele>
        <time>2021-03-21T07:52:01.000Z</time>
      </trkpt>
      <trkpt lat="45.01723" lon="6.03957">
        <ele>1485</ele>
        <time>2021-03-21T07:52:02.000Z</time>
      </trkpt>
      <trkpt lat="45.01722" lon="6.03956">
        <ele>1485</ele>
        <time>2021-03-21T07:52:03.000Z</time>
      </trkpt>
      <trkpt lat="45.01723" lon="6.03955">
        <ele>1485.1999511719</ele>
        <time>2021-03-21T07:52:04.000Z</time>
      </trkpt>
      <trkpt lat="45.01722" lon="6.03955">
        <ele>1485.4000244141</ele>
        <time>2021-03-21T07:52:05.000Z</time>
      </trkpt>
      <trkpt lat="45.01722" lon="6.03954">
        <ele>1485.1999511719</ele>
        <time>2021-03-21T07:52:06.000Z</time>
      </trkpt>
      <trkpt lat="45.01722" lon="6.03954">
        <ele>1485.1999511719</ele>
        <time>2021-03-21T07:52:07.000Z</time>
      </trkpt>
      <trkpt lat="45.01721" lon="6.03954">
        <ele>1485.1999511719</ele>
        <time>2021-03-21T07:52:08.000Z</time>
      </trkpt>
      <trkpt lat="45.01721" lon="6.03954">
        <ele>1485.1999511719</ele>
        <time>2021-03-21T07:52:09.000Z</time>
      </trkpt>
      <trkpt lat="45.01721" lon="6.03954">
        <ele>1485.1999511719</ele>
        <time>2021-03-21T07:52:10.000Z</time>
      </trkpt>
      <trkpt lat="45.01721" lon="6.03954">
        <ele>1485.1999511719</ele>
        <time>2021-03-21T07:52:11.000Z</time>
      </trkpt>
      <trkpt lat="45.0172" lon="6.03953">
        <ele>1485.1999511719</ele>
        <time>2021-03-21T07:52:12.000Z</time>
      </trkpt>
      <trkpt lat="45.01719" lon="6.03953">
        <ele>1485.1999511719</ele>
        <time>2021-03-21T07:52:13.000Z</time>
      </trkpt>
      <trkpt lat="45.01719" lon="6.03952">
        <ele>1485.1999511719</ele>
        <time>2021-03-21T07:52:14.000Z</time>
      </trkpt>
      <trkpt lat="45.01719" lon="6.03951">
        <ele>1485.1999511719</ele>
        <time>2021-03-21T07:52:15.000Z</time>
      </trkpt>
      <trkpt lat="45.01718" lon="6.0395">
        <ele>1485.4000244141</ele>
        <time>2021-03-21T07:52:16.000Z</time>
      </trkpt>
      <trkpt lat="45.01717" lon="6.0395">
        <ele>1485.4000244141</ele>
        <time>2021-03-21T07:52:17.000Z</time>
      </trkpt>
      <trkpt lat="45.01717" lon="6.03949">
        <ele>1485.4000244141</ele>
        <time>2021-03-21T07:52:18.000Z</time>
      </trkpt>
      <trkpt lat="45.01715" lon="6.03948">
        <ele>1485</ele>
        <time>2021-03-21T07:52:19.000Z</time>
      </trkpt>
      <trkpt lat="45.01714" lon="6.03947">
        <ele>1485.1999511719</ele>
        <time>2021-03-21T07:52:20.000Z</time>
      </trkpt>
      <trkpt lat="45.01713" lon="6.03946">
        <ele>1485.1999511719</ele>
        <time>2021-03-21T07:52:21.000Z</time>
      </trkpt>
      <trkpt lat="45.01712" lon="6.03945">
        <ele>1485.1999511719</ele>
        <time>2021-03-21T07:52:22.000Z</time>
      </trkpt>
      <trkpt lat="45.01712" lon="6.03945">
        <ele>1485.1999511719</ele>
        <time>2021-03-21T07:52:23.000Z</time>
      </trkpt>
      <trkpt lat="45.01711" lon="6.03944">
        <ele>1485.1999511719</ele>
        <time>2021-03-21T07:52:24.000Z</time>
      </trkpt>
      <trkpt lat="45.0171" lon="6.03943">
        <ele>1485</ele>
        <time>2021-03-21T07:52:25.000Z</time>
      </trkpt>
      <trkpt lat="45.01709" lon="6.03942">
        <ele>1485.1999511719</ele>
        <time>2021-03-21T07:52:26.000Z</time>
      </trkpt>
      <trkpt lat="45.01708" lon="6.03941">
        <ele>1485.4000244141</ele>
        <time>2021-03-21T07:52:27.000Z</time>
      </trkpt>
      <trkpt lat="45.01707" lon="6.03939">
        <ele>1485.8000488281</ele>
        <time>2021-03-21T07:52:28.000Z</time>
      </trkpt>
      <trkpt lat="45.01706" lon="6.03938">
        <ele>1486</ele>
        <time>2021-03-21T07:52:29.000Z</time>
      </trkpt>
      <trkpt lat="45.01705" lon="6.03937">
        <ele>1486.1999511719</ele>
        <time>2021-03-21T07:52:30.000Z</time>
      </trkpt>
      <trkpt lat="45.01704" lon="6.03936">
        <ele>1486.5999755859</ele>
        <time>2021-03-21T07:52:31.000Z</time>
      </trkpt>
      <trkpt lat="45.01703" lon="6.03935">
        <ele>1486.8000488281</ele>
        <time>2021-03-21T07:52:32.000Z</time>
      </trkpt>
      <trkpt lat="45.01703" lon="6.03934">
        <ele>1487</ele>
        <time>2021-03-21T07:52:33.000Z</time>
      </trkpt>
      <trkpt lat="45.01702" lon="6.03933">
        <ele>1487.4000244141</ele>
        <time>2021-03-21T07:52:34.000Z</time>
      </trkpt>
      <trkpt lat="45.01701" lon="6.03932">
        <ele>1487.5999755859</ele>
        <time>2021-03-21T07:52:35.000Z</time>
      </trkpt>
      <trkpt lat="45.01701" lon="6.03931">
        <ele>1487.8000488281</ele>
        <time>2021-03-21T07:52:36.000Z</time>
      </trkpt>
      <trkpt lat="45.017" lon="6.0393">
        <ele>1487.8000488281</ele>
        <time>2021-03-21T07:52:37.000Z</time>
      </trkpt>
      <trkpt lat="45.017" lon="6.03929">
        <ele>1488</ele>
        <time>2021-03-21T07:52:38.000Z</time>
      </trkpt>
      <trkpt lat="45.017" lon="6.03929">
        <ele>1488</ele>
        <time>2021-03-21T07:52:39.000Z</time>
      </trkpt>
      <trkpt lat="45.01699" lon="6.03928">
        <ele>1488.1999511719</ele>
        <time>2021-03-21T07:52:40.000Z</time>
      </trkpt>
      <trkpt lat="45.01699" lon="6.03927">
        <ele>1488.4000244141</ele>
        <time>2021-03-21T07:52:41.000Z</time>
      </trkpt>
      <trkpt lat="45.01698" lon="6.03927">
        <ele>1488.4000244141</ele>
        <time>2021-03-21T07:52:42.000Z</time>
      </trkpt>
      <trkpt lat="45.01698" lon="6.03926">
        <ele>1488.5999755859</ele>
        <time>2021-03-21T07:52:43.000Z</time>
      </trkpt>
      <trkpt lat="45.01698" lon="6.03926">
        <ele>1488.5999755859</ele>
        <time>2021-03-21T07:52:44.000Z</time>
      </trkpt>
      <trkpt lat="45.01698" lon="6.03925">
        <ele>1488.5999755859</ele>
        <time>2021-03-21T07:52:45.000Z</time>
      </trkpt>
      <trkpt lat="45.01698" lon="6.03926">
        <ele>1488.5999755859</ele>
        <time>2021-03-21T07:52:46.000Z</time>
      </trkpt>
      <trkpt lat="45.01697" lon="6.03926">
        <ele>1488.5999755859</ele>
        <time>2021-03-21T07:52:47.000Z</time>
      </trkpt>
      <trkpt lat="45.01696" lon="6.03927">
        <ele>1488.5999755859</ele>
        <time>2021-03-21T07:52:48.000Z</time>
      </trkpt>
      <trkpt lat="45.01695" lon="6.03927">
        <ele>1488.8000488281</ele>
        <time>2021-03-21T07:52:49.000Z</time>
      </trkpt>
      <trkpt lat="45.01695" lon="6.03926">
        <ele>1488.8000488281</ele>
        <time>2021-03-21T07:52:50.000Z</time>
      </trkpt>
      <trkpt lat="45.01694" lon="6.03926">
        <ele>1488.8000488281</ele>
        <time>2021-03-21T07:52:51.000Z</time>
      </trkpt>
      <trkpt lat="45.01694" lon="6.03926">
        <ele>1488.8000488281</ele>
        <time>2021-03-21T07:52:52.000Z</time>
      </trkpt>
      <trkpt lat="45.01693" lon="6.03926">
        <ele>1489</ele>
        <time>2021-03-21T07:52:53.000Z</time>
      </trkpt>
      <trkpt lat="45.01692" lon="6.03925">
        <ele>1489.1999511719</ele>
        <time>2021-03-21T07:52:54.000Z</time>
      </trkpt>
      <trkpt lat="45.01691" lon="6.03925">
        <ele>1489.1999511719</ele>
        <time>2021-03-21T07:52:55.000Z</time>
      </trkpt>
      <trkpt lat="45.0169" lon="6.03925">
        <ele>1489.4000244141</ele>
        <time>2021-03-21T07:52:56.000Z</time>
      </trkpt>
      <trkpt lat="45.0169" lon="6.03925">
        <ele>1489.4000244141</ele>
        <time>2021-03-21T07:52:57.000Z</time>
      </trkpt>
      <trkpt lat="45.01689" lon="6.03926">
        <ele>1489.1999511719</ele>
        <time>2021-03-21T07:52:58.000Z</time>
      </trkpt>
      <trkpt lat="45.01688" lon="6.03926">
        <ele>1489.1999511719</ele>
        <time>2021-03-21T07:52:59.000Z</time>
      </trkpt>
      <trkpt lat="45.01687" lon="6.03927">
        <ele>1489.1999511719</ele>
        <time>2021-03-21T07:53:00.000Z</time>
      </trkpt>
      <trkpt lat="45.01687" lon="6.03927">
        <ele>1489.1999511719</ele>
        <time>2021-03-21T07:53:01.000Z</time>
      </trkpt>
      <trkpt lat="45.01687" lon="6.03927">
        <ele>1489.1999511719</ele>
        <time>2021-03-21T07:53:02.000Z</time>
      </trkpt>
      <trkpt lat="45.01687" lon="6.03927">
        <ele>1489.1999511719</ele>
        <time>2021-03-21T07:53:03.000Z</time>
      </trkpt>
      <trkpt lat="45.01687" lon="6.03927">
        <ele>1489.1999511719</ele>
        <time>2021-03-21T07:53:04.000Z</time>
      </trkpt>
      <trkpt lat="45.01687" lon="6.03928">
        <ele>1489</ele>
        <time>2021-03-21T07:53:05.000Z</time>
      </trkpt>
      <trkpt lat="45.01687" lon="6.03929">
        <ele>1489</ele>
        <time>2021-03-21T07:53:06.000Z</time>
      </trkpt>
      <trkpt lat="45.01687" lon="6.03929">
        <ele>1488.8000488281</ele>
        <time>2021-03-21T07:53:07.000Z</time>
      </trkpt>
      <trkpt lat="45.01687" lon="6.0393">
        <ele>1488.8000488281</ele>
        <time>2021-03-21T07:53:08.000Z</time>
      </trkpt>
      <trkpt lat="45.01687" lon="6.0393">
        <ele>1488.8000488281</ele>
        <time>2021-03-21T07:53:09.000Z</time>
      </trkpt>
      <trkpt lat="45.01687" lon="6.03931">
        <ele>1488.8000488281</ele>
        <time>2021-03-21T07:53:10.000Z</time>
      </trkpt>
      <trkpt lat="45.01687" lon="6.03931">
        <ele>1488.5999755859</ele>
        <time>2021-03-21T07:53:11.000Z</time>
      </trkpt>
      <trkpt lat="45.01688" lon="6.03931">
        <ele>1488.5999755859</ele>
        <time>2021-03-21T07:53:12.000Z</time>
      </trkpt>
      <trkpt lat="45.01688" lon="6.03932">
        <ele>1488.4000244141</ele>
        <time>2021-03-21T07:53:13.000Z</time>
      </trkpt>
      <trkpt lat="45.01687" lon="6.03933">
        <ele>1488.4000244141</ele>
        <time>2021-03-21T07:53:14.000Z</time>
      </trkpt>
      <trkpt lat="45.01685" lon="6.03934">
        <ele>1488.1999511719</ele>
        <time>2021-03-21T07:53:15.000Z</time>
      </trkpt>
      <trkpt lat="45.01685" lon="6.03935">
        <ele>1488.1999511719</ele>
        <time>2021-03-21T07:53:16.000Z</time>
      </trkpt>
      <trkpt lat="45.01685" lon="6.03935">
        <ele>1488.1999511719</ele>
        <time>2021-03-21T07:53:17.000Z</time>
      </trkpt>
      <trkpt lat="45.01684" lon="6.03935">
        <ele>1488.1999511719</ele>
        <time>2021-03-21T07:53:18.000Z</time>
      </trkpt>
      <trkpt lat="45.01684" lon="6.03935">
        <ele>1488</ele>
        <time>2021-03-21T07:53:19.000Z</time>
      </trkpt>
      <trkpt lat="45.01683" lon="6.03935">
        <ele>1488.1999511719</ele>
        <time>2021-03-21T07:53:20.000Z</time>
      </trkpt>
      <trkpt lat="45.01683" lon="6.03935">
        <ele>1488.1999511719</ele>
        <time>2021-03-21T07:53:21.000Z</time>
      </trkpt>
      <trkpt lat="45.01683" lon="6.03936">
        <ele>1488</ele>
        <time>2021-03-21T07:53:22.000Z</time>
      </trkpt>
      <trkpt lat="45.01683" lon="6.03936">
        <ele>1488</ele>
        <time>2021-03-21T07:53:23.000Z</time>
      </trkpt>
      <trkpt lat="45.01683" lon="6.03936">
        <ele>1488</ele>
        <time>2021-03-21T07:53:24.000Z</time>
      </trkpt>
      <trkpt lat="45.01683" lon="6.03935">
        <ele>1488.1999511719</ele>
        <time>2021-03-21T07:53:25.000Z</time>
      </trkpt>
      <trkpt lat="45.01683" lon="6.03935">
        <ele>1488.1999511719</ele>
        <time>2021-03-21T07:53:26.000Z</time>
      </trkpt>
      <trkpt lat="45.01684" lon="6.03935">
        <ele>1488.1999511719</ele>
        <time>2021-03-21T07:53:27.000Z</time>
      </trkpt>
      <trkpt lat="45.01683" lon="6.03935">
        <ele>1488.1999511719</ele>
        <time>2021-03-21T07:53:28.000Z</time>
      </trkpt>
      <trkpt lat="45.01683" lon="6.03935">
        <ele>1488.1999511719</ele>
        <time>2021-03-21T07:53:29.000Z</time>
      </trkpt>
      <trkpt lat="45.01684" lon="6.03935">
        <ele>1488.1999511719</ele>
        <time>2021-03-21T07:53:30.000Z</time>
      </trkpt>
      <trkpt lat="45.01683" lon="6.03935">
        <ele>1488.1999511719</ele>
        <time>2021-03-21T07:53:31.000Z</time>
      </trkpt>
      <trkpt lat="45.01683" lon="6.03935">
        <ele>1488.1999511719</ele>
        <time>2021-03-21T07:53:32.000Z</time>
      </trkpt>
      <trkpt lat="45.01683" lon="6.03935">
        <ele>1488.1999511719</ele>
        <time>2021-03-21T07:53:33.000Z</time>
      </trkpt>
      <trkpt lat="45.01683" lon="6.03935">
        <ele>1488.1999511719</ele>
        <time>2021-03-21T07:53:34.000Z</time>
      </trkpt>
      <trkpt lat="45.01683" lon="6.03935">
        <ele>1488.4000244141</ele>
        <time>2021-03-21T07:53:35.000Z</time>
      </trkpt>
      <trkpt lat="45.01683" lon="6.03934">
        <ele>1488.4000244141</ele>
        <time>2021-03-21T07:53:36.000Z</time>
      </trkpt>
      <trkpt lat="45.01683" lon="6.03934">
        <ele>1488.4000244141</ele>
        <time>2021-03-21T07:53:37.000Z</time>
      </trkpt>
      <trkpt lat="45.01683" lon="6.03934">
        <ele>1488.4000244141</ele>
        <time>2021-03-21T07:53:38.000Z</time>
      </trkpt>
      <trkpt lat="45.01683" lon="6.03934">
        <ele>1488.5999755859</ele>
        <time>2021-03-21T07:53:39.000Z</time>
      </trkpt>
      <trkpt lat="45.01683" lon="6.03933">
        <ele>1488.5999755859</ele>
        <time>2021-03-21T07:53:40.000Z</time>
      </trkpt>
      <trkpt lat="45.01682" lon="6.03934">
        <ele>1488.5999755859</ele>
        <time>2021-03-21T07:53:41.000Z</time>
      </trkpt>
      <trkpt lat="45.01683" lon="6.03934">
        <ele>1488.5999755859</ele>
        <time>2021-03-21T07:53:42.000Z</time>
      </trkpt>
      <trkpt lat="45.01683" lon="6.03933">
        <ele>1488.5999755859</ele>
        <time>2021-03-21T07:53:43.000Z</time>
      </trkpt>
      <trkpt lat="45.01683" lon="6.03933">
        <ele>1488.5999755859</ele>
        <time>2021-03-21T07:53:44.000Z</time>
      </trkpt>
      <trkpt lat="45.01684" lon="6.03933">
        <ele>1488.5999755859</ele>
        <time>2021-03-21T07:53:45.000Z</time>
      </trkpt>
      <trkpt lat="45.01684" lon="6.03933">
        <ele>1488.4000244141</ele>
        <time>2021-03-21T07:53:46.000Z</time>
      </trkpt>
      <trkpt lat="45.01684" lon="6.03933">
        <ele>1488.4000244141</ele>
        <time>2021-03-21T07:53:47.000Z</time>
      </trkpt>
      <trkpt lat="45.01685" lon="6.03933">
        <ele>1488.4000244141</ele>
        <time>2021-03-21T07:53:48.000Z</time>
      </trkpt>
      <trkpt lat="45.01685" lon="6.03934">
        <ele>1488.4000244141</ele>
        <time>2021-03-21T07:53:49.000Z</time>
      </trkpt>
      <trkpt lat="45.01685" lon="6.03933">
        <ele>1488.4000244141</ele>
        <time>2021-03-21T07:53:50.000Z</time>
      </trkpt>
      <trkpt lat="45.01685" lon="6.03934">
        <ele>1488.4000244141</ele>
        <time>2021-03-21T07:53:51.000Z</time>
      </trkpt>
      <trkpt lat="45.01685" lon="6.03934">
        <ele>1488.4000244141</ele>
        <time>2021-03-21T07:53:52.000Z</time>
      </trkpt>
      <trkpt lat="45.01685" lon="6.03934">
        <ele>1488.4000244141</ele>
        <time>2021-03-21T07:53:53.000Z</time>
      </trkpt>
      <trkpt lat="45.01685" lon="6.03934">
        <ele>1488.4000244141</ele>
        <time>2021-03-21T07:53:54.000Z</time>
      </trkpt>
      <trkpt lat="45.01684" lon="6.03934">
        <ele>1488.4000244141</ele>
        <time>2021-03-21T07:53:55.000Z</time>
      </trkpt>
      <trkpt lat="45.01684" lon="6.03934">
        <ele>1488.4000244141</ele>
        <time>2021-03-21T07:53:56.000Z</time>
      </trkpt>
      <trkpt lat="45.01684" lon="6.03934">
        <ele>1488.4000244141</ele>
        <time>2021-03-21T07:53:57.000Z</time>
      </trkpt>
      <trkpt lat="45.01684" lon="6.03933">
        <ele>1488.4000244141</ele>
        <time>2021-03-21T07:53:58.000Z</time>
      </trkpt>
      <trkpt lat="45.01684" lon="6.03933">
        <ele>1488.4000244141</ele>
        <time>2021-03-21T07:53:59.000Z</time>
      </trkpt>
      <trkpt lat="45.01685" lon="6.03934">
        <ele>1488.4000244141</ele>
        <time>2021-03-21T07:54:00.000Z</time>
      </trkpt>
      <trkpt lat="45.01685" lon="6.03934">
        <ele>1488.4000244141</ele>
        <time>2021-03-21T07:54:01.000Z</time>
      </trkpt>
      <trkpt lat="45.01685" lon="6.03934">
        <ele>1488.4000244141</ele>
        <time>2021-03-21T07:54:02.000Z</time>
      </trkpt>
      <trkpt lat="45.01685" lon="6.03934">
        <ele>1488.4000244141</ele>
        <time>2021-03-21T07:54:03.000Z</time>
      </trkpt>
      <trkpt lat="45.01685" lon="6.03934">
        <ele>1488.4000244141</ele>
        <time>2021-03-21T07:54:04.000Z</time>
      </trkpt>
      <trkpt lat="45.01686" lon="6.03934">
        <ele>1488.1999511719</ele>
        <time>2021-03-21T07:54:05.000Z</time>
      </trkpt>
      <trkpt lat="45.01686" lon="6.03934">
        <ele>1488.1999511719</ele>
        <time>2021-03-21T07:54:06.000Z</time>
      </trkpt>
      <trkpt lat="45.01686" lon="6.03934">
        <ele>1488.1999511719</ele>
        <time>2021-03-21T07:54:07.000Z</time>
      </trkpt>
      <trkpt lat="45.01686" lon="6.03934">
        <ele>1488.1999511719</ele>
        <time>2021-03-21T07:54:08.000Z</time>
      </trkpt>
      <trkpt lat="45.01685" lon="6.03935">
        <ele>1488.1999511719</ele>
        <time>2021-03-21T07:54:09.000Z</time>
      </trkpt>
      <trkpt lat="45.01684" lon="6.03935">
        <ele>1488.1999511719</ele>
        <time>2021-03-21T07:54:10.000Z</time>
      </trkpt>
      <trkpt lat="45.01684" lon="6.03935">
        <ele>1488.1999511719</ele>
        <time>2021-03-21T07:54:11.000Z</time>
      </trkpt>
      <trkpt lat="45.01684" lon="6.03935">
        <ele>1488.1999511719</ele>
        <time>2021-03-21T07:54:12.000Z</time>
      </trkpt>
      <trkpt lat="45.01683" lon="6.03936">
        <ele>1488</ele>
        <time>2021-03-21T07:54:13.000Z</time>
      </trkpt>
      <trkpt lat="45.01683" lon="6.03936">
        <ele>1488</ele>
        <time>2021-03-21T07:54:14.000Z</time>
      </trkpt>
      <trkpt lat="45.01683" lon="6.03936">
        <ele>1488</ele>
        <time>2021-03-21T07:54:15.000Z</time>
      </trkpt>
      <trkpt lat="45.01682" lon="6.03936">
        <ele>1488</ele>
        <time>2021-03-21T07:54:16.000Z</time>
      </trkpt>
      <trkpt lat="45.01682" lon="6.03936">
        <ele>1488</ele>
        <time>2021-03-21T07:54:17.000Z</time>
      </trkpt>
      <trkpt lat="45.01683" lon="6.03937">
        <ele>1487.8000488281</ele>
        <time>2021-03-21T07:54:18.000Z</time>
      </trkpt>
      <trkpt lat="45.01683" lon="6.03937">
        <ele>1487.8000488281</ele>
        <time>2021-03-21T07:54:19.000Z</time>
      </trkpt>
      <trkpt lat="45.01683" lon="6.03937">
        <ele>1487.5999755859</ele>
        <time>2021-03-21T07:54:20.000Z</time>
      </trkpt>
      <trkpt lat="45.01683" lon="6.03937">
        <ele>1487.5999755859</ele>
        <time>2021-03-21T07:54:21.000Z</time>
      </trkpt>
      <trkpt lat="45.01683" lon="6.03937">
        <ele>1487.5999755859</ele>
        <time>2021-03-21T07:54:22.000Z</time>
      </trkpt>
      <trkpt lat="45.01684" lon="6.03938">
        <ele>1487.5999755859</ele>
        <time>2021-03-21T07:54:23.000Z</time>
      </trkpt>
      <trkpt lat="45.01684" lon="6.03938">
        <ele>1487.4000244141</ele>
        <time>2021-03-21T07:54:24.000Z</time>
      </trkpt>
      <trkpt lat="45.01683" lon="6.03939">
        <ele>1487.4000244141</ele>
        <time>2021-03-21T07:54:25.000Z</time>
      </trkpt>
      <trkpt lat="45.01683" lon="6.03939">
        <ele>1487.4000244141</ele>
        <time>2021-03-21T07:54:26.000Z</time>
      </trkpt>
      <trkpt lat="45.01684" lon="6.03939">
        <ele>1487.4000244141</ele>
        <time>2021-03-21T07:54:27.000Z</time>
      </trkpt>
      <trkpt lat="45.01683" lon="6.03939">
        <ele>1487.4000244141</ele>
        <time>2021-03-21T07:54:28.000Z</time>
      </trkpt>
      <trkpt lat="45.01683" lon="6.03939">
        <ele>1487.4000244141</ele>
        <time>2021-03-21T07:54:29.000Z</time>
      </trkpt>
      <trkpt lat="45.01683" lon="6.03939">
        <ele>1487.4000244141</ele>
        <time>2021-03-21T07:54:30.000Z</time>
      </trkpt>
      <trkpt lat="45.01683" lon="6.03939">
        <ele>1487.4000244141</ele>
        <time>2021-03-21T07:54:31.000Z</time>
      </trkpt>
      <trkpt lat="45.01683" lon="6.03939">
        <ele>1487.4000244141</ele>
        <time>2021-03-21T07:54:32.000Z</time>
      </trkpt>
      <trkpt lat="45.01683" lon="6.03939">
        <ele>1487.4000244141</ele>
        <time>2021-03-21T07:54:33.000Z</time>
      </trkpt>
      <trkpt lat="45.01683" lon="6.03938">
        <ele>1487.4000244141</ele>
        <time>2021-03-21T07:54:34.000Z</time>
      </trkpt>
      <trkpt lat="45.01683" lon="6.03937">
        <ele>1487.8000488281</ele>
        <time>2021-03-21T07:54:35.000Z</time>
      </trkpt>
      <trkpt lat="45.01683" lon="6.03935">
        <ele>1488.1999511719</ele>
        <time>2021-03-21T07:54:36.000Z</time>
      </trkpt>
      <trkpt lat="45.01682" lon="6.03935">
        <ele>1488.1999511719</ele>
        <time>2021-03-21T07:54:37.000Z</time>
      </trkpt>
      <trkpt lat="45.01682" lon="6.03935">
        <ele>1488.4000244141</ele>
        <time>2021-03-21T07:54:38.000Z</time>
      </trkpt>
      <trkpt lat="45.01682" lon="6.03934">
        <ele>1488.4000244141</ele>
        <time>2021-03-21T07:54:39.000Z</time>
      </trkpt>
      <trkpt lat="45.01682" lon="6.03934">
        <ele>1488.4000244141</ele>
        <time>2021-03-21T07:54:40.000Z</time>
      </trkpt>
      <trkpt lat="45.01682" lon="6.03935">
        <ele>1488.4000244141</ele>
        <time>2021-03-21T07:54:41.000Z</time>
      </trkpt>
      <trkpt lat="45.01681" lon="6.03935">
        <ele>1488.4000244141</ele>
        <time>2021-03-21T07:54:42.000Z</time>
      </trkpt>
      <trkpt lat="45.01681" lon="6.03934">
        <ele>1488.4000244141</ele>
        <time>2021-03-21T07:54:43.000Z</time>
      </trkpt>
      <trkpt lat="45.01682" lon="6.03934">
        <ele>1488.4000244141</ele>
        <time>2021-03-21T07:54:44.000Z</time>
      </trkpt>
      <trkpt lat="45.01682" lon="6.03934">
        <ele>1488.4000244141</ele>
        <time>2021-03-21T07:54:45.000Z</time>
      </trkpt>
      <trkpt lat="45.01683" lon="6.03934">
        <ele>1488.4000244141</ele>
        <time>2021-03-21T07:54:46.000Z</time>
      </trkpt>
      <trkpt lat="45.01683" lon="6.03934">
        <ele>1488.4000244141</ele>
        <time>2021-03-21T07:54:47.000Z</time>
      </trkpt>
      <trkpt lat="45.01683" lon="6.03934">
        <ele>1488.4000244141</ele>
        <time>2021-03-21T07:54:48.000Z</time>
      </trkpt>
      <trkpt lat="45.01683" lon="6.03934">
        <ele>1488.4000244141</ele>
        <time>2021-03-21T07:54:49.000Z</time>
      </trkpt>
      <trkpt lat="45.01683" lon="6.03934">
        <ele>1488.4000244141</ele>
        <time>2021-03-21T07:54:50.000Z</time>
      </trkpt>
      <trkpt lat="45.01683" lon="6.03934">
        <ele>1488.4000244141</ele>
        <time>2021-03-21T07:54:51.000Z</time>
      </trkpt>
      <trkpt lat="45.01683" lon="6.03934">
        <ele>1488.4000244141</ele>
        <time>2021-03-21T07:54:52.000Z</time>
      </trkpt>
      <trkpt lat="45.01683" lon="6.03934">
        <ele>1488.4000244141</ele>
        <time>2021-03-21T07:54:53.000Z</time>
      </trkpt>
      <trkpt lat="45.01683" lon="6.03935">
        <ele>1488.4000244141</ele>
        <time>2021-03-21T07:54:54.000Z</time>
      </trkpt>
      <trkpt lat="45.01683" lon="6.03935">
        <ele>1488.4000244141</ele>
        <time>2021-03-21T07:54:55.000Z</time>
      </trkpt>
      <trkpt lat="45.01683" lon="6.03935">
        <ele>1488.1999511719</ele>
        <time>2021-03-21T07:54:56.000Z</time>
      </trkpt>
      <trkpt lat="45.01684" lon="6.03935">
        <ele>1488</ele>
        <time>2021-03-21T07:54:57.000Z</time>
      </trkpt>
      <trkpt lat="45.01684" lon="6.03935">
        <ele>1488.1999511719</ele>
        <time>2021-03-21T07:54:58.000Z</time>
      </trkpt>
      <trkpt lat="45.01684" lon="6.03935">
        <ele>1488.1999511719</ele>
        <time>2021-03-21T07:54:59.000Z</time>
      </trkpt>
      <trkpt lat="45.01684" lon="6.03935">
        <ele>1488.1999511719</ele>
        <time>2021-03-21T07:55:00.000Z</time>
      </trkpt>
      <trkpt lat="45.01683" lon="6.03935">
        <ele>1488.1999511719</ele>
        <time>2021-03-21T07:55:01.000Z</time>
      </trkpt>
      <trkpt lat="45.01683" lon="6.03935">
        <ele>1488.1999511719</ele>
        <time>2021-03-21T07:55:02.000Z</time>
      </trkpt>
      <trkpt lat="45.01683" lon="6.03935">
        <ele>1488.1999511719</ele>
        <time>2021-03-21T07:55:03.000Z</time>
      </trkpt>
      <trkpt lat="45.01683" lon="6.03935">
        <ele>1488.1999511719</ele>
        <time>2021-03-21T07:55:04.000Z</time>
      </trkpt>
      <trkpt lat="45.01683" lon="6.03935">
        <ele>1488.1999511719</ele>
        <time>2021-03-21T07:55:05.000Z</time>
      </trkpt>
      <trkpt lat="45.01683" lon="6.03935">
        <ele>1488.1999511719</ele>
        <time>2021-03-21T07:55:06.000Z</time>
      </trkpt>
      <trkpt lat="45.01683" lon="6.03935">
        <ele>1488.1999511719</ele>
        <time>2021-03-21T07:55:07.000Z</time>
      </trkpt>
      <trkpt lat="45.01683" lon="6.03936">
        <ele>1488</ele>
        <time>2021-03-21T07:55:08.000Z</time>
      </trkpt>
      <trkpt lat="45.01682" lon="6.03936">
        <ele>1488.1999511719</ele>
        <time>2021-03-21T07:55:09.000Z</time>
      </trkpt>
      <trkpt lat="45.01683" lon="6.03936">
        <ele>1488</ele>
        <time>2021-03-21T07:55:10.000Z</time>
      </trkpt>
      <trkpt lat="45.01683" lon="6.03936">
        <ele>1488</ele>
        <time>2021-03-21T07:55:11.000Z</time>
      </trkpt>
      <trkpt lat="45.01683" lon="6.03937">
        <ele>1487.8000488281</ele>
        <time>2021-03-21T07:55:12.000Z</time>
      </trkpt>
      <trkpt lat="45.01683" lon="6.03937">
        <ele>1487.8000488281</ele>
        <time>2021-03-21T07:55:13.000Z</time>
      </trkpt>
      <trkpt lat="45.01683" lon="6.03938">
        <ele>1487.5999755859</ele>
        <time>2021-03-21T07:55:14.000Z</time>
      </trkpt>
      <trkpt lat="45.01683" lon="6.03939">
        <ele>1487.4000244141</ele>
        <time>2021-03-21T07:55:15.000Z</time>
      </trkpt>
      <trkpt lat="45.01683" lon="6.0394">
        <ele>1487.1999511719</ele>
        <time>2021-03-21T07:55:16.000Z</time>
      </trkpt>
      <trkpt lat="45.01683" lon="6.03941">
        <ele>1487</ele>
        <time>2021-03-21T07:55:17.000Z</time>
      </trkpt>
      <trkpt lat="45.01683" lon="6.03942">
        <ele>1486.8000488281</ele>
        <time>2021-03-21T07:55:18.000Z</time>
      </trkpt>
      <trkpt lat="45.01684" lon="6.03943">
        <ele>1486.5999755859</ele>
        <time>2021-03-21T07:55:19.000Z</time>
      </trkpt>
      <trkpt lat="45.01684" lon="6.03944">
        <ele>1486.1999511719</ele>
        <time>2021-03-21T07:55:20.000Z</time>
      </trkpt>
      <trkpt lat="45.01684" lon="6.03945">
        <ele>1486</ele>
        <time>2021-03-21T07:55:21.000Z</time>
      </trkpt>
      <trkpt lat="45.01684" lon="6.03946">
        <ele>1485.8000488281</ele>
        <time>2021-03-21T07:55:22.000Z</time>
      </trkpt>
      <trkpt lat="45.01683" lon="6.03947">
        <ele>1485.5999755859</ele>
        <time>2021-03-21T07:55:23.000Z</time>
      </trkpt>
      <trkpt lat="45.01683" lon="6.03947">
        <ele>1485.5999755859</ele>
        <time>2021-03-21T07:55:24.000Z</time>
      </trkpt>
      <trkpt lat="45.01683" lon="6.03948">
        <ele>1485.4000244141</ele>
        <time>2021-03-21T07:55:25.000Z</time>
      </trkpt>
      <trkpt lat="45.01683" lon="6.03949">
        <ele>1485.1999511719</ele>
        <time>2021-03-21T07:55:26.000Z</time>
      </trkpt>
      <trkpt lat="45.01683" lon="6.0395">
        <ele>1485</ele>
        <time>2021-03-21T07:55:27.000Z</time>
      </trkpt>
      <trkpt lat="45.01683" lon="6.03951">
        <ele>1484.8000488281</ele>
        <time>2021-03-21T07:55:28.000Z</time>
      </trkpt>
      <trkpt lat="45.01683" lon="6.03952">
        <ele>1484.5999755859</ele>
        <time>2021-03-21T07:55:29.000Z</time>
      </trkpt>
      <trkpt lat="45.01682" lon="6.03953">
        <ele>1484.4000244141</ele>
        <time>2021-03-21T07:55:30.000Z</time>
      </trkpt>
      <trkpt lat="45.01682" lon="6.03954">
        <ele>1484.1999511719</ele>
        <time>2021-03-21T07:55:31.000Z</time>
      </trkpt>
      <trkpt lat="45.01681" lon="6.03955">
        <ele>1484</ele>
        <time>2021-03-21T07:55:32.000Z</time>
      </trkpt>
      <trkpt lat="45.01681" lon="6.03956">
        <ele>1483.8000488281</ele>
        <time>2021-03-21T07:55:33.000Z</time>
      </trkpt>
      <trkpt lat="45.01681" lon="6.03957">
        <ele>1483.5999755859</ele>
        <time>2021-03-21T07:55:34.000Z</time>
      </trkpt>
      <trkpt lat="45.01681" lon="6.03958">
        <ele>1483.5999755859</ele>
        <time>2021-03-21T07:55:35.000Z</time>
      </trkpt>
      <trkpt lat="45.0168" lon="6.03958">
        <ele>1483.5999755859</ele>
        <time>2021-03-21T07:55:36.000Z</time>
      </trkpt>
      <trkpt lat="45.0168" lon="6.03959">
        <ele>1483.5999755859</ele>
        <time>2021-03-21T07:55:37.000Z</time>
      </trkpt>
      <trkpt lat="45.01681" lon="6.03958">
        <ele>1483.4000244141</ele>
        <time>2021-03-21T07:55:38.000Z</time>
      </trkpt>
      <trkpt lat="45.01681" lon="6.03958">
        <ele>1483.4000244141</ele>
        <time>2021-03-21T07:55:39.000Z</time>
      </trkpt>
      <trkpt lat="45.01681" lon="6.03958">
        <ele>1483.5999755859</ele>
        <time>2021-03-21T07:55:40.000Z</time>
      </trkpt>
      <trkpt lat="45.01681" lon="6.03958">
        <ele>1483.5999755859</ele>
        <time>2021-03-21T07:55:41.000Z</time>
      </trkpt>
      <trkpt lat="45.0168" lon="6.03958">
        <ele>1483.8000488281</ele>
        <time>2021-03-21T07:55:42.000Z</time>
      </trkpt>
      <trkpt lat="45.0168" lon="6.03958">
        <ele>1484</ele>
        <time>2021-03-21T07:55:43.000Z</time>
      </trkpt>
      <trkpt lat="45.0168" lon="6.03957">
        <ele>1484.1999511719</ele>
        <time>2021-03-21T07:55:44.000Z</time>
      </trkpt>
      <trkpt lat="45.01679" lon="6.03958">
        <ele>1484.4000244141</ele>
        <time>2021-03-21T07:55:45.000Z</time>
      </trkpt>
      <trkpt lat="45.01679" lon="6.03958">
        <ele>1484.5999755859</ele>
        <time>2021-03-21T07:55:46.000Z</time>
      </trkpt>
      <trkpt lat="45.01679" lon="6.03958">
        <ele>1484.5999755859</ele>
        <time>2021-03-21T07:55:47.000Z</time>
      </trkpt>
      <trkpt lat="45.01679" lon="6.03957">
        <ele>1484.5999755859</ele>
        <time>2021-03-21T07:55:48.000Z</time>
      </trkpt>
      <trkpt lat="45.01679" lon="6.03957">
        <ele>1485</ele>
        <time>2021-03-21T07:55:49.000Z</time>
      </trkpt>
      <trkpt lat="45.01679" lon="6.03956">
        <ele>1484.8000488281</ele>
        <time>2021-03-21T07:55:50.000Z</time>
      </trkpt>
      <trkpt lat="45.01679" lon="6.03956">
        <ele>1485</ele>
        <time>2021-03-21T07:55:51.000Z</time>
      </trkpt>
      <trkpt lat="45.01678" lon="6.03956">
        <ele>1485.1999511719</ele>
        <time>2021-03-21T07:55:52.000Z</time>
      </trkpt>
      <trkpt lat="45.01679" lon="6.03956">
        <ele>1485</ele>
        <time>2021-03-21T07:55:53.000Z</time>
      </trkpt>
      <trkpt lat="45.01679" lon="6.03956">
        <ele>1485</ele>
        <time>2021-03-21T07:55:54.000Z</time>
      </trkpt>
      <trkpt lat="45.01679" lon="6.03956">
        <ele>1485</ele>
        <time>2021-03-21T07:55:55.000Z</time>
      </trkpt>
      <trkpt lat="45.01679" lon="6.03956">
        <ele>1484.8000488281</ele>
        <time>2021-03-21T07:55:56.000Z</time>
      </trkpt>
      <trkpt lat="45.01679" lon="6.03956">
        <ele>1485</ele>
        <time>2021-03-21T07:55:57.000Z</time>
      </trkpt>
      <trkpt lat="45.01679" lon="6.03956">
        <ele>1485</ele>
        <time>2021-03-21T07:55:58.000Z</time>
      </trkpt>
      <trkpt lat="45.01679" lon="6.03956">
        <ele>1485</ele>
        <time>2021-03-21T07:55:59.000Z</time>
      </trkpt>
      <trkpt lat="45.01678" lon="6.03957">
        <ele>1485.4000244141</ele>
        <time>2021-03-21T07:56:00.000Z</time>
      </trkpt>
      <trkpt lat="45.01678" lon="6.03957">
        <ele>1485.5999755859</ele>
        <time>2021-03-21T07:56:01.000Z</time>
      </trkpt>
      <trkpt lat="45.01677" lon="6.03956">
        <ele>1485.5999755859</ele>
        <time>2021-03-21T07:56:02.000Z</time>
      </trkpt>
      <trkpt lat="45.01677" lon="6.03956">
        <ele>1485.8000488281</ele>
        <time>2021-03-21T07:56:03.000Z</time>
      </trkpt>
      <trkpt lat="45.01676" lon="6.03957">
        <ele>1486</ele>
        <time>2021-03-21T07:56:04.000Z</time>
      </trkpt>
      <trkpt lat="45.01676" lon="6.03957">
        <ele>1486</ele>
        <time>2021-03-21T07:56:05.000Z</time>
      </trkpt>
      <trkpt lat="45.01676" lon="6.03957">
        <ele>1486.1999511719</ele>
        <time>2021-03-21T07:56:06.000Z</time>
      </trkpt>
      <trkpt lat="45.01675" lon="6.03958">
        <ele>1486.4000244141</ele>
        <time>2021-03-21T07:56:07.000Z</time>
      </trkpt>
      <trkpt lat="45.01676" lon="6.03958">
        <ele>1486.1999511719</ele>
        <time>2021-03-21T07:56:08.000Z</time>
      </trkpt>
      <trkpt lat="45.01676" lon="6.03958">
        <ele>1486.1999511719</ele>
        <time>2021-03-21T07:56:09.000Z</time>
      </trkpt>
      <trkpt lat="45.01675" lon="6.03958">
        <ele>1486.4000244141</ele>
        <time>2021-03-21T07:56:10.000Z</time>
      </trkpt>
      <trkpt lat="45.01675" lon="6.03958">
        <ele>1486.4000244141</ele>
        <time>2021-03-21T07:56:11.000Z</time>
      </trkpt>
      <trkpt lat="45.01676" lon="6.03958">
        <ele>1486.1999511719</ele>
        <time>2021-03-21T07:56:12.000Z</time>
      </trkpt>
      <trkpt lat="45.01676" lon="6.03958">
        <ele>1486</ele>
        <time>2021-03-21T07:56:13.000Z</time>
      </trkpt>
      <trkpt lat="45.01677" lon="6.03958">
        <ele>1485.5999755859</ele>
        <time>2021-03-21T07:56:14.000Z</time>
      </trkpt>
      <trkpt lat="45.01677" lon="6.03958">
        <ele>1485.5999755859</ele>
        <time>2021-03-21T07:56:15.000Z</time>
      </trkpt>
      <trkpt lat="45.01677" lon="6.03958">
        <ele>1485.1999511719</ele>
        <time>2021-03-21T07:56:16.000Z</time>
      </trkpt>
      <trkpt lat="45.01678" lon="6.03958">
        <ele>1485.1999511719</ele>
        <time>2021-03-21T07:56:17.000Z</time>
      </trkpt>
      <trkpt lat="45.01677" lon="6.03958">
        <ele>1485.4000244141</ele>
        <time>2021-03-21T07:56:18.000Z</time>
      </trkpt>
      <trkpt lat="45.01677" lon="6.03958">
        <ele>1485.4000244141</ele>
        <time>2021-03-21T07:56:19.000Z</time>
      </trkpt>
      <trkpt lat="45.01677" lon="6.03958">
        <ele>1485.4000244141</ele>
        <time>2021-03-21T07:56:20.000Z</time>
      </trkpt>
      <trkpt lat="45.01677" lon="6.03958">
        <ele>1485.1999511719</ele>
        <time>2021-03-21T07:56:21.000Z</time>
      </trkpt>
      <trkpt lat="45.01678" lon="6.03958">
        <ele>1485</ele>
        <time>2021-03-21T07:56:22.000Z</time>
      </trkpt>
      <trkpt lat="45.01678" lon="6.03958">
        <ele>1484.8000488281</ele>
        <time>2021-03-21T07:56:23.000Z</time>
      </trkpt>
      <trkpt lat="45.01679" lon="6.03958">
        <ele>1484.5999755859</ele>
        <time>2021-03-21T07:56:24.000Z</time>
      </trkpt>
      <trkpt lat="45.01679" lon="6.03957">
        <ele>1484.4000244141</ele>
        <time>2021-03-21T07:56:25.000Z</time>
      </trkpt>
      <trkpt lat="45.01679" lon="6.03957">
        <ele>1484.4000244141</ele>
        <time>2021-03-21T07:56:26.000Z</time>
      </trkpt>
      <trkpt lat="45.0168" lon="6.03957">
        <ele>1484.4000244141</ele>
        <time>2021-03-21T07:56:27.000Z</time>
      </trkpt>
      <trkpt lat="45.0168" lon="6.03956">
        <ele>1484.1999511719</ele>
        <time>2021-03-21T07:56:28.000Z</time>
      </trkpt>
      <trkpt lat="45.0168" lon="6.03956">
        <ele>1484</ele>
        <time>2021-03-21T07:56:29.000Z</time>
      </trkpt>
      <trkpt lat="45.01681" lon="6.03956">
        <ele>1484</ele>
        <time>2021-03-21T07:56:30.000Z</time>
      </trkpt>
      <trkpt lat="45.01681" lon="6.03956">
        <ele>1484</ele>
        <time>2021-03-21T07:56:31.000Z</time>
      </trkpt>
      <trkpt lat="45.01681" lon="6.03956">
        <ele>1483.8000488281</ele>
        <time>2021-03-21T07:56:32.000Z</time>
      </trkpt>
      <trkpt lat="45.01681" lon="6.03955">
        <ele>1484</ele>
        <time>2021-03-21T07:56:33.000Z</time>
      </trkpt>
      <trkpt lat="45.01681" lon="6.03955">
        <ele>1484</ele>
        <time>2021-03-21T07:56:34.000Z</time>
      </trkpt>
      <trkpt lat="45.01681" lon="6.03955">
        <ele>1484</ele>
        <time>2021-03-21T07:56:35.000Z</time>
      </trkpt>
      <trkpt lat="45.01681" lon="6.03956">
        <ele>1483.8000488281</ele>
        <time>2021-03-21T07:56:36.000Z</time>
      </trkpt>
      <trkpt lat="45.01682" lon="6.03956">
        <ele>1483.8000488281</ele>
        <time>2021-03-21T07:56:37.000Z</time>
      </trkpt>
      <trkpt lat="45.01682" lon="6.03955">
        <ele>1483.8000488281</ele>
        <time>2021-03-21T07:56:38.000Z</time>
      </trkpt>
      <trkpt lat="45.01682" lon="6.03955">
        <ele>1483.8000488281</ele>
        <time>2021-03-21T07:56:39.000Z</time>
      </trkpt>
      <trkpt lat="45.01683" lon="6.03955">
        <ele>1483.8000488281</ele>
        <time>2021-03-21T07:56:40.000Z</time>
      </trkpt>
      <trkpt lat="45.01684" lon="6.03955">
        <ele>1483.8000488281</ele>
        <time>2021-03-21T07:56:41.000Z</time>
      </trkpt>
      <trkpt lat="45.01684" lon="6.03955">
        <ele>1483.8000488281</ele>
        <time>2021-03-21T07:56:42.000Z</time>
      </trkpt>
      <trkpt lat="45.01684" lon="6.03955">
        <ele>1483.8000488281</ele>
        <time>2021-03-21T07:56:43.000Z</time>
      </trkpt>
      <trkpt lat="45.01685" lon="6.03956">
        <ele>1483.8000488281</ele>
        <time>2021-03-21T07:56:44.000Z</time>
      </trkpt>
      <trkpt lat="45.01684" lon="6.03956">
        <ele>1483.5999755859</ele>
        <time>2021-03-21T07:56:45.000Z</time>
      </trkpt>
      <trkpt lat="45.01684" lon="6.03956">
        <ele>1483.5999755859</ele>
        <time>2021-03-21T07:56:46.000Z</time>
      </trkpt>
      <trkpt lat="45.01685" lon="6.03956">
        <ele>1483.5999755859</ele>
        <time>2021-03-21T07:56:47.000Z</time>
      </trkpt>
      <trkpt lat="45.01685" lon="6.03956">
        <ele>1483.5999755859</ele>
        <time>2021-03-21T07:56:48.000Z</time>
      </trkpt>
      <trkpt lat="45.01685" lon="6.03957">
        <ele>1483.4000244141</ele>
        <time>2021-03-21T07:56:49.000Z</time>
      </trkpt>
      <trkpt lat="45.01685" lon="6.03957">
        <ele>1483.4000244141</ele>
        <time>2021-03-21T07:56:50.000Z</time>
      </trkpt>
      <trkpt lat="45.01685" lon="6.03957">
        <ele>1483.4000244141</ele>
        <time>2021-03-21T07:56:51.000Z</time>
      </trkpt>
      <trkpt lat="45.01686" lon="6.03957">
        <ele>1483.4000244141</ele>
        <time>2021-03-21T07:56:52.000Z</time>
      </trkpt>
      <trkpt lat="45.01686" lon="6.03957">
        <ele>1483.4000244141</ele>
        <time>2021-03-21T07:56:53.000Z</time>
      </trkpt>
      <trkpt lat="45.01686" lon="6.03956">
        <ele>1483.4000244141</ele>
        <time>2021-03-21T07:56:54.000Z</time>
      </trkpt>
      <trkpt lat="45.01686" lon="6.03956">
        <ele>1483.5999755859</ele>
        <time>2021-03-21T07:56:55.000Z</time>
      </trkpt>
      <trkpt lat="45.01686" lon="6.03956">
        <ele>1483.5999755859</ele>
        <time>2021-03-21T07:56:56.000Z</time>
      </trkpt>
      <trkpt lat="45.01687" lon="6.03956">
        <ele>1483.5999755859</ele>
        <time>2021-03-21T07:56:57.000Z</time>
      </trkpt>
      <trkpt lat="45.01687" lon="6.03956">
        <ele>1483.5999755859</ele>
        <time>2021-03-21T07:56:58.000Z</time>
      </trkpt>
      <trkpt lat="45.01687" lon="6.03956">
        <ele>1483.5999755859</ele>
        <time>2021-03-21T07:56:59.000Z</time>
      </trkpt>
      <trkpt lat="45.01687" lon="6.03955">
        <ele>1483.5999755859</ele>
        <time>2021-03-21T07:57:00.000Z</time>
      </trkpt>
      <trkpt lat="45.01687" lon="6.03955">
        <ele>1483.8000488281</ele>
        <time>2021-03-21T07:57:01.000Z</time>
      </trkpt>
      <trkpt lat="45.01687" lon="6.03955">
        <ele>1483.8000488281</ele>
        <time>2021-03-21T07:57:02.000Z</time>
      </trkpt>
      <trkpt lat="45.01686" lon="6.03955">
        <ele>1483.8000488281</ele>
        <time>2021-03-21T07:57:03.000Z</time>
      </trkpt>
      <trkpt lat="45.01686" lon="6.03954">
        <ele>1484</ele>
        <time>2021-03-21T07:57:04.000Z</time>
      </trkpt>
      <trkpt lat="45.01686" lon="6.03954">
        <ele>1484</ele>
        <time>2021-03-21T07:57:05.000Z</time>
      </trkpt>
      <trkpt lat="45.01686" lon="6.03954">
        <ele>1484</ele>
        <time>2021-03-21T07:57:06.000Z</time>
      </trkpt>
      <trkpt lat="45.01687" lon="6.03954">
        <ele>1484</ele>
        <time>2021-03-21T07:57:07.000Z</time>
      </trkpt>
      <trkpt lat="45.01688" lon="6.03954">
        <ele>1484</ele>
        <time>2021-03-21T07:57:08.000Z</time>
      </trkpt>
      <trkpt lat="45.01688" lon="6.03954">
        <ele>1484</ele>
        <time>2021-03-21T07:57:09.000Z</time>
      </trkpt>
      <trkpt lat="45.01689" lon="6.03954">
        <ele>1484</ele>
        <time>2021-03-21T07:57:10.000Z</time>
      </trkpt>
      <trkpt lat="45.01689" lon="6.03954">
        <ele>1484</ele>
        <time>2021-03-21T07:57:11.000Z</time>
      </trkpt>
      <trkpt lat="45.01689" lon="6.03953">
        <ele>1484</ele>
        <time>2021-03-21T07:57:12.000Z</time>
      </trkpt>
      <trkpt lat="45.01689" lon="6.03953">
        <ele>1484</ele>
        <time>2021-03-21T07:57:13.000Z</time>
      </trkpt>
      <trkpt lat="45.01688" lon="6.03953">
        <ele>1484</ele>
        <time>2021-03-21T07:57:14.000Z</time>
      </trkpt>
      <trkpt lat="45.01688" lon="6.03953">
        <ele>1484</ele>
        <time>2021-03-21T07:57:15.000Z</time>
      </trkpt>
      <trkpt lat="45.01688" lon="6.03954">
        <ele>1484</ele>
        <time>2021-03-21T07:57:16.000Z</time>
      </trkpt>
      <trkpt lat="45.01687" lon="6.03954">
        <ele>1484</ele>
        <time>2021-03-21T07:57:17.000Z</time>
      </trkpt>
      <trkpt lat="45.01687" lon="6.03954">
        <ele>1484</ele>
        <time>2021-03-21T07:57:18.000Z</time>
      </trkpt>
      <trkpt lat="45.01686" lon="6.03954">
        <ele>1484</ele>
        <time>2021-03-21T07:57:19.000Z</time>
      </trkpt>
      <trkpt lat="45.01687" lon="6.03954">
        <ele>1484</ele>
        <time>2021-03-21T07:57:20.000Z</time>
      </trkpt>
      <trkpt lat="45.01686" lon="6.03954">
        <ele>1483.8000488281</ele>
        <time>2021-03-21T07:57:21.000Z</time>
      </trkpt>
      <trkpt lat="45.01686" lon="6.03955">
        <ele>1483.8000488281</ele>
        <time>2021-03-21T07:57:22.000Z</time>
      </trkpt>
      <trkpt lat="45.01686" lon="6.03956">
        <ele>1483.5999755859</ele>
        <time>2021-03-21T07:57:23.000Z</time>
      </trkpt>
      <trkpt lat="45.01685" lon="6.03957">
        <ele>1483.4000244141</ele>
        <time>2021-03-21T07:57:24.000Z</time>
      </trkpt>
      <trkpt lat="45.01685" lon="6.03957">
        <ele>1483.1999511719</ele>
        <time>2021-03-21T07:57:25.000Z</time>
      </trkpt>
      <trkpt lat="45.01685" lon="6.03958">
        <ele>1483.1999511719</ele>
        <time>2021-03-21T07:57:26.000Z</time>
      </trkpt>
      <trkpt lat="45.01685" lon="6.03959">
        <ele>1483</ele>
        <time>2021-03-21T07:57:27.000Z</time>
      </trkpt>
      <trkpt lat="45.01685" lon="6.0396">
        <ele>1482.8000488281</ele>
        <time>2021-03-21T07:57:28.000Z</time>
      </trkpt>
      <trkpt lat="45.01685" lon="6.0396">
        <ele>1482.8000488281</ele>
        <time>2021-03-21T07:57:29.000Z</time>
      </trkpt>
      <trkpt lat="45.01685" lon="6.03961">
        <ele>1482.8000488281</ele>
        <time>2021-03-21T07:57:30.000Z</time>
      </trkpt>
      <trkpt lat="45.01685" lon="6.03962">
        <ele>1482.8000488281</ele>
        <time>2021-03-21T07:57:31.000Z</time>
      </trkpt>
      <trkpt lat="45.01685" lon="6.03963">
        <ele>1482.8000488281</ele>
        <time>2021-03-21T07:57:32.000Z</time>
      </trkpt>
      <trkpt lat="45.01685" lon="6.03964">
        <ele>1482.5999755859</ele>
        <time>2021-03-21T07:57:33.000Z</time>
      </trkpt>
      <trkpt lat="45.01685" lon="6.03965">
        <ele>1482.5999755859</ele>
        <time>2021-03-21T07:57:34.000Z</time>
      </trkpt>
      <trkpt lat="45.01685" lon="6.03966">
        <ele>1482.4000244141</ele>
        <time>2021-03-21T07:57:35.000Z</time>
      </trkpt>
      <trkpt lat="45.01685" lon="6.03968">
        <ele>1482.4000244141</ele>
        <time>2021-03-21T07:57:36.000Z</time>
      </trkpt>
      <trkpt lat="45.01685" lon="6.03969">
        <ele>1482.4000244141</ele>
        <time>2021-03-21T07:57:37.000Z</time>
      </trkpt>
      <trkpt lat="45.01685" lon="6.03969">
        <ele>1482.1999511719</ele>
        <time>2021-03-21T07:57:38.000Z</time>
      </trkpt>
      <trkpt lat="45.01685" lon="6.0397">
        <ele>1482.1999511719</ele>
        <time>2021-03-21T07:57:39.000Z</time>
      </trkpt>
      <trkpt lat="45.01684" lon="6.03971">
        <ele>1482.1999511719</ele>
        <time>2021-03-21T07:57:40.000Z</time>
      </trkpt>
      <trkpt lat="45.01684" lon="6.03971">
        <ele>1482.1999511719</ele>
        <time>2021-03-21T07:57:41.000Z</time>
      </trkpt>
      <trkpt lat="45.01684" lon="6.03972">
        <ele>1482.1999511719</ele>
        <time>2021-03-21T07:57:42.000Z</time>
      </trkpt>
      <trkpt lat="45.01684" lon="6.03972">
        <ele>1482</ele>
        <time>2021-03-21T07:57:43.000Z</time>
      </trkpt>
      <trkpt lat="45.01685" lon="6.03973">
        <ele>1482</ele>
        <time>2021-03-21T07:57:44.000Z</time>
      </trkpt>
      <trkpt lat="45.01684" lon="6.03974">
        <ele>1482</ele>
        <time>2021-03-21T07:57:45.000Z</time>
      </trkpt>
      <trkpt lat="45.01685" lon="6.03975">
        <ele>1482</ele>
        <time>2021-03-21T07:57:46.000Z</time>
      </trkpt>
      <trkpt lat="45.01684" lon="6.03975">
        <ele>1481.8000488281</ele>
        <time>2021-03-21T07:57:47.000Z</time>
      </trkpt>
      <trkpt lat="45.01684" lon="6.03975">
        <ele>1481.8000488281</ele>
        <time>2021-03-21T07:57:48.000Z</time>
      </trkpt>
      <trkpt lat="45.01684" lon="6.03975">
        <ele>1481.8000488281</ele>
        <time>2021-03-21T07:57:49.000Z</time>
      </trkpt>
      <trkpt lat="45.01685" lon="6.03975">
        <ele>1481.8000488281</ele>
        <time>2021-03-21T07:57:50.000Z</time>
      </trkpt>
      <trkpt lat="45.01684" lon="6.03975">
        <ele>1482</ele>
        <time>2021-03-21T07:57:51.000Z</time>
      </trkpt>
      <trkpt lat="45.01684" lon="6.03975">
        <ele>1482</ele>
        <time>2021-03-21T07:57:52.000Z</time>
      </trkpt>
      <trkpt lat="45.01684" lon="6.03975">
        <ele>1482</ele>
        <time>2021-03-21T07:57:53.000Z</time>
      </trkpt>
      <trkpt lat="45.01684" lon="6.03975">
        <ele>1482</ele>
        <time>2021-03-21T07:57:54.000Z</time>
      </trkpt>
      <trkpt lat="45.01684" lon="6.03975">
        <ele>1482</ele>
        <time>2021-03-21T07:57:55.000Z</time>
      </trkpt>
      <trkpt lat="45.01684" lon="6.03975">
        <ele>1482</ele>
        <time>2021-03-21T07:57:56.000Z</time>
      </trkpt>
      <trkpt lat="45.01684" lon="6.03975">
        <ele>1481.8000488281</ele>
        <time>2021-03-21T07:57:57.000Z</time>
      </trkpt>
      <trkpt lat="45.01684" lon="6.03975">
        <ele>1481.8000488281</ele>
        <time>2021-03-21T07:57:58.000Z</time>
      </trkpt>
      <trkpt lat="45.01685" lon="6.03975">
        <ele>1481.8000488281</ele>
        <time>2021-03-21T07:57:59.000Z</time>
      </trkpt>
      <trkpt lat="45.01685" lon="6.03976">
        <ele>1481.8000488281</ele>
        <time>2021-03-21T07:58:00.000Z</time>
      </trkpt>
      <trkpt lat="45.01685" lon="6.03976">
        <ele>1481.8000488281</ele>
        <time>2021-03-21T07:58:01.000Z</time>
      </trkpt>
      <trkpt lat="45.01685" lon="6.03976">
        <ele>1481.8000488281</ele>
        <time>2021-03-21T07:58:02.000Z</time>
      </trkpt>
      <trkpt lat="45.01685" lon="6.03977">
        <ele>1481.8000488281</ele>
        <time>2021-03-21T07:58:03.000Z</time>
      </trkpt>
      <trkpt lat="45.01685" lon="6.03978">
        <ele>1481.5999755859</ele>
        <time>2021-03-21T07:58:04.000Z</time>
      </trkpt>
      <trkpt lat="45.01685" lon="6.03979">
        <ele>1481.5999755859</ele>
        <time>2021-03-21T07:58:05.000Z</time>
      </trkpt>
      <trkpt lat="45.01684" lon="6.03981">
        <ele>1481.4000244141</ele>
        <time>2021-03-21T07:58:06.000Z</time>
      </trkpt>
      <trkpt lat="45.01683" lon="6.03982">
        <ele>1481.4000244141</ele>
        <time>2021-03-21T07:58:07.000Z</time>
      </trkpt>
      <trkpt lat="45.01682" lon="6.03984">
        <ele>1481.1999511719</ele>
        <time>2021-03-21T07:58:08.000Z</time>
      </trkpt>
      <trkpt lat="45.01681" lon="6.03985">
        <ele>1481.1999511719</ele>
        <time>2021-03-21T07:58:09.000Z</time>
      </trkpt>
      <trkpt lat="45.01681" lon="6.03986">
        <ele>1481.4000244141</ele>
        <time>2021-03-21T07:58:10.000Z</time>
      </trkpt>
      <trkpt lat="45.0168" lon="6.03988">
        <ele>1481.5999755859</ele>
        <time>2021-03-21T07:58:11.000Z</time>
      </trkpt>
      <trkpt lat="45.01678" lon="6.03989">
        <ele>1481.8000488281</ele>
        <time>2021-03-21T07:58:12.000Z</time>
      </trkpt>
      <trkpt lat="45.01678" lon="6.0399">
        <ele>1481.8000488281</ele>
        <time>2021-03-21T07:58:13.000Z</time>
      </trkpt>
      <trkpt lat="45.01677" lon="6.03991">
        <ele>1481.5999755859</ele>
        <time>2021-03-21T07:58:14.000Z</time>
      </trkpt>
      <trkpt lat="45.01676" lon="6.03992">
        <ele>1481.8000488281</ele>
        <time>2021-03-21T07:58:15.000Z</time>
      </trkpt>
      <trkpt lat="45.01676" lon="6.03993">
        <ele>1481.8000488281</ele>
        <time>2021-03-21T07:58:16.000Z</time>
      </trkpt>
      <trkpt lat="45.01675" lon="6.03994">
        <ele>1482</ele>
        <time>2021-03-21T07:58:17.000Z</time>
      </trkpt>
      <trkpt lat="45.01674" lon="6.03995">
        <ele>1482.1999511719</ele>
        <time>2021-03-21T07:58:18.000Z</time>
      </trkpt>
      <trkpt lat="45.01673" lon="6.03995">
        <ele>1482.4000244141</ele>
        <time>2021-03-21T07:58:19.000Z</time>
      </trkpt>
      <trkpt lat="45.01672" lon="6.03996">
        <ele>1482.8000488281</ele>
        <time>2021-03-21T07:58:20.000Z</time>
      </trkpt>
      <trkpt lat="45.0167" lon="6.03997">
        <ele>1483.1999511719</ele>
        <time>2021-03-21T07:58:21.000Z</time>
      </trkpt>
      <trkpt lat="45.01669" lon="6.03997">
        <ele>1483.5999755859</ele>
        <time>2021-03-21T07:58:22.000Z</time>
      </trkpt>
      <trkpt lat="45.01668" lon="6.03997">
        <ele>1484</ele>
        <time>2021-03-21T07:58:23.000Z</time>
      </trkpt>
      <trkpt lat="45.01666" lon="6.03998">
        <ele>1484.4000244141</ele>
        <time>2021-03-21T07:58:24.000Z</time>
      </trkpt>
      <trkpt lat="45.01665" lon="6.03998">
        <ele>1485</ele>
        <time>2021-03-21T07:58:25.000Z</time>
      </trkpt>
      <trkpt lat="45.01663" lon="6.03998">
        <ele>1485.5999755859</ele>
        <time>2021-03-21T07:58:26.000Z</time>
      </trkpt>
      <trkpt lat="45.01662" lon="6.03998">
        <ele>1485.8000488281</ele>
        <time>2021-03-21T07:58:27.000Z</time>
      </trkpt>
      <trkpt lat="45.01661" lon="6.03998">
        <ele>1486.1999511719</ele>
        <time>2021-03-21T07:58:28.000Z</time>
      </trkpt>
      <trkpt lat="45.0166" lon="6.03998">
        <ele>1486.5999755859</ele>
        <time>2021-03-21T07:58:29.000Z</time>
      </trkpt>
      <trkpt lat="45.01659" lon="6.03999">
        <ele>1486.8000488281</ele>
        <time>2021-03-21T07:58:30.000Z</time>
      </trkpt>
      <trkpt lat="45.01658" lon="6.04">
        <ele>1487.1999511719</ele>
        <time>2021-03-21T07:58:31.000Z</time>
      </trkpt>
      <trkpt lat="45.01657" lon="6.04">
        <ele>1487.4000244141</ele>
        <time>2021-03-21T07:58:32.000Z</time>
      </trkpt>
      <trkpt lat="45.01656" lon="6.04001">
        <ele>1487.5999755859</ele>
        <time>2021-03-21T07:58:33.000Z</time>
      </trkpt>
      <trkpt lat="45.01655" lon="6.04002">
        <ele>1487.8000488281</ele>
        <time>2021-03-21T07:58:34.000Z</time>
      </trkpt>
      <trkpt lat="45.01654" lon="6.04003">
        <ele>1487.8000488281</ele>
        <time>2021-03-21T07:58:35.000Z</time>
      </trkpt>
      <trkpt lat="45.01653" lon="6.04004">
        <ele>1488.1999511719</ele>
        <time>2021-03-21T07:58:36.000Z</time>
      </trkpt>
      <trkpt lat="45.01652" lon="6.04005">
        <ele>1488.1999511719</ele>
        <time>2021-03-21T07:58:37.000Z</time>
      </trkpt>
      <trkpt lat="45.01652" lon="6.04006">
        <ele>1488.1999511719</ele>
        <time>2021-03-21T07:58:38.000Z</time>
      </trkpt>
      <trkpt lat="45.01651" lon="6.04006">
        <ele>1488.1999511719</ele>
        <time>2021-03-21T07:58:39.000Z</time>
      </trkpt>
      <trkpt lat="45.01651" lon="6.04007">
        <ele>1488.1999511719</ele>
        <time>2021-03-21T07:58:40.000Z</time>
      </trkpt>
      <trkpt lat="45.0165" lon="6.04007">
        <ele>1488.1999511719</ele>
        <time>2021-03-21T07:58:41.000Z</time>
      </trkpt>
      <trkpt lat="45.0165" lon="6.04008">
        <ele>1488.1999511719</ele>
        <time>2021-03-21T07:58:42.000Z</time>
      </trkpt>
      <trkpt lat="45.0165" lon="6.04008">
        <ele>1488.1999511719</ele>
        <time>2021-03-21T07:58:43.000Z</time>
      </trkpt>
      <trkpt lat="45.01649" lon="6.04008">
        <ele>1488.1999511719</ele>
        <time>2021-03-21T07:58:44.000Z</time>
      </trkpt>
      <trkpt lat="45.0165" lon="6.04008">
        <ele>1488.1999511719</ele>
        <time>2021-03-21T07:58:45.000Z</time>
      </trkpt>
      <trkpt lat="45.0165" lon="6.04008">
        <ele>1488.1999511719</ele>
        <time>2021-03-21T07:58:46.000Z</time>
      </trkpt>
      <trkpt lat="45.0165" lon="6.04008">
        <ele>1488.1999511719</ele>
        <time>2021-03-21T07:58:47.000Z</time>
      </trkpt>
      <trkpt lat="45.01649" lon="6.04008">
        <ele>1488.4000244141</ele>
        <time>2021-03-21T07:58:48.000Z</time>
      </trkpt>
      <trkpt lat="45.01649" lon="6.04008">
        <ele>1488.5999755859</ele>
        <time>2021-03-21T07:58:49.000Z</time>
      </trkpt>
      <trkpt lat="45.01648" lon="6.04008">
        <ele>1488.4000244141</ele>
        <time>2021-03-21T07:58:50.000Z</time>
      </trkpt>
      <trkpt lat="45.01648" lon="6.04008">
        <ele>1488.4000244141</ele>
        <time>2021-03-21T07:58:51.000Z</time>
      </trkpt>
      <trkpt lat="45.01648" lon="6.04008">
        <ele>1488.4000244141</ele>
        <time>2021-03-21T07:58:52.000Z</time>
      </trkpt>
      <trkpt lat="45.01648" lon="6.04008">
        <ele>1488.4000244141</ele>
        <time>2021-03-21T07:58:53.000Z</time>
      </trkpt>
      <trkpt lat="45.01648" lon="6.04008">
        <ele>1488.4000244141</ele>
        <time>2021-03-21T07:58:54.000Z</time>
      </trkpt>
      <trkpt lat="45.01648" lon="6.04009">
        <ele>1488.4000244141</ele>
        <time>2021-03-21T07:58:55.000Z</time>
      </trkpt>
      <trkpt lat="45.01648" lon="6.0401">
        <ele>1488.1999511719</ele>
        <time>2021-03-21T07:58:56.000Z</time>
      </trkpt>
      <trkpt lat="45.01648" lon="6.0401">
        <ele>1488.1999511719</ele>
        <time>2021-03-21T07:58:57.000Z</time>
      </trkpt>
      <trkpt lat="45.01648" lon="6.0401">
        <ele>1488.4000244141</ele>
        <time>2021-03-21T07:58:58.000Z</time>
      </trkpt>
      <trkpt lat="45.01648" lon="6.0401">
        <ele>1488.4000244141</ele>
        <time>2021-03-21T07:58:59.000Z</time>
      </trkpt>
      <trkpt lat="45.01647" lon="6.0401">
        <ele>1488.5999755859</ele>
        <time>2021-03-21T07:59:00.000Z</time>
      </trkpt>
      <trkpt lat="45.01647" lon="6.0401">
        <ele>1488.5999755859</ele>
        <time>2021-03-21T07:59:01.000Z</time>
      </trkpt>
      <trkpt lat="45.01647" lon="6.0401">
        <ele>1488.5999755859</ele>
        <time>2021-03-21T07:59:02.000Z</time>
      </trkpt>
      <trkpt lat="45.01647" lon="6.0401">
        <ele>1488.8000488281</ele>
        <time>2021-03-21T07:59:03.000Z</time>
      </trkpt>
      <trkpt lat="45.01647" lon="6.04011">
        <ele>1488.5999755859</ele>
        <time>2021-03-21T07:59:04.000Z</time>
      </trkpt>
      <trkpt lat="45.01647" lon="6.04011">
        <ele>1488.8000488281</ele>
        <time>2021-03-21T07:59:05.000Z</time>
      </trkpt>
      <trkpt lat="45.01647" lon="6.04011">
        <ele>1488.8000488281</ele>
        <time>2021-03-21T07:59:06.000Z</time>
      </trkpt>
      <trkpt lat="45.01646" lon="6.04011">
        <ele>1489</ele>
        <time>2021-03-21T07:59:07.000Z</time>
      </trkpt>
      <trkpt lat="45.01646" lon="6.04011">
        <ele>1489</ele>
        <time>2021-03-21T07:59:08.000Z</time>
      </trkpt>
      <trkpt lat="45.01647" lon="6.04011">
        <ele>1489</ele>
        <time>2021-03-21T07:59:09.000Z</time>
      </trkpt>
      <trkpt lat="45.01647" lon="6.04011">
        <ele>1488.8000488281</ele>
        <time>2021-03-21T07:59:10.000Z</time>
      </trkpt>
      <trkpt lat="45.01647" lon="6.0401">
        <ele>1488.8000488281</ele>
        <time>2021-03-21T07:59:11.000Z</time>
      </trkpt>
      <trkpt lat="45.01647" lon="6.0401">
        <ele>1488.8000488281</ele>
        <time>2021-03-21T07:59:12.000Z</time>
      </trkpt>
      <trkpt lat="45.01647" lon="6.0401">
        <ele>1488.5999755859</ele>
        <time>2021-03-21T07:59:13.000Z</time>
      </trkpt>
      <trkpt lat="45.01647" lon="6.0401">
        <ele>1488.5999755859</ele>
        <time>2021-03-21T07:59:14.000Z</time>
      </trkpt>
      <trkpt lat="45.01647" lon="6.04011">
        <ele>1488.5999755859</ele>
        <time>2021-03-21T07:59:15.000Z</time>
      </trkpt>
      <trkpt lat="45.01648" lon="6.04011">
        <ele>1488.4000244141</ele>
        <time>2021-03-21T07:59:16.000Z</time>
      </trkpt>
      <trkpt lat="45.01648" lon="6.04012">
        <ele>1488.4000244141</ele>
        <time>2021-03-21T07:59:17.000Z</time>
      </trkpt>
      <trkpt lat="45.01647" lon="6.04013">
        <ele>1488.5999755859</ele>
        <time>2021-03-21T07:59:18.000Z</time>
      </trkpt>
      <trkpt lat="45.01648" lon="6.04014">
        <ele>1488.4000244141</ele>
        <time>2021-03-21T07:59:19.000Z</time>
      </trkpt>
      <trkpt lat="45.01648" lon="6.04015">
        <ele>1488.4000244141</ele>
        <time>2021-03-21T07:59:20.000Z</time>
      </trkpt>
      <trkpt lat="45.01647" lon="6.04016">
        <ele>1488.4000244141</ele>
        <time>2021-03-21T07:59:21.000Z</time>
      </trkpt>
      <trkpt lat="45.01647" lon="6.04017">
        <ele>1488.4000244141</ele>
        <time>2021-03-21T07:59:22.000Z</time>
      </trkpt>
      <trkpt lat="45.01647" lon="6.04019">
        <ele>1488</ele>
        <time>2021-03-21T07:59:23.000Z</time>
      </trkpt>
      <trkpt lat="45.01647" lon="6.0402">
        <ele>1487.8000488281</ele>
        <time>2021-03-21T07:59:24.000Z</time>
      </trkpt>
      <trkpt lat="45.01647" lon="6.04021">
        <ele>1487.8000488281</ele>
        <time>2021-03-21T07:59:25.000Z</time>
      </trkpt>
      <trkpt lat="45.01648" lon="6.04022">
        <ele>1487.4000244141</ele>
        <time>2021-03-21T07:59:26.000Z</time>
      </trkpt>
      <trkpt lat="45.01647" lon="6.04023">
        <ele>1487.5999755859</ele>
        <time>2021-03-21T07:59:27.000Z</time>
      </trkpt>
      <trkpt lat="45.01647" lon="6.04023">
        <ele>1487.4000244141</ele>
        <time>2021-03-21T07:59:28.000Z</time>
      </trkpt>
      <trkpt lat="45.01648" lon="6.04023">
        <ele>1487.1999511719</ele>
        <time>2021-03-21T07:59:29.000Z</time>
      </trkpt>
      <trkpt lat="45.01647" lon="6.04023">
        <ele>1487.4000244141</ele>
        <time>2021-03-21T07:59:30.000Z</time>
      </trkpt>
      <trkpt lat="45.01647" lon="6.04024">
        <ele>1487.5999755859</ele>
        <time>2021-03-21T07:59:31.000Z</time>
      </trkpt>
      <trkpt lat="45.01647" lon="6.04024">
        <ele>1487.1999511719</ele>
        <time>2021-03-21T07:59:32.000Z</time>
      </trkpt>
      <trkpt lat="45.01647" lon="6.04024">
        <ele>1487.4000244141</ele>
        <time>2021-03-21T07:59:33.000Z</time>
      </trkpt>
      <trkpt lat="45.01647" lon="6.04024">
        <ele>1487.4000244141</ele>
        <time>2021-03-21T07:59:34.000Z</time>
      </trkpt>
      <trkpt lat="45.01647" lon="6.04024">
        <ele>1487.4000244141</ele>
        <time>2021-03-21T07:59:35.000Z</time>
      </trkpt>
      <trkpt lat="45.01648" lon="6.04024">
        <ele>1487.1999511719</ele>
        <time>2021-03-21T07:59:36.000Z</time>
      </trkpt>
      <trkpt lat="45.01648" lon="6.04024">
        <ele>1487.1999511719</ele>
        <time>2021-03-21T07:59:37.000Z</time>
      </trkpt>
      <trkpt lat="45.01647" lon="6.04024">
        <ele>1487.1999511719</ele>
        <time>2021-03-21T07:59:38.000Z</time>
      </trkpt>
      <trkpt lat="45.01648" lon="6.04024">
        <ele>1487.1999511719</ele>
        <time>2021-03-21T07:59:39.000Z</time>
      </trkpt>
      <trkpt lat="45.01649" lon="6.04024">
        <ele>1486.8000488281</ele>
        <time>2021-03-21T07:59:40.000Z</time>
      </trkpt>
      <trkpt lat="45.01648" lon="6.04024">
        <ele>1486.8000488281</ele>
        <time>2021-03-21T07:59:41.000Z</time>
      </trkpt>
      <trkpt lat="45.01648" lon="6.04024">
        <ele>1487</ele>
        <time>2021-03-21T07:59:42.000Z</time>
      </trkpt>
      <trkpt lat="45.01648" lon="6.04024">
        <ele>1486.8000488281</ele>
        <time>2021-03-21T07:59:43.000Z</time>
      </trkpt>
      <trkpt lat="45.01649" lon="6.04023">
        <ele>1486.8000488281</ele>
        <time>2021-03-21T07:59:44.000Z</time>
      </trkpt>
      <trkpt lat="45.01648" lon="6.04024">
        <ele>1487</ele>
        <time>2021-03-21T07:59:45.000Z</time>
      </trkpt>
      <trkpt lat="45.01648" lon="6.04024">
        <ele>1486.8000488281</ele>
        <time>2021-03-21T07:59:46.000Z</time>
      </trkpt>
      <trkpt lat="45.01648" lon="6.04024">
        <ele>1487</ele>
        <time>2021-03-21T07:59:47.000Z</time>
      </trkpt>
      <trkpt lat="45.01649" lon="6.04024">
        <ele>1486.8000488281</ele>
        <time>2021-03-21T07:59:48.000Z</time>
      </trkpt>
      <trkpt lat="45.01648" lon="6.04024">
        <ele>1486.8000488281</ele>
        <time>2021-03-21T07:59:49.000Z</time>
      </trkpt>
      <trkpt lat="45.01649" lon="6.04023">
        <ele>1486.8000488281</ele>
        <time>2021-03-21T07:59:50.000Z</time>
      </trkpt>
      <trkpt lat="45.01649" lon="6.04023">
        <ele>1486.8000488281</ele>
        <time>2021-03-21T07:59:51.000Z</time>
      </trkpt>
      <trkpt lat="45.01649" lon="6.04023">
        <ele>1486.5999755859</ele>
        <time>2021-03-21T07:59:52.000Z</time>
      </trkpt>
      <trkpt lat="45.01649" lon="6.04023">
        <ele>1486.5999755859</ele>
        <time>2021-03-21T07:59:53.000Z</time>
      </trkpt>
      <trkpt lat="45.01649" lon="6.04024">
        <ele>1486.5999755859</ele>
        <time>2021-03-21T07:59:54.000Z</time>
      </trkpt>
      <trkpt lat="45.01649" lon="6.04024">
        <ele>1486.5999755859</ele>
        <time>2021-03-21T07:59:55.000Z</time>
      </trkpt>
      <trkpt lat="45.01649" lon="6.04024">
        <ele>1486.5999755859</ele>
        <time>2021-03-21T07:59:56.000Z</time>
      </trkpt>
      <trkpt lat="45.01649" lon="6.04024">
        <ele>1486.5999755859</ele>
        <time>2021-03-21T07:59:57.000Z</time>
      </trkpt>
      <trkpt lat="45.01649" lon="6.04024">
        <ele>1486.5999755859</ele>
        <time>2021-03-21T07:59:58.000Z</time>
      </trkpt>
      <trkpt lat="45.01649" lon="6.04024">
        <ele>1486.5999755859</ele>
        <time>2021-03-21T07:59:59.000Z</time>
      </trkpt>
      <trkpt lat="45.0165" lon="6.04023">
        <ele>1486.4000244141</ele>
        <time>2021-03-21T08:00:00.000Z</time>
      </trkpt>
      <trkpt lat="45.0165" lon="6.04023">
        <ele>1486.1999511719</ele>
        <time>2021-03-21T08:00:01.000Z</time>
      </trkpt>
      <trkpt lat="45.01649" lon="6.04024">
        <ele>1486.4000244141</ele>
        <time>2021-03-21T08:00:02.000Z</time>
      </trkpt>
      <trkpt lat="45.01648" lon="6.04026">
        <ele>1486.8000488281</ele>
        <time>2021-03-21T08:00:03.000Z</time>
      </trkpt>
      <trkpt lat="45.01648" lon="6.04027">
        <ele>1486.5999755859</ele>
        <time>2021-03-21T08:00:04.000Z</time>
      </trkpt>
      <trkpt lat="45.01648" lon="6.04028">
        <ele>1486.5999755859</ele>
        <time>2021-03-21T08:00:05.000Z</time>
      </trkpt>
      <trkpt lat="45.01647" lon="6.0403">
        <ele>1486.4000244141</ele>
        <time>2021-03-21T08:00:06.000Z</time>
      </trkpt>
      <trkpt lat="45.01647" lon="6.04031">
        <ele>1486.1999511719</ele>
        <time>2021-03-21T08:00:07.000Z</time>
      </trkpt>
      <trkpt lat="45.01647" lon="6.04033">
        <ele>1486.1999511719</ele>
        <time>2021-03-21T08:00:08.000Z</time>
      </trkpt>
      <trkpt lat="45.01646" lon="6.04034">
        <ele>1486.1999511719</ele>
        <time>2021-03-21T08:00:09.000Z</time>
      </trkpt>
      <trkpt lat="45.01646" lon="6.04036">
        <ele>1486.4000244141</ele>
        <time>2021-03-21T08:00:10.000Z</time>
      </trkpt>
      <trkpt lat="45.01646" lon="6.04038">
        <ele>1486</ele>
        <time>2021-03-21T08:00:11.000Z</time>
      </trkpt>
      <trkpt lat="45.01646" lon="6.04039">
        <ele>1486</ele>
        <time>2021-03-21T08:00:12.000Z</time>
      </trkpt>
      <trkpt lat="45.01646" lon="6.04041">
        <ele>1485.8000488281</ele>
        <time>2021-03-21T08:00:13.000Z</time>
      </trkpt>
      <trkpt lat="45.01646" lon="6.04042">
        <ele>1486</ele>
        <time>2021-03-21T08:00:14.000Z</time>
      </trkpt>
      <trkpt lat="45.01646" lon="6.04044">
        <ele>1485.8000488281</ele>
        <time>2021-03-21T08:00:15.000Z</time>
      </trkpt>
      <trkpt lat="45.01646" lon="6.04045">
        <ele>1485.4000244141</ele>
        <time>2021-03-21T08:00:16.000Z</time>
      </trkpt>
      <trkpt lat="45.01646" lon="6.04047">
        <ele>1485.1999511719</ele>
        <time>2021-03-21T08:00:17.000Z</time>
      </trkpt>
      <trkpt lat="45.01647" lon="6.04048">
        <ele>1485</ele>
        <time>2021-03-21T08:00:18.000Z</time>
      </trkpt>
      <trkpt lat="45.01647" lon="6.04049">
        <ele>1484.8000488281</ele>
        <time>2021-03-21T08:00:19.000Z</time>
      </trkpt>
      <trkpt lat="45.01647" lon="6.04051">
        <ele>1484.5999755859</ele>
        <time>2021-03-21T08:00:20.000Z</time>
      </trkpt>
      <trkpt lat="45.01647" lon="6.04052">
        <ele>1484.1999511719</ele>
        <time>2021-03-21T08:00:21.000Z</time>
      </trkpt>
      <trkpt lat="45.01648" lon="6.04054">
        <ele>1483.8000488281</ele>
        <time>2021-03-21T08:00:22.000Z</time>
      </trkpt>
      <trkpt lat="45.01648" lon="6.04055">
        <ele>1484</ele>
        <time>2021-03-21T08:00:23.000Z</time>
      </trkpt>
      <trkpt lat="45.01648" lon="6.04056">
        <ele>1483.8000488281</ele>
        <time>2021-03-21T08:00:24.000Z</time>
      </trkpt>
      <trkpt lat="45.01648" lon="6.04057">
        <ele>1483.8000488281</ele>
        <time>2021-03-21T08:00:25.000Z</time>
      </trkpt>
      <trkpt lat="45.01647" lon="6.04059">
        <ele>1484</ele>
        <time>2021-03-21T08:00:26.000Z</time>
      </trkpt>
      <trkpt lat="45.01646" lon="6.0406">
        <ele>1484.1999511719</ele>
        <time>2021-03-21T08:00:27.000Z</time>
      </trkpt>
      <trkpt lat="45.01647" lon="6.04062">
        <ele>1484</ele>
        <time>2021-03-21T08:00:28.000Z</time>
      </trkpt>
      <trkpt lat="45.01646" lon="6.04064">
        <ele>1484</ele>
        <time>2021-03-21T08:00:29.000Z</time>
      </trkpt>
      <trkpt lat="45.01646" lon="6.04065">
        <ele>1484.4000244141</ele>
        <time>2021-03-21T08:00:30.000Z</time>
      </trkpt>
      <trkpt lat="45.01646" lon="6.04067">
        <ele>1485</ele>
        <time>2021-03-21T08:00:31.000Z</time>
      </trkpt>
      <trkpt lat="45.01646" lon="6.04068">
        <ele>1484.8000488281</ele>
        <time>2021-03-21T08:00:32.000Z</time>
      </trkpt>
      <trkpt lat="45.01646" lon="6.0407">
        <ele>1484.8000488281</ele>
        <time>2021-03-21T08:00:33.000Z</time>
      </trkpt>
      <trkpt lat="45.01646" lon="6.04071">
        <ele>1484.8000488281</ele>
        <time>2021-03-21T08:00:34.000Z</time>
      </trkpt>
      <trkpt lat="45.01646" lon="6.04073">
        <ele>1484.8000488281</ele>
        <time>2021-03-21T08:00:35.000Z</time>
      </trkpt>
      <trkpt lat="45.01646" lon="6.04074">
        <ele>1484.8000488281</ele>
        <time>2021-03-21T08:00:36.000Z</time>
      </trkpt>
      <trkpt lat="45.01646" lon="6.04076">
        <ele>1484.8000488281</ele>
        <time>2021-03-21T08:00:37.000Z</time>
      </trkpt>
      <trkpt lat="45.01646" lon="6.04077">
        <ele>1485</ele>
        <time>2021-03-21T08:00:38.000Z</time>
      </trkpt>
      <trkpt lat="45.01646" lon="6.04078">
        <ele>1485</ele>
        <time>2021-03-21T08:00:39.000Z</time>
      </trkpt>
      <trkpt lat="45.01645" lon="6.04079">
        <ele>1485.1999511719</ele>
        <time>2021-03-21T08:00:40.000Z</time>
      </trkpt>
      <trkpt lat="45.01645" lon="6.0408">
        <ele>1485.5999755859</ele>
        <time>2021-03-21T08:00:41.000Z</time>
      </trkpt>
      <trkpt lat="45.01644" lon="6.04081">
        <ele>1486</ele>
        <time>2021-03-21T08:00:42.000Z</time>
      </trkpt>
      <trkpt lat="45.01644" lon="6.04083">
        <ele>1486</ele>
        <time>2021-03-21T08:00:43.000Z</time>
      </trkpt>
      <trkpt lat="45.01644" lon="6.04084">
        <ele>1486.1999511719</ele>
        <time>2021-03-21T08:00:44.000Z</time>
      </trkpt>
      <trkpt lat="45.01643" lon="6.04086">
        <ele>1486.4000244141</ele>
        <time>2021-03-21T08:00:45.000Z</time>
      </trkpt>
      <trkpt lat="45.01642" lon="6.04088">
        <ele>1486.8000488281</ele>
        <time>2021-03-21T08:00:46.000Z</time>
      </trkpt>
      <trkpt lat="45.01642" lon="6.04089">
        <ele>1487.5999755859</ele>
        <time>2021-03-21T08:00:47.000Z</time>
      </trkpt>
      <trkpt lat="45.01641" lon="6.04091">
        <ele>1488.4000244141</ele>
        <time>2021-03-21T08:00:48.000Z</time>
      </trkpt>
      <trkpt lat="45.01641" lon="6.04092">
        <ele>1489</ele>
        <time>2021-03-21T08:00:49.000Z</time>
      </trkpt>
      <trkpt lat="45.0164" lon="6.04093">
        <ele>1489.4000244141</ele>
        <time>2021-03-21T08:00:50.000Z</time>
      </trkpt>
      <trkpt lat="45.0164" lon="6.04094">
        <ele>1490</ele>
        <time>2021-03-21T08:00:51.000Z</time>
      </trkpt>
      <trkpt lat="45.01639" lon="6.04095">
        <ele>1490.8000488281</ele>
        <time>2021-03-21T08:00:52.000Z</time>
      </trkpt>
      <trkpt lat="45.01639" lon="6.04096">
        <ele>1491.1999511719</ele>
        <time>2021-03-21T08:00:53.000Z</time>
      </trkpt>
      <trkpt lat="45.01638" lon="6.04097">
        <ele>1491.5999755859</ele>
        <time>2021-03-21T08:00:54.000Z</time>
      </trkpt>
      <trkpt lat="45.01638" lon="6.04099">
        <ele>1492.4000244141</ele>
        <time>2021-03-21T08:00:55.000Z</time>
      </trkpt>
      <trkpt lat="45.01638" lon="6.041">
        <ele>1492.4000244141</ele>
        <time>2021-03-21T08:00:56.000Z</time>
      </trkpt>
      <trkpt lat="45.01638" lon="6.04101">
        <ele>1492.5999755859</ele>
        <time>2021-03-21T08:00:57.000Z</time>
      </trkpt>
      <trkpt lat="45.01637" lon="6.04102">
        <ele>1492.8000488281</ele>
        <time>2021-03-21T08:00:58.000Z</time>
      </trkpt>
      <trkpt lat="45.01637" lon="6.04103">
        <ele>1493</ele>
        <time>2021-03-21T08:00:59.000Z</time>
      </trkpt>
      <trkpt lat="45.01637" lon="6.04104">
        <ele>1493</ele>
        <time>2021-03-21T08:01:00.000Z</time>
      </trkpt>
      <trkpt lat="45.01636" lon="6.04105">
        <ele>1493.5999755859</ele>
        <time>2021-03-21T08:01:01.000Z</time>
      </trkpt>
      <trkpt lat="45.01636" lon="6.04106">
        <ele>1494.1999511719</ele>
        <time>2021-03-21T08:01:02.000Z</time>
      </trkpt>
      <trkpt lat="45.01635" lon="6.04107">
        <ele>1494.5999755859</ele>
        <time>2021-03-21T08:01:03.000Z</time>
      </trkpt>
      <trkpt lat="45.01635" lon="6.04108">
        <ele>1495.1999511719</ele>
        <time>2021-03-21T08:01:04.000Z</time>
      </trkpt>
      <trkpt lat="45.01634" lon="6.04109">
        <ele>1495.8000488281</ele>
        <time>2021-03-21T08:01:05.000Z</time>
      </trkpt>
      <trkpt lat="45.01633" lon="6.0411">
        <ele>1496.4000244141</ele>
        <time>2021-03-21T08:01:06.000Z</time>
      </trkpt>
      <trkpt lat="45.01632" lon="6.04112">
        <ele>1497.1999511719</ele>
        <time>2021-03-21T08:01:07.000Z</time>
      </trkpt>
      <trkpt lat="45.01632" lon="6.04112">
        <ele>1498</ele>
        <time>2021-03-21T08:01:08.000Z</time>
      </trkpt>
      <trkpt lat="45.01631" lon="6.04113">
        <ele>1498.4000244141</ele>
        <time>2021-03-21T08:01:09.000Z</time>
      </trkpt>
      <trkpt lat="45.01631" lon="6.04115">
        <ele>1499</ele>
        <time>2021-03-21T08:01:10.000Z</time>
      </trkpt>
      <trkpt lat="45.0163" lon="6.04116">
        <ele>1499.4000244141</ele>
        <time>2021-03-21T08:01:11.000Z</time>
      </trkpt>
      <trkpt lat="45.01629" lon="6.04117">
        <ele>1500.5999755859</ele>
        <time>2021-03-21T08:01:12.000Z</time>
      </trkpt>
      <trkpt lat="45.01627" lon="6.04118">
        <ele>1502</ele>
        <time>2021-03-21T08:01:13.000Z</time>
      </trkpt>
      <trkpt lat="45.01627" lon="6.04118">
        <ele>1502.4000244141</ele>
        <time>2021-03-21T08:01:14.000Z</time>
      </trkpt>
      <trkpt lat="45.01626" lon="6.04119">
        <ele>1503.1999511719</ele>
        <time>2021-03-21T08:01:15.000Z</time>
      </trkpt>
      <trkpt lat="45.01626" lon="6.0412">
        <ele>1503.4000244141</ele>
        <time>2021-03-21T08:01:16.000Z</time>
      </trkpt>
      <trkpt lat="45.01626" lon="6.04121">
        <ele>1503.8000488281</ele>
        <time>2021-03-21T08:01:17.000Z</time>
      </trkpt>
      <trkpt lat="45.01625" lon="6.04122">
        <ele>1504</ele>
        <time>2021-03-21T08:01:18.000Z</time>
      </trkpt>
      <trkpt lat="45.01625" lon="6.04124">
        <ele>1504.1999511719</ele>
        <time>2021-03-21T08:01:19.000Z</time>
      </trkpt>
      <trkpt lat="45.01625" lon="6.04125">
        <ele>1504.4000244141</ele>
        <time>2021-03-21T08:01:20.000Z</time>
      </trkpt>
      <trkpt lat="45.01624" lon="6.04126">
        <ele>1504.8000488281</ele>
        <time>2021-03-21T08:01:21.000Z</time>
      </trkpt>
      <trkpt lat="45.01624" lon="6.04127">
        <ele>1505.1999511719</ele>
        <time>2021-03-21T08:01:22.000Z</time>
      </trkpt>
      <trkpt lat="45.01624" lon="6.04128">
        <ele>1505.1999511719</ele>
        <time>2021-03-21T08:01:23.000Z</time>
      </trkpt>
      <trkpt lat="45.01623" lon="6.04129">
        <ele>1505.5999755859</ele>
        <time>2021-03-21T08:01:24.000Z</time>
      </trkpt>
      <trkpt lat="45.01623" lon="6.0413">
        <ele>1505.8000488281</ele>
        <time>2021-03-21T08:01:25.000Z</time>
      </trkpt>
      <trkpt lat="45.01622" lon="6.0413">
        <ele>1506.4000244141</ele>
        <time>2021-03-21T08:01:26.000Z</time>
      </trkpt>
      <trkpt lat="45.01621" lon="6.04132">
        <ele>1507</ele>
        <time>2021-03-21T08:01:27.000Z</time>
      </trkpt>
      <trkpt lat="45.01621" lon="6.04133">
        <ele>1507.1999511719</ele>
        <time>2021-03-21T08:01:28.000Z</time>
      </trkpt>
      <trkpt lat="45.0162" lon="6.04133">
        <ele>1507.5999755859</ele>
        <time>2021-03-21T08:01:29.000Z</time>
      </trkpt>
      <trkpt lat="45.0162" lon="6.04134">
        <ele>1508</ele>
        <time>2021-03-21T08:01:30.000Z</time>
      </trkpt>
      <trkpt lat="45.01619" lon="6.04135">
        <ele>1508.4000244141</ele>
        <time>2021-03-21T08:01:31.000Z</time>
      </trkpt>
      <trkpt lat="45.01619" lon="6.04136">
        <ele>1508.5999755859</ele>
        <time>2021-03-21T08:01:32.000Z</time>
      </trkpt>
      <trkpt lat="45.01618" lon="6.04137">
        <ele>1509.4000244141</ele>
        <time>2021-03-21T08:01:33.000Z</time>
      </trkpt>
      <trkpt lat="45.01617" lon="6.04138">
        <ele>1510</ele>
        <time>2021-03-21T08:01:34.000Z</time>
      </trkpt>
      <trkpt lat="45.01617" lon="6.04138">
        <ele>1510.1999511719</ele>
        <time>2021-03-21T08:01:35.000Z</time>
      </trkpt>
      <trkpt lat="45.01616" lon="6.04139">
        <ele>1510.8000488281</ele>
        <time>2021-03-21T08:01:36.000Z</time>
      </trkpt>
      <trkpt lat="45.01615" lon="6.04139">
        <ele>1511.1999511719</ele>
        <time>2021-03-21T08:01:37.000Z</time>
      </trkpt>
      <trkpt lat="45.01615" lon="6.0414">
        <ele>1511.4000244141</ele>
        <time>2021-03-21T08:01:38.000Z</time>
      </trkpt>
      <trkpt lat="45.01614" lon="6.0414">
        <ele>1512.1999511719</ele>
        <time>2021-03-21T08:01:39.000Z</time>
      </trkpt>
      <trkpt lat="45.01613" lon="6.0414">
        <ele>1512.8000488281</ele>
        <time>2021-03-21T08:01:40.000Z</time>
      </trkpt>
      <trkpt lat="45.01612" lon="6.0414">
        <ele>1513.1999511719</ele>
        <time>2021-03-21T08:01:41.000Z</time>
      </trkpt>
      <trkpt lat="45.01612" lon="6.04141">
        <ele>1513.4000244141</ele>
        <time>2021-03-21T08:01:42.000Z</time>
      </trkpt>
      <trkpt lat="45.01611" lon="6.04141">
        <ele>1513.5999755859</ele>
        <time>2021-03-21T08:01:43.000Z</time>
      </trkpt>
      <trkpt lat="45.0161" lon="6.04141">
        <ele>1514</ele>
        <time>2021-03-21T08:01:44.000Z</time>
      </trkpt>
      <trkpt lat="45.01609" lon="6.04142">
        <ele>1514.1999511719</ele>
        <time>2021-03-21T08:01:45.000Z</time>
      </trkpt>
      <trkpt lat="45.01609" lon="6.04142">
        <ele>1514.4000244141</ele>
        <time>2021-03-21T08:01:46.000Z</time>
      </trkpt>
      <trkpt lat="45.01608" lon="6.04142">
        <ele>1514.5999755859</ele>
        <time>2021-03-21T08:01:47.000Z</time>
      </trkpt>
      <trkpt lat="45.01608" lon="6.04143">
        <ele>1514.8000488281</ele>
        <time>2021-03-21T08:01:48.000Z</time>
      </trkpt>
      <trkpt lat="45.01607" lon="6.04144">
        <ele>1515</ele>
        <time>2021-03-21T08:01:49.000Z</time>
      </trkpt>
      <trkpt lat="45.01607" lon="6.04144">
        <ele>1515.1999511719</ele>
        <time>2021-03-21T08:01:50.000Z</time>
      </trkpt>
      <trkpt lat="45.01607" lon="6.04145">
        <ele>1515.1999511719</ele>
        <time>2021-03-21T08:01:51.000Z</time>
      </trkpt>
      <trkpt lat="45.01606" lon="6.04145">
        <ele>1515.1999511719</ele>
        <time>2021-03-21T08:01:52.000Z</time>
      </trkpt>
      <trkpt lat="45.01606" lon="6.04146">
        <ele>1515.1999511719</ele>
        <time>2021-03-21T08:01:53.000Z</time>
      </trkpt>
      <trkpt lat="45.01606" lon="6.04146">
        <ele>1515.1999511719</ele>
        <time>2021-03-21T08:01:54.000Z</time>
      </trkpt>
      <trkpt lat="45.01606" lon="6.04147">
        <ele>1515.1999511719</ele>
        <time>2021-03-21T08:01:55.000Z</time>
      </trkpt>
      <trkpt lat="45.01606" lon="6.04148">
        <ele>1515.1999511719</ele>
        <time>2021-03-21T08:01:56.000Z</time>
      </trkpt>
      <trkpt lat="45.01605" lon="6.04149">
        <ele>1515.4000244141</ele>
        <time>2021-03-21T08:01:57.000Z</time>
      </trkpt>
      <trkpt lat="45.01604" lon="6.04149">
        <ele>1515.5999755859</ele>
        <time>2021-03-21T08:01:58.000Z</time>
      </trkpt>
      <trkpt lat="45.01603" lon="6.0415">
        <ele>1516</ele>
        <time>2021-03-21T08:01:59.000Z</time>
      </trkpt>
      <trkpt lat="45.01603" lon="6.04151">
        <ele>1516</ele>
        <time>2021-03-21T08:02:00.000Z</time>
      </trkpt>
      <trkpt lat="45.01602" lon="6.04152">
        <ele>1516.4000244141</ele>
        <time>2021-03-21T08:02:01.000Z</time>
      </trkpt>
      <trkpt lat="45.01601" lon="6.04152">
        <ele>1516.5999755859</ele>
        <time>2021-03-21T08:02:02.000Z</time>
      </trkpt>
      <trkpt lat="45.016" lon="6.04154">
        <ele>1516.8000488281</ele>
        <time>2021-03-21T08:02:03.000Z</time>
      </trkpt>
      <trkpt lat="45.01599" lon="6.04155">
        <ele>1517.1999511719</ele>
        <time>2021-03-21T08:02:04.000Z</time>
      </trkpt>
      <trkpt lat="45.01599" lon="6.04156">
        <ele>1517.1999511719</ele>
        <time>2021-03-21T08:02:05.000Z</time>
      </trkpt>
      <trkpt lat="45.01597" lon="6.04157">
        <ele>1517.4000244141</ele>
        <time>2021-03-21T08:02:06.000Z</time>
      </trkpt>
      <trkpt lat="45.01597" lon="6.04158">
        <ele>1517.1999511719</ele>
        <time>2021-03-21T08:02:07.000Z</time>
      </trkpt>
      <trkpt lat="45.01596" lon="6.0416">
        <ele>1517.1999511719</ele>
        <time>2021-03-21T08:02:08.000Z</time>
      </trkpt>
      <trkpt lat="45.01595" lon="6.0416">
        <ele>1517.1999511719</ele>
        <time>2021-03-21T08:02:09.000Z</time>
      </trkpt>
      <trkpt lat="45.01595" lon="6.04162">
        <ele>1517</ele>
        <time>2021-03-21T08:02:10.000Z</time>
      </trkpt>
      <trkpt lat="45.01594" lon="6.04163">
        <ele>1517</ele>
        <time>2021-03-21T08:02:11.000Z</time>
      </trkpt>
      <trkpt lat="45.01593" lon="6.04164">
        <ele>1516.8000488281</ele>
        <time>2021-03-21T08:02:12.000Z</time>
      </trkpt>
      <trkpt lat="45.01593" lon="6.04165">
        <ele>1516.5999755859</ele>
        <time>2021-03-21T08:02:13.000Z</time>
      </trkpt>
      <trkpt lat="45.01592" lon="6.04166">
        <ele>1516.5999755859</ele>
        <time>2021-03-21T08:02:14.000Z</time>
      </trkpt>
      <trkpt lat="45.01591" lon="6.04167">
        <ele>1516.5999755859</ele>
        <time>2021-03-21T08:02:15.000Z</time>
      </trkpt>
      <trkpt lat="45.0159" lon="6.04167">
        <ele>1516.8000488281</ele>
        <time>2021-03-21T08:02:16.000Z</time>
      </trkpt>
      <trkpt lat="45.01589" lon="6.04168">
        <ele>1516.8000488281</ele>
        <time>2021-03-21T08:02:17.000Z</time>
      </trkpt>
      <trkpt lat="45.01588" lon="6.04169">
        <ele>1517</ele>
        <time>2021-03-21T08:02:18.000Z</time>
      </trkpt>
      <trkpt lat="45.01588" lon="6.04169">
        <ele>1517</ele>
        <time>2021-03-21T08:02:19.000Z</time>
      </trkpt>
      <trkpt lat="45.01586" lon="6.04169">
        <ele>1517.1999511719</ele>
        <time>2021-03-21T08:02:20.000Z</time>
      </trkpt>
      <trkpt lat="45.01585" lon="6.04169">
        <ele>1517.4000244141</ele>
        <time>2021-03-21T08:02:21.000Z</time>
      </trkpt>
      <trkpt lat="45.01584" lon="6.04169">
        <ele>1517.5999755859</ele>
        <time>2021-03-21T08:02:22.000Z</time>
      </trkpt>
      <trkpt lat="45.01583" lon="6.04169">
        <ele>1517.8000488281</ele>
        <time>2021-03-21T08:02:23.000Z</time>
      </trkpt>
      <trkpt lat="45.01582" lon="6.04168">
        <ele>1518.1999511719</ele>
        <time>2021-03-21T08:02:24.000Z</time>
      </trkpt>
      <trkpt lat="45.01582" lon="6.04168">
        <ele>1518.4000244141</ele>
        <time>2021-03-21T08:02:25.000Z</time>
      </trkpt>
      <trkpt lat="45.01581" lon="6.04168">
        <ele>1518.5999755859</ele>
        <time>2021-03-21T08:02:26.000Z</time>
      </trkpt>
      <trkpt lat="45.01581" lon="6.04168">
        <ele>1518.5999755859</ele>
        <time>2021-03-21T08:02:27.000Z</time>
      </trkpt>
      <trkpt lat="45.0158" lon="6.04168">
        <ele>1519</ele>
        <time>2021-03-21T08:02:28.000Z</time>
      </trkpt>
      <trkpt lat="45.01579" lon="6.04168">
        <ele>1519</ele>
        <time>2021-03-21T08:02:29.000Z</time>
      </trkpt>
      <trkpt lat="45.01578" lon="6.04168">
        <ele>1519.4000244141</ele>
        <time>2021-03-21T08:02:30.000Z</time>
      </trkpt>
      <trkpt lat="45.01577" lon="6.04167">
        <ele>1519.5999755859</ele>
        <time>2021-03-21T08:02:31.000Z</time>
      </trkpt>
      <trkpt lat="45.01576" lon="6.04167">
        <ele>1520</ele>
        <time>2021-03-21T08:02:32.000Z</time>
      </trkpt>
      <trkpt lat="45.01575" lon="6.04167">
        <ele>1520</ele>
        <time>2021-03-21T08:02:33.000Z</time>
      </trkpt>
      <trkpt lat="45.01574" lon="6.04167">
        <ele>1520.1999511719</ele>
        <time>2021-03-21T08:02:34.000Z</time>
      </trkpt>
      <trkpt lat="45.01573" lon="6.04166">
        <ele>1520.5999755859</ele>
        <time>2021-03-21T08:02:35.000Z</time>
      </trkpt>
      <trkpt lat="45.01573" lon="6.04166">
        <ele>1520.8000488281</ele>
        <time>2021-03-21T08:02:36.000Z</time>
      </trkpt>
      <trkpt lat="45.01572" lon="6.04166">
        <ele>1521</ele>
        <time>2021-03-21T08:02:37.000Z</time>
      </trkpt>
      <trkpt lat="45.01571" lon="6.04165">
        <ele>1521.4000244141</ele>
        <time>2021-03-21T08:02:38.000Z</time>
      </trkpt>
      <trkpt lat="45.01569" lon="6.04165">
        <ele>1521.5999755859</ele>
        <time>2021-03-21T08:02:39.000Z</time>
      </trkpt>
      <trkpt lat="45.01568" lon="6.04164">
        <ele>1521.5999755859</ele>
        <time>2021-03-21T08:02:40.000Z</time>
      </trkpt>
      <trkpt lat="45.01567" lon="6.04164">
        <ele>1521.5999755859</ele>
        <time>2021-03-21T08:02:41.000Z</time>
      </trkpt>
      <trkpt lat="45.01566" lon="6.04163">
        <ele>1521.5999755859</ele>
        <time>2021-03-21T08:02:42.000Z</time>
      </trkpt>
      <trkpt lat="45.01565" lon="6.04163">
        <ele>1521.4000244141</ele>
        <time>2021-03-21T08:02:43.000Z</time>
      </trkpt>
      <trkpt lat="45.01564" lon="6.04163">
        <ele>1521.4000244141</ele>
        <time>2021-03-21T08:02:44.000Z</time>
      </trkpt>
      <trkpt lat="45.01563" lon="6.04163">
        <ele>1521.4000244141</ele>
        <time>2021-03-21T08:02:45.000Z</time>
      </trkpt>
      <trkpt lat="45.01561" lon="6.04162">
        <ele>1521.1999511719</ele>
        <time>2021-03-21T08:02:46.000Z</time>
      </trkpt>
      <trkpt lat="45.0156" lon="6.04163">
        <ele>1521.1999511719</ele>
        <time>2021-03-21T08:02:47.000Z</time>
      </trkpt>
      <trkpt lat="45.01559" lon="6.04162">
        <ele>1521</ele>
        <time>2021-03-21T08:02:48.000Z</time>
      </trkpt>
      <trkpt lat="45.01558" lon="6.04162">
        <ele>1521</ele>
        <time>2021-03-21T08:02:49.000Z</time>
      </trkpt>
      <trkpt lat="45.01556" lon="6.04162">
        <ele>1520.8000488281</ele>
        <time>2021-03-21T08:02:50.000Z</time>
      </trkpt>
      <trkpt lat="45.01555" lon="6.04161">
        <ele>1520.8000488281</ele>
        <time>2021-03-21T08:02:51.000Z</time>
      </trkpt>
      <trkpt lat="45.01554" lon="6.04161">
        <ele>1520.8000488281</ele>
        <time>2021-03-21T08:02:52.000Z</time>
      </trkpt>
      <trkpt lat="45.01553" lon="6.04161">
        <ele>1520.5999755859</ele>
        <time>2021-03-21T08:02:53.000Z</time>
      </trkpt>
      <trkpt lat="45.01551" lon="6.0416">
        <ele>1520.8000488281</ele>
        <time>2021-03-21T08:02:54.000Z</time>
      </trkpt>
      <trkpt lat="45.0155" lon="6.04159">
        <ele>1520.8000488281</ele>
        <time>2021-03-21T08:02:55.000Z</time>
      </trkpt>
      <trkpt lat="45.01549" lon="6.04159">
        <ele>1520.5999755859</ele>
        <time>2021-03-21T08:02:56.000Z</time>
      </trkpt>
      <trkpt lat="45.01547" lon="6.04158">
        <ele>1520.5999755859</ele>
        <time>2021-03-21T08:02:57.000Z</time>
      </trkpt>
      <trkpt lat="45.01546" lon="6.04157">
        <ele>1520.8000488281</ele>
        <time>2021-03-21T08:02:58.000Z</time>
      </trkpt>
      <trkpt lat="45.01545" lon="6.04157">
        <ele>1520.5999755859</ele>
        <time>2021-03-21T08:02:59.000Z</time>
      </trkpt>
      <trkpt lat="45.01544" lon="6.04156">
        <ele>1520.8000488281</ele>
        <time>2021-03-21T08:03:00.000Z</time>
      </trkpt>
      <trkpt lat="45.01542" lon="6.04156">
        <ele>1520.8000488281</ele>
        <time>2021-03-21T08:03:01.000Z</time>
      </trkpt>
      <trkpt lat="45.01541" lon="6.04156">
        <ele>1520.5999755859</ele>
        <time>2021-03-21T08:03:02.000Z</time>
      </trkpt>
      <trkpt lat="45.0154" lon="6.04155">
        <ele>1520.5999755859</ele>
        <time>2021-03-21T08:03:03.000Z</time>
      </trkpt>
      <trkpt lat="45.01538" lon="6.04155">
        <ele>1520.4000244141</ele>
        <time>2021-03-21T08:03:04.000Z</time>
      </trkpt>
      <trkpt lat="45.01537" lon="6.04155">
        <ele>1520.4000244141</ele>
        <time>2021-03-21T08:03:05.000Z</time>
      </trkpt>
      <trkpt lat="45.01536" lon="6.04155">
        <ele>1520.1999511719</ele>
        <time>2021-03-21T08:03:06.000Z</time>
      </trkpt>
      <trkpt lat="45.01535" lon="6.04155">
        <ele>1520.1999511719</ele>
        <time>2021-03-21T08:03:07.000Z</time>
      </trkpt>
      <trkpt lat="45.01534" lon="6.04155">
        <ele>1520</ele>
        <time>2021-03-21T08:03:08.000Z</time>
      </trkpt>
      <trkpt lat="45.01532" lon="6.04154">
        <ele>1519.8000488281</ele>
        <time>2021-03-21T08:03:09.000Z</time>
      </trkpt>
      <trkpt lat="45.01531" lon="6.04154">
        <ele>1519.8000488281</ele>
        <time>2021-03-21T08:03:10.000Z</time>
      </trkpt>
      <trkpt lat="45.01531" lon="6.04155">
        <ele>1519.5999755859</ele>
        <time>2021-03-21T08:03:11.000Z</time>
      </trkpt>
      <trkpt lat="45.0153" lon="6.04154">
        <ele>1519.5999755859</ele>
        <time>2021-03-21T08:03:12.000Z</time>
      </trkpt>
      <trkpt lat="45.01529" lon="6.04155">
        <ele>1519.4000244141</ele>
        <time>2021-03-21T08:03:13.000Z</time>
      </trkpt>
      <trkpt lat="45.01528" lon="6.04155">
        <ele>1519.4000244141</ele>
        <time>2021-03-21T08:03:14.000Z</time>
      </trkpt>
      <trkpt lat="45.01526" lon="6.04155">
        <ele>1519.1999511719</ele>
        <time>2021-03-21T08:03:15.000Z</time>
      </trkpt>
      <trkpt lat="45.01525" lon="6.04154">
        <ele>1519</ele>
        <time>2021-03-21T08:03:16.000Z</time>
      </trkpt>
      <trkpt lat="45.01524" lon="6.04154">
        <ele>1519</ele>
        <time>2021-03-21T08:03:17.000Z</time>
      </trkpt>
      <trkpt lat="45.01523" lon="6.04154">
        <ele>1518.8000488281</ele>
        <time>2021-03-21T08:03:18.000Z</time>
      </trkpt>
      <trkpt lat="45.01522" lon="6.04154">
        <ele>1518.8000488281</ele>
        <time>2021-03-21T08:03:19.000Z</time>
      </trkpt>
      <trkpt lat="45.0152" lon="6.04154">
        <ele>1518.5999755859</ele>
        <time>2021-03-21T08:03:20.000Z</time>
      </trkpt>
      <trkpt lat="45.01519" lon="6.04154">
        <ele>1518.5999755859</ele>
        <time>2021-03-21T08:03:21.000Z</time>
      </trkpt>
      <trkpt lat="45.01518" lon="6.04154">
        <ele>1518.4000244141</ele>
        <time>2021-03-21T08:03:22.000Z</time>
      </trkpt>
      <trkpt lat="45.01517" lon="6.04153">
        <ele>1518.1999511719</ele>
        <time>2021-03-21T08:03:23.000Z</time>
      </trkpt>
      <trkpt lat="45.01516" lon="6.04153">
        <ele>1518.1999511719</ele>
        <time>2021-03-21T08:03:24.000Z</time>
      </trkpt>
      <trkpt lat="45.01515" lon="6.04154">
        <ele>1518</ele>
        <time>2021-03-21T08:03:25.000Z</time>
      </trkpt>
      <trkpt lat="45.01514" lon="6.04154">
        <ele>1518</ele>
        <time>2021-03-21T08:03:26.000Z</time>
      </trkpt>
      <trkpt lat="45.01513" lon="6.04154">
        <ele>1518</ele>
        <time>2021-03-21T08:03:27.000Z</time>
      </trkpt>
      <trkpt lat="45.01511" lon="6.04155">
        <ele>1518</ele>
        <time>2021-03-21T08:03:28.000Z</time>
      </trkpt>
      <trkpt lat="45.0151" lon="6.04155">
        <ele>1518</ele>
        <time>2021-03-21T08:03:29.000Z</time>
      </trkpt>
      <trkpt lat="45.01509" lon="6.04155">
        <ele>1518</ele>
        <time>2021-03-21T08:03:30.000Z</time>
      </trkpt>
      <trkpt lat="45.01507" lon="6.04155">
        <ele>1518</ele>
        <time>2021-03-21T08:03:31.000Z</time>
      </trkpt>
      <trkpt lat="45.01506" lon="6.04156">
        <ele>1518</ele>
        <time>2021-03-21T08:03:32.000Z</time>
      </trkpt>
      <trkpt lat="45.01505" lon="6.04156">
        <ele>1518</ele>
        <time>2021-03-21T08:03:33.000Z</time>
      </trkpt>
      <trkpt lat="45.01504" lon="6.04156">
        <ele>1518</ele>
        <time>2021-03-21T08:03:34.000Z</time>
      </trkpt>
      <trkpt lat="45.01503" lon="6.04157">
        <ele>1518</ele>
        <time>2021-03-21T08:03:35.000Z</time>
      </trkpt>
      <trkpt lat="45.01502" lon="6.04157">
        <ele>1517.8000488281</ele>
        <time>2021-03-21T08:03:36.000Z</time>
      </trkpt>
      <trkpt lat="45.015" lon="6.04157">
        <ele>1517.8000488281</ele>
        <time>2021-03-21T08:03:37.000Z</time>
      </trkpt>
      <trkpt lat="45.01499" lon="6.04157">
        <ele>1517.8000488281</ele>
        <time>2021-03-21T08:03:38.000Z</time>
      </trkpt>
      <trkpt lat="45.01498" lon="6.04157">
        <ele>1517.8000488281</ele>
        <time>2021-03-21T08:03:39.000Z</time>
      </trkpt>
      <trkpt lat="45.01497" lon="6.04157">
        <ele>1518</ele>
        <time>2021-03-21T08:03:40.000Z</time>
      </trkpt>
      <trkpt lat="45.01496" lon="6.04157">
        <ele>1517.8000488281</ele>
        <time>2021-03-21T08:03:41.000Z</time>
      </trkpt>
      <trkpt lat="45.01495" lon="6.04157">
        <ele>1517.8000488281</ele>
        <time>2021-03-21T08:03:42.000Z</time>
      </trkpt>
      <trkpt lat="45.01494" lon="6.04157">
        <ele>1517.8000488281</ele>
        <time>2021-03-21T08:03:43.000Z</time>
      </trkpt>
      <trkpt lat="45.01492" lon="6.04157">
        <ele>1517.8000488281</ele>
        <time>2021-03-21T08:03:44.000Z</time>
      </trkpt>
      <trkpt lat="45.01491" lon="6.04157">
        <ele>1517.8000488281</ele>
        <time>2021-03-21T08:03:45.000Z</time>
      </trkpt>
      <trkpt lat="45.0149" lon="6.04158">
        <ele>1517.8000488281</ele>
        <time>2021-03-21T08:03:46.000Z</time>
      </trkpt>
      <trkpt lat="45.01488" lon="6.04158">
        <ele>1517.8000488281</ele>
        <time>2021-03-21T08:03:47.000Z</time>
      </trkpt>
      <trkpt lat="45.01486" lon="6.04159">
        <ele>1517.5999755859</ele>
        <time>2021-03-21T08:03:48.000Z</time>
      </trkpt>
      <trkpt lat="45.01486" lon="6.04159">
        <ele>1517.4000244141</ele>
        <time>2021-03-21T08:03:49.000Z</time>
      </trkpt>
      <trkpt lat="45.01484" lon="6.0416">
        <ele>1517.1999511719</ele>
        <time>2021-03-21T08:03:50.000Z</time>
      </trkpt>
      <trkpt lat="45.01484" lon="6.0416">
        <ele>1517.1999511719</ele>
        <time>2021-03-21T08:03:51.000Z</time>
      </trkpt>
      <trkpt lat="45.01483" lon="6.04161">
        <ele>1517</ele>
        <time>2021-03-21T08:03:52.000Z</time>
      </trkpt>
      <trkpt lat="45.01483" lon="6.04161">
        <ele>1517</ele>
        <time>2021-03-21T08:03:53.000Z</time>
      </trkpt>
      <trkpt lat="45.01482" lon="6.04161">
        <ele>1516.8000488281</ele>
        <time>2021-03-21T08:03:54.000Z</time>
      </trkpt>
      <trkpt lat="45.01481" lon="6.04162">
        <ele>1516.5999755859</ele>
        <time>2021-03-21T08:03:55.000Z</time>
      </trkpt>
      <trkpt lat="45.01481" lon="6.04162">
        <ele>1516.5999755859</ele>
        <time>2021-03-21T08:03:56.000Z</time>
      </trkpt>
      <trkpt lat="45.01481" lon="6.04162">
        <ele>1516.5999755859</ele>
        <time>2021-03-21T08:03:57.000Z</time>
      </trkpt>
      <trkpt lat="45.01481" lon="6.04163">
        <ele>1516.5999755859</ele>
        <time>2021-03-21T08:03:58.000Z</time>
      </trkpt>
      <trkpt lat="45.01481" lon="6.04163">
        <ele>1516.5999755859</ele>
        <time>2021-03-21T08:03:59.000Z</time>
      </trkpt>
      <trkpt lat="45.01481" lon="6.04163">
        <ele>1516.5999755859</ele>
        <time>2021-03-21T08:04:00.000Z</time>
      </trkpt>
      <trkpt lat="45.01481" lon="6.04163">
        <ele>1516.5999755859</ele>
        <time>2021-03-21T08:04:01.000Z</time>
      </trkpt>
      <trkpt lat="45.01481" lon="6.04164">
        <ele>1516.5999755859</ele>
        <time>2021-03-21T08:04:02.000Z</time>
      </trkpt>
      <trkpt lat="45.01481" lon="6.04164">
        <ele>1516.5999755859</ele>
        <time>2021-03-21T08:04:03.000Z</time>
      </trkpt>
      <trkpt lat="45.01482" lon="6.04166">
        <ele>1516.4000244141</ele>
        <time>2021-03-21T08:04:04.000Z</time>
      </trkpt>
      <trkpt lat="45.01482" lon="6.04167">
        <ele>1516.4000244141</ele>
        <time>2021-03-21T08:04:05.000Z</time>
      </trkpt>
      <trkpt lat="45.01483" lon="6.04169">
        <ele>1516.4000244141</ele>
        <time>2021-03-21T08:04:06.000Z</time>
      </trkpt>
      <trkpt lat="45.01483" lon="6.04171">
        <ele>1516.1999511719</ele>
        <time>2021-03-21T08:04:07.000Z</time>
      </trkpt>
      <trkpt lat="45.01482" lon="6.04172">
        <ele>1516.1999511719</ele>
        <time>2021-03-21T08:04:08.000Z</time>
      </trkpt>
      <trkpt lat="45.01482" lon="6.04172">
        <ele>1516</ele>
        <time>2021-03-21T08:04:09.000Z</time>
      </trkpt>
      <trkpt lat="45.01481" lon="6.04172">
        <ele>1516</ele>
        <time>2021-03-21T08:04:10.000Z</time>
      </trkpt>
      <trkpt lat="45.0148" lon="6.04172">
        <ele>1515.8000488281</ele>
        <time>2021-03-21T08:04:11.000Z</time>
      </trkpt>
      <trkpt lat="45.01478" lon="6.0417">
        <ele>1515.5999755859</ele>
        <time>2021-03-21T08:04:12.000Z</time>
      </trkpt>
      <trkpt lat="45.01477" lon="6.04169">
        <ele>1515.4000244141</ele>
        <time>2021-03-21T08:04:13.000Z</time>
      </trkpt>
      <trkpt lat="45.01475" lon="6.04168">
        <ele>1515.4000244141</ele>
        <time>2021-03-21T08:04:14.000Z</time>
      </trkpt>
      <trkpt lat="45.01474" lon="6.04167">
        <ele>1515.1999511719</ele>
        <time>2021-03-21T08:04:15.000Z</time>
      </trkpt>
      <trkpt lat="45.01473" lon="6.04166">
        <ele>1515.1999511719</ele>
        <time>2021-03-21T08:04:16.000Z</time>
      </trkpt>
      <trkpt lat="45.01472" lon="6.04165">
        <ele>1515.1999511719</ele>
        <time>2021-03-21T08:04:17.000Z</time>
      </trkpt>
      <trkpt lat="45.01471" lon="6.04164">
        <ele>1515</ele>
        <time>2021-03-21T08:04:18.000Z</time>
      </trkpt>
      <trkpt lat="45.0147" lon="6.04163">
        <ele>1515</ele>
        <time>2021-03-21T08:04:19.000Z</time>
      </trkpt>
      <trkpt lat="45.01469" lon="6.04162">
        <ele>1515</ele>
        <time>2021-03-21T08:04:20.000Z</time>
      </trkpt>
      <trkpt lat="45.01468" lon="6.0416">
        <ele>1515</ele>
        <time>2021-03-21T08:04:21.000Z</time>
      </trkpt>
      <trkpt lat="45.01467" lon="6.04159">
        <ele>1514.8000488281</ele>
        <time>2021-03-21T08:04:22.000Z</time>
      </trkpt>
      <trkpt lat="45.01466" lon="6.04158">
        <ele>1514.8000488281</ele>
        <time>2021-03-21T08:04:23.000Z</time>
      </trkpt>
      <trkpt lat="45.01465" lon="6.04157">
        <ele>1514.5999755859</ele>
        <time>2021-03-21T08:04:24.000Z</time>
      </trkpt>
      <trkpt lat="45.01464" lon="6.04156">
        <ele>1514.5999755859</ele>
        <time>2021-03-21T08:04:25.000Z</time>
      </trkpt>
      <trkpt lat="45.01463" lon="6.04156">
        <ele>1514.4000244141</ele>
        <time>2021-03-21T08:04:26.000Z</time>
      </trkpt>
      <trkpt lat="45.01462" lon="6.04155">
        <ele>1514.4000244141</ele>
        <time>2021-03-21T08:04:27.000Z</time>
      </trkpt>
      <trkpt lat="45.01461" lon="6.04155">
        <ele>1514.4000244141</ele>
        <time>2021-03-21T08:04:28.000Z</time>
      </trkpt>
      <trkpt lat="45.01461" lon="6.04155">
        <ele>1514.1999511719</ele>
        <time>2021-03-21T08:04:29.000Z</time>
      </trkpt>
      <trkpt lat="45.01461" lon="6.04155">
        <ele>1514.1999511719</ele>
        <time>2021-03-21T08:04:30.000Z</time>
      </trkpt>
      <trkpt lat="45.01461" lon="6.04155">
        <ele>1514.1999511719</ele>
        <time>2021-03-21T08:04:31.000Z</time>
      </trkpt>
      <trkpt lat="45.01461" lon="6.04155">
        <ele>1514.1999511719</ele>
        <time>2021-03-21T08:04:32.000Z</time>
      </trkpt>
      <trkpt lat="45.01461" lon="6.04155">
        <ele>1514.1999511719</ele>
        <time>2021-03-21T08:04:33.000Z</time>
      </trkpt>
      <trkpt lat="45.01461" lon="6.04155">
        <ele>1514.4000244141</ele>
        <time>2021-03-21T08:04:34.000Z</time>
      </trkpt>
      <trkpt lat="45.01462" lon="6.04155">
        <ele>1514.4000244141</ele>
        <time>2021-03-21T08:04:35.000Z</time>
      </trkpt>
      <trkpt lat="45.01461" lon="6.04154">
        <ele>1514.4000244141</ele>
        <time>2021-03-21T08:04:36.000Z</time>
      </trkpt>
      <trkpt lat="45.01461" lon="6.04154">
        <ele>1514.4000244141</ele>
        <time>2021-03-21T08:04:37.000Z</time>
      </trkpt>
      <trkpt lat="45.01461" lon="6.04153">
        <ele>1514.4000244141</ele>
        <time>2021-03-21T08:04:38.000Z</time>
      </trkpt>
      <trkpt lat="45.0146" lon="6.04152">
        <ele>1514.5999755859</ele>
        <time>2021-03-21T08:04:39.000Z</time>
      </trkpt>
      <trkpt lat="45.01459" lon="6.04151">
        <ele>1514.8000488281</ele>
        <time>2021-03-21T08:04:40.000Z</time>
      </trkpt>
      <trkpt lat="45.01459" lon="6.04149">
        <ele>1515</ele>
        <time>2021-03-21T08:04:41.000Z</time>
      </trkpt>
      <trkpt lat="45.01458" lon="6.04148">
        <ele>1515.4000244141</ele>
        <time>2021-03-21T08:04:42.000Z</time>
      </trkpt>
      <trkpt lat="45.01457" lon="6.04147">
        <ele>1515.4000244141</ele>
        <time>2021-03-21T08:04:43.000Z</time>
      </trkpt>
      <trkpt lat="45.01456" lon="6.04145">
        <ele>1515.8000488281</ele>
        <time>2021-03-21T08:04:44.000Z</time>
      </trkpt>
      <trkpt lat="45.01456" lon="6.04143">
        <ele>1516</ele>
        <time>2021-03-21T08:04:45.000Z</time>
      </trkpt>
      <trkpt lat="45.01455" lon="6.04142">
        <ele>1516.1999511719</ele>
        <time>2021-03-21T08:04:46.000Z</time>
      </trkpt>
      <trkpt lat="45.01454" lon="6.0414">
        <ele>1516.4000244141</ele>
        <time>2021-03-21T08:04:47.000Z</time>
      </trkpt>
      <trkpt lat="45.01453" lon="6.0414">
        <ele>1516.4000244141</ele>
        <time>2021-03-21T08:04:48.000Z</time>
      </trkpt>
      <trkpt lat="45.01452" lon="6.04139">
        <ele>1516.4000244141</ele>
        <time>2021-03-21T08:04:49.000Z</time>
      </trkpt>
      <trkpt lat="45.01451" lon="6.04138">
        <ele>1516.4000244141</ele>
        <time>2021-03-21T08:04:50.000Z</time>
      </trkpt>
      <trkpt lat="45.0145" lon="6.04137">
        <ele>1516.5999755859</ele>
        <time>2021-03-21T08:04:51.000Z</time>
      </trkpt>
      <trkpt lat="45.0145" lon="6.04136">
        <ele>1516.5999755859</ele>
        <time>2021-03-21T08:04:52.000Z</time>
      </trkpt>
      <trkpt lat="45.01449" lon="6.04135">
        <ele>1516.5999755859</ele>
        <time>2021-03-21T08:04:53.000Z</time>
      </trkpt>
      <trkpt lat="45.01448" lon="6.04134">
        <ele>1516.5999755859</ele>
        <time>2021-03-21T08:04:54.000Z</time>
      </trkpt>
      <trkpt lat="45.01447" lon="6.04135">
        <ele>1516.4000244141</ele>
        <time>2021-03-21T08:04:55.000Z</time>
      </trkpt>
      <trkpt lat="45.01447" lon="6.04134">
        <ele>1516.4000244141</ele>
        <time>2021-03-21T08:04:56.000Z</time>
      </trkpt>
      <trkpt lat="45.01446" lon="6.04133">
        <ele>1516.4000244141</ele>
        <time>2021-03-21T08:04:57.000Z</time>
      </trkpt>
      <trkpt lat="45.01445" lon="6.04132">
        <ele>1516.4000244141</ele>
        <time>2021-03-21T08:04:58.000Z</time>
      </trkpt>
      <trkpt lat="45.01444" lon="6.04132">
        <ele>1516.4000244141</ele>
        <time>2021-03-21T08:04:59.000Z</time>
      </trkpt>
      <trkpt lat="45.01443" lon="6.04131">
        <ele>1516.4000244141</ele>
        <time>2021-03-21T08:05:00.000Z</time>
      </trkpt>
      <trkpt lat="45.01443" lon="6.0413">
        <ele>1516.5999755859</ele>
        <time>2021-03-21T08:05:01.000Z</time>
      </trkpt>
      <trkpt lat="45.01443" lon="6.0413">
        <ele>1516.5999755859</ele>
        <time>2021-03-21T08:05:02.000Z</time>
      </trkpt>
      <trkpt lat="45.01443" lon="6.04129">
        <ele>1516.8000488281</ele>
        <time>2021-03-21T08:05:03.000Z</time>
      </trkpt>
      <trkpt lat="45.01443" lon="6.0413">
        <ele>1516.5999755859</ele>
        <time>2021-03-21T08:05:04.000Z</time>
      </trkpt>
      <trkpt lat="45.01443" lon="6.0413">
        <ele>1516.8000488281</ele>
        <time>2021-03-21T08:05:05.000Z</time>
      </trkpt>
      <trkpt lat="45.01443" lon="6.0413">
        <ele>1516.5999755859</ele>
        <time>2021-03-21T08:05:06.000Z</time>
      </trkpt>
      <trkpt lat="45.01443" lon="6.0413">
        <ele>1516.5999755859</ele>
        <time>2021-03-21T08:05:07.000Z</time>
      </trkpt>
      <trkpt lat="45.01443" lon="6.0413">
        <ele>1516.5999755859</ele>
        <time>2021-03-21T08:05:08.000Z</time>
      </trkpt>
      <trkpt lat="45.01443" lon="6.0413">
        <ele>1516.5999755859</ele>
        <time>2021-03-21T08:05:09.000Z</time>
      </trkpt>
      <trkpt lat="45.01443" lon="6.04131">
        <ele>1516.5999755859</ele>
        <time>2021-03-21T08:05:10.000Z</time>
      </trkpt>
      <trkpt lat="45.01443" lon="6.04131">
        <ele>1516.5999755859</ele>
        <time>2021-03-21T08:05:11.000Z</time>
      </trkpt>
      <trkpt lat="45.01443" lon="6.04131">
        <ele>1516.5999755859</ele>
        <time>2021-03-21T08:05:12.000Z</time>
      </trkpt>
      <trkpt lat="45.01443" lon="6.04131">
        <ele>1516.5999755859</ele>
        <time>2021-03-21T08:05:13.000Z</time>
      </trkpt>
      <trkpt lat="45.01444" lon="6.0413">
        <ele>1516.5999755859</ele>
        <time>2021-03-21T08:05:14.000Z</time>
      </trkpt>
      <trkpt lat="45.01444" lon="6.0413">
        <ele>1516.8000488281</ele>
        <time>2021-03-21T08:05:15.000Z</time>
      </trkpt>
      <trkpt lat="45.01444" lon="6.0413">
        <ele>1516.8000488281</ele>
        <time>2021-03-21T08:05:16.000Z</time>
      </trkpt>
      <trkpt lat="45.01444" lon="6.0413">
        <ele>1516.8000488281</ele>
        <time>2021-03-21T08:05:17.000Z</time>
      </trkpt>
      <trkpt lat="45.01443" lon="6.0413">
        <ele>1516.8000488281</ele>
        <time>2021-03-21T08:05:18.000Z</time>
      </trkpt>
      <trkpt lat="45.01443" lon="6.0413">
        <ele>1516.8000488281</ele>
        <time>2021-03-21T08:05:19.000Z</time>
      </trkpt>
      <trkpt lat="45.01444" lon="6.0413">
        <ele>1516.8000488281</ele>
        <time>2021-03-21T08:05:20.000Z</time>
      </trkpt>
      <trkpt lat="45.01444" lon="6.0413">
        <ele>1516.8000488281</ele>
        <time>2021-03-21T08:05:21.000Z</time>
      </trkpt>
      <trkpt lat="45.01444" lon="6.0413">
        <ele>1516.8000488281</ele>
        <time>2021-03-21T08:05:22.000Z</time>
      </trkpt>
      <trkpt lat="45.01444" lon="6.04131">
        <ele>1516.5999755859</ele>
        <time>2021-03-21T08:05:23.000Z</time>
      </trkpt>
      <trkpt lat="45.01444" lon="6.04131">
        <ele>1516.5999755859</ele>
        <time>2021-03-21T08:05:24.000Z</time>
      </trkpt>
      <trkpt lat="45.01444" lon="6.04132">
        <ele>1516.4000244141</ele>
        <time>2021-03-21T08:05:25.000Z</time>
      </trkpt>
      <trkpt lat="45.01444" lon="6.04132">
        <ele>1516.4000244141</ele>
        <time>2021-03-21T08:05:26.000Z</time>
      </trkpt>
      <trkpt lat="45.01445" lon="6.04132">
        <ele>1516.5999755859</ele>
        <time>2021-03-21T08:05:27.000Z</time>
      </trkpt>
      <trkpt lat="45.01445" lon="6.04132">
        <ele>1516.5999755859</ele>
        <time>2021-03-21T08:05:28.000Z</time>
      </trkpt>
      <trkpt lat="45.01446" lon="6.04132">
        <ele>1516.8000488281</ele>
        <time>2021-03-21T08:05:29.000Z</time>
      </trkpt>
      <trkpt lat="45.01446" lon="6.04132">
        <ele>1516.5999755859</ele>
        <time>2021-03-21T08:05:30.000Z</time>
      </trkpt>
      <trkpt lat="45.01446" lon="6.04133">
        <ele>1516.8000488281</ele>
        <time>2021-03-21T08:05:31.000Z</time>
      </trkpt>
      <trkpt lat="45.01447" lon="6.04133">
        <ele>1516.8000488281</ele>
        <time>2021-03-21T08:05:32.000Z</time>
      </trkpt>
      <trkpt lat="45.01448" lon="6.04133">
        <ele>1516.8000488281</ele>
        <time>2021-03-21T08:05:33.000Z</time>
      </trkpt>
      <trkpt lat="45.01449" lon="6.04134">
        <ele>1517</ele>
        <time>2021-03-21T08:05:34.000Z</time>
      </trkpt>
      <trkpt lat="45.0145" lon="6.04135">
        <ele>1517</ele>
        <time>2021-03-21T08:05:35.000Z</time>
      </trkpt>
      <trkpt lat="45.0145" lon="6.04135">
        <ele>1516.8000488281</ele>
        <time>2021-03-21T08:05:36.000Z</time>
      </trkpt>
      <trkpt lat="45.01451" lon="6.04137">
        <ele>1516.4000244141</ele>
        <time>2021-03-21T08:05:37.000Z</time>
      </trkpt>
      <trkpt lat="45.01451" lon="6.04141">
        <ele>1515.5999755859</ele>
        <time>2021-03-21T08:05:38.000Z</time>
      </trkpt>
      <trkpt lat="45.01452" lon="6.04144">
        <ele>1515</ele>
        <time>2021-03-21T08:05:39.000Z</time>
      </trkpt>
      <trkpt lat="45.01452" lon="6.04147">
        <ele>1514.1999511719</ele>
        <time>2021-03-21T08:05:40.000Z</time>
      </trkpt>
      <trkpt lat="45.01452" lon="6.04151">
        <ele>1512.8000488281</ele>
        <time>2021-03-21T08:05:41.000Z</time>
      </trkpt>
      <trkpt lat="45.01453" lon="6.04154">
        <ele>1511.8000488281</ele>
        <time>2021-03-21T08:05:42.000Z</time>
      </trkpt>
      <trkpt lat="45.01453" lon="6.04155">
        <ele>1511.5999755859</ele>
        <time>2021-03-21T08:05:43.000Z</time>
      </trkpt>
      <trkpt lat="45.01452" lon="6.04158">
        <ele>1511</ele>
        <time>2021-03-21T08:05:44.000Z</time>
      </trkpt>
      <trkpt lat="45.0145" lon="6.0416">
        <ele>1509.5999755859</ele>
        <time>2021-03-21T08:05:45.000Z</time>
      </trkpt>
      <trkpt lat="45.01448" lon="6.04161">
        <ele>1508.8000488281</ele>
        <time>2021-03-21T08:05:46.000Z</time>
      </trkpt>
      <trkpt lat="45.01446" lon="6.0416">
        <ele>1508.4000244141</ele>
        <time>2021-03-21T08:05:47.000Z</time>
      </trkpt>
      <trkpt lat="45.01445" lon="6.04159">
        <ele>1508</ele>
        <time>2021-03-21T08:05:48.000Z</time>
      </trkpt>
      <trkpt lat="45.01444" lon="6.04158">
        <ele>1507.8000488281</ele>
        <time>2021-03-21T08:05:49.000Z</time>
      </trkpt>
      <trkpt lat="45.01442" lon="6.04157">
        <ele>1507.5999755859</ele>
        <time>2021-03-21T08:05:50.000Z</time>
      </trkpt>
      <trkpt lat="45.01441" lon="6.04156">
        <ele>1507.1999511719</ele>
        <time>2021-03-21T08:05:51.000Z</time>
      </trkpt>
      <trkpt lat="45.0144" lon="6.04155">
        <ele>1507</ele>
        <time>2021-03-21T08:05:52.000Z</time>
      </trkpt>
      <trkpt lat="45.01439" lon="6.04154">
        <ele>1506.8000488281</ele>
        <time>2021-03-21T08:05:53.000Z</time>
      </trkpt>
      <trkpt lat="45.01438" lon="6.04153">
        <ele>1507</ele>
        <time>2021-03-21T08:05:54.000Z</time>
      </trkpt>
      <trkpt lat="45.01438" lon="6.04152">
        <ele>1507</ele>
        <time>2021-03-21T08:05:55.000Z</time>
      </trkpt>
      <trkpt lat="45.01437" lon="6.04152">
        <ele>1507</ele>
        <time>2021-03-21T08:05:56.000Z</time>
      </trkpt>
      <trkpt lat="45.01437" lon="6.04152">
        <ele>1507</ele>
        <time>2021-03-21T08:05:57.000Z</time>
      </trkpt>
      <trkpt lat="45.01436" lon="6.04152">
        <ele>1507</ele>
        <time>2021-03-21T08:05:58.000Z</time>
      </trkpt>
      <trkpt lat="45.01436" lon="6.04151">
        <ele>1507</ele>
        <time>2021-03-21T08:05:59.000Z</time>
      </trkpt>
      <trkpt lat="45.01436" lon="6.04151">
        <ele>1507</ele>
        <time>2021-03-21T08:06:00.000Z</time>
      </trkpt>
      <trkpt lat="45.01435" lon="6.0415">
        <ele>1507</ele>
        <time>2021-03-21T08:06:01.000Z</time>
      </trkpt>
      <trkpt lat="45.01435" lon="6.0415">
        <ele>1507</ele>
        <time>2021-03-21T08:06:02.000Z</time>
      </trkpt>
      <trkpt lat="45.01435" lon="6.0415">
        <ele>1507</ele>
        <time>2021-03-21T08:06:03.000Z</time>
      </trkpt>
      <trkpt lat="45.01435" lon="6.0415">
        <ele>1507</ele>
        <time>2021-03-21T08:06:04.000Z</time>
      </trkpt>
      <trkpt lat="45.01436" lon="6.0415">
        <ele>1507.1999511719</ele>
        <time>2021-03-21T08:06:05.000Z</time>
      </trkpt>
      <trkpt lat="45.01435" lon="6.0415">
        <ele>1507.1999511719</ele>
        <time>2021-03-21T08:06:06.000Z</time>
      </trkpt>
      <trkpt lat="45.01435" lon="6.0415">
        <ele>1507.1999511719</ele>
        <time>2021-03-21T08:06:07.000Z</time>
      </trkpt>
      <trkpt lat="45.01435" lon="6.0415">
        <ele>1507.1999511719</ele>
        <time>2021-03-21T08:06:08.000Z</time>
      </trkpt>
      <trkpt lat="45.01435" lon="6.0415">
        <ele>1507.1999511719</ele>
        <time>2021-03-21T08:06:09.000Z</time>
      </trkpt>
      <trkpt lat="45.01435" lon="6.0415">
        <ele>1507</ele>
        <time>2021-03-21T08:06:10.000Z</time>
      </trkpt>
      <trkpt lat="45.01435" lon="6.0415">
        <ele>1507</ele>
        <time>2021-03-21T08:06:11.000Z</time>
      </trkpt>
      <trkpt lat="45.01435" lon="6.0415">
        <ele>1507.1999511719</ele>
        <time>2021-03-21T08:06:12.000Z</time>
      </trkpt>
      <trkpt lat="45.01435" lon="6.0415">
        <ele>1507</ele>
        <time>2021-03-21T08:06:13.000Z</time>
      </trkpt>
      <trkpt lat="45.01435" lon="6.0415">
        <ele>1507</ele>
        <time>2021-03-21T08:06:14.000Z</time>
      </trkpt>
      <trkpt lat="45.01435" lon="6.0415">
        <ele>1507</ele>
        <time>2021-03-21T08:06:15.000Z</time>
      </trkpt>
      <trkpt lat="45.01435" lon="6.04148">
        <ele>1507.5999755859</ele>
        <time>2021-03-21T08:06:16.000Z</time>
      </trkpt>
      <trkpt lat="45.01434" lon="6.04148">
        <ele>1507.4000244141</ele>
        <time>2021-03-21T08:06:17.000Z</time>
      </trkpt>
      <trkpt lat="45.01433" lon="6.04148">
        <ele>1507.1999511719</ele>
        <time>2021-03-21T08:06:18.000Z</time>
      </trkpt>
      <trkpt lat="45.01433" lon="6.04148">
        <ele>1507</ele>
        <time>2021-03-21T08:06:19.000Z</time>
      </trkpt>
      <trkpt lat="45.01433" lon="6.04148">
        <ele>1507.1999511719</ele>
        <time>2021-03-21T08:06:20.000Z</time>
      </trkpt>
      <trkpt lat="45.01433" lon="6.04148">
        <ele>1507</ele>
        <time>2021-03-21T08:06:21.000Z</time>
      </trkpt>
      <trkpt lat="45.01432" lon="6.04147">
        <ele>1507.1999511719</ele>
        <time>2021-03-21T08:06:22.000Z</time>
      </trkpt>
      <trkpt lat="45.01432" lon="6.04147">
        <ele>1507.1999511719</ele>
        <time>2021-03-21T08:06:23.000Z</time>
      </trkpt>
      <trkpt lat="45.01432" lon="6.04147">
        <ele>1507.1999511719</ele>
        <time>2021-03-21T08:06:24.000Z</time>
      </trkpt>
      <trkpt lat="45.01431" lon="6.04146">
        <ele>1507</ele>
        <time>2021-03-21T08:06:25.000Z</time>
      </trkpt>
      <trkpt lat="45.01431" lon="6.04146">
        <ele>1507</ele>
        <time>2021-03-21T08:06:26.000Z</time>
      </trkpt>
      <trkpt lat="45.0143" lon="6.04145">
        <ele>1507.1999511719</ele>
        <time>2021-03-21T08:06:27.000Z</time>
      </trkpt>
      <trkpt lat="45.0143" lon="6.04145">
        <ele>1507.4000244141</ele>
        <time>2021-03-21T08:06:28.000Z</time>
      </trkpt>
      <trkpt lat="45.0143" lon="6.04145">
        <ele>1507.4000244141</ele>
        <time>2021-03-21T08:06:29.000Z</time>
      </trkpt>
      <trkpt lat="45.01429" lon="6.04145">
        <ele>1507.1999511719</ele>
        <time>2021-03-21T08:06:30.000Z</time>
      </trkpt>
      <trkpt lat="45.01428" lon="6.04146">
        <ele>1506.5999755859</ele>
        <time>2021-03-21T08:06:31.000Z</time>
      </trkpt>
      <trkpt lat="45.01428" lon="6.04147">
        <ele>1506.1999511719</ele>
        <time>2021-03-21T08:06:32.000Z</time>
      </trkpt>
      <trkpt lat="45.01427" lon="6.04148">
        <ele>1505.5999755859</ele>
        <time>2021-03-21T08:06:33.000Z</time>
      </trkpt>
      <trkpt lat="45.01427" lon="6.04149">
        <ele>1505</ele>
        <time>2021-03-21T08:06:34.000Z</time>
      </trkpt>
      <trkpt lat="45.01427" lon="6.04149">
        <ele>1504.8000488281</ele>
        <time>2021-03-21T08:06:35.000Z</time>
      </trkpt>
      <trkpt lat="45.01427" lon="6.04149">
        <ele>1505</ele>
        <time>2021-03-21T08:06:36.000Z</time>
      </trkpt>
      <trkpt lat="45.01427" lon="6.0415">
        <ele>1504.8000488281</ele>
        <time>2021-03-21T08:06:37.000Z</time>
      </trkpt>
      <trkpt lat="45.01427" lon="6.0415">
        <ele>1504.8000488281</ele>
        <time>2021-03-21T08:06:38.000Z</time>
      </trkpt>
      <trkpt lat="45.01428" lon="6.04151">
        <ele>1504.5999755859</ele>
        <time>2021-03-21T08:06:39.000Z</time>
      </trkpt>
      <trkpt lat="45.01429" lon="6.04152">
        <ele>1504.4000244141</ele>
        <time>2021-03-21T08:06:40.000Z</time>
      </trkpt>
      <trkpt lat="45.0143" lon="6.04152">
        <ele>1504.4000244141</ele>
        <time>2021-03-21T08:06:41.000Z</time>
      </trkpt>
      <trkpt lat="45.0143" lon="6.04152">
        <ele>1504.4000244141</ele>
        <time>2021-03-21T08:06:42.000Z</time>
      </trkpt>
      <trkpt lat="45.01431" lon="6.04154">
        <ele>1504</ele>
        <time>2021-03-21T08:06:43.000Z</time>
      </trkpt>
      <trkpt lat="45.01432" lon="6.04155">
        <ele>1504</ele>
        <time>2021-03-21T08:06:44.000Z</time>
      </trkpt>
      <trkpt lat="45.01432" lon="6.04156">
        <ele>1504.1999511719</ele>
        <time>2021-03-21T08:06:45.000Z</time>
      </trkpt>
      <trkpt lat="45.01433" lon="6.04157">
        <ele>1504.1999511719</ele>
        <time>2021-03-21T08:06:46.000Z</time>
      </trkpt>
      <trkpt lat="45.01434" lon="6.04158">
        <ele>1504.1999511719</ele>
        <time>2021-03-21T08:06:47.000Z</time>
      </trkpt>
      <trkpt lat="45.01434" lon="6.04159">
        <ele>1504.4000244141</ele>
        <time>2021-03-21T08:06:48.000Z</time>
      </trkpt>
      <trkpt lat="45.01435" lon="6.04159">
        <ele>1504.4000244141</ele>
        <time>2021-03-21T08:06:49.000Z</time>
      </trkpt>
      <trkpt lat="45.01435" lon="6.04159">
        <ele>1504.4000244141</ele>
        <time>2021-03-21T08:06:50.000Z</time>
      </trkpt>
      <trkpt lat="45.01435" lon="6.0416">
        <ele>1504.4000244141</ele>
        <time>2021-03-21T08:06:51.000Z</time>
      </trkpt>
      <trkpt lat="45.01435" lon="6.0416">
        <ele>1504.4000244141</ele>
        <time>2021-03-21T08:06:52.000Z</time>
      </trkpt>
      <trkpt lat="45.01435" lon="6.0416">
        <ele>1504.5999755859</ele>
        <time>2021-03-21T08:06:53.000Z</time>
      </trkpt>
      <trkpt lat="45.01435" lon="6.0416">
        <ele>1504.5999755859</ele>
        <time>2021-03-21T08:06:54.000Z</time>
      </trkpt>
      <trkpt lat="45.01436" lon="6.04161">
        <ele>1504.5999755859</ele>
        <time>2021-03-21T08:06:55.000Z</time>
      </trkpt>
      <trkpt lat="45.01436" lon="6.04161">
        <ele>1504.5999755859</ele>
        <time>2021-03-21T08:06:56.000Z</time>
      </trkpt>
      <trkpt lat="45.01436" lon="6.04162">
        <ele>1504.5999755859</ele>
        <time>2021-03-21T08:06:57.000Z</time>
      </trkpt>
      <trkpt lat="45.01436" lon="6.04162">
        <ele>1504.5999755859</ele>
        <time>2021-03-21T08:06:58.000Z</time>
      </trkpt>
      <trkpt lat="45.01436" lon="6.04163">
        <ele>1504.5999755859</ele>
        <time>2021-03-21T08:06:59.000Z</time>
      </trkpt>
      <trkpt lat="45.01436" lon="6.04164">
        <ele>1504.4000244141</ele>
        <time>2021-03-21T08:07:00.000Z</time>
      </trkpt>
      <trkpt lat="45.01436" lon="6.04164">
        <ele>1504.4000244141</ele>
        <time>2021-03-21T08:07:01.000Z</time>
      </trkpt>
      <trkpt lat="45.01437" lon="6.04165">
        <ele>1504.5999755859</ele>
        <time>2021-03-21T08:07:02.000Z</time>
      </trkpt>
      <trkpt lat="45.01437" lon="6.04165">
        <ele>1504.4000244141</ele>
        <time>2021-03-21T08:07:03.000Z</time>
      </trkpt>
      <trkpt lat="45.01436" lon="6.04166">
        <ele>1504.4000244141</ele>
        <time>2021-03-21T08:07:04.000Z</time>
      </trkpt>
      <trkpt lat="45.01436" lon="6.04166">
        <ele>1504.1999511719</ele>
        <time>2021-03-21T08:07:05.000Z</time>
      </trkpt>
      <trkpt lat="45.01435" lon="6.04166">
        <ele>1503.8000488281</ele>
        <time>2021-03-21T08:07:06.000Z</time>
      </trkpt>
      <trkpt lat="45.01434" lon="6.04166">
        <ele>1503.5999755859</ele>
        <time>2021-03-21T08:07:07.000Z</time>
      </trkpt>
      <trkpt lat="45.01434" lon="6.04165">
        <ele>1503.5999755859</ele>
        <time>2021-03-21T08:07:08.000Z</time>
      </trkpt>
      <trkpt lat="45.01432" lon="6.04165">
        <ele>1503.1999511719</ele>
        <time>2021-03-21T08:07:09.000Z</time>
      </trkpt>
      <trkpt lat="45.01431" lon="6.04164">
        <ele>1503</ele>
        <time>2021-03-21T08:07:10.000Z</time>
      </trkpt>
      <trkpt lat="45.0143" lon="6.04164">
        <ele>1502.8000488281</ele>
        <time>2021-03-21T08:07:11.000Z</time>
      </trkpt>
      <trkpt lat="45.01429" lon="6.04163">
        <ele>1502.5999755859</ele>
        <time>2021-03-21T08:07:12.000Z</time>
      </trkpt>
      <trkpt lat="45.01428" lon="6.04163">
        <ele>1502.4000244141</ele>
        <time>2021-03-21T08:07:13.000Z</time>
      </trkpt>
      <trkpt lat="45.01426" lon="6.04162">
        <ele>1502</ele>
        <time>2021-03-21T08:07:14.000Z</time>
      </trkpt>
      <trkpt lat="45.01425" lon="6.04162">
        <ele>1501.8000488281</ele>
        <time>2021-03-21T08:07:15.000Z</time>
      </trkpt>
      <trkpt lat="45.01423" lon="6.0416">
        <ele>1501.5999755859</ele>
        <time>2021-03-21T08:07:16.000Z</time>
      </trkpt>
      <trkpt lat="45.01422" lon="6.04159">
        <ele>1501.4000244141</ele>
        <time>2021-03-21T08:07:17.000Z</time>
      </trkpt>
      <trkpt lat="45.0142" lon="6.04157">
        <ele>1501.1999511719</ele>
        <time>2021-03-21T08:07:18.000Z</time>
      </trkpt>
      <trkpt lat="45.01417" lon="6.04156">
        <ele>1500.8000488281</ele>
        <time>2021-03-21T08:07:19.000Z</time>
      </trkpt>
      <trkpt lat="45.01415" lon="6.04155">
        <ele>1500.5999755859</ele>
        <time>2021-03-21T08:07:20.000Z</time>
      </trkpt>
      <trkpt lat="45.01413" lon="6.04154">
        <ele>1500.1999511719</ele>
        <time>2021-03-21T08:07:21.000Z</time>
      </trkpt>
      <trkpt lat="45.01411" lon="6.04154">
        <ele>1500</ele>
        <time>2021-03-21T08:07:22.000Z</time>
      </trkpt>
      <trkpt lat="45.0141" lon="6.04153">
        <ele>1499.8000488281</ele>
        <time>2021-03-21T08:07:23.000Z</time>
      </trkpt>
      <trkpt lat="45.01408" lon="6.04152">
        <ele>1499.8000488281</ele>
        <time>2021-03-21T08:07:24.000Z</time>
      </trkpt>
      <trkpt lat="45.01407" lon="6.04152">
        <ele>1499.5999755859</ele>
        <time>2021-03-21T08:07:25.000Z</time>
      </trkpt>
      <trkpt lat="45.01405" lon="6.04152">
        <ele>1499.4000244141</ele>
        <time>2021-03-21T08:07:26.000Z</time>
      </trkpt>
      <trkpt lat="45.01404" lon="6.04151">
        <ele>1499.4000244141</ele>
        <time>2021-03-21T08:07:27.000Z</time>
      </trkpt>
      <trkpt lat="45.01402" lon="6.04149">
        <ele>1499.1999511719</ele>
        <time>2021-03-21T08:07:28.000Z</time>
      </trkpt>
      <trkpt lat="45.014" lon="6.04148">
        <ele>1499</ele>
        <time>2021-03-21T08:07:29.000Z</time>
      </trkpt>
      <trkpt lat="45.01398" lon="6.04147">
        <ele>1498.8000488281</ele>
        <time>2021-03-21T08:07:30.000Z</time>
      </trkpt>
      <trkpt lat="45.01396" lon="6.04146">
        <ele>1498.4000244141</ele>
        <time>2021-03-21T08:07:31.000Z</time>
      </trkpt>
      <trkpt lat="45.01394" lon="6.04144">
        <ele>1498.1999511719</ele>
        <time>2021-03-21T08:07:32.000Z</time>
      </trkpt>
      <trkpt lat="45.01392" lon="6.04143">
        <ele>1498</ele>
        <time>2021-03-21T08:07:33.000Z</time>
      </trkpt>
      <trkpt lat="45.0139" lon="6.04142">
        <ele>1497.8000488281</ele>
        <time>2021-03-21T08:07:34.000Z</time>
      </trkpt>
      <trkpt lat="45.01389" lon="6.0414">
        <ele>1497.5999755859</ele>
        <time>2021-03-21T08:07:35.000Z</time>
      </trkpt>
      <trkpt lat="45.01387" lon="6.04139">
        <ele>1497.4000244141</ele>
        <time>2021-03-21T08:07:36.000Z</time>
      </trkpt>
      <trkpt lat="45.01386" lon="6.04138">
        <ele>1497.1999511719</ele>
        <time>2021-03-21T08:07:37.000Z</time>
      </trkpt>
      <trkpt lat="45.01384" lon="6.04137">
        <ele>1496.8000488281</ele>
        <time>2021-03-21T08:07:38.000Z</time>
      </trkpt>
      <trkpt lat="45.01382" lon="6.04136">
        <ele>1496.4000244141</ele>
        <time>2021-03-21T08:07:39.000Z</time>
      </trkpt>
      <trkpt lat="45.0138" lon="6.04135">
        <ele>1496</ele>
        <time>2021-03-21T08:07:40.000Z</time>
      </trkpt>
      <trkpt lat="45.01378" lon="6.04133">
        <ele>1495.8000488281</ele>
        <time>2021-03-21T08:07:41.000Z</time>
      </trkpt>
      <trkpt lat="45.01376" lon="6.04131">
        <ele>1495.5999755859</ele>
        <time>2021-03-21T08:07:42.000Z</time>
      </trkpt>
      <trkpt lat="45.01374" lon="6.0413">
        <ele>1495.4000244141</ele>
        <time>2021-03-21T08:07:43.000Z</time>
      </trkpt>
      <trkpt lat="45.01372" lon="6.04129">
        <ele>1495</ele>
        <time>2021-03-21T08:07:44.000Z</time>
      </trkpt>
      <trkpt lat="45.0137" lon="6.04128">
        <ele>1494.4000244141</ele>
        <time>2021-03-21T08:07:45.000Z</time>
      </trkpt>
      <trkpt lat="45.01369" lon="6.04127">
        <ele>1494.1999511719</ele>
        <time>2021-03-21T08:07:46.000Z</time>
      </trkpt>
      <trkpt lat="45.01367" lon="6.04126">
        <ele>1493.8000488281</ele>
        <time>2021-03-21T08:07:47.000Z</time>
      </trkpt>
      <trkpt lat="45.01365" lon="6.04125">
        <ele>1493.1999511719</ele>
        <time>2021-03-21T08:07:48.000Z</time>
      </trkpt>
      <trkpt lat="45.01363" lon="6.04125">
        <ele>1492.5999755859</ele>
        <time>2021-03-21T08:07:49.000Z</time>
      </trkpt>
      <trkpt lat="45.01361" lon="6.04124">
        <ele>1491.8000488281</ele>
        <time>2021-03-21T08:07:50.000Z</time>
      </trkpt>
      <trkpt lat="45.01359" lon="6.04122">
        <ele>1491.1999511719</ele>
        <time>2021-03-21T08:07:51.000Z</time>
      </trkpt>
      <trkpt lat="45.01357" lon="6.04121">
        <ele>1490.8000488281</ele>
        <time>2021-03-21T08:07:52.000Z</time>
      </trkpt>
      <trkpt lat="45.01356" lon="6.04119">
        <ele>1491</ele>
        <time>2021-03-21T08:07:53.000Z</time>
      </trkpt>
      <trkpt lat="45.01355" lon="6.04118">
        <ele>1490.8000488281</ele>
        <time>2021-03-21T08:07:54.000Z</time>
      </trkpt>
      <trkpt lat="45.01354" lon="6.04116">
        <ele>1490.8000488281</ele>
        <time>2021-03-21T08:07:55.000Z</time>
      </trkpt>
      <trkpt lat="45.01353" lon="6.04114">
        <ele>1491</ele>
        <time>2021-03-21T08:07:56.000Z</time>
      </trkpt>
      <trkpt lat="45.01351" lon="6.04112">
        <ele>1490.8000488281</ele>
        <time>2021-03-21T08:07:57.000Z</time>
      </trkpt>
      <trkpt lat="45.0135" lon="6.0411">
        <ele>1490.5999755859</ele>
        <time>2021-03-21T08:07:58.000Z</time>
      </trkpt>
      <trkpt lat="45.01348" lon="6.04108">
        <ele>1490.5999755859</ele>
        <time>2021-03-21T08:07:59.000Z</time>
      </trkpt>
      <trkpt lat="45.01347" lon="6.04105">
        <ele>1490.5999755859</ele>
        <time>2021-03-21T08:08:00.000Z</time>
      </trkpt>
      <trkpt lat="45.01345" lon="6.04104">
        <ele>1490.4000244141</ele>
        <time>2021-03-21T08:08:01.000Z</time>
      </trkpt>
      <trkpt lat="45.01344" lon="6.04101">
        <ele>1490.5999755859</ele>
        <time>2021-03-21T08:08:02.000Z</time>
      </trkpt>
      <trkpt lat="45.01343" lon="6.041">
        <ele>1490.5999755859</ele>
        <time>2021-03-21T08:08:03.000Z</time>
      </trkpt>
      <trkpt lat="45.01342" lon="6.04098">
        <ele>1490.8000488281</ele>
        <time>2021-03-21T08:08:04.000Z</time>
      </trkpt>
      <trkpt lat="45.01342" lon="6.04097">
        <ele>1490.8000488281</ele>
        <time>2021-03-21T08:08:05.000Z</time>
      </trkpt>
      <trkpt lat="45.01341" lon="6.04095">
        <ele>1490.8000488281</ele>
        <time>2021-03-21T08:08:06.000Z</time>
      </trkpt>
      <trkpt lat="45.01341" lon="6.04092">
        <ele>1491.1999511719</ele>
        <time>2021-03-21T08:08:07.000Z</time>
      </trkpt>
      <trkpt lat="45.0134" lon="6.0409">
        <ele>1491.5999755859</ele>
        <time>2021-03-21T08:08:08.000Z</time>
      </trkpt>
      <trkpt lat="45.0134" lon="6.04088">
        <ele>1492.1999511719</ele>
        <time>2021-03-21T08:08:09.000Z</time>
      </trkpt>
      <trkpt lat="45.01339" lon="6.04086">
        <ele>1492.5999755859</ele>
        <time>2021-03-21T08:08:10.000Z</time>
      </trkpt>
      <trkpt lat="45.01339" lon="6.04084">
        <ele>1493</ele>
        <time>2021-03-21T08:08:11.000Z</time>
      </trkpt>
      <trkpt lat="45.01338" lon="6.04081">
        <ele>1493.5999755859</ele>
        <time>2021-03-21T08:08:12.000Z</time>
      </trkpt>
      <trkpt lat="45.01337" lon="6.0408">
        <ele>1493.8000488281</ele>
        <time>2021-03-21T08:08:13.000Z</time>
      </trkpt>
      <trkpt lat="45.01337" lon="6.04079">
        <ele>1494</ele>
        <time>2021-03-21T08:08:14.000Z</time>
      </trkpt>
      <trkpt lat="45.01337" lon="6.04077">
        <ele>1494.1999511719</ele>
        <time>2021-03-21T08:08:15.000Z</time>
      </trkpt>
      <trkpt lat="45.01336" lon="6.04076">
        <ele>1494.4000244141</ele>
        <time>2021-03-21T08:08:16.000Z</time>
      </trkpt>
      <trkpt lat="45.01336" lon="6.04076">
        <ele>1494.4000244141</ele>
        <time>2021-03-21T08:08:17.000Z</time>
      </trkpt>
      <trkpt lat="45.01336" lon="6.04075">
        <ele>1494.4000244141</ele>
        <time>2021-03-21T08:08:18.000Z</time>
      </trkpt>
      <trkpt lat="45.01335" lon="6.04075">
        <ele>1494.4000244141</ele>
        <time>2021-03-21T08:08:19.000Z</time>
      </trkpt>
      <trkpt lat="45.01335" lon="6.04074">
        <ele>1494.4000244141</ele>
        <time>2021-03-21T08:08:20.000Z</time>
      </trkpt>
      <trkpt lat="45.01335" lon="6.04074">
        <ele>1494.4000244141</ele>
        <time>2021-03-21T08:08:21.000Z</time>
      </trkpt>
      <trkpt lat="45.01334" lon="6.04073">
        <ele>1494.5999755859</ele>
        <time>2021-03-21T08:08:22.000Z</time>
      </trkpt>
      <trkpt lat="45.01334" lon="6.04072">
        <ele>1494.5999755859</ele>
        <time>2021-03-21T08:08:23.000Z</time>
      </trkpt>
      <trkpt lat="45.01334" lon="6.04071">
        <ele>1494.8000488281</ele>
        <time>2021-03-21T08:08:24.000Z</time>
      </trkpt>
      <trkpt lat="45.01334" lon="6.04071">
        <ele>1494.8000488281</ele>
        <time>2021-03-21T08:08:25.000Z</time>
      </trkpt>
      <trkpt lat="45.01334" lon="6.04071">
        <ele>1494.5999755859</ele>
        <time>2021-03-21T08:08:26.000Z</time>
      </trkpt>
      <trkpt lat="45.01333" lon="6.04071">
        <ele>1494.4000244141</ele>
        <time>2021-03-21T08:08:27.000Z</time>
      </trkpt>
      <trkpt lat="45.01333" lon="6.04071">
        <ele>1494.4000244141</ele>
        <time>2021-03-21T08:08:28.000Z</time>
      </trkpt>
      <trkpt lat="45.01333" lon="6.04072">
        <ele>1494.1999511719</ele>
        <time>2021-03-21T08:08:29.000Z</time>
      </trkpt>
      <trkpt lat="45.01333" lon="6.04072">
        <ele>1494.1999511719</ele>
        <time>2021-03-21T08:08:30.000Z</time>
      </trkpt>
      <trkpt lat="45.01333" lon="6.04072">
        <ele>1494.4000244141</ele>
        <time>2021-03-21T08:08:31.000Z</time>
      </trkpt>
      <trkpt lat="45.01333" lon="6.04072">
        <ele>1494.4000244141</ele>
        <time>2021-03-21T08:08:32.000Z</time>
      </trkpt>
      <trkpt lat="45.01333" lon="6.04071">
        <ele>1494.4000244141</ele>
        <time>2021-03-21T08:08:33.000Z</time>
      </trkpt>
      <trkpt lat="45.01332" lon="6.0407">
        <ele>1494.4000244141</ele>
        <time>2021-03-21T08:08:34.000Z</time>
      </trkpt>
      <trkpt lat="45.01332" lon="6.04069">
        <ele>1495.1999511719</ele>
        <time>2021-03-21T08:08:35.000Z</time>
      </trkpt>
      <trkpt lat="45.01332" lon="6.04069">
        <ele>1496</ele>
        <time>2021-03-21T08:08:36.000Z</time>
      </trkpt>
      <trkpt lat="45.01331" lon="6.04069">
        <ele>1495.5999755859</ele>
        <time>2021-03-21T08:08:37.000Z</time>
      </trkpt>
      <trkpt lat="45.01332" lon="6.04068">
        <ele>1496.4000244141</ele>
        <time>2021-03-21T08:08:38.000Z</time>
      </trkpt>
      <trkpt lat="45.01331" lon="6.04068">
        <ele>1496.4000244141</ele>
        <time>2021-03-21T08:08:39.000Z</time>
      </trkpt>
      <trkpt lat="45.01331" lon="6.04068">
        <ele>1496.8000488281</ele>
        <time>2021-03-21T08:08:40.000Z</time>
      </trkpt>
      <trkpt lat="45.01331" lon="6.04067">
        <ele>1496.8000488281</ele>
        <time>2021-03-21T08:08:41.000Z</time>
      </trkpt>
      <trkpt lat="45.0133" lon="6.04067">
        <ele>1496.8000488281</ele>
        <time>2021-03-21T08:08:42.000Z</time>
      </trkpt>
      <trkpt lat="45.0133" lon="6.04066">
        <ele>1497.5999755859</ele>
        <time>2021-03-21T08:08:43.000Z</time>
      </trkpt>
      <trkpt lat="45.0133" lon="6.04066">
        <ele>1497.5999755859</ele>
        <time>2021-03-21T08:08:44.000Z</time>
      </trkpt>
      <trkpt lat="45.0133" lon="6.04065">
        <ele>1498.4000244141</ele>
        <time>2021-03-21T08:08:45.000Z</time>
      </trkpt>
      <trkpt lat="45.01329" lon="6.04065">
        <ele>1499</ele>
        <time>2021-03-21T08:08:46.000Z</time>
      </trkpt>
      <trkpt lat="45.01329" lon="6.04064">
        <ele>1499.8000488281</ele>
        <time>2021-03-21T08:08:47.000Z</time>
      </trkpt>
      <trkpt lat="45.01329" lon="6.04063">
        <ele>1500</ele>
        <time>2021-03-21T08:08:48.000Z</time>
      </trkpt>
      <trkpt lat="45.01329" lon="6.04063">
        <ele>1500.4000244141</ele>
        <time>2021-03-21T08:08:49.000Z</time>
      </trkpt>
      <trkpt lat="45.01329" lon="6.04064">
        <ele>1500</ele>
        <time>2021-03-21T08:08:50.000Z</time>
      </trkpt>
      <trkpt lat="45.01329" lon="6.04063">
        <ele>1500.4000244141</ele>
        <time>2021-03-21T08:08:51.000Z</time>
      </trkpt>
      <trkpt lat="45.01329" lon="6.04062">
        <ele>1501.4000244141</ele>
        <time>2021-03-21T08:08:52.000Z</time>
      </trkpt>
      <trkpt lat="45.0133" lon="6.04062">
        <ele>1501.8000488281</ele>
        <time>2021-03-21T08:08:53.000Z</time>
      </trkpt>
      <trkpt lat="45.0133" lon="6.04062">
        <ele>1502.1999511719</ele>
        <time>2021-03-21T08:08:54.000Z</time>
      </trkpt>
      <trkpt lat="45.0133" lon="6.04061">
        <ele>1502.5999755859</ele>
        <time>2021-03-21T08:08:55.000Z</time>
      </trkpt>
      <trkpt lat="45.0133" lon="6.04061">
        <ele>1503</ele>
        <time>2021-03-21T08:08:56.000Z</time>
      </trkpt>
      <trkpt lat="45.01329" lon="6.04061">
        <ele>1502.8000488281</ele>
        <time>2021-03-21T08:08:57.000Z</time>
      </trkpt>
      <trkpt lat="45.01329" lon="6.04061">
        <ele>1502.8000488281</ele>
        <time>2021-03-21T08:08:58.000Z</time>
      </trkpt>
      <trkpt lat="45.01329" lon="6.04061">
        <ele>1503.1999511719</ele>
        <time>2021-03-21T08:08:59.000Z</time>
      </trkpt>
      <trkpt lat="45.01329" lon="6.04061">
        <ele>1503.1999511719</ele>
        <time>2021-03-21T08:09:00.000Z</time>
      </trkpt>
      <trkpt lat="45.01329" lon="6.0406">
        <ele>1503.4000244141</ele>
        <time>2021-03-21T08:09:01.000Z</time>
      </trkpt>
      <trkpt lat="45.01328" lon="6.0406">
        <ele>1503</ele>
        <time>2021-03-21T08:09:02.000Z</time>
      </trkpt>
      <trkpt lat="45.01328" lon="6.04061">
        <ele>1502.8000488281</ele>
        <time>2021-03-21T08:09:03.000Z</time>
      </trkpt>
      <trkpt lat="45.01328" lon="6.0406">
        <ele>1502.8000488281</ele>
        <time>2021-03-21T08:09:04.000Z</time>
      </trkpt>
      <trkpt lat="45.01328" lon="6.04061">
        <ele>1502.5999755859</ele>
        <time>2021-03-21T08:09:05.000Z</time>
      </trkpt>
      <trkpt lat="45.01328" lon="6.04061">
        <ele>1502.8000488281</ele>
        <time>2021-03-21T08:09:06.000Z</time>
      </trkpt>
      <trkpt lat="45.01329" lon="6.04061">
        <ele>1502.8000488281</ele>
        <time>2021-03-21T08:09:07.000Z</time>
      </trkpt>
      <trkpt lat="45.01329" lon="6.04061">
        <ele>1502.5999755859</ele>
        <time>2021-03-21T08:09:08.000Z</time>
      </trkpt>
      <trkpt lat="45.01329" lon="6.04061">
        <ele>1502.4000244141</ele>
        <time>2021-03-21T08:09:09.000Z</time>
      </trkpt>
      <trkpt lat="45.01329" lon="6.04061">
        <ele>1502</ele>
        <time>2021-03-21T08:09:10.000Z</time>
      </trkpt>
      <trkpt lat="45.01329" lon="6.04061">
        <ele>1502.1999511719</ele>
        <time>2021-03-21T08:09:11.000Z</time>
      </trkpt>
      <trkpt lat="45.01329" lon="6.04062">
        <ele>1502</ele>
        <time>2021-03-21T08:09:12.000Z</time>
      </trkpt>
      <trkpt lat="45.01329" lon="6.04062">
        <ele>1502</ele>
        <time>2021-03-21T08:09:13.000Z</time>
      </trkpt>
      <trkpt lat="45.01329" lon="6.04062">
        <ele>1501.5999755859</ele>
        <time>2021-03-21T08:09:14.000Z</time>
      </trkpt>
      <trkpt lat="45.01329" lon="6.04062">
        <ele>1501.5999755859</ele>
        <time>2021-03-21T08:09:15.000Z</time>
      </trkpt>
      <trkpt lat="45.01329" lon="6.04062">
        <ele>1501.5999755859</ele>
        <time>2021-03-21T08:09:16.000Z</time>
      </trkpt>
      <trkpt lat="45.01329" lon="6.04062">
        <ele>1501.5999755859</ele>
        <time>2021-03-21T08:09:17.000Z</time>
      </trkpt>
      <trkpt lat="45.01329" lon="6.04062">
        <ele>1501.4000244141</ele>
        <time>2021-03-21T08:09:18.000Z</time>
      </trkpt>
      <trkpt lat="45.01329" lon="6.04062">
        <ele>1501.1999511719</ele>
        <time>2021-03-21T08:09:19.000Z</time>
      </trkpt>
      <trkpt lat="45.01329" lon="6.04062">
        <ele>1501.1999511719</ele>
        <time>2021-03-21T08:09:20.000Z</time>
      </trkpt>
      <trkpt lat="45.01329" lon="6.04062">
        <ele>1501.4000244141</ele>
        <time>2021-03-21T08:09:21.000Z</time>
      </trkpt>
      <trkpt lat="45.01329" lon="6.04062">
        <ele>1501.1999511719</ele>
        <time>2021-03-21T08:09:22.000Z</time>
      </trkpt>
      <trkpt lat="45.01329" lon="6.04062">
        <ele>1501.4000244141</ele>
        <time>2021-03-21T08:09:23.000Z</time>
      </trkpt>
      <trkpt lat="45.01329" lon="6.04062">
        <ele>1501.5999755859</ele>
        <time>2021-03-21T08:09:24.000Z</time>
      </trkpt>
      <trkpt lat="45.01329" lon="6.04062">
        <ele>1501.8000488281</ele>
        <time>2021-03-21T08:09:25.000Z</time>
      </trkpt>
      <trkpt lat="45.01329" lon="6.04062">
        <ele>1501.5999755859</ele>
        <time>2021-03-21T08:09:26.000Z</time>
      </trkpt>
      <trkpt lat="45.01329" lon="6.04061">
        <ele>1502.1999511719</ele>
        <time>2021-03-21T08:09:27.000Z</time>
      </trkpt>
      <trkpt lat="45.01329" lon="6.04061">
        <ele>1502.4000244141</ele>
        <time>2021-03-21T08:09:28.000Z</time>
      </trkpt>
      <trkpt lat="45.01329" lon="6.04061">
        <ele>1502</ele>
        <time>2021-03-21T08:09:29.000Z</time>
      </trkpt>
      <trkpt lat="45.01328" lon="6.04061">
        <ele>1501.8000488281</ele>
        <time>2021-03-21T08:09:30.000Z</time>
      </trkpt>
      <trkpt lat="45.01328" lon="6.04062">
        <ele>1501.1999511719</ele>
        <time>2021-03-21T08:09:31.000Z</time>
      </trkpt>
      <trkpt lat="45.01328" lon="6.04062">
        <ele>1501</ele>
        <time>2021-03-21T08:09:32.000Z</time>
      </trkpt>
      <trkpt lat="45.01328" lon="6.04062">
        <ele>1501</ele>
        <time>2021-03-21T08:09:33.000Z</time>
      </trkpt>
      <trkpt lat="45.01328" lon="6.04062">
        <ele>1501</ele>
        <time>2021-03-21T08:09:34.000Z</time>
      </trkpt>
      <trkpt lat="45.01327" lon="6.04061">
        <ele>1501.4000244141</ele>
        <time>2021-03-21T08:09:35.000Z</time>
      </trkpt>
      <trkpt lat="45.01327" lon="6.04061">
        <ele>1501</ele>
        <time>2021-03-21T08:09:36.000Z</time>
      </trkpt>
      <trkpt lat="45.01327" lon="6.04062">
        <ele>1500.5999755859</ele>
        <time>2021-03-21T08:09:37.000Z</time>
      </trkpt>
      <trkpt lat="45.01327" lon="6.04062">
        <ele>1500.1999511719</ele>
        <time>2021-03-21T08:09:38.000Z</time>
      </trkpt>
      <trkpt lat="45.01326" lon="6.04062">
        <ele>1499.5999755859</ele>
        <time>2021-03-21T08:09:39.000Z</time>
      </trkpt>
      <trkpt lat="45.01326" lon="6.04062">
        <ele>1499.5999755859</ele>
        <time>2021-03-21T08:09:40.000Z</time>
      </trkpt>
      <trkpt lat="45.01327" lon="6.04062">
        <ele>1499.8000488281</ele>
        <time>2021-03-21T08:09:41.000Z</time>
      </trkpt>
      <trkpt lat="45.01326" lon="6.04063">
        <ele>1499</ele>
        <time>2021-03-21T08:09:42.000Z</time>
      </trkpt>
      <trkpt lat="45.01327" lon="6.04063">
        <ele>1499.1999511719</ele>
        <time>2021-03-21T08:09:43.000Z</time>
      </trkpt>
      <trkpt lat="45.01327" lon="6.04062">
        <ele>1499.8000488281</ele>
        <time>2021-03-21T08:09:44.000Z</time>
      </trkpt>
      <trkpt lat="45.01327" lon="6.04062">
        <ele>1499.8000488281</ele>
        <time>2021-03-21T08:09:45.000Z</time>
      </trkpt>
      <trkpt lat="45.01327" lon="6.04062">
        <ele>1500.4000244141</ele>
        <time>2021-03-21T08:09:46.000Z</time>
      </trkpt>
      <trkpt lat="45.01326" lon="6.04062">
        <ele>1499.5999755859</ele>
        <time>2021-03-21T08:09:47.000Z</time>
      </trkpt>
      <trkpt lat="45.01326" lon="6.04062">
        <ele>1499.5999755859</ele>
        <time>2021-03-21T08:09:48.000Z</time>
      </trkpt>
      <trkpt lat="45.01326" lon="6.04061">
        <ele>1500.8000488281</ele>
        <time>2021-03-21T08:09:49.000Z</time>
      </trkpt>
      <trkpt lat="45.01326" lon="6.04061">
        <ele>1500.8000488281</ele>
        <time>2021-03-21T08:09:50.000Z</time>
      </trkpt>
      <trkpt lat="45.01326" lon="6.04061">
        <ele>1500.5999755859</ele>
        <time>2021-03-21T08:09:51.000Z</time>
      </trkpt>
      <trkpt lat="45.01326" lon="6.04061">
        <ele>1500.5999755859</ele>
        <time>2021-03-21T08:09:52.000Z</time>
      </trkpt>
      <trkpt lat="45.01326" lon="6.04061">
        <ele>1500.4000244141</ele>
        <time>2021-03-21T08:09:53.000Z</time>
      </trkpt>
      <trkpt lat="45.01326" lon="6.04061">
        <ele>1500.8000488281</ele>
        <time>2021-03-21T08:09:54.000Z</time>
      </trkpt>
      <trkpt lat="45.01326" lon="6.04061">
        <ele>1500.5999755859</ele>
        <time>2021-03-21T08:09:55.000Z</time>
      </trkpt>
      <trkpt lat="45.01326" lon="6.04061">
        <ele>1501.1999511719</ele>
        <time>2021-03-21T08:09:56.000Z</time>
      </trkpt>
      <trkpt lat="45.01326" lon="6.04061">
        <ele>1501.1999511719</ele>
        <time>2021-03-21T08:09:57.000Z</time>
      </trkpt>
      <trkpt lat="45.01326" lon="6.04061">
        <ele>1500.4000244141</ele>
        <time>2021-03-21T08:09:58.000Z</time>
      </trkpt>
      <trkpt lat="45.01326" lon="6.04061">
        <ele>1500.4000244141</ele>
        <time>2021-03-21T08:09:59.000Z</time>
      </trkpt>
      <trkpt lat="45.01326" lon="6.04062">
        <ele>1500.1999511719</ele>
        <time>2021-03-21T08:10:00.000Z</time>
      </trkpt>
      <trkpt lat="45.01326" lon="6.04062">
        <ele>1500</ele>
        <time>2021-03-21T08:10:01.000Z</time>
      </trkpt>
      <trkpt lat="45.01326" lon="6.04062">
        <ele>1500</ele>
        <time>2021-03-21T08:10:02.000Z</time>
      </trkpt>
      <trkpt lat="45.01326" lon="6.04062">
        <ele>1500</ele>
        <time>2021-03-21T08:10:03.000Z</time>
      </trkpt>
      <trkpt lat="45.01326" lon="6.04062">
        <ele>1499.5999755859</ele>
        <time>2021-03-21T08:10:04.000Z</time>
      </trkpt>
      <trkpt lat="45.01326" lon="6.04062">
        <ele>1499.4000244141</ele>
        <time>2021-03-21T08:10:05.000Z</time>
      </trkpt>
      <trkpt lat="45.01326" lon="6.04062">
        <ele>1499.1999511719</ele>
        <time>2021-03-21T08:10:06.000Z</time>
      </trkpt>
      <trkpt lat="45.01326" lon="6.04063">
        <ele>1499.4000244141</ele>
        <time>2021-03-21T08:10:07.000Z</time>
      </trkpt>
      <trkpt lat="45.01326" lon="6.04062">
        <ele>1499.4000244141</ele>
        <time>2021-03-21T08:10:08.000Z</time>
      </trkpt>
      <trkpt lat="45.01326" lon="6.04062">
        <ele>1499.5999755859</ele>
        <time>2021-03-21T08:10:09.000Z</time>
      </trkpt>
      <trkpt lat="45.01326" lon="6.04062">
        <ele>1499.5999755859</ele>
        <time>2021-03-21T08:10:10.000Z</time>
      </trkpt>
      <trkpt lat="45.01326" lon="6.04062">
        <ele>1499.8000488281</ele>
        <time>2021-03-21T08:10:11.000Z</time>
      </trkpt>
      <trkpt lat="45.01326" lon="6.04062">
        <ele>1500</ele>
        <time>2021-03-21T08:10:12.000Z</time>
      </trkpt>
      <trkpt lat="45.01326" lon="6.04062">
        <ele>1500.1999511719</ele>
        <time>2021-03-21T08:10:13.000Z</time>
      </trkpt>
      <trkpt lat="45.01326" lon="6.04061">
        <ele>1500.5999755859</ele>
        <time>2021-03-21T08:10:14.000Z</time>
      </trkpt>
      <trkpt lat="45.01326" lon="6.04061">
        <ele>1501</ele>
        <time>2021-03-21T08:10:15.000Z</time>
      </trkpt>
      <trkpt lat="45.01326" lon="6.04061">
        <ele>1501.4000244141</ele>
        <time>2021-03-21T08:10:16.000Z</time>
      </trkpt>
      <trkpt lat="45.01326" lon="6.04061">
        <ele>1501.4000244141</ele>
        <time>2021-03-21T08:10:17.000Z</time>
      </trkpt>
      <trkpt lat="45.01326" lon="6.04061">
        <ele>1501.4000244141</ele>
        <time>2021-03-21T08:10:18.000Z</time>
      </trkpt>
      <trkpt lat="45.01326" lon="6.04061">
        <ele>1501.1999511719</ele>
        <time>2021-03-21T08:10:19.000Z</time>
      </trkpt>
      <trkpt lat="45.01326" lon="6.04061">
        <ele>1501</ele>
        <time>2021-03-21T08:10:20.000Z</time>
      </trkpt>
      <trkpt lat="45.01326" lon="6.04061">
        <ele>1500.8000488281</ele>
        <time>2021-03-21T08:10:21.000Z</time>
      </trkpt>
      <trkpt lat="45.01326" lon="6.04061">
        <ele>1500.5999755859</ele>
        <time>2021-03-21T08:10:22.000Z</time>
      </trkpt>
      <trkpt lat="45.01326" lon="6.04061">
        <ele>1500.5999755859</ele>
        <time>2021-03-21T08:10:23.000Z</time>
      </trkpt>
      <trkpt lat="45.01326" lon="6.04061">
        <ele>1500.5999755859</ele>
        <time>2021-03-21T08:10:24.000Z</time>
      </trkpt>
      <trkpt lat="45.01326" lon="6.04061">
        <ele>1500.1999511719</ele>
        <time>2021-03-21T08:10:25.000Z</time>
      </trkpt>
      <trkpt lat="45.01326" lon="6.04062">
        <ele>1500.4000244141</ele>
        <time>2021-03-21T08:10:26.000Z</time>
      </trkpt>
      <trkpt lat="45.01327" lon="6.04061">
        <ele>1500.5999755859</ele>
        <time>2021-03-21T08:10:27.000Z</time>
      </trkpt>
      <trkpt lat="45.01327" lon="6.04062">
        <ele>1500.5999755859</ele>
        <time>2021-03-21T08:10:28.000Z</time>
      </trkpt>
      <trkpt lat="45.01327" lon="6.04061">
        <ele>1500.8000488281</ele>
        <time>2021-03-21T08:10:29.000Z</time>
      </trkpt>
      <trkpt lat="45.01327" lon="6.04062">
        <ele>1500.5999755859</ele>
        <time>2021-03-21T08:10:30.000Z</time>
      </trkpt>
      <trkpt lat="45.01327" lon="6.04062">
        <ele>1500.4000244141</ele>
        <time>2021-03-21T08:10:31.000Z</time>
      </trkpt>
      <trkpt lat="45.01327" lon="6.04062">
        <ele>1500.1999511719</ele>
        <time>2021-03-21T08:10:32.000Z</time>
      </trkpt>
      <trkpt lat="45.01327" lon="6.04062">
        <ele>1500.1999511719</ele>
        <time>2021-03-21T08:10:33.000Z</time>
      </trkpt>
      <trkpt lat="45.01327" lon="6.04062">
        <ele>1500.1999511719</ele>
        <time>2021-03-21T08:10:34.000Z</time>
      </trkpt>
      <trkpt lat="45.01327" lon="6.04062">
        <ele>1500</ele>
        <time>2021-03-21T08:10:35.000Z</time>
      </trkpt>
      <trkpt lat="45.01327" lon="6.04062">
        <ele>1500.1999511719</ele>
        <time>2021-03-21T08:10:36.000Z</time>
      </trkpt>
      <trkpt lat="45.01327" lon="6.04062">
        <ele>1499.8000488281</ele>
        <time>2021-03-21T08:10:37.000Z</time>
      </trkpt>
      <trkpt lat="45.01327" lon="6.04063">
        <ele>1499.4000244141</ele>
        <time>2021-03-21T08:10:38.000Z</time>
      </trkpt>
      <trkpt lat="45.01327" lon="6.04063">
        <ele>1499.4000244141</ele>
        <time>2021-03-21T08:10:39.000Z</time>
      </trkpt>
      <trkpt lat="45.01327" lon="6.04062">
        <ele>1499.5999755859</ele>
        <time>2021-03-21T08:10:40.000Z</time>
      </trkpt>
      <trkpt lat="45.01327" lon="6.04062">
        <ele>1499.8000488281</ele>
        <time>2021-03-21T08:10:41.000Z</time>
      </trkpt>
      <trkpt lat="45.01326" lon="6.04062">
        <ele>1499.8000488281</ele>
        <time>2021-03-21T08:10:42.000Z</time>
      </trkpt>
      <trkpt lat="45.01326" lon="6.04062">
        <ele>1499.8000488281</ele>
        <time>2021-03-21T08:10:43.000Z</time>
      </trkpt>
      <trkpt lat="45.01326" lon="6.04062">
        <ele>1499.1999511719</ele>
        <time>2021-03-21T08:10:44.000Z</time>
      </trkpt>
      <trkpt lat="45.01326" lon="6.04062">
        <ele>1499.1999511719</ele>
        <time>2021-03-21T08:10:45.000Z</time>
      </trkpt>
      <trkpt lat="45.01326" lon="6.04063">
        <ele>1498.4000244141</ele>
        <time>2021-03-21T08:10:46.000Z</time>
      </trkpt>
      <trkpt lat="45.01326" lon="6.04063">
        <ele>1498.5999755859</ele>
        <time>2021-03-21T08:10:47.000Z</time>
      </trkpt>
      <trkpt lat="45.01325" lon="6.04063">
        <ele>1498.1999511719</ele>
        <time>2021-03-21T08:10:48.000Z</time>
      </trkpt>
      <trkpt lat="45.01325" lon="6.04063">
        <ele>1498</ele>
        <time>2021-03-21T08:10:49.000Z</time>
      </trkpt>
      <trkpt lat="45.01325" lon="6.04063">
        <ele>1497.8000488281</ele>
        <time>2021-03-21T08:10:50.000Z</time>
      </trkpt>
      <trkpt lat="45.01324" lon="6.04063">
        <ele>1498</ele>
        <time>2021-03-21T08:10:51.000Z</time>
      </trkpt>
      <trkpt lat="45.01324" lon="6.04062">
        <ele>1498.4000244141</ele>
        <time>2021-03-21T08:10:52.000Z</time>
      </trkpt>
      <trkpt lat="45.01324" lon="6.04062">
        <ele>1498</ele>
        <time>2021-03-21T08:10:53.000Z</time>
      </trkpt>
      <trkpt lat="45.01325" lon="6.04062">
        <ele>1498.1999511719</ele>
        <time>2021-03-21T08:10:54.000Z</time>
      </trkpt>
      <trkpt lat="45.01325" lon="6.04062">
        <ele>1498.1999511719</ele>
        <time>2021-03-21T08:10:55.000Z</time>
      </trkpt>
      <trkpt lat="45.01325" lon="6.04062">
        <ele>1498.4000244141</ele>
        <time>2021-03-21T08:10:56.000Z</time>
      </trkpt>
      <trkpt lat="45.01325" lon="6.04062">
        <ele>1498.4000244141</ele>
        <time>2021-03-21T08:10:57.000Z</time>
      </trkpt>
      <trkpt lat="45.01325" lon="6.04062">
        <ele>1499</ele>
        <time>2021-03-21T08:10:58.000Z</time>
      </trkpt>
      <trkpt lat="45.01324" lon="6.04062">
        <ele>1498.4000244141</ele>
        <time>2021-03-21T08:10:59.000Z</time>
      </trkpt>
      <trkpt lat="45.01324" lon="6.04062">
        <ele>1498.8000488281</ele>
        <time>2021-03-21T08:11:00.000Z</time>
      </trkpt>
      <trkpt lat="45.01324" lon="6.04061">
        <ele>1498.8000488281</ele>
        <time>2021-03-21T08:11:01.000Z</time>
      </trkpt>
      <trkpt lat="45.01324" lon="6.04062">
        <ele>1498.1999511719</ele>
        <time>2021-03-21T08:11:02.000Z</time>
      </trkpt>
      <trkpt lat="45.01324" lon="6.04062">
        <ele>1498.4000244141</ele>
        <time>2021-03-21T08:11:03.000Z</time>
      </trkpt>
      <trkpt lat="45.01323" lon="6.04062">
        <ele>1497.8000488281</ele>
        <time>2021-03-21T08:11:04.000Z</time>
      </trkpt>
      <trkpt lat="45.01323" lon="6.04062">
        <ele>1497.8000488281</ele>
        <time>2021-03-21T08:11:05.000Z</time>
      </trkpt>
      <trkpt lat="45.01323" lon="6.04062">
        <ele>1497.4000244141</ele>
        <time>2021-03-21T08:11:06.000Z</time>
      </trkpt>
      <trkpt lat="45.01323" lon="6.04062">
        <ele>1497.8000488281</ele>
        <time>2021-03-21T08:11:07.000Z</time>
      </trkpt>
      <trkpt lat="45.01323" lon="6.04062">
        <ele>1497.5999755859</ele>
        <time>2021-03-21T08:11:08.000Z</time>
      </trkpt>
      <trkpt lat="45.01323" lon="6.04062">
        <ele>1497.4000244141</ele>
        <time>2021-03-21T08:11:09.000Z</time>
      </trkpt>
      <trkpt lat="45.01322" lon="6.04062">
        <ele>1497.5999755859</ele>
        <time>2021-03-21T08:11:10.000Z</time>
      </trkpt>
      <trkpt lat="45.01321" lon="6.04062">
        <ele>1497</ele>
        <time>2021-03-21T08:11:11.000Z</time>
      </trkpt>
      <trkpt lat="45.01319" lon="6.04062">
        <ele>1495.4000244141</ele>
        <time>2021-03-21T08:11:12.000Z</time>
      </trkpt>
      <trkpt lat="45.01316" lon="6.04061">
        <ele>1495.1999511719</ele>
        <time>2021-03-21T08:11:13.000Z</time>
      </trkpt>
      <trkpt lat="45.01314" lon="6.04059">
        <ele>1496</ele>
        <time>2021-03-21T08:11:14.000Z</time>
      </trkpt>
      <trkpt lat="45.01311" lon="6.04057">
        <ele>1497.5999755859</ele>
        <time>2021-03-21T08:11:15.000Z</time>
      </trkpt>
      <trkpt lat="45.01308" lon="6.04054">
        <ele>1499.4000244141</ele>
        <time>2021-03-21T08:11:16.000Z</time>
      </trkpt>
      <trkpt lat="45.01304" lon="6.04052">
        <ele>1499.8000488281</ele>
        <time>2021-03-21T08:11:17.000Z</time>
      </trkpt>
      <trkpt lat="45.01301" lon="6.04049">
        <ele>1501.4000244141</ele>
        <time>2021-03-21T08:11:18.000Z</time>
      </trkpt>
      <trkpt lat="45.01298" lon="6.04047">
        <ele>1503.1999511719</ele>
        <time>2021-03-21T08:11:19.000Z</time>
      </trkpt>
      <trkpt lat="45.01296" lon="6.04044">
        <ele>1505</ele>
        <time>2021-03-21T08:11:20.000Z</time>
      </trkpt>
      <trkpt lat="45.01295" lon="6.04042">
        <ele>1506.4000244141</ele>
        <time>2021-03-21T08:11:21.000Z</time>
      </trkpt>
      <trkpt lat="45.01294" lon="6.04041">
        <ele>1506.5999755859</ele>
        <time>2021-03-21T08:11:22.000Z</time>
      </trkpt>
      <trkpt lat="45.01293" lon="6.0404">
        <ele>1506.8000488281</ele>
        <time>2021-03-21T08:11:23.000Z</time>
      </trkpt>
      <trkpt lat="45.01292" lon="6.04038">
        <ele>1507</ele>
        <time>2021-03-21T08:11:24.000Z</time>
      </trkpt>
      <trkpt lat="45.01291" lon="6.04036">
        <ele>1507.5999755859</ele>
        <time>2021-03-21T08:11:25.000Z</time>
      </trkpt>
      <trkpt lat="45.01291" lon="6.04035">
        <ele>1508</ele>
        <time>2021-03-21T08:11:26.000Z</time>
      </trkpt>
      <trkpt lat="45.0129" lon="6.04033">
        <ele>1508.5999755859</ele>
        <time>2021-03-21T08:11:27.000Z</time>
      </trkpt>
      <trkpt lat="45.0129" lon="6.04032">
        <ele>1509</ele>
        <time>2021-03-21T08:11:28.000Z</time>
      </trkpt>
      <trkpt lat="45.0129" lon="6.04031">
        <ele>1509.5999755859</ele>
        <time>2021-03-21T08:11:29.000Z</time>
      </trkpt>
      <trkpt lat="45.0129" lon="6.0403">
        <ele>1510</ele>
        <time>2021-03-21T08:11:30.000Z</time>
      </trkpt>
      <trkpt lat="45.0129" lon="6.04029">
        <ele>1510.1999511719</ele>
        <time>2021-03-21T08:11:31.000Z</time>
      </trkpt>
      <trkpt lat="45.0129" lon="6.04029">
        <ele>1510.4000244141</ele>
        <time>2021-03-21T08:11:32.000Z</time>
      </trkpt>
      <trkpt lat="45.0129" lon="6.04029">
        <ele>1510.5999755859</ele>
        <time>2021-03-21T08:11:33.000Z</time>
      </trkpt>
      <trkpt lat="45.0129" lon="6.04028">
        <ele>1510.5999755859</ele>
        <time>2021-03-21T08:11:34.000Z</time>
      </trkpt>
      <trkpt lat="45.01289" lon="6.04028">
        <ele>1510.5999755859</ele>
        <time>2021-03-21T08:11:35.000Z</time>
      </trkpt>
      <trkpt lat="45.01289" lon="6.04028">
        <ele>1510.4000244141</ele>
        <time>2021-03-21T08:11:36.000Z</time>
      </trkpt>
      <trkpt lat="45.01289" lon="6.04028">
        <ele>1510.1999511719</ele>
        <time>2021-03-21T08:11:37.000Z</time>
      </trkpt>
      <trkpt lat="45.01289" lon="6.04027">
        <ele>1510.5999755859</ele>
        <time>2021-03-21T08:11:38.000Z</time>
      </trkpt>
      <trkpt lat="45.01289" lon="6.04028">
        <ele>1510.4000244141</ele>
        <time>2021-03-21T08:11:39.000Z</time>
      </trkpt>
      <trkpt lat="45.01289" lon="6.04027">
        <ele>1510.5999755859</ele>
        <time>2021-03-21T08:11:40.000Z</time>
      </trkpt>
      <trkpt lat="45.01289" lon="6.04027">
        <ele>1510.8000488281</ele>
        <time>2021-03-21T08:11:41.000Z</time>
      </trkpt>
      <trkpt lat="45.01289" lon="6.04027">
        <ele>1510.5999755859</ele>
        <time>2021-03-21T08:11:42.000Z</time>
      </trkpt>
      <trkpt lat="45.01289" lon="6.04027">
        <ele>1510.8000488281</ele>
        <time>2021-03-21T08:11:43.000Z</time>
      </trkpt>
      <trkpt lat="45.01288" lon="6.04026">
        <ele>1510.8000488281</ele>
        <time>2021-03-21T08:11:44.000Z</time>
      </trkpt>
      <trkpt lat="45.01288" lon="6.04025">
        <ele>1511.1999511719</ele>
        <time>2021-03-21T08:11:45.000Z</time>
      </trkpt>
      <trkpt lat="45.01288" lon="6.04023">
        <ele>1511.8000488281</ele>
        <time>2021-03-21T08:11:46.000Z</time>
      </trkpt>
      <trkpt lat="45.01288" lon="6.04023">
        <ele>1512</ele>
        <time>2021-03-21T08:11:47.000Z</time>
      </trkpt>
      <trkpt lat="45.01287" lon="6.04022">
        <ele>1512.1999511719</ele>
        <time>2021-03-21T08:11:48.000Z</time>
      </trkpt>
      <trkpt lat="45.01287" lon="6.04022">
        <ele>1512.1999511719</ele>
        <time>2021-03-21T08:11:49.000Z</time>
      </trkpt>
      <trkpt lat="45.01287" lon="6.04022">
        <ele>1512.1999511719</ele>
        <time>2021-03-21T08:11:50.000Z</time>
      </trkpt>
      <trkpt lat="45.01287" lon="6.04022">
        <ele>1511.8000488281</ele>
        <time>2021-03-21T08:11:51.000Z</time>
      </trkpt>
      <trkpt lat="45.01287" lon="6.04022">
        <ele>1511.8000488281</ele>
        <time>2021-03-21T08:11:52.000Z</time>
      </trkpt>
      <trkpt lat="45.01287" lon="6.04022">
        <ele>1511.8000488281</ele>
        <time>2021-03-21T08:11:53.000Z</time>
      </trkpt>
      <trkpt lat="45.01287" lon="6.04022">
        <ele>1511.8000488281</ele>
        <time>2021-03-21T08:11:54.000Z</time>
      </trkpt>
      <trkpt lat="45.01287" lon="6.04022">
        <ele>1511.5999755859</ele>
        <time>2021-03-21T08:11:55.000Z</time>
      </trkpt>
      <trkpt lat="45.01286" lon="6.04022">
        <ele>1511.5999755859</ele>
        <time>2021-03-21T08:11:56.000Z</time>
      </trkpt>
      <trkpt lat="45.01287" lon="6.04022">
        <ele>1511.5999755859</ele>
        <time>2021-03-21T08:11:57.000Z</time>
      </trkpt>
      <trkpt lat="45.01286" lon="6.04023">
        <ele>1511.4000244141</ele>
        <time>2021-03-21T08:11:58.000Z</time>
      </trkpt>
      <trkpt lat="45.01287" lon="6.04023">
        <ele>1511.4000244141</ele>
        <time>2021-03-21T08:11:59.000Z</time>
      </trkpt>
      <trkpt lat="45.01287" lon="6.04023">
        <ele>1511.4000244141</ele>
        <time>2021-03-21T08:12:00.000Z</time>
      </trkpt>
      <trkpt lat="45.01287" lon="6.04023">
        <ele>1511.4000244141</ele>
        <time>2021-03-21T08:12:01.000Z</time>
      </trkpt>
      <trkpt lat="45.01287" lon="6.04023">
        <ele>1511.4000244141</ele>
        <time>2021-03-21T08:12:02.000Z</time>
      </trkpt>
      <trkpt lat="45.01287" lon="6.04024">
        <ele>1511</ele>
        <time>2021-03-21T08:12:03.000Z</time>
      </trkpt>
      <trkpt lat="45.01287" lon="6.04024">
        <ele>1510.8000488281</ele>
        <time>2021-03-21T08:12:04.000Z</time>
      </trkpt>
      <trkpt lat="45.01286" lon="6.04025">
        <ele>1510.1999511719</ele>
        <time>2021-03-21T08:12:05.000Z</time>
      </trkpt>
      <trkpt lat="45.01286" lon="6.04025">
        <ele>1510.4000244141</ele>
        <time>2021-03-21T08:12:06.000Z</time>
      </trkpt>
      <trkpt lat="45.01286" lon="6.04025">
        <ele>1510.1999511719</ele>
        <time>2021-03-21T08:12:07.000Z</time>
      </trkpt>
      <trkpt lat="45.01286" lon="6.04025">
        <ele>1510.1999511719</ele>
        <time>2021-03-21T08:12:08.000Z</time>
      </trkpt>
      <trkpt lat="45.01287" lon="6.04025">
        <ele>1510.4000244141</ele>
        <time>2021-03-21T08:12:09.000Z</time>
      </trkpt>
      <trkpt lat="45.01287" lon="6.04025">
        <ele>1510.4000244141</ele>
        <time>2021-03-21T08:12:10.000Z</time>
      </trkpt>
      <trkpt lat="45.01287" lon="6.04025">
        <ele>1510.4000244141</ele>
        <time>2021-03-21T08:12:11.000Z</time>
      </trkpt>
      <trkpt lat="45.01287" lon="6.04024">
        <ele>1510.8000488281</ele>
        <time>2021-03-21T08:12:12.000Z</time>
      </trkpt>
      <trkpt lat="45.01286" lon="6.04024">
        <ele>1510.5999755859</ele>
        <time>2021-03-21T08:12:13.000Z</time>
      </trkpt>
      <trkpt lat="45.01285" lon="6.04024">
        <ele>1510.4000244141</ele>
        <time>2021-03-21T08:12:14.000Z</time>
      </trkpt>
      <trkpt lat="45.01285" lon="6.04023">
        <ele>1510.4000244141</ele>
        <time>2021-03-21T08:12:15.000Z</time>
      </trkpt>
      <trkpt lat="45.01284" lon="6.04022">
        <ele>1510.4000244141</ele>
        <time>2021-03-21T08:12:16.000Z</time>
      </trkpt>
      <trkpt lat="45.01284" lon="6.04021">
        <ele>1510.5999755859</ele>
        <time>2021-03-21T08:12:17.000Z</time>
      </trkpt>
      <trkpt lat="45.01283" lon="6.0402">
        <ele>1510.5999755859</ele>
        <time>2021-03-21T08:12:18.000Z</time>
      </trkpt>
      <trkpt lat="45.01282" lon="6.04019">
        <ele>1510.8000488281</ele>
        <time>2021-03-21T08:12:19.000Z</time>
      </trkpt>
      <trkpt lat="45.01282" lon="6.04018">
        <ele>1510.8000488281</ele>
        <time>2021-03-21T08:12:20.000Z</time>
      </trkpt>
      <trkpt lat="45.01281" lon="6.04017">
        <ele>1511</ele>
        <time>2021-03-21T08:12:21.000Z</time>
      </trkpt>
      <trkpt lat="45.0128" lon="6.04016">
        <ele>1511.4000244141</ele>
        <time>2021-03-21T08:12:22.000Z</time>
      </trkpt>
      <trkpt lat="45.0128" lon="6.04015">
        <ele>1512</ele>
        <time>2021-03-21T08:12:23.000Z</time>
      </trkpt>
      <trkpt lat="45.0128" lon="6.04012">
        <ele>1513.4000244141</ele>
        <time>2021-03-21T08:12:24.000Z</time>
      </trkpt>
      <trkpt lat="45.01279" lon="6.0401">
        <ele>1514.8000488281</ele>
        <time>2021-03-21T08:12:25.000Z</time>
      </trkpt>
      <trkpt lat="45.01279" lon="6.04008">
        <ele>1516.1999511719</ele>
        <time>2021-03-21T08:12:26.000Z</time>
      </trkpt>
      <trkpt lat="45.01279" lon="6.04007">
        <ele>1517.4000244141</ele>
        <time>2021-03-21T08:12:27.000Z</time>
      </trkpt>
      <trkpt lat="45.01279" lon="6.04005">
        <ele>1519</ele>
        <time>2021-03-21T08:12:28.000Z</time>
      </trkpt>
      <trkpt lat="45.01278" lon="6.04003">
        <ele>1520.1999511719</ele>
        <time>2021-03-21T08:12:29.000Z</time>
      </trkpt>
      <trkpt lat="45.01278" lon="6.04">
        <ele>1522</ele>
        <time>2021-03-21T08:12:30.000Z</time>
      </trkpt>
      <trkpt lat="45.01278" lon="6.03998">
        <ele>1523.1999511719</ele>
        <time>2021-03-21T08:12:31.000Z</time>
      </trkpt>
      <trkpt lat="45.01277" lon="6.03997">
        <ele>1524.4000244141</ele>
        <time>2021-03-21T08:12:32.000Z</time>
      </trkpt>
      <trkpt lat="45.01277" lon="6.03995">
        <ele>1525.8000488281</ele>
        <time>2021-03-21T08:12:33.000Z</time>
      </trkpt>
      <trkpt lat="45.01277" lon="6.03993">
        <ele>1526.5999755859</ele>
        <time>2021-03-21T08:12:34.000Z</time>
      </trkpt>
      <trkpt lat="45.01276" lon="6.03991">
        <ele>1527.5999755859</ele>
        <time>2021-03-21T08:12:35.000Z</time>
      </trkpt>
      <trkpt lat="45.01276" lon="6.03989">
        <ele>1529.1999511719</ele>
        <time>2021-03-21T08:12:36.000Z</time>
      </trkpt>
      <trkpt lat="45.01276" lon="6.03988">
        <ele>1529.8000488281</ele>
        <time>2021-03-21T08:12:37.000Z</time>
      </trkpt>
      <trkpt lat="45.01276" lon="6.03987">
        <ele>1530.5999755859</ele>
        <time>2021-03-21T08:12:38.000Z</time>
      </trkpt>
      <trkpt lat="45.01275" lon="6.03986">
        <ele>1531.1999511719</ele>
        <time>2021-03-21T08:12:39.000Z</time>
      </trkpt>
      <trkpt lat="45.01274" lon="6.03984">
        <ele>1531.4000244141</ele>
        <time>2021-03-21T08:12:40.000Z</time>
      </trkpt>
      <trkpt lat="45.01273" lon="6.03984">
        <ele>1531.5999755859</ele>
        <time>2021-03-21T08:12:41.000Z</time>
      </trkpt>
      <trkpt lat="45.01272" lon="6.03982">
        <ele>1531.8000488281</ele>
        <time>2021-03-21T08:12:42.000Z</time>
      </trkpt>
      <trkpt lat="45.01271" lon="6.03982">
        <ele>1531.8000488281</ele>
        <time>2021-03-21T08:12:43.000Z</time>
      </trkpt>
      <trkpt lat="45.0127" lon="6.0398">
        <ele>1532.4000244141</ele>
        <time>2021-03-21T08:12:44.000Z</time>
      </trkpt>
      <trkpt lat="45.01269" lon="6.0398">
        <ele>1532.1999511719</ele>
        <time>2021-03-21T08:12:45.000Z</time>
      </trkpt>
      <trkpt lat="45.01268" lon="6.03979">
        <ele>1532.4000244141</ele>
        <time>2021-03-21T08:12:46.000Z</time>
      </trkpt>
      <trkpt lat="45.01268" lon="6.03979">
        <ele>1532.4000244141</ele>
        <time>2021-03-21T08:12:47.000Z</time>
      </trkpt>
      <trkpt lat="45.01271" lon="6.03979">
        <ele>1534</ele>
        <time>2021-03-21T08:12:48.000Z</time>
      </trkpt>
      <trkpt lat="45.01271" lon="6.03978">
        <ele>1534.1999511719</ele>
        <time>2021-03-21T08:12:49.000Z</time>
      </trkpt>
      <trkpt lat="45.01271" lon="6.03977">
        <ele>1534.8000488281</ele>
        <time>2021-03-21T08:12:50.000Z</time>
      </trkpt>
      <trkpt lat="45.01272" lon="6.03977">
        <ele>1535.8000488281</ele>
        <time>2021-03-21T08:12:51.000Z</time>
      </trkpt>
      <trkpt lat="45.01272" lon="6.03976">
        <ele>1536</ele>
        <time>2021-03-21T08:12:52.000Z</time>
      </trkpt>
      <trkpt lat="45.01272" lon="6.03976">
        <ele>1536.5999755859</ele>
        <time>2021-03-21T08:12:53.000Z</time>
      </trkpt>
      <trkpt lat="45.01272" lon="6.03975">
        <ele>1537</ele>
        <time>2021-03-21T08:12:54.000Z</time>
      </trkpt>
      <trkpt lat="45.01273" lon="6.03975">
        <ele>1537.5999755859</ele>
        <time>2021-03-21T08:12:55.000Z</time>
      </trkpt>
      <trkpt lat="45.01273" lon="6.03974">
        <ele>1538.1999511719</ele>
        <time>2021-03-21T08:12:56.000Z</time>
      </trkpt>
      <trkpt lat="45.01273" lon="6.03973">
        <ele>1538.8000488281</ele>
        <time>2021-03-21T08:12:57.000Z</time>
      </trkpt>
      <trkpt lat="45.01273" lon="6.03973">
        <ele>1539.1999511719</ele>
        <time>2021-03-21T08:12:58.000Z</time>
      </trkpt>
      <trkpt lat="45.01273" lon="6.03972">
        <ele>1539.4000244141</ele>
        <time>2021-03-21T08:12:59.000Z</time>
      </trkpt>
      <trkpt lat="45.01272" lon="6.03972">
        <ele>1539.4000244141</ele>
        <time>2021-03-21T08:13:00.000Z</time>
      </trkpt>
      <trkpt lat="45.01272" lon="6.03972">
        <ele>1539.1999511719</ele>
        <time>2021-03-21T08:13:01.000Z</time>
      </trkpt>
      <trkpt lat="45.01271" lon="6.03971">
        <ele>1539.1999511719</ele>
        <time>2021-03-21T08:13:02.000Z</time>
      </trkpt>
      <trkpt lat="45.01271" lon="6.0397">
        <ele>1539.5999755859</ele>
        <time>2021-03-21T08:13:03.000Z</time>
      </trkpt>
      <trkpt lat="45.0127" lon="6.0397">
        <ele>1540</ele>
        <time>2021-03-21T08:13:04.000Z</time>
      </trkpt>
      <trkpt lat="45.0127" lon="6.03969">
        <ele>1540</ele>
        <time>2021-03-21T08:13:05.000Z</time>
      </trkpt>
      <trkpt lat="45.01269" lon="6.03969">
        <ele>1540.1999511719</ele>
        <time>2021-03-21T08:13:06.000Z</time>
      </trkpt>
      <trkpt lat="45.01269" lon="6.03968">
        <ele>1540.4000244141</ele>
        <time>2021-03-21T08:13:07.000Z</time>
      </trkpt>
      <trkpt lat="45.01269" lon="6.03968">
        <ele>1540.4000244141</ele>
        <time>2021-03-21T08:13:08.000Z</time>
      </trkpt>
      <trkpt lat="45.0127" lon="6.03968">
        <ele>1540.8000488281</ele>
        <time>2021-03-21T08:13:09.000Z</time>
      </trkpt>
      <trkpt lat="45.01269" lon="6.03968">
        <ele>1540.5999755859</ele>
        <time>2021-03-21T08:13:10.000Z</time>
      </trkpt>
      <trkpt lat="45.01269" lon="6.03968">
        <ele>1540.5999755859</ele>
        <time>2021-03-21T08:13:11.000Z</time>
      </trkpt>
      <trkpt lat="45.01269" lon="6.03968">
        <ele>1540.5999755859</ele>
        <time>2021-03-21T08:13:12.000Z</time>
      </trkpt>
      <trkpt lat="45.01269" lon="6.03968">
        <ele>1540.1999511719</ele>
        <time>2021-03-21T08:13:13.000Z</time>
      </trkpt>
      <trkpt lat="45.01269" lon="6.03968">
        <ele>1540.1999511719</ele>
        <time>2021-03-21T08:13:14.000Z</time>
      </trkpt>
      <trkpt lat="45.01269" lon="6.03969">
        <ele>1540</ele>
        <time>2021-03-21T08:13:15.000Z</time>
      </trkpt>
      <trkpt lat="45.01269" lon="6.03969">
        <ele>1540</ele>
        <time>2021-03-21T08:13:16.000Z</time>
      </trkpt>
      <trkpt lat="45.01269" lon="6.03969">
        <ele>1539.8000488281</ele>
        <time>2021-03-21T08:13:17.000Z</time>
      </trkpt>
      <trkpt lat="45.01269" lon="6.03969">
        <ele>1539.8000488281</ele>
        <time>2021-03-21T08:13:18.000Z</time>
      </trkpt>
      <trkpt lat="45.01269" lon="6.03969">
        <ele>1539.8000488281</ele>
        <time>2021-03-21T08:13:19.000Z</time>
      </trkpt>
      <trkpt lat="45.01269" lon="6.03969">
        <ele>1539.8000488281</ele>
        <time>2021-03-21T08:13:20.000Z</time>
      </trkpt>
      <trkpt lat="45.01269" lon="6.03969">
        <ele>1539.8000488281</ele>
        <time>2021-03-21T08:13:21.000Z</time>
      </trkpt>
      <trkpt lat="45.01269" lon="6.03969">
        <ele>1539.8000488281</ele>
        <time>2021-03-21T08:13:22.000Z</time>
      </trkpt>
      <trkpt lat="45.01269" lon="6.03968">
        <ele>1540</ele>
        <time>2021-03-21T08:13:23.000Z</time>
      </trkpt>
      <trkpt lat="45.01268" lon="6.03968">
        <ele>1540</ele>
        <time>2021-03-21T08:13:24.000Z</time>
      </trkpt>
      <trkpt lat="45.01267" lon="6.03967">
        <ele>1540.4000244141</ele>
        <time>2021-03-21T08:13:25.000Z</time>
      </trkpt>
      <trkpt lat="45.01267" lon="6.03966">
        <ele>1540.8000488281</ele>
        <time>2021-03-21T08:13:26.000Z</time>
      </trkpt>
      <trkpt lat="45.01266" lon="6.03964">
        <ele>1541.5999755859</ele>
        <time>2021-03-21T08:13:27.000Z</time>
      </trkpt>
      <trkpt lat="45.01266" lon="6.03963">
        <ele>1542.1999511719</ele>
        <time>2021-03-21T08:13:28.000Z</time>
      </trkpt>
      <trkpt lat="45.01265" lon="6.03962">
        <ele>1542.4000244141</ele>
        <time>2021-03-21T08:13:29.000Z</time>
      </trkpt>
      <trkpt lat="45.01264" lon="6.03962">
        <ele>1542.5999755859</ele>
        <time>2021-03-21T08:13:30.000Z</time>
      </trkpt>
      <trkpt lat="45.01264" lon="6.03961">
        <ele>1542.5999755859</ele>
        <time>2021-03-21T08:13:31.000Z</time>
      </trkpt>
      <trkpt lat="45.01263" lon="6.03961">
        <ele>1542.5999755859</ele>
        <time>2021-03-21T08:13:32.000Z</time>
      </trkpt>
      <trkpt lat="45.01262" lon="6.0396">
        <ele>1542.4000244141</ele>
        <time>2021-03-21T08:13:33.000Z</time>
      </trkpt>
      <trkpt lat="45.01261" lon="6.0396">
        <ele>1542.4000244141</ele>
        <time>2021-03-21T08:13:34.000Z</time>
      </trkpt>
      <trkpt lat="45.0126" lon="6.03959">
        <ele>1542.4000244141</ele>
        <time>2021-03-21T08:13:35.000Z</time>
      </trkpt>
      <trkpt lat="45.01259" lon="6.03959">
        <ele>1542.1999511719</ele>
        <time>2021-03-21T08:13:36.000Z</time>
      </trkpt>
      <trkpt lat="45.01257" lon="6.03959">
        <ele>1542</ele>
        <time>2021-03-21T08:13:37.000Z</time>
      </trkpt>
      <trkpt lat="45.01256" lon="6.03959">
        <ele>1542.1999511719</ele>
        <time>2021-03-21T08:13:38.000Z</time>
      </trkpt>
      <trkpt lat="45.01255" lon="6.03958">
        <ele>1542.8000488281</ele>
        <time>2021-03-21T08:13:39.000Z</time>
      </trkpt>
      <trkpt lat="45.01254" lon="6.03958">
        <ele>1542.8000488281</ele>
        <time>2021-03-21T08:13:40.000Z</time>
      </trkpt>
      <trkpt lat="45.01254" lon="6.03958">
        <ele>1542.5999755859</ele>
        <time>2021-03-21T08:13:41.000Z</time>
      </trkpt>
      <trkpt lat="45.01252" lon="6.03957">
        <ele>1542.4000244141</ele>
        <time>2021-03-21T08:13:42.000Z</time>
      </trkpt>
      <trkpt lat="45.01251" lon="6.03957">
        <ele>1542.4000244141</ele>
        <time>2021-03-21T08:13:43.000Z</time>
      </trkpt>
      <trkpt lat="45.0125" lon="6.03957">
        <ele>1541.8000488281</ele>
        <time>2021-03-21T08:13:44.000Z</time>
      </trkpt>
      <trkpt lat="45.01249" lon="6.03957">
        <ele>1542</ele>
        <time>2021-03-21T08:13:45.000Z</time>
      </trkpt>
      <trkpt lat="45.01248" lon="6.03956">
        <ele>1542</ele>
        <time>2021-03-21T08:13:46.000Z</time>
      </trkpt>
      <trkpt lat="45.01247" lon="6.03956">
        <ele>1542.4000244141</ele>
        <time>2021-03-21T08:13:47.000Z</time>
      </trkpt>
      <trkpt lat="45.01246" lon="6.03956">
        <ele>1542.5999755859</ele>
        <time>2021-03-21T08:13:48.000Z</time>
      </trkpt>
      <trkpt lat="45.01246" lon="6.03956">
        <ele>1542.4000244141</ele>
        <time>2021-03-21T08:13:49.000Z</time>
      </trkpt>
      <trkpt lat="45.01245" lon="6.03955">
        <ele>1542.4000244141</ele>
        <time>2021-03-21T08:13:50.000Z</time>
      </trkpt>
      <trkpt lat="45.01244" lon="6.03955">
        <ele>1542.4000244141</ele>
        <time>2021-03-21T08:13:51.000Z</time>
      </trkpt>
      <trkpt lat="45.01244" lon="6.03955">
        <ele>1542</ele>
        <time>2021-03-21T08:13:52.000Z</time>
      </trkpt>
      <trkpt lat="45.01243" lon="6.03955">
        <ele>1542</ele>
        <time>2021-03-21T08:13:53.000Z</time>
      </trkpt>
      <trkpt lat="45.01243" lon="6.03955">
        <ele>1541.8000488281</ele>
        <time>2021-03-21T08:13:54.000Z</time>
      </trkpt>
      <trkpt lat="45.01242" lon="6.03955">
        <ele>1541.5999755859</ele>
        <time>2021-03-21T08:13:55.000Z</time>
      </trkpt>
      <trkpt lat="45.01241" lon="6.03955">
        <ele>1541.8000488281</ele>
        <time>2021-03-21T08:13:56.000Z</time>
      </trkpt>
      <trkpt lat="45.0124" lon="6.03954">
        <ele>1542</ele>
        <time>2021-03-21T08:13:57.000Z</time>
      </trkpt>
      <trkpt lat="45.0124" lon="6.03954">
        <ele>1542</ele>
        <time>2021-03-21T08:13:58.000Z</time>
      </trkpt>
      <trkpt lat="45.01239" lon="6.03955">
        <ele>1541.4000244141</ele>
        <time>2021-03-21T08:13:59.000Z</time>
      </trkpt>
      <trkpt lat="45.01238" lon="6.03954">
        <ele>1541.1999511719</ele>
        <time>2021-03-21T08:14:00.000Z</time>
      </trkpt>
      <trkpt lat="45.01238" lon="6.03954">
        <ele>1541</ele>
        <time>2021-03-21T08:14:01.000Z</time>
      </trkpt>
      <trkpt lat="45.01237" lon="6.03954">
        <ele>1540.8000488281</ele>
        <time>2021-03-21T08:14:02.000Z</time>
      </trkpt>
      <trkpt lat="45.01236" lon="6.03955">
        <ele>1540.1999511719</ele>
        <time>2021-03-21T08:14:03.000Z</time>
      </trkpt>
      <trkpt lat="45.01236" lon="6.03955">
        <ele>1539.5999755859</ele>
        <time>2021-03-21T08:14:04.000Z</time>
      </trkpt>
      <trkpt lat="45.01236" lon="6.03955">
        <ele>1538.8000488281</ele>
        <time>2021-03-21T08:14:05.000Z</time>
      </trkpt>
      <trkpt lat="45.01235" lon="6.03956">
        <ele>1537.5999755859</ele>
        <time>2021-03-21T08:14:06.000Z</time>
      </trkpt>
      <trkpt lat="45.01234" lon="6.03956">
        <ele>1536.4000244141</ele>
        <time>2021-03-21T08:14:07.000Z</time>
      </trkpt>
      <trkpt lat="45.01233" lon="6.03957">
        <ele>1535.8000488281</ele>
        <time>2021-03-21T08:14:08.000Z</time>
      </trkpt>
      <trkpt lat="45.01233" lon="6.03955">
        <ele>1537.5999755859</ele>
        <time>2021-03-21T08:14:09.000Z</time>
      </trkpt>
      <trkpt lat="45.01232" lon="6.03956">
        <ele>1537</ele>
        <time>2021-03-21T08:14:10.000Z</time>
      </trkpt>
      <trkpt lat="45.01231" lon="6.03956">
        <ele>1536.8000488281</ele>
        <time>2021-03-21T08:14:11.000Z</time>
      </trkpt>
      <trkpt lat="45.0123" lon="6.03957">
        <ele>1536.8000488281</ele>
        <time>2021-03-21T08:14:12.000Z</time>
      </trkpt>
      <trkpt lat="45.0123" lon="6.03957">
        <ele>1536.5999755859</ele>
        <time>2021-03-21T08:14:13.000Z</time>
      </trkpt>
      <trkpt lat="45.01229" lon="6.03958">
        <ele>1536.4000244141</ele>
        <time>2021-03-21T08:14:14.000Z</time>
      </trkpt>
      <trkpt lat="45.01228" lon="6.03959">
        <ele>1536</ele>
        <time>2021-03-21T08:14:15.000Z</time>
      </trkpt>
      <trkpt lat="45.01228" lon="6.03959">
        <ele>1535.8000488281</ele>
        <time>2021-03-21T08:14:16.000Z</time>
      </trkpt>
      <trkpt lat="45.01227" lon="6.0396">
        <ele>1535.5999755859</ele>
        <time>2021-03-21T08:14:17.000Z</time>
      </trkpt>
      <trkpt lat="45.01226" lon="6.0396">
        <ele>1535.1999511719</ele>
        <time>2021-03-21T08:14:18.000Z</time>
      </trkpt>
      <trkpt lat="45.01225" lon="6.03961">
        <ele>1535</ele>
        <time>2021-03-21T08:14:19.000Z</time>
      </trkpt>
      <trkpt lat="45.01225" lon="6.03962">
        <ele>1534.4000244141</ele>
        <time>2021-03-21T08:14:20.000Z</time>
      </trkpt>
      <trkpt lat="45.01224" lon="6.03963">
        <ele>1534</ele>
        <time>2021-03-21T08:14:21.000Z</time>
      </trkpt>
      <trkpt lat="45.01223" lon="6.03963">
        <ele>1533.8000488281</ele>
        <time>2021-03-21T08:14:22.000Z</time>
      </trkpt>
      <trkpt lat="45.01222" lon="6.03964">
        <ele>1533.1999511719</ele>
        <time>2021-03-21T08:14:23.000Z</time>
      </trkpt>
      <trkpt lat="45.01222" lon="6.03965">
        <ele>1532.8000488281</ele>
        <time>2021-03-21T08:14:24.000Z</time>
      </trkpt>
      <trkpt lat="45.01222" lon="6.03965">
        <ele>1532.8000488281</ele>
        <time>2021-03-21T08:14:25.000Z</time>
      </trkpt>
      <trkpt lat="45.01222" lon="6.03966">
        <ele>1532.4000244141</ele>
        <time>2021-03-21T08:14:26.000Z</time>
      </trkpt>
      <trkpt lat="45.01221" lon="6.03966">
        <ele>1532</ele>
        <time>2021-03-21T08:14:27.000Z</time>
      </trkpt>
      <trkpt lat="45.01221" lon="6.03967">
        <ele>1531.4000244141</ele>
        <time>2021-03-21T08:14:28.000Z</time>
      </trkpt>
      <trkpt lat="45.01221" lon="6.03968">
        <ele>1530.5999755859</ele>
        <time>2021-03-21T08:14:29.000Z</time>
      </trkpt>
      <trkpt lat="45.01221" lon="6.03969">
        <ele>1529.5999755859</ele>
        <time>2021-03-21T08:14:30.000Z</time>
      </trkpt>
      <trkpt lat="45.01221" lon="6.0397">
        <ele>1529</ele>
        <time>2021-03-21T08:14:31.000Z</time>
      </trkpt>
      <trkpt lat="45.01221" lon="6.03971">
        <ele>1528.4000244141</ele>
        <time>2021-03-21T08:14:32.000Z</time>
      </trkpt>
      <trkpt lat="45.0122" lon="6.03972">
        <ele>1527.8000488281</ele>
        <time>2021-03-21T08:14:33.000Z</time>
      </trkpt>
      <trkpt lat="45.0122" lon="6.03973">
        <ele>1526.4000244141</ele>
        <time>2021-03-21T08:14:34.000Z</time>
      </trkpt>
      <trkpt lat="45.0122" lon="6.03974">
        <ele>1525.4000244141</ele>
        <time>2021-03-21T08:14:35.000Z</time>
      </trkpt>
      <trkpt lat="45.01219" lon="6.03976">
        <ele>1524</ele>
        <time>2021-03-21T08:14:36.000Z</time>
      </trkpt>
      <trkpt lat="45.01219" lon="6.03976">
        <ele>1523.8000488281</ele>
        <time>2021-03-21T08:14:37.000Z</time>
      </trkpt>
      <trkpt lat="45.01219" lon="6.03975">
        <ele>1524.5999755859</ele>
        <time>2021-03-21T08:14:38.000Z</time>
      </trkpt>
      <trkpt lat="45.01219" lon="6.03975">
        <ele>1524.4000244141</ele>
        <time>2021-03-21T08:14:39.000Z</time>
      </trkpt>
      <trkpt lat="45.01219" lon="6.03975">
        <ele>1524.5999755859</ele>
        <time>2021-03-21T08:14:40.000Z</time>
      </trkpt>
      <trkpt lat="45.01219" lon="6.03975">
        <ele>1524.8000488281</ele>
        <time>2021-03-21T08:14:41.000Z</time>
      </trkpt>
      <trkpt lat="45.01219" lon="6.03975">
        <ele>1525.1999511719</ele>
        <time>2021-03-21T08:14:42.000Z</time>
      </trkpt>
      <trkpt lat="45.01219" lon="6.03975">
        <ele>1525.1999511719</ele>
        <time>2021-03-21T08:14:43.000Z</time>
      </trkpt>
      <trkpt lat="45.01219" lon="6.03974">
        <ele>1525.4000244141</ele>
        <time>2021-03-21T08:14:44.000Z</time>
      </trkpt>
      <trkpt lat="45.01219" lon="6.03973">
        <ele>1526.4000244141</ele>
        <time>2021-03-21T08:14:45.000Z</time>
      </trkpt>
      <trkpt lat="45.0122" lon="6.03973">
        <ele>1526.8000488281</ele>
        <time>2021-03-21T08:14:46.000Z</time>
      </trkpt>
      <trkpt lat="45.0122" lon="6.03972">
        <ele>1527.5999755859</ele>
        <time>2021-03-21T08:14:47.000Z</time>
      </trkpt>
      <trkpt lat="45.0122" lon="6.03972">
        <ele>1528</ele>
        <time>2021-03-21T08:14:48.000Z</time>
      </trkpt>
      <trkpt lat="45.01219" lon="6.03971">
        <ele>1528.5999755859</ele>
        <time>2021-03-21T08:14:49.000Z</time>
      </trkpt>
      <trkpt lat="45.01219" lon="6.03971">
        <ele>1529</ele>
        <time>2021-03-21T08:14:50.000Z</time>
      </trkpt>
      <trkpt lat="45.01219" lon="6.0397">
        <ele>1529.5999755859</ele>
        <time>2021-03-21T08:14:51.000Z</time>
      </trkpt>
      <trkpt lat="45.01219" lon="6.0397">
        <ele>1529.8000488281</ele>
        <time>2021-03-21T08:14:52.000Z</time>
      </trkpt>
      <trkpt lat="45.01219" lon="6.03969">
        <ele>1530.1999511719</ele>
        <time>2021-03-21T08:14:53.000Z</time>
      </trkpt>
      <trkpt lat="45.01219" lon="6.03969">
        <ele>1530.4000244141</ele>
        <time>2021-03-21T08:14:54.000Z</time>
      </trkpt>
      <trkpt lat="45.01219" lon="6.03969">
        <ele>1530.5999755859</ele>
        <time>2021-03-21T08:14:55.000Z</time>
      </trkpt>
      <trkpt lat="45.01219" lon="6.03969">
        <ele>1530.5999755859</ele>
        <time>2021-03-21T08:14:56.000Z</time>
      </trkpt>
      <trkpt lat="45.0122" lon="6.03969">
        <ele>1530.5999755859</ele>
        <time>2021-03-21T08:14:57.000Z</time>
      </trkpt>
      <trkpt lat="45.0122" lon="6.03969">
        <ele>1530.5999755859</ele>
        <time>2021-03-21T08:14:58.000Z</time>
      </trkpt>
      <trkpt lat="45.0122" lon="6.03969">
        <ele>1530.4000244141</ele>
        <time>2021-03-21T08:14:59.000Z</time>
      </trkpt>
      <trkpt lat="45.0122" lon="6.03969">
        <ele>1530.1999511719</ele>
        <time>2021-03-21T08:15:00.000Z</time>
      </trkpt>
      <trkpt lat="45.0122" lon="6.0397">
        <ele>1529.5999755859</ele>
        <time>2021-03-21T08:15:01.000Z</time>
      </trkpt>
      <trkpt lat="45.0122" lon="6.03971">
        <ele>1529</ele>
        <time>2021-03-21T08:15:02.000Z</time>
      </trkpt>
      <trkpt lat="45.0122" lon="6.03971">
        <ele>1528.1999511719</ele>
        <time>2021-03-21T08:15:03.000Z</time>
      </trkpt>
      <trkpt lat="45.0122" lon="6.03972">
        <ele>1528</ele>
        <time>2021-03-21T08:15:04.000Z</time>
      </trkpt>
      <trkpt lat="45.0122" lon="6.03972">
        <ele>1527.5999755859</ele>
        <time>2021-03-21T08:15:05.000Z</time>
      </trkpt>
      <trkpt lat="45.01219" lon="6.03973">
        <ele>1527</ele>
        <time>2021-03-21T08:15:06.000Z</time>
      </trkpt>
      <trkpt lat="45.0122" lon="6.03973">
        <ele>1526.5999755859</ele>
        <time>2021-03-21T08:15:07.000Z</time>
      </trkpt>
      <trkpt lat="45.0122" lon="6.03972">
        <ele>1528</ele>
        <time>2021-03-21T08:15:08.000Z</time>
      </trkpt>
      <trkpt lat="45.0122" lon="6.03972">
        <ele>1527.8000488281</ele>
        <time>2021-03-21T08:15:09.000Z</time>
      </trkpt>
      <trkpt lat="45.0122" lon="6.03972">
        <ele>1527.8000488281</ele>
        <time>2021-03-21T08:15:10.000Z</time>
      </trkpt>
      <trkpt lat="45.0122" lon="6.03973">
        <ele>1526.8000488281</ele>
        <time>2021-03-21T08:15:11.000Z</time>
      </trkpt>
      <trkpt lat="45.0122" lon="6.03974">
        <ele>1526</ele>
        <time>2021-03-21T08:15:12.000Z</time>
      </trkpt>
      <trkpt lat="45.0122" lon="6.03975">
        <ele>1525</ele>
        <time>2021-03-21T08:15:13.000Z</time>
      </trkpt>
      <trkpt lat="45.0122" lon="6.03975">
        <ele>1524.5999755859</ele>
        <time>2021-03-21T08:15:14.000Z</time>
      </trkpt>
      <trkpt lat="45.0122" lon="6.03976">
        <ele>1523.8000488281</ele>
        <time>2021-03-21T08:15:15.000Z</time>
      </trkpt>
      <trkpt lat="45.0122" lon="6.03976">
        <ele>1523.5999755859</ele>
        <time>2021-03-21T08:15:16.000Z</time>
      </trkpt>
      <trkpt lat="45.0122" lon="6.03976">
        <ele>1523.5999755859</ele>
        <time>2021-03-21T08:15:17.000Z</time>
      </trkpt>
      <trkpt lat="45.0122" lon="6.03975">
        <ele>1524.5999755859</ele>
        <time>2021-03-21T08:15:18.000Z</time>
      </trkpt>
      <trkpt lat="45.01219" lon="6.03975">
        <ele>1525.1999511719</ele>
        <time>2021-03-21T08:15:19.000Z</time>
      </trkpt>
      <trkpt lat="45.01219" lon="6.03976">
        <ele>1524.1999511719</ele>
        <time>2021-03-21T08:15:20.000Z</time>
      </trkpt>
      <trkpt lat="45.01219" lon="6.03976">
        <ele>1524.1999511719</ele>
        <time>2021-03-21T08:15:21.000Z</time>
      </trkpt>
      <trkpt lat="45.01218" lon="6.03976">
        <ele>1524.4000244141</ele>
        <time>2021-03-21T08:15:22.000Z</time>
      </trkpt>
      <trkpt lat="45.01218" lon="6.03976">
        <ele>1524.1999511719</ele>
        <time>2021-03-21T08:15:23.000Z</time>
      </trkpt>
      <trkpt lat="45.01218" lon="6.03976">
        <ele>1524.1999511719</ele>
        <time>2021-03-21T08:15:24.000Z</time>
      </trkpt>
      <trkpt lat="45.01218" lon="6.03976">
        <ele>1523.8000488281</ele>
        <time>2021-03-21T08:15:25.000Z</time>
      </trkpt>
      <trkpt lat="45.01219" lon="6.03976">
        <ele>1523.5999755859</ele>
        <time>2021-03-21T08:15:26.000Z</time>
      </trkpt>
      <trkpt lat="45.0122" lon="6.03977">
        <ele>1523.1999511719</ele>
        <time>2021-03-21T08:15:27.000Z</time>
      </trkpt>
      <trkpt lat="45.0122" lon="6.03977">
        <ele>1523</ele>
        <time>2021-03-21T08:15:28.000Z</time>
      </trkpt>
      <trkpt lat="45.01221" lon="6.03977">
        <ele>1522.4000244141</ele>
        <time>2021-03-21T08:15:29.000Z</time>
      </trkpt>
      <trkpt lat="45.01222" lon="6.03978">
        <ele>1522</ele>
        <time>2021-03-21T08:15:30.000Z</time>
      </trkpt>
      <trkpt lat="45.01222" lon="6.03978">
        <ele>1522</ele>
        <time>2021-03-21T08:15:31.000Z</time>
      </trkpt>
      <trkpt lat="45.01222" lon="6.03978">
        <ele>1521.8000488281</ele>
        <time>2021-03-21T08:15:32.000Z</time>
      </trkpt>
      <trkpt lat="45.01222" lon="6.03978">
        <ele>1521.4000244141</ele>
        <time>2021-03-21T08:15:33.000Z</time>
      </trkpt>
      <trkpt lat="45.01222" lon="6.03978">
        <ele>1521.4000244141</ele>
        <time>2021-03-21T08:15:34.000Z</time>
      </trkpt>
      <trkpt lat="45.01222" lon="6.03978">
        <ele>1521</ele>
        <time>2021-03-21T08:15:35.000Z</time>
      </trkpt>
      <trkpt lat="45.01222" lon="6.03979">
        <ele>1521</ele>
        <time>2021-03-21T08:15:36.000Z</time>
      </trkpt>
      <trkpt lat="45.01222" lon="6.0398">
        <ele>1520</ele>
        <time>2021-03-21T08:15:37.000Z</time>
      </trkpt>
      <trkpt lat="45.01222" lon="6.03981">
        <ele>1518.4000244141</ele>
        <time>2021-03-21T08:15:38.000Z</time>
      </trkpt>
      <trkpt lat="45.01222" lon="6.03983">
        <ele>1516.8000488281</ele>
        <time>2021-03-21T08:15:39.000Z</time>
      </trkpt>
      <trkpt lat="45.01222" lon="6.03984">
        <ele>1515.8000488281</ele>
        <time>2021-03-21T08:15:40.000Z</time>
      </trkpt>
      <trkpt lat="45.01222" lon="6.03984">
        <ele>1516</ele>
        <time>2021-03-21T08:15:41.000Z</time>
      </trkpt>
      <trkpt lat="45.01222" lon="6.03983">
        <ele>1516.5999755859</ele>
        <time>2021-03-21T08:15:42.000Z</time>
      </trkpt>
      <trkpt lat="45.01222" lon="6.03983">
        <ele>1516.5999755859</ele>
        <time>2021-03-21T08:15:43.000Z</time>
      </trkpt>
      <trkpt lat="45.01222" lon="6.03983">
        <ele>1516.8000488281</ele>
        <time>2021-03-21T08:15:44.000Z</time>
      </trkpt>
      <trkpt lat="45.01222" lon="6.03983">
        <ele>1516.8000488281</ele>
        <time>2021-03-21T08:15:45.000Z</time>
      </trkpt>
      <trkpt lat="45.01222" lon="6.03983">
        <ele>1516.8000488281</ele>
        <time>2021-03-21T08:15:46.000Z</time>
      </trkpt>
      <trkpt lat="45.01222" lon="6.03983">
        <ele>1517</ele>
        <time>2021-03-21T08:15:47.000Z</time>
      </trkpt>
      <trkpt lat="45.01221" lon="6.03982">
        <ele>1517.4000244141</ele>
        <time>2021-03-21T08:15:48.000Z</time>
      </trkpt>
      <trkpt lat="45.01221" lon="6.03982">
        <ele>1517.8000488281</ele>
        <time>2021-03-21T08:15:49.000Z</time>
      </trkpt>
      <trkpt lat="45.01221" lon="6.03982">
        <ele>1518.1999511719</ele>
        <time>2021-03-21T08:15:50.000Z</time>
      </trkpt>
      <trkpt lat="45.01221" lon="6.03981">
        <ele>1519</ele>
        <time>2021-03-21T08:15:51.000Z</time>
      </trkpt>
      <trkpt lat="45.01221" lon="6.0398">
        <ele>1519.4000244141</ele>
        <time>2021-03-21T08:15:52.000Z</time>
      </trkpt>
      <trkpt lat="45.01221" lon="6.0398">
        <ele>1519.4000244141</ele>
        <time>2021-03-21T08:15:53.000Z</time>
      </trkpt>
      <trkpt lat="45.01222" lon="6.0398">
        <ele>1519.4000244141</ele>
        <time>2021-03-21T08:15:54.000Z</time>
      </trkpt>
      <trkpt lat="45.01221" lon="6.03981">
        <ele>1519.1999511719</ele>
        <time>2021-03-21T08:15:55.000Z</time>
      </trkpt>
      <trkpt lat="45.01221" lon="6.03981">
        <ele>1519.1999511719</ele>
        <time>2021-03-21T08:15:56.000Z</time>
      </trkpt>
      <trkpt lat="45.01221" lon="6.03981">
        <ele>1518.8000488281</ele>
        <time>2021-03-21T08:15:57.000Z</time>
      </trkpt>
      <trkpt lat="45.01221" lon="6.03981">
        <ele>1518.5999755859</ele>
        <time>2021-03-21T08:15:58.000Z</time>
      </trkpt>
      <trkpt lat="45.01221" lon="6.03981">
        <ele>1518.5999755859</ele>
        <time>2021-03-21T08:15:59.000Z</time>
      </trkpt>
      <trkpt lat="45.01221" lon="6.03981">
        <ele>1518.4000244141</ele>
        <time>2021-03-21T08:16:00.000Z</time>
      </trkpt>
      <trkpt lat="45.01221" lon="6.03982">
        <ele>1517.8000488281</ele>
        <time>2021-03-21T08:16:01.000Z</time>
      </trkpt>
      <trkpt lat="45.01221" lon="6.03982">
        <ele>1517.8000488281</ele>
        <time>2021-03-21T08:16:02.000Z</time>
      </trkpt>
      <trkpt lat="45.01221" lon="6.03982">
        <ele>1517.4000244141</ele>
        <time>2021-03-21T08:16:03.000Z</time>
      </trkpt>
      <trkpt lat="45.01221" lon="6.03982">
        <ele>1517.8000488281</ele>
        <time>2021-03-21T08:16:04.000Z</time>
      </trkpt>
      <trkpt lat="45.01222" lon="6.03982">
        <ele>1518.1999511719</ele>
        <time>2021-03-21T08:16:05.000Z</time>
      </trkpt>
      <trkpt lat="45.01222" lon="6.03981">
        <ele>1518.4000244141</ele>
        <time>2021-03-21T08:16:06.000Z</time>
      </trkpt>
      <trkpt lat="45.01222" lon="6.03981">
        <ele>1518.5999755859</ele>
        <time>2021-03-21T08:16:07.000Z</time>
      </trkpt>
      <trkpt lat="45.01222" lon="6.03981">
        <ele>1519</ele>
        <time>2021-03-21T08:16:08.000Z</time>
      </trkpt>
      <trkpt lat="45.01222" lon="6.0398">
        <ele>1520</ele>
        <time>2021-03-21T08:16:09.000Z</time>
      </trkpt>
      <trkpt lat="45.01223" lon="6.03979">
        <ele>1520.1999511719</ele>
        <time>2021-03-21T08:16:10.000Z</time>
      </trkpt>
      <trkpt lat="45.01223" lon="6.03979">
        <ele>1520.5999755859</ele>
        <time>2021-03-21T08:16:11.000Z</time>
      </trkpt>
      <trkpt lat="45.01223" lon="6.03979">
        <ele>1520.8000488281</ele>
        <time>2021-03-21T08:16:12.000Z</time>
      </trkpt>
      <trkpt lat="45.01224" lon="6.03979">
        <ele>1520.5999755859</ele>
        <time>2021-03-21T08:16:13.000Z</time>
      </trkpt>
      <trkpt lat="45.01224" lon="6.03978">
        <ele>1521</ele>
        <time>2021-03-21T08:16:14.000Z</time>
      </trkpt>
      <trkpt lat="45.01224" lon="6.03978">
        <ele>1521.8000488281</ele>
        <time>2021-03-21T08:16:15.000Z</time>
      </trkpt>
      <trkpt lat="45.01225" lon="6.03977">
        <ele>1522.5999755859</ele>
        <time>2021-03-21T08:16:16.000Z</time>
      </trkpt>
      <trkpt lat="45.01225" lon="6.03977">
        <ele>1522.1999511719</ele>
        <time>2021-03-21T08:16:17.000Z</time>
      </trkpt>
      <trkpt lat="45.01225" lon="6.03977">
        <ele>1522.4000244141</ele>
        <time>2021-03-21T08:16:18.000Z</time>
      </trkpt>
      <trkpt lat="45.01225" lon="6.03977">
        <ele>1522.1999511719</ele>
        <time>2021-03-21T08:16:19.000Z</time>
      </trkpt>
      <trkpt lat="45.01225" lon="6.03977">
        <ele>1521.8000488281</ele>
        <time>2021-03-21T08:16:20.000Z</time>
      </trkpt>
      <trkpt lat="45.01225" lon="6.03977">
        <ele>1522</ele>
        <time>2021-03-21T08:16:21.000Z</time>
      </trkpt>
      <trkpt lat="45.01225" lon="6.03978">
        <ele>1521.8000488281</ele>
        <time>2021-03-21T08:16:22.000Z</time>
      </trkpt>
      <trkpt lat="45.01225" lon="6.03978">
        <ele>1521.4000244141</ele>
        <time>2021-03-21T08:16:23.000Z</time>
      </trkpt>
      <trkpt lat="45.01224" lon="6.03978">
        <ele>1521.1999511719</ele>
        <time>2021-03-21T08:16:24.000Z</time>
      </trkpt>
      <trkpt lat="45.01224" lon="6.03978">
        <ele>1521</ele>
        <time>2021-03-21T08:16:25.000Z</time>
      </trkpt>
      <trkpt lat="45.01224" lon="6.03979">
        <ele>1521</ele>
        <time>2021-03-21T08:16:26.000Z</time>
      </trkpt>
      <trkpt lat="45.01224" lon="6.03978">
        <ele>1521</ele>
        <time>2021-03-21T08:16:27.000Z</time>
      </trkpt>
      <trkpt lat="45.01224" lon="6.03978">
        <ele>1521.4000244141</ele>
        <time>2021-03-21T08:16:28.000Z</time>
      </trkpt>
      <trkpt lat="45.01224" lon="6.03977">
        <ele>1522</ele>
        <time>2021-03-21T08:16:29.000Z</time>
      </trkpt>
      <trkpt lat="45.01224" lon="6.03977">
        <ele>1522.8000488281</ele>
        <time>2021-03-21T08:16:30.000Z</time>
      </trkpt>
      <trkpt lat="45.01224" lon="6.03976">
        <ele>1523</ele>
        <time>2021-03-21T08:16:31.000Z</time>
      </trkpt>
      <trkpt lat="45.01224" lon="6.03976">
        <ele>1523.1999511719</ele>
        <time>2021-03-21T08:16:32.000Z</time>
      </trkpt>
      <trkpt lat="45.01224" lon="6.03976">
        <ele>1523.5999755859</ele>
        <time>2021-03-21T08:16:33.000Z</time>
      </trkpt>
      <trkpt lat="45.01224" lon="6.03975">
        <ele>1523.8000488281</ele>
        <time>2021-03-21T08:16:34.000Z</time>
      </trkpt>
      <trkpt lat="45.01224" lon="6.03975">
        <ele>1523.8000488281</ele>
        <time>2021-03-21T08:16:35.000Z</time>
      </trkpt>
      <trkpt lat="45.01224" lon="6.03975">
        <ele>1524.1999511719</ele>
        <time>2021-03-21T08:16:36.000Z</time>
      </trkpt>
      <trkpt lat="45.01224" lon="6.03975">
        <ele>1523.8000488281</ele>
        <time>2021-03-21T08:16:37.000Z</time>
      </trkpt>
      <trkpt lat="45.01224" lon="6.03976">
        <ele>1523.8000488281</ele>
        <time>2021-03-21T08:16:38.000Z</time>
      </trkpt>
      <trkpt lat="45.01223" lon="6.03976">
        <ele>1523.4000244141</ele>
        <time>2021-03-21T08:16:39.000Z</time>
      </trkpt>
      <trkpt lat="45.01223" lon="6.03976">
        <ele>1523.4000244141</ele>
        <time>2021-03-21T08:16:40.000Z</time>
      </trkpt>
      <trkpt lat="45.01223" lon="6.03976">
        <ele>1523</ele>
        <time>2021-03-21T08:16:41.000Z</time>
      </trkpt>
      <trkpt lat="45.01222" lon="6.03977">
        <ele>1522.5999755859</ele>
        <time>2021-03-21T08:16:42.000Z</time>
      </trkpt>
      <trkpt lat="45.01222" lon="6.03978">
        <ele>1522</ele>
        <time>2021-03-21T08:16:43.000Z</time>
      </trkpt>
      <trkpt lat="45.01221" lon="6.03978">
        <ele>1521.4000244141</ele>
        <time>2021-03-21T08:16:44.000Z</time>
      </trkpt>
      <trkpt lat="45.01221" lon="6.03978">
        <ele>1521.1999511719</ele>
        <time>2021-03-21T08:16:45.000Z</time>
      </trkpt>
      <trkpt lat="45.0122" lon="6.03979">
        <ele>1520.5999755859</ele>
        <time>2021-03-21T08:16:46.000Z</time>
      </trkpt>
      <trkpt lat="45.0122" lon="6.03979">
        <ele>1520.4000244141</ele>
        <time>2021-03-21T08:16:47.000Z</time>
      </trkpt>
      <trkpt lat="45.01219" lon="6.0398">
        <ele>1520.1999511719</ele>
        <time>2021-03-21T08:16:48.000Z</time>
      </trkpt>
      <trkpt lat="45.01219" lon="6.0398">
        <ele>1519.8000488281</ele>
        <time>2021-03-21T08:16:49.000Z</time>
      </trkpt>
      <trkpt lat="45.01218" lon="6.0398">
        <ele>1519.5999755859</ele>
        <time>2021-03-21T08:16:50.000Z</time>
      </trkpt>
      <trkpt lat="45.01217" lon="6.03982">
        <ele>1518.5999755859</ele>
        <time>2021-03-21T08:16:51.000Z</time>
      </trkpt>
      <trkpt lat="45.01217" lon="6.03982">
        <ele>1518.4000244141</ele>
        <time>2021-03-21T08:16:52.000Z</time>
      </trkpt>
      <trkpt lat="45.01217" lon="6.03982">
        <ele>1518.4000244141</ele>
        <time>2021-03-21T08:16:53.000Z</time>
      </trkpt>
      <trkpt lat="45.01217" lon="6.03982">
        <ele>1518.4000244141</ele>
        <time>2021-03-21T08:16:54.000Z</time>
      </trkpt>
      <trkpt lat="45.01217" lon="6.03982">
        <ele>1518.4000244141</ele>
        <time>2021-03-21T08:16:55.000Z</time>
      </trkpt>
      <trkpt lat="45.01217" lon="6.03981">
        <ele>1518.8000488281</ele>
        <time>2021-03-21T08:16:56.000Z</time>
      </trkpt>
      <trkpt lat="45.01218" lon="6.03981">
        <ele>1519</ele>
        <time>2021-03-21T08:16:57.000Z</time>
      </trkpt>
      <trkpt lat="45.01218" lon="6.03981">
        <ele>1519</ele>
        <time>2021-03-21T08:16:58.000Z</time>
      </trkpt>
      <trkpt lat="45.01218" lon="6.0398">
        <ele>1519.5999755859</ele>
        <time>2021-03-21T08:16:59.000Z</time>
      </trkpt>
      <trkpt lat="45.01218" lon="6.0398">
        <ele>1520</ele>
        <time>2021-03-21T08:17:00.000Z</time>
      </trkpt>
      <trkpt lat="45.01218" lon="6.0398">
        <ele>1520.1999511719</ele>
        <time>2021-03-21T08:17:01.000Z</time>
      </trkpt>
      <trkpt lat="45.01218" lon="6.0398">
        <ele>1520.1999511719</ele>
        <time>2021-03-21T08:17:02.000Z</time>
      </trkpt>
      <trkpt lat="45.01218" lon="6.0398">
        <ele>1520</ele>
        <time>2021-03-21T08:17:03.000Z</time>
      </trkpt>
      <trkpt lat="45.01218" lon="6.0398">
        <ele>1519.8000488281</ele>
        <time>2021-03-21T08:17:04.000Z</time>
      </trkpt>
      <trkpt lat="45.01218" lon="6.0398">
        <ele>1519.5999755859</ele>
        <time>2021-03-21T08:17:05.000Z</time>
      </trkpt>
      <trkpt lat="45.01218" lon="6.03981">
        <ele>1519.5999755859</ele>
        <time>2021-03-21T08:17:06.000Z</time>
      </trkpt>
      <trkpt lat="45.01218" lon="6.03981">
        <ele>1519.1999511719</ele>
        <time>2021-03-21T08:17:07.000Z</time>
      </trkpt>
      <trkpt lat="45.01218" lon="6.03981">
        <ele>1519.1999511719</ele>
        <time>2021-03-21T08:17:08.000Z</time>
      </trkpt>
      <trkpt lat="45.01218" lon="6.03981">
        <ele>1518.8000488281</ele>
        <time>2021-03-21T08:17:09.000Z</time>
      </trkpt>
      <trkpt lat="45.01218" lon="6.03981">
        <ele>1519</ele>
        <time>2021-03-21T08:17:10.000Z</time>
      </trkpt>
      <trkpt lat="45.01219" lon="6.0398">
        <ele>1519.4000244141</ele>
        <time>2021-03-21T08:17:11.000Z</time>
      </trkpt>
      <trkpt lat="45.0122" lon="6.0398">
        <ele>1520</ele>
        <time>2021-03-21T08:17:12.000Z</time>
      </trkpt>
      <trkpt lat="45.0122" lon="6.03979">
        <ele>1520.5999755859</ele>
        <time>2021-03-21T08:17:13.000Z</time>
      </trkpt>
      <trkpt lat="45.01221" lon="6.03979">
        <ele>1521</ele>
        <time>2021-03-21T08:17:14.000Z</time>
      </trkpt>
      <trkpt lat="45.01222" lon="6.03978">
        <ele>1522</ele>
        <time>2021-03-21T08:17:15.000Z</time>
      </trkpt>
      <trkpt lat="45.01222" lon="6.03977">
        <ele>1522.4000244141</ele>
        <time>2021-03-21T08:17:16.000Z</time>
      </trkpt>
      <trkpt lat="45.01222" lon="6.03977">
        <ele>1522.8000488281</ele>
        <time>2021-03-21T08:17:17.000Z</time>
      </trkpt>
      <trkpt lat="45.01222" lon="6.03978">
        <ele>1522</ele>
        <time>2021-03-21T08:17:18.000Z</time>
      </trkpt>
      <trkpt lat="45.01221" lon="6.03978">
        <ele>1521.5999755859</ele>
        <time>2021-03-21T08:17:19.000Z</time>
      </trkpt>
      <trkpt lat="45.01221" lon="6.03979">
        <ele>1520.8000488281</ele>
        <time>2021-03-21T08:17:20.000Z</time>
      </trkpt>
      <trkpt lat="45.0122" lon="6.0398">
        <ele>1520.1999511719</ele>
        <time>2021-03-21T08:17:21.000Z</time>
      </trkpt>
      <trkpt lat="45.0122" lon="6.0398">
        <ele>1519.8000488281</ele>
        <time>2021-03-21T08:17:22.000Z</time>
      </trkpt>
      <trkpt lat="45.0122" lon="6.03981">
        <ele>1518.8000488281</ele>
        <time>2021-03-21T08:17:23.000Z</time>
      </trkpt>
      <trkpt lat="45.01219" lon="6.03983">
        <ele>1516.5999755859</ele>
        <time>2021-03-21T08:17:24.000Z</time>
      </trkpt>
      <trkpt lat="45.01219" lon="6.03985">
        <ele>1515.4000244141</ele>
        <time>2021-03-21T08:17:25.000Z</time>
      </trkpt>
      <trkpt lat="45.01219" lon="6.03986">
        <ele>1514</ele>
        <time>2021-03-21T08:17:26.000Z</time>
      </trkpt>
      <trkpt lat="45.01219" lon="6.03987">
        <ele>1512.8000488281</ele>
        <time>2021-03-21T08:17:27.000Z</time>
      </trkpt>
      <trkpt lat="45.01219" lon="6.03988">
        <ele>1512.1999511719</ele>
        <time>2021-03-21T08:17:28.000Z</time>
      </trkpt>
      <trkpt lat="45.01218" lon="6.03989">
        <ele>1512</ele>
        <time>2021-03-21T08:17:29.000Z</time>
      </trkpt>
      <trkpt lat="45.01219" lon="6.03989">
        <ele>1512</ele>
        <time>2021-03-21T08:17:30.000Z</time>
      </trkpt>
      <trkpt lat="45.01219" lon="6.03989">
        <ele>1511.8000488281</ele>
        <time>2021-03-21T08:17:31.000Z</time>
      </trkpt>
      <trkpt lat="45.01219" lon="6.03989">
        <ele>1511.5999755859</ele>
        <time>2021-03-21T08:17:32.000Z</time>
      </trkpt>
      <trkpt lat="45.01219" lon="6.03989">
        <ele>1511.5999755859</ele>
        <time>2021-03-21T08:17:33.000Z</time>
      </trkpt>
      <trkpt lat="45.01219" lon="6.03989">
        <ele>1511.8000488281</ele>
        <time>2021-03-21T08:17:34.000Z</time>
      </trkpt>
      <trkpt lat="45.01219" lon="6.03989">
        <ele>1511.8000488281</ele>
        <time>2021-03-21T08:17:35.000Z</time>
      </trkpt>
      <trkpt lat="45.01219" lon="6.03989">
        <ele>1511.8000488281</ele>
        <time>2021-03-21T08:17:36.000Z</time>
      </trkpt>
      <trkpt lat="45.01218" lon="6.0399">
        <ele>1511.1999511719</ele>
        <time>2021-03-21T08:17:37.000Z</time>
      </trkpt>
      <trkpt lat="45.01219" lon="6.03991">
        <ele>1510.8000488281</ele>
        <time>2021-03-21T08:17:38.000Z</time>
      </trkpt>
      <trkpt lat="45.01218" lon="6.03991">
        <ele>1510.1999511719</ele>
        <time>2021-03-21T08:17:39.000Z</time>
      </trkpt>
      <trkpt lat="45.01218" lon="6.03993">
        <ele>1509.1999511719</ele>
        <time>2021-03-21T08:17:40.000Z</time>
      </trkpt>
      <trkpt lat="45.01218" lon="6.03995">
        <ele>1508.1999511719</ele>
        <time>2021-03-21T08:17:41.000Z</time>
      </trkpt>
      <trkpt lat="45.01218" lon="6.03996">
        <ele>1507.4000244141</ele>
        <time>2021-03-21T08:17:42.000Z</time>
      </trkpt>
      <trkpt lat="45.0122" lon="6.03997">
        <ele>1506.4000244141</ele>
        <time>2021-03-21T08:17:43.000Z</time>
      </trkpt>
      <trkpt lat="45.0122" lon="6.03998">
        <ele>1505.8000488281</ele>
        <time>2021-03-21T08:17:44.000Z</time>
      </trkpt>
      <trkpt lat="45.0122" lon="6.03999">
        <ele>1504.8000488281</ele>
        <time>2021-03-21T08:17:45.000Z</time>
      </trkpt>
      <trkpt lat="45.01219" lon="6.04001">
        <ele>1503.5999755859</ele>
        <time>2021-03-21T08:17:46.000Z</time>
      </trkpt>
      <trkpt lat="45.01219" lon="6.04002">
        <ele>1502.8000488281</ele>
        <time>2021-03-21T08:17:47.000Z</time>
      </trkpt>
      <trkpt lat="45.01219" lon="6.04002">
        <ele>1502</ele>
        <time>2021-03-21T08:17:48.000Z</time>
      </trkpt>
      <trkpt lat="45.01219" lon="6.04003">
        <ele>1501.8000488281</ele>
        <time>2021-03-21T08:17:49.000Z</time>
      </trkpt>
      <trkpt lat="45.01219" lon="6.04003">
        <ele>1501.5999755859</ele>
        <time>2021-03-21T08:17:50.000Z</time>
      </trkpt>
      <trkpt lat="45.01219" lon="6.04004">
        <ele>1500.5999755859</ele>
        <time>2021-03-21T08:17:51.000Z</time>
      </trkpt>
      <trkpt lat="45.01219" lon="6.04005">
        <ele>1499.5999755859</ele>
        <time>2021-03-21T08:17:52.000Z</time>
      </trkpt>
      <trkpt lat="45.01219" lon="6.04006">
        <ele>1498.5999755859</ele>
        <time>2021-03-21T08:17:53.000Z</time>
      </trkpt>
      <trkpt lat="45.01219" lon="6.04007">
        <ele>1497.8000488281</ele>
        <time>2021-03-21T08:17:54.000Z</time>
      </trkpt>
      <trkpt lat="45.01218" lon="6.04008">
        <ele>1496.8000488281</ele>
        <time>2021-03-21T08:17:55.000Z</time>
      </trkpt>
      <trkpt lat="45.01218" lon="6.04009">
        <ele>1496</ele>
        <time>2021-03-21T08:17:56.000Z</time>
      </trkpt>
      <trkpt lat="45.01218" lon="6.04011">
        <ele>1494.5999755859</ele>
        <time>2021-03-21T08:17:57.000Z</time>
      </trkpt>
      <trkpt lat="45.01218" lon="6.04012">
        <ele>1493.8000488281</ele>
        <time>2021-03-21T08:17:58.000Z</time>
      </trkpt>
      <trkpt lat="45.01217" lon="6.04013">
        <ele>1492.8000488281</ele>
        <time>2021-03-21T08:17:59.000Z</time>
      </trkpt>
      <trkpt lat="45.01217" lon="6.04014">
        <ele>1492.1999511719</ele>
        <time>2021-03-21T08:18:00.000Z</time>
      </trkpt>
      <trkpt lat="45.01217" lon="6.04014">
        <ele>1492</ele>
        <time>2021-03-21T08:18:01.000Z</time>
      </trkpt>
      <trkpt lat="45.01217" lon="6.04014">
        <ele>1491.8000488281</ele>
        <time>2021-03-21T08:18:02.000Z</time>
      </trkpt>
      <trkpt lat="45.01217" lon="6.04015">
        <ele>1491.4000244141</ele>
        <time>2021-03-21T08:18:03.000Z</time>
      </trkpt>
      <trkpt lat="45.01217" lon="6.04015">
        <ele>1490.8000488281</ele>
        <time>2021-03-21T08:18:04.000Z</time>
      </trkpt>
      <trkpt lat="45.01216" lon="6.04016">
        <ele>1490.5999755859</ele>
        <time>2021-03-21T08:18:05.000Z</time>
      </trkpt>
      <trkpt lat="45.01216" lon="6.04017">
        <ele>1490.4000244141</ele>
        <time>2021-03-21T08:18:06.000Z</time>
      </trkpt>
      <trkpt lat="45.01215" lon="6.04017">
        <ele>1490</ele>
        <time>2021-03-21T08:18:07.000Z</time>
      </trkpt>
      <trkpt lat="45.01215" lon="6.04018">
        <ele>1489.8000488281</ele>
        <time>2021-03-21T08:18:08.000Z</time>
      </trkpt>
      <trkpt lat="45.01214" lon="6.04019">
        <ele>1489.5999755859</ele>
        <time>2021-03-21T08:18:09.000Z</time>
      </trkpt>
      <trkpt lat="45.01213" lon="6.04019">
        <ele>1489.4000244141</ele>
        <time>2021-03-21T08:18:10.000Z</time>
      </trkpt>
      <trkpt lat="45.01213" lon="6.04019">
        <ele>1489.1999511719</ele>
        <time>2021-03-21T08:18:11.000Z</time>
      </trkpt>
      <trkpt lat="45.01212" lon="6.04019">
        <ele>1489</ele>
        <time>2021-03-21T08:18:12.000Z</time>
      </trkpt>
      <trkpt lat="45.01211" lon="6.04019">
        <ele>1488.5999755859</ele>
        <time>2021-03-21T08:18:13.000Z</time>
      </trkpt>
      <trkpt lat="45.0121" lon="6.04018">
        <ele>1488.1999511719</ele>
        <time>2021-03-21T08:18:14.000Z</time>
      </trkpt>
      <trkpt lat="45.01209" lon="6.04018">
        <ele>1488.1999511719</ele>
        <time>2021-03-21T08:18:15.000Z</time>
      </trkpt>
      <trkpt lat="45.01208" lon="6.04018">
        <ele>1488.1999511719</ele>
        <time>2021-03-21T08:18:16.000Z</time>
      </trkpt>
      <trkpt lat="45.01207" lon="6.04017">
        <ele>1488.5999755859</ele>
        <time>2021-03-21T08:18:17.000Z</time>
      </trkpt>
      <trkpt lat="45.01207" lon="6.04017">
        <ele>1488.8000488281</ele>
        <time>2021-03-21T08:18:18.000Z</time>
      </trkpt>
      <trkpt lat="45.01206" lon="6.04017">
        <ele>1489.1999511719</ele>
        <time>2021-03-21T08:18:19.000Z</time>
      </trkpt>
      <trkpt lat="45.01206" lon="6.04017">
        <ele>1489.4000244141</ele>
        <time>2021-03-21T08:18:20.000Z</time>
      </trkpt>
      <trkpt lat="45.01205" lon="6.04017">
        <ele>1489.5999755859</ele>
        <time>2021-03-21T08:18:21.000Z</time>
      </trkpt>
      <trkpt lat="45.01204" lon="6.04016">
        <ele>1490.1999511719</ele>
        <time>2021-03-21T08:18:22.000Z</time>
      </trkpt>
      <trkpt lat="45.01204" lon="6.04015">
        <ele>1490.8000488281</ele>
        <time>2021-03-21T08:18:23.000Z</time>
      </trkpt>
      <trkpt lat="45.01203" lon="6.04015">
        <ele>1491.1999511719</ele>
        <time>2021-03-21T08:18:24.000Z</time>
      </trkpt>
      <trkpt lat="45.01202" lon="6.04014">
        <ele>1491.5999755859</ele>
        <time>2021-03-21T08:18:25.000Z</time>
      </trkpt>
      <trkpt lat="45.01202" lon="6.04014">
        <ele>1491.8000488281</ele>
        <time>2021-03-21T08:18:26.000Z</time>
      </trkpt>
      <trkpt lat="45.01201" lon="6.04013">
        <ele>1492.4000244141</ele>
        <time>2021-03-21T08:18:27.000Z</time>
      </trkpt>
      <trkpt lat="45.01201" lon="6.04013">
        <ele>1493</ele>
        <time>2021-03-21T08:18:28.000Z</time>
      </trkpt>
      <trkpt lat="45.01199" lon="6.04011">
        <ele>1493.8000488281</ele>
        <time>2021-03-21T08:18:29.000Z</time>
      </trkpt>
      <trkpt lat="45.01199" lon="6.04011">
        <ele>1494.4000244141</ele>
        <time>2021-03-21T08:18:30.000Z</time>
      </trkpt>
      <trkpt lat="45.01198" lon="6.0401">
        <ele>1495</ele>
        <time>2021-03-21T08:18:31.000Z</time>
      </trkpt>
      <trkpt lat="45.01196" lon="6.04009">
        <ele>1495.8000488281</ele>
        <time>2021-03-21T08:18:32.000Z</time>
      </trkpt>
      <trkpt lat="45.01195" lon="6.04008">
        <ele>1496.5999755859</ele>
        <time>2021-03-21T08:18:33.000Z</time>
      </trkpt>
      <trkpt lat="45.01194" lon="6.04007">
        <ele>1497.1999511719</ele>
        <time>2021-03-21T08:18:34.000Z</time>
      </trkpt>
      <trkpt lat="45.01193" lon="6.04006">
        <ele>1498.1999511719</ele>
        <time>2021-03-21T08:18:35.000Z</time>
      </trkpt>
      <trkpt lat="45.01192" lon="6.04005">
        <ele>1499</ele>
        <time>2021-03-21T08:18:36.000Z</time>
      </trkpt>
      <trkpt lat="45.01191" lon="6.04004">
        <ele>1499.8000488281</ele>
        <time>2021-03-21T08:18:37.000Z</time>
      </trkpt>
      <trkpt lat="45.0119" lon="6.04003">
        <ele>1500.5999755859</ele>
        <time>2021-03-21T08:18:38.000Z</time>
      </trkpt>
      <trkpt lat="45.01188" lon="6.04001">
        <ele>1501.5999755859</ele>
        <time>2021-03-21T08:18:39.000Z</time>
      </trkpt>
      <trkpt lat="45.01187" lon="6.04001">
        <ele>1502.1999511719</ele>
        <time>2021-03-21T08:18:40.000Z</time>
      </trkpt>
      <trkpt lat="45.01186" lon="6.04001">
        <ele>1502.4000244141</ele>
        <time>2021-03-21T08:18:41.000Z</time>
      </trkpt>
      <trkpt lat="45.01185" lon="6.04">
        <ele>1502.8000488281</ele>
        <time>2021-03-21T08:18:42.000Z</time>
      </trkpt>
      <trkpt lat="45.01184" lon="6.04">
        <ele>1503.4000244141</ele>
        <time>2021-03-21T08:18:43.000Z</time>
      </trkpt>
      <trkpt lat="45.01183" lon="6.03999">
        <ele>1503.8000488281</ele>
        <time>2021-03-21T08:18:44.000Z</time>
      </trkpt>
      <trkpt lat="45.01182" lon="6.03999">
        <ele>1504</ele>
        <time>2021-03-21T08:18:45.000Z</time>
      </trkpt>
      <trkpt lat="45.01182" lon="6.03998">
        <ele>1504.4000244141</ele>
        <time>2021-03-21T08:18:46.000Z</time>
      </trkpt>
      <trkpt lat="45.01181" lon="6.03998">
        <ele>1504.8000488281</ele>
        <time>2021-03-21T08:18:47.000Z</time>
      </trkpt>
      <trkpt lat="45.0118" lon="6.03998">
        <ele>1504.5999755859</ele>
        <time>2021-03-21T08:18:48.000Z</time>
      </trkpt>
      <trkpt lat="45.01179" lon="6.03998">
        <ele>1504.4000244141</ele>
        <time>2021-03-21T08:18:49.000Z</time>
      </trkpt>
      <trkpt lat="45.01178" lon="6.03997">
        <ele>1504.1999511719</ele>
        <time>2021-03-21T08:18:50.000Z</time>
      </trkpt>
      <trkpt lat="45.01177" lon="6.03997">
        <ele>1504</ele>
        <time>2021-03-21T08:18:51.000Z</time>
      </trkpt>
      <trkpt lat="45.01176" lon="6.03997">
        <ele>1503.8000488281</ele>
        <time>2021-03-21T08:18:52.000Z</time>
      </trkpt>
      <trkpt lat="45.01175" lon="6.03997">
        <ele>1503.1999511719</ele>
        <time>2021-03-21T08:18:53.000Z</time>
      </trkpt>
      <trkpt lat="45.01174" lon="6.03997">
        <ele>1503</ele>
        <time>2021-03-21T08:18:54.000Z</time>
      </trkpt>
      <trkpt lat="45.01173" lon="6.03997">
        <ele>1502.5999755859</ele>
        <time>2021-03-21T08:18:55.000Z</time>
      </trkpt>
      <trkpt lat="45.01172" lon="6.03997">
        <ele>1502.4000244141</ele>
        <time>2021-03-21T08:18:56.000Z</time>
      </trkpt>
      <trkpt lat="45.01171" lon="6.03997">
        <ele>1502</ele>
        <time>2021-03-21T08:18:57.000Z</time>
      </trkpt>
      <trkpt lat="45.0117" lon="6.03997">
        <ele>1501.5999755859</ele>
        <time>2021-03-21T08:18:58.000Z</time>
      </trkpt>
      <trkpt lat="45.01169" lon="6.03997">
        <ele>1501.4000244141</ele>
        <time>2021-03-21T08:18:59.000Z</time>
      </trkpt>
      <trkpt lat="45.01168" lon="6.03997">
        <ele>1501.1999511719</ele>
        <time>2021-03-21T08:19:00.000Z</time>
      </trkpt>
      <trkpt lat="45.01167" lon="6.03997">
        <ele>1501</ele>
        <time>2021-03-21T08:19:01.000Z</time>
      </trkpt>
      <trkpt lat="45.01166" lon="6.03997">
        <ele>1500.5999755859</ele>
        <time>2021-03-21T08:19:02.000Z</time>
      </trkpt>
      <trkpt lat="45.01165" lon="6.03997">
        <ele>1500.4000244141</ele>
        <time>2021-03-21T08:19:03.000Z</time>
      </trkpt>
      <trkpt lat="45.01164" lon="6.03996">
        <ele>1500.4000244141</ele>
        <time>2021-03-21T08:19:04.000Z</time>
      </trkpt>
      <trkpt lat="45.01163" lon="6.03996">
        <ele>1500.1999511719</ele>
        <time>2021-03-21T08:19:05.000Z</time>
      </trkpt>
      <trkpt lat="45.01163" lon="6.03996">
        <ele>1500.1999511719</ele>
        <time>2021-03-21T08:19:06.000Z</time>
      </trkpt>
      <trkpt lat="45.01162" lon="6.03995">
        <ele>1500.1999511719</ele>
        <time>2021-03-21T08:19:07.000Z</time>
      </trkpt>
      <trkpt lat="45.01161" lon="6.03995">
        <ele>1499.8000488281</ele>
        <time>2021-03-21T08:19:08.000Z</time>
      </trkpt>
      <trkpt lat="45.0116" lon="6.03995">
        <ele>1499.5999755859</ele>
        <time>2021-03-21T08:19:09.000Z</time>
      </trkpt>
      <trkpt lat="45.01159" lon="6.03995">
        <ele>1499.1999511719</ele>
        <time>2021-03-21T08:19:10.000Z</time>
      </trkpt>
      <trkpt lat="45.01158" lon="6.03995">
        <ele>1499</ele>
        <time>2021-03-21T08:19:11.000Z</time>
      </trkpt>
      <trkpt lat="45.01157" lon="6.03995">
        <ele>1498.5999755859</ele>
        <time>2021-03-21T08:19:12.000Z</time>
      </trkpt>
      <trkpt lat="45.01156" lon="6.03995">
        <ele>1498.4000244141</ele>
        <time>2021-03-21T08:19:13.000Z</time>
      </trkpt>
      <trkpt lat="45.01155" lon="6.03995">
        <ele>1498.1999511719</ele>
        <time>2021-03-21T08:19:14.000Z</time>
      </trkpt>
      <trkpt lat="45.01155" lon="6.03995">
        <ele>1498</ele>
        <time>2021-03-21T08:19:15.000Z</time>
      </trkpt>
      <trkpt lat="45.01154" lon="6.03995">
        <ele>1497.8000488281</ele>
        <time>2021-03-21T08:19:16.000Z</time>
      </trkpt>
      <trkpt lat="45.01153" lon="6.03994">
        <ele>1497.5999755859</ele>
        <time>2021-03-21T08:19:17.000Z</time>
      </trkpt>
      <trkpt lat="45.01153" lon="6.03994">
        <ele>1497.5999755859</ele>
        <time>2021-03-21T08:19:18.000Z</time>
      </trkpt>
      <trkpt lat="45.01152" lon="6.03994">
        <ele>1497.5999755859</ele>
        <time>2021-03-21T08:19:19.000Z</time>
      </trkpt>
      <trkpt lat="45.01151" lon="6.03994">
        <ele>1497.5999755859</ele>
        <time>2021-03-21T08:19:20.000Z</time>
      </trkpt>
      <trkpt lat="45.01151" lon="6.03993">
        <ele>1497.5999755859</ele>
        <time>2021-03-21T08:19:21.000Z</time>
      </trkpt>
      <trkpt lat="45.0115" lon="6.03994">
        <ele>1497</ele>
        <time>2021-03-21T08:19:22.000Z</time>
      </trkpt>
      <trkpt lat="45.01149" lon="6.03994">
        <ele>1496.4000244141</ele>
        <time>2021-03-21T08:19:23.000Z</time>
      </trkpt>
      <trkpt lat="45.01149" lon="6.03995">
        <ele>1495.8000488281</ele>
        <time>2021-03-21T08:19:24.000Z</time>
      </trkpt>
      <trkpt lat="45.01148" lon="6.03995">
        <ele>1495.5999755859</ele>
        <time>2021-03-21T08:19:25.000Z</time>
      </trkpt>
      <trkpt lat="45.01147" lon="6.03995">
        <ele>1495.4000244141</ele>
        <time>2021-03-21T08:19:26.000Z</time>
      </trkpt>
      <trkpt lat="45.01147" lon="6.03995">
        <ele>1495.1999511719</ele>
        <time>2021-03-21T08:19:27.000Z</time>
      </trkpt>
      <trkpt lat="45.01146" lon="6.03994">
        <ele>1495.5999755859</ele>
        <time>2021-03-21T08:19:28.000Z</time>
      </trkpt>
      <trkpt lat="45.01145" lon="6.03994">
        <ele>1495.4000244141</ele>
        <time>2021-03-21T08:19:29.000Z</time>
      </trkpt>
      <trkpt lat="45.01144" lon="6.03993">
        <ele>1495.4000244141</ele>
        <time>2021-03-21T08:19:30.000Z</time>
      </trkpt>
      <trkpt lat="45.01143" lon="6.03993">
        <ele>1495</ele>
        <time>2021-03-21T08:19:31.000Z</time>
      </trkpt>
      <trkpt lat="45.01142" lon="6.03994">
        <ele>1494.5999755859</ele>
        <time>2021-03-21T08:19:32.000Z</time>
      </trkpt>
      <trkpt lat="45.01141" lon="6.03994">
        <ele>1493.8000488281</ele>
        <time>2021-03-21T08:19:33.000Z</time>
      </trkpt>
      <trkpt lat="45.0114" lon="6.03995">
        <ele>1493.1999511719</ele>
        <time>2021-03-21T08:19:34.000Z</time>
      </trkpt>
      <trkpt lat="45.0114" lon="6.03995">
        <ele>1492.8000488281</ele>
        <time>2021-03-21T08:19:35.000Z</time>
      </trkpt>
      <trkpt lat="45.01139" lon="6.03996">
        <ele>1492.1999511719</ele>
        <time>2021-03-21T08:19:36.000Z</time>
      </trkpt>
      <trkpt lat="45.01138" lon="6.03997">
        <ele>1491.1999511719</ele>
        <time>2021-03-21T08:19:37.000Z</time>
      </trkpt>
      <trkpt lat="45.01138" lon="6.03998">
        <ele>1490.5999755859</ele>
        <time>2021-03-21T08:19:38.000Z</time>
      </trkpt>
      <trkpt lat="45.01137" lon="6.03998">
        <ele>1490.4000244141</ele>
        <time>2021-03-21T08:19:39.000Z</time>
      </trkpt>
      <trkpt lat="45.01136" lon="6.03998">
        <ele>1489.8000488281</ele>
        <time>2021-03-21T08:19:40.000Z</time>
      </trkpt>
      <trkpt lat="45.01136" lon="6.03999">
        <ele>1489.4000244141</ele>
        <time>2021-03-21T08:19:41.000Z</time>
      </trkpt>
      <trkpt lat="45.01134" lon="6.03999">
        <ele>1488.8000488281</ele>
        <time>2021-03-21T08:19:42.000Z</time>
      </trkpt>
      <trkpt lat="45.01133" lon="6.04">
        <ele>1488.1999511719</ele>
        <time>2021-03-21T08:19:43.000Z</time>
      </trkpt>
      <trkpt lat="45.01133" lon="6.04001">
        <ele>1487.5999755859</ele>
        <time>2021-03-21T08:19:44.000Z</time>
      </trkpt>
      <trkpt lat="45.01132" lon="6.04002">
        <ele>1487</ele>
        <time>2021-03-21T08:19:45.000Z</time>
      </trkpt>
      <trkpt lat="45.01131" lon="6.04003">
        <ele>1486.1999511719</ele>
        <time>2021-03-21T08:19:46.000Z</time>
      </trkpt>
      <trkpt lat="45.0113" lon="6.04004">
        <ele>1485.5999755859</ele>
        <time>2021-03-21T08:19:47.000Z</time>
      </trkpt>
      <trkpt lat="45.0113" lon="6.04005">
        <ele>1485</ele>
        <time>2021-03-21T08:19:48.000Z</time>
      </trkpt>
      <trkpt lat="45.01129" lon="6.04006">
        <ele>1484.4000244141</ele>
        <time>2021-03-21T08:19:49.000Z</time>
      </trkpt>
      <trkpt lat="45.01128" lon="6.04007">
        <ele>1483.8000488281</ele>
        <time>2021-03-21T08:19:50.000Z</time>
      </trkpt>
      <trkpt lat="45.01127" lon="6.04007">
        <ele>1483.4000244141</ele>
        <time>2021-03-21T08:19:51.000Z</time>
      </trkpt>
      <trkpt lat="45.01126" lon="6.04008">
        <ele>1482.8000488281</ele>
        <time>2021-03-21T08:19:52.000Z</time>
      </trkpt>
      <trkpt lat="45.01125" lon="6.04008">
        <ele>1482.4000244141</ele>
        <time>2021-03-21T08:19:53.000Z</time>
      </trkpt>
      <trkpt lat="45.01124" lon="6.04009">
        <ele>1482.4000244141</ele>
        <time>2021-03-21T08:19:54.000Z</time>
      </trkpt>
      <trkpt lat="45.01123" lon="6.04009">
        <ele>1482.1999511719</ele>
        <time>2021-03-21T08:19:55.000Z</time>
      </trkpt>
      <trkpt lat="45.01123" lon="6.0401">
        <ele>1482</ele>
        <time>2021-03-21T08:19:56.000Z</time>
      </trkpt>
      <trkpt lat="45.01121" lon="6.04011">
        <ele>1482</ele>
        <time>2021-03-21T08:19:57.000Z</time>
      </trkpt>
      <trkpt lat="45.0112" lon="6.04011">
        <ele>1481.5999755859</ele>
        <time>2021-03-21T08:19:58.000Z</time>
      </trkpt>
      <trkpt lat="45.0112" lon="6.04011">
        <ele>1480.1999511719</ele>
        <time>2021-03-21T08:19:59.000Z</time>
      </trkpt>
      <trkpt lat="45.01119" lon="6.04011">
        <ele>1479.1999511719</ele>
        <time>2021-03-21T08:20:00.000Z</time>
      </trkpt>
      <trkpt lat="45.01118" lon="6.04012">
        <ele>1477.5999755859</ele>
        <time>2021-03-21T08:20:01.000Z</time>
      </trkpt>
      <trkpt lat="45.01117" lon="6.04012">
        <ele>1476.4000244141</ele>
        <time>2021-03-21T08:20:02.000Z</time>
      </trkpt>
      <trkpt lat="45.01116" lon="6.04013">
        <ele>1474.8000488281</ele>
        <time>2021-03-21T08:20:03.000Z</time>
      </trkpt>
      <trkpt lat="45.01115" lon="6.04014">
        <ele>1473</ele>
        <time>2021-03-21T08:20:04.000Z</time>
      </trkpt>
      <trkpt lat="45.01115" lon="6.04014">
        <ele>1472.1999511719</ele>
        <time>2021-03-21T08:20:05.000Z</time>
      </trkpt>
      <trkpt lat="45.01114" lon="6.04014">
        <ele>1470.4000244141</ele>
        <time>2021-03-21T08:20:06.000Z</time>
      </trkpt>
      <trkpt lat="45.01113" lon="6.04015">
        <ele>1469.1999511719</ele>
        <time>2021-03-21T08:20:07.000Z</time>
      </trkpt>
      <trkpt lat="45.01112" lon="6.04016">
        <ele>1468</ele>
        <time>2021-03-21T08:20:08.000Z</time>
      </trkpt>
      <trkpt lat="45.0111" lon="6.04017">
        <ele>1466</ele>
        <time>2021-03-21T08:20:09.000Z</time>
      </trkpt>
      <trkpt lat="45.0111" lon="6.04018">
        <ele>1464.8000488281</ele>
        <time>2021-03-21T08:20:10.000Z</time>
      </trkpt>
      <trkpt lat="45.01108" lon="6.04021">
        <ele>1462.4000244141</ele>
        <time>2021-03-21T08:20:11.000Z</time>
      </trkpt>
      <trkpt lat="45.01107" lon="6.04023">
        <ele>1460.4000244141</ele>
        <time>2021-03-21T08:20:12.000Z</time>
      </trkpt>
      <trkpt lat="45.01106" lon="6.04025">
        <ele>1458.4000244141</ele>
        <time>2021-03-21T08:20:13.000Z</time>
      </trkpt>
      <trkpt lat="45.01105" lon="6.04027">
        <ele>1456.5999755859</ele>
        <time>2021-03-21T08:20:14.000Z</time>
      </trkpt>
      <trkpt lat="45.01104" lon="6.04028">
        <ele>1455</ele>
        <time>2021-03-21T08:20:15.000Z</time>
      </trkpt>
      <trkpt lat="45.01103" lon="6.04029">
        <ele>1453.5999755859</ele>
        <time>2021-03-21T08:20:16.000Z</time>
      </trkpt>
      <trkpt lat="45.01102" lon="6.0403">
        <ele>1452.5999755859</ele>
        <time>2021-03-21T08:20:17.000Z</time>
      </trkpt>
      <trkpt lat="45.01101" lon="6.04031">
        <ele>1451.5999755859</ele>
        <time>2021-03-21T08:20:18.000Z</time>
      </trkpt>
      <trkpt lat="45.011" lon="6.04031">
        <ele>1450.4000244141</ele>
        <time>2021-03-21T08:20:19.000Z</time>
      </trkpt>
      <trkpt lat="45.01099" lon="6.04032">
        <ele>1449.1999511719</ele>
        <time>2021-03-21T08:20:20.000Z</time>
      </trkpt>
      <trkpt lat="45.01098" lon="6.04032">
        <ele>1448.4000244141</ele>
        <time>2021-03-21T08:20:21.000Z</time>
      </trkpt>
      <trkpt lat="45.01097" lon="6.04033">
        <ele>1447.5999755859</ele>
        <time>2021-03-21T08:20:22.000Z</time>
      </trkpt>
      <trkpt lat="45.01096" lon="6.04033">
        <ele>1447.1999511719</ele>
        <time>2021-03-21T08:20:23.000Z</time>
      </trkpt>
      <trkpt lat="45.01095" lon="6.04034">
        <ele>1446.8000488281</ele>
        <time>2021-03-21T08:20:24.000Z</time>
      </trkpt>
      <trkpt lat="45.01095" lon="6.04034">
        <ele>1446.4000244141</ele>
        <time>2021-03-21T08:20:25.000Z</time>
      </trkpt>
      <trkpt lat="45.01093" lon="6.04035">
        <ele>1445.8000488281</ele>
        <time>2021-03-21T08:20:26.000Z</time>
      </trkpt>
      <trkpt lat="45.01092" lon="6.04036">
        <ele>1445.4000244141</ele>
        <time>2021-03-21T08:20:27.000Z</time>
      </trkpt>
      <trkpt lat="45.01091" lon="6.04037">
        <ele>1445</ele>
        <time>2021-03-21T08:20:28.000Z</time>
      </trkpt>
      <trkpt lat="45.0109" lon="6.04037">
        <ele>1446</ele>
        <time>2021-03-21T08:20:29.000Z</time>
      </trkpt>
      <trkpt lat="45.01089" lon="6.04038">
        <ele>1447.4000244141</ele>
        <time>2021-03-21T08:20:30.000Z</time>
      </trkpt>
      <trkpt lat="45.01088" lon="6.04039">
        <ele>1448.4000244141</ele>
        <time>2021-03-21T08:20:31.000Z</time>
      </trkpt>
      <trkpt lat="45.01087" lon="6.0404">
        <ele>1449.1999511719</ele>
        <time>2021-03-21T08:20:32.000Z</time>
      </trkpt>
      <trkpt lat="45.01086" lon="6.0404">
        <ele>1449.8000488281</ele>
        <time>2021-03-21T08:20:33.000Z</time>
      </trkpt>
      <trkpt lat="45.01086" lon="6.0404">
        <ele>1450.4000244141</ele>
        <time>2021-03-21T08:20:34.000Z</time>
      </trkpt>
      <trkpt lat="45.01085" lon="6.0404">
        <ele>1451</ele>
        <time>2021-03-21T08:20:35.000Z</time>
      </trkpt>
      <trkpt lat="45.01084" lon="6.04041">
        <ele>1451.8000488281</ele>
        <time>2021-03-21T08:20:36.000Z</time>
      </trkpt>
      <trkpt lat="45.01083" lon="6.04042">
        <ele>1452.4000244141</ele>
        <time>2021-03-21T08:20:37.000Z</time>
      </trkpt>
      <trkpt lat="45.01083" lon="6.04043">
        <ele>1453.1999511719</ele>
        <time>2021-03-21T08:20:38.000Z</time>
      </trkpt>
      <trkpt lat="45.01082" lon="6.04044">
        <ele>1452.8000488281</ele>
        <time>2021-03-21T08:20:39.000Z</time>
      </trkpt>
      <trkpt lat="45.01081" lon="6.04045">
        <ele>1452.4000244141</ele>
        <time>2021-03-21T08:20:40.000Z</time>
      </trkpt>
      <trkpt lat="45.0108" lon="6.04047">
        <ele>1452</ele>
        <time>2021-03-21T08:20:41.000Z</time>
      </trkpt>
      <trkpt lat="45.01079" lon="6.04048">
        <ele>1452</ele>
        <time>2021-03-21T08:20:42.000Z</time>
      </trkpt>
      <trkpt lat="45.01079" lon="6.04048">
        <ele>1451.8000488281</ele>
        <time>2021-03-21T08:20:43.000Z</time>
      </trkpt>
      <trkpt lat="45.0108" lon="6.04048">
        <ele>1451.5999755859</ele>
        <time>2021-03-21T08:20:44.000Z</time>
      </trkpt>
      <trkpt lat="45.0108" lon="6.04049">
        <ele>1451</ele>
        <time>2021-03-21T08:20:45.000Z</time>
      </trkpt>
      <trkpt lat="45.0108" lon="6.04048">
        <ele>1451</ele>
        <time>2021-03-21T08:20:46.000Z</time>
      </trkpt>
      <trkpt lat="45.0108" lon="6.04048">
        <ele>1451</ele>
        <time>2021-03-21T08:20:47.000Z</time>
      </trkpt>
      <trkpt lat="45.0108" lon="6.04048">
        <ele>1451</ele>
        <time>2021-03-21T08:20:48.000Z</time>
      </trkpt>
      <trkpt lat="45.0108" lon="6.04049">
        <ele>1450.5999755859</ele>
        <time>2021-03-21T08:20:49.000Z</time>
      </trkpt>
      <trkpt lat="45.0108" lon="6.04049">
        <ele>1450.5999755859</ele>
        <time>2021-03-21T08:20:50.000Z</time>
      </trkpt>
      <trkpt lat="45.0108" lon="6.04049">
        <ele>1450.5999755859</ele>
        <time>2021-03-21T08:20:51.000Z</time>
      </trkpt>
      <trkpt lat="45.0108" lon="6.04049">
        <ele>1450.8000488281</ele>
        <time>2021-03-21T08:20:52.000Z</time>
      </trkpt>
      <trkpt lat="45.01081" lon="6.04049">
        <ele>1450.4000244141</ele>
        <time>2021-03-21T08:20:53.000Z</time>
      </trkpt>
      <trkpt lat="45.01081" lon="6.04048">
        <ele>1450.5999755859</ele>
        <time>2021-03-21T08:20:54.000Z</time>
      </trkpt>
      <trkpt lat="45.01081" lon="6.04048">
        <ele>1450.5999755859</ele>
        <time>2021-03-21T08:20:55.000Z</time>
      </trkpt>
      <trkpt lat="45.0108" lon="6.04048">
        <ele>1451</ele>
        <time>2021-03-21T08:20:56.000Z</time>
      </trkpt>
      <trkpt lat="45.0108" lon="6.04048">
        <ele>1451.1999511719</ele>
        <time>2021-03-21T08:20:57.000Z</time>
      </trkpt>
      <trkpt lat="45.0108" lon="6.04048">
        <ele>1451.4000244141</ele>
        <time>2021-03-21T08:20:58.000Z</time>
      </trkpt>
      <trkpt lat="45.0108" lon="6.04048">
        <ele>1451.4000244141</ele>
        <time>2021-03-21T08:20:59.000Z</time>
      </trkpt>
      <trkpt lat="45.0108" lon="6.04048">
        <ele>1451.5999755859</ele>
        <time>2021-03-21T08:21:00.000Z</time>
      </trkpt>
      <trkpt lat="45.0108" lon="6.04048">
        <ele>1451.8000488281</ele>
        <time>2021-03-21T08:21:01.000Z</time>
      </trkpt>
      <trkpt lat="45.0108" lon="6.04047">
        <ele>1452</ele>
        <time>2021-03-21T08:21:02.000Z</time>
      </trkpt>
      <trkpt lat="45.0108" lon="6.04047">
        <ele>1452.4000244141</ele>
        <time>2021-03-21T08:21:03.000Z</time>
      </trkpt>
      <trkpt lat="45.0108" lon="6.04047">
        <ele>1452.5999755859</ele>
        <time>2021-03-21T08:21:04.000Z</time>
      </trkpt>
      <trkpt lat="45.0108" lon="6.04046">
        <ele>1452.8000488281</ele>
        <time>2021-03-21T08:21:05.000Z</time>
      </trkpt>
      <trkpt lat="45.0108" lon="6.04046">
        <ele>1452.8000488281</ele>
        <time>2021-03-21T08:21:06.000Z</time>
      </trkpt>
      <trkpt lat="45.0108" lon="6.04046">
        <ele>1452.5999755859</ele>
        <time>2021-03-21T08:21:07.000Z</time>
      </trkpt>
      <trkpt lat="45.0108" lon="6.04046">
        <ele>1452.8000488281</ele>
        <time>2021-03-21T08:21:08.000Z</time>
      </trkpt>
      <trkpt lat="45.0108" lon="6.04046">
        <ele>1452.8000488281</ele>
        <time>2021-03-21T08:21:09.000Z</time>
      </trkpt>
      <trkpt lat="45.0108" lon="6.04046">
        <ele>1452.8000488281</ele>
        <time>2021-03-21T08:21:10.000Z</time>
      </trkpt>
      <trkpt lat="45.01079" lon="6.04047">
        <ele>1452.8000488281</ele>
        <time>2021-03-21T08:21:11.000Z</time>
      </trkpt>
      <trkpt lat="45.01079" lon="6.04047">
        <ele>1452.4000244141</ele>
        <time>2021-03-21T08:21:12.000Z</time>
      </trkpt>
      <trkpt lat="45.01079" lon="6.04048">
        <ele>1452.4000244141</ele>
        <time>2021-03-21T08:21:13.000Z</time>
      </trkpt>
      <trkpt lat="45.0108" lon="6.04047">
        <ele>1452.1999511719</ele>
        <time>2021-03-21T08:21:14.000Z</time>
      </trkpt>
      <trkpt lat="45.0108" lon="6.04047">
        <ele>1452.4000244141</ele>
        <time>2021-03-21T08:21:15.000Z</time>
      </trkpt>
      <trkpt lat="45.0108" lon="6.04047">
        <ele>1452.1999511719</ele>
        <time>2021-03-21T08:21:16.000Z</time>
      </trkpt>
      <trkpt lat="45.0108" lon="6.04048">
        <ele>1452</ele>
        <time>2021-03-21T08:21:17.000Z</time>
      </trkpt>
      <trkpt lat="45.0108" lon="6.04048">
        <ele>1451.5999755859</ele>
        <time>2021-03-21T08:21:18.000Z</time>
      </trkpt>
      <trkpt lat="45.0108" lon="6.04048">
        <ele>1451.1999511719</ele>
        <time>2021-03-21T08:21:19.000Z</time>
      </trkpt>
      <trkpt lat="45.0108" lon="6.04048">
        <ele>1451.1999511719</ele>
        <time>2021-03-21T08:21:20.000Z</time>
      </trkpt>
      <trkpt lat="45.0108" lon="6.04048">
        <ele>1450.8000488281</ele>
        <time>2021-03-21T08:21:21.000Z</time>
      </trkpt>
      <trkpt lat="45.0108" lon="6.04048">
        <ele>1450.8000488281</ele>
        <time>2021-03-21T08:21:22.000Z</time>
      </trkpt>
      <trkpt lat="45.0108" lon="6.04049">
        <ele>1450.8000488281</ele>
        <time>2021-03-21T08:21:23.000Z</time>
      </trkpt>
      <trkpt lat="45.01081" lon="6.04049">
        <ele>1450.1999511719</ele>
        <time>2021-03-21T08:21:24.000Z</time>
      </trkpt>
      <trkpt lat="45.01081" lon="6.04049">
        <ele>1450.1999511719</ele>
        <time>2021-03-21T08:21:25.000Z</time>
      </trkpt>
      <trkpt lat="45.01081" lon="6.04049">
        <ele>1450.4000244141</ele>
        <time>2021-03-21T08:21:26.000Z</time>
      </trkpt>
      <trkpt lat="45.0108" lon="6.04049">
        <ele>1450.5999755859</ele>
        <time>2021-03-21T08:21:27.000Z</time>
      </trkpt>
      <trkpt lat="45.0108" lon="6.04049">
        <ele>1451</ele>
        <time>2021-03-21T08:21:28.000Z</time>
      </trkpt>
      <trkpt lat="45.01079" lon="6.04049">
        <ele>1451.5999755859</ele>
        <time>2021-03-21T08:21:29.000Z</time>
      </trkpt>
      <trkpt lat="45.01078" lon="6.04049">
        <ele>1452.5999755859</ele>
        <time>2021-03-21T08:21:30.000Z</time>
      </trkpt>
      <trkpt lat="45.01077" lon="6.04048">
        <ele>1453.4000244141</ele>
        <time>2021-03-21T08:21:31.000Z</time>
      </trkpt>
      <trkpt lat="45.01075" lon="6.04049">
        <ele>1454.4000244141</ele>
        <time>2021-03-21T08:21:32.000Z</time>
      </trkpt>
      <trkpt lat="45.01074" lon="6.04049">
        <ele>1455.5999755859</ele>
        <time>2021-03-21T08:21:33.000Z</time>
      </trkpt>
      <trkpt lat="45.01073" lon="6.04048">
        <ele>1456.5999755859</ele>
        <time>2021-03-21T08:21:34.000Z</time>
      </trkpt>
      <trkpt lat="45.01073" lon="6.04049">
        <ele>1457.1999511719</ele>
        <time>2021-03-21T08:21:35.000Z</time>
      </trkpt>
      <trkpt lat="45.01071" lon="6.04049">
        <ele>1458.4000244141</ele>
        <time>2021-03-21T08:21:36.000Z</time>
      </trkpt>
      <trkpt lat="45.0107" lon="6.04048">
        <ele>1459.5999755859</ele>
        <time>2021-03-21T08:21:37.000Z</time>
      </trkpt>
      <trkpt lat="45.0107" lon="6.04048">
        <ele>1460.4000244141</ele>
        <time>2021-03-21T08:21:38.000Z</time>
      </trkpt>
      <trkpt lat="45.01069" lon="6.04048">
        <ele>1460.8000488281</ele>
        <time>2021-03-21T08:21:39.000Z</time>
      </trkpt>
      <trkpt lat="45.01068" lon="6.04047">
        <ele>1461.1999511719</ele>
        <time>2021-03-21T08:21:40.000Z</time>
      </trkpt>
      <trkpt lat="45.01067" lon="6.04048">
        <ele>1461.1999511719</ele>
        <time>2021-03-21T08:21:41.000Z</time>
      </trkpt>
      <trkpt lat="45.01066" lon="6.04047">
        <ele>1461.5999755859</ele>
        <time>2021-03-21T08:21:42.000Z</time>
      </trkpt>
      <trkpt lat="45.01064" lon="6.04047">
        <ele>1461.8000488281</ele>
        <time>2021-03-21T08:21:43.000Z</time>
      </trkpt>
      <trkpt lat="45.01063" lon="6.04047">
        <ele>1462.1999511719</ele>
        <time>2021-03-21T08:21:44.000Z</time>
      </trkpt>
      <trkpt lat="45.01062" lon="6.04047">
        <ele>1462.4000244141</ele>
        <time>2021-03-21T08:21:45.000Z</time>
      </trkpt>
      <trkpt lat="45.01061" lon="6.04047">
        <ele>1462.5999755859</ele>
        <time>2021-03-21T08:21:46.000Z</time>
      </trkpt>
      <trkpt lat="45.0106" lon="6.04047">
        <ele>1463</ele>
        <time>2021-03-21T08:21:47.000Z</time>
      </trkpt>
      <trkpt lat="45.01059" lon="6.04047">
        <ele>1463.4000244141</ele>
        <time>2021-03-21T08:21:48.000Z</time>
      </trkpt>
      <trkpt lat="45.01058" lon="6.04047">
        <ele>1463.8000488281</ele>
        <time>2021-03-21T08:21:49.000Z</time>
      </trkpt>
      <trkpt lat="45.01057" lon="6.04046">
        <ele>1464</ele>
        <time>2021-03-21T08:21:50.000Z</time>
      </trkpt>
      <trkpt lat="45.01055" lon="6.04047">
        <ele>1464.1999511719</ele>
        <time>2021-03-21T08:21:51.000Z</time>
      </trkpt>
      <trkpt lat="45.01054" lon="6.04046">
        <ele>1464.8000488281</ele>
        <time>2021-03-21T08:21:52.000Z</time>
      </trkpt>
      <trkpt lat="45.01053" lon="6.04046">
        <ele>1465</ele>
        <time>2021-03-21T08:21:53.000Z</time>
      </trkpt>
      <trkpt lat="45.01052" lon="6.04046">
        <ele>1465.4000244141</ele>
        <time>2021-03-21T08:21:54.000Z</time>
      </trkpt>
      <trkpt lat="45.0105" lon="6.04046">
        <ele>1465.5999755859</ele>
        <time>2021-03-21T08:21:55.000Z</time>
      </trkpt>
      <trkpt lat="45.01049" lon="6.04046">
        <ele>1465.8000488281</ele>
        <time>2021-03-21T08:21:56.000Z</time>
      </trkpt>
      <trkpt lat="45.01048" lon="6.04046">
        <ele>1466</ele>
        <time>2021-03-21T08:21:57.000Z</time>
      </trkpt>
      <trkpt lat="45.01047" lon="6.04046">
        <ele>1466</ele>
        <time>2021-03-21T08:21:58.000Z</time>
      </trkpt>
      <trkpt lat="45.01046" lon="6.04047">
        <ele>1466.1999511719</ele>
        <time>2021-03-21T08:21:59.000Z</time>
      </trkpt>
      <trkpt lat="45.01046" lon="6.04047">
        <ele>1466.1999511719</ele>
        <time>2021-03-21T08:22:00.000Z</time>
      </trkpt>
      <trkpt lat="45.01046" lon="6.04047">
        <ele>1466.1999511719</ele>
        <time>2021-03-21T08:22:01.000Z</time>
      </trkpt>
      <trkpt lat="45.01045" lon="6.04047">
        <ele>1466</ele>
        <time>2021-03-21T08:22:02.000Z</time>
      </trkpt>
      <trkpt lat="45.01045" lon="6.04047">
        <ele>1466</ele>
        <time>2021-03-21T08:22:03.000Z</time>
      </trkpt>
      <trkpt lat="45.01045" lon="6.04047">
        <ele>1466</ele>
        <time>2021-03-21T08:22:04.000Z</time>
      </trkpt>
      <trkpt lat="45.01044" lon="6.04047">
        <ele>1466</ele>
        <time>2021-03-21T08:22:05.000Z</time>
      </trkpt>
      <trkpt lat="45.01044" lon="6.04047">
        <ele>1466.1999511719</ele>
        <time>2021-03-21T08:22:06.000Z</time>
      </trkpt>
      <trkpt lat="45.01044" lon="6.04047">
        <ele>1466.5999755859</ele>
        <time>2021-03-21T08:22:07.000Z</time>
      </trkpt>
      <trkpt lat="45.01043" lon="6.04047">
        <ele>1466.8000488281</ele>
        <time>2021-03-21T08:22:08.000Z</time>
      </trkpt>
      <trkpt lat="45.01042" lon="6.04047">
        <ele>1466.8000488281</ele>
        <time>2021-03-21T08:22:09.000Z</time>
      </trkpt>
      <trkpt lat="45.01041" lon="6.04047">
        <ele>1467.1999511719</ele>
        <time>2021-03-21T08:22:10.000Z</time>
      </trkpt>
      <trkpt lat="45.01041" lon="6.04047">
        <ele>1467.1999511719</ele>
        <time>2021-03-21T08:22:11.000Z</time>
      </trkpt>
      <trkpt lat="45.0104" lon="6.04047">
        <ele>1467.5999755859</ele>
        <time>2021-03-21T08:22:12.000Z</time>
      </trkpt>
      <trkpt lat="45.01039" lon="6.04047">
        <ele>1468</ele>
        <time>2021-03-21T08:22:13.000Z</time>
      </trkpt>
      <trkpt lat="45.01038" lon="6.04047">
        <ele>1468.4000244141</ele>
        <time>2021-03-21T08:22:14.000Z</time>
      </trkpt>
      <trkpt lat="45.01038" lon="6.04047">
        <ele>1468.8000488281</ele>
        <time>2021-03-21T08:22:15.000Z</time>
      </trkpt>
      <trkpt lat="45.01037" lon="6.04047">
        <ele>1469.5999755859</ele>
        <time>2021-03-21T08:22:16.000Z</time>
      </trkpt>
      <trkpt lat="45.01036" lon="6.04046">
        <ele>1470</ele>
        <time>2021-03-21T08:22:17.000Z</time>
      </trkpt>
      <trkpt lat="45.01036" lon="6.04046">
        <ele>1470.4000244141</ele>
        <time>2021-03-21T08:22:18.000Z</time>
      </trkpt>
      <trkpt lat="45.01035" lon="6.04046">
        <ele>1470.8000488281</ele>
        <time>2021-03-21T08:22:19.000Z</time>
      </trkpt>
      <trkpt lat="45.01034" lon="6.04046">
        <ele>1471.1999511719</ele>
        <time>2021-03-21T08:22:20.000Z</time>
      </trkpt>
      <trkpt lat="45.01034" lon="6.04046">
        <ele>1471.4000244141</ele>
        <time>2021-03-21T08:22:21.000Z</time>
      </trkpt>
      <trkpt lat="45.01033" lon="6.04046">
        <ele>1472</ele>
        <time>2021-03-21T08:22:22.000Z</time>
      </trkpt>
      <trkpt lat="45.01032" lon="6.04047">
        <ele>1472.1999511719</ele>
        <time>2021-03-21T08:22:23.000Z</time>
      </trkpt>
      <trkpt lat="45.01031" lon="6.04047">
        <ele>1472.5999755859</ele>
        <time>2021-03-21T08:22:24.000Z</time>
      </trkpt>
      <trkpt lat="45.0103" lon="6.04048">
        <ele>1472.8000488281</ele>
        <time>2021-03-21T08:22:25.000Z</time>
      </trkpt>
      <trkpt lat="45.01028" lon="6.04048">
        <ele>1473.5999755859</ele>
        <time>2021-03-21T08:22:26.000Z</time>
      </trkpt>
      <trkpt lat="45.01027" lon="6.04048">
        <ele>1474.4000244141</ele>
        <time>2021-03-21T08:22:27.000Z</time>
      </trkpt>
      <trkpt lat="45.01026" lon="6.04048">
        <ele>1474.8000488281</ele>
        <time>2021-03-21T08:22:28.000Z</time>
      </trkpt>
      <trkpt lat="45.01025" lon="6.04048">
        <ele>1475.4000244141</ele>
        <time>2021-03-21T08:22:29.000Z</time>
      </trkpt>
      <trkpt lat="45.01023" lon="6.04048">
        <ele>1476</ele>
        <time>2021-03-21T08:22:30.000Z</time>
      </trkpt>
      <trkpt lat="45.01022" lon="6.04049">
        <ele>1476.1999511719</ele>
        <time>2021-03-21T08:22:31.000Z</time>
      </trkpt>
      <trkpt lat="45.01022" lon="6.04049">
        <ele>1476.4000244141</ele>
        <time>2021-03-21T08:22:32.000Z</time>
      </trkpt>
      <trkpt lat="45.01021" lon="6.04049">
        <ele>1476.8000488281</ele>
        <time>2021-03-21T08:22:33.000Z</time>
      </trkpt>
      <trkpt lat="45.0102" lon="6.04049">
        <ele>1477.4000244141</ele>
        <time>2021-03-21T08:22:34.000Z</time>
      </trkpt>
      <trkpt lat="45.01019" lon="6.0405">
        <ele>1477.8000488281</ele>
        <time>2021-03-21T08:22:35.000Z</time>
      </trkpt>
      <trkpt lat="45.01018" lon="6.0405">
        <ele>1478.5999755859</ele>
        <time>2021-03-21T08:22:36.000Z</time>
      </trkpt>
      <trkpt lat="45.01017" lon="6.04051">
        <ele>1479.1999511719</ele>
        <time>2021-03-21T08:22:37.000Z</time>
      </trkpt>
      <trkpt lat="45.01016" lon="6.04052">
        <ele>1479.5999755859</ele>
        <time>2021-03-21T08:22:38.000Z</time>
      </trkpt>
      <trkpt lat="45.01014" lon="6.04053">
        <ele>1480.4000244141</ele>
        <time>2021-03-21T08:22:39.000Z</time>
      </trkpt>
      <trkpt lat="45.01013" lon="6.04053">
        <ele>1480.5999755859</ele>
        <time>2021-03-21T08:22:40.000Z</time>
      </trkpt>
      <trkpt lat="45.01012" lon="6.04054">
        <ele>1480.5999755859</ele>
        <time>2021-03-21T08:22:41.000Z</time>
      </trkpt>
      <trkpt lat="45.01011" lon="6.04055">
        <ele>1480.4000244141</ele>
        <time>2021-03-21T08:22:42.000Z</time>
      </trkpt>
      <trkpt lat="45.0101" lon="6.04056">
        <ele>1480.4000244141</ele>
        <time>2021-03-21T08:22:43.000Z</time>
      </trkpt>
      <trkpt lat="45.0101" lon="6.04056">
        <ele>1480.4000244141</ele>
        <time>2021-03-21T08:22:44.000Z</time>
      </trkpt>
      <trkpt lat="45.01009" lon="6.04056">
        <ele>1480.5999755859</ele>
        <time>2021-03-21T08:22:45.000Z</time>
      </trkpt>
      <trkpt lat="45.01007" lon="6.04057">
        <ele>1480.8000488281</ele>
        <time>2021-03-21T08:22:46.000Z</time>
      </trkpt>
      <trkpt lat="45.01006" lon="6.04057">
        <ele>1480.8000488281</ele>
        <time>2021-03-21T08:22:47.000Z</time>
      </trkpt>
      <trkpt lat="45.01005" lon="6.04058">
        <ele>1481</ele>
        <time>2021-03-21T08:22:48.000Z</time>
      </trkpt>
      <trkpt lat="45.01004" lon="6.04058">
        <ele>1481.1999511719</ele>
        <time>2021-03-21T08:22:49.000Z</time>
      </trkpt>
      <trkpt lat="45.01003" lon="6.04058">
        <ele>1481.1999511719</ele>
        <time>2021-03-21T08:22:50.000Z</time>
      </trkpt>
      <trkpt lat="45.01002" lon="6.04059">
        <ele>1481.4000244141</ele>
        <time>2021-03-21T08:22:51.000Z</time>
      </trkpt>
      <trkpt lat="45.01001" lon="6.04059">
        <ele>1481.5999755859</ele>
        <time>2021-03-21T08:22:52.000Z</time>
      </trkpt>
      <trkpt lat="45.01" lon="6.04059">
        <ele>1482</ele>
        <time>2021-03-21T08:22:53.000Z</time>
      </trkpt>
      <trkpt lat="45.00999" lon="6.04058">
        <ele>1482.4000244141</ele>
        <time>2021-03-21T08:22:54.000Z</time>
      </trkpt>
      <trkpt lat="45.00998" lon="6.04058">
        <ele>1482.5999755859</ele>
        <time>2021-03-21T08:22:55.000Z</time>
      </trkpt>
      <trkpt lat="45.00997" lon="6.04058">
        <ele>1482.8000488281</ele>
        <time>2021-03-21T08:22:56.000Z</time>
      </trkpt>
      <trkpt lat="45.00996" lon="6.04058">
        <ele>1483</ele>
        <time>2021-03-21T08:22:57.000Z</time>
      </trkpt>
      <trkpt lat="45.00996" lon="6.04058">
        <ele>1483.1999511719</ele>
        <time>2021-03-21T08:22:58.000Z</time>
      </trkpt>
      <trkpt lat="45.00994" lon="6.04059">
        <ele>1483.4000244141</ele>
        <time>2021-03-21T08:22:59.000Z</time>
      </trkpt>
      <trkpt lat="45.00993" lon="6.04059">
        <ele>1483.4000244141</ele>
        <time>2021-03-21T08:23:00.000Z</time>
      </trkpt>
      <trkpt lat="45.00992" lon="6.04059">
        <ele>1483.5999755859</ele>
        <time>2021-03-21T08:23:01.000Z</time>
      </trkpt>
      <trkpt lat="45.00991" lon="6.04059">
        <ele>1484</ele>
        <time>2021-03-21T08:23:02.000Z</time>
      </trkpt>
      <trkpt lat="45.0099" lon="6.04059">
        <ele>1484.1999511719</ele>
        <time>2021-03-21T08:23:03.000Z</time>
      </trkpt>
      <trkpt lat="45.00989" lon="6.0406">
        <ele>1484.4000244141</ele>
        <time>2021-03-21T08:23:04.000Z</time>
      </trkpt>
      <trkpt lat="45.00987" lon="6.0406">
        <ele>1484.8000488281</ele>
        <time>2021-03-21T08:23:05.000Z</time>
      </trkpt>
      <trkpt lat="45.00985" lon="6.0406">
        <ele>1484.5999755859</ele>
        <time>2021-03-21T08:23:06.000Z</time>
      </trkpt>
      <trkpt lat="45.00984" lon="6.04061">
        <ele>1484.4000244141</ele>
        <time>2021-03-21T08:23:07.000Z</time>
      </trkpt>
      <trkpt lat="45.00983" lon="6.04061">
        <ele>1484.4000244141</ele>
        <time>2021-03-21T08:23:08.000Z</time>
      </trkpt>
      <trkpt lat="45.00982" lon="6.04061">
        <ele>1484.1999511719</ele>
        <time>2021-03-21T08:23:09.000Z</time>
      </trkpt>
      <trkpt lat="45.00981" lon="6.04062">
        <ele>1484</ele>
        <time>2021-03-21T08:23:10.000Z</time>
      </trkpt>
      <trkpt lat="45.0098" lon="6.04062">
        <ele>1483.8000488281</ele>
        <time>2021-03-21T08:23:11.000Z</time>
      </trkpt>
      <trkpt lat="45.00979" lon="6.04063">
        <ele>1483.5999755859</ele>
        <time>2021-03-21T08:23:12.000Z</time>
      </trkpt>
      <trkpt lat="45.00978" lon="6.04062">
        <ele>1483.5999755859</ele>
        <time>2021-03-21T08:23:13.000Z</time>
      </trkpt>
      <trkpt lat="45.00977" lon="6.04062">
        <ele>1483.5999755859</ele>
        <time>2021-03-21T08:23:14.000Z</time>
      </trkpt>
      <trkpt lat="45.00976" lon="6.04062">
        <ele>1483.5999755859</ele>
        <time>2021-03-21T08:23:15.000Z</time>
      </trkpt>
      <trkpt lat="45.00974" lon="6.04062">
        <ele>1483.4000244141</ele>
        <time>2021-03-21T08:23:16.000Z</time>
      </trkpt>
      <trkpt lat="45.00973" lon="6.04062">
        <ele>1482.8000488281</ele>
        <time>2021-03-21T08:23:17.000Z</time>
      </trkpt>
      <trkpt lat="45.00972" lon="6.04063">
        <ele>1482.5999755859</ele>
        <time>2021-03-21T08:23:18.000Z</time>
      </trkpt>
      <trkpt lat="45.00971" lon="6.04063">
        <ele>1482.5999755859</ele>
        <time>2021-03-21T08:23:19.000Z</time>
      </trkpt>
      <trkpt lat="45.00969" lon="6.04063">
        <ele>1482.4000244141</ele>
        <time>2021-03-21T08:23:20.000Z</time>
      </trkpt>
      <trkpt lat="45.00968" lon="6.04063">
        <ele>1482.1999511719</ele>
        <time>2021-03-21T08:23:21.000Z</time>
      </trkpt>
      <trkpt lat="45.00967" lon="6.04062">
        <ele>1482.1999511719</ele>
        <time>2021-03-21T08:23:22.000Z</time>
      </trkpt>
      <trkpt lat="45.00966" lon="6.04062">
        <ele>1482.1999511719</ele>
        <time>2021-03-21T08:23:23.000Z</time>
      </trkpt>
      <trkpt lat="45.00965" lon="6.04061">
        <ele>1482.1999511719</ele>
        <time>2021-03-21T08:23:24.000Z</time>
      </trkpt>
      <trkpt lat="45.00963" lon="6.04061">
        <ele>1482.1999511719</ele>
        <time>2021-03-21T08:23:25.000Z</time>
      </trkpt>
      <trkpt lat="45.00962" lon="6.04061">
        <ele>1482</ele>
        <time>2021-03-21T08:23:26.000Z</time>
      </trkpt>
      <trkpt lat="45.00961" lon="6.04061">
        <ele>1482</ele>
        <time>2021-03-21T08:23:27.000Z</time>
      </trkpt>
      <trkpt lat="45.00959" lon="6.04061">
        <ele>1481.8000488281</ele>
        <time>2021-03-21T08:23:28.000Z</time>
      </trkpt>
      <trkpt lat="45.00958" lon="6.04061">
        <ele>1481.5999755859</ele>
        <time>2021-03-21T08:23:29.000Z</time>
      </trkpt>
      <trkpt lat="45.00956" lon="6.04062">
        <ele>1481.1999511719</ele>
        <time>2021-03-21T08:23:30.000Z</time>
      </trkpt>
      <trkpt lat="45.00955" lon="6.04062">
        <ele>1481</ele>
        <time>2021-03-21T08:23:31.000Z</time>
      </trkpt>
      <trkpt lat="45.00954" lon="6.04063">
        <ele>1480.5999755859</ele>
        <time>2021-03-21T08:23:32.000Z</time>
      </trkpt>
      <trkpt lat="45.00953" lon="6.04064">
        <ele>1480.1999511719</ele>
        <time>2021-03-21T08:23:33.000Z</time>
      </trkpt>
      <trkpt lat="45.00952" lon="6.04065">
        <ele>1479.8000488281</ele>
        <time>2021-03-21T08:23:34.000Z</time>
      </trkpt>
      <trkpt lat="45.00951" lon="6.04065">
        <ele>1479.4000244141</ele>
        <time>2021-03-21T08:23:35.000Z</time>
      </trkpt>
      <trkpt lat="45.0095" lon="6.04065">
        <ele>1479.1999511719</ele>
        <time>2021-03-21T08:23:36.000Z</time>
      </trkpt>
      <trkpt lat="45.00949" lon="6.04066">
        <ele>1478.8000488281</ele>
        <time>2021-03-21T08:23:37.000Z</time>
      </trkpt>
      <trkpt lat="45.00948" lon="6.04066">
        <ele>1478.5999755859</ele>
        <time>2021-03-21T08:23:38.000Z</time>
      </trkpt>
      <trkpt lat="45.00946" lon="6.04067">
        <ele>1478.4000244141</ele>
        <time>2021-03-21T08:23:39.000Z</time>
      </trkpt>
      <trkpt lat="45.00945" lon="6.04067">
        <ele>1478</ele>
        <time>2021-03-21T08:23:40.000Z</time>
      </trkpt>
      <trkpt lat="45.00944" lon="6.04067">
        <ele>1477.8000488281</ele>
        <time>2021-03-21T08:23:41.000Z</time>
      </trkpt>
      <trkpt lat="45.00942" lon="6.04067">
        <ele>1477.5999755859</ele>
        <time>2021-03-21T08:23:42.000Z</time>
      </trkpt>
      <trkpt lat="45.00941" lon="6.04067">
        <ele>1477.4000244141</ele>
        <time>2021-03-21T08:23:43.000Z</time>
      </trkpt>
      <trkpt lat="45.0094" lon="6.04068">
        <ele>1477.1999511719</ele>
        <time>2021-03-21T08:23:44.000Z</time>
      </trkpt>
      <trkpt lat="45.00938" lon="6.04068">
        <ele>1477.1999511719</ele>
        <time>2021-03-21T08:23:45.000Z</time>
      </trkpt>
      <trkpt lat="45.00937" lon="6.04067">
        <ele>1477.1999511719</ele>
        <time>2021-03-21T08:23:46.000Z</time>
      </trkpt>
      <trkpt lat="45.00935" lon="6.04067">
        <ele>1477.4000244141</ele>
        <time>2021-03-21T08:23:47.000Z</time>
      </trkpt>
      <trkpt lat="45.00934" lon="6.04066">
        <ele>1477.5999755859</ele>
        <time>2021-03-21T08:23:48.000Z</time>
      </trkpt>
      <trkpt lat="45.00933" lon="6.04066">
        <ele>1477.8000488281</ele>
        <time>2021-03-21T08:23:49.000Z</time>
      </trkpt>
      <trkpt lat="45.00932" lon="6.04065">
        <ele>1478.1999511719</ele>
        <time>2021-03-21T08:23:50.000Z</time>
      </trkpt>
      <trkpt lat="45.00931" lon="6.04065">
        <ele>1478.1999511719</ele>
        <time>2021-03-21T08:23:51.000Z</time>
      </trkpt>
      <trkpt lat="45.0093" lon="6.04064">
        <ele>1479</ele>
        <time>2021-03-21T08:23:52.000Z</time>
      </trkpt>
      <trkpt lat="45.00929" lon="6.04064">
        <ele>1479.4000244141</ele>
        <time>2021-03-21T08:23:53.000Z</time>
      </trkpt>
      <trkpt lat="45.00928" lon="6.04064">
        <ele>1479.5999755859</ele>
        <time>2021-03-21T08:23:54.000Z</time>
      </trkpt>
      <trkpt lat="45.00927" lon="6.04065">
        <ele>1479.5999755859</ele>
        <time>2021-03-21T08:23:55.000Z</time>
      </trkpt>
      <trkpt lat="45.00926" lon="6.04065">
        <ele>1480</ele>
        <time>2021-03-21T08:23:56.000Z</time>
      </trkpt>
      <trkpt lat="45.00925" lon="6.04065">
        <ele>1480</ele>
        <time>2021-03-21T08:23:57.000Z</time>
      </trkpt>
      <trkpt lat="45.00924" lon="6.04066">
        <ele>1480</ele>
        <time>2021-03-21T08:23:58.000Z</time>
      </trkpt>
      <trkpt lat="45.00923" lon="6.04067">
        <ele>1479.4000244141</ele>
        <time>2021-03-21T08:23:59.000Z</time>
      </trkpt>
      <trkpt lat="45.00922" lon="6.04068">
        <ele>1479</ele>
        <time>2021-03-21T08:24:00.000Z</time>
      </trkpt>
      <trkpt lat="45.00921" lon="6.04069">
        <ele>1478.5999755859</ele>
        <time>2021-03-21T08:24:01.000Z</time>
      </trkpt>
      <trkpt lat="45.0092" lon="6.0407">
        <ele>1478</ele>
        <time>2021-03-21T08:24:02.000Z</time>
      </trkpt>
      <trkpt lat="45.00919" lon="6.04071">
        <ele>1477.4000244141</ele>
        <time>2021-03-21T08:24:03.000Z</time>
      </trkpt>
      <trkpt lat="45.00919" lon="6.04072">
        <ele>1477.4000244141</ele>
        <time>2021-03-21T08:24:04.000Z</time>
      </trkpt>
      <trkpt lat="45.00918" lon="6.04073">
        <ele>1477.4000244141</ele>
        <time>2021-03-21T08:24:05.000Z</time>
      </trkpt>
      <trkpt lat="45.00918" lon="6.04074">
        <ele>1477.4000244141</ele>
        <time>2021-03-21T08:24:06.000Z</time>
      </trkpt>
      <trkpt lat="45.00917" lon="6.04075">
        <ele>1477.4000244141</ele>
        <time>2021-03-21T08:24:07.000Z</time>
      </trkpt>
      <trkpt lat="45.00916" lon="6.04076">
        <ele>1477.4000244141</ele>
        <time>2021-03-21T08:24:08.000Z</time>
      </trkpt>
      <trkpt lat="45.00916" lon="6.04077">
        <ele>1477.4000244141</ele>
        <time>2021-03-21T08:24:09.000Z</time>
      </trkpt>
      <trkpt lat="45.00915" lon="6.04077">
        <ele>1477.4000244141</ele>
        <time>2021-03-21T08:24:10.000Z</time>
      </trkpt>
      <trkpt lat="45.00915" lon="6.04078">
        <ele>1477.4000244141</ele>
        <time>2021-03-21T08:24:11.000Z</time>
      </trkpt>
      <trkpt lat="45.00914" lon="6.04078">
        <ele>1477.5999755859</ele>
        <time>2021-03-21T08:24:12.000Z</time>
      </trkpt>
      <trkpt lat="45.00914" lon="6.04079">
        <ele>1477.5999755859</ele>
        <time>2021-03-21T08:24:13.000Z</time>
      </trkpt>
      <trkpt lat="45.00913" lon="6.0408">
        <ele>1477.5999755859</ele>
        <time>2021-03-21T08:24:14.000Z</time>
      </trkpt>
      <trkpt lat="45.00912" lon="6.0408">
        <ele>1477.5999755859</ele>
        <time>2021-03-21T08:24:15.000Z</time>
      </trkpt>
      <trkpt lat="45.00911" lon="6.04081">
        <ele>1477.5999755859</ele>
        <time>2021-03-21T08:24:16.000Z</time>
      </trkpt>
      <trkpt lat="45.0091" lon="6.04082">
        <ele>1477.4000244141</ele>
        <time>2021-03-21T08:24:17.000Z</time>
      </trkpt>
      <trkpt lat="45.00909" lon="6.04084">
        <ele>1477.1999511719</ele>
        <time>2021-03-21T08:24:18.000Z</time>
      </trkpt>
      <trkpt lat="45.00909" lon="6.04085">
        <ele>1477.1999511719</ele>
        <time>2021-03-21T08:24:19.000Z</time>
      </trkpt>
      <trkpt lat="45.00908" lon="6.04086">
        <ele>1477</ele>
        <time>2021-03-21T08:24:20.000Z</time>
      </trkpt>
      <trkpt lat="45.00907" lon="6.04087">
        <ele>1476.8000488281</ele>
        <time>2021-03-21T08:24:21.000Z</time>
      </trkpt>
      <trkpt lat="45.00907" lon="6.04089">
        <ele>1476.5999755859</ele>
        <time>2021-03-21T08:24:22.000Z</time>
      </trkpt>
      <trkpt lat="45.00906" lon="6.0409">
        <ele>1476.4000244141</ele>
        <time>2021-03-21T08:24:23.000Z</time>
      </trkpt>
      <trkpt lat="45.00906" lon="6.04091">
        <ele>1476.1999511719</ele>
        <time>2021-03-21T08:24:24.000Z</time>
      </trkpt>
      <trkpt lat="45.00905" lon="6.04093">
        <ele>1476</ele>
        <time>2021-03-21T08:24:25.000Z</time>
      </trkpt>
      <trkpt lat="45.00904" lon="6.04094">
        <ele>1475.8000488281</ele>
        <time>2021-03-21T08:24:26.000Z</time>
      </trkpt>
      <trkpt lat="45.00904" lon="6.04095">
        <ele>1475.5999755859</ele>
        <time>2021-03-21T08:24:27.000Z</time>
      </trkpt>
      <trkpt lat="45.00903" lon="6.04097">
        <ele>1475.5999755859</ele>
        <time>2021-03-21T08:24:28.000Z</time>
      </trkpt>
      <trkpt lat="45.00902" lon="6.04099">
        <ele>1475.8000488281</ele>
        <time>2021-03-21T08:24:29.000Z</time>
      </trkpt>
      <trkpt lat="45.00901" lon="6.041">
        <ele>1476</ele>
        <time>2021-03-21T08:24:30.000Z</time>
      </trkpt>
      <trkpt lat="45.009" lon="6.04102">
        <ele>1476.4000244141</ele>
        <time>2021-03-21T08:24:31.000Z</time>
      </trkpt>
      <trkpt lat="45.009" lon="6.04103">
        <ele>1476.8000488281</ele>
        <time>2021-03-21T08:24:32.000Z</time>
      </trkpt>
      <trkpt lat="45.00899" lon="6.04104">
        <ele>1477</ele>
        <time>2021-03-21T08:24:33.000Z</time>
      </trkpt>
      <trkpt lat="45.00898" lon="6.04106">
        <ele>1477.4000244141</ele>
        <time>2021-03-21T08:24:34.000Z</time>
      </trkpt>
      <trkpt lat="45.00897" lon="6.04107">
        <ele>1477.8000488281</ele>
        <time>2021-03-21T08:24:35.000Z</time>
      </trkpt>
      <trkpt lat="45.00896" lon="6.04108">
        <ele>1478.4000244141</ele>
        <time>2021-03-21T08:24:36.000Z</time>
      </trkpt>
      <trkpt lat="45.00896" lon="6.0411">
        <ele>1478.8000488281</ele>
        <time>2021-03-21T08:24:37.000Z</time>
      </trkpt>
      <trkpt lat="45.00895" lon="6.04111">
        <ele>1479.1999511719</ele>
        <time>2021-03-21T08:24:38.000Z</time>
      </trkpt>
      <trkpt lat="45.00894" lon="6.04112">
        <ele>1479.4000244141</ele>
        <time>2021-03-21T08:24:39.000Z</time>
      </trkpt>
      <trkpt lat="45.00894" lon="6.04113">
        <ele>1479.8000488281</ele>
        <time>2021-03-21T08:24:40.000Z</time>
      </trkpt>
      <trkpt lat="45.00893" lon="6.04114">
        <ele>1480</ele>
        <time>2021-03-21T08:24:41.000Z</time>
      </trkpt>
      <trkpt lat="45.00892" lon="6.04116">
        <ele>1480.4000244141</ele>
        <time>2021-03-21T08:24:42.000Z</time>
      </trkpt>
      <trkpt lat="45.00891" lon="6.04117">
        <ele>1480.4000244141</ele>
        <time>2021-03-21T08:24:43.000Z</time>
      </trkpt>
      <trkpt lat="45.0089" lon="6.04118">
        <ele>1480.5999755859</ele>
        <time>2021-03-21T08:24:44.000Z</time>
      </trkpt>
      <trkpt lat="45.0089" lon="6.04119">
        <ele>1480.5999755859</ele>
        <time>2021-03-21T08:24:45.000Z</time>
      </trkpt>
      <trkpt lat="45.00889" lon="6.0412">
        <ele>1480.8000488281</ele>
        <time>2021-03-21T08:24:46.000Z</time>
      </trkpt>
      <trkpt lat="45.00888" lon="6.04121">
        <ele>1481</ele>
        <time>2021-03-21T08:24:47.000Z</time>
      </trkpt>
      <trkpt lat="45.00887" lon="6.04122">
        <ele>1481.1999511719</ele>
        <time>2021-03-21T08:24:48.000Z</time>
      </trkpt>
      <trkpt lat="45.00887" lon="6.04123">
        <ele>1481.1999511719</ele>
        <time>2021-03-21T08:24:49.000Z</time>
      </trkpt>
      <trkpt lat="45.00886" lon="6.04124">
        <ele>1481.5999755859</ele>
        <time>2021-03-21T08:24:50.000Z</time>
      </trkpt>
      <trkpt lat="45.00885" lon="6.04125">
        <ele>1482</ele>
        <time>2021-03-21T08:24:51.000Z</time>
      </trkpt>
      <trkpt lat="45.00883" lon="6.04125">
        <ele>1482.5999755859</ele>
        <time>2021-03-21T08:24:52.000Z</time>
      </trkpt>
      <trkpt lat="45.00882" lon="6.04125">
        <ele>1483.1999511719</ele>
        <time>2021-03-21T08:24:53.000Z</time>
      </trkpt>
      <trkpt lat="45.00882" lon="6.04125">
        <ele>1483.5999755859</ele>
        <time>2021-03-21T08:24:54.000Z</time>
      </trkpt>
      <trkpt lat="45.00881" lon="6.04125">
        <ele>1484.1999511719</ele>
        <time>2021-03-21T08:24:55.000Z</time>
      </trkpt>
      <trkpt lat="45.0088" lon="6.04125">
        <ele>1484.4000244141</ele>
        <time>2021-03-21T08:24:56.000Z</time>
      </trkpt>
      <trkpt lat="45.00879" lon="6.04125">
        <ele>1485</ele>
        <time>2021-03-21T08:24:57.000Z</time>
      </trkpt>
      <trkpt lat="45.00878" lon="6.04125">
        <ele>1485.5999755859</ele>
        <time>2021-03-21T08:24:58.000Z</time>
      </trkpt>
      <trkpt lat="45.00878" lon="6.04125">
        <ele>1485.8000488281</ele>
        <time>2021-03-21T08:24:59.000Z</time>
      </trkpt>
      <trkpt lat="45.00877" lon="6.04126">
        <ele>1486.1999511719</ele>
        <time>2021-03-21T08:25:00.000Z</time>
      </trkpt>
      <trkpt lat="45.00876" lon="6.04126">
        <ele>1486.5999755859</ele>
        <time>2021-03-21T08:25:01.000Z</time>
      </trkpt>
      <trkpt lat="45.00876" lon="6.04126">
        <ele>1487</ele>
        <time>2021-03-21T08:25:02.000Z</time>
      </trkpt>
      <trkpt lat="45.00875" lon="6.04126">
        <ele>1487.1999511719</ele>
        <time>2021-03-21T08:25:03.000Z</time>
      </trkpt>
      <trkpt lat="45.00874" lon="6.04126">
        <ele>1487.4000244141</ele>
        <time>2021-03-21T08:25:04.000Z</time>
      </trkpt>
      <trkpt lat="45.00874" lon="6.04126">
        <ele>1487.8000488281</ele>
        <time>2021-03-21T08:25:05.000Z</time>
      </trkpt>
      <trkpt lat="45.00873" lon="6.04126">
        <ele>1488.1999511719</ele>
        <time>2021-03-21T08:25:06.000Z</time>
      </trkpt>
      <trkpt lat="45.00872" lon="6.04125">
        <ele>1488.8000488281</ele>
        <time>2021-03-21T08:25:07.000Z</time>
      </trkpt>
      <trkpt lat="45.00872" lon="6.04125">
        <ele>1489</ele>
        <time>2021-03-21T08:25:08.000Z</time>
      </trkpt>
      <trkpt lat="45.00871" lon="6.04124">
        <ele>1489.5999755859</ele>
        <time>2021-03-21T08:25:09.000Z</time>
      </trkpt>
      <trkpt lat="45.00871" lon="6.04124">
        <ele>1489.8000488281</ele>
        <time>2021-03-21T08:25:10.000Z</time>
      </trkpt>
      <trkpt lat="45.00871" lon="6.04124">
        <ele>1489.8000488281</ele>
        <time>2021-03-21T08:25:11.000Z</time>
      </trkpt>
      <trkpt lat="45.0087" lon="6.04124">
        <ele>1490.1999511719</ele>
        <time>2021-03-21T08:25:12.000Z</time>
      </trkpt>
      <trkpt lat="45.0087" lon="6.04124">
        <ele>1490.4000244141</ele>
        <time>2021-03-21T08:25:13.000Z</time>
      </trkpt>
      <trkpt lat="45.0087" lon="6.04124">
        <ele>1490.4000244141</ele>
        <time>2021-03-21T08:25:14.000Z</time>
      </trkpt>
      <trkpt lat="45.00869" lon="6.04124">
        <ele>1490.5999755859</ele>
        <time>2021-03-21T08:25:15.000Z</time>
      </trkpt>
      <trkpt lat="45.00869" lon="6.04124">
        <ele>1491</ele>
        <time>2021-03-21T08:25:16.000Z</time>
      </trkpt>
      <trkpt lat="45.00868" lon="6.04124">
        <ele>1491</ele>
        <time>2021-03-21T08:25:17.000Z</time>
      </trkpt>
      <trkpt lat="45.00868" lon="6.04124">
        <ele>1491.4000244141</ele>
        <time>2021-03-21T08:25:18.000Z</time>
      </trkpt>
      <trkpt lat="45.00867" lon="6.04123">
        <ele>1492</ele>
        <time>2021-03-21T08:25:19.000Z</time>
      </trkpt>
      <trkpt lat="45.00866" lon="6.04123">
        <ele>1492.4000244141</ele>
        <time>2021-03-21T08:25:20.000Z</time>
      </trkpt>
      <trkpt lat="45.00866" lon="6.04122">
        <ele>1492.5999755859</ele>
        <time>2021-03-21T08:25:21.000Z</time>
      </trkpt>
      <trkpt lat="45.00866" lon="6.04122">
        <ele>1493.1999511719</ele>
        <time>2021-03-21T08:25:22.000Z</time>
      </trkpt>
      <trkpt lat="45.00866" lon="6.04121">
        <ele>1493.4000244141</ele>
        <time>2021-03-21T08:25:23.000Z</time>
      </trkpt>
      <trkpt lat="45.00865" lon="6.0412">
        <ele>1494.1999511719</ele>
        <time>2021-03-21T08:25:24.000Z</time>
      </trkpt>
      <trkpt lat="45.00865" lon="6.04119">
        <ele>1494.4000244141</ele>
        <time>2021-03-21T08:25:25.000Z</time>
      </trkpt>
      <trkpt lat="45.00865" lon="6.04118">
        <ele>1495</ele>
        <time>2021-03-21T08:25:26.000Z</time>
      </trkpt>
      <trkpt lat="45.00865" lon="6.04117">
        <ele>1495.5999755859</ele>
        <time>2021-03-21T08:25:27.000Z</time>
      </trkpt>
      <trkpt lat="45.00865" lon="6.04116">
        <ele>1495.8000488281</ele>
        <time>2021-03-21T08:25:28.000Z</time>
      </trkpt>
      <trkpt lat="45.00865" lon="6.04115">
        <ele>1496.4000244141</ele>
        <time>2021-03-21T08:25:29.000Z</time>
      </trkpt>
      <trkpt lat="45.00865" lon="6.04114">
        <ele>1496.1999511719</ele>
        <time>2021-03-21T08:25:30.000Z</time>
      </trkpt>
      <trkpt lat="45.00865" lon="6.04113">
        <ele>1496.4000244141</ele>
        <time>2021-03-21T08:25:31.000Z</time>
      </trkpt>
      <trkpt lat="45.00865" lon="6.04113">
        <ele>1496.8000488281</ele>
        <time>2021-03-21T08:25:32.000Z</time>
      </trkpt>
      <trkpt lat="45.00865" lon="6.04112">
        <ele>1496.8000488281</ele>
        <time>2021-03-21T08:25:33.000Z</time>
      </trkpt>
      <trkpt lat="45.00865" lon="6.04112">
        <ele>1497</ele>
        <time>2021-03-21T08:25:34.000Z</time>
      </trkpt>
      <trkpt lat="45.00864" lon="6.04112">
        <ele>1497.4000244141</ele>
        <time>2021-03-21T08:25:35.000Z</time>
      </trkpt>
      <trkpt lat="45.00864" lon="6.04112">
        <ele>1497.5999755859</ele>
        <time>2021-03-21T08:25:36.000Z</time>
      </trkpt>
      <trkpt lat="45.00864" lon="6.04112">
        <ele>1497.8000488281</ele>
        <time>2021-03-21T08:25:37.000Z</time>
      </trkpt>
      <trkpt lat="45.00863" lon="6.04112">
        <ele>1498.4000244141</ele>
        <time>2021-03-21T08:25:38.000Z</time>
      </trkpt>
      <trkpt lat="45.00863" lon="6.04112">
        <ele>1498.5999755859</ele>
        <time>2021-03-21T08:25:39.000Z</time>
      </trkpt>
      <trkpt lat="45.00862" lon="6.04111">
        <ele>1499.4000244141</ele>
        <time>2021-03-21T08:25:40.000Z</time>
      </trkpt>
      <trkpt lat="45.00862" lon="6.0411">
        <ele>1499.4000244141</ele>
        <time>2021-03-21T08:25:41.000Z</time>
      </trkpt>
      <trkpt lat="45.00861" lon="6.0411">
        <ele>1500</ele>
        <time>2021-03-21T08:25:42.000Z</time>
      </trkpt>
      <trkpt lat="45.00861" lon="6.0411">
        <ele>1500.1999511719</ele>
        <time>2021-03-21T08:25:43.000Z</time>
      </trkpt>
      <trkpt lat="45.0086" lon="6.04109">
        <ele>1500.8000488281</ele>
        <time>2021-03-21T08:25:44.000Z</time>
      </trkpt>
      <trkpt lat="45.0086" lon="6.04109">
        <ele>1500.8000488281</ele>
        <time>2021-03-21T08:25:45.000Z</time>
      </trkpt>
      <trkpt lat="45.00859" lon="6.04109">
        <ele>1501.4000244141</ele>
        <time>2021-03-21T08:25:46.000Z</time>
      </trkpt>
      <trkpt lat="45.00859" lon="6.04109">
        <ele>1501.5999755859</ele>
        <time>2021-03-21T08:25:47.000Z</time>
      </trkpt>
      <trkpt lat="45.00858" lon="6.04109">
        <ele>1502</ele>
        <time>2021-03-21T08:25:48.000Z</time>
      </trkpt>
      <trkpt lat="45.00857" lon="6.04109">
        <ele>1502.4000244141</ele>
        <time>2021-03-21T08:25:49.000Z</time>
      </trkpt>
      <trkpt lat="45.00857" lon="6.04108">
        <ele>1502.8000488281</ele>
        <time>2021-03-21T08:25:50.000Z</time>
      </trkpt>
      <trkpt lat="45.00856" lon="6.04108">
        <ele>1503.4000244141</ele>
        <time>2021-03-21T08:25:51.000Z</time>
      </trkpt>
      <trkpt lat="45.00855" lon="6.04107">
        <ele>1503.8000488281</ele>
        <time>2021-03-21T08:25:52.000Z</time>
      </trkpt>
      <trkpt lat="45.00854" lon="6.04108">
        <ele>1504.1999511719</ele>
        <time>2021-03-21T08:25:53.000Z</time>
      </trkpt>
      <trkpt lat="45.00854" lon="6.04107">
        <ele>1504.5999755859</ele>
        <time>2021-03-21T08:25:54.000Z</time>
      </trkpt>
      <trkpt lat="45.00853" lon="6.04106">
        <ele>1505.1999511719</ele>
        <time>2021-03-21T08:25:55.000Z</time>
      </trkpt>
      <trkpt lat="45.00852" lon="6.04106">
        <ele>1505.8000488281</ele>
        <time>2021-03-21T08:25:56.000Z</time>
      </trkpt>
      <trkpt lat="45.00852" lon="6.04106">
        <ele>1506.1999511719</ele>
        <time>2021-03-21T08:25:57.000Z</time>
      </trkpt>
      <trkpt lat="45.00851" lon="6.04105">
        <ele>1506.8000488281</ele>
        <time>2021-03-21T08:25:58.000Z</time>
      </trkpt>
      <trkpt lat="45.0085" lon="6.04105">
        <ele>1507.1999511719</ele>
        <time>2021-03-21T08:25:59.000Z</time>
      </trkpt>
      <trkpt lat="45.00849" lon="6.04105">
        <ele>1507.4000244141</ele>
        <time>2021-03-21T08:26:00.000Z</time>
      </trkpt>
      <trkpt lat="45.00849" lon="6.04105">
        <ele>1508</ele>
        <time>2021-03-21T08:26:01.000Z</time>
      </trkpt>
      <trkpt lat="45.00848" lon="6.04104">
        <ele>1508.1999511719</ele>
        <time>2021-03-21T08:26:02.000Z</time>
      </trkpt>
      <trkpt lat="45.00847" lon="6.04104">
        <ele>1508.4000244141</ele>
        <time>2021-03-21T08:26:03.000Z</time>
      </trkpt>
      <trkpt lat="45.00847" lon="6.04104">
        <ele>1508.4000244141</ele>
        <time>2021-03-21T08:26:04.000Z</time>
      </trkpt>
      <trkpt lat="45.00846" lon="6.04104">
        <ele>1508.8000488281</ele>
        <time>2021-03-21T08:26:05.000Z</time>
      </trkpt>
      <trkpt lat="45.00845" lon="6.04103">
        <ele>1509</ele>
        <time>2021-03-21T08:26:06.000Z</time>
      </trkpt>
      <trkpt lat="45.00844" lon="6.04103">
        <ele>1509</ele>
        <time>2021-03-21T08:26:07.000Z</time>
      </trkpt>
      <trkpt lat="45.00844" lon="6.04103">
        <ele>1509.4000244141</ele>
        <time>2021-03-21T08:26:08.000Z</time>
      </trkpt>
      <trkpt lat="45.00843" lon="6.04103">
        <ele>1509.4000244141</ele>
        <time>2021-03-21T08:26:09.000Z</time>
      </trkpt>
      <trkpt lat="45.00842" lon="6.04102">
        <ele>1509.5999755859</ele>
        <time>2021-03-21T08:26:10.000Z</time>
      </trkpt>
      <trkpt lat="45.00842" lon="6.04102">
        <ele>1510</ele>
        <time>2021-03-21T08:26:11.000Z</time>
      </trkpt>
      <trkpt lat="45.00841" lon="6.04102">
        <ele>1510.1999511719</ele>
        <time>2021-03-21T08:26:12.000Z</time>
      </trkpt>
      <trkpt lat="45.00841" lon="6.04101">
        <ele>1510.1999511719</ele>
        <time>2021-03-21T08:26:13.000Z</time>
      </trkpt>
      <trkpt lat="45.00839" lon="6.04101">
        <ele>1510.5999755859</ele>
        <time>2021-03-21T08:26:14.000Z</time>
      </trkpt>
      <trkpt lat="45.00839" lon="6.04101">
        <ele>1510.5999755859</ele>
        <time>2021-03-21T08:26:15.000Z</time>
      </trkpt>
      <trkpt lat="45.00838" lon="6.041">
        <ele>1511</ele>
        <time>2021-03-21T08:26:16.000Z</time>
      </trkpt>
      <trkpt lat="45.00837" lon="6.041">
        <ele>1511.1999511719</ele>
        <time>2021-03-21T08:26:17.000Z</time>
      </trkpt>
      <trkpt lat="45.00836" lon="6.04099">
        <ele>1511.4000244141</ele>
        <time>2021-03-21T08:26:18.000Z</time>
      </trkpt>
      <trkpt lat="45.00836" lon="6.04099">
        <ele>1511.4000244141</ele>
        <time>2021-03-21T08:26:19.000Z</time>
      </trkpt>
      <trkpt lat="45.00835" lon="6.04099">
        <ele>1511.5999755859</ele>
        <time>2021-03-21T08:26:20.000Z</time>
      </trkpt>
      <trkpt lat="45.00834" lon="6.04099">
        <ele>1511.8000488281</ele>
        <time>2021-03-21T08:26:21.000Z</time>
      </trkpt>
      <trkpt lat="45.00834" lon="6.04099">
        <ele>1512</ele>
        <time>2021-03-21T08:26:22.000Z</time>
      </trkpt>
      <trkpt lat="45.00833" lon="6.04098">
        <ele>1512</ele>
        <time>2021-03-21T08:26:23.000Z</time>
      </trkpt>
      <trkpt lat="45.00833" lon="6.04098">
        <ele>1512.1999511719</ele>
        <time>2021-03-21T08:26:24.000Z</time>
      </trkpt>
      <trkpt lat="45.00832" lon="6.04098">
        <ele>1512.1999511719</ele>
        <time>2021-03-21T08:26:25.000Z</time>
      </trkpt>
      <trkpt lat="45.00831" lon="6.04098">
        <ele>1512.4000244141</ele>
        <time>2021-03-21T08:26:26.000Z</time>
      </trkpt>
      <trkpt lat="45.00831" lon="6.04098">
        <ele>1512.4000244141</ele>
        <time>2021-03-21T08:26:27.000Z</time>
      </trkpt>
      <trkpt lat="45.0083" lon="6.04098">
        <ele>1512.4000244141</ele>
        <time>2021-03-21T08:26:28.000Z</time>
      </trkpt>
      <trkpt lat="45.0083" lon="6.04097">
        <ele>1512.8000488281</ele>
        <time>2021-03-21T08:26:29.000Z</time>
      </trkpt>
      <trkpt lat="45.00829" lon="6.04097">
        <ele>1513</ele>
        <time>2021-03-21T08:26:30.000Z</time>
      </trkpt>
      <trkpt lat="45.00829" lon="6.04096">
        <ele>1513.1999511719</ele>
        <time>2021-03-21T08:26:31.000Z</time>
      </trkpt>
      <trkpt lat="45.00828" lon="6.04096">
        <ele>1513.4000244141</ele>
        <time>2021-03-21T08:26:32.000Z</time>
      </trkpt>
      <trkpt lat="45.00827" lon="6.04095">
        <ele>1513.5999755859</ele>
        <time>2021-03-21T08:26:33.000Z</time>
      </trkpt>
      <trkpt lat="45.00827" lon="6.04094">
        <ele>1514</ele>
        <time>2021-03-21T08:26:34.000Z</time>
      </trkpt>
      <trkpt lat="45.00827" lon="6.04093">
        <ele>1514.4000244141</ele>
        <time>2021-03-21T08:26:35.000Z</time>
      </trkpt>
      <trkpt lat="45.00826" lon="6.04093">
        <ele>1514.5999755859</ele>
        <time>2021-03-21T08:26:36.000Z</time>
      </trkpt>
      <trkpt lat="45.00825" lon="6.04092">
        <ele>1515</ele>
        <time>2021-03-21T08:26:37.000Z</time>
      </trkpt>
      <trkpt lat="45.00825" lon="6.04092">
        <ele>1515</ele>
        <time>2021-03-21T08:26:38.000Z</time>
      </trkpt>
      <trkpt lat="45.00824" lon="6.04092">
        <ele>1515.4000244141</ele>
        <time>2021-03-21T08:26:39.000Z</time>
      </trkpt>
      <trkpt lat="45.00824" lon="6.04091">
        <ele>1515.5999755859</ele>
        <time>2021-03-21T08:26:40.000Z</time>
      </trkpt>
      <trkpt lat="45.00823" lon="6.04091">
        <ele>1515.8000488281</ele>
        <time>2021-03-21T08:26:41.000Z</time>
      </trkpt>
      <trkpt lat="45.00822" lon="6.04091">
        <ele>1515.8000488281</ele>
        <time>2021-03-21T08:26:42.000Z</time>
      </trkpt>
      <trkpt lat="45.00822" lon="6.0409">
        <ele>1516.1999511719</ele>
        <time>2021-03-21T08:26:43.000Z</time>
      </trkpt>
      <trkpt lat="45.00821" lon="6.0409">
        <ele>1516.4000244141</ele>
        <time>2021-03-21T08:26:44.000Z</time>
      </trkpt>
      <trkpt lat="45.00821" lon="6.04089">
        <ele>1516.8000488281</ele>
        <time>2021-03-21T08:26:45.000Z</time>
      </trkpt>
      <trkpt lat="45.0082" lon="6.04088">
        <ele>1517.1999511719</ele>
        <time>2021-03-21T08:26:46.000Z</time>
      </trkpt>
      <trkpt lat="45.00819" lon="6.04088">
        <ele>1517.1999511719</ele>
        <time>2021-03-21T08:26:47.000Z</time>
      </trkpt>
      <trkpt lat="45.00819" lon="6.04087">
        <ele>1517.5999755859</ele>
        <time>2021-03-21T08:26:48.000Z</time>
      </trkpt>
      <trkpt lat="45.00818" lon="6.04086">
        <ele>1517.8000488281</ele>
        <time>2021-03-21T08:26:49.000Z</time>
      </trkpt>
      <trkpt lat="45.00818" lon="6.04085">
        <ele>1518</ele>
        <time>2021-03-21T08:26:50.000Z</time>
      </trkpt>
      <trkpt lat="45.00818" lon="6.04085">
        <ele>1518.1999511719</ele>
        <time>2021-03-21T08:26:51.000Z</time>
      </trkpt>
      <trkpt lat="45.00817" lon="6.04084">
        <ele>1518.4000244141</ele>
        <time>2021-03-21T08:26:52.000Z</time>
      </trkpt>
      <trkpt lat="45.00816" lon="6.04084">
        <ele>1518.8000488281</ele>
        <time>2021-03-21T08:26:53.000Z</time>
      </trkpt>
      <trkpt lat="45.00816" lon="6.04083">
        <ele>1518.8000488281</ele>
        <time>2021-03-21T08:26:54.000Z</time>
      </trkpt>
      <trkpt lat="45.00815" lon="6.04082">
        <ele>1519.1999511719</ele>
        <time>2021-03-21T08:26:55.000Z</time>
      </trkpt>
      <trkpt lat="45.00815" lon="6.04082">
        <ele>1519.4000244141</ele>
        <time>2021-03-21T08:26:56.000Z</time>
      </trkpt>
      <trkpt lat="45.00815" lon="6.04081">
        <ele>1519.5999755859</ele>
        <time>2021-03-21T08:26:57.000Z</time>
      </trkpt>
      <trkpt lat="45.00814" lon="6.0408">
        <ele>1520.1999511719</ele>
        <time>2021-03-21T08:26:58.000Z</time>
      </trkpt>
      <trkpt lat="45.00814" lon="6.04079">
        <ele>1520.4000244141</ele>
        <time>2021-03-21T08:26:59.000Z</time>
      </trkpt>
      <trkpt lat="45.00813" lon="6.04078">
        <ele>1520.5999755859</ele>
        <time>2021-03-21T08:27:00.000Z</time>
      </trkpt>
      <trkpt lat="45.00813" lon="6.04078">
        <ele>1521</ele>
        <time>2021-03-21T08:27:01.000Z</time>
      </trkpt>
      <trkpt lat="45.00812" lon="6.04077">
        <ele>1521.4000244141</ele>
        <time>2021-03-21T08:27:02.000Z</time>
      </trkpt>
      <trkpt lat="45.00812" lon="6.04076">
        <ele>1521.5999755859</ele>
        <time>2021-03-21T08:27:03.000Z</time>
      </trkpt>
      <trkpt lat="45.00812" lon="6.04075">
        <ele>1522</ele>
        <time>2021-03-21T08:27:04.000Z</time>
      </trkpt>
      <trkpt lat="45.00812" lon="6.04074">
        <ele>1522.1999511719</ele>
        <time>2021-03-21T08:27:05.000Z</time>
      </trkpt>
      <trkpt lat="45.00811" lon="6.04073">
        <ele>1522.5999755859</ele>
        <time>2021-03-21T08:27:06.000Z</time>
      </trkpt>
      <trkpt lat="45.00811" lon="6.04073">
        <ele>1522.8000488281</ele>
        <time>2021-03-21T08:27:07.000Z</time>
      </trkpt>
      <trkpt lat="45.0081" lon="6.04071">
        <ele>1523.4000244141</ele>
        <time>2021-03-21T08:27:08.000Z</time>
      </trkpt>
      <trkpt lat="45.0081" lon="6.0407">
        <ele>1524</ele>
        <time>2021-03-21T08:27:09.000Z</time>
      </trkpt>
      <trkpt lat="45.0081" lon="6.04068">
        <ele>1524.8000488281</ele>
        <time>2021-03-21T08:27:10.000Z</time>
      </trkpt>
      <trkpt lat="45.0081" lon="6.04067">
        <ele>1525.1999511719</ele>
        <time>2021-03-21T08:27:11.000Z</time>
      </trkpt>
      <trkpt lat="45.0081" lon="6.04067">
        <ele>1525.5999755859</ele>
        <time>2021-03-21T08:27:12.000Z</time>
      </trkpt>
      <trkpt lat="45.00809" lon="6.04066">
        <ele>1526</ele>
        <time>2021-03-21T08:27:13.000Z</time>
      </trkpt>
      <trkpt lat="45.00809" lon="6.04066">
        <ele>1526.1999511719</ele>
        <time>2021-03-21T08:27:14.000Z</time>
      </trkpt>
      <trkpt lat="45.00809" lon="6.04065">
        <ele>1526.5999755859</ele>
        <time>2021-03-21T08:27:15.000Z</time>
      </trkpt>
      <trkpt lat="45.00808" lon="6.04064">
        <ele>1526.8000488281</ele>
        <time>2021-03-21T08:27:16.000Z</time>
      </trkpt>
      <trkpt lat="45.00808" lon="6.04064">
        <ele>1527</ele>
        <time>2021-03-21T08:27:17.000Z</time>
      </trkpt>
      <trkpt lat="45.00807" lon="6.04064">
        <ele>1527.1999511719</ele>
        <time>2021-03-21T08:27:18.000Z</time>
      </trkpt>
      <trkpt lat="45.00807" lon="6.04063">
        <ele>1527.4000244141</ele>
        <time>2021-03-21T08:27:19.000Z</time>
      </trkpt>
      <trkpt lat="45.00807" lon="6.04063">
        <ele>1527.4000244141</ele>
        <time>2021-03-21T08:27:20.000Z</time>
      </trkpt>
      <trkpt lat="45.00806" lon="6.04062">
        <ele>1527.5999755859</ele>
        <time>2021-03-21T08:27:21.000Z</time>
      </trkpt>
      <trkpt lat="45.00805" lon="6.04061">
        <ele>1528.1999511719</ele>
        <time>2021-03-21T08:27:22.000Z</time>
      </trkpt>
      <trkpt lat="45.00804" lon="6.04061">
        <ele>1528.1999511719</ele>
        <time>2021-03-21T08:27:23.000Z</time>
      </trkpt>
      <trkpt lat="45.00804" lon="6.0406">
        <ele>1528.5999755859</ele>
        <time>2021-03-21T08:27:24.000Z</time>
      </trkpt>
      <trkpt lat="45.00803" lon="6.0406">
        <ele>1528.8000488281</ele>
        <time>2021-03-21T08:27:25.000Z</time>
      </trkpt>
      <trkpt lat="45.00803" lon="6.04059">
        <ele>1529.1999511719</ele>
        <time>2021-03-21T08:27:26.000Z</time>
      </trkpt>
      <trkpt lat="45.00802" lon="6.04058">
        <ele>1529.5999755859</ele>
        <time>2021-03-21T08:27:27.000Z</time>
      </trkpt>
      <trkpt lat="45.00802" lon="6.04058">
        <ele>1529.8000488281</ele>
        <time>2021-03-21T08:27:28.000Z</time>
      </trkpt>
      <trkpt lat="45.00801" lon="6.04057">
        <ele>1530.1999511719</ele>
        <time>2021-03-21T08:27:29.000Z</time>
      </trkpt>
      <trkpt lat="45.00801" lon="6.04057">
        <ele>1530.4000244141</ele>
        <time>2021-03-21T08:27:30.000Z</time>
      </trkpt>
      <trkpt lat="45.00801" lon="6.04056">
        <ele>1530.8000488281</ele>
        <time>2021-03-21T08:27:31.000Z</time>
      </trkpt>
      <trkpt lat="45.008" lon="6.04055">
        <ele>1531</ele>
        <time>2021-03-21T08:27:32.000Z</time>
      </trkpt>
      <trkpt lat="45.00799" lon="6.04055">
        <ele>1531.1999511719</ele>
        <time>2021-03-21T08:27:33.000Z</time>
      </trkpt>
      <trkpt lat="45.00799" lon="6.04054">
        <ele>1531.5999755859</ele>
        <time>2021-03-21T08:27:34.000Z</time>
      </trkpt>
      <trkpt lat="45.00799" lon="6.04053">
        <ele>1532</ele>
        <time>2021-03-21T08:27:35.000Z</time>
      </trkpt>
      <trkpt lat="45.00798" lon="6.04053">
        <ele>1532.1999511719</ele>
        <time>2021-03-21T08:27:36.000Z</time>
      </trkpt>
      <trkpt lat="45.00798" lon="6.04052">
        <ele>1532.5999755859</ele>
        <time>2021-03-21T08:27:37.000Z</time>
      </trkpt>
      <trkpt lat="45.00797" lon="6.04052">
        <ele>1532.8000488281</ele>
        <time>2021-03-21T08:27:38.000Z</time>
      </trkpt>
      <trkpt lat="45.00797" lon="6.04051">
        <ele>1533</ele>
        <time>2021-03-21T08:27:39.000Z</time>
      </trkpt>
      <trkpt lat="45.00796" lon="6.04051">
        <ele>1533</ele>
        <time>2021-03-21T08:27:40.000Z</time>
      </trkpt>
      <trkpt lat="45.00795" lon="6.04051">
        <ele>1533</ele>
        <time>2021-03-21T08:27:41.000Z</time>
      </trkpt>
      <trkpt lat="45.00794" lon="6.04051">
        <ele>1533.1999511719</ele>
        <time>2021-03-21T08:27:42.000Z</time>
      </trkpt>
      <trkpt lat="45.00794" lon="6.0405">
        <ele>1533.1999511719</ele>
        <time>2021-03-21T08:27:43.000Z</time>
      </trkpt>
      <trkpt lat="45.00793" lon="6.0405">
        <ele>1533.4000244141</ele>
        <time>2021-03-21T08:27:44.000Z</time>
      </trkpt>
      <trkpt lat="45.00793" lon="6.04049">
        <ele>1533.5999755859</ele>
        <time>2021-03-21T08:27:45.000Z</time>
      </trkpt>
      <trkpt lat="45.00792" lon="6.04049">
        <ele>1533.8000488281</ele>
        <time>2021-03-21T08:27:46.000Z</time>
      </trkpt>
      <trkpt lat="45.00792" lon="6.04049">
        <ele>1534</ele>
        <time>2021-03-21T08:27:47.000Z</time>
      </trkpt>
      <trkpt lat="45.00791" lon="6.04049">
        <ele>1534.1999511719</ele>
        <time>2021-03-21T08:27:48.000Z</time>
      </trkpt>
      <trkpt lat="45.0079" lon="6.04048">
        <ele>1534.4000244141</ele>
        <time>2021-03-21T08:27:49.000Z</time>
      </trkpt>
      <trkpt lat="45.0079" lon="6.04048">
        <ele>1534.4000244141</ele>
        <time>2021-03-21T08:27:50.000Z</time>
      </trkpt>
      <trkpt lat="45.0079" lon="6.04047">
        <ele>1534.8000488281</ele>
        <time>2021-03-21T08:27:51.000Z</time>
      </trkpt>
      <trkpt lat="45.00789" lon="6.04046">
        <ele>1535.1999511719</ele>
        <time>2021-03-21T08:27:52.000Z</time>
      </trkpt>
      <trkpt lat="45.00789" lon="6.04046">
        <ele>1535.4000244141</ele>
        <time>2021-03-21T08:27:53.000Z</time>
      </trkpt>
      <trkpt lat="45.00788" lon="6.04045">
        <ele>1535.5999755859</ele>
        <time>2021-03-21T08:27:54.000Z</time>
      </trkpt>
      <trkpt lat="45.00788" lon="6.04045">
        <ele>1536</ele>
        <time>2021-03-21T08:27:55.000Z</time>
      </trkpt>
      <trkpt lat="45.00787" lon="6.04044">
        <ele>1536.4000244141</ele>
        <time>2021-03-21T08:27:56.000Z</time>
      </trkpt>
      <trkpt lat="45.00786" lon="6.04044">
        <ele>1536.4000244141</ele>
        <time>2021-03-21T08:27:57.000Z</time>
      </trkpt>
      <trkpt lat="45.00786" lon="6.04044">
        <ele>1536.5999755859</ele>
        <time>2021-03-21T08:27:58.000Z</time>
      </trkpt>
      <trkpt lat="45.00785" lon="6.04043">
        <ele>1536.8000488281</ele>
        <time>2021-03-21T08:27:59.000Z</time>
      </trkpt>
      <trkpt lat="45.00785" lon="6.04043">
        <ele>1536.8000488281</ele>
        <time>2021-03-21T08:28:00.000Z</time>
      </trkpt>
      <trkpt lat="45.00784" lon="6.04043">
        <ele>1537</ele>
        <time>2021-03-21T08:28:01.000Z</time>
      </trkpt>
      <trkpt lat="45.00783" lon="6.04042">
        <ele>1537.1999511719</ele>
        <time>2021-03-21T08:28:02.000Z</time>
      </trkpt>
      <trkpt lat="45.00783" lon="6.04042">
        <ele>1537.4000244141</ele>
        <time>2021-03-21T08:28:03.000Z</time>
      </trkpt>
      <trkpt lat="45.00782" lon="6.04041">
        <ele>1537.4000244141</ele>
        <time>2021-03-21T08:28:04.000Z</time>
      </trkpt>
      <trkpt lat="45.00782" lon="6.04041">
        <ele>1537.5999755859</ele>
        <time>2021-03-21T08:28:05.000Z</time>
      </trkpt>
      <trkpt lat="45.0078" lon="6.04041">
        <ele>1537.8000488281</ele>
        <time>2021-03-21T08:28:06.000Z</time>
      </trkpt>
      <trkpt lat="45.0078" lon="6.0404">
        <ele>1538</ele>
        <time>2021-03-21T08:28:07.000Z</time>
      </trkpt>
      <trkpt lat="45.00779" lon="6.04039">
        <ele>1538.1999511719</ele>
        <time>2021-03-21T08:28:08.000Z</time>
      </trkpt>
      <trkpt lat="45.00778" lon="6.04039">
        <ele>1538.4000244141</ele>
        <time>2021-03-21T08:28:09.000Z</time>
      </trkpt>
      <trkpt lat="45.00778" lon="6.04038">
        <ele>1538.5999755859</ele>
        <time>2021-03-21T08:28:10.000Z</time>
      </trkpt>
      <trkpt lat="45.00777" lon="6.04038">
        <ele>1538.8000488281</ele>
        <time>2021-03-21T08:28:11.000Z</time>
      </trkpt>
      <trkpt lat="45.00777" lon="6.04038">
        <ele>1538.8000488281</ele>
        <time>2021-03-21T08:28:12.000Z</time>
      </trkpt>
      <trkpt lat="45.00776" lon="6.04037">
        <ele>1539</ele>
        <time>2021-03-21T08:28:13.000Z</time>
      </trkpt>
      <trkpt lat="45.00775" lon="6.04037">
        <ele>1539.1999511719</ele>
        <time>2021-03-21T08:28:14.000Z</time>
      </trkpt>
      <trkpt lat="45.00774" lon="6.04036">
        <ele>1539.4000244141</ele>
        <time>2021-03-21T08:28:15.000Z</time>
      </trkpt>
      <trkpt lat="45.00774" lon="6.04036">
        <ele>1539.5999755859</ele>
        <time>2021-03-21T08:28:16.000Z</time>
      </trkpt>
      <trkpt lat="45.00773" lon="6.04035">
        <ele>1539.8000488281</ele>
        <time>2021-03-21T08:28:17.000Z</time>
      </trkpt>
      <trkpt lat="45.00772" lon="6.04034">
        <ele>1540</ele>
        <time>2021-03-21T08:28:18.000Z</time>
      </trkpt>
      <trkpt lat="45.00772" lon="6.04034">
        <ele>1540.1999511719</ele>
        <time>2021-03-21T08:28:19.000Z</time>
      </trkpt>
      <trkpt lat="45.00771" lon="6.04033">
        <ele>1540.5999755859</ele>
        <time>2021-03-21T08:28:20.000Z</time>
      </trkpt>
      <trkpt lat="45.00771" lon="6.04033">
        <ele>1540.5999755859</ele>
        <time>2021-03-21T08:28:21.000Z</time>
      </trkpt>
      <trkpt lat="45.0077" lon="6.04032">
        <ele>1540.8000488281</ele>
        <time>2021-03-21T08:28:22.000Z</time>
      </trkpt>
      <trkpt lat="45.00769" lon="6.04032">
        <ele>1541</ele>
        <time>2021-03-21T08:28:23.000Z</time>
      </trkpt>
      <trkpt lat="45.00769" lon="6.04031">
        <ele>1541.1999511719</ele>
        <time>2021-03-21T08:28:24.000Z</time>
      </trkpt>
      <trkpt lat="45.00768" lon="6.0403">
        <ele>1541.5999755859</ele>
        <time>2021-03-21T08:28:25.000Z</time>
      </trkpt>
      <trkpt lat="45.00768" lon="6.0403">
        <ele>1541.5999755859</ele>
        <time>2021-03-21T08:28:26.000Z</time>
      </trkpt>
      <trkpt lat="45.00767" lon="6.04029">
        <ele>1541.8000488281</ele>
        <time>2021-03-21T08:28:27.000Z</time>
      </trkpt>
      <trkpt lat="45.00767" lon="6.04029">
        <ele>1541.8000488281</ele>
        <time>2021-03-21T08:28:28.000Z</time>
      </trkpt>
      <trkpt lat="45.00766" lon="6.04029">
        <ele>1542</ele>
        <time>2021-03-21T08:28:29.000Z</time>
      </trkpt>
      <trkpt lat="45.00766" lon="6.04029">
        <ele>1542.1999511719</ele>
        <time>2021-03-21T08:28:30.000Z</time>
      </trkpt>
      <trkpt lat="45.00765" lon="6.04029">
        <ele>1542.1999511719</ele>
        <time>2021-03-21T08:28:31.000Z</time>
      </trkpt>
      <trkpt lat="45.00764" lon="6.04029">
        <ele>1542.1999511719</ele>
        <time>2021-03-21T08:28:32.000Z</time>
      </trkpt>
      <trkpt lat="45.00764" lon="6.04028">
        <ele>1542.1999511719</ele>
        <time>2021-03-21T08:28:33.000Z</time>
      </trkpt>
      <trkpt lat="45.00764" lon="6.04028">
        <ele>1542.1999511719</ele>
        <time>2021-03-21T08:28:34.000Z</time>
      </trkpt>
      <trkpt lat="45.00763" lon="6.04028">
        <ele>1542.1999511719</ele>
        <time>2021-03-21T08:28:35.000Z</time>
      </trkpt>
      <trkpt lat="45.00763" lon="6.04028">
        <ele>1542.1999511719</ele>
        <time>2021-03-21T08:28:36.000Z</time>
      </trkpt>
      <trkpt lat="45.00762" lon="6.04027">
        <ele>1542.1999511719</ele>
        <time>2021-03-21T08:28:37.000Z</time>
      </trkpt>
      <trkpt lat="45.00762" lon="6.04027">
        <ele>1542.1999511719</ele>
        <time>2021-03-21T08:28:38.000Z</time>
      </trkpt>
      <trkpt lat="45.00762" lon="6.04026">
        <ele>1542.4000244141</ele>
        <time>2021-03-21T08:28:39.000Z</time>
      </trkpt>
      <trkpt lat="45.00761" lon="6.04026">
        <ele>1542.4000244141</ele>
        <time>2021-03-21T08:28:40.000Z</time>
      </trkpt>
      <trkpt lat="45.0076" lon="6.04025">
        <ele>1542.5999755859</ele>
        <time>2021-03-21T08:28:41.000Z</time>
      </trkpt>
      <trkpt lat="45.00761" lon="6.04025">
        <ele>1542.5999755859</ele>
        <time>2021-03-21T08:28:42.000Z</time>
      </trkpt>
      <trkpt lat="45.00761" lon="6.04025">
        <ele>1542.5999755859</ele>
        <time>2021-03-21T08:28:43.000Z</time>
      </trkpt>
      <trkpt lat="45.00761" lon="6.04025">
        <ele>1542.8000488281</ele>
        <time>2021-03-21T08:28:44.000Z</time>
      </trkpt>
      <trkpt lat="45.00761" lon="6.04024">
        <ele>1543</ele>
        <time>2021-03-21T08:28:45.000Z</time>
      </trkpt>
      <trkpt lat="45.00761" lon="6.04024">
        <ele>1543.1999511719</ele>
        <time>2021-03-21T08:28:46.000Z</time>
      </trkpt>
      <trkpt lat="45.00762" lon="6.04025">
        <ele>1543</ele>
        <time>2021-03-21T08:28:47.000Z</time>
      </trkpt>
      <trkpt lat="45.00762" lon="6.04025">
        <ele>1543</ele>
        <time>2021-03-21T08:28:48.000Z</time>
      </trkpt>
      <trkpt lat="45.00762" lon="6.04025">
        <ele>1543</ele>
        <time>2021-03-21T08:28:49.000Z</time>
      </trkpt>
      <trkpt lat="45.00762" lon="6.04025">
        <ele>1543</ele>
        <time>2021-03-21T08:28:50.000Z</time>
      </trkpt>
      <trkpt lat="45.00762" lon="6.04025">
        <ele>1543.1999511719</ele>
        <time>2021-03-21T08:28:51.000Z</time>
      </trkpt>
      <trkpt lat="45.00762" lon="6.04025">
        <ele>1543</ele>
        <time>2021-03-21T08:28:52.000Z</time>
      </trkpt>
      <trkpt lat="45.00762" lon="6.04025">
        <ele>1543</ele>
        <time>2021-03-21T08:28:53.000Z</time>
      </trkpt>
      <trkpt lat="45.00762" lon="6.04025">
        <ele>1543</ele>
        <time>2021-03-21T08:28:54.000Z</time>
      </trkpt>
      <trkpt lat="45.00762" lon="6.04025">
        <ele>1543</ele>
        <time>2021-03-21T08:28:55.000Z</time>
      </trkpt>
      <trkpt lat="45.00763" lon="6.04025">
        <ele>1543</ele>
        <time>2021-03-21T08:28:56.000Z</time>
      </trkpt>
      <trkpt lat="45.00763" lon="6.04026">
        <ele>1543</ele>
        <time>2021-03-21T08:28:57.000Z</time>
      </trkpt>
      <trkpt lat="45.00763" lon="6.04026">
        <ele>1543</ele>
        <time>2021-03-21T08:28:58.000Z</time>
      </trkpt>
      <trkpt lat="45.00763" lon="6.04026">
        <ele>1542.8000488281</ele>
        <time>2021-03-21T08:28:59.000Z</time>
      </trkpt>
      <trkpt lat="45.00763" lon="6.04026">
        <ele>1542.8000488281</ele>
        <time>2021-03-21T08:29:00.000Z</time>
      </trkpt>
      <trkpt lat="45.00763" lon="6.04026">
        <ele>1542.8000488281</ele>
        <time>2021-03-21T08:29:01.000Z</time>
      </trkpt>
      <trkpt lat="45.00763" lon="6.04026">
        <ele>1543</ele>
        <time>2021-03-21T08:29:02.000Z</time>
      </trkpt>
      <trkpt lat="45.00763" lon="6.04026">
        <ele>1543</ele>
        <time>2021-03-21T08:29:03.000Z</time>
      </trkpt>
      <trkpt lat="45.00763" lon="6.04025">
        <ele>1543</ele>
        <time>2021-03-21T08:29:04.000Z</time>
      </trkpt>
      <trkpt lat="45.00762" lon="6.04025">
        <ele>1542.8000488281</ele>
        <time>2021-03-21T08:29:05.000Z</time>
      </trkpt>
      <trkpt lat="45.00762" lon="6.04026">
        <ele>1542.8000488281</ele>
        <time>2021-03-21T08:29:06.000Z</time>
      </trkpt>
      <trkpt lat="45.00762" lon="6.04026">
        <ele>1542.5999755859</ele>
        <time>2021-03-21T08:29:07.000Z</time>
      </trkpt>
      <trkpt lat="45.00761" lon="6.04026">
        <ele>1542.5999755859</ele>
        <time>2021-03-21T08:29:08.000Z</time>
      </trkpt>
      <trkpt lat="45.00761" lon="6.04026">
        <ele>1542.5999755859</ele>
        <time>2021-03-21T08:29:09.000Z</time>
      </trkpt>
      <trkpt lat="45.00762" lon="6.04026">
        <ele>1542.5999755859</ele>
        <time>2021-03-21T08:29:10.000Z</time>
      </trkpt>
      <trkpt lat="45.00762" lon="6.04026">
        <ele>1542.5999755859</ele>
        <time>2021-03-21T08:29:11.000Z</time>
      </trkpt>
      <trkpt lat="45.00762" lon="6.04026">
        <ele>1542.5999755859</ele>
        <time>2021-03-21T08:29:12.000Z</time>
      </trkpt>
      <trkpt lat="45.00763" lon="6.04026">
        <ele>1542.5999755859</ele>
        <time>2021-03-21T08:29:13.000Z</time>
      </trkpt>
      <trkpt lat="45.00763" lon="6.04026">
        <ele>1542.8000488281</ele>
        <time>2021-03-21T08:29:14.000Z</time>
      </trkpt>
      <trkpt lat="45.00763" lon="6.04026">
        <ele>1543</ele>
        <time>2021-03-21T08:29:15.000Z</time>
      </trkpt>
      <trkpt lat="45.00764" lon="6.04025">
        <ele>1543.1999511719</ele>
        <time>2021-03-21T08:29:16.000Z</time>
      </trkpt>
      <trkpt lat="45.00765" lon="6.04025">
        <ele>1543.4000244141</ele>
        <time>2021-03-21T08:29:17.000Z</time>
      </trkpt>
      <trkpt lat="45.00765" lon="6.04025">
        <ele>1543.5999755859</ele>
        <time>2021-03-21T08:29:18.000Z</time>
      </trkpt>
      <trkpt lat="45.00765" lon="6.04024">
        <ele>1543.8000488281</ele>
        <time>2021-03-21T08:29:19.000Z</time>
      </trkpt>
      <trkpt lat="45.00766" lon="6.04023">
        <ele>1544.1999511719</ele>
        <time>2021-03-21T08:29:20.000Z</time>
      </trkpt>
      <trkpt lat="45.00767" lon="6.04023">
        <ele>1544.1999511719</ele>
        <time>2021-03-21T08:29:21.000Z</time>
      </trkpt>
      <trkpt lat="45.00768" lon="6.04022">
        <ele>1544.5999755859</ele>
        <time>2021-03-21T08:29:22.000Z</time>
      </trkpt>
      <trkpt lat="45.00768" lon="6.04021">
        <ele>1544.8000488281</ele>
        <time>2021-03-21T08:29:23.000Z</time>
      </trkpt>
      <trkpt lat="45.00769" lon="6.04021">
        <ele>1545</ele>
        <time>2021-03-21T08:29:24.000Z</time>
      </trkpt>
      <trkpt lat="45.0077" lon="6.0402">
        <ele>1545.4000244141</ele>
        <time>2021-03-21T08:29:25.000Z</time>
      </trkpt>
      <trkpt lat="45.00771" lon="6.04019">
        <ele>1545.8000488281</ele>
        <time>2021-03-21T08:29:26.000Z</time>
      </trkpt>
      <trkpt lat="45.00771" lon="6.04018">
        <ele>1546.4000244141</ele>
        <time>2021-03-21T08:29:27.000Z</time>
      </trkpt>
      <trkpt lat="45.00771" lon="6.04018">
        <ele>1546.8000488281</ele>
        <time>2021-03-21T08:29:28.000Z</time>
      </trkpt>
      <trkpt lat="45.00772" lon="6.04017">
        <ele>1547.1999511719</ele>
        <time>2021-03-21T08:29:29.000Z</time>
      </trkpt>
      <trkpt lat="45.00772" lon="6.04016">
        <ele>1547.5999755859</ele>
        <time>2021-03-21T08:29:30.000Z</time>
      </trkpt>
      <trkpt lat="45.00772" lon="6.04016">
        <ele>1547.8000488281</ele>
        <time>2021-03-21T08:29:31.000Z</time>
      </trkpt>
      <trkpt lat="45.00773" lon="6.04015">
        <ele>1548.1999511719</ele>
        <time>2021-03-21T08:29:32.000Z</time>
      </trkpt>
      <trkpt lat="45.00773" lon="6.04015">
        <ele>1548.1999511719</ele>
        <time>2021-03-21T08:29:33.000Z</time>
      </trkpt>
      <trkpt lat="45.00774" lon="6.04015">
        <ele>1548.5999755859</ele>
        <time>2021-03-21T08:29:34.000Z</time>
      </trkpt>
      <trkpt lat="45.00774" lon="6.04014">
        <ele>1548.8000488281</ele>
        <time>2021-03-21T08:29:35.000Z</time>
      </trkpt>
      <trkpt lat="45.00774" lon="6.04014">
        <ele>1548.8000488281</ele>
        <time>2021-03-21T08:29:36.000Z</time>
      </trkpt>
      <trkpt lat="45.00775" lon="6.04013">
        <ele>1549.1999511719</ele>
        <time>2021-03-21T08:29:37.000Z</time>
      </trkpt>
      <trkpt lat="45.00775" lon="6.04013">
        <ele>1549.4000244141</ele>
        <time>2021-03-21T08:29:38.000Z</time>
      </trkpt>
      <trkpt lat="45.00776" lon="6.04013">
        <ele>1549.5999755859</ele>
        <time>2021-03-21T08:29:39.000Z</time>
      </trkpt>
      <trkpt lat="45.00777" lon="6.04012">
        <ele>1549.8000488281</ele>
        <time>2021-03-21T08:29:40.000Z</time>
      </trkpt>
      <trkpt lat="45.00777" lon="6.04012">
        <ele>1550</ele>
        <time>2021-03-21T08:29:41.000Z</time>
      </trkpt>
      <trkpt lat="45.00778" lon="6.04012">
        <ele>1550.1999511719</ele>
        <time>2021-03-21T08:29:42.000Z</time>
      </trkpt>
      <trkpt lat="45.00779" lon="6.04011">
        <ele>1550.5999755859</ele>
        <time>2021-03-21T08:29:43.000Z</time>
      </trkpt>
      <trkpt lat="45.00779" lon="6.04012">
        <ele>1550.4000244141</ele>
        <time>2021-03-21T08:29:44.000Z</time>
      </trkpt>
      <trkpt lat="45.00779" lon="6.04012">
        <ele>1550.5999755859</ele>
        <time>2021-03-21T08:29:45.000Z</time>
      </trkpt>
      <trkpt lat="45.0078" lon="6.04011">
        <ele>1550.5999755859</ele>
        <time>2021-03-21T08:29:46.000Z</time>
      </trkpt>
      <trkpt lat="45.00779" lon="6.04011">
        <ele>1550.8000488281</ele>
        <time>2021-03-21T08:29:47.000Z</time>
      </trkpt>
      <trkpt lat="45.0078" lon="6.04011">
        <ele>1550.8000488281</ele>
        <time>2021-03-21T08:29:48.000Z</time>
      </trkpt>
      <trkpt lat="45.0078" lon="6.04011">
        <ele>1550.8000488281</ele>
        <time>2021-03-21T08:29:49.000Z</time>
      </trkpt>
      <trkpt lat="45.0078" lon="6.04011">
        <ele>1551</ele>
        <time>2021-03-21T08:29:50.000Z</time>
      </trkpt>
      <trkpt lat="45.0078" lon="6.0401">
        <ele>1551.1999511719</ele>
        <time>2021-03-21T08:29:51.000Z</time>
      </trkpt>
      <trkpt lat="45.0078" lon="6.0401">
        <ele>1551.1999511719</ele>
        <time>2021-03-21T08:29:52.000Z</time>
      </trkpt>
      <trkpt lat="45.0078" lon="6.04009">
        <ele>1551.4000244141</ele>
        <time>2021-03-21T08:29:53.000Z</time>
      </trkpt>
      <trkpt lat="45.00779" lon="6.04009">
        <ele>1551.5999755859</ele>
        <time>2021-03-21T08:29:54.000Z</time>
      </trkpt>
      <trkpt lat="45.00779" lon="6.04009">
        <ele>1551.8000488281</ele>
        <time>2021-03-21T08:29:55.000Z</time>
      </trkpt>
      <trkpt lat="45.00778" lon="6.04008">
        <ele>1551.8000488281</ele>
        <time>2021-03-21T08:29:56.000Z</time>
      </trkpt>
      <trkpt lat="45.00778" lon="6.04007">
        <ele>1552</ele>
        <time>2021-03-21T08:29:57.000Z</time>
      </trkpt>
      <trkpt lat="45.00777" lon="6.04007">
        <ele>1552.1999511719</ele>
        <time>2021-03-21T08:29:58.000Z</time>
      </trkpt>
      <trkpt lat="45.00776" lon="6.04006">
        <ele>1552.1999511719</ele>
        <time>2021-03-21T08:29:59.000Z</time>
      </trkpt>
      <trkpt lat="45.00776" lon="6.04006">
        <ele>1552.4000244141</ele>
        <time>2021-03-21T08:30:00.000Z</time>
      </trkpt>
      <trkpt lat="45.00775" lon="6.04005">
        <ele>1552.4000244141</ele>
        <time>2021-03-21T08:30:01.000Z</time>
      </trkpt>
      <trkpt lat="45.00774" lon="6.04004">
        <ele>1552.5999755859</ele>
        <time>2021-03-21T08:30:02.000Z</time>
      </trkpt>
      <trkpt lat="45.00773" lon="6.04004">
        <ele>1552.8000488281</ele>
        <time>2021-03-21T08:30:03.000Z</time>
      </trkpt>
      <trkpt lat="45.00772" lon="6.04003">
        <ele>1552.8000488281</ele>
        <time>2021-03-21T08:30:04.000Z</time>
      </trkpt>
      <trkpt lat="45.00772" lon="6.04003">
        <ele>1553</ele>
        <time>2021-03-21T08:30:05.000Z</time>
      </trkpt>
      <trkpt lat="45.00771" lon="6.04002">
        <ele>1553</ele>
        <time>2021-03-21T08:30:06.000Z</time>
      </trkpt>
      <trkpt lat="45.00771" lon="6.04002">
        <ele>1553</ele>
        <time>2021-03-21T08:30:07.000Z</time>
      </trkpt>
      <trkpt lat="45.0077" lon="6.04002">
        <ele>1553.1999511719</ele>
        <time>2021-03-21T08:30:08.000Z</time>
      </trkpt>
      <trkpt lat="45.00769" lon="6.04001">
        <ele>1553.1999511719</ele>
        <time>2021-03-21T08:30:09.000Z</time>
      </trkpt>
      <trkpt lat="45.00768" lon="6.04001">
        <ele>1553.1999511719</ele>
        <time>2021-03-21T08:30:10.000Z</time>
      </trkpt>
      <trkpt lat="45.00767" lon="6.04001">
        <ele>1553.1999511719</ele>
        <time>2021-03-21T08:30:11.000Z</time>
      </trkpt>
      <trkpt lat="45.00767" lon="6.04001">
        <ele>1553.1999511719</ele>
        <time>2021-03-21T08:30:12.000Z</time>
      </trkpt>
      <trkpt lat="45.00767" lon="6.04">
        <ele>1553.4000244141</ele>
        <time>2021-03-21T08:30:13.000Z</time>
      </trkpt>
      <trkpt lat="45.00766" lon="6.04">
        <ele>1553.4000244141</ele>
        <time>2021-03-21T08:30:14.000Z</time>
      </trkpt>
      <trkpt lat="45.00766" lon="6.03999">
        <ele>1553.4000244141</ele>
        <time>2021-03-21T08:30:15.000Z</time>
      </trkpt>
      <trkpt lat="45.00765" lon="6.03999">
        <ele>1553.5999755859</ele>
        <time>2021-03-21T08:30:16.000Z</time>
      </trkpt>
      <trkpt lat="45.00764" lon="6.03998">
        <ele>1553.8000488281</ele>
        <time>2021-03-21T08:30:17.000Z</time>
      </trkpt>
      <trkpt lat="45.00763" lon="6.03997">
        <ele>1553.8000488281</ele>
        <time>2021-03-21T08:30:18.000Z</time>
      </trkpt>
      <trkpt lat="45.00763" lon="6.03997">
        <ele>1554</ele>
        <time>2021-03-21T08:30:19.000Z</time>
      </trkpt>
      <trkpt lat="45.00762" lon="6.03997">
        <ele>1554</ele>
        <time>2021-03-21T08:30:20.000Z</time>
      </trkpt>
      <trkpt lat="45.00761" lon="6.03996">
        <ele>1554.1999511719</ele>
        <time>2021-03-21T08:30:21.000Z</time>
      </trkpt>
      <trkpt lat="45.0076" lon="6.03996">
        <ele>1554.1999511719</ele>
        <time>2021-03-21T08:30:22.000Z</time>
      </trkpt>
      <trkpt lat="45.00759" lon="6.03995">
        <ele>1554.1999511719</ele>
        <time>2021-03-21T08:30:23.000Z</time>
      </trkpt>
      <trkpt lat="45.00758" lon="6.03995">
        <ele>1554.1999511719</ele>
        <time>2021-03-21T08:30:24.000Z</time>
      </trkpt>
      <trkpt lat="45.00758" lon="6.03995">
        <ele>1554.4000244141</ele>
        <time>2021-03-21T08:30:25.000Z</time>
      </trkpt>
      <trkpt lat="45.00757" lon="6.03994">
        <ele>1554.4000244141</ele>
        <time>2021-03-21T08:30:26.000Z</time>
      </trkpt>
      <trkpt lat="45.00756" lon="6.03994">
        <ele>1554.4000244141</ele>
        <time>2021-03-21T08:30:27.000Z</time>
      </trkpt>
      <trkpt lat="45.00755" lon="6.03994">
        <ele>1554.5999755859</ele>
        <time>2021-03-21T08:30:28.000Z</time>
      </trkpt>
      <trkpt lat="45.00754" lon="6.03994">
        <ele>1554.4000244141</ele>
        <time>2021-03-21T08:30:29.000Z</time>
      </trkpt>
      <trkpt lat="45.00754" lon="6.03993">
        <ele>1554.5999755859</ele>
        <time>2021-03-21T08:30:30.000Z</time>
      </trkpt>
      <trkpt lat="45.00753" lon="6.03993">
        <ele>1554.5999755859</ele>
        <time>2021-03-21T08:30:31.000Z</time>
      </trkpt>
      <trkpt lat="45.00752" lon="6.03993">
        <ele>1554.5999755859</ele>
        <time>2021-03-21T08:30:32.000Z</time>
      </trkpt>
      <trkpt lat="45.00752" lon="6.03992">
        <ele>1554.8000488281</ele>
        <time>2021-03-21T08:30:33.000Z</time>
      </trkpt>
      <trkpt lat="45.00751" lon="6.03992">
        <ele>1554.8000488281</ele>
        <time>2021-03-21T08:30:34.000Z</time>
      </trkpt>
      <trkpt lat="45.00751" lon="6.03991">
        <ele>1555</ele>
        <time>2021-03-21T08:30:35.000Z</time>
      </trkpt>
      <trkpt lat="45.0075" lon="6.03991">
        <ele>1555</ele>
        <time>2021-03-21T08:30:36.000Z</time>
      </trkpt>
      <trkpt lat="45.0075" lon="6.03991">
        <ele>1555</ele>
        <time>2021-03-21T08:30:37.000Z</time>
      </trkpt>
      <trkpt lat="45.00749" lon="6.0399">
        <ele>1555.4000244141</ele>
        <time>2021-03-21T08:30:38.000Z</time>
      </trkpt>
      <trkpt lat="45.00749" lon="6.0399">
        <ele>1555.4000244141</ele>
        <time>2021-03-21T08:30:39.000Z</time>
      </trkpt>
      <trkpt lat="45.00748" lon="6.03989">
        <ele>1555.5999755859</ele>
        <time>2021-03-21T08:30:40.000Z</time>
      </trkpt>
      <trkpt lat="45.00748" lon="6.03989">
        <ele>1555.8000488281</ele>
        <time>2021-03-21T08:30:41.000Z</time>
      </trkpt>
      <trkpt lat="45.00748" lon="6.03988">
        <ele>1556</ele>
        <time>2021-03-21T08:30:42.000Z</time>
      </trkpt>
      <trkpt lat="45.00747" lon="6.03987">
        <ele>1556</ele>
        <time>2021-03-21T08:30:43.000Z</time>
      </trkpt>
      <trkpt lat="45.00747" lon="6.03987">
        <ele>1556.1999511719</ele>
        <time>2021-03-21T08:30:44.000Z</time>
      </trkpt>
      <trkpt lat="45.00746" lon="6.03987">
        <ele>1556.4000244141</ele>
        <time>2021-03-21T08:30:45.000Z</time>
      </trkpt>
      <trkpt lat="45.00745" lon="6.03987">
        <ele>1556.4000244141</ele>
        <time>2021-03-21T08:30:46.000Z</time>
      </trkpt>
      <trkpt lat="45.00744" lon="6.03986">
        <ele>1556.4000244141</ele>
        <time>2021-03-21T08:30:47.000Z</time>
      </trkpt>
      <trkpt lat="45.00743" lon="6.03986">
        <ele>1556.8000488281</ele>
        <time>2021-03-21T08:30:48.000Z</time>
      </trkpt>
      <trkpt lat="45.00743" lon="6.03985">
        <ele>1557</ele>
        <time>2021-03-21T08:30:49.000Z</time>
      </trkpt>
      <trkpt lat="45.00743" lon="6.03985">
        <ele>1557.4000244141</ele>
        <time>2021-03-21T08:30:50.000Z</time>
      </trkpt>
      <trkpt lat="45.00742" lon="6.03985">
        <ele>1557.4000244141</ele>
        <time>2021-03-21T08:30:51.000Z</time>
      </trkpt>
      <trkpt lat="45.00742" lon="6.03984">
        <ele>1558</ele>
        <time>2021-03-21T08:30:52.000Z</time>
      </trkpt>
      <trkpt lat="45.00741" lon="6.03984">
        <ele>1558.1999511719</ele>
        <time>2021-03-21T08:30:53.000Z</time>
      </trkpt>
      <trkpt lat="45.00741" lon="6.03983">
        <ele>1558.4000244141</ele>
        <time>2021-03-21T08:30:54.000Z</time>
      </trkpt>
      <trkpt lat="45.00741" lon="6.03983">
        <ele>1558.5999755859</ele>
        <time>2021-03-21T08:30:55.000Z</time>
      </trkpt>
      <trkpt lat="45.00741" lon="6.03983">
        <ele>1558.5999755859</ele>
        <time>2021-03-21T08:30:56.000Z</time>
      </trkpt>
      <trkpt lat="45.00741" lon="6.03983">
        <ele>1558.8000488281</ele>
        <time>2021-03-21T08:30:57.000Z</time>
      </trkpt>
      <trkpt lat="45.00741" lon="6.03982">
        <ele>1559.4000244141</ele>
        <time>2021-03-21T08:30:58.000Z</time>
      </trkpt>
      <trkpt lat="45.00741" lon="6.03982">
        <ele>1559.5999755859</ele>
        <time>2021-03-21T08:30:59.000Z</time>
      </trkpt>
      <trkpt lat="45.00742" lon="6.03981">
        <ele>1560.1999511719</ele>
        <time>2021-03-21T08:31:00.000Z</time>
      </trkpt>
      <trkpt lat="45.00743" lon="6.03981">
        <ele>1560.4000244141</ele>
        <time>2021-03-21T08:31:01.000Z</time>
      </trkpt>
      <trkpt lat="45.00744" lon="6.03981">
        <ele>1560.5999755859</ele>
        <time>2021-03-21T08:31:02.000Z</time>
      </trkpt>
      <trkpt lat="45.00746" lon="6.03981">
        <ele>1560.4000244141</ele>
        <time>2021-03-21T08:31:03.000Z</time>
      </trkpt>
      <trkpt lat="45.00746" lon="6.03981">
        <ele>1560.5999755859</ele>
        <time>2021-03-21T08:31:04.000Z</time>
      </trkpt>
      <trkpt lat="45.00747" lon="6.03981">
        <ele>1561</ele>
        <time>2021-03-21T08:31:05.000Z</time>
      </trkpt>
      <trkpt lat="45.00748" lon="6.0398">
        <ele>1561.1999511719</ele>
        <time>2021-03-21T08:31:06.000Z</time>
      </trkpt>
      <trkpt lat="45.00748" lon="6.0398">
        <ele>1561.5999755859</ele>
        <time>2021-03-21T08:31:07.000Z</time>
      </trkpt>
      <trkpt lat="45.00749" lon="6.0398">
        <ele>1561.8000488281</ele>
        <time>2021-03-21T08:31:08.000Z</time>
      </trkpt>
      <trkpt lat="45.00749" lon="6.03979">
        <ele>1562.1999511719</ele>
        <time>2021-03-21T08:31:09.000Z</time>
      </trkpt>
      <trkpt lat="45.0075" lon="6.03979">
        <ele>1562.8000488281</ele>
        <time>2021-03-21T08:31:10.000Z</time>
      </trkpt>
      <trkpt lat="45.00751" lon="6.03979">
        <ele>1562.8000488281</ele>
        <time>2021-03-21T08:31:11.000Z</time>
      </trkpt>
      <trkpt lat="45.00751" lon="6.03978">
        <ele>1563</ele>
        <time>2021-03-21T08:31:12.000Z</time>
      </trkpt>
      <trkpt lat="45.00752" lon="6.03978">
        <ele>1563.4000244141</ele>
        <time>2021-03-21T08:31:13.000Z</time>
      </trkpt>
      <trkpt lat="45.00752" lon="6.03977">
        <ele>1564</ele>
        <time>2021-03-21T08:31:14.000Z</time>
      </trkpt>
      <trkpt lat="45.00753" lon="6.03977">
        <ele>1564.4000244141</ele>
        <time>2021-03-21T08:31:15.000Z</time>
      </trkpt>
      <trkpt lat="45.00753" lon="6.03976">
        <ele>1564.8000488281</ele>
        <time>2021-03-21T08:31:16.000Z</time>
      </trkpt>
      <trkpt lat="45.00754" lon="6.03976">
        <ele>1565</ele>
        <time>2021-03-21T08:31:17.000Z</time>
      </trkpt>
      <trkpt lat="45.00755" lon="6.03975">
        <ele>1565.1999511719</ele>
        <time>2021-03-21T08:31:18.000Z</time>
      </trkpt>
      <trkpt lat="45.00755" lon="6.03975">
        <ele>1565.1999511719</ele>
        <time>2021-03-21T08:31:19.000Z</time>
      </trkpt>
      <trkpt lat="45.00756" lon="6.03975">
        <ele>1565.1999511719</ele>
        <time>2021-03-21T08:31:20.000Z</time>
      </trkpt>
      <trkpt lat="45.00757" lon="6.03975">
        <ele>1565.4000244141</ele>
        <time>2021-03-21T08:31:21.000Z</time>
      </trkpt>
      <trkpt lat="45.00758" lon="6.03975">
        <ele>1565.4000244141</ele>
        <time>2021-03-21T08:31:22.000Z</time>
      </trkpt>
      <trkpt lat="45.00758" lon="6.03974">
        <ele>1565.4000244141</ele>
        <time>2021-03-21T08:31:23.000Z</time>
      </trkpt>
      <trkpt lat="45.00759" lon="6.03974">
        <ele>1565.5999755859</ele>
        <time>2021-03-21T08:31:24.000Z</time>
      </trkpt>
      <trkpt lat="45.0076" lon="6.03974">
        <ele>1565.8000488281</ele>
        <time>2021-03-21T08:31:25.000Z</time>
      </trkpt>
      <trkpt lat="45.0076" lon="6.03973">
        <ele>1565.8000488281</ele>
        <time>2021-03-21T08:31:26.000Z</time>
      </trkpt>
      <trkpt lat="45.00762" lon="6.03973">
        <ele>1566</ele>
        <time>2021-03-21T08:31:27.000Z</time>
      </trkpt>
      <trkpt lat="45.00761" lon="6.03973">
        <ele>1565.8000488281</ele>
        <time>2021-03-21T08:31:28.000Z</time>
      </trkpt>
      <trkpt lat="45.00761" lon="6.03973">
        <ele>1565.5999755859</ele>
        <time>2021-03-21T08:31:29.000Z</time>
      </trkpt>
      <trkpt lat="45.00761" lon="6.03974">
        <ele>1565.5999755859</ele>
        <time>2021-03-21T08:31:30.000Z</time>
      </trkpt>
      <trkpt lat="45.00762" lon="6.03974">
        <ele>1565.5999755859</ele>
        <time>2021-03-21T08:31:31.000Z</time>
      </trkpt>
      <trkpt lat="45.00762" lon="6.03974">
        <ele>1565.5999755859</ele>
        <time>2021-03-21T08:31:32.000Z</time>
      </trkpt>
      <trkpt lat="45.00762" lon="6.03974">
        <ele>1565.1999511719</ele>
        <time>2021-03-21T08:31:33.000Z</time>
      </trkpt>
      <trkpt lat="45.00763" lon="6.03974">
        <ele>1565</ele>
        <time>2021-03-21T08:31:34.000Z</time>
      </trkpt>
      <trkpt lat="45.00763" lon="6.03974">
        <ele>1565.1999511719</ele>
        <time>2021-03-21T08:31:35.000Z</time>
      </trkpt>
      <trkpt lat="45.00764" lon="6.03974">
        <ele>1565.1999511719</ele>
        <time>2021-03-21T08:31:36.000Z</time>
      </trkpt>
      <trkpt lat="45.00764" lon="6.03974">
        <ele>1565.1999511719</ele>
        <time>2021-03-21T08:31:37.000Z</time>
      </trkpt>
      <trkpt lat="45.00764" lon="6.03974">
        <ele>1565</ele>
        <time>2021-03-21T08:31:38.000Z</time>
      </trkpt>
      <trkpt lat="45.00764" lon="6.03975">
        <ele>1565</ele>
        <time>2021-03-21T08:31:39.000Z</time>
      </trkpt>
      <trkpt lat="45.00763" lon="6.03975">
        <ele>1565</ele>
        <time>2021-03-21T08:31:40.000Z</time>
      </trkpt>
      <trkpt lat="45.00764" lon="6.03975">
        <ele>1565</ele>
        <time>2021-03-21T08:31:41.000Z</time>
      </trkpt>
      <trkpt lat="45.00764" lon="6.03974">
        <ele>1565</ele>
        <time>2021-03-21T08:31:42.000Z</time>
      </trkpt>
      <trkpt lat="45.00764" lon="6.03974">
        <ele>1565</ele>
        <time>2021-03-21T08:31:43.000Z</time>
      </trkpt>
      <trkpt lat="45.00764" lon="6.03974">
        <ele>1565.1999511719</ele>
        <time>2021-03-21T08:31:44.000Z</time>
      </trkpt>
      <trkpt lat="45.00763" lon="6.03974">
        <ele>1565.4000244141</ele>
        <time>2021-03-21T08:31:45.000Z</time>
      </trkpt>
      <trkpt lat="45.00763" lon="6.03973">
        <ele>1565.8000488281</ele>
        <time>2021-03-21T08:31:46.000Z</time>
      </trkpt>
      <trkpt lat="45.00763" lon="6.03973">
        <ele>1565.8000488281</ele>
        <time>2021-03-21T08:31:47.000Z</time>
      </trkpt>
      <trkpt lat="45.00763" lon="6.03972">
        <ele>1566.1999511719</ele>
        <time>2021-03-21T08:31:48.000Z</time>
      </trkpt>
      <trkpt lat="45.00763" lon="6.03972">
        <ele>1566.4000244141</ele>
        <time>2021-03-21T08:31:49.000Z</time>
      </trkpt>
      <trkpt lat="45.00763" lon="6.03972">
        <ele>1566.1999511719</ele>
        <time>2021-03-21T08:31:50.000Z</time>
      </trkpt>
      <trkpt lat="45.00763" lon="6.03971">
        <ele>1566.5999755859</ele>
        <time>2021-03-21T08:31:51.000Z</time>
      </trkpt>
      <trkpt lat="45.00763" lon="6.03971">
        <ele>1566.8000488281</ele>
        <time>2021-03-21T08:31:52.000Z</time>
      </trkpt>
      <trkpt lat="45.00763" lon="6.03971">
        <ele>1567</ele>
        <time>2021-03-21T08:31:53.000Z</time>
      </trkpt>
      <trkpt lat="45.00763" lon="6.0397">
        <ele>1567.4000244141</ele>
        <time>2021-03-21T08:31:54.000Z</time>
      </trkpt>
      <trkpt lat="45.00763" lon="6.03969">
        <ele>1567.8000488281</ele>
        <time>2021-03-21T08:31:55.000Z</time>
      </trkpt>
      <trkpt lat="45.00762" lon="6.03969">
        <ele>1568</ele>
        <time>2021-03-21T08:31:56.000Z</time>
      </trkpt>
      <trkpt lat="45.00762" lon="6.03967">
        <ele>1569</ele>
        <time>2021-03-21T08:31:57.000Z</time>
      </trkpt>
      <trkpt lat="45.00761" lon="6.03967">
        <ele>1569.4000244141</ele>
        <time>2021-03-21T08:31:58.000Z</time>
      </trkpt>
      <trkpt lat="45.00761" lon="6.03966">
        <ele>1569.8000488281</ele>
        <time>2021-03-21T08:31:59.000Z</time>
      </trkpt>
      <trkpt lat="45.00761" lon="6.03965">
        <ele>1570</ele>
        <time>2021-03-21T08:32:00.000Z</time>
      </trkpt>
      <trkpt lat="45.00761" lon="6.03965">
        <ele>1570.5999755859</ele>
        <time>2021-03-21T08:32:01.000Z</time>
      </trkpt>
      <trkpt lat="45.0076" lon="6.03964">
        <ele>1570.8000488281</ele>
        <time>2021-03-21T08:32:02.000Z</time>
      </trkpt>
      <trkpt lat="45.0076" lon="6.03964">
        <ele>1571</ele>
        <time>2021-03-21T08:32:03.000Z</time>
      </trkpt>
      <trkpt lat="45.00759" lon="6.03963">
        <ele>1571.4000244141</ele>
        <time>2021-03-21T08:32:04.000Z</time>
      </trkpt>
      <trkpt lat="45.00759" lon="6.03963">
        <ele>1571.4000244141</ele>
        <time>2021-03-21T08:32:05.000Z</time>
      </trkpt>
      <trkpt lat="45.00759" lon="6.03963">
        <ele>1571.4000244141</ele>
        <time>2021-03-21T08:32:06.000Z</time>
      </trkpt>
      <trkpt lat="45.00759" lon="6.03962">
        <ele>1571.8000488281</ele>
        <time>2021-03-21T08:32:07.000Z</time>
      </trkpt>
      <trkpt lat="45.00759" lon="6.03963">
        <ele>1571.5999755859</ele>
        <time>2021-03-21T08:32:08.000Z</time>
      </trkpt>
      <trkpt lat="45.00759" lon="6.03963">
        <ele>1571.5999755859</ele>
        <time>2021-03-21T08:32:09.000Z</time>
      </trkpt>
      <trkpt lat="45.00759" lon="6.03963">
        <ele>1571.5999755859</ele>
        <time>2021-03-21T08:32:10.000Z</time>
      </trkpt>
      <trkpt lat="45.00759" lon="6.03963">
        <ele>1571.5999755859</ele>
        <time>2021-03-21T08:32:11.000Z</time>
      </trkpt>
      <trkpt lat="45.00759" lon="6.03963">
        <ele>1571.5999755859</ele>
        <time>2021-03-21T08:32:12.000Z</time>
      </trkpt>
      <trkpt lat="45.00759" lon="6.03962">
        <ele>1571.8000488281</ele>
        <time>2021-03-21T08:32:13.000Z</time>
      </trkpt>
      <trkpt lat="45.00759" lon="6.03962">
        <ele>1571.8000488281</ele>
        <time>2021-03-21T08:32:14.000Z</time>
      </trkpt>
      <trkpt lat="45.00759" lon="6.03962">
        <ele>1572</ele>
        <time>2021-03-21T08:32:15.000Z</time>
      </trkpt>
      <trkpt lat="45.0076" lon="6.03962">
        <ele>1572</ele>
        <time>2021-03-21T08:32:16.000Z</time>
      </trkpt>
      <trkpt lat="45.00759" lon="6.03962">
        <ele>1572.1999511719</ele>
        <time>2021-03-21T08:32:17.000Z</time>
      </trkpt>
      <trkpt lat="45.00759" lon="6.03962">
        <ele>1572.1999511719</ele>
        <time>2021-03-21T08:32:18.000Z</time>
      </trkpt>
      <trkpt lat="45.00759" lon="6.03961">
        <ele>1572.4000244141</ele>
        <time>2021-03-21T08:32:19.000Z</time>
      </trkpt>
      <trkpt lat="45.0076" lon="6.03961">
        <ele>1572.4000244141</ele>
        <time>2021-03-21T08:32:20.000Z</time>
      </trkpt>
      <trkpt lat="45.0076" lon="6.03961">
        <ele>1572.1999511719</ele>
        <time>2021-03-21T08:32:21.000Z</time>
      </trkpt>
      <trkpt lat="45.0076" lon="6.03962">
        <ele>1572.1999511719</ele>
        <time>2021-03-21T08:32:22.000Z</time>
      </trkpt>
      <trkpt lat="45.0076" lon="6.03962">
        <ele>1572.1999511719</ele>
        <time>2021-03-21T08:32:23.000Z</time>
      </trkpt>
      <trkpt lat="45.0076" lon="6.03962">
        <ele>1572</ele>
        <time>2021-03-21T08:32:24.000Z</time>
      </trkpt>
      <trkpt lat="45.0076" lon="6.03962">
        <ele>1571.8000488281</ele>
        <time>2021-03-21T08:32:25.000Z</time>
      </trkpt>
      <trkpt lat="45.0076" lon="6.03962">
        <ele>1571.8000488281</ele>
        <time>2021-03-21T08:32:26.000Z</time>
      </trkpt>
      <trkpt lat="45.00761" lon="6.03962">
        <ele>1571.8000488281</ele>
        <time>2021-03-21T08:32:27.000Z</time>
      </trkpt>
      <trkpt lat="45.0076" lon="6.03962">
        <ele>1571.5999755859</ele>
        <time>2021-03-21T08:32:28.000Z</time>
      </trkpt>
      <trkpt lat="45.0076" lon="6.03963">
        <ele>1571.5999755859</ele>
        <time>2021-03-21T08:32:29.000Z</time>
      </trkpt>
      <trkpt lat="45.00761" lon="6.03963">
        <ele>1571.4000244141</ele>
        <time>2021-03-21T08:32:30.000Z</time>
      </trkpt>
      <trkpt lat="45.00761" lon="6.03963">
        <ele>1571.5999755859</ele>
        <time>2021-03-21T08:32:31.000Z</time>
      </trkpt>
      <trkpt lat="45.00761" lon="6.03963">
        <ele>1571.4000244141</ele>
        <time>2021-03-21T08:32:32.000Z</time>
      </trkpt>
      <trkpt lat="45.00761" lon="6.03963">
        <ele>1571.4000244141</ele>
        <time>2021-03-21T08:32:33.000Z</time>
      </trkpt>
      <trkpt lat="45.00761" lon="6.03963">
        <ele>1571.5999755859</ele>
        <time>2021-03-21T08:32:34.000Z</time>
      </trkpt>
      <trkpt lat="45.00761" lon="6.03963">
        <ele>1571.4000244141</ele>
        <time>2021-03-21T08:32:35.000Z</time>
      </trkpt>
      <trkpt lat="45.00761" lon="6.03963">
        <ele>1571.4000244141</ele>
        <time>2021-03-21T08:32:36.000Z</time>
      </trkpt>
      <trkpt lat="45.00761" lon="6.03963">
        <ele>1571.4000244141</ele>
        <time>2021-03-21T08:32:37.000Z</time>
      </trkpt>
      <trkpt lat="45.0076" lon="6.03962">
        <ele>1571.5999755859</ele>
        <time>2021-03-21T08:32:38.000Z</time>
      </trkpt>
      <trkpt lat="45.0076" lon="6.03962">
        <ele>1571.8000488281</ele>
        <time>2021-03-21T08:32:39.000Z</time>
      </trkpt>
      <trkpt lat="45.00759" lon="6.03961">
        <ele>1572.4000244141</ele>
        <time>2021-03-21T08:32:40.000Z</time>
      </trkpt>
      <trkpt lat="45.00758" lon="6.03961">
        <ele>1572.8000488281</ele>
        <time>2021-03-21T08:32:41.000Z</time>
      </trkpt>
      <trkpt lat="45.00757" lon="6.0396">
        <ele>1573.1999511719</ele>
        <time>2021-03-21T08:32:42.000Z</time>
      </trkpt>
      <trkpt lat="45.00757" lon="6.03959">
        <ele>1573.5999755859</ele>
        <time>2021-03-21T08:32:43.000Z</time>
      </trkpt>
      <trkpt lat="45.00756" lon="6.03959">
        <ele>1573.8000488281</ele>
        <time>2021-03-21T08:32:44.000Z</time>
      </trkpt>
      <trkpt lat="45.00756" lon="6.03959">
        <ele>1574</ele>
        <time>2021-03-21T08:32:45.000Z</time>
      </trkpt>
      <trkpt lat="45.00756" lon="6.03958">
        <ele>1574.1999511719</ele>
        <time>2021-03-21T08:32:46.000Z</time>
      </trkpt>
      <trkpt lat="45.00756" lon="6.03958">
        <ele>1574.4000244141</ele>
        <time>2021-03-21T08:32:47.000Z</time>
      </trkpt>
      <trkpt lat="45.00755" lon="6.03958">
        <ele>1574.5999755859</ele>
        <time>2021-03-21T08:32:48.000Z</time>
      </trkpt>
      <trkpt lat="45.00755" lon="6.03957">
        <ele>1574.8000488281</ele>
        <time>2021-03-21T08:32:49.000Z</time>
      </trkpt>
      <trkpt lat="45.00755" lon="6.03957">
        <ele>1574.8000488281</ele>
        <time>2021-03-21T08:32:50.000Z</time>
      </trkpt>
      <trkpt lat="45.00754" lon="6.03957">
        <ele>1575</ele>
        <time>2021-03-21T08:32:51.000Z</time>
      </trkpt>
      <trkpt lat="45.00753" lon="6.03956">
        <ele>1575.4000244141</ele>
        <time>2021-03-21T08:32:52.000Z</time>
      </trkpt>
      <trkpt lat="45.00753" lon="6.03956">
        <ele>1575.4000244141</ele>
        <time>2021-03-21T08:32:53.000Z</time>
      </trkpt>
      <trkpt lat="45.00752" lon="6.03956">
        <ele>1575.8000488281</ele>
        <time>2021-03-21T08:32:54.000Z</time>
      </trkpt>
      <trkpt lat="45.00751" lon="6.03956">
        <ele>1575.8000488281</ele>
        <time>2021-03-21T08:32:55.000Z</time>
      </trkpt>
      <trkpt lat="45.0075" lon="6.03956">
        <ele>1575.8000488281</ele>
        <time>2021-03-21T08:32:56.000Z</time>
      </trkpt>
      <trkpt lat="45.00749" lon="6.03956">
        <ele>1576</ele>
        <time>2021-03-21T08:32:57.000Z</time>
      </trkpt>
      <trkpt lat="45.00748" lon="6.03956">
        <ele>1576.1999511719</ele>
        <time>2021-03-21T08:32:58.000Z</time>
      </trkpt>
      <trkpt lat="45.00747" lon="6.03955">
        <ele>1576.4000244141</ele>
        <time>2021-03-21T08:32:59.000Z</time>
      </trkpt>
      <trkpt lat="45.00747" lon="6.03955">
        <ele>1576.4000244141</ele>
        <time>2021-03-21T08:33:00.000Z</time>
      </trkpt>
      <trkpt lat="45.00746" lon="6.03955">
        <ele>1576.4000244141</ele>
        <time>2021-03-21T08:33:01.000Z</time>
      </trkpt>
      <trkpt lat="45.00745" lon="6.03955">
        <ele>1576.8000488281</ele>
        <time>2021-03-21T08:33:02.000Z</time>
      </trkpt>
      <trkpt lat="45.00745" lon="6.03955">
        <ele>1576.8000488281</ele>
        <time>2021-03-21T08:33:03.000Z</time>
      </trkpt>
      <trkpt lat="45.00744" lon="6.03955">
        <ele>1576.8000488281</ele>
        <time>2021-03-21T08:33:04.000Z</time>
      </trkpt>
      <trkpt lat="45.00744" lon="6.03955">
        <ele>1577</ele>
        <time>2021-03-21T08:33:05.000Z</time>
      </trkpt>
      <trkpt lat="45.00744" lon="6.03954">
        <ele>1577</ele>
        <time>2021-03-21T08:33:06.000Z</time>
      </trkpt>
      <trkpt lat="45.00744" lon="6.03954">
        <ele>1577.4000244141</ele>
        <time>2021-03-21T08:33:07.000Z</time>
      </trkpt>
      <trkpt lat="45.00743" lon="6.03953">
        <ele>1577.5999755859</ele>
        <time>2021-03-21T08:33:08.000Z</time>
      </trkpt>
      <trkpt lat="45.00742" lon="6.03953">
        <ele>1578</ele>
        <time>2021-03-21T08:33:09.000Z</time>
      </trkpt>
      <trkpt lat="45.00742" lon="6.03952">
        <ele>1578.1999511719</ele>
        <time>2021-03-21T08:33:10.000Z</time>
      </trkpt>
      <trkpt lat="45.00742" lon="6.03952">
        <ele>1578.1999511719</ele>
        <time>2021-03-21T08:33:11.000Z</time>
      </trkpt>
      <trkpt lat="45.00742" lon="6.03952">
        <ele>1578.1999511719</ele>
        <time>2021-03-21T08:33:12.000Z</time>
      </trkpt>
      <trkpt lat="45.00742" lon="6.03952">
        <ele>1578.1999511719</ele>
        <time>2021-03-21T08:33:13.000Z</time>
      </trkpt>
      <trkpt lat="45.00742" lon="6.03952">
        <ele>1578.1999511719</ele>
        <time>2021-03-21T08:33:14.000Z</time>
      </trkpt>
      <trkpt lat="45.00742" lon="6.03952">
        <ele>1578.1999511719</ele>
        <time>2021-03-21T08:33:15.000Z</time>
      </trkpt>
      <trkpt lat="45.00741" lon="6.03952">
        <ele>1578.1999511719</ele>
        <time>2021-03-21T08:33:16.000Z</time>
      </trkpt>
      <trkpt lat="45.00742" lon="6.03952">
        <ele>1578.1999511719</ele>
        <time>2021-03-21T08:33:17.000Z</time>
      </trkpt>
      <trkpt lat="45.00742" lon="6.03952">
        <ele>1578.1999511719</ele>
        <time>2021-03-21T08:33:18.000Z</time>
      </trkpt>
      <trkpt lat="45.00741" lon="6.03953">
        <ele>1578.1999511719</ele>
        <time>2021-03-21T08:33:19.000Z</time>
      </trkpt>
      <trkpt lat="45.00741" lon="6.03953">
        <ele>1578</ele>
        <time>2021-03-21T08:33:20.000Z</time>
      </trkpt>
      <trkpt lat="45.00741" lon="6.03953">
        <ele>1578</ele>
        <time>2021-03-21T08:33:21.000Z</time>
      </trkpt>
      <trkpt lat="45.00741" lon="6.03953">
        <ele>1578</ele>
        <time>2021-03-21T08:33:22.000Z</time>
      </trkpt>
      <trkpt lat="45.00741" lon="6.03952">
        <ele>1578.5999755859</ele>
        <time>2021-03-21T08:33:23.000Z</time>
      </trkpt>
      <trkpt lat="45.00741" lon="6.03952">
        <ele>1578.5999755859</ele>
        <time>2021-03-21T08:33:24.000Z</time>
      </trkpt>
      <trkpt lat="45.00741" lon="6.03952">
        <ele>1578.5999755859</ele>
        <time>2021-03-21T08:33:25.000Z</time>
      </trkpt>
      <trkpt lat="45.00741" lon="6.03952">
        <ele>1578.5999755859</ele>
        <time>2021-03-21T08:33:26.000Z</time>
      </trkpt>
      <trkpt lat="45.00741" lon="6.03952">
        <ele>1578.4000244141</ele>
        <time>2021-03-21T08:33:27.000Z</time>
      </trkpt>
      <trkpt lat="45.00741" lon="6.03952">
        <ele>1578.4000244141</ele>
        <time>2021-03-21T08:33:28.000Z</time>
      </trkpt>
      <trkpt lat="45.00741" lon="6.03952">
        <ele>1578.4000244141</ele>
        <time>2021-03-21T08:33:29.000Z</time>
      </trkpt>
      <trkpt lat="45.00741" lon="6.03952">
        <ele>1578.4000244141</ele>
        <time>2021-03-21T08:33:30.000Z</time>
      </trkpt>
      <trkpt lat="45.00741" lon="6.03952">
        <ele>1578.5999755859</ele>
        <time>2021-03-21T08:33:31.000Z</time>
      </trkpt>
      <trkpt lat="45.00741" lon="6.03951">
        <ele>1579</ele>
        <time>2021-03-21T08:33:32.000Z</time>
      </trkpt>
      <trkpt lat="45.00741" lon="6.03952">
        <ele>1578.8000488281</ele>
        <time>2021-03-21T08:33:33.000Z</time>
      </trkpt>
      <trkpt lat="45.0074" lon="6.03951">
        <ele>1578.8000488281</ele>
        <time>2021-03-21T08:33:34.000Z</time>
      </trkpt>
      <trkpt lat="45.0074" lon="6.03951">
        <ele>1579</ele>
        <time>2021-03-21T08:33:35.000Z</time>
      </trkpt>
      <trkpt lat="45.0074" lon="6.03951">
        <ele>1579</ele>
        <time>2021-03-21T08:33:36.000Z</time>
      </trkpt>
      <trkpt lat="45.0074" lon="6.03951">
        <ele>1579.1999511719</ele>
        <time>2021-03-21T08:33:37.000Z</time>
      </trkpt>
      <trkpt lat="45.00739" lon="6.03951">
        <ele>1579.1999511719</ele>
        <time>2021-03-21T08:33:38.000Z</time>
      </trkpt>
      <trkpt lat="45.00739" lon="6.03951">
        <ele>1579.1999511719</ele>
        <time>2021-03-21T08:33:39.000Z</time>
      </trkpt>
      <trkpt lat="45.00738" lon="6.03951">
        <ele>1579.4000244141</ele>
        <time>2021-03-21T08:33:40.000Z</time>
      </trkpt>
      <trkpt lat="45.00738" lon="6.0395">
        <ele>1579.4000244141</ele>
        <time>2021-03-21T08:33:41.000Z</time>
      </trkpt>
      <trkpt lat="45.00737" lon="6.03951">
        <ele>1579.4000244141</ele>
        <time>2021-03-21T08:33:42.000Z</time>
      </trkpt>
      <trkpt lat="45.00736" lon="6.0395">
        <ele>1579.5999755859</ele>
        <time>2021-03-21T08:33:43.000Z</time>
      </trkpt>
      <trkpt lat="45.00736" lon="6.0395">
        <ele>1579.5999755859</ele>
        <time>2021-03-21T08:33:44.000Z</time>
      </trkpt>
      <trkpt lat="45.00735" lon="6.0395">
        <ele>1580</ele>
        <time>2021-03-21T08:33:45.000Z</time>
      </trkpt>
      <trkpt lat="45.00735" lon="6.0395">
        <ele>1580.1999511719</ele>
        <time>2021-03-21T08:33:46.000Z</time>
      </trkpt>
      <trkpt lat="45.00734" lon="6.03949">
        <ele>1580.5999755859</ele>
        <time>2021-03-21T08:33:47.000Z</time>
      </trkpt>
      <trkpt lat="45.00734" lon="6.03949">
        <ele>1581</ele>
        <time>2021-03-21T08:33:48.000Z</time>
      </trkpt>
      <trkpt lat="45.00733" lon="6.03948">
        <ele>1581.4000244141</ele>
        <time>2021-03-21T08:33:49.000Z</time>
      </trkpt>
      <trkpt lat="45.00732" lon="6.03948">
        <ele>1581.8000488281</ele>
        <time>2021-03-21T08:33:50.000Z</time>
      </trkpt>
      <trkpt lat="45.00732" lon="6.03947">
        <ele>1582.1999511719</ele>
        <time>2021-03-21T08:33:51.000Z</time>
      </trkpt>
      <trkpt lat="45.00732" lon="6.03947">
        <ele>1582.1999511719</ele>
        <time>2021-03-21T08:33:52.000Z</time>
      </trkpt>
      <trkpt lat="45.00731" lon="6.03947">
        <ele>1582.1999511719</ele>
        <time>2021-03-21T08:33:53.000Z</time>
      </trkpt>
      <trkpt lat="45.00731" lon="6.03947">
        <ele>1582.1999511719</ele>
        <time>2021-03-21T08:33:54.000Z</time>
      </trkpt>
      <trkpt lat="45.00731" lon="6.03947">
        <ele>1582.1999511719</ele>
        <time>2021-03-21T08:33:55.000Z</time>
      </trkpt>
      <trkpt lat="45.00731" lon="6.03947">
        <ele>1582.4000244141</ele>
        <time>2021-03-21T08:33:56.000Z</time>
      </trkpt>
      <trkpt lat="45.00731" lon="6.03947">
        <ele>1582.4000244141</ele>
        <time>2021-03-21T08:33:57.000Z</time>
      </trkpt>
      <trkpt lat="45.0073" lon="6.03947">
        <ele>1582.4000244141</ele>
        <time>2021-03-21T08:33:58.000Z</time>
      </trkpt>
      <trkpt lat="45.0073" lon="6.03947">
        <ele>1582.4000244141</ele>
        <time>2021-03-21T08:33:59.000Z</time>
      </trkpt>
      <trkpt lat="45.0073" lon="6.03947">
        <ele>1582.5999755859</ele>
        <time>2021-03-21T08:34:00.000Z</time>
      </trkpt>
      <trkpt lat="45.0073" lon="6.03947">
        <ele>1582.5999755859</ele>
        <time>2021-03-21T08:34:01.000Z</time>
      </trkpt>
      <trkpt lat="45.0073" lon="6.03947">
        <ele>1582.5999755859</ele>
        <time>2021-03-21T08:34:02.000Z</time>
      </trkpt>
      <trkpt lat="45.0073" lon="6.03947">
        <ele>1582.5999755859</ele>
        <time>2021-03-21T08:34:03.000Z</time>
      </trkpt>
      <trkpt lat="45.0073" lon="6.03947">
        <ele>1582.4000244141</ele>
        <time>2021-03-21T08:34:04.000Z</time>
      </trkpt>
      <trkpt lat="45.0073" lon="6.03947">
        <ele>1582.4000244141</ele>
        <time>2021-03-21T08:34:05.000Z</time>
      </trkpt>
      <trkpt lat="45.0073" lon="6.03948">
        <ele>1582.4000244141</ele>
        <time>2021-03-21T08:34:06.000Z</time>
      </trkpt>
      <trkpt lat="45.00729" lon="6.03948">
        <ele>1582.4000244141</ele>
        <time>2021-03-21T08:34:07.000Z</time>
      </trkpt>
      <trkpt lat="45.00729" lon="6.03947">
        <ele>1582.5999755859</ele>
        <time>2021-03-21T08:34:08.000Z</time>
      </trkpt>
      <trkpt lat="45.00729" lon="6.03947">
        <ele>1582.5999755859</ele>
        <time>2021-03-21T08:34:09.000Z</time>
      </trkpt>
      <trkpt lat="45.00729" lon="6.03947">
        <ele>1583</ele>
        <time>2021-03-21T08:34:10.000Z</time>
      </trkpt>
      <trkpt lat="45.00729" lon="6.03947">
        <ele>1583.1999511719</ele>
        <time>2021-03-21T08:34:11.000Z</time>
      </trkpt>
      <trkpt lat="45.00728" lon="6.03946">
        <ele>1583.5999755859</ele>
        <time>2021-03-21T08:34:12.000Z</time>
      </trkpt>
      <trkpt lat="45.00728" lon="6.03945">
        <ele>1583.8000488281</ele>
        <time>2021-03-21T08:34:13.000Z</time>
      </trkpt>
      <trkpt lat="45.00727" lon="6.03945">
        <ele>1584.4000244141</ele>
        <time>2021-03-21T08:34:14.000Z</time>
      </trkpt>
      <trkpt lat="45.00727" lon="6.03944">
        <ele>1584.5999755859</ele>
        <time>2021-03-21T08:34:15.000Z</time>
      </trkpt>
      <trkpt lat="45.00726" lon="6.03944">
        <ele>1585</ele>
        <time>2021-03-21T08:34:16.000Z</time>
      </trkpt>
      <trkpt lat="45.00725" lon="6.03944">
        <ele>1585.1999511719</ele>
        <time>2021-03-21T08:34:17.000Z</time>
      </trkpt>
      <trkpt lat="45.00724" lon="6.03944">
        <ele>1585.4000244141</ele>
        <time>2021-03-21T08:34:18.000Z</time>
      </trkpt>
      <trkpt lat="45.00723" lon="6.03944">
        <ele>1585.5999755859</ele>
        <time>2021-03-21T08:34:19.000Z</time>
      </trkpt>
      <trkpt lat="45.00722" lon="6.03944">
        <ele>1585.8000488281</ele>
        <time>2021-03-21T08:34:20.000Z</time>
      </trkpt>
      <trkpt lat="45.00722" lon="6.03944">
        <ele>1586</ele>
        <time>2021-03-21T08:34:21.000Z</time>
      </trkpt>
      <trkpt lat="45.00721" lon="6.03944">
        <ele>1586</ele>
        <time>2021-03-21T08:34:22.000Z</time>
      </trkpt>
      <trkpt lat="45.0072" lon="6.03944">
        <ele>1585.8000488281</ele>
        <time>2021-03-21T08:34:23.000Z</time>
      </trkpt>
      <trkpt lat="45.0072" lon="6.03944">
        <ele>1586.1999511719</ele>
        <time>2021-03-21T08:34:24.000Z</time>
      </trkpt>
      <trkpt lat="45.00719" lon="6.03944">
        <ele>1586.4000244141</ele>
        <time>2021-03-21T08:34:25.000Z</time>
      </trkpt>
      <trkpt lat="45.00719" lon="6.03943">
        <ele>1587</ele>
        <time>2021-03-21T08:34:26.000Z</time>
      </trkpt>
      <trkpt lat="45.00719" lon="6.03942">
        <ele>1587.4000244141</ele>
        <time>2021-03-21T08:34:27.000Z</time>
      </trkpt>
      <trkpt lat="45.00719" lon="6.03942">
        <ele>1587.5999755859</ele>
        <time>2021-03-21T08:34:28.000Z</time>
      </trkpt>
      <trkpt lat="45.00719" lon="6.03942">
        <ele>1587.5999755859</ele>
        <time>2021-03-21T08:34:29.000Z</time>
      </trkpt>
      <trkpt lat="45.00718" lon="6.03941">
        <ele>1588</ele>
        <time>2021-03-21T08:34:30.000Z</time>
      </trkpt>
      <trkpt lat="45.00718" lon="6.03942">
        <ele>1587.8000488281</ele>
        <time>2021-03-21T08:34:31.000Z</time>
      </trkpt>
      <trkpt lat="45.00718" lon="6.03941">
        <ele>1588</ele>
        <time>2021-03-21T08:34:32.000Z</time>
      </trkpt>
      <trkpt lat="45.00718" lon="6.03941">
        <ele>1588</ele>
        <time>2021-03-21T08:34:33.000Z</time>
      </trkpt>
      <trkpt lat="45.00718" lon="6.03941">
        <ele>1588</ele>
        <time>2021-03-21T08:34:34.000Z</time>
      </trkpt>
      <trkpt lat="45.00717" lon="6.03941">
        <ele>1588</ele>
        <time>2021-03-21T08:34:35.000Z</time>
      </trkpt>
      <trkpt lat="45.00717" lon="6.03941">
        <ele>1588</ele>
        <time>2021-03-21T08:34:36.000Z</time>
      </trkpt>
      <trkpt lat="45.00717" lon="6.03942">
        <ele>1587.5999755859</ele>
        <time>2021-03-21T08:34:37.000Z</time>
      </trkpt>
      <trkpt lat="45.00717" lon="6.03942">
        <ele>1587.8000488281</ele>
        <time>2021-03-21T08:34:38.000Z</time>
      </trkpt>
      <trkpt lat="45.00716" lon="6.03941">
        <ele>1587.8000488281</ele>
        <time>2021-03-21T08:34:39.000Z</time>
      </trkpt>
      <trkpt lat="45.00716" lon="6.03942">
        <ele>1587.8000488281</ele>
        <time>2021-03-21T08:34:40.000Z</time>
      </trkpt>
      <trkpt lat="45.00717" lon="6.03942">
        <ele>1587.5999755859</ele>
        <time>2021-03-21T08:34:41.000Z</time>
      </trkpt>
      <trkpt lat="45.00717" lon="6.03942">
        <ele>1587.8000488281</ele>
        <time>2021-03-21T08:34:42.000Z</time>
      </trkpt>
      <trkpt lat="45.00717" lon="6.03942">
        <ele>1587.8000488281</ele>
        <time>2021-03-21T08:34:43.000Z</time>
      </trkpt>
      <trkpt lat="45.00717" lon="6.03942">
        <ele>1587.5999755859</ele>
        <time>2021-03-21T08:34:44.000Z</time>
      </trkpt>
      <trkpt lat="45.00717" lon="6.03942">
        <ele>1587.5999755859</ele>
        <time>2021-03-21T08:34:45.000Z</time>
      </trkpt>
      <trkpt lat="45.00717" lon="6.03942">
        <ele>1587.5999755859</ele>
        <time>2021-03-21T08:34:46.000Z</time>
      </trkpt>
      <trkpt lat="45.00718" lon="6.03942">
        <ele>1587.5999755859</ele>
        <time>2021-03-21T08:34:47.000Z</time>
      </trkpt>
      <trkpt lat="45.00718" lon="6.03942">
        <ele>1587.5999755859</ele>
        <time>2021-03-21T08:34:48.000Z</time>
      </trkpt>
      <trkpt lat="45.00717" lon="6.03942">
        <ele>1587.4000244141</ele>
        <time>2021-03-21T08:34:49.000Z</time>
      </trkpt>
      <trkpt lat="45.00717" lon="6.03942">
        <ele>1587.1999511719</ele>
        <time>2021-03-21T08:34:50.000Z</time>
      </trkpt>
      <trkpt lat="45.00717" lon="6.03942">
        <ele>1587.1999511719</ele>
        <time>2021-03-21T08:34:51.000Z</time>
      </trkpt>
      <trkpt lat="45.00717" lon="6.03943">
        <ele>1587</ele>
        <time>2021-03-21T08:34:52.000Z</time>
      </trkpt>
      <trkpt lat="45.00717" lon="6.03943">
        <ele>1586.8000488281</ele>
        <time>2021-03-21T08:34:53.000Z</time>
      </trkpt>
      <trkpt lat="45.00717" lon="6.03943">
        <ele>1586.8000488281</ele>
        <time>2021-03-21T08:34:54.000Z</time>
      </trkpt>
      <trkpt lat="45.00716" lon="6.03943">
        <ele>1586.5999755859</ele>
        <time>2021-03-21T08:34:55.000Z</time>
      </trkpt>
      <trkpt lat="45.00716" lon="6.03943">
        <ele>1586.4000244141</ele>
        <time>2021-03-21T08:34:56.000Z</time>
      </trkpt>
      <trkpt lat="45.00717" lon="6.03944">
        <ele>1586</ele>
        <time>2021-03-21T08:34:57.000Z</time>
      </trkpt>
      <trkpt lat="45.00716" lon="6.03944">
        <ele>1585.8000488281</ele>
        <time>2021-03-21T08:34:58.000Z</time>
      </trkpt>
      <trkpt lat="45.00716" lon="6.03944">
        <ele>1585.8000488281</ele>
        <time>2021-03-21T08:34:59.000Z</time>
      </trkpt>
      <trkpt lat="45.00717" lon="6.03944">
        <ele>1586</ele>
        <time>2021-03-21T08:35:00.000Z</time>
      </trkpt>
      <trkpt lat="45.00717" lon="6.03944">
        <ele>1585.8000488281</ele>
        <time>2021-03-21T08:35:01.000Z</time>
      </trkpt>
      <trkpt lat="45.00717" lon="6.03944">
        <ele>1585.8000488281</ele>
        <time>2021-03-21T08:35:02.000Z</time>
      </trkpt>
      <trkpt lat="45.00717" lon="6.03944">
        <ele>1585.5999755859</ele>
        <time>2021-03-21T08:35:03.000Z</time>
      </trkpt>
      <trkpt lat="45.00716" lon="6.03944">
        <ele>1585.5999755859</ele>
        <time>2021-03-21T08:35:04.000Z</time>
      </trkpt>
      <trkpt lat="45.00716" lon="6.03945">
        <ele>1585.4000244141</ele>
        <time>2021-03-21T08:35:05.000Z</time>
      </trkpt>
      <trkpt lat="45.00716" lon="6.03945">
        <ele>1585.4000244141</ele>
        <time>2021-03-21T08:35:06.000Z</time>
      </trkpt>
      <trkpt lat="45.00716" lon="6.03945">
        <ele>1585.1999511719</ele>
        <time>2021-03-21T08:35:07.000Z</time>
      </trkpt>
      <trkpt lat="45.00716" lon="6.03945">
        <ele>1585</ele>
        <time>2021-03-21T08:35:08.000Z</time>
      </trkpt>
      <trkpt lat="45.00716" lon="6.03945">
        <ele>1585</ele>
        <time>2021-03-21T08:35:09.000Z</time>
      </trkpt>
      <trkpt lat="45.00716" lon="6.03945">
        <ele>1585</ele>
        <time>2021-03-21T08:35:10.000Z</time>
      </trkpt>
      <trkpt lat="45.00716" lon="6.03945">
        <ele>1585.1999511719</ele>
        <time>2021-03-21T08:35:11.000Z</time>
      </trkpt>
      <trkpt lat="45.00716" lon="6.03945">
        <ele>1585.4000244141</ele>
        <time>2021-03-21T08:35:12.000Z</time>
      </trkpt>
      <trkpt lat="45.00717" lon="6.03945">
        <ele>1585.1999511719</ele>
        <time>2021-03-21T08:35:13.000Z</time>
      </trkpt>
      <trkpt lat="45.00717" lon="6.03945">
        <ele>1585.1999511719</ele>
        <time>2021-03-21T08:35:14.000Z</time>
      </trkpt>
      <trkpt lat="45.00717" lon="6.03945">
        <ele>1584.8000488281</ele>
        <time>2021-03-21T08:35:15.000Z</time>
      </trkpt>
      <trkpt lat="45.00718" lon="6.03945">
        <ele>1585</ele>
        <time>2021-03-21T08:35:16.000Z</time>
      </trkpt>
      <trkpt lat="45.00718" lon="6.03945">
        <ele>1585.1999511719</ele>
        <time>2021-03-21T08:35:17.000Z</time>
      </trkpt>
      <trkpt lat="45.00718" lon="6.03945">
        <ele>1585.4000244141</ele>
        <time>2021-03-21T08:35:18.000Z</time>
      </trkpt>
      <trkpt lat="45.00718" lon="6.03944">
        <ele>1585.5999755859</ele>
        <time>2021-03-21T08:35:19.000Z</time>
      </trkpt>
      <trkpt lat="45.00718" lon="6.03944">
        <ele>1585.8000488281</ele>
        <time>2021-03-21T08:35:20.000Z</time>
      </trkpt>
      <trkpt lat="45.00718" lon="6.03945">
        <ele>1585.5999755859</ele>
        <time>2021-03-21T08:35:21.000Z</time>
      </trkpt>
      <trkpt lat="45.00718" lon="6.03944">
        <ele>1585.5999755859</ele>
        <time>2021-03-21T08:35:22.000Z</time>
      </trkpt>
      <trkpt lat="45.00717" lon="6.03945">
        <ele>1585.4000244141</ele>
        <time>2021-03-21T08:35:23.000Z</time>
      </trkpt>
      <trkpt lat="45.00717" lon="6.03945">
        <ele>1585.1999511719</ele>
        <time>2021-03-21T08:35:24.000Z</time>
      </trkpt>
      <trkpt lat="45.00717" lon="6.03945">
        <ele>1585</ele>
        <time>2021-03-21T08:35:25.000Z</time>
      </trkpt>
      <trkpt lat="45.00717" lon="6.03945">
        <ele>1585</ele>
        <time>2021-03-21T08:35:26.000Z</time>
      </trkpt>
      <trkpt lat="45.00717" lon="6.03945">
        <ele>1585.1999511719</ele>
        <time>2021-03-21T08:35:27.000Z</time>
      </trkpt>
      <trkpt lat="45.00717" lon="6.03944">
        <ele>1585.5999755859</ele>
        <time>2021-03-21T08:35:28.000Z</time>
      </trkpt>
      <trkpt lat="45.00718" lon="6.03944">
        <ele>1585.5999755859</ele>
        <time>2021-03-21T08:35:29.000Z</time>
      </trkpt>
      <trkpt lat="45.00718" lon="6.03945">
        <ele>1585.1999511719</ele>
        <time>2021-03-21T08:35:30.000Z</time>
      </trkpt>
      <trkpt lat="45.00718" lon="6.03945">
        <ele>1585</ele>
        <time>2021-03-21T08:35:31.000Z</time>
      </trkpt>
      <trkpt lat="45.00719" lon="6.03945">
        <ele>1585.1999511719</ele>
        <time>2021-03-21T08:35:32.000Z</time>
      </trkpt>
      <trkpt lat="45.00719" lon="6.03945">
        <ele>1585.4000244141</ele>
        <time>2021-03-21T08:35:33.000Z</time>
      </trkpt>
      <trkpt lat="45.00719" lon="6.03945">
        <ele>1585.4000244141</ele>
        <time>2021-03-21T08:35:34.000Z</time>
      </trkpt>
      <trkpt lat="45.00719" lon="6.03945">
        <ele>1585.4000244141</ele>
        <time>2021-03-21T08:35:35.000Z</time>
      </trkpt>
      <trkpt lat="45.00719" lon="6.03945">
        <ele>1585.4000244141</ele>
        <time>2021-03-21T08:35:36.000Z</time>
      </trkpt>
      <trkpt lat="45.0072" lon="6.03945">
        <ele>1585.1999511719</ele>
        <time>2021-03-21T08:35:37.000Z</time>
      </trkpt>
      <trkpt lat="45.0072" lon="6.03945">
        <ele>1585.1999511719</ele>
        <time>2021-03-21T08:35:38.000Z</time>
      </trkpt>
      <trkpt lat="45.0072" lon="6.03945">
        <ele>1585.1999511719</ele>
        <time>2021-03-21T08:35:39.000Z</time>
      </trkpt>
      <trkpt lat="45.0072" lon="6.03945">
        <ele>1585.4000244141</ele>
        <time>2021-03-21T08:35:40.000Z</time>
      </trkpt>
      <trkpt lat="45.00721" lon="6.03944">
        <ele>1585.8000488281</ele>
        <time>2021-03-21T08:35:41.000Z</time>
      </trkpt>
      <trkpt lat="45.00721" lon="6.03944">
        <ele>1586</ele>
        <time>2021-03-21T08:35:42.000Z</time>
      </trkpt>
      <trkpt lat="45.00722" lon="6.03944">
        <ele>1586.1999511719</ele>
        <time>2021-03-21T08:35:43.000Z</time>
      </trkpt>
      <trkpt lat="45.00722" lon="6.03944">
        <ele>1586</ele>
        <time>2021-03-21T08:35:44.000Z</time>
      </trkpt>
      <trkpt lat="45.00722" lon="6.03944">
        <ele>1585.5999755859</ele>
        <time>2021-03-21T08:35:45.000Z</time>
      </trkpt>
      <trkpt lat="45.00722" lon="6.03944">
        <ele>1585.8000488281</ele>
        <time>2021-03-21T08:35:46.000Z</time>
      </trkpt>
      <trkpt lat="45.00723" lon="6.03944">
        <ele>1585.8000488281</ele>
        <time>2021-03-21T08:35:47.000Z</time>
      </trkpt>
      <trkpt lat="45.00723" lon="6.03944">
        <ele>1585.8000488281</ele>
        <time>2021-03-21T08:35:48.000Z</time>
      </trkpt>
      <trkpt lat="45.00722" lon="6.03944">
        <ele>1585.8000488281</ele>
        <time>2021-03-21T08:35:49.000Z</time>
      </trkpt>
      <trkpt lat="45.00722" lon="6.03944">
        <ele>1585.5999755859</ele>
        <time>2021-03-21T08:35:50.000Z</time>
      </trkpt>
      <trkpt lat="45.00722" lon="6.03944">
        <ele>1585.8000488281</ele>
        <time>2021-03-21T08:35:51.000Z</time>
      </trkpt>
      <trkpt lat="45.00722" lon="6.03944">
        <ele>1585.8000488281</ele>
        <time>2021-03-21T08:35:52.000Z</time>
      </trkpt>
      <trkpt lat="45.00722" lon="6.03944">
        <ele>1585.8000488281</ele>
        <time>2021-03-21T08:35:53.000Z</time>
      </trkpt>
      <trkpt lat="45.00722" lon="6.03944">
        <ele>1585.8000488281</ele>
        <time>2021-03-21T08:35:54.000Z</time>
      </trkpt>
      <trkpt lat="45.00722" lon="6.03944">
        <ele>1585.5999755859</ele>
        <time>2021-03-21T08:35:55.000Z</time>
      </trkpt>
      <trkpt lat="45.00722" lon="6.03945">
        <ele>1585.5999755859</ele>
        <time>2021-03-21T08:35:56.000Z</time>
      </trkpt>
      <trkpt lat="45.00722" lon="6.03945">
        <ele>1585.5999755859</ele>
        <time>2021-03-21T08:35:57.000Z</time>
      </trkpt>
      <trkpt lat="45.00722" lon="6.03945">
        <ele>1585.5999755859</ele>
        <time>2021-03-21T08:35:58.000Z</time>
      </trkpt>
      <trkpt lat="45.00722" lon="6.03945">
        <ele>1585.4000244141</ele>
        <time>2021-03-21T08:35:59.000Z</time>
      </trkpt>
      <trkpt lat="45.00722" lon="6.03945">
        <ele>1585.4000244141</ele>
        <time>2021-03-21T08:36:00.000Z</time>
      </trkpt>
      <trkpt lat="45.00722" lon="6.03945">
        <ele>1585.4000244141</ele>
        <time>2021-03-21T08:36:01.000Z</time>
      </trkpt>
      <trkpt lat="45.00722" lon="6.03945">
        <ele>1585.4000244141</ele>
        <time>2021-03-21T08:36:02.000Z</time>
      </trkpt>
      <trkpt lat="45.00722" lon="6.03944">
        <ele>1586</ele>
        <time>2021-03-21T08:36:03.000Z</time>
      </trkpt>
      <trkpt lat="45.00722" lon="6.03944">
        <ele>1586</ele>
        <time>2021-03-21T08:36:04.000Z</time>
      </trkpt>
      <trkpt lat="45.00722" lon="6.03944">
        <ele>1586</ele>
        <time>2021-03-21T08:36:05.000Z</time>
      </trkpt>
      <trkpt lat="45.00722" lon="6.03944">
        <ele>1585.8000488281</ele>
        <time>2021-03-21T08:36:06.000Z</time>
      </trkpt>
      <trkpt lat="45.00722" lon="6.03944">
        <ele>1586</ele>
        <time>2021-03-21T08:36:07.000Z</time>
      </trkpt>
      <trkpt lat="45.00722" lon="6.03944">
        <ele>1586</ele>
        <time>2021-03-21T08:36:08.000Z</time>
      </trkpt>
      <trkpt lat="45.00722" lon="6.03944">
        <ele>1586</ele>
        <time>2021-03-21T08:36:09.000Z</time>
      </trkpt>
      <trkpt lat="45.00721" lon="6.03944">
        <ele>1586.1999511719</ele>
        <time>2021-03-21T08:36:10.000Z</time>
      </trkpt>
      <trkpt lat="45.00722" lon="6.03944">
        <ele>1586</ele>
        <time>2021-03-21T08:36:11.000Z</time>
      </trkpt>
      <trkpt lat="45.00722" lon="6.03944">
        <ele>1586</ele>
        <time>2021-03-21T08:36:12.000Z</time>
      </trkpt>
      <trkpt lat="45.00722" lon="6.03944">
        <ele>1586</ele>
        <time>2021-03-21T08:36:13.000Z</time>
      </trkpt>
      <trkpt lat="45.00722" lon="6.03944">
        <ele>1586</ele>
        <time>2021-03-21T08:36:14.000Z</time>
      </trkpt>
      <trkpt lat="45.00722" lon="6.03944">
        <ele>1586.1999511719</ele>
        <time>2021-03-21T08:36:15.000Z</time>
      </trkpt>
      <trkpt lat="45.00721" lon="6.03943">
        <ele>1586.4000244141</ele>
        <time>2021-03-21T08:36:16.000Z</time>
      </trkpt>
      <trkpt lat="45.00721" lon="6.03943">
        <ele>1586.4000244141</ele>
        <time>2021-03-21T08:36:17.000Z</time>
      </trkpt>
      <trkpt lat="45.00722" lon="6.03943">
        <ele>1586.4000244141</ele>
        <time>2021-03-21T08:36:18.000Z</time>
      </trkpt>
      <trkpt lat="45.00722" lon="6.03943">
        <ele>1586.1999511719</ele>
        <time>2021-03-21T08:36:19.000Z</time>
      </trkpt>
      <trkpt lat="45.00722" lon="6.03943">
        <ele>1586.1999511719</ele>
        <time>2021-03-21T08:36:20.000Z</time>
      </trkpt>
      <trkpt lat="45.00721" lon="6.03943">
        <ele>1586.4000244141</ele>
        <time>2021-03-21T08:36:21.000Z</time>
      </trkpt>
      <trkpt lat="45.00721" lon="6.03943">
        <ele>1586.4000244141</ele>
        <time>2021-03-21T08:36:22.000Z</time>
      </trkpt>
      <trkpt lat="45.00721" lon="6.03943">
        <ele>1586.4000244141</ele>
        <time>2021-03-21T08:36:23.000Z</time>
      </trkpt>
      <trkpt lat="45.00721" lon="6.03943">
        <ele>1586.4000244141</ele>
        <time>2021-03-21T08:36:24.000Z</time>
      </trkpt>
      <trkpt lat="45.00721" lon="6.03943">
        <ele>1586.5999755859</ele>
        <time>2021-03-21T08:36:25.000Z</time>
      </trkpt>
      <trkpt lat="45.00721" lon="6.03943">
        <ele>1586.8000488281</ele>
        <time>2021-03-21T08:36:26.000Z</time>
      </trkpt>
      <trkpt lat="45.00721" lon="6.03942">
        <ele>1587</ele>
        <time>2021-03-21T08:36:27.000Z</time>
      </trkpt>
      <trkpt lat="45.00721" lon="6.03942">
        <ele>1587</ele>
        <time>2021-03-21T08:36:28.000Z</time>
      </trkpt>
      <trkpt lat="45.00721" lon="6.03942">
        <ele>1587</ele>
        <time>2021-03-21T08:36:29.000Z</time>
      </trkpt>
      <trkpt lat="45.00721" lon="6.03943">
        <ele>1586.8000488281</ele>
        <time>2021-03-21T08:36:30.000Z</time>
      </trkpt>
      <trkpt lat="45.00721" lon="6.03943">
        <ele>1586.8000488281</ele>
        <time>2021-03-21T08:36:31.000Z</time>
      </trkpt>
      <trkpt lat="45.00721" lon="6.03943">
        <ele>1586.5999755859</ele>
        <time>2021-03-21T08:36:32.000Z</time>
      </trkpt>
      <trkpt lat="45.00721" lon="6.03943">
        <ele>1586.5999755859</ele>
        <time>2021-03-21T08:36:33.000Z</time>
      </trkpt>
      <trkpt lat="45.0072" lon="6.03944">
        <ele>1586.4000244141</ele>
        <time>2021-03-21T08:36:34.000Z</time>
      </trkpt>
      <trkpt lat="45.0072" lon="6.03944">
        <ele>1586.1999511719</ele>
        <time>2021-03-21T08:36:35.000Z</time>
      </trkpt>
      <trkpt lat="45.0072" lon="6.03944">
        <ele>1586.4000244141</ele>
        <time>2021-03-21T08:36:36.000Z</time>
      </trkpt>
      <trkpt lat="45.0072" lon="6.03944">
        <ele>1586.4000244141</ele>
        <time>2021-03-21T08:36:37.000Z</time>
      </trkpt>
      <trkpt lat="45.0072" lon="6.03943">
        <ele>1586.5999755859</ele>
        <time>2021-03-21T08:36:38.000Z</time>
      </trkpt>
      <trkpt lat="45.0072" lon="6.03943">
        <ele>1586.5999755859</ele>
        <time>2021-03-21T08:36:39.000Z</time>
      </trkpt>
      <trkpt lat="45.0072" lon="6.03943">
        <ele>1586.5999755859</ele>
        <time>2021-03-21T08:36:40.000Z</time>
      </trkpt>
      <trkpt lat="45.00721" lon="6.03944">
        <ele>1586.4000244141</ele>
        <time>2021-03-21T08:36:41.000Z</time>
      </trkpt>
      <trkpt lat="45.00721" lon="6.03944">
        <ele>1586.1999511719</ele>
        <time>2021-03-21T08:36:42.000Z</time>
      </trkpt>
      <trkpt lat="45.0072" lon="6.03944">
        <ele>1586.1999511719</ele>
        <time>2021-03-21T08:36:43.000Z</time>
      </trkpt>
      <trkpt lat="45.0072" lon="6.03944">
        <ele>1586</ele>
        <time>2021-03-21T08:36:44.000Z</time>
      </trkpt>
      <trkpt lat="45.00719" lon="6.03944">
        <ele>1585.8000488281</ele>
        <time>2021-03-21T08:36:45.000Z</time>
      </trkpt>
      <trkpt lat="45.00719" lon="6.03944">
        <ele>1585.8000488281</ele>
        <time>2021-03-21T08:36:46.000Z</time>
      </trkpt>
      <trkpt lat="45.00719" lon="6.03944">
        <ele>1585.8000488281</ele>
        <time>2021-03-21T08:36:47.000Z</time>
      </trkpt>
      <trkpt lat="45.00718" lon="6.03944">
        <ele>1585.8000488281</ele>
        <time>2021-03-21T08:36:48.000Z</time>
      </trkpt>
      <trkpt lat="45.00718" lon="6.03944">
        <ele>1585.5999755859</ele>
        <time>2021-03-21T08:36:49.000Z</time>
      </trkpt>
      <trkpt lat="45.00718" lon="6.03944">
        <ele>1585.8000488281</ele>
        <time>2021-03-21T08:36:50.000Z</time>
      </trkpt>
      <trkpt lat="45.00718" lon="6.03944">
        <ele>1585.8000488281</ele>
        <time>2021-03-21T08:36:51.000Z</time>
      </trkpt>
      <trkpt lat="45.00718" lon="6.03944">
        <ele>1585.8000488281</ele>
        <time>2021-03-21T08:36:52.000Z</time>
      </trkpt>
      <trkpt lat="45.00718" lon="6.03944">
        <ele>1586</ele>
        <time>2021-03-21T08:36:53.000Z</time>
      </trkpt>
      <trkpt lat="45.00718" lon="6.03944">
        <ele>1586</ele>
        <time>2021-03-21T08:36:54.000Z</time>
      </trkpt>
      <trkpt lat="45.00718" lon="6.03944">
        <ele>1586.1999511719</ele>
        <time>2021-03-21T08:36:55.000Z</time>
      </trkpt>
      <trkpt lat="45.00717" lon="6.03944">
        <ele>1585.8000488281</ele>
        <time>2021-03-21T08:36:56.000Z</time>
      </trkpt>
      <trkpt lat="45.00717" lon="6.03944">
        <ele>1585.5999755859</ele>
        <time>2021-03-21T08:36:57.000Z</time>
      </trkpt>
      <trkpt lat="45.00717" lon="6.03944">
        <ele>1585.5999755859</ele>
        <time>2021-03-21T08:36:58.000Z</time>
      </trkpt>
      <trkpt lat="45.00718" lon="6.03945">
        <ele>1585.4000244141</ele>
        <time>2021-03-21T08:36:59.000Z</time>
      </trkpt>
      <trkpt lat="45.00718" lon="6.03944">
        <ele>1585.5999755859</ele>
        <time>2021-03-21T08:37:00.000Z</time>
      </trkpt>
      <trkpt lat="45.00719" lon="6.03944">
        <ele>1585.8000488281</ele>
        <time>2021-03-21T08:37:01.000Z</time>
      </trkpt>
      <trkpt lat="45.00719" lon="6.03944">
        <ele>1585.8000488281</ele>
        <time>2021-03-21T08:37:02.000Z</time>
      </trkpt>
      <trkpt lat="45.00719" lon="6.03944">
        <ele>1586.1999511719</ele>
        <time>2021-03-21T08:37:03.000Z</time>
      </trkpt>
      <trkpt lat="45.0072" lon="6.03943">
        <ele>1586.5999755859</ele>
        <time>2021-03-21T08:37:04.000Z</time>
      </trkpt>
      <trkpt lat="45.0072" lon="6.03943">
        <ele>1586.8000488281</ele>
        <time>2021-03-21T08:37:05.000Z</time>
      </trkpt>
      <trkpt lat="45.00721" lon="6.03943">
        <ele>1586.8000488281</ele>
        <time>2021-03-21T08:37:06.000Z</time>
      </trkpt>
      <trkpt lat="45.00721" lon="6.03942">
        <ele>1587</ele>
        <time>2021-03-21T08:37:07.000Z</time>
      </trkpt>
      <trkpt lat="45.00722" lon="6.03942">
        <ele>1587.1999511719</ele>
        <time>2021-03-21T08:37:08.000Z</time>
      </trkpt>
      <trkpt lat="45.00722" lon="6.03941">
        <ele>1587.4000244141</ele>
        <time>2021-03-21T08:37:09.000Z</time>
      </trkpt>
      <trkpt lat="45.00723" lon="6.03941">
        <ele>1587.1999511719</ele>
        <time>2021-03-21T08:37:10.000Z</time>
      </trkpt>
      <trkpt lat="45.00723" lon="6.0394">
        <ele>1587.5999755859</ele>
        <time>2021-03-21T08:37:11.000Z</time>
      </trkpt>
      <trkpt lat="45.00723" lon="6.03939">
        <ele>1587.8000488281</ele>
        <time>2021-03-21T08:37:12.000Z</time>
      </trkpt>
      <trkpt lat="45.00724" lon="6.03939">
        <ele>1588.1999511719</ele>
        <time>2021-03-21T08:37:13.000Z</time>
      </trkpt>
      <trkpt lat="45.00725" lon="6.03939">
        <ele>1587.8000488281</ele>
        <time>2021-03-21T08:37:14.000Z</time>
      </trkpt>
      <trkpt lat="45.00725" lon="6.03939">
        <ele>1587.5999755859</ele>
        <time>2021-03-21T08:37:15.000Z</time>
      </trkpt>
      <trkpt lat="45.00726" lon="6.0394">
        <ele>1587.4000244141</ele>
        <time>2021-03-21T08:37:16.000Z</time>
      </trkpt>
      <trkpt lat="45.00726" lon="6.0394">
        <ele>1587.1999511719</ele>
        <time>2021-03-21T08:37:17.000Z</time>
      </trkpt>
      <trkpt lat="45.00726" lon="6.03939">
        <ele>1587.4000244141</ele>
        <time>2021-03-21T08:37:18.000Z</time>
      </trkpt>
      <trkpt lat="45.00726" lon="6.03939">
        <ele>1587.4000244141</ele>
        <time>2021-03-21T08:37:19.000Z</time>
      </trkpt>
      <trkpt lat="45.00726" lon="6.0394">
        <ele>1587.4000244141</ele>
        <time>2021-03-21T08:37:20.000Z</time>
      </trkpt>
      <trkpt lat="45.00725" lon="6.03939">
        <ele>1587.5999755859</ele>
        <time>2021-03-21T08:37:21.000Z</time>
      </trkpt>
      <trkpt lat="45.00725" lon="6.03939">
        <ele>1588</ele>
        <time>2021-03-21T08:37:22.000Z</time>
      </trkpt>
      <trkpt lat="45.00724" lon="6.03938">
        <ele>1588.4000244141</ele>
        <time>2021-03-21T08:37:23.000Z</time>
      </trkpt>
      <trkpt lat="45.00724" lon="6.03938">
        <ele>1588.5999755859</ele>
        <time>2021-03-21T08:37:24.000Z</time>
      </trkpt>
      <trkpt lat="45.00723" lon="6.03938">
        <ele>1589</ele>
        <time>2021-03-21T08:37:25.000Z</time>
      </trkpt>
      <trkpt lat="45.00722" lon="6.03937">
        <ele>1589.5999755859</ele>
        <time>2021-03-21T08:37:26.000Z</time>
      </trkpt>
      <trkpt lat="45.00722" lon="6.03936">
        <ele>1589.8000488281</ele>
        <time>2021-03-21T08:37:27.000Z</time>
      </trkpt>
      <trkpt lat="45.00721" lon="6.03936">
        <ele>1590.4000244141</ele>
        <time>2021-03-21T08:37:28.000Z</time>
      </trkpt>
      <trkpt lat="45.0072" lon="6.03936">
        <ele>1590.5999755859</ele>
        <time>2021-03-21T08:37:29.000Z</time>
      </trkpt>
      <trkpt lat="45.00719" lon="6.03935">
        <ele>1591</ele>
        <time>2021-03-21T08:37:30.000Z</time>
      </trkpt>
      <trkpt lat="45.00719" lon="6.03935">
        <ele>1591.4000244141</ele>
        <time>2021-03-21T08:37:31.000Z</time>
      </trkpt>
      <trkpt lat="45.00718" lon="6.03934">
        <ele>1591.8000488281</ele>
        <time>2021-03-21T08:37:32.000Z</time>
      </trkpt>
      <trkpt lat="45.00717" lon="6.03934">
        <ele>1592.1999511719</ele>
        <time>2021-03-21T08:37:33.000Z</time>
      </trkpt>
      <trkpt lat="45.00717" lon="6.03933">
        <ele>1592.4000244141</ele>
        <time>2021-03-21T08:37:34.000Z</time>
      </trkpt>
      <trkpt lat="45.00716" lon="6.03933">
        <ele>1592.8000488281</ele>
        <time>2021-03-21T08:37:35.000Z</time>
      </trkpt>
      <trkpt lat="45.00715" lon="6.03932">
        <ele>1593.4000244141</ele>
        <time>2021-03-21T08:37:36.000Z</time>
      </trkpt>
      <trkpt lat="45.00715" lon="6.03931">
        <ele>1594</ele>
        <time>2021-03-21T08:37:37.000Z</time>
      </trkpt>
      <trkpt lat="45.00714" lon="6.0393">
        <ele>1594.4000244141</ele>
        <time>2021-03-21T08:37:38.000Z</time>
      </trkpt>
      <trkpt lat="45.00713" lon="6.03929">
        <ele>1595</ele>
        <time>2021-03-21T08:37:39.000Z</time>
      </trkpt>
      <trkpt lat="45.00713" lon="6.03929">
        <ele>1595.5999755859</ele>
        <time>2021-03-21T08:37:40.000Z</time>
      </trkpt>
      <trkpt lat="45.00712" lon="6.03928">
        <ele>1596</ele>
        <time>2021-03-21T08:37:41.000Z</time>
      </trkpt>
      <trkpt lat="45.00711" lon="6.03927">
        <ele>1596.5999755859</ele>
        <time>2021-03-21T08:37:42.000Z</time>
      </trkpt>
      <trkpt lat="45.0071" lon="6.03927">
        <ele>1597</ele>
        <time>2021-03-21T08:37:43.000Z</time>
      </trkpt>
      <trkpt lat="45.00709" lon="6.03926">
        <ele>1597.4000244141</ele>
        <time>2021-03-21T08:37:44.000Z</time>
      </trkpt>
      <trkpt lat="45.00708" lon="6.03926">
        <ele>1597.8000488281</ele>
        <time>2021-03-21T08:37:45.000Z</time>
      </trkpt>
      <trkpt lat="45.00707" lon="6.03926">
        <ele>1597.5999755859</ele>
        <time>2021-03-21T08:37:46.000Z</time>
      </trkpt>
      <trkpt lat="45.00707" lon="6.03926">
        <ele>1597.5999755859</ele>
        <time>2021-03-21T08:37:47.000Z</time>
      </trkpt>
      <trkpt lat="45.00706" lon="6.03926">
        <ele>1597.5999755859</ele>
        <time>2021-03-21T08:37:48.000Z</time>
      </trkpt>
      <trkpt lat="45.00704" lon="6.03926">
        <ele>1597.8000488281</ele>
        <time>2021-03-21T08:37:49.000Z</time>
      </trkpt>
      <trkpt lat="45.00703" lon="6.03926">
        <ele>1597.8000488281</ele>
        <time>2021-03-21T08:37:50.000Z</time>
      </trkpt>
      <trkpt lat="45.00702" lon="6.03926">
        <ele>1597.5999755859</ele>
        <time>2021-03-21T08:37:51.000Z</time>
      </trkpt>
      <trkpt lat="45.00701" lon="6.03926">
        <ele>1597.4000244141</ele>
        <time>2021-03-21T08:37:52.000Z</time>
      </trkpt>
      <trkpt lat="45.007" lon="6.03926">
        <ele>1597.1999511719</ele>
        <time>2021-03-21T08:37:53.000Z</time>
      </trkpt>
      <trkpt lat="45.00699" lon="6.03926">
        <ele>1597.1999511719</ele>
        <time>2021-03-21T08:37:54.000Z</time>
      </trkpt>
      <trkpt lat="45.00698" lon="6.03925">
        <ele>1597.1999511719</ele>
        <time>2021-03-21T08:37:55.000Z</time>
      </trkpt>
      <trkpt lat="45.00698" lon="6.03925">
        <ele>1597.5999755859</ele>
        <time>2021-03-21T08:37:56.000Z</time>
      </trkpt>
      <trkpt lat="45.00698" lon="6.03925">
        <ele>1597.5999755859</ele>
        <time>2021-03-21T08:37:57.000Z</time>
      </trkpt>
      <trkpt lat="45.00697" lon="6.03924">
        <ele>1597.8000488281</ele>
        <time>2021-03-21T08:37:58.000Z</time>
      </trkpt>
      <trkpt lat="45.00696" lon="6.03924">
        <ele>1598</ele>
        <time>2021-03-21T08:37:59.000Z</time>
      </trkpt>
      <trkpt lat="45.00696" lon="6.03923">
        <ele>1598.4000244141</ele>
        <time>2021-03-21T08:38:00.000Z</time>
      </trkpt>
      <trkpt lat="45.00695" lon="6.03923">
        <ele>1598.4000244141</ele>
        <time>2021-03-21T08:38:01.000Z</time>
      </trkpt>
      <trkpt lat="45.00694" lon="6.03922">
        <ele>1598.5999755859</ele>
        <time>2021-03-21T08:38:02.000Z</time>
      </trkpt>
      <trkpt lat="45.00694" lon="6.03922">
        <ele>1598.8000488281</ele>
        <time>2021-03-21T08:38:03.000Z</time>
      </trkpt>
      <trkpt lat="45.00693" lon="6.03922">
        <ele>1598.8000488281</ele>
        <time>2021-03-21T08:38:04.000Z</time>
      </trkpt>
      <trkpt lat="45.00692" lon="6.03922">
        <ele>1598.5999755859</ele>
        <time>2021-03-21T08:38:05.000Z</time>
      </trkpt>
      <trkpt lat="45.00691" lon="6.03922">
        <ele>1598.4000244141</ele>
        <time>2021-03-21T08:38:06.000Z</time>
      </trkpt>
      <trkpt lat="45.0069" lon="6.03921">
        <ele>1598.4000244141</ele>
        <time>2021-03-21T08:38:07.000Z</time>
      </trkpt>
      <trkpt lat="45.0069" lon="6.03922">
        <ele>1598.1999511719</ele>
        <time>2021-03-21T08:38:08.000Z</time>
      </trkpt>
      <trkpt lat="45.00689" lon="6.03922">
        <ele>1597.8000488281</ele>
        <time>2021-03-21T08:38:09.000Z</time>
      </trkpt>
      <trkpt lat="45.00688" lon="6.03922">
        <ele>1597.8000488281</ele>
        <time>2021-03-21T08:38:10.000Z</time>
      </trkpt>
      <trkpt lat="45.00687" lon="6.03922">
        <ele>1597.5999755859</ele>
        <time>2021-03-21T08:38:11.000Z</time>
      </trkpt>
      <trkpt lat="45.00686" lon="6.03922">
        <ele>1597.4000244141</ele>
        <time>2021-03-21T08:38:12.000Z</time>
      </trkpt>
      <trkpt lat="45.00685" lon="6.03922">
        <ele>1597.1999511719</ele>
        <time>2021-03-21T08:38:13.000Z</time>
      </trkpt>
      <trkpt lat="45.00684" lon="6.03922">
        <ele>1596.8000488281</ele>
        <time>2021-03-21T08:38:14.000Z</time>
      </trkpt>
      <trkpt lat="45.00683" lon="6.03922">
        <ele>1596.4000244141</ele>
        <time>2021-03-21T08:38:15.000Z</time>
      </trkpt>
      <trkpt lat="45.00682" lon="6.03923">
        <ele>1596</ele>
        <time>2021-03-21T08:38:16.000Z</time>
      </trkpt>
      <trkpt lat="45.00682" lon="6.03923">
        <ele>1595.8000488281</ele>
        <time>2021-03-21T08:38:17.000Z</time>
      </trkpt>
      <trkpt lat="45.00681" lon="6.03923">
        <ele>1595.4000244141</ele>
        <time>2021-03-21T08:38:18.000Z</time>
      </trkpt>
      <trkpt lat="45.0068" lon="6.03923">
        <ele>1595.4000244141</ele>
        <time>2021-03-21T08:38:19.000Z</time>
      </trkpt>
      <trkpt lat="45.00679" lon="6.03923">
        <ele>1595</ele>
        <time>2021-03-21T08:38:20.000Z</time>
      </trkpt>
      <trkpt lat="45.00678" lon="6.03923">
        <ele>1595</ele>
        <time>2021-03-21T08:38:21.000Z</time>
      </trkpt>
      <trkpt lat="45.00677" lon="6.03922">
        <ele>1595</ele>
        <time>2021-03-21T08:38:22.000Z</time>
      </trkpt>
      <trkpt lat="45.00676" lon="6.03922">
        <ele>1595</ele>
        <time>2021-03-21T08:38:23.000Z</time>
      </trkpt>
      <trkpt lat="45.00676" lon="6.03922">
        <ele>1595</ele>
        <time>2021-03-21T08:38:24.000Z</time>
      </trkpt>
      <trkpt lat="45.00675" lon="6.03922">
        <ele>1595</ele>
        <time>2021-03-21T08:38:25.000Z</time>
      </trkpt>
      <trkpt lat="45.00675" lon="6.03921">
        <ele>1595.1999511719</ele>
        <time>2021-03-21T08:38:26.000Z</time>
      </trkpt>
      <trkpt lat="45.00674" lon="6.03921">
        <ele>1595.4000244141</ele>
        <time>2021-03-21T08:38:27.000Z</time>
      </trkpt>
      <trkpt lat="45.00674" lon="6.0392">
        <ele>1595.8000488281</ele>
        <time>2021-03-21T08:38:28.000Z</time>
      </trkpt>
      <trkpt lat="45.00673" lon="6.0392">
        <ele>1596</ele>
        <time>2021-03-21T08:38:29.000Z</time>
      </trkpt>
      <trkpt lat="45.00673" lon="6.03919">
        <ele>1596.4000244141</ele>
        <time>2021-03-21T08:38:30.000Z</time>
      </trkpt>
      <trkpt lat="45.00672" lon="6.03918">
        <ele>1596.8000488281</ele>
        <time>2021-03-21T08:38:31.000Z</time>
      </trkpt>
      <trkpt lat="45.00672" lon="6.03918">
        <ele>1597.1999511719</ele>
        <time>2021-03-21T08:38:32.000Z</time>
      </trkpt>
      <trkpt lat="45.00672" lon="6.03917">
        <ele>1597.4000244141</ele>
        <time>2021-03-21T08:38:33.000Z</time>
      </trkpt>
      <trkpt lat="45.00671" lon="6.03917">
        <ele>1597.8000488281</ele>
        <time>2021-03-21T08:38:34.000Z</time>
      </trkpt>
      <trkpt lat="45.00671" lon="6.03916">
        <ele>1598.1999511719</ele>
        <time>2021-03-21T08:38:35.000Z</time>
      </trkpt>
      <trkpt lat="45.0067" lon="6.03915">
        <ele>1598.5999755859</ele>
        <time>2021-03-21T08:38:36.000Z</time>
      </trkpt>
      <trkpt lat="45.0067" lon="6.03914">
        <ele>1599.1999511719</ele>
        <time>2021-03-21T08:38:37.000Z</time>
      </trkpt>
      <trkpt lat="45.00669" lon="6.03914">
        <ele>1599.5999755859</ele>
        <time>2021-03-21T08:38:38.000Z</time>
      </trkpt>
      <trkpt lat="45.00669" lon="6.03913">
        <ele>1599.8000488281</ele>
        <time>2021-03-21T08:38:39.000Z</time>
      </trkpt>
      <trkpt lat="45.00668" lon="6.03913">
        <ele>1600.1999511719</ele>
        <time>2021-03-21T08:38:40.000Z</time>
      </trkpt>
      <trkpt lat="45.00668" lon="6.03911">
        <ele>1600.8000488281</ele>
        <time>2021-03-21T08:38:41.000Z</time>
      </trkpt>
      <trkpt lat="45.00667" lon="6.03911">
        <ele>1601</ele>
        <time>2021-03-21T08:38:42.000Z</time>
      </trkpt>
      <trkpt lat="45.00667" lon="6.0391">
        <ele>1601.4000244141</ele>
        <time>2021-03-21T08:38:43.000Z</time>
      </trkpt>
      <trkpt lat="45.00666" lon="6.03909">
        <ele>1601.8000488281</ele>
        <time>2021-03-21T08:38:44.000Z</time>
      </trkpt>
      <trkpt lat="45.00666" lon="6.03909">
        <ele>1602.1999511719</ele>
        <time>2021-03-21T08:38:45.000Z</time>
      </trkpt>
      <trkpt lat="45.00665" lon="6.03908">
        <ele>1602.5999755859</ele>
        <time>2021-03-21T08:38:46.000Z</time>
      </trkpt>
      <trkpt lat="45.00665" lon="6.03908">
        <ele>1602.5999755859</ele>
        <time>2021-03-21T08:38:47.000Z</time>
      </trkpt>
      <trkpt lat="45.00664" lon="6.03908">
        <ele>1602.8000488281</ele>
        <time>2021-03-21T08:38:48.000Z</time>
      </trkpt>
      <trkpt lat="45.00664" lon="6.03907">
        <ele>1602.8000488281</ele>
        <time>2021-03-21T08:38:49.000Z</time>
      </trkpt>
      <trkpt lat="45.00663" lon="6.03907">
        <ele>1603</ele>
        <time>2021-03-21T08:38:50.000Z</time>
      </trkpt>
      <trkpt lat="45.00663" lon="6.03907">
        <ele>1603</ele>
        <time>2021-03-21T08:38:51.000Z</time>
      </trkpt>
      <trkpt lat="45.00662" lon="6.03906">
        <ele>1603.1999511719</ele>
        <time>2021-03-21T08:38:52.000Z</time>
      </trkpt>
      <trkpt lat="45.00661" lon="6.03906">
        <ele>1603</ele>
        <time>2021-03-21T08:38:53.000Z</time>
      </trkpt>
      <trkpt lat="45.00661" lon="6.03907">
        <ele>1602.8000488281</ele>
        <time>2021-03-21T08:38:54.000Z</time>
      </trkpt>
      <trkpt lat="45.0066" lon="6.03907">
        <ele>1602</ele>
        <time>2021-03-21T08:38:55.000Z</time>
      </trkpt>
      <trkpt lat="45.00659" lon="6.03907">
        <ele>1602</ele>
        <time>2021-03-21T08:38:56.000Z</time>
      </trkpt>
      <trkpt lat="45.00658" lon="6.03907">
        <ele>1601.5999755859</ele>
        <time>2021-03-21T08:38:57.000Z</time>
      </trkpt>
      <trkpt lat="45.00658" lon="6.03907">
        <ele>1601.5999755859</ele>
        <time>2021-03-21T08:38:58.000Z</time>
      </trkpt>
      <trkpt lat="45.00657" lon="6.03907">
        <ele>1601.4000244141</ele>
        <time>2021-03-21T08:38:59.000Z</time>
      </trkpt>
      <trkpt lat="45.00656" lon="6.03907">
        <ele>1601.4000244141</ele>
        <time>2021-03-21T08:39:00.000Z</time>
      </trkpt>
      <trkpt lat="45.00655" lon="6.03907">
        <ele>1601.5999755859</ele>
        <time>2021-03-21T08:39:01.000Z</time>
      </trkpt>
      <trkpt lat="45.00654" lon="6.03907">
        <ele>1601.8000488281</ele>
        <time>2021-03-21T08:39:02.000Z</time>
      </trkpt>
      <trkpt lat="45.00653" lon="6.03906">
        <ele>1601.8000488281</ele>
        <time>2021-03-21T08:39:03.000Z</time>
      </trkpt>
      <trkpt lat="45.00652" lon="6.03906">
        <ele>1602</ele>
        <time>2021-03-21T08:39:04.000Z</time>
      </trkpt>
      <trkpt lat="45.00651" lon="6.03906">
        <ele>1602.1999511719</ele>
        <time>2021-03-21T08:39:05.000Z</time>
      </trkpt>
      <trkpt lat="45.0065" lon="6.03906">
        <ele>1602.5999755859</ele>
        <time>2021-03-21T08:39:06.000Z</time>
      </trkpt>
      <trkpt lat="45.0065" lon="6.03905">
        <ele>1602.8000488281</ele>
        <time>2021-03-21T08:39:07.000Z</time>
      </trkpt>
      <trkpt lat="45.00649" lon="6.03905">
        <ele>1603</ele>
        <time>2021-03-21T08:39:08.000Z</time>
      </trkpt>
      <trkpt lat="45.00648" lon="6.03904">
        <ele>1603.4000244141</ele>
        <time>2021-03-21T08:39:09.000Z</time>
      </trkpt>
      <trkpt lat="45.00648" lon="6.03904">
        <ele>1603.5999755859</ele>
        <time>2021-03-21T08:39:10.000Z</time>
      </trkpt>
      <trkpt lat="45.00647" lon="6.03903">
        <ele>1604</ele>
        <time>2021-03-21T08:39:11.000Z</time>
      </trkpt>
      <trkpt lat="45.00646" lon="6.03903">
        <ele>1604.1999511719</ele>
        <time>2021-03-21T08:39:12.000Z</time>
      </trkpt>
      <trkpt lat="45.00645" lon="6.03902">
        <ele>1604.8000488281</ele>
        <time>2021-03-21T08:39:13.000Z</time>
      </trkpt>
      <trkpt lat="45.00645" lon="6.03902">
        <ele>1605</ele>
        <time>2021-03-21T08:39:14.000Z</time>
      </trkpt>
      <trkpt lat="45.00644" lon="6.03901">
        <ele>1605.4000244141</ele>
        <time>2021-03-21T08:39:15.000Z</time>
      </trkpt>
      <trkpt lat="45.00643" lon="6.03901">
        <ele>1605.8000488281</ele>
        <time>2021-03-21T08:39:16.000Z</time>
      </trkpt>
      <trkpt lat="45.00643" lon="6.039">
        <ele>1606</ele>
        <time>2021-03-21T08:39:17.000Z</time>
      </trkpt>
      <trkpt lat="45.00642" lon="6.039">
        <ele>1606.1999511719</ele>
        <time>2021-03-21T08:39:18.000Z</time>
      </trkpt>
      <trkpt lat="45.00641" lon="6.039">
        <ele>1606.4000244141</ele>
        <time>2021-03-21T08:39:19.000Z</time>
      </trkpt>
      <trkpt lat="45.0064" lon="6.03899">
        <ele>1606.5999755859</ele>
        <time>2021-03-21T08:39:20.000Z</time>
      </trkpt>
      <trkpt lat="45.00639" lon="6.03899">
        <ele>1606.8000488281</ele>
        <time>2021-03-21T08:39:21.000Z</time>
      </trkpt>
      <trkpt lat="45.00639" lon="6.03899">
        <ele>1607</ele>
        <time>2021-03-21T08:39:22.000Z</time>
      </trkpt>
      <trkpt lat="45.00638" lon="6.03898">
        <ele>1607.4000244141</ele>
        <time>2021-03-21T08:39:23.000Z</time>
      </trkpt>
      <trkpt lat="45.00638" lon="6.03898">
        <ele>1607.4000244141</ele>
        <time>2021-03-21T08:39:24.000Z</time>
      </trkpt>
      <trkpt lat="45.00637" lon="6.03898">
        <ele>1607.5999755859</ele>
        <time>2021-03-21T08:39:25.000Z</time>
      </trkpt>
      <trkpt lat="45.00637" lon="6.03898">
        <ele>1607.8000488281</ele>
        <time>2021-03-21T08:39:26.000Z</time>
      </trkpt>
      <trkpt lat="45.00637" lon="6.03898">
        <ele>1607.5999755859</ele>
        <time>2021-03-21T08:39:27.000Z</time>
      </trkpt>
      <trkpt lat="45.00637" lon="6.03898">
        <ele>1607.8000488281</ele>
        <time>2021-03-21T08:39:28.000Z</time>
      </trkpt>
      <trkpt lat="45.00637" lon="6.03897">
        <ele>1608</ele>
        <time>2021-03-21T08:39:29.000Z</time>
      </trkpt>
      <trkpt lat="45.00637" lon="6.03897">
        <ele>1608.1999511719</ele>
        <time>2021-03-21T08:39:30.000Z</time>
      </trkpt>
      <trkpt lat="45.00637" lon="6.03897">
        <ele>1608.1999511719</ele>
        <time>2021-03-21T08:39:31.000Z</time>
      </trkpt>
      <trkpt lat="45.00637" lon="6.03897">
        <ele>1608.1999511719</ele>
        <time>2021-03-21T08:39:32.000Z</time>
      </trkpt>
      <trkpt lat="45.00637" lon="6.03897">
        <ele>1608.1999511719</ele>
        <time>2021-03-21T08:39:33.000Z</time>
      </trkpt>
      <trkpt lat="45.00637" lon="6.03897">
        <ele>1608.1999511719</ele>
        <time>2021-03-21T08:39:34.000Z</time>
      </trkpt>
      <trkpt lat="45.00637" lon="6.03897">
        <ele>1608.1999511719</ele>
        <time>2021-03-21T08:39:35.000Z</time>
      </trkpt>
      <trkpt lat="45.00637" lon="6.03897">
        <ele>1608.1999511719</ele>
        <time>2021-03-21T08:39:36.000Z</time>
      </trkpt>
      <trkpt lat="45.00637" lon="6.03897">
        <ele>1608</ele>
        <time>2021-03-21T08:39:37.000Z</time>
      </trkpt>
      <trkpt lat="45.00637" lon="6.03898">
        <ele>1608</ele>
        <time>2021-03-21T08:39:38.000Z</time>
      </trkpt>
      <trkpt lat="45.00637" lon="6.03898">
        <ele>1607.8000488281</ele>
        <time>2021-03-21T08:39:39.000Z</time>
      </trkpt>
      <trkpt lat="45.00637" lon="6.03898">
        <ele>1607.8000488281</ele>
        <time>2021-03-21T08:39:40.000Z</time>
      </trkpt>
      <trkpt lat="45.00637" lon="6.03898">
        <ele>1608</ele>
        <time>2021-03-21T08:39:41.000Z</time>
      </trkpt>
      <trkpt lat="45.00637" lon="6.03898">
        <ele>1608</ele>
        <time>2021-03-21T08:39:42.000Z</time>
      </trkpt>
      <trkpt lat="45.00637" lon="6.03898">
        <ele>1608</ele>
        <time>2021-03-21T08:39:43.000Z</time>
      </trkpt>
      <trkpt lat="45.00636" lon="6.03898">
        <ele>1607.8000488281</ele>
        <time>2021-03-21T08:39:44.000Z</time>
      </trkpt>
      <trkpt lat="45.00636" lon="6.03898">
        <ele>1607.8000488281</ele>
        <time>2021-03-21T08:39:45.000Z</time>
      </trkpt>
      <trkpt lat="45.00636" lon="6.03898">
        <ele>1607.5999755859</ele>
        <time>2021-03-21T08:39:46.000Z</time>
      </trkpt>
      <trkpt lat="45.00636" lon="6.03898">
        <ele>1607.8000488281</ele>
        <time>2021-03-21T08:39:47.000Z</time>
      </trkpt>
      <trkpt lat="45.00636" lon="6.03898">
        <ele>1607.8000488281</ele>
        <time>2021-03-21T08:39:48.000Z</time>
      </trkpt>
      <trkpt lat="45.00636" lon="6.03898">
        <ele>1608</ele>
        <time>2021-03-21T08:39:49.000Z</time>
      </trkpt>
      <trkpt lat="45.00635" lon="6.03898">
        <ele>1607.8000488281</ele>
        <time>2021-03-21T08:39:50.000Z</time>
      </trkpt>
      <trkpt lat="45.00636" lon="6.03898">
        <ele>1607.8000488281</ele>
        <time>2021-03-21T08:39:51.000Z</time>
      </trkpt>
      <trkpt lat="45.00635" lon="6.03898">
        <ele>1607.8000488281</ele>
        <time>2021-03-21T08:39:52.000Z</time>
      </trkpt>
      <trkpt lat="45.00635" lon="6.03898">
        <ele>1608</ele>
        <time>2021-03-21T08:39:53.000Z</time>
      </trkpt>
      <trkpt lat="45.00635" lon="6.03897">
        <ele>1608.1999511719</ele>
        <time>2021-03-21T08:39:54.000Z</time>
      </trkpt>
      <trkpt lat="45.00635" lon="6.03897">
        <ele>1608.1999511719</ele>
        <time>2021-03-21T08:39:55.000Z</time>
      </trkpt>
      <trkpt lat="45.00635" lon="6.03897">
        <ele>1608.1999511719</ele>
        <time>2021-03-21T08:39:56.000Z</time>
      </trkpt>
      <trkpt lat="45.00635" lon="6.03898">
        <ele>1608</ele>
        <time>2021-03-21T08:39:57.000Z</time>
      </trkpt>
      <trkpt lat="45.00635" lon="6.03898">
        <ele>1607.8000488281</ele>
        <time>2021-03-21T08:39:58.000Z</time>
      </trkpt>
      <trkpt lat="45.00635" lon="6.03898">
        <ele>1607.8000488281</ele>
        <time>2021-03-21T08:39:59.000Z</time>
      </trkpt>
      <trkpt lat="45.00635" lon="6.03898">
        <ele>1608</ele>
        <time>2021-03-21T08:40:00.000Z</time>
      </trkpt>
      <trkpt lat="45.00635" lon="6.03898">
        <ele>1608.1999511719</ele>
        <time>2021-03-21T08:40:01.000Z</time>
      </trkpt>
      <trkpt lat="45.00634" lon="6.03897">
        <ele>1608.4000244141</ele>
        <time>2021-03-21T08:40:02.000Z</time>
      </trkpt>
      <trkpt lat="45.00634" lon="6.03897">
        <ele>1608.5999755859</ele>
        <time>2021-03-21T08:40:03.000Z</time>
      </trkpt>
      <trkpt lat="45.00634" lon="6.03897">
        <ele>1608.8000488281</ele>
        <time>2021-03-21T08:40:04.000Z</time>
      </trkpt>
      <trkpt lat="45.00633" lon="6.03896">
        <ele>1609</ele>
        <time>2021-03-21T08:40:05.000Z</time>
      </trkpt>
      <trkpt lat="45.00632" lon="6.03896">
        <ele>1609</ele>
        <time>2021-03-21T08:40:06.000Z</time>
      </trkpt>
      <trkpt lat="45.00632" lon="6.03896">
        <ele>1609.1999511719</ele>
        <time>2021-03-21T08:40:07.000Z</time>
      </trkpt>
      <trkpt lat="45.00631" lon="6.03896">
        <ele>1609.4000244141</ele>
        <time>2021-03-21T08:40:08.000Z</time>
      </trkpt>
      <trkpt lat="45.0063" lon="6.03896">
        <ele>1609.5999755859</ele>
        <time>2021-03-21T08:40:09.000Z</time>
      </trkpt>
      <trkpt lat="45.0063" lon="6.03895">
        <ele>1610</ele>
        <time>2021-03-21T08:40:10.000Z</time>
      </trkpt>
      <trkpt lat="45.00629" lon="6.03894">
        <ele>1610.4000244141</ele>
        <time>2021-03-21T08:40:11.000Z</time>
      </trkpt>
      <trkpt lat="45.00629" lon="6.03894">
        <ele>1610.8000488281</ele>
        <time>2021-03-21T08:40:12.000Z</time>
      </trkpt>
      <trkpt lat="45.00628" lon="6.03893">
        <ele>1611.4000244141</ele>
        <time>2021-03-21T08:40:13.000Z</time>
      </trkpt>
      <trkpt lat="45.00627" lon="6.03892">
        <ele>1611.5999755859</ele>
        <time>2021-03-21T08:40:14.000Z</time>
      </trkpt>
      <trkpt lat="45.00627" lon="6.03892">
        <ele>1611.8000488281</ele>
        <time>2021-03-21T08:40:15.000Z</time>
      </trkpt>
      <trkpt lat="45.00625" lon="6.03892">
        <ele>1612.1999511719</ele>
        <time>2021-03-21T08:40:16.000Z</time>
      </trkpt>
      <trkpt lat="45.00625" lon="6.03891">
        <ele>1612.4000244141</ele>
        <time>2021-03-21T08:40:17.000Z</time>
      </trkpt>
      <trkpt lat="45.00624" lon="6.03891">
        <ele>1612.5999755859</ele>
        <time>2021-03-21T08:40:18.000Z</time>
      </trkpt>
      <trkpt lat="45.00624" lon="6.0389">
        <ele>1612.5999755859</ele>
        <time>2021-03-21T08:40:19.000Z</time>
      </trkpt>
      <trkpt lat="45.00623" lon="6.0389">
        <ele>1612.8000488281</ele>
        <time>2021-03-21T08:40:20.000Z</time>
      </trkpt>
      <trkpt lat="45.00622" lon="6.03889">
        <ele>1613</ele>
        <time>2021-03-21T08:40:21.000Z</time>
      </trkpt>
      <trkpt lat="45.00622" lon="6.03889">
        <ele>1613.1999511719</ele>
        <time>2021-03-21T08:40:22.000Z</time>
      </trkpt>
      <trkpt lat="45.00621" lon="6.03889">
        <ele>1613.1999511719</ele>
        <time>2021-03-21T08:40:23.000Z</time>
      </trkpt>
      <trkpt lat="45.00621" lon="6.03888">
        <ele>1613.4000244141</ele>
        <time>2021-03-21T08:40:24.000Z</time>
      </trkpt>
      <trkpt lat="45.0062" lon="6.03887">
        <ele>1613.5999755859</ele>
        <time>2021-03-21T08:40:25.000Z</time>
      </trkpt>
      <trkpt lat="45.00619" lon="6.03887">
        <ele>1614</ele>
        <time>2021-03-21T08:40:26.000Z</time>
      </trkpt>
      <trkpt lat="45.00619" lon="6.03886">
        <ele>1614.1999511719</ele>
        <time>2021-03-21T08:40:27.000Z</time>
      </trkpt>
      <trkpt lat="45.00619" lon="6.03886">
        <ele>1614.1999511719</ele>
        <time>2021-03-21T08:40:28.000Z</time>
      </trkpt>
      <trkpt lat="45.00618" lon="6.03885">
        <ele>1614.5999755859</ele>
        <time>2021-03-21T08:40:29.000Z</time>
      </trkpt>
      <trkpt lat="45.00618" lon="6.03885">
        <ele>1614.5999755859</ele>
        <time>2021-03-21T08:40:30.000Z</time>
      </trkpt>
      <trkpt lat="45.00618" lon="6.03885">
        <ele>1614.5999755859</ele>
        <time>2021-03-21T08:40:31.000Z</time>
      </trkpt>
      <trkpt lat="45.00618" lon="6.03885">
        <ele>1614.5999755859</ele>
        <time>2021-03-21T08:40:32.000Z</time>
      </trkpt>
      <trkpt lat="45.00619" lon="6.03885">
        <ele>1614.5999755859</ele>
        <time>2021-03-21T08:40:33.000Z</time>
      </trkpt>
      <trkpt lat="45.00619" lon="6.03885">
        <ele>1614.5999755859</ele>
        <time>2021-03-21T08:40:34.000Z</time>
      </trkpt>
      <trkpt lat="45.00619" lon="6.03885">
        <ele>1614.4000244141</ele>
        <time>2021-03-21T08:40:35.000Z</time>
      </trkpt>
      <trkpt lat="45.00619" lon="6.03886">
        <ele>1614.4000244141</ele>
        <time>2021-03-21T08:40:36.000Z</time>
      </trkpt>
      <trkpt lat="45.00619" lon="6.03886">
        <ele>1614.1999511719</ele>
        <time>2021-03-21T08:40:37.000Z</time>
      </trkpt>
      <trkpt lat="45.0062" lon="6.03886">
        <ele>1614.1999511719</ele>
        <time>2021-03-21T08:40:38.000Z</time>
      </trkpt>
      <trkpt lat="45.0062" lon="6.03886">
        <ele>1614.1999511719</ele>
        <time>2021-03-21T08:40:39.000Z</time>
      </trkpt>
      <trkpt lat="45.0062" lon="6.03886">
        <ele>1614.1999511719</ele>
        <time>2021-03-21T08:40:40.000Z</time>
      </trkpt>
      <trkpt lat="45.0062" lon="6.03886">
        <ele>1614.1999511719</ele>
        <time>2021-03-21T08:40:41.000Z</time>
      </trkpt>
      <trkpt lat="45.0062" lon="6.03886">
        <ele>1614.1999511719</ele>
        <time>2021-03-21T08:40:42.000Z</time>
      </trkpt>
      <trkpt lat="45.00619" lon="6.03886">
        <ele>1614.1999511719</ele>
        <time>2021-03-21T08:40:43.000Z</time>
      </trkpt>
      <trkpt lat="45.0062" lon="6.03886">
        <ele>1614.4000244141</ele>
        <time>2021-03-21T08:40:44.000Z</time>
      </trkpt>
      <trkpt lat="45.00619" lon="6.03886">
        <ele>1614.4000244141</ele>
        <time>2021-03-21T08:40:45.000Z</time>
      </trkpt>
      <trkpt lat="45.00619" lon="6.03885">
        <ele>1614.5999755859</ele>
        <time>2021-03-21T08:40:46.000Z</time>
      </trkpt>
      <trkpt lat="45.00619" lon="6.03885">
        <ele>1614.5999755859</ele>
        <time>2021-03-21T08:40:47.000Z</time>
      </trkpt>
      <trkpt lat="45.00618" lon="6.03884">
        <ele>1615</ele>
        <time>2021-03-21T08:40:48.000Z</time>
      </trkpt>
      <trkpt lat="45.00619" lon="6.03883">
        <ele>1615.4000244141</ele>
        <time>2021-03-21T08:40:49.000Z</time>
      </trkpt>
      <trkpt lat="45.00619" lon="6.03883">
        <ele>1615.4000244141</ele>
        <time>2021-03-21T08:40:50.000Z</time>
      </trkpt>
      <trkpt lat="45.00618" lon="6.03882">
        <ele>1615.8000488281</ele>
        <time>2021-03-21T08:40:51.000Z</time>
      </trkpt>
      <trkpt lat="45.00618" lon="6.03882">
        <ele>1616</ele>
        <time>2021-03-21T08:40:52.000Z</time>
      </trkpt>
      <trkpt lat="45.00618" lon="6.03882">
        <ele>1616.1999511719</ele>
        <time>2021-03-21T08:40:53.000Z</time>
      </trkpt>
      <trkpt lat="45.00618" lon="6.03881">
        <ele>1616.1999511719</ele>
        <time>2021-03-21T08:40:54.000Z</time>
      </trkpt>
      <trkpt lat="45.00617" lon="6.03881">
        <ele>1616.5999755859</ele>
        <time>2021-03-21T08:40:55.000Z</time>
      </trkpt>
      <trkpt lat="45.00617" lon="6.0388">
        <ele>1616.5999755859</ele>
        <time>2021-03-21T08:40:56.000Z</time>
      </trkpt>
      <trkpt lat="45.00617" lon="6.0388">
        <ele>1616.8000488281</ele>
        <time>2021-03-21T08:40:57.000Z</time>
      </trkpt>
      <trkpt lat="45.00617" lon="6.03879">
        <ele>1617</ele>
        <time>2021-03-21T08:40:58.000Z</time>
      </trkpt>
      <trkpt lat="45.00616" lon="6.03878">
        <ele>1617.5999755859</ele>
        <time>2021-03-21T08:40:59.000Z</time>
      </trkpt>
      <trkpt lat="45.00616" lon="6.03878">
        <ele>1617.5999755859</ele>
        <time>2021-03-21T08:41:00.000Z</time>
      </trkpt>
      <trkpt lat="45.00616" lon="6.03877">
        <ele>1618</ele>
        <time>2021-03-21T08:41:01.000Z</time>
      </trkpt>
      <trkpt lat="45.00616" lon="6.03877">
        <ele>1618.1999511719</ele>
        <time>2021-03-21T08:41:02.000Z</time>
      </trkpt>
      <trkpt lat="45.00616" lon="6.03876">
        <ele>1618.5999755859</ele>
        <time>2021-03-21T08:41:03.000Z</time>
      </trkpt>
      <trkpt lat="45.00616" lon="6.03876">
        <ele>1618.8000488281</ele>
        <time>2021-03-21T08:41:04.000Z</time>
      </trkpt>
      <trkpt lat="45.00616" lon="6.03876">
        <ele>1618.5999755859</ele>
        <time>2021-03-21T08:41:05.000Z</time>
      </trkpt>
      <trkpt lat="45.00616" lon="6.03876">
        <ele>1618.8000488281</ele>
        <time>2021-03-21T08:41:06.000Z</time>
      </trkpt>
      <trkpt lat="45.00616" lon="6.03876">
        <ele>1618.8000488281</ele>
        <time>2021-03-21T08:41:07.000Z</time>
      </trkpt>
      <trkpt lat="45.00616" lon="6.03876">
        <ele>1619</ele>
        <time>2021-03-21T08:41:08.000Z</time>
      </trkpt>
      <trkpt lat="45.00616" lon="6.03875">
        <ele>1619.1999511719</ele>
        <time>2021-03-21T08:41:09.000Z</time>
      </trkpt>
      <trkpt lat="45.00616" lon="6.03875">
        <ele>1619.4000244141</ele>
        <time>2021-03-21T08:41:10.000Z</time>
      </trkpt>
      <trkpt lat="45.00616" lon="6.03875">
        <ele>1619.4000244141</ele>
        <time>2021-03-21T08:41:11.000Z</time>
      </trkpt>
      <trkpt lat="45.00616" lon="6.03875">
        <ele>1619.5999755859</ele>
        <time>2021-03-21T08:41:12.000Z</time>
      </trkpt>
      <trkpt lat="45.00615" lon="6.03874">
        <ele>1619.8000488281</ele>
        <time>2021-03-21T08:41:13.000Z</time>
      </trkpt>
      <trkpt lat="45.00616" lon="6.03874">
        <ele>1620</ele>
        <time>2021-03-21T08:41:14.000Z</time>
      </trkpt>
      <trkpt lat="45.00616" lon="6.03874">
        <ele>1620.1999511719</ele>
        <time>2021-03-21T08:41:15.000Z</time>
      </trkpt>
      <trkpt lat="45.00616" lon="6.03873">
        <ele>1620.1999511719</ele>
        <time>2021-03-21T08:41:16.000Z</time>
      </trkpt>
      <trkpt lat="45.00616" lon="6.03873">
        <ele>1620.4000244141</ele>
        <time>2021-03-21T08:41:17.000Z</time>
      </trkpt>
      <trkpt lat="45.00616" lon="6.03873">
        <ele>1620.5999755859</ele>
        <time>2021-03-21T08:41:18.000Z</time>
      </trkpt>
      <trkpt lat="45.00615" lon="6.03872">
        <ele>1620.8000488281</ele>
        <time>2021-03-21T08:41:19.000Z</time>
      </trkpt>
      <trkpt lat="45.00615" lon="6.03872">
        <ele>1620.8000488281</ele>
        <time>2021-03-21T08:41:20.000Z</time>
      </trkpt>
      <trkpt lat="45.00614" lon="6.03871">
        <ele>1621.1999511719</ele>
        <time>2021-03-21T08:41:21.000Z</time>
      </trkpt>
      <trkpt lat="45.00614" lon="6.03872">
        <ele>1621</ele>
        <time>2021-03-21T08:41:22.000Z</time>
      </trkpt>
      <trkpt lat="45.00614" lon="6.03872">
        <ele>1620.8000488281</ele>
        <time>2021-03-21T08:41:23.000Z</time>
      </trkpt>
      <trkpt lat="45.00614" lon="6.03872">
        <ele>1621</ele>
        <time>2021-03-21T08:41:24.000Z</time>
      </trkpt>
      <trkpt lat="45.00614" lon="6.03872">
        <ele>1620.8000488281</ele>
        <time>2021-03-21T08:41:25.000Z</time>
      </trkpt>
      <trkpt lat="45.00614" lon="6.03872">
        <ele>1620.8000488281</ele>
        <time>2021-03-21T08:41:26.000Z</time>
      </trkpt>
      <trkpt lat="45.00614" lon="6.03872">
        <ele>1620.8000488281</ele>
        <time>2021-03-21T08:41:27.000Z</time>
      </trkpt>
      <trkpt lat="45.00614" lon="6.03872">
        <ele>1621</ele>
        <time>2021-03-21T08:41:28.000Z</time>
      </trkpt>
      <trkpt lat="45.00613" lon="6.03871">
        <ele>1621.1999511719</ele>
        <time>2021-03-21T08:41:29.000Z</time>
      </trkpt>
      <trkpt lat="45.00613" lon="6.03871">
        <ele>1621.4000244141</ele>
        <time>2021-03-21T08:41:30.000Z</time>
      </trkpt>
      <trkpt lat="45.00613" lon="6.0387">
        <ele>1621.5999755859</ele>
        <time>2021-03-21T08:41:31.000Z</time>
      </trkpt>
      <trkpt lat="45.00613" lon="6.0387">
        <ele>1621.5999755859</ele>
        <time>2021-03-21T08:41:32.000Z</time>
      </trkpt>
      <trkpt lat="45.00612" lon="6.0387">
        <ele>1621.8000488281</ele>
        <time>2021-03-21T08:41:33.000Z</time>
      </trkpt>
      <trkpt lat="45.00613" lon="6.0387">
        <ele>1621.8000488281</ele>
        <time>2021-03-21T08:41:34.000Z</time>
      </trkpt>
      <trkpt lat="45.00612" lon="6.0387">
        <ele>1621.8000488281</ele>
        <time>2021-03-21T08:41:35.000Z</time>
      </trkpt>
      <trkpt lat="45.00612" lon="6.0387">
        <ele>1621.8000488281</ele>
        <time>2021-03-21T08:41:36.000Z</time>
      </trkpt>
      <trkpt lat="45.00612" lon="6.0387">
        <ele>1621.8000488281</ele>
        <time>2021-03-21T08:41:37.000Z</time>
      </trkpt>
      <trkpt lat="45.00612" lon="6.0387">
        <ele>1621.8000488281</ele>
        <time>2021-03-21T08:41:38.000Z</time>
      </trkpt>
      <trkpt lat="45.00612" lon="6.0387">
        <ele>1621.8000488281</ele>
        <time>2021-03-21T08:41:39.000Z</time>
      </trkpt>
      <trkpt lat="45.00611" lon="6.0387">
        <ele>1621.5999755859</ele>
        <time>2021-03-21T08:41:40.000Z</time>
      </trkpt>
      <trkpt lat="45.00611" lon="6.0387">
        <ele>1621.5999755859</ele>
        <time>2021-03-21T08:41:41.000Z</time>
      </trkpt>
      <trkpt lat="45.00611" lon="6.0387">
        <ele>1621.8000488281</ele>
        <time>2021-03-21T08:41:42.000Z</time>
      </trkpt>
      <trkpt lat="45.00611" lon="6.03869">
        <ele>1622</ele>
        <time>2021-03-21T08:41:43.000Z</time>
      </trkpt>
      <trkpt lat="45.00611" lon="6.03869">
        <ele>1622.1999511719</ele>
        <time>2021-03-21T08:41:44.000Z</time>
      </trkpt>
      <trkpt lat="45.00611" lon="6.03869">
        <ele>1622.1999511719</ele>
        <time>2021-03-21T08:41:45.000Z</time>
      </trkpt>
      <trkpt lat="45.00611" lon="6.03869">
        <ele>1622.4000244141</ele>
        <time>2021-03-21T08:41:46.000Z</time>
      </trkpt>
      <trkpt lat="45.00611" lon="6.03868">
        <ele>1622.5999755859</ele>
        <time>2021-03-21T08:41:47.000Z</time>
      </trkpt>
      <trkpt lat="45.00612" lon="6.03868">
        <ele>1622.8000488281</ele>
        <time>2021-03-21T08:41:48.000Z</time>
      </trkpt>
      <trkpt lat="45.00612" lon="6.03868">
        <ele>1623</ele>
        <time>2021-03-21T08:41:49.000Z</time>
      </trkpt>
      <trkpt lat="45.00612" lon="6.03868">
        <ele>1623</ele>
        <time>2021-03-21T08:41:50.000Z</time>
      </trkpt>
      <trkpt lat="45.00612" lon="6.03867">
        <ele>1623</ele>
        <time>2021-03-21T08:41:51.000Z</time>
      </trkpt>
      <trkpt lat="45.00612" lon="6.03867">
        <ele>1623.1999511719</ele>
        <time>2021-03-21T08:41:52.000Z</time>
      </trkpt>
      <trkpt lat="45.00612" lon="6.03867">
        <ele>1623.4000244141</ele>
        <time>2021-03-21T08:41:53.000Z</time>
      </trkpt>
      <trkpt lat="45.00612" lon="6.03867">
        <ele>1623.5999755859</ele>
        <time>2021-03-21T08:41:54.000Z</time>
      </trkpt>
      <trkpt lat="45.00612" lon="6.03867">
        <ele>1623.4000244141</ele>
        <time>2021-03-21T08:41:55.000Z</time>
      </trkpt>
      <trkpt lat="45.00612" lon="6.03867">
        <ele>1623.1999511719</ele>
        <time>2021-03-21T08:41:56.000Z</time>
      </trkpt>
      <trkpt lat="45.00612" lon="6.03867">
        <ele>1623.1999511719</ele>
        <time>2021-03-21T08:41:57.000Z</time>
      </trkpt>
      <trkpt lat="45.00611" lon="6.03866">
        <ele>1623.5999755859</ele>
        <time>2021-03-21T08:41:58.000Z</time>
      </trkpt>
      <trkpt lat="45.00611" lon="6.03866">
        <ele>1623.8000488281</ele>
        <time>2021-03-21T08:41:59.000Z</time>
      </trkpt>
      <trkpt lat="45.0061" lon="6.03865">
        <ele>1624</ele>
        <time>2021-03-21T08:42:00.000Z</time>
      </trkpt>
      <trkpt lat="45.0061" lon="6.03865">
        <ele>1624</ele>
        <time>2021-03-21T08:42:01.000Z</time>
      </trkpt>
      <trkpt lat="45.00609" lon="6.03865">
        <ele>1623.8000488281</ele>
        <time>2021-03-21T08:42:02.000Z</time>
      </trkpt>
      <trkpt lat="45.00609" lon="6.03865">
        <ele>1624</ele>
        <time>2021-03-21T08:42:03.000Z</time>
      </trkpt>
      <trkpt lat="45.00608" lon="6.03865">
        <ele>1624</ele>
        <time>2021-03-21T08:42:04.000Z</time>
      </trkpt>
      <trkpt lat="45.00608" lon="6.03865">
        <ele>1623.8000488281</ele>
        <time>2021-03-21T08:42:05.000Z</time>
      </trkpt>
      <trkpt lat="45.00608" lon="6.03865">
        <ele>1624</ele>
        <time>2021-03-21T08:42:06.000Z</time>
      </trkpt>
      <trkpt lat="45.00608" lon="6.03865">
        <ele>1623.8000488281</ele>
        <time>2021-03-21T08:42:07.000Z</time>
      </trkpt>
      <trkpt lat="45.00608" lon="6.03866">
        <ele>1623.5999755859</ele>
        <time>2021-03-21T08:42:08.000Z</time>
      </trkpt>
      <trkpt lat="45.00608" lon="6.03866">
        <ele>1623.4000244141</ele>
        <time>2021-03-21T08:42:09.000Z</time>
      </trkpt>
      <trkpt lat="45.00608" lon="6.03866">
        <ele>1623.5999755859</ele>
        <time>2021-03-21T08:42:10.000Z</time>
      </trkpt>
      <trkpt lat="45.00608" lon="6.03866">
        <ele>1623.4000244141</ele>
        <time>2021-03-21T08:42:11.000Z</time>
      </trkpt>
      <trkpt lat="45.00607" lon="6.03866">
        <ele>1623.4000244141</ele>
        <time>2021-03-21T08:42:12.000Z</time>
      </trkpt>
      <trkpt lat="45.00607" lon="6.03866">
        <ele>1623.1999511719</ele>
        <time>2021-03-21T08:42:13.000Z</time>
      </trkpt>
      <trkpt lat="45.00607" lon="6.03866">
        <ele>1623.4000244141</ele>
        <time>2021-03-21T08:42:14.000Z</time>
      </trkpt>
      <trkpt lat="45.00607" lon="6.03866">
        <ele>1623.4000244141</ele>
        <time>2021-03-21T08:42:15.000Z</time>
      </trkpt>
      <trkpt lat="45.00608" lon="6.03866">
        <ele>1623.4000244141</ele>
        <time>2021-03-21T08:42:16.000Z</time>
      </trkpt>
      <trkpt lat="45.00607" lon="6.03866">
        <ele>1623.4000244141</ele>
        <time>2021-03-21T08:42:17.000Z</time>
      </trkpt>
      <trkpt lat="45.00608" lon="6.03866">
        <ele>1623.4000244141</ele>
        <time>2021-03-21T08:42:18.000Z</time>
      </trkpt>
      <trkpt lat="45.00608" lon="6.03866">
        <ele>1623.4000244141</ele>
        <time>2021-03-21T08:42:19.000Z</time>
      </trkpt>
      <trkpt lat="45.00608" lon="6.03866">
        <ele>1623.4000244141</ele>
        <time>2021-03-21T08:42:20.000Z</time>
      </trkpt>
      <trkpt lat="45.00608" lon="6.03866">
        <ele>1623.1999511719</ele>
        <time>2021-03-21T08:42:21.000Z</time>
      </trkpt>
      <trkpt lat="45.00608" lon="6.03866">
        <ele>1623.1999511719</ele>
        <time>2021-03-21T08:42:22.000Z</time>
      </trkpt>
      <trkpt lat="45.00608" lon="6.03866">
        <ele>1623.1999511719</ele>
        <time>2021-03-21T08:42:23.000Z</time>
      </trkpt>
      <trkpt lat="45.00608" lon="6.03866">
        <ele>1623.4000244141</ele>
        <time>2021-03-21T08:42:24.000Z</time>
      </trkpt>
      <trkpt lat="45.00608" lon="6.03866">
        <ele>1623.4000244141</ele>
        <time>2021-03-21T08:42:25.000Z</time>
      </trkpt>
      <trkpt lat="45.00608" lon="6.03866">
        <ele>1623.5999755859</ele>
        <time>2021-03-21T08:42:26.000Z</time>
      </trkpt>
      <trkpt lat="45.00608" lon="6.03866">
        <ele>1623.5999755859</ele>
        <time>2021-03-21T08:42:27.000Z</time>
      </trkpt>
      <trkpt lat="45.00608" lon="6.03865">
        <ele>1623.8000488281</ele>
        <time>2021-03-21T08:42:28.000Z</time>
      </trkpt>
      <trkpt lat="45.00608" lon="6.03865">
        <ele>1623.8000488281</ele>
        <time>2021-03-21T08:42:29.000Z</time>
      </trkpt>
      <trkpt lat="45.00608" lon="6.03865">
        <ele>1624</ele>
        <time>2021-03-21T08:42:30.000Z</time>
      </trkpt>
      <trkpt lat="45.00608" lon="6.03865">
        <ele>1624</ele>
        <time>2021-03-21T08:42:31.000Z</time>
      </trkpt>
      <trkpt lat="45.00608" lon="6.03865">
        <ele>1624</ele>
        <time>2021-03-21T08:42:32.000Z</time>
      </trkpt>
      <trkpt lat="45.00608" lon="6.03865">
        <ele>1624</ele>
        <time>2021-03-21T08:42:33.000Z</time>
      </trkpt>
      <trkpt lat="45.00608" lon="6.03865">
        <ele>1624</ele>
        <time>2021-03-21T08:42:34.000Z</time>
      </trkpt>
      <trkpt lat="45.00608" lon="6.03865">
        <ele>1623.8000488281</ele>
        <time>2021-03-21T08:42:35.000Z</time>
      </trkpt>
      <trkpt lat="45.00608" lon="6.03865">
        <ele>1623.5999755859</ele>
        <time>2021-03-21T08:42:36.000Z</time>
      </trkpt>
      <trkpt lat="45.00608" lon="6.03865">
        <ele>1623.8000488281</ele>
        <time>2021-03-21T08:42:37.000Z</time>
      </trkpt>
      <trkpt lat="45.00607" lon="6.03865">
        <ele>1623.8000488281</ele>
        <time>2021-03-21T08:42:38.000Z</time>
      </trkpt>
      <trkpt lat="45.00607" lon="6.03865">
        <ele>1623.8000488281</ele>
        <time>2021-03-21T08:42:39.000Z</time>
      </trkpt>
      <trkpt lat="45.00607" lon="6.03865">
        <ele>1624</ele>
        <time>2021-03-21T08:42:40.000Z</time>
      </trkpt>
      <trkpt lat="45.00607" lon="6.03864">
        <ele>1624.1999511719</ele>
        <time>2021-03-21T08:42:41.000Z</time>
      </trkpt>
      <trkpt lat="45.00606" lon="6.03864">
        <ele>1624.4000244141</ele>
        <time>2021-03-21T08:42:42.000Z</time>
      </trkpt>
      <trkpt lat="45.00606" lon="6.03863">
        <ele>1624.5999755859</ele>
        <time>2021-03-21T08:42:43.000Z</time>
      </trkpt>
      <trkpt lat="45.00605" lon="6.03863">
        <ele>1624.5999755859</ele>
        <time>2021-03-21T08:42:44.000Z</time>
      </trkpt>
      <trkpt lat="45.00605" lon="6.03863">
        <ele>1624.5999755859</ele>
        <time>2021-03-21T08:42:45.000Z</time>
      </trkpt>
      <trkpt lat="45.00605" lon="6.03862">
        <ele>1625.1999511719</ele>
        <time>2021-03-21T08:42:46.000Z</time>
      </trkpt>
      <trkpt lat="45.00604" lon="6.03861">
        <ele>1625.4000244141</ele>
        <time>2021-03-21T08:42:47.000Z</time>
      </trkpt>
      <trkpt lat="45.00604" lon="6.03861">
        <ele>1625.8000488281</ele>
        <time>2021-03-21T08:42:48.000Z</time>
      </trkpt>
      <trkpt lat="45.00603" lon="6.0386">
        <ele>1626</ele>
        <time>2021-03-21T08:42:49.000Z</time>
      </trkpt>
      <trkpt lat="45.00602" lon="6.03859">
        <ele>1626.1999511719</ele>
        <time>2021-03-21T08:42:50.000Z</time>
      </trkpt>
      <trkpt lat="45.00602" lon="6.03859">
        <ele>1626.4000244141</ele>
        <time>2021-03-21T08:42:51.000Z</time>
      </trkpt>
      <trkpt lat="45.00601" lon="6.03859">
        <ele>1626.5999755859</ele>
        <time>2021-03-21T08:42:52.000Z</time>
      </trkpt>
      <trkpt lat="45.00601" lon="6.03858">
        <ele>1626.5999755859</ele>
        <time>2021-03-21T08:42:53.000Z</time>
      </trkpt>
      <trkpt lat="45.006" lon="6.03857">
        <ele>1627.4000244141</ele>
        <time>2021-03-21T08:42:54.000Z</time>
      </trkpt>
      <trkpt lat="45.006" lon="6.03857">
        <ele>1627.4000244141</ele>
        <time>2021-03-21T08:42:55.000Z</time>
      </trkpt>
      <trkpt lat="45.00599" lon="6.03856">
        <ele>1627.8000488281</ele>
        <time>2021-03-21T08:42:56.000Z</time>
      </trkpt>
      <trkpt lat="45.00599" lon="6.03855">
        <ele>1628.1999511719</ele>
        <time>2021-03-21T08:42:57.000Z</time>
      </trkpt>
      <trkpt lat="45.00599" lon="6.03855">
        <ele>1628.1999511719</ele>
        <time>2021-03-21T08:42:58.000Z</time>
      </trkpt>
      <trkpt lat="45.00599" lon="6.03855">
        <ele>1628.1999511719</ele>
        <time>2021-03-21T08:42:59.000Z</time>
      </trkpt>
      <trkpt lat="45.00599" lon="6.03855">
        <ele>1628.1999511719</ele>
        <time>2021-03-21T08:43:00.000Z</time>
      </trkpt>
      <trkpt lat="45.00599" lon="6.03855">
        <ele>1628.4000244141</ele>
        <time>2021-03-21T08:43:01.000Z</time>
      </trkpt>
      <trkpt lat="45.00599" lon="6.03855">
        <ele>1628.4000244141</ele>
        <time>2021-03-21T08:43:02.000Z</time>
      </trkpt>
      <trkpt lat="45.00599" lon="6.03854">
        <ele>1628.5999755859</ele>
        <time>2021-03-21T08:43:03.000Z</time>
      </trkpt>
      <trkpt lat="45.00599" lon="6.03854">
        <ele>1628.5999755859</ele>
        <time>2021-03-21T08:43:04.000Z</time>
      </trkpt>
      <trkpt lat="45.00598" lon="6.03854">
        <ele>1629</ele>
        <time>2021-03-21T08:43:05.000Z</time>
      </trkpt>
      <trkpt lat="45.00598" lon="6.03854">
        <ele>1629</ele>
        <time>2021-03-21T08:43:06.000Z</time>
      </trkpt>
      <trkpt lat="45.00598" lon="6.03854">
        <ele>1629</ele>
        <time>2021-03-21T08:43:07.000Z</time>
      </trkpt>
      <trkpt lat="45.00598" lon="6.03853">
        <ele>1629.4000244141</ele>
        <time>2021-03-21T08:43:08.000Z</time>
      </trkpt>
      <trkpt lat="45.00598" lon="6.03853">
        <ele>1629.4000244141</ele>
        <time>2021-03-21T08:43:09.000Z</time>
      </trkpt>
      <trkpt lat="45.00597" lon="6.03852">
        <ele>1629.5999755859</ele>
        <time>2021-03-21T08:43:10.000Z</time>
      </trkpt>
      <trkpt lat="45.00597" lon="6.03853">
        <ele>1629.5999755859</ele>
        <time>2021-03-21T08:43:11.000Z</time>
      </trkpt>
      <trkpt lat="45.00597" lon="6.03852">
        <ele>1629.8000488281</ele>
        <time>2021-03-21T08:43:12.000Z</time>
      </trkpt>
      <trkpt lat="45.00597" lon="6.03853">
        <ele>1629.5999755859</ele>
        <time>2021-03-21T08:43:13.000Z</time>
      </trkpt>
      <trkpt lat="45.00597" lon="6.03853">
        <ele>1629.5999755859</ele>
        <time>2021-03-21T08:43:14.000Z</time>
      </trkpt>
      <trkpt lat="45.00597" lon="6.03852">
        <ele>1629.8000488281</ele>
        <time>2021-03-21T08:43:15.000Z</time>
      </trkpt>
      <trkpt lat="45.00597" lon="6.03852">
        <ele>1630</ele>
        <time>2021-03-21T08:43:16.000Z</time>
      </trkpt>
      <trkpt lat="45.00596" lon="6.03852">
        <ele>1630.1999511719</ele>
        <time>2021-03-21T08:43:17.000Z</time>
      </trkpt>
      <trkpt lat="45.00596" lon="6.03851">
        <ele>1630.4000244141</ele>
        <time>2021-03-21T08:43:18.000Z</time>
      </trkpt>
      <trkpt lat="45.00595" lon="6.03851">
        <ele>1630.8000488281</ele>
        <time>2021-03-21T08:43:19.000Z</time>
      </trkpt>
      <trkpt lat="45.00595" lon="6.0385">
        <ele>1631.1999511719</ele>
        <time>2021-03-21T08:43:20.000Z</time>
      </trkpt>
      <trkpt lat="45.00594" lon="6.03849">
        <ele>1631.4000244141</ele>
        <time>2021-03-21T08:43:21.000Z</time>
      </trkpt>
      <trkpt lat="45.00594" lon="6.03849">
        <ele>1631.8000488281</ele>
        <time>2021-03-21T08:43:22.000Z</time>
      </trkpt>
      <trkpt lat="45.00593" lon="6.03849">
        <ele>1631.8000488281</ele>
        <time>2021-03-21T08:43:23.000Z</time>
      </trkpt>
      <trkpt lat="45.00593" lon="6.03848">
        <ele>1632</ele>
        <time>2021-03-21T08:43:24.000Z</time>
      </trkpt>
      <trkpt lat="45.00592" lon="6.03848">
        <ele>1632.1999511719</ele>
        <time>2021-03-21T08:43:25.000Z</time>
      </trkpt>
      <trkpt lat="45.00592" lon="6.03848">
        <ele>1632.4000244141</ele>
        <time>2021-03-21T08:43:26.000Z</time>
      </trkpt>
      <trkpt lat="45.00591" lon="6.03848">
        <ele>1632.5999755859</ele>
        <time>2021-03-21T08:43:27.000Z</time>
      </trkpt>
      <trkpt lat="45.00591" lon="6.03848">
        <ele>1632.4000244141</ele>
        <time>2021-03-21T08:43:28.000Z</time>
      </trkpt>
      <trkpt lat="45.0059" lon="6.03848">
        <ele>1632.5999755859</ele>
        <time>2021-03-21T08:43:29.000Z</time>
      </trkpt>
      <trkpt lat="45.00589" lon="6.03848">
        <ele>1632.8000488281</ele>
        <time>2021-03-21T08:43:30.000Z</time>
      </trkpt>
      <trkpt lat="45.00588" lon="6.03848">
        <ele>1632.8000488281</ele>
        <time>2021-03-21T08:43:31.000Z</time>
      </trkpt>
      <trkpt lat="45.00587" lon="6.03848">
        <ele>1632.8000488281</ele>
        <time>2021-03-21T08:43:32.000Z</time>
      </trkpt>
      <trkpt lat="45.00586" lon="6.03847">
        <ele>1633</ele>
        <time>2021-03-21T08:43:33.000Z</time>
      </trkpt>
      <trkpt lat="45.00586" lon="6.03847">
        <ele>1633.1999511719</ele>
        <time>2021-03-21T08:43:34.000Z</time>
      </trkpt>
      <trkpt lat="45.00585" lon="6.03847">
        <ele>1633</ele>
        <time>2021-03-21T08:43:35.000Z</time>
      </trkpt>
      <trkpt lat="45.00584" lon="6.03847">
        <ele>1633.1999511719</ele>
        <time>2021-03-21T08:43:36.000Z</time>
      </trkpt>
      <trkpt lat="45.00584" lon="6.03847">
        <ele>1633.4000244141</ele>
        <time>2021-03-21T08:43:37.000Z</time>
      </trkpt>
      <trkpt lat="45.00583" lon="6.03847">
        <ele>1633.4000244141</ele>
        <time>2021-03-21T08:43:38.000Z</time>
      </trkpt>
      <trkpt lat="45.00583" lon="6.03847">
        <ele>1633.5999755859</ele>
        <time>2021-03-21T08:43:39.000Z</time>
      </trkpt>
      <trkpt lat="45.00582" lon="6.03846">
        <ele>1633.8000488281</ele>
        <time>2021-03-21T08:43:40.000Z</time>
      </trkpt>
      <trkpt lat="45.00581" lon="6.03846">
        <ele>1634</ele>
        <time>2021-03-21T08:43:41.000Z</time>
      </trkpt>
      <trkpt lat="45.00581" lon="6.03846">
        <ele>1634.1999511719</ele>
        <time>2021-03-21T08:43:42.000Z</time>
      </trkpt>
      <trkpt lat="45.0058" lon="6.03845">
        <ele>1634.5999755859</ele>
        <time>2021-03-21T08:43:43.000Z</time>
      </trkpt>
      <trkpt lat="45.0058" lon="6.03845">
        <ele>1634.5999755859</ele>
        <time>2021-03-21T08:43:44.000Z</time>
      </trkpt>
      <trkpt lat="45.00579" lon="6.03845">
        <ele>1634.8000488281</ele>
        <time>2021-03-21T08:43:45.000Z</time>
      </trkpt>
      <trkpt lat="45.00579" lon="6.03845">
        <ele>1635</ele>
        <time>2021-03-21T08:43:46.000Z</time>
      </trkpt>
      <trkpt lat="45.00578" lon="6.03845">
        <ele>1634.8000488281</ele>
        <time>2021-03-21T08:43:47.000Z</time>
      </trkpt>
      <trkpt lat="45.00578" lon="6.03845">
        <ele>1634.8000488281</ele>
        <time>2021-03-21T08:43:48.000Z</time>
      </trkpt>
      <trkpt lat="45.00577" lon="6.03845">
        <ele>1634.8000488281</ele>
        <time>2021-03-21T08:43:49.000Z</time>
      </trkpt>
      <trkpt lat="45.00577" lon="6.03845">
        <ele>1635</ele>
        <time>2021-03-21T08:43:50.000Z</time>
      </trkpt>
      <trkpt lat="45.00576" lon="6.03845">
        <ele>1635.1999511719</ele>
        <time>2021-03-21T08:43:51.000Z</time>
      </trkpt>
      <trkpt lat="45.00575" lon="6.03845">
        <ele>1635</ele>
        <time>2021-03-21T08:43:52.000Z</time>
      </trkpt>
      <trkpt lat="45.00574" lon="6.03845">
        <ele>1635</ele>
        <time>2021-03-21T08:43:53.000Z</time>
      </trkpt>
      <trkpt lat="45.00574" lon="6.03845">
        <ele>1635</ele>
        <time>2021-03-21T08:43:54.000Z</time>
      </trkpt>
      <trkpt lat="45.00573" lon="6.03845">
        <ele>1635</ele>
        <time>2021-03-21T08:43:55.000Z</time>
      </trkpt>
      <trkpt lat="45.00573" lon="6.03845">
        <ele>1635</ele>
        <time>2021-03-21T08:43:56.000Z</time>
      </trkpt>
      <trkpt lat="45.00573" lon="6.03845">
        <ele>1634.8000488281</ele>
        <time>2021-03-21T08:43:57.000Z</time>
      </trkpt>
      <trkpt lat="45.00573" lon="6.03845">
        <ele>1634.8000488281</ele>
        <time>2021-03-21T08:43:58.000Z</time>
      </trkpt>
      <trkpt lat="45.00574" lon="6.03846">
        <ele>1634.5999755859</ele>
        <time>2021-03-21T08:43:59.000Z</time>
      </trkpt>
      <trkpt lat="45.00574" lon="6.03846">
        <ele>1634.5999755859</ele>
        <time>2021-03-21T08:44:00.000Z</time>
      </trkpt>
      <trkpt lat="45.00574" lon="6.03845">
        <ele>1634.8000488281</ele>
        <time>2021-03-21T08:44:01.000Z</time>
      </trkpt>
      <trkpt lat="45.00574" lon="6.03845">
        <ele>1634.8000488281</ele>
        <time>2021-03-21T08:44:02.000Z</time>
      </trkpt>
      <trkpt lat="45.00574" lon="6.03845">
        <ele>1635</ele>
        <time>2021-03-21T08:44:03.000Z</time>
      </trkpt>
      <trkpt lat="45.00574" lon="6.03845">
        <ele>1635</ele>
        <time>2021-03-21T08:44:04.000Z</time>
      </trkpt>
      <trkpt lat="45.00574" lon="6.03845">
        <ele>1635</ele>
        <time>2021-03-21T08:44:05.000Z</time>
      </trkpt>
      <trkpt lat="45.00574" lon="6.03845">
        <ele>1635</ele>
        <time>2021-03-21T08:44:06.000Z</time>
      </trkpt>
      <trkpt lat="45.00574" lon="6.03845">
        <ele>1635.1999511719</ele>
        <time>2021-03-21T08:44:07.000Z</time>
      </trkpt>
      <trkpt lat="45.00574" lon="6.03845">
        <ele>1635</ele>
        <time>2021-03-21T08:44:08.000Z</time>
      </trkpt>
      <trkpt lat="45.00574" lon="6.03845">
        <ele>1634.8000488281</ele>
        <time>2021-03-21T08:44:09.000Z</time>
      </trkpt>
      <trkpt lat="45.00574" lon="6.03845">
        <ele>1635</ele>
        <time>2021-03-21T08:44:10.000Z</time>
      </trkpt>
      <trkpt lat="45.00574" lon="6.03845">
        <ele>1635</ele>
        <time>2021-03-21T08:44:11.000Z</time>
      </trkpt>
      <trkpt lat="45.00574" lon="6.03845">
        <ele>1635</ele>
        <time>2021-03-21T08:44:12.000Z</time>
      </trkpt>
      <trkpt lat="45.00574" lon="6.03845">
        <ele>1635</ele>
        <time>2021-03-21T08:44:13.000Z</time>
      </trkpt>
      <trkpt lat="45.00574" lon="6.03845">
        <ele>1634.8000488281</ele>
        <time>2021-03-21T08:44:14.000Z</time>
      </trkpt>
      <trkpt lat="45.00574" lon="6.03845">
        <ele>1635</ele>
        <time>2021-03-21T08:44:15.000Z</time>
      </trkpt>
      <trkpt lat="45.00574" lon="6.03845">
        <ele>1634.8000488281</ele>
        <time>2021-03-21T08:44:16.000Z</time>
      </trkpt>
      <trkpt lat="45.00574" lon="6.03845">
        <ele>1634.8000488281</ele>
        <time>2021-03-21T08:44:17.000Z</time>
      </trkpt>
      <trkpt lat="45.00574" lon="6.03846">
        <ele>1634.5999755859</ele>
        <time>2021-03-21T08:44:18.000Z</time>
      </trkpt>
      <trkpt lat="45.00574" lon="6.03846">
        <ele>1634.4000244141</ele>
        <time>2021-03-21T08:44:19.000Z</time>
      </trkpt>
      <trkpt lat="45.00574" lon="6.03846">
        <ele>1634.5999755859</ele>
        <time>2021-03-21T08:44:20.000Z</time>
      </trkpt>
      <trkpt lat="45.00574" lon="6.03846">
        <ele>1634.5999755859</ele>
        <time>2021-03-21T08:44:21.000Z</time>
      </trkpt>
      <trkpt lat="45.00574" lon="6.03845">
        <ele>1634.8000488281</ele>
        <time>2021-03-21T08:44:22.000Z</time>
      </trkpt>
      <trkpt lat="45.00574" lon="6.03845">
        <ele>1634.8000488281</ele>
        <time>2021-03-21T08:44:23.000Z</time>
      </trkpt>
      <trkpt lat="45.00574" lon="6.03845">
        <ele>1635</ele>
        <time>2021-03-21T08:44:24.000Z</time>
      </trkpt>
      <trkpt lat="45.00574" lon="6.03845">
        <ele>1634.8000488281</ele>
        <time>2021-03-21T08:44:25.000Z</time>
      </trkpt>
      <trkpt lat="45.00574" lon="6.03845">
        <ele>1635</ele>
        <time>2021-03-21T08:44:26.000Z</time>
      </trkpt>
      <trkpt lat="45.00574" lon="6.03845">
        <ele>1634.8000488281</ele>
        <time>2021-03-21T08:44:27.000Z</time>
      </trkpt>
      <trkpt lat="45.00575" lon="6.03845">
        <ele>1634.8000488281</ele>
        <time>2021-03-21T08:44:28.000Z</time>
      </trkpt>
      <trkpt lat="45.00575" lon="6.03845">
        <ele>1634.8000488281</ele>
        <time>2021-03-21T08:44:29.000Z</time>
      </trkpt>
      <trkpt lat="45.00575" lon="6.03845">
        <ele>1634.5999755859</ele>
        <time>2021-03-21T08:44:30.000Z</time>
      </trkpt>
      <trkpt lat="45.00575" lon="6.03846">
        <ele>1634.5999755859</ele>
        <time>2021-03-21T08:44:31.000Z</time>
      </trkpt>
      <trkpt lat="45.00575" lon="6.03845">
        <ele>1634.8000488281</ele>
        <time>2021-03-21T08:44:32.000Z</time>
      </trkpt>
      <trkpt lat="45.00575" lon="6.03845">
        <ele>1635</ele>
        <time>2021-03-21T08:44:33.000Z</time>
      </trkpt>
      <trkpt lat="45.00575" lon="6.03844">
        <ele>1635.4000244141</ele>
        <time>2021-03-21T08:44:34.000Z</time>
      </trkpt>
      <trkpt lat="45.00576" lon="6.03844">
        <ele>1635.5999755859</ele>
        <time>2021-03-21T08:44:35.000Z</time>
      </trkpt>
      <trkpt lat="45.00575" lon="6.03844">
        <ele>1635.5999755859</ele>
        <time>2021-03-21T08:44:36.000Z</time>
      </trkpt>
      <trkpt lat="45.00575" lon="6.03844">
        <ele>1635.5999755859</ele>
        <time>2021-03-21T08:44:37.000Z</time>
      </trkpt>
      <trkpt lat="45.00575" lon="6.03844">
        <ele>1635.4000244141</ele>
        <time>2021-03-21T08:44:38.000Z</time>
      </trkpt>
      <trkpt lat="45.00575" lon="6.03844">
        <ele>1635.4000244141</ele>
        <time>2021-03-21T08:44:39.000Z</time>
      </trkpt>
      <trkpt lat="45.00575" lon="6.03844">
        <ele>1635.4000244141</ele>
        <time>2021-03-21T08:44:40.000Z</time>
      </trkpt>
      <trkpt lat="45.00575" lon="6.03844">
        <ele>1635.4000244141</ele>
        <time>2021-03-21T08:44:41.000Z</time>
      </trkpt>
      <trkpt lat="45.00575" lon="6.03844">
        <ele>1635.4000244141</ele>
        <time>2021-03-21T08:44:42.000Z</time>
      </trkpt>
      <trkpt lat="45.00575" lon="6.03845">
        <ele>1635.1999511719</ele>
        <time>2021-03-21T08:44:43.000Z</time>
      </trkpt>
      <trkpt lat="45.00575" lon="6.03845">
        <ele>1635.1999511719</ele>
        <time>2021-03-21T08:44:44.000Z</time>
      </trkpt>
      <trkpt lat="45.00575" lon="6.03845">
        <ele>1635</ele>
        <time>2021-03-21T08:44:45.000Z</time>
      </trkpt>
      <trkpt lat="45.00576" lon="6.03845">
        <ele>1635</ele>
        <time>2021-03-21T08:44:46.000Z</time>
      </trkpt>
      <trkpt lat="45.00576" lon="6.03845">
        <ele>1635</ele>
        <time>2021-03-21T08:44:47.000Z</time>
      </trkpt>
      <trkpt lat="45.00576" lon="6.03845">
        <ele>1634.8000488281</ele>
        <time>2021-03-21T08:44:48.000Z</time>
      </trkpt>
      <trkpt lat="45.00576" lon="6.03845">
        <ele>1634.8000488281</ele>
        <time>2021-03-21T08:44:49.000Z</time>
      </trkpt>
      <trkpt lat="45.00576" lon="6.03846">
        <ele>1634.5999755859</ele>
        <time>2021-03-21T08:44:50.000Z</time>
      </trkpt>
      <trkpt lat="45.00576" lon="6.03846">
        <ele>1634.5999755859</ele>
        <time>2021-03-21T08:44:51.000Z</time>
      </trkpt>
      <trkpt lat="45.00575" lon="6.03846">
        <ele>1634.5999755859</ele>
        <time>2021-03-21T08:44:52.000Z</time>
      </trkpt>
      <trkpt lat="45.00575" lon="6.03846">
        <ele>1634.5999755859</ele>
        <time>2021-03-21T08:44:53.000Z</time>
      </trkpt>
      <trkpt lat="45.00575" lon="6.03846">
        <ele>1634.5999755859</ele>
        <time>2021-03-21T08:44:54.000Z</time>
      </trkpt>
      <trkpt lat="45.00575" lon="6.03846">
        <ele>1634.4000244141</ele>
        <time>2021-03-21T08:44:55.000Z</time>
      </trkpt>
      <trkpt lat="45.00575" lon="6.03846">
        <ele>1634.4000244141</ele>
        <time>2021-03-21T08:44:56.000Z</time>
      </trkpt>
      <trkpt lat="45.00575" lon="6.03846">
        <ele>1634.4000244141</ele>
        <time>2021-03-21T08:44:57.000Z</time>
      </trkpt>
      <trkpt lat="45.00575" lon="6.03846">
        <ele>1634.5999755859</ele>
        <time>2021-03-21T08:44:58.000Z</time>
      </trkpt>
      <trkpt lat="45.00575" lon="6.03846">
        <ele>1634.5999755859</ele>
        <time>2021-03-21T08:44:59.000Z</time>
      </trkpt>
      <trkpt lat="45.00575" lon="6.03846">
        <ele>1634.5999755859</ele>
        <time>2021-03-21T08:45:00.000Z</time>
      </trkpt>
      <trkpt lat="45.00575" lon="6.03845">
        <ele>1634.5999755859</ele>
        <time>2021-03-21T08:45:01.000Z</time>
      </trkpt>
      <trkpt lat="45.00576" lon="6.03845">
        <ele>1634.5999755859</ele>
        <time>2021-03-21T08:45:02.000Z</time>
      </trkpt>
      <trkpt lat="45.00575" lon="6.03846">
        <ele>1634.5999755859</ele>
        <time>2021-03-21T08:45:03.000Z</time>
      </trkpt>
      <trkpt lat="45.00575" lon="6.03846">
        <ele>1634.5999755859</ele>
        <time>2021-03-21T08:45:04.000Z</time>
      </trkpt>
      <trkpt lat="45.00576" lon="6.03846">
        <ele>1634</ele>
        <time>2021-03-21T08:45:05.000Z</time>
      </trkpt>
      <trkpt lat="45.00576" lon="6.03847">
        <ele>1633.8000488281</ele>
        <time>2021-03-21T08:45:06.000Z</time>
      </trkpt>
      <trkpt lat="45.00576" lon="6.03847">
        <ele>1633.4000244141</ele>
        <time>2021-03-21T08:45:07.000Z</time>
      </trkpt>
      <trkpt lat="45.00575" lon="6.03848">
        <ele>1633</ele>
        <time>2021-03-21T08:45:08.000Z</time>
      </trkpt>
      <trkpt lat="45.00575" lon="6.03848">
        <ele>1633</ele>
        <time>2021-03-21T08:45:09.000Z</time>
      </trkpt>
      <trkpt lat="45.00575" lon="6.03848">
        <ele>1633.1999511719</ele>
        <time>2021-03-21T08:45:10.000Z</time>
      </trkpt>
      <trkpt lat="45.00574" lon="6.03848">
        <ele>1633.1999511719</ele>
        <time>2021-03-21T08:45:11.000Z</time>
      </trkpt>
      <trkpt lat="45.00573" lon="6.03847">
        <ele>1633.5999755859</ele>
        <time>2021-03-21T08:45:12.000Z</time>
      </trkpt>
      <trkpt lat="45.00572" lon="6.03847">
        <ele>1633.8000488281</ele>
        <time>2021-03-21T08:45:13.000Z</time>
      </trkpt>
      <trkpt lat="45.00572" lon="6.03847">
        <ele>1634</ele>
        <time>2021-03-21T08:45:14.000Z</time>
      </trkpt>
      <trkpt lat="45.00571" lon="6.03846">
        <ele>1634.1999511719</ele>
        <time>2021-03-21T08:45:15.000Z</time>
      </trkpt>
      <trkpt lat="45.0057" lon="6.03846">
        <ele>1634.4000244141</ele>
        <time>2021-03-21T08:45:16.000Z</time>
      </trkpt>
      <trkpt lat="45.00569" lon="6.03846">
        <ele>1634.5999755859</ele>
        <time>2021-03-21T08:45:17.000Z</time>
      </trkpt>
      <trkpt lat="45.00568" lon="6.03846">
        <ele>1634.8000488281</ele>
        <time>2021-03-21T08:45:18.000Z</time>
      </trkpt>
      <trkpt lat="45.00567" lon="6.03846">
        <ele>1634.5999755859</ele>
        <time>2021-03-21T08:45:19.000Z</time>
      </trkpt>
      <trkpt lat="45.00567" lon="6.03846">
        <ele>1634.8000488281</ele>
        <time>2021-03-21T08:45:20.000Z</time>
      </trkpt>
      <trkpt lat="45.00566" lon="6.03846">
        <ele>1635.1999511719</ele>
        <time>2021-03-21T08:45:21.000Z</time>
      </trkpt>
      <trkpt lat="45.00565" lon="6.03846">
        <ele>1635.4000244141</ele>
        <time>2021-03-21T08:45:22.000Z</time>
      </trkpt>
      <trkpt lat="45.00564" lon="6.03846">
        <ele>1635.8000488281</ele>
        <time>2021-03-21T08:45:23.000Z</time>
      </trkpt>
      <trkpt lat="45.00563" lon="6.03846">
        <ele>1636</ele>
        <time>2021-03-21T08:45:24.000Z</time>
      </trkpt>
      <trkpt lat="45.00563" lon="6.03846">
        <ele>1636.4000244141</ele>
        <time>2021-03-21T08:45:25.000Z</time>
      </trkpt>
      <trkpt lat="45.00562" lon="6.03845">
        <ele>1636.8000488281</ele>
        <time>2021-03-21T08:45:26.000Z</time>
      </trkpt>
      <trkpt lat="45.00561" lon="6.03845">
        <ele>1637.4000244141</ele>
        <time>2021-03-21T08:45:27.000Z</time>
      </trkpt>
      <trkpt lat="45.0056" lon="6.03845">
        <ele>1637.8000488281</ele>
        <time>2021-03-21T08:45:28.000Z</time>
      </trkpt>
      <trkpt lat="45.00559" lon="6.03844">
        <ele>1638.1999511719</ele>
        <time>2021-03-21T08:45:29.000Z</time>
      </trkpt>
      <trkpt lat="45.00558" lon="6.03843">
        <ele>1638.8000488281</ele>
        <time>2021-03-21T08:45:30.000Z</time>
      </trkpt>
      <trkpt lat="45.00557" lon="6.03843">
        <ele>1639</ele>
        <time>2021-03-21T08:45:31.000Z</time>
      </trkpt>
      <trkpt lat="45.00557" lon="6.03843">
        <ele>1639.4000244141</ele>
        <time>2021-03-21T08:45:32.000Z</time>
      </trkpt>
      <trkpt lat="45.00556" lon="6.03843">
        <ele>1639.8000488281</ele>
        <time>2021-03-21T08:45:33.000Z</time>
      </trkpt>
      <trkpt lat="45.00555" lon="6.03842">
        <ele>1640</ele>
        <time>2021-03-21T08:45:34.000Z</time>
      </trkpt>
      <trkpt lat="45.00555" lon="6.03842">
        <ele>1640.4000244141</ele>
        <time>2021-03-21T08:45:35.000Z</time>
      </trkpt>
      <trkpt lat="45.00554" lon="6.03842">
        <ele>1640.8000488281</ele>
        <time>2021-03-21T08:45:36.000Z</time>
      </trkpt>
      <trkpt lat="45.00553" lon="6.03841">
        <ele>1641.1999511719</ele>
        <time>2021-03-21T08:45:37.000Z</time>
      </trkpt>
      <trkpt lat="45.00552" lon="6.03841">
        <ele>1641.5999755859</ele>
        <time>2021-03-21T08:45:38.000Z</time>
      </trkpt>
      <trkpt lat="45.00552" lon="6.0384">
        <ele>1642.1999511719</ele>
        <time>2021-03-21T08:45:39.000Z</time>
      </trkpt>
      <trkpt lat="45.00551" lon="6.0384">
        <ele>1642.5999755859</ele>
        <time>2021-03-21T08:45:40.000Z</time>
      </trkpt>
      <trkpt lat="45.0055" lon="6.03839">
        <ele>1643</ele>
        <time>2021-03-21T08:45:41.000Z</time>
      </trkpt>
      <trkpt lat="45.00549" lon="6.03839">
        <ele>1643.4000244141</ele>
        <time>2021-03-21T08:45:42.000Z</time>
      </trkpt>
      <trkpt lat="45.00548" lon="6.03839">
        <ele>1643.8000488281</ele>
        <time>2021-03-21T08:45:43.000Z</time>
      </trkpt>
      <trkpt lat="45.00547" lon="6.03839">
        <ele>1644.1999511719</ele>
        <time>2021-03-21T08:45:44.000Z</time>
      </trkpt>
      <trkpt lat="45.00546" lon="6.03838">
        <ele>1644.5999755859</ele>
        <time>2021-03-21T08:45:45.000Z</time>
      </trkpt>
      <trkpt lat="45.00546" lon="6.03838">
        <ele>1645</ele>
        <time>2021-03-21T08:45:46.000Z</time>
      </trkpt>
      <trkpt lat="45.00545" lon="6.03837">
        <ele>1645.4000244141</ele>
        <time>2021-03-21T08:45:47.000Z</time>
      </trkpt>
      <trkpt lat="45.00544" lon="6.03837">
        <ele>1645.8000488281</ele>
        <time>2021-03-21T08:45:48.000Z</time>
      </trkpt>
      <trkpt lat="45.00544" lon="6.03836">
        <ele>1646.1999511719</ele>
        <time>2021-03-21T08:45:49.000Z</time>
      </trkpt>
      <trkpt lat="45.00543" lon="6.03835">
        <ele>1646.5999755859</ele>
        <time>2021-03-21T08:45:50.000Z</time>
      </trkpt>
      <trkpt lat="45.00543" lon="6.03835">
        <ele>1647</ele>
        <time>2021-03-21T08:45:51.000Z</time>
      </trkpt>
      <trkpt lat="45.00542" lon="6.03834">
        <ele>1647.5999755859</ele>
        <time>2021-03-21T08:45:52.000Z</time>
      </trkpt>
      <trkpt lat="45.00541" lon="6.03833">
        <ele>1647.8000488281</ele>
        <time>2021-03-21T08:45:53.000Z</time>
      </trkpt>
      <trkpt lat="45.00541" lon="6.03833">
        <ele>1648</ele>
        <time>2021-03-21T08:45:54.000Z</time>
      </trkpt>
      <trkpt lat="45.0054" lon="6.03832">
        <ele>1648.1999511719</ele>
        <time>2021-03-21T08:45:55.000Z</time>
      </trkpt>
      <trkpt lat="45.00539" lon="6.03832">
        <ele>1648.4000244141</ele>
        <time>2021-03-21T08:45:56.000Z</time>
      </trkpt>
      <trkpt lat="45.00539" lon="6.03831">
        <ele>1648.5999755859</ele>
        <time>2021-03-21T08:45:57.000Z</time>
      </trkpt>
      <trkpt lat="45.00538" lon="6.03831">
        <ele>1648.8000488281</ele>
        <time>2021-03-21T08:45:58.000Z</time>
      </trkpt>
      <trkpt lat="45.00537" lon="6.0383">
        <ele>1649</ele>
        <time>2021-03-21T08:45:59.000Z</time>
      </trkpt>
      <trkpt lat="45.00537" lon="6.03829">
        <ele>1649.1999511719</ele>
        <time>2021-03-21T08:46:00.000Z</time>
      </trkpt>
      <trkpt lat="45.00536" lon="6.03829">
        <ele>1649.4000244141</ele>
        <time>2021-03-21T08:46:01.000Z</time>
      </trkpt>
      <trkpt lat="45.00535" lon="6.03828">
        <ele>1649.5999755859</ele>
        <time>2021-03-21T08:46:02.000Z</time>
      </trkpt>
      <trkpt lat="45.00534" lon="6.03828">
        <ele>1649.5999755859</ele>
        <time>2021-03-21T08:46:03.000Z</time>
      </trkpt>
      <trkpt lat="45.00534" lon="6.03827">
        <ele>1650</ele>
        <time>2021-03-21T08:46:04.000Z</time>
      </trkpt>
      <trkpt lat="45.00533" lon="6.03827">
        <ele>1650</ele>
        <time>2021-03-21T08:46:05.000Z</time>
      </trkpt>
      <trkpt lat="45.00533" lon="6.03826">
        <ele>1650.1999511719</ele>
        <time>2021-03-21T08:46:06.000Z</time>
      </trkpt>
      <trkpt lat="45.00532" lon="6.03826">
        <ele>1650.4000244141</ele>
        <time>2021-03-21T08:46:07.000Z</time>
      </trkpt>
      <trkpt lat="45.00531" lon="6.03825">
        <ele>1650.5999755859</ele>
        <time>2021-03-21T08:46:08.000Z</time>
      </trkpt>
      <trkpt lat="45.0053" lon="6.03824">
        <ele>1650.8000488281</ele>
        <time>2021-03-21T08:46:09.000Z</time>
      </trkpt>
      <trkpt lat="45.00529" lon="6.03824">
        <ele>1650.8000488281</ele>
        <time>2021-03-21T08:46:10.000Z</time>
      </trkpt>
      <trkpt lat="45.00529" lon="6.03823">
        <ele>1651</ele>
        <time>2021-03-21T08:46:11.000Z</time>
      </trkpt>
      <trkpt lat="45.00528" lon="6.03823">
        <ele>1651.1999511719</ele>
        <time>2021-03-21T08:46:12.000Z</time>
      </trkpt>
      <trkpt lat="45.00527" lon="6.03822">
        <ele>1651.4000244141</ele>
        <time>2021-03-21T08:46:13.000Z</time>
      </trkpt>
      <trkpt lat="45.00527" lon="6.03821">
        <ele>1651.8000488281</ele>
        <time>2021-03-21T08:46:14.000Z</time>
      </trkpt>
      <trkpt lat="45.00526" lon="6.03821">
        <ele>1651.8000488281</ele>
        <time>2021-03-21T08:46:15.000Z</time>
      </trkpt>
      <trkpt lat="45.00526" lon="6.03821">
        <ele>1651.8000488281</ele>
        <time>2021-03-21T08:46:16.000Z</time>
      </trkpt>
      <trkpt lat="45.00526" lon="6.03821">
        <ele>1651.8000488281</ele>
        <time>2021-03-21T08:46:17.000Z</time>
      </trkpt>
      <trkpt lat="45.00526" lon="6.03821">
        <ele>1651.8000488281</ele>
        <time>2021-03-21T08:46:18.000Z</time>
      </trkpt>
      <trkpt lat="45.00526" lon="6.03821">
        <ele>1651.8000488281</ele>
        <time>2021-03-21T08:46:19.000Z</time>
      </trkpt>
      <trkpt lat="45.00525" lon="6.0382">
        <ele>1652</ele>
        <time>2021-03-21T08:46:20.000Z</time>
      </trkpt>
      <trkpt lat="45.00525" lon="6.03819">
        <ele>1652.1999511719</ele>
        <time>2021-03-21T08:46:21.000Z</time>
      </trkpt>
      <trkpt lat="45.00524" lon="6.03819">
        <ele>1652.1999511719</ele>
        <time>2021-03-21T08:46:22.000Z</time>
      </trkpt>
      <trkpt lat="45.00524" lon="6.03818">
        <ele>1652.4000244141</ele>
        <time>2021-03-21T08:46:23.000Z</time>
      </trkpt>
      <trkpt lat="45.00523" lon="6.03817">
        <ele>1652.4000244141</ele>
        <time>2021-03-21T08:46:24.000Z</time>
      </trkpt>
      <trkpt lat="45.00522" lon="6.03817">
        <ele>1652.5999755859</ele>
        <time>2021-03-21T08:46:25.000Z</time>
      </trkpt>
      <trkpt lat="45.00522" lon="6.03816">
        <ele>1652.5999755859</ele>
        <time>2021-03-21T08:46:26.000Z</time>
      </trkpt>
      <trkpt lat="45.00521" lon="6.03815">
        <ele>1652.8000488281</ele>
        <time>2021-03-21T08:46:27.000Z</time>
      </trkpt>
      <trkpt lat="45.0052" lon="6.03815">
        <ele>1652.8000488281</ele>
        <time>2021-03-21T08:46:28.000Z</time>
      </trkpt>
      <trkpt lat="45.00519" lon="6.03814">
        <ele>1653</ele>
        <time>2021-03-21T08:46:29.000Z</time>
      </trkpt>
      <trkpt lat="45.00518" lon="6.03814">
        <ele>1653</ele>
        <time>2021-03-21T08:46:30.000Z</time>
      </trkpt>
      <trkpt lat="45.00518" lon="6.03813">
        <ele>1653</ele>
        <time>2021-03-21T08:46:31.000Z</time>
      </trkpt>
      <trkpt lat="45.00517" lon="6.03813">
        <ele>1653.1999511719</ele>
        <time>2021-03-21T08:46:32.000Z</time>
      </trkpt>
      <trkpt lat="45.00516" lon="6.03812">
        <ele>1653.1999511719</ele>
        <time>2021-03-21T08:46:33.000Z</time>
      </trkpt>
      <trkpt lat="45.00515" lon="6.03812">
        <ele>1653.1999511719</ele>
        <time>2021-03-21T08:46:34.000Z</time>
      </trkpt>
      <trkpt lat="45.00514" lon="6.03812">
        <ele>1653.1999511719</ele>
        <time>2021-03-21T08:46:35.000Z</time>
      </trkpt>
      <trkpt lat="45.00513" lon="6.03811">
        <ele>1653.4000244141</ele>
        <time>2021-03-21T08:46:36.000Z</time>
      </trkpt>
      <trkpt lat="45.00513" lon="6.03811">
        <ele>1653.4000244141</ele>
        <time>2021-03-21T08:46:37.000Z</time>
      </trkpt>
      <trkpt lat="45.00512" lon="6.0381">
        <ele>1653.5999755859</ele>
        <time>2021-03-21T08:46:38.000Z</time>
      </trkpt>
      <trkpt lat="45.00511" lon="6.0381">
        <ele>1653.5999755859</ele>
        <time>2021-03-21T08:46:39.000Z</time>
      </trkpt>
      <trkpt lat="45.00511" lon="6.03809">
        <ele>1653.5999755859</ele>
        <time>2021-03-21T08:46:40.000Z</time>
      </trkpt>
      <trkpt lat="45.0051" lon="6.03809">
        <ele>1653.8000488281</ele>
        <time>2021-03-21T08:46:41.000Z</time>
      </trkpt>
      <trkpt lat="45.0051" lon="6.03808">
        <ele>1653.8000488281</ele>
        <time>2021-03-21T08:46:42.000Z</time>
      </trkpt>
      <trkpt lat="45.00509" lon="6.03807">
        <ele>1653.8000488281</ele>
        <time>2021-03-21T08:46:43.000Z</time>
      </trkpt>
      <trkpt lat="45.00509" lon="6.03807">
        <ele>1654</ele>
        <time>2021-03-21T08:46:44.000Z</time>
      </trkpt>
      <trkpt lat="45.00508" lon="6.03806">
        <ele>1654</ele>
        <time>2021-03-21T08:46:45.000Z</time>
      </trkpt>
      <trkpt lat="45.00508" lon="6.03806">
        <ele>1654.1999511719</ele>
        <time>2021-03-21T08:46:46.000Z</time>
      </trkpt>
      <trkpt lat="45.00507" lon="6.03805">
        <ele>1654.1999511719</ele>
        <time>2021-03-21T08:46:47.000Z</time>
      </trkpt>
      <trkpt lat="45.00506" lon="6.03804">
        <ele>1654.4000244141</ele>
        <time>2021-03-21T08:46:48.000Z</time>
      </trkpt>
      <trkpt lat="45.00506" lon="6.03803">
        <ele>1654.4000244141</ele>
        <time>2021-03-21T08:46:49.000Z</time>
      </trkpt>
      <trkpt lat="45.00505" lon="6.03802">
        <ele>1654.5999755859</ele>
        <time>2021-03-21T08:46:50.000Z</time>
      </trkpt>
      <trkpt lat="45.00504" lon="6.03802">
        <ele>1654.8000488281</ele>
        <time>2021-03-21T08:46:51.000Z</time>
      </trkpt>
      <trkpt lat="45.00504" lon="6.03801">
        <ele>1654.8000488281</ele>
        <time>2021-03-21T08:46:52.000Z</time>
      </trkpt>
      <trkpt lat="45.00503" lon="6.038">
        <ele>1655</ele>
        <time>2021-03-21T08:46:53.000Z</time>
      </trkpt>
      <trkpt lat="45.00503" lon="6.038">
        <ele>1655</ele>
        <time>2021-03-21T08:46:54.000Z</time>
      </trkpt>
      <trkpt lat="45.00502" lon="6.03799">
        <ele>1655</ele>
        <time>2021-03-21T08:46:55.000Z</time>
      </trkpt>
      <trkpt lat="45.00502" lon="6.03799">
        <ele>1655.1999511719</ele>
        <time>2021-03-21T08:46:56.000Z</time>
      </trkpt>
      <trkpt lat="45.00502" lon="6.03798">
        <ele>1655.1999511719</ele>
        <time>2021-03-21T08:46:57.000Z</time>
      </trkpt>
      <trkpt lat="45.00501" lon="6.03798">
        <ele>1655.1999511719</ele>
        <time>2021-03-21T08:46:58.000Z</time>
      </trkpt>
      <trkpt lat="45.00501" lon="6.03798">
        <ele>1655.4000244141</ele>
        <time>2021-03-21T08:46:59.000Z</time>
      </trkpt>
      <trkpt lat="45.005" lon="6.03797">
        <ele>1655.4000244141</ele>
        <time>2021-03-21T08:47:00.000Z</time>
      </trkpt>
      <trkpt lat="45.005" lon="6.03797">
        <ele>1655.4000244141</ele>
        <time>2021-03-21T08:47:01.000Z</time>
      </trkpt>
      <trkpt lat="45.005" lon="6.03796">
        <ele>1655.5999755859</ele>
        <time>2021-03-21T08:47:02.000Z</time>
      </trkpt>
      <trkpt lat="45.00499" lon="6.03796">
        <ele>1655.5999755859</ele>
        <time>2021-03-21T08:47:03.000Z</time>
      </trkpt>
      <trkpt lat="45.00499" lon="6.03795">
        <ele>1655.5999755859</ele>
        <time>2021-03-21T08:47:04.000Z</time>
      </trkpt>
      <trkpt lat="45.00498" lon="6.03795">
        <ele>1655.8000488281</ele>
        <time>2021-03-21T08:47:05.000Z</time>
      </trkpt>
      <trkpt lat="45.00498" lon="6.03794">
        <ele>1655.8000488281</ele>
        <time>2021-03-21T08:47:06.000Z</time>
      </trkpt>
      <trkpt lat="45.00497" lon="6.03794">
        <ele>1655.8000488281</ele>
        <time>2021-03-21T08:47:07.000Z</time>
      </trkpt>
      <trkpt lat="45.00496" lon="6.03793">
        <ele>1656</ele>
        <time>2021-03-21T08:47:08.000Z</time>
      </trkpt>
      <trkpt lat="45.00496" lon="6.03793">
        <ele>1656</ele>
        <time>2021-03-21T08:47:09.000Z</time>
      </trkpt>
      <trkpt lat="45.00495" lon="6.03792">
        <ele>1656.1999511719</ele>
        <time>2021-03-21T08:47:10.000Z</time>
      </trkpt>
      <trkpt lat="45.00494" lon="6.03792">
        <ele>1656.1999511719</ele>
        <time>2021-03-21T08:47:11.000Z</time>
      </trkpt>
      <trkpt lat="45.00494" lon="6.03791">
        <ele>1656.4000244141</ele>
        <time>2021-03-21T08:47:12.000Z</time>
      </trkpt>
      <trkpt lat="45.00493" lon="6.03791">
        <ele>1656.4000244141</ele>
        <time>2021-03-21T08:47:13.000Z</time>
      </trkpt>
      <trkpt lat="45.00492" lon="6.03791">
        <ele>1656.4000244141</ele>
        <time>2021-03-21T08:47:14.000Z</time>
      </trkpt>
      <trkpt lat="45.00492" lon="6.03791">
        <ele>1656.4000244141</ele>
        <time>2021-03-21T08:47:15.000Z</time>
      </trkpt>
      <trkpt lat="45.00491" lon="6.03791">
        <ele>1656.4000244141</ele>
        <time>2021-03-21T08:47:16.000Z</time>
      </trkpt>
      <trkpt lat="45.00491" lon="6.0379">
        <ele>1656.5999755859</ele>
        <time>2021-03-21T08:47:17.000Z</time>
      </trkpt>
      <trkpt lat="45.0049" lon="6.0379">
        <ele>1656.8000488281</ele>
        <time>2021-03-21T08:47:18.000Z</time>
      </trkpt>
      <trkpt lat="45.00489" lon="6.03789">
        <ele>1656.8000488281</ele>
        <time>2021-03-21T08:47:19.000Z</time>
      </trkpt>
      <trkpt lat="45.00489" lon="6.03789">
        <ele>1657</ele>
        <time>2021-03-21T08:47:20.000Z</time>
      </trkpt>
      <trkpt lat="45.00488" lon="6.03789">
        <ele>1657</ele>
        <time>2021-03-21T08:47:21.000Z</time>
      </trkpt>
      <trkpt lat="45.00488" lon="6.03788">
        <ele>1657.1999511719</ele>
        <time>2021-03-21T08:47:22.000Z</time>
      </trkpt>
      <trkpt lat="45.00488" lon="6.03788">
        <ele>1657.1999511719</ele>
        <time>2021-03-21T08:47:23.000Z</time>
      </trkpt>
      <trkpt lat="45.00487" lon="6.03787">
        <ele>1657.4000244141</ele>
        <time>2021-03-21T08:47:24.000Z</time>
      </trkpt>
      <trkpt lat="45.00486" lon="6.03786">
        <ele>1657.5999755859</ele>
        <time>2021-03-21T08:47:25.000Z</time>
      </trkpt>
      <trkpt lat="45.00486" lon="6.03786">
        <ele>1657.8000488281</ele>
        <time>2021-03-21T08:47:26.000Z</time>
      </trkpt>
      <trkpt lat="45.00485" lon="6.03785">
        <ele>1658</ele>
        <time>2021-03-21T08:47:27.000Z</time>
      </trkpt>
      <trkpt lat="45.00485" lon="6.03784">
        <ele>1658</ele>
        <time>2021-03-21T08:47:28.000Z</time>
      </trkpt>
      <trkpt lat="45.00484" lon="6.03784">
        <ele>1658.1999511719</ele>
        <time>2021-03-21T08:47:29.000Z</time>
      </trkpt>
      <trkpt lat="45.00483" lon="6.03783">
        <ele>1658.1999511719</ele>
        <time>2021-03-21T08:47:30.000Z</time>
      </trkpt>
      <trkpt lat="45.00482" lon="6.03783">
        <ele>1658.4000244141</ele>
        <time>2021-03-21T08:47:31.000Z</time>
      </trkpt>
      <trkpt lat="45.00481" lon="6.03782">
        <ele>1658.5999755859</ele>
        <time>2021-03-21T08:47:32.000Z</time>
      </trkpt>
      <trkpt lat="45.00481" lon="6.03781">
        <ele>1658.8000488281</ele>
        <time>2021-03-21T08:47:33.000Z</time>
      </trkpt>
      <trkpt lat="45.0048" lon="6.03781">
        <ele>1658.8000488281</ele>
        <time>2021-03-21T08:47:34.000Z</time>
      </trkpt>
      <trkpt lat="45.00479" lon="6.0378">
        <ele>1659</ele>
        <time>2021-03-21T08:47:35.000Z</time>
      </trkpt>
      <trkpt lat="45.00478" lon="6.03779">
        <ele>1659.1999511719</ele>
        <time>2021-03-21T08:47:36.000Z</time>
      </trkpt>
      <trkpt lat="45.00478" lon="6.03778">
        <ele>1659.4000244141</ele>
        <time>2021-03-21T08:47:37.000Z</time>
      </trkpt>
      <trkpt lat="45.00477" lon="6.03778">
        <ele>1659.4000244141</ele>
        <time>2021-03-21T08:47:38.000Z</time>
      </trkpt>
      <trkpt lat="45.00477" lon="6.03777">
        <ele>1659.5999755859</ele>
        <time>2021-03-21T08:47:39.000Z</time>
      </trkpt>
      <trkpt lat="45.00476" lon="6.03776">
        <ele>1659.8000488281</ele>
        <time>2021-03-21T08:47:40.000Z</time>
      </trkpt>
      <trkpt lat="45.00475" lon="6.03775">
        <ele>1660</ele>
        <time>2021-03-21T08:47:41.000Z</time>
      </trkpt>
      <trkpt lat="45.00474" lon="6.03775">
        <ele>1660.1999511719</ele>
        <time>2021-03-21T08:47:42.000Z</time>
      </trkpt>
      <trkpt lat="45.00473" lon="6.03774">
        <ele>1660.4000244141</ele>
        <time>2021-03-21T08:47:43.000Z</time>
      </trkpt>
      <trkpt lat="45.00473" lon="6.03773">
        <ele>1660.5999755859</ele>
        <time>2021-03-21T08:47:44.000Z</time>
      </trkpt>
      <trkpt lat="45.00472" lon="6.03772">
        <ele>1660.8000488281</ele>
        <time>2021-03-21T08:47:45.000Z</time>
      </trkpt>
      <trkpt lat="45.00472" lon="6.03771">
        <ele>1661</ele>
        <time>2021-03-21T08:47:46.000Z</time>
      </trkpt>
      <trkpt lat="45.00471" lon="6.0377">
        <ele>1661.1999511719</ele>
        <time>2021-03-21T08:47:47.000Z</time>
      </trkpt>
      <trkpt lat="45.0047" lon="6.03769">
        <ele>1661.4000244141</ele>
        <time>2021-03-21T08:47:48.000Z</time>
      </trkpt>
      <trkpt lat="45.0047" lon="6.03768">
        <ele>1661.5999755859</ele>
        <time>2021-03-21T08:47:49.000Z</time>
      </trkpt>
      <trkpt lat="45.00469" lon="6.03768">
        <ele>1661.5999755859</ele>
        <time>2021-03-21T08:47:50.000Z</time>
      </trkpt>
      <trkpt lat="45.00469" lon="6.03767">
        <ele>1661.8000488281</ele>
        <time>2021-03-21T08:47:51.000Z</time>
      </trkpt>
      <trkpt lat="45.00468" lon="6.03766">
        <ele>1662</ele>
        <time>2021-03-21T08:47:52.000Z</time>
      </trkpt>
      <trkpt lat="45.00467" lon="6.03765">
        <ele>1662.1999511719</ele>
        <time>2021-03-21T08:47:53.000Z</time>
      </trkpt>
      <trkpt lat="45.00467" lon="6.03765">
        <ele>1662.1999511719</ele>
        <time>2021-03-21T08:47:54.000Z</time>
      </trkpt>
      <trkpt lat="45.00466" lon="6.03764">
        <ele>1662.1999511719</ele>
        <time>2021-03-21T08:47:55.000Z</time>
      </trkpt>
      <trkpt lat="45.00465" lon="6.03763">
        <ele>1662.1999511719</ele>
        <time>2021-03-21T08:47:56.000Z</time>
      </trkpt>
      <trkpt lat="45.00465" lon="6.03763">
        <ele>1662</ele>
        <time>2021-03-21T08:47:57.000Z</time>
      </trkpt>
      <trkpt lat="45.00464" lon="6.03763">
        <ele>1662</ele>
        <time>2021-03-21T08:47:58.000Z</time>
      </trkpt>
      <trkpt lat="45.00463" lon="6.03762">
        <ele>1662</ele>
        <time>2021-03-21T08:47:59.000Z</time>
      </trkpt>
      <trkpt lat="45.00463" lon="6.03761">
        <ele>1661.8000488281</ele>
        <time>2021-03-21T08:48:00.000Z</time>
      </trkpt>
      <trkpt lat="45.00462" lon="6.0376">
        <ele>1661.8000488281</ele>
        <time>2021-03-21T08:48:01.000Z</time>
      </trkpt>
      <trkpt lat="45.00461" lon="6.0376">
        <ele>1661.8000488281</ele>
        <time>2021-03-21T08:48:02.000Z</time>
      </trkpt>
      <trkpt lat="45.0046" lon="6.03759">
        <ele>1661.5999755859</ele>
        <time>2021-03-21T08:48:03.000Z</time>
      </trkpt>
      <trkpt lat="45.0046" lon="6.03758">
        <ele>1661.5999755859</ele>
        <time>2021-03-21T08:48:04.000Z</time>
      </trkpt>
      <trkpt lat="45.00459" lon="6.03758">
        <ele>1661.4000244141</ele>
        <time>2021-03-21T08:48:05.000Z</time>
      </trkpt>
      <trkpt lat="45.00459" lon="6.03757">
        <ele>1661.4000244141</ele>
        <time>2021-03-21T08:48:06.000Z</time>
      </trkpt>
      <trkpt lat="45.00458" lon="6.03756">
        <ele>1661.4000244141</ele>
        <time>2021-03-21T08:48:07.000Z</time>
      </trkpt>
      <trkpt lat="45.00458" lon="6.03756">
        <ele>1661.4000244141</ele>
        <time>2021-03-21T08:48:08.000Z</time>
      </trkpt>
      <trkpt lat="45.00457" lon="6.03755">
        <ele>1661.4000244141</ele>
        <time>2021-03-21T08:48:09.000Z</time>
      </trkpt>
      <trkpt lat="45.00457" lon="6.03754">
        <ele>1661.1999511719</ele>
        <time>2021-03-21T08:48:10.000Z</time>
      </trkpt>
      <trkpt lat="45.00456" lon="6.03754">
        <ele>1661.1999511719</ele>
        <time>2021-03-21T08:48:11.000Z</time>
      </trkpt>
      <trkpt lat="45.00456" lon="6.03753">
        <ele>1661.1999511719</ele>
        <time>2021-03-21T08:48:12.000Z</time>
      </trkpt>
      <trkpt lat="45.00455" lon="6.03753">
        <ele>1661.1999511719</ele>
        <time>2021-03-21T08:48:13.000Z</time>
      </trkpt>
      <trkpt lat="45.00454" lon="6.03752">
        <ele>1661.1999511719</ele>
        <time>2021-03-21T08:48:14.000Z</time>
      </trkpt>
      <trkpt lat="45.00454" lon="6.03752">
        <ele>1661.1999511719</ele>
        <time>2021-03-21T08:48:15.000Z</time>
      </trkpt>
      <trkpt lat="45.00453" lon="6.03751">
        <ele>1661.1999511719</ele>
        <time>2021-03-21T08:48:16.000Z</time>
      </trkpt>
      <trkpt lat="45.00452" lon="6.0375">
        <ele>1661.1999511719</ele>
        <time>2021-03-21T08:48:17.000Z</time>
      </trkpt>
      <trkpt lat="45.00452" lon="6.03749">
        <ele>1661.1999511719</ele>
        <time>2021-03-21T08:48:18.000Z</time>
      </trkpt>
      <trkpt lat="45.00451" lon="6.03748">
        <ele>1661</ele>
        <time>2021-03-21T08:48:19.000Z</time>
      </trkpt>
      <trkpt lat="45.0045" lon="6.03747">
        <ele>1661</ele>
        <time>2021-03-21T08:48:20.000Z</time>
      </trkpt>
      <trkpt lat="45.00449" lon="6.03747">
        <ele>1661</ele>
        <time>2021-03-21T08:48:21.000Z</time>
      </trkpt>
      <trkpt lat="45.00448" lon="6.03746">
        <ele>1661</ele>
        <time>2021-03-21T08:48:22.000Z</time>
      </trkpt>
      <trkpt lat="45.00448" lon="6.03745">
        <ele>1661</ele>
        <time>2021-03-21T08:48:23.000Z</time>
      </trkpt>
      <trkpt lat="45.00447" lon="6.03744">
        <ele>1660.8000488281</ele>
        <time>2021-03-21T08:48:24.000Z</time>
      </trkpt>
      <trkpt lat="45.00447" lon="6.03743">
        <ele>1660.8000488281</ele>
        <time>2021-03-21T08:48:25.000Z</time>
      </trkpt>
      <trkpt lat="45.00446" lon="6.03742">
        <ele>1660.8000488281</ele>
        <time>2021-03-21T08:48:26.000Z</time>
      </trkpt>
      <trkpt lat="45.00445" lon="6.03741">
        <ele>1660.8000488281</ele>
        <time>2021-03-21T08:48:27.000Z</time>
      </trkpt>
      <trkpt lat="45.00444" lon="6.03741">
        <ele>1660.8000488281</ele>
        <time>2021-03-21T08:48:28.000Z</time>
      </trkpt>
      <trkpt lat="45.00444" lon="6.0374">
        <ele>1660.8000488281</ele>
        <time>2021-03-21T08:48:29.000Z</time>
      </trkpt>
      <trkpt lat="45.00443" lon="6.0374">
        <ele>1660.8000488281</ele>
        <time>2021-03-21T08:48:30.000Z</time>
      </trkpt>
      <trkpt lat="45.00442" lon="6.03739">
        <ele>1660.8000488281</ele>
        <time>2021-03-21T08:48:31.000Z</time>
      </trkpt>
      <trkpt lat="45.00441" lon="6.03739">
        <ele>1660.8000488281</ele>
        <time>2021-03-21T08:48:32.000Z</time>
      </trkpt>
      <trkpt lat="45.0044" lon="6.03739">
        <ele>1660.8000488281</ele>
        <time>2021-03-21T08:48:33.000Z</time>
      </trkpt>
      <trkpt lat="45.0044" lon="6.03738">
        <ele>1660.8000488281</ele>
        <time>2021-03-21T08:48:34.000Z</time>
      </trkpt>
      <trkpt lat="45.00439" lon="6.03737">
        <ele>1660.5999755859</ele>
        <time>2021-03-21T08:48:35.000Z</time>
      </trkpt>
      <trkpt lat="45.00438" lon="6.03737">
        <ele>1660.8000488281</ele>
        <time>2021-03-21T08:48:36.000Z</time>
      </trkpt>
      <trkpt lat="45.00437" lon="6.03737">
        <ele>1661</ele>
        <time>2021-03-21T08:48:37.000Z</time>
      </trkpt>
      <trkpt lat="45.00436" lon="6.03736">
        <ele>1661</ele>
        <time>2021-03-21T08:48:38.000Z</time>
      </trkpt>
      <trkpt lat="45.00436" lon="6.03736">
        <ele>1661.4000244141</ele>
        <time>2021-03-21T08:48:39.000Z</time>
      </trkpt>
      <trkpt lat="45.00435" lon="6.03735">
        <ele>1661.5999755859</ele>
        <time>2021-03-21T08:48:40.000Z</time>
      </trkpt>
      <trkpt lat="45.00434" lon="6.03735">
        <ele>1661.8000488281</ele>
        <time>2021-03-21T08:48:41.000Z</time>
      </trkpt>
      <trkpt lat="45.00434" lon="6.03734">
        <ele>1661.8000488281</ele>
        <time>2021-03-21T08:48:42.000Z</time>
      </trkpt>
      <trkpt lat="45.00433" lon="6.03734">
        <ele>1662</ele>
        <time>2021-03-21T08:48:43.000Z</time>
      </trkpt>
      <trkpt lat="45.00432" lon="6.03734">
        <ele>1662</ele>
        <time>2021-03-21T08:48:44.000Z</time>
      </trkpt>
      <trkpt lat="45.00431" lon="6.03734">
        <ele>1662</ele>
        <time>2021-03-21T08:48:45.000Z</time>
      </trkpt>
      <trkpt lat="45.00431" lon="6.03733">
        <ele>1662.1999511719</ele>
        <time>2021-03-21T08:48:46.000Z</time>
      </trkpt>
      <trkpt lat="45.0043" lon="6.03733">
        <ele>1662.4000244141</ele>
        <time>2021-03-21T08:48:47.000Z</time>
      </trkpt>
      <trkpt lat="45.00429" lon="6.03733">
        <ele>1662.4000244141</ele>
        <time>2021-03-21T08:48:48.000Z</time>
      </trkpt>
      <trkpt lat="45.00428" lon="6.03733">
        <ele>1662.4000244141</ele>
        <time>2021-03-21T08:48:49.000Z</time>
      </trkpt>
      <trkpt lat="45.00427" lon="6.03732">
        <ele>1662.5999755859</ele>
        <time>2021-03-21T08:48:50.000Z</time>
      </trkpt>
      <trkpt lat="45.00427" lon="6.03732">
        <ele>1662.5999755859</ele>
        <time>2021-03-21T08:48:51.000Z</time>
      </trkpt>
      <trkpt lat="45.00426" lon="6.03732">
        <ele>1662.5999755859</ele>
        <time>2021-03-21T08:48:52.000Z</time>
      </trkpt>
      <trkpt lat="45.00425" lon="6.03732">
        <ele>1662.8000488281</ele>
        <time>2021-03-21T08:48:53.000Z</time>
      </trkpt>
      <trkpt lat="45.00424" lon="6.03732">
        <ele>1662.8000488281</ele>
        <time>2021-03-21T08:48:54.000Z</time>
      </trkpt>
      <trkpt lat="45.00423" lon="6.03732">
        <ele>1663</ele>
        <time>2021-03-21T08:48:55.000Z</time>
      </trkpt>
      <trkpt lat="45.00422" lon="6.03731">
        <ele>1663</ele>
        <time>2021-03-21T08:48:56.000Z</time>
      </trkpt>
      <trkpt lat="45.00422" lon="6.03731">
        <ele>1663.1999511719</ele>
        <time>2021-03-21T08:48:57.000Z</time>
      </trkpt>
      <trkpt lat="45.00421" lon="6.03731">
        <ele>1663.4000244141</ele>
        <time>2021-03-21T08:48:58.000Z</time>
      </trkpt>
      <trkpt lat="45.0042" lon="6.0373">
        <ele>1663.4000244141</ele>
        <time>2021-03-21T08:48:59.000Z</time>
      </trkpt>
      <trkpt lat="45.00419" lon="6.0373">
        <ele>1663.5999755859</ele>
        <time>2021-03-21T08:49:00.000Z</time>
      </trkpt>
      <trkpt lat="45.00419" lon="6.0373">
        <ele>1663.8000488281</ele>
        <time>2021-03-21T08:49:01.000Z</time>
      </trkpt>
      <trkpt lat="45.00418" lon="6.0373">
        <ele>1663.8000488281</ele>
        <time>2021-03-21T08:49:02.000Z</time>
      </trkpt>
      <trkpt lat="45.00417" lon="6.03729">
        <ele>1664</ele>
        <time>2021-03-21T08:49:03.000Z</time>
      </trkpt>
      <trkpt lat="45.00417" lon="6.03729">
        <ele>1664</ele>
        <time>2021-03-21T08:49:04.000Z</time>
      </trkpt>
      <trkpt lat="45.00416" lon="6.03729">
        <ele>1664.1999511719</ele>
        <time>2021-03-21T08:49:05.000Z</time>
      </trkpt>
      <trkpt lat="45.00415" lon="6.03728">
        <ele>1664.4000244141</ele>
        <time>2021-03-21T08:49:06.000Z</time>
      </trkpt>
      <trkpt lat="45.00415" lon="6.03727">
        <ele>1664.5999755859</ele>
        <time>2021-03-21T08:49:07.000Z</time>
      </trkpt>
      <trkpt lat="45.00414" lon="6.03727">
        <ele>1664.8000488281</ele>
        <time>2021-03-21T08:49:08.000Z</time>
      </trkpt>
      <trkpt lat="45.00414" lon="6.03726">
        <ele>1665</ele>
        <time>2021-03-21T08:49:09.000Z</time>
      </trkpt>
      <trkpt lat="45.00413" lon="6.03726">
        <ele>1665.1999511719</ele>
        <time>2021-03-21T08:49:10.000Z</time>
      </trkpt>
      <trkpt lat="45.00413" lon="6.03725">
        <ele>1665.1999511719</ele>
        <time>2021-03-21T08:49:11.000Z</time>
      </trkpt>
      <trkpt lat="45.00412" lon="6.03725">
        <ele>1665.4000244141</ele>
        <time>2021-03-21T08:49:12.000Z</time>
      </trkpt>
      <trkpt lat="45.00411" lon="6.03724">
        <ele>1665.5999755859</ele>
        <time>2021-03-21T08:49:13.000Z</time>
      </trkpt>
      <trkpt lat="45.00411" lon="6.03724">
        <ele>1665.8000488281</ele>
        <time>2021-03-21T08:49:14.000Z</time>
      </trkpt>
      <trkpt lat="45.00411" lon="6.03723">
        <ele>1666</ele>
        <time>2021-03-21T08:49:15.000Z</time>
      </trkpt>
      <trkpt lat="45.0041" lon="6.03723">
        <ele>1666.1999511719</ele>
        <time>2021-03-21T08:49:16.000Z</time>
      </trkpt>
      <trkpt lat="45.00409" lon="6.03722">
        <ele>1666.4000244141</ele>
        <time>2021-03-21T08:49:17.000Z</time>
      </trkpt>
      <trkpt lat="45.00409" lon="6.03721">
        <ele>1666.5999755859</ele>
        <time>2021-03-21T08:49:18.000Z</time>
      </trkpt>
      <trkpt lat="45.00408" lon="6.03721">
        <ele>1666.8000488281</ele>
        <time>2021-03-21T08:49:19.000Z</time>
      </trkpt>
      <trkpt lat="45.00407" lon="6.0372">
        <ele>1666.8000488281</ele>
        <time>2021-03-21T08:49:20.000Z</time>
      </trkpt>
      <trkpt lat="45.00407" lon="6.0372">
        <ele>1667</ele>
        <time>2021-03-21T08:49:21.000Z</time>
      </trkpt>
      <trkpt lat="45.00407" lon="6.0372">
        <ele>1667.1999511719</ele>
        <time>2021-03-21T08:49:22.000Z</time>
      </trkpt>
      <trkpt lat="45.00406" lon="6.03719">
        <ele>1667.4000244141</ele>
        <time>2021-03-21T08:49:23.000Z</time>
      </trkpt>
      <trkpt lat="45.00406" lon="6.03719">
        <ele>1667.4000244141</ele>
        <time>2021-03-21T08:49:24.000Z</time>
      </trkpt>
      <trkpt lat="45.00405" lon="6.03718">
        <ele>1667.5999755859</ele>
        <time>2021-03-21T08:49:25.000Z</time>
      </trkpt>
      <trkpt lat="45.00405" lon="6.03718">
        <ele>1667.8000488281</ele>
        <time>2021-03-21T08:49:26.000Z</time>
      </trkpt>
      <trkpt lat="45.00404" lon="6.03717">
        <ele>1668</ele>
        <time>2021-03-21T08:49:27.000Z</time>
      </trkpt>
      <trkpt lat="45.00404" lon="6.03717">
        <ele>1668</ele>
        <time>2021-03-21T08:49:28.000Z</time>
      </trkpt>
      <trkpt lat="45.00403" lon="6.03716">
        <ele>1668.1999511719</ele>
        <time>2021-03-21T08:49:29.000Z</time>
      </trkpt>
      <trkpt lat="45.00403" lon="6.03716">
        <ele>1668.4000244141</ele>
        <time>2021-03-21T08:49:30.000Z</time>
      </trkpt>
      <trkpt lat="45.00402" lon="6.03715">
        <ele>1668.5999755859</ele>
        <time>2021-03-21T08:49:31.000Z</time>
      </trkpt>
      <trkpt lat="45.00402" lon="6.03714">
        <ele>1668.8000488281</ele>
        <time>2021-03-21T08:49:32.000Z</time>
      </trkpt>
      <trkpt lat="45.00401" lon="6.03714">
        <ele>1669</ele>
        <time>2021-03-21T08:49:33.000Z</time>
      </trkpt>
      <trkpt lat="45.004" lon="6.03714">
        <ele>1669</ele>
        <time>2021-03-21T08:49:34.000Z</time>
      </trkpt>
      <trkpt lat="45.004" lon="6.03713">
        <ele>1669.1999511719</ele>
        <time>2021-03-21T08:49:35.000Z</time>
      </trkpt>
      <trkpt lat="45.00399" lon="6.03713">
        <ele>1669.4000244141</ele>
        <time>2021-03-21T08:49:36.000Z</time>
      </trkpt>
      <trkpt lat="45.00399" lon="6.03712">
        <ele>1669.4000244141</ele>
        <time>2021-03-21T08:49:37.000Z</time>
      </trkpt>
      <trkpt lat="45.00398" lon="6.03712">
        <ele>1669.5999755859</ele>
        <time>2021-03-21T08:49:38.000Z</time>
      </trkpt>
      <trkpt lat="45.00397" lon="6.03712">
        <ele>1669.5999755859</ele>
        <time>2021-03-21T08:49:39.000Z</time>
      </trkpt>
      <trkpt lat="45.00397" lon="6.03711">
        <ele>1669.8000488281</ele>
        <time>2021-03-21T08:49:40.000Z</time>
      </trkpt>
      <trkpt lat="45.00396" lon="6.03711">
        <ele>1669.8000488281</ele>
        <time>2021-03-21T08:49:41.000Z</time>
      </trkpt>
      <trkpt lat="45.00395" lon="6.03711">
        <ele>1670</ele>
        <time>2021-03-21T08:49:42.000Z</time>
      </trkpt>
      <trkpt lat="45.00395" lon="6.03711">
        <ele>1670</ele>
        <time>2021-03-21T08:49:43.000Z</time>
      </trkpt>
      <trkpt lat="45.00394" lon="6.0371">
        <ele>1670.1999511719</ele>
        <time>2021-03-21T08:49:44.000Z</time>
      </trkpt>
      <trkpt lat="45.00393" lon="6.0371">
        <ele>1670.1999511719</ele>
        <time>2021-03-21T08:49:45.000Z</time>
      </trkpt>
      <trkpt lat="45.00393" lon="6.0371">
        <ele>1670.1999511719</ele>
        <time>2021-03-21T08:49:46.000Z</time>
      </trkpt>
      <trkpt lat="45.00392" lon="6.03709">
        <ele>1670.4000244141</ele>
        <time>2021-03-21T08:49:47.000Z</time>
      </trkpt>
      <trkpt lat="45.00392" lon="6.03709">
        <ele>1670.5999755859</ele>
        <time>2021-03-21T08:49:48.000Z</time>
      </trkpt>
      <trkpt lat="45.00391" lon="6.03709">
        <ele>1670.8000488281</ele>
        <time>2021-03-21T08:49:49.000Z</time>
      </trkpt>
      <trkpt lat="45.00391" lon="6.03708">
        <ele>1670.8000488281</ele>
        <time>2021-03-21T08:49:50.000Z</time>
      </trkpt>
      <trkpt lat="45.0039" lon="6.03708">
        <ele>1671</ele>
        <time>2021-03-21T08:49:51.000Z</time>
      </trkpt>
      <trkpt lat="45.00389" lon="6.03708">
        <ele>1671</ele>
        <time>2021-03-21T08:49:52.000Z</time>
      </trkpt>
      <trkpt lat="45.00389" lon="6.03707">
        <ele>1671.4000244141</ele>
        <time>2021-03-21T08:49:53.000Z</time>
      </trkpt>
      <trkpt lat="45.00388" lon="6.03707">
        <ele>1671.5999755859</ele>
        <time>2021-03-21T08:49:54.000Z</time>
      </trkpt>
      <trkpt lat="45.00387" lon="6.03707">
        <ele>1671.8000488281</ele>
        <time>2021-03-21T08:49:55.000Z</time>
      </trkpt>
      <trkpt lat="45.00387" lon="6.03706">
        <ele>1672</ele>
        <time>2021-03-21T08:49:56.000Z</time>
      </trkpt>
      <trkpt lat="45.00386" lon="6.03706">
        <ele>1672.1999511719</ele>
        <time>2021-03-21T08:49:57.000Z</time>
      </trkpt>
      <trkpt lat="45.00386" lon="6.03705">
        <ele>1672.5999755859</ele>
        <time>2021-03-21T08:49:58.000Z</time>
      </trkpt>
      <trkpt lat="45.00385" lon="6.03704">
        <ele>1672.8000488281</ele>
        <time>2021-03-21T08:49:59.000Z</time>
      </trkpt>
      <trkpt lat="45.00384" lon="6.03704">
        <ele>1673</ele>
        <time>2021-03-21T08:50:00.000Z</time>
      </trkpt>
      <trkpt lat="45.00383" lon="6.03703">
        <ele>1673.4000244141</ele>
        <time>2021-03-21T08:50:01.000Z</time>
      </trkpt>
      <trkpt lat="45.00382" lon="6.03702">
        <ele>1673.8000488281</ele>
        <time>2021-03-21T08:50:02.000Z</time>
      </trkpt>
      <trkpt lat="45.00382" lon="6.03702">
        <ele>1674</ele>
        <time>2021-03-21T08:50:03.000Z</time>
      </trkpt>
      <trkpt lat="45.00381" lon="6.03702">
        <ele>1673.8000488281</ele>
        <time>2021-03-21T08:50:04.000Z</time>
      </trkpt>
      <trkpt lat="45.0038" lon="6.03702">
        <ele>1674</ele>
        <time>2021-03-21T08:50:05.000Z</time>
      </trkpt>
      <trkpt lat="45.00379" lon="6.03702">
        <ele>1674.1999511719</ele>
        <time>2021-03-21T08:50:06.000Z</time>
      </trkpt>
      <trkpt lat="45.00378" lon="6.03702">
        <ele>1674.4000244141</ele>
        <time>2021-03-21T08:50:07.000Z</time>
      </trkpt>
      <trkpt lat="45.00377" lon="6.03701">
        <ele>1674.4000244141</ele>
        <time>2021-03-21T08:50:08.000Z</time>
      </trkpt>
      <trkpt lat="45.00376" lon="6.03701">
        <ele>1674.4000244141</ele>
        <time>2021-03-21T08:50:09.000Z</time>
      </trkpt>
      <trkpt lat="45.00375" lon="6.03701">
        <ele>1674.5999755859</ele>
        <time>2021-03-21T08:50:10.000Z</time>
      </trkpt>
      <trkpt lat="45.00375" lon="6.03701">
        <ele>1674.5999755859</ele>
        <time>2021-03-21T08:50:11.000Z</time>
      </trkpt>
      <trkpt lat="45.00374" lon="6.03701">
        <ele>1674.4000244141</ele>
        <time>2021-03-21T08:50:12.000Z</time>
      </trkpt>
      <trkpt lat="45.00373" lon="6.03701">
        <ele>1674.1999511719</ele>
        <time>2021-03-21T08:50:13.000Z</time>
      </trkpt>
      <trkpt lat="45.00372" lon="6.03701">
        <ele>1674.1999511719</ele>
        <time>2021-03-21T08:50:14.000Z</time>
      </trkpt>
      <trkpt lat="45.00371" lon="6.03701">
        <ele>1674</ele>
        <time>2021-03-21T08:50:15.000Z</time>
      </trkpt>
      <trkpt lat="45.00371" lon="6.03701">
        <ele>1674</ele>
        <time>2021-03-21T08:50:16.000Z</time>
      </trkpt>
      <trkpt lat="45.0037" lon="6.037">
        <ele>1674</ele>
        <time>2021-03-21T08:50:17.000Z</time>
      </trkpt>
      <trkpt lat="45.00369" lon="6.037">
        <ele>1674</ele>
        <time>2021-03-21T08:50:18.000Z</time>
      </trkpt>
      <trkpt lat="45.00369" lon="6.037">
        <ele>1674</ele>
        <time>2021-03-21T08:50:19.000Z</time>
      </trkpt>
      <trkpt lat="45.00368" lon="6.03699">
        <ele>1674</ele>
        <time>2021-03-21T08:50:20.000Z</time>
      </trkpt>
      <trkpt lat="45.00368" lon="6.03699">
        <ele>1674</ele>
        <time>2021-03-21T08:50:21.000Z</time>
      </trkpt>
      <trkpt lat="45.00367" lon="6.03699">
        <ele>1674</ele>
        <time>2021-03-21T08:50:22.000Z</time>
      </trkpt>
      <trkpt lat="45.00366" lon="6.03698">
        <ele>1674.1999511719</ele>
        <time>2021-03-21T08:50:23.000Z</time>
      </trkpt>
      <trkpt lat="45.00365" lon="6.03698">
        <ele>1674.1999511719</ele>
        <time>2021-03-21T08:50:24.000Z</time>
      </trkpt>
      <trkpt lat="45.00365" lon="6.03697">
        <ele>1674.4000244141</ele>
        <time>2021-03-21T08:50:25.000Z</time>
      </trkpt>
      <trkpt lat="45.00364" lon="6.03697">
        <ele>1674.5999755859</ele>
        <time>2021-03-21T08:50:26.000Z</time>
      </trkpt>
      <trkpt lat="45.00364" lon="6.03696">
        <ele>1674.5999755859</ele>
        <time>2021-03-21T08:50:27.000Z</time>
      </trkpt>
      <trkpt lat="45.00364" lon="6.03696">
        <ele>1674.8000488281</ele>
        <time>2021-03-21T08:50:28.000Z</time>
      </trkpt>
      <trkpt lat="45.00363" lon="6.03696">
        <ele>1674.5999755859</ele>
        <time>2021-03-21T08:50:29.000Z</time>
      </trkpt>
      <trkpt lat="45.00363" lon="6.03695">
        <ele>1675</ele>
        <time>2021-03-21T08:50:30.000Z</time>
      </trkpt>
      <trkpt lat="45.00363" lon="6.03695">
        <ele>1675</ele>
        <time>2021-03-21T08:50:31.000Z</time>
      </trkpt>
      <trkpt lat="45.00363" lon="6.03695">
        <ele>1675.1999511719</ele>
        <time>2021-03-21T08:50:32.000Z</time>
      </trkpt>
      <trkpt lat="45.00363" lon="6.03695">
        <ele>1675.1999511719</ele>
        <time>2021-03-21T08:50:33.000Z</time>
      </trkpt>
      <trkpt lat="45.00363" lon="6.03694">
        <ele>1675.1999511719</ele>
        <time>2021-03-21T08:50:34.000Z</time>
      </trkpt>
      <trkpt lat="45.00363" lon="6.03695">
        <ele>1675.1999511719</ele>
        <time>2021-03-21T08:50:35.000Z</time>
      </trkpt>
      <trkpt lat="45.00363" lon="6.03695">
        <ele>1675.1999511719</ele>
        <time>2021-03-21T08:50:36.000Z</time>
      </trkpt>
      <trkpt lat="45.00363" lon="6.03694">
        <ele>1675.1999511719</ele>
        <time>2021-03-21T08:50:37.000Z</time>
      </trkpt>
      <trkpt lat="45.00362" lon="6.03694">
        <ele>1675</ele>
        <time>2021-03-21T08:50:38.000Z</time>
      </trkpt>
      <trkpt lat="45.00362" lon="6.03695">
        <ele>1675</ele>
        <time>2021-03-21T08:50:39.000Z</time>
      </trkpt>
      <trkpt lat="45.00361" lon="6.03694">
        <ele>1675</ele>
        <time>2021-03-21T08:50:40.000Z</time>
      </trkpt>
      <trkpt lat="45.00361" lon="6.03694">
        <ele>1675</ele>
        <time>2021-03-21T08:50:41.000Z</time>
      </trkpt>
      <trkpt lat="45.00361" lon="6.03694">
        <ele>1675</ele>
        <time>2021-03-21T08:50:42.000Z</time>
      </trkpt>
      <trkpt lat="45.0036" lon="6.03694">
        <ele>1675</ele>
        <time>2021-03-21T08:50:43.000Z</time>
      </trkpt>
      <trkpt lat="45.0036" lon="6.03694">
        <ele>1674.8000488281</ele>
        <time>2021-03-21T08:50:44.000Z</time>
      </trkpt>
      <trkpt lat="45.00359" lon="6.03694">
        <ele>1675</ele>
        <time>2021-03-21T08:50:45.000Z</time>
      </trkpt>
      <trkpt lat="45.00359" lon="6.03694">
        <ele>1675</ele>
        <time>2021-03-21T08:50:46.000Z</time>
      </trkpt>
      <trkpt lat="45.00358" lon="6.03694">
        <ele>1675.1999511719</ele>
        <time>2021-03-21T08:50:47.000Z</time>
      </trkpt>
      <trkpt lat="45.00357" lon="6.03694">
        <ele>1675.4000244141</ele>
        <time>2021-03-21T08:50:48.000Z</time>
      </trkpt>
      <trkpt lat="45.00356" lon="6.03694">
        <ele>1675.5999755859</ele>
        <time>2021-03-21T08:50:49.000Z</time>
      </trkpt>
      <trkpt lat="45.00355" lon="6.03693">
        <ele>1675.8000488281</ele>
        <time>2021-03-21T08:50:50.000Z</time>
      </trkpt>
      <trkpt lat="45.00354" lon="6.03692">
        <ele>1676</ele>
        <time>2021-03-21T08:50:51.000Z</time>
      </trkpt>
      <trkpt lat="45.00354" lon="6.03692">
        <ele>1676.1999511719</ele>
        <time>2021-03-21T08:50:52.000Z</time>
      </trkpt>
      <trkpt lat="45.00353" lon="6.03691">
        <ele>1676.4000244141</ele>
        <time>2021-03-21T08:50:53.000Z</time>
      </trkpt>
      <trkpt lat="45.00352" lon="6.0369">
        <ele>1676.5999755859</ele>
        <time>2021-03-21T08:50:54.000Z</time>
      </trkpt>
      <trkpt lat="45.00352" lon="6.03689">
        <ele>1676.5999755859</ele>
        <time>2021-03-21T08:50:55.000Z</time>
      </trkpt>
      <trkpt lat="45.00351" lon="6.03688">
        <ele>1676.8000488281</ele>
        <time>2021-03-21T08:50:56.000Z</time>
      </trkpt>
      <trkpt lat="45.00351" lon="6.03688">
        <ele>1677</ele>
        <time>2021-03-21T08:50:57.000Z</time>
      </trkpt>
      <trkpt lat="45.0035" lon="6.03687">
        <ele>1677</ele>
        <time>2021-03-21T08:50:58.000Z</time>
      </trkpt>
      <trkpt lat="45.0035" lon="6.03686">
        <ele>1677.1999511719</ele>
        <time>2021-03-21T08:50:59.000Z</time>
      </trkpt>
      <trkpt lat="45.0035" lon="6.03686">
        <ele>1677.1999511719</ele>
        <time>2021-03-21T08:51:00.000Z</time>
      </trkpt>
      <trkpt lat="45.00349" lon="6.03685">
        <ele>1677.4000244141</ele>
        <time>2021-03-21T08:51:01.000Z</time>
      </trkpt>
      <trkpt lat="45.00349" lon="6.03684">
        <ele>1677.4000244141</ele>
        <time>2021-03-21T08:51:02.000Z</time>
      </trkpt>
      <trkpt lat="45.00349" lon="6.03683">
        <ele>1677.5999755859</ele>
        <time>2021-03-21T08:51:03.000Z</time>
      </trkpt>
      <trkpt lat="45.00349" lon="6.03683">
        <ele>1677.8000488281</ele>
        <time>2021-03-21T08:51:04.000Z</time>
      </trkpt>
      <trkpt lat="45.00348" lon="6.03682">
        <ele>1678</ele>
        <time>2021-03-21T08:51:05.000Z</time>
      </trkpt>
      <trkpt lat="45.00348" lon="6.03681">
        <ele>1678.1999511719</ele>
        <time>2021-03-21T08:51:06.000Z</time>
      </trkpt>
      <trkpt lat="45.00348" lon="6.0368">
        <ele>1678.5999755859</ele>
        <time>2021-03-21T08:51:07.000Z</time>
      </trkpt>
      <trkpt lat="45.00347" lon="6.0368">
        <ele>1678.8000488281</ele>
        <time>2021-03-21T08:51:08.000Z</time>
      </trkpt>
      <trkpt lat="45.00347" lon="6.03679">
        <ele>1679</ele>
        <time>2021-03-21T08:51:09.000Z</time>
      </trkpt>
      <trkpt lat="45.00346" lon="6.03679">
        <ele>1679.4000244141</ele>
        <time>2021-03-21T08:51:10.000Z</time>
      </trkpt>
      <trkpt lat="45.00345" lon="6.03678">
        <ele>1679.4000244141</ele>
        <time>2021-03-21T08:51:11.000Z</time>
      </trkpt>
      <trkpt lat="45.00345" lon="6.03678">
        <ele>1679.5999755859</ele>
        <time>2021-03-21T08:51:12.000Z</time>
      </trkpt>
      <trkpt lat="45.00344" lon="6.03678">
        <ele>1679.8000488281</ele>
        <time>2021-03-21T08:51:13.000Z</time>
      </trkpt>
      <trkpt lat="45.00343" lon="6.03677">
        <ele>1680</ele>
        <time>2021-03-21T08:51:14.000Z</time>
      </trkpt>
      <trkpt lat="45.00342" lon="6.03677">
        <ele>1680.1999511719</ele>
        <time>2021-03-21T08:51:15.000Z</time>
      </trkpt>
      <trkpt lat="45.00341" lon="6.03676">
        <ele>1680.4000244141</ele>
        <time>2021-03-21T08:51:16.000Z</time>
      </trkpt>
      <trkpt lat="45.00341" lon="6.03676">
        <ele>1680.5999755859</ele>
        <time>2021-03-21T08:51:17.000Z</time>
      </trkpt>
      <trkpt lat="45.0034" lon="6.03676">
        <ele>1680.8000488281</ele>
        <time>2021-03-21T08:51:18.000Z</time>
      </trkpt>
      <trkpt lat="45.00339" lon="6.03676">
        <ele>1681.1999511719</ele>
        <time>2021-03-21T08:51:19.000Z</time>
      </trkpt>
      <trkpt lat="45.00338" lon="6.03675">
        <ele>1681.4000244141</ele>
        <time>2021-03-21T08:51:20.000Z</time>
      </trkpt>
      <trkpt lat="45.00337" lon="6.03675">
        <ele>1681.8000488281</ele>
        <time>2021-03-21T08:51:21.000Z</time>
      </trkpt>
      <trkpt lat="45.00337" lon="6.03675">
        <ele>1682</ele>
        <time>2021-03-21T08:51:22.000Z</time>
      </trkpt>
      <trkpt lat="45.00336" lon="6.03674">
        <ele>1682.1999511719</ele>
        <time>2021-03-21T08:51:23.000Z</time>
      </trkpt>
      <trkpt lat="45.00335" lon="6.03674">
        <ele>1682.4000244141</ele>
        <time>2021-03-21T08:51:24.000Z</time>
      </trkpt>
      <trkpt lat="45.00334" lon="6.03674">
        <ele>1682.8000488281</ele>
        <time>2021-03-21T08:51:25.000Z</time>
      </trkpt>
      <trkpt lat="45.00333" lon="6.03673">
        <ele>1683</ele>
        <time>2021-03-21T08:51:26.000Z</time>
      </trkpt>
      <trkpt lat="45.00332" lon="6.03673">
        <ele>1683.4000244141</ele>
        <time>2021-03-21T08:51:27.000Z</time>
      </trkpt>
      <trkpt lat="45.00331" lon="6.03672">
        <ele>1683.8000488281</ele>
        <time>2021-03-21T08:51:28.000Z</time>
      </trkpt>
      <trkpt lat="45.0033" lon="6.03672">
        <ele>1684</ele>
        <time>2021-03-21T08:51:29.000Z</time>
      </trkpt>
      <trkpt lat="45.00329" lon="6.03672">
        <ele>1684.4000244141</ele>
        <time>2021-03-21T08:51:30.000Z</time>
      </trkpt>
      <trkpt lat="45.00328" lon="6.03672">
        <ele>1684.5999755859</ele>
        <time>2021-03-21T08:51:31.000Z</time>
      </trkpt>
      <trkpt lat="45.00327" lon="6.03671">
        <ele>1684.8000488281</ele>
        <time>2021-03-21T08:51:32.000Z</time>
      </trkpt>
      <trkpt lat="45.00327" lon="6.03671">
        <ele>1685.1999511719</ele>
        <time>2021-03-21T08:51:33.000Z</time>
      </trkpt>
      <trkpt lat="45.00326" lon="6.03671">
        <ele>1685.4000244141</ele>
        <time>2021-03-21T08:51:34.000Z</time>
      </trkpt>
      <trkpt lat="45.00325" lon="6.03671">
        <ele>1685.5999755859</ele>
        <time>2021-03-21T08:51:35.000Z</time>
      </trkpt>
      <trkpt lat="45.00324" lon="6.03671">
        <ele>1685.8000488281</ele>
        <time>2021-03-21T08:51:36.000Z</time>
      </trkpt>
      <trkpt lat="45.00324" lon="6.03671">
        <ele>1686</ele>
        <time>2021-03-21T08:51:37.000Z</time>
      </trkpt>
      <trkpt lat="45.00323" lon="6.03671">
        <ele>1686.1999511719</ele>
        <time>2021-03-21T08:51:38.000Z</time>
      </trkpt>
      <trkpt lat="45.00322" lon="6.03671">
        <ele>1686.1999511719</ele>
        <time>2021-03-21T08:51:39.000Z</time>
      </trkpt>
      <trkpt lat="45.00322" lon="6.03671">
        <ele>1686.4000244141</ele>
        <time>2021-03-21T08:51:40.000Z</time>
      </trkpt>
      <trkpt lat="45.00321" lon="6.03671">
        <ele>1686.5999755859</ele>
        <time>2021-03-21T08:51:41.000Z</time>
      </trkpt>
      <trkpt lat="45.00321" lon="6.03671">
        <ele>1686.8000488281</ele>
        <time>2021-03-21T08:51:42.000Z</time>
      </trkpt>
      <trkpt lat="45.0032" lon="6.03671">
        <ele>1686.8000488281</ele>
        <time>2021-03-21T08:51:43.000Z</time>
      </trkpt>
      <trkpt lat="45.00319" lon="6.03671">
        <ele>1687</ele>
        <time>2021-03-21T08:51:44.000Z</time>
      </trkpt>
      <trkpt lat="45.00319" lon="6.0367">
        <ele>1687.1999511719</ele>
        <time>2021-03-21T08:51:45.000Z</time>
      </trkpt>
      <trkpt lat="45.00318" lon="6.0367">
        <ele>1687.4000244141</ele>
        <time>2021-03-21T08:51:46.000Z</time>
      </trkpt>
      <trkpt lat="45.00317" lon="6.0367">
        <ele>1687.8000488281</ele>
        <time>2021-03-21T08:51:47.000Z</time>
      </trkpt>
      <trkpt lat="45.00317" lon="6.0367">
        <ele>1688</ele>
        <time>2021-03-21T08:51:48.000Z</time>
      </trkpt>
      <trkpt lat="45.00316" lon="6.0367">
        <ele>1688.1999511719</ele>
        <time>2021-03-21T08:51:49.000Z</time>
      </trkpt>
      <trkpt lat="45.00315" lon="6.0367">
        <ele>1688.4000244141</ele>
        <time>2021-03-21T08:51:50.000Z</time>
      </trkpt>
      <trkpt lat="45.00315" lon="6.0367">
        <ele>1688.8000488281</ele>
        <time>2021-03-21T08:51:51.000Z</time>
      </trkpt>
      <trkpt lat="45.00314" lon="6.0367">
        <ele>1689</ele>
        <time>2021-03-21T08:51:52.000Z</time>
      </trkpt>
      <trkpt lat="45.00313" lon="6.0367">
        <ele>1689.1999511719</ele>
        <time>2021-03-21T08:51:53.000Z</time>
      </trkpt>
      <trkpt lat="45.00312" lon="6.0367">
        <ele>1689.5999755859</ele>
        <time>2021-03-21T08:51:54.000Z</time>
      </trkpt>
      <trkpt lat="45.00311" lon="6.0367">
        <ele>1689.8000488281</ele>
        <time>2021-03-21T08:51:55.000Z</time>
      </trkpt>
      <trkpt lat="45.0031" lon="6.0367">
        <ele>1690</ele>
        <time>2021-03-21T08:51:56.000Z</time>
      </trkpt>
      <trkpt lat="45.00309" lon="6.03671">
        <ele>1690.4000244141</ele>
        <time>2021-03-21T08:51:57.000Z</time>
      </trkpt>
      <trkpt lat="45.00309" lon="6.03671">
        <ele>1690.4000244141</ele>
        <time>2021-03-21T08:51:58.000Z</time>
      </trkpt>
      <trkpt lat="45.00308" lon="6.03671">
        <ele>1690.5999755859</ele>
        <time>2021-03-21T08:51:59.000Z</time>
      </trkpt>
      <trkpt lat="45.00308" lon="6.03671">
        <ele>1690.8000488281</ele>
        <time>2021-03-21T08:52:00.000Z</time>
      </trkpt>
      <trkpt lat="45.00307" lon="6.03671">
        <ele>1691.1999511719</ele>
        <time>2021-03-21T08:52:01.000Z</time>
      </trkpt>
      <trkpt lat="45.00306" lon="6.03671">
        <ele>1691.4000244141</ele>
        <time>2021-03-21T08:52:02.000Z</time>
      </trkpt>
      <trkpt lat="45.00306" lon="6.03671">
        <ele>1691.5999755859</ele>
        <time>2021-03-21T08:52:03.000Z</time>
      </trkpt>
      <trkpt lat="45.00305" lon="6.03672">
        <ele>1691.8000488281</ele>
        <time>2021-03-21T08:52:04.000Z</time>
      </trkpt>
      <trkpt lat="45.00305" lon="6.03672">
        <ele>1691.8000488281</ele>
        <time>2021-03-21T08:52:05.000Z</time>
      </trkpt>
      <trkpt lat="45.00304" lon="6.03672">
        <ele>1692.1999511719</ele>
        <time>2021-03-21T08:52:06.000Z</time>
      </trkpt>
      <trkpt lat="45.00303" lon="6.03672">
        <ele>1692.1999511719</ele>
        <time>2021-03-21T08:52:07.000Z</time>
      </trkpt>
      <trkpt lat="45.00303" lon="6.03672">
        <ele>1692.5999755859</ele>
        <time>2021-03-21T08:52:08.000Z</time>
      </trkpt>
      <trkpt lat="45.00302" lon="6.03672">
        <ele>1692.5999755859</ele>
        <time>2021-03-21T08:52:09.000Z</time>
      </trkpt>
      <trkpt lat="45.00302" lon="6.03672">
        <ele>1692.8000488281</ele>
        <time>2021-03-21T08:52:10.000Z</time>
      </trkpt>
      <trkpt lat="45.00301" lon="6.03672">
        <ele>1693</ele>
        <time>2021-03-21T08:52:11.000Z</time>
      </trkpt>
      <trkpt lat="45.00301" lon="6.03672">
        <ele>1693.1999511719</ele>
        <time>2021-03-21T08:52:12.000Z</time>
      </trkpt>
      <trkpt lat="45.003" lon="6.03672">
        <ele>1693.5999755859</ele>
        <time>2021-03-21T08:52:13.000Z</time>
      </trkpt>
      <trkpt lat="45.00299" lon="6.03672">
        <ele>1693.8000488281</ele>
        <time>2021-03-21T08:52:14.000Z</time>
      </trkpt>
      <trkpt lat="45.00298" lon="6.03672">
        <ele>1694</ele>
        <time>2021-03-21T08:52:15.000Z</time>
      </trkpt>
      <trkpt lat="45.00298" lon="6.03672">
        <ele>1694.4000244141</ele>
        <time>2021-03-21T08:52:16.000Z</time>
      </trkpt>
      <trkpt lat="45.00297" lon="6.03672">
        <ele>1694.8000488281</ele>
        <time>2021-03-21T08:52:17.000Z</time>
      </trkpt>
      <trkpt lat="45.00296" lon="6.03672">
        <ele>1695</ele>
        <time>2021-03-21T08:52:18.000Z</time>
      </trkpt>
      <trkpt lat="45.00295" lon="6.03672">
        <ele>1695.4000244141</ele>
        <time>2021-03-21T08:52:19.000Z</time>
      </trkpt>
      <trkpt lat="45.00294" lon="6.03672">
        <ele>1695.8000488281</ele>
        <time>2021-03-21T08:52:20.000Z</time>
      </trkpt>
      <trkpt lat="45.00293" lon="6.03671">
        <ele>1696</ele>
        <time>2021-03-21T08:52:21.000Z</time>
      </trkpt>
      <trkpt lat="45.00292" lon="6.03671">
        <ele>1696.4000244141</ele>
        <time>2021-03-21T08:52:22.000Z</time>
      </trkpt>
      <trkpt lat="45.00292" lon="6.03671">
        <ele>1696.5999755859</ele>
        <time>2021-03-21T08:52:23.000Z</time>
      </trkpt>
      <trkpt lat="45.00291" lon="6.03671">
        <ele>1696.8000488281</ele>
        <time>2021-03-21T08:52:24.000Z</time>
      </trkpt>
      <trkpt lat="45.0029" lon="6.03671">
        <ele>1697</ele>
        <time>2021-03-21T08:52:25.000Z</time>
      </trkpt>
      <trkpt lat="45.00289" lon="6.03671">
        <ele>1697.1999511719</ele>
        <time>2021-03-21T08:52:26.000Z</time>
      </trkpt>
      <trkpt lat="45.00288" lon="6.03671">
        <ele>1697.5999755859</ele>
        <time>2021-03-21T08:52:27.000Z</time>
      </trkpt>
      <trkpt lat="45.00287" lon="6.03671">
        <ele>1697.8000488281</ele>
        <time>2021-03-21T08:52:28.000Z</time>
      </trkpt>
      <trkpt lat="45.00287" lon="6.03671">
        <ele>1697.8000488281</ele>
        <time>2021-03-21T08:52:29.000Z</time>
      </trkpt>
      <trkpt lat="45.00286" lon="6.03671">
        <ele>1698</ele>
        <time>2021-03-21T08:52:30.000Z</time>
      </trkpt>
      <trkpt lat="45.00286" lon="6.03672">
        <ele>1698.1999511719</ele>
        <time>2021-03-21T08:52:31.000Z</time>
      </trkpt>
      <trkpt lat="45.00285" lon="6.03672">
        <ele>1698.4000244141</ele>
        <time>2021-03-21T08:52:32.000Z</time>
      </trkpt>
      <trkpt lat="45.00284" lon="6.03672">
        <ele>1698.5999755859</ele>
        <time>2021-03-21T08:52:33.000Z</time>
      </trkpt>
      <trkpt lat="45.00284" lon="6.03672">
        <ele>1698.8000488281</ele>
        <time>2021-03-21T08:52:34.000Z</time>
      </trkpt>
      <trkpt lat="45.00283" lon="6.03672">
        <ele>1699</ele>
        <time>2021-03-21T08:52:35.000Z</time>
      </trkpt>
      <trkpt lat="45.00282" lon="6.03672">
        <ele>1699.1999511719</ele>
        <time>2021-03-21T08:52:36.000Z</time>
      </trkpt>
      <trkpt lat="45.00281" lon="6.03672">
        <ele>1699.4000244141</ele>
        <time>2021-03-21T08:52:37.000Z</time>
      </trkpt>
      <trkpt lat="45.00281" lon="6.03672">
        <ele>1699.5999755859</ele>
        <time>2021-03-21T08:52:38.000Z</time>
      </trkpt>
      <trkpt lat="45.0028" lon="6.03673">
        <ele>1700</ele>
        <time>2021-03-21T08:52:39.000Z</time>
      </trkpt>
      <trkpt lat="45.00279" lon="6.03673">
        <ele>1700.1999511719</ele>
        <time>2021-03-21T08:52:40.000Z</time>
      </trkpt>
      <trkpt lat="45.00279" lon="6.03673">
        <ele>1700.4000244141</ele>
        <time>2021-03-21T08:52:41.000Z</time>
      </trkpt>
      <trkpt lat="45.00278" lon="6.03673">
        <ele>1700.8000488281</ele>
        <time>2021-03-21T08:52:42.000Z</time>
      </trkpt>
      <trkpt lat="45.00278" lon="6.03673">
        <ele>1701</ele>
        <time>2021-03-21T08:52:43.000Z</time>
      </trkpt>
      <trkpt lat="45.00277" lon="6.03673">
        <ele>1701.1999511719</ele>
        <time>2021-03-21T08:52:44.000Z</time>
      </trkpt>
      <trkpt lat="45.00276" lon="6.03673">
        <ele>1701.5999755859</ele>
        <time>2021-03-21T08:52:45.000Z</time>
      </trkpt>
      <trkpt lat="45.00275" lon="6.03673">
        <ele>1701.8000488281</ele>
        <time>2021-03-21T08:52:46.000Z</time>
      </trkpt>
      <trkpt lat="45.00275" lon="6.03673">
        <ele>1702</ele>
        <time>2021-03-21T08:52:47.000Z</time>
      </trkpt>
      <trkpt lat="45.00274" lon="6.03673">
        <ele>1702.1999511719</ele>
        <time>2021-03-21T08:52:48.000Z</time>
      </trkpt>
      <trkpt lat="45.00274" lon="6.03673">
        <ele>1702.5999755859</ele>
        <time>2021-03-21T08:52:49.000Z</time>
      </trkpt>
      <trkpt lat="45.00273" lon="6.03672">
        <ele>1702.5999755859</ele>
        <time>2021-03-21T08:52:50.000Z</time>
      </trkpt>
      <trkpt lat="45.00273" lon="6.03672">
        <ele>1703</ele>
        <time>2021-03-21T08:52:51.000Z</time>
      </trkpt>
      <trkpt lat="45.00272" lon="6.03672">
        <ele>1703.1999511719</ele>
        <time>2021-03-21T08:52:52.000Z</time>
      </trkpt>
      <trkpt lat="45.00271" lon="6.03672">
        <ele>1703.4000244141</ele>
        <time>2021-03-21T08:52:53.000Z</time>
      </trkpt>
      <trkpt lat="45.0027" lon="6.03672">
        <ele>1703.8000488281</ele>
        <time>2021-03-21T08:52:54.000Z</time>
      </trkpt>
      <trkpt lat="45.0027" lon="6.03671">
        <ele>1704</ele>
        <time>2021-03-21T08:52:55.000Z</time>
      </trkpt>
      <trkpt lat="45.00269" lon="6.03671">
        <ele>1704.4000244141</ele>
        <time>2021-03-21T08:52:56.000Z</time>
      </trkpt>
      <trkpt lat="45.00269" lon="6.03671">
        <ele>1704.4000244141</ele>
        <time>2021-03-21T08:52:57.000Z</time>
      </trkpt>
      <trkpt lat="45.00268" lon="6.03671">
        <ele>1704.8000488281</ele>
        <time>2021-03-21T08:52:58.000Z</time>
      </trkpt>
      <trkpt lat="45.00267" lon="6.03671">
        <ele>1705</ele>
        <time>2021-03-21T08:52:59.000Z</time>
      </trkpt>
      <trkpt lat="45.00267" lon="6.0367">
        <ele>1705.4000244141</ele>
        <time>2021-03-21T08:53:00.000Z</time>
      </trkpt>
      <trkpt lat="45.00266" lon="6.0367">
        <ele>1705.5999755859</ele>
        <time>2021-03-21T08:53:01.000Z</time>
      </trkpt>
      <trkpt lat="45.00265" lon="6.0367">
        <ele>1705.8000488281</ele>
        <time>2021-03-21T08:53:02.000Z</time>
      </trkpt>
      <trkpt lat="45.00265" lon="6.03669">
        <ele>1706.1999511719</ele>
        <time>2021-03-21T08:53:03.000Z</time>
      </trkpt>
      <trkpt lat="45.00265" lon="6.03669">
        <ele>1706</ele>
        <time>2021-03-21T08:53:04.000Z</time>
      </trkpt>
      <trkpt lat="45.00265" lon="6.03668">
        <ele>1706.1999511719</ele>
        <time>2021-03-21T08:53:05.000Z</time>
      </trkpt>
      <trkpt lat="45.00264" lon="6.03668">
        <ele>1706.5999755859</ele>
        <time>2021-03-21T08:53:06.000Z</time>
      </trkpt>
      <trkpt lat="45.00264" lon="6.03668">
        <ele>1706.5999755859</ele>
        <time>2021-03-21T08:53:07.000Z</time>
      </trkpt>
      <trkpt lat="45.00263" lon="6.03667">
        <ele>1706.8000488281</ele>
        <time>2021-03-21T08:53:08.000Z</time>
      </trkpt>
      <trkpt lat="45.00263" lon="6.03667">
        <ele>1707</ele>
        <time>2021-03-21T08:53:09.000Z</time>
      </trkpt>
      <trkpt lat="45.00262" lon="6.03667">
        <ele>1707.1999511719</ele>
        <time>2021-03-21T08:53:10.000Z</time>
      </trkpt>
      <trkpt lat="45.00262" lon="6.03667">
        <ele>1707.1999511719</ele>
        <time>2021-03-21T08:53:11.000Z</time>
      </trkpt>
      <trkpt lat="45.00262" lon="6.03666">
        <ele>1707.4000244141</ele>
        <time>2021-03-21T08:53:12.000Z</time>
      </trkpt>
      <trkpt lat="45.00261" lon="6.03666">
        <ele>1707.4000244141</ele>
        <time>2021-03-21T08:53:13.000Z</time>
      </trkpt>
      <trkpt lat="45.00261" lon="6.03665">
        <ele>1707.8000488281</ele>
        <time>2021-03-21T08:53:14.000Z</time>
      </trkpt>
      <trkpt lat="45.0026" lon="6.03665">
        <ele>1708</ele>
        <time>2021-03-21T08:53:15.000Z</time>
      </trkpt>
      <trkpt lat="45.00259" lon="6.03665">
        <ele>1708.1999511719</ele>
        <time>2021-03-21T08:53:16.000Z</time>
      </trkpt>
      <trkpt lat="45.00259" lon="6.03665">
        <ele>1708.4000244141</ele>
        <time>2021-03-21T08:53:17.000Z</time>
      </trkpt>
      <trkpt lat="45.00259" lon="6.03665">
        <ele>1708.5999755859</ele>
        <time>2021-03-21T08:53:18.000Z</time>
      </trkpt>
      <trkpt lat="45.00259" lon="6.03665">
        <ele>1708.5999755859</ele>
        <time>2021-03-21T08:53:19.000Z</time>
      </trkpt>
      <trkpt lat="45.00258" lon="6.03665">
        <ele>1708.5999755859</ele>
        <time>2021-03-21T08:53:20.000Z</time>
      </trkpt>
      <trkpt lat="45.00258" lon="6.03665">
        <ele>1708.5999755859</ele>
        <time>2021-03-21T08:53:21.000Z</time>
      </trkpt>
      <trkpt lat="45.00258" lon="6.03665">
        <ele>1709</ele>
        <time>2021-03-21T08:53:22.000Z</time>
      </trkpt>
      <trkpt lat="45.00257" lon="6.03665">
        <ele>1709.1999511719</ele>
        <time>2021-03-21T08:53:23.000Z</time>
      </trkpt>
      <trkpt lat="45.00257" lon="6.03664">
        <ele>1709.1999511719</ele>
        <time>2021-03-21T08:53:24.000Z</time>
      </trkpt>
      <trkpt lat="45.00257" lon="6.03664">
        <ele>1709.1999511719</ele>
        <time>2021-03-21T08:53:25.000Z</time>
      </trkpt>
      <trkpt lat="45.00256" lon="6.03664">
        <ele>1709.4000244141</ele>
        <time>2021-03-21T08:53:26.000Z</time>
      </trkpt>
      <trkpt lat="45.00256" lon="6.03663">
        <ele>1709.4000244141</ele>
        <time>2021-03-21T08:53:27.000Z</time>
      </trkpt>
      <trkpt lat="45.00256" lon="6.03663">
        <ele>1709.4000244141</ele>
        <time>2021-03-21T08:53:28.000Z</time>
      </trkpt>
      <trkpt lat="45.00257" lon="6.03663">
        <ele>1709.4000244141</ele>
        <time>2021-03-21T08:53:29.000Z</time>
      </trkpt>
      <trkpt lat="45.00257" lon="6.03662">
        <ele>1709.1999511719</ele>
        <time>2021-03-21T08:53:30.000Z</time>
      </trkpt>
      <trkpt lat="45.00257" lon="6.03661">
        <ele>1709.1999511719</ele>
        <time>2021-03-21T08:53:31.000Z</time>
      </trkpt>
      <trkpt lat="45.00258" lon="6.03661">
        <ele>1709</ele>
        <time>2021-03-21T08:53:32.000Z</time>
      </trkpt>
      <trkpt lat="45.00258" lon="6.0366">
        <ele>1709</ele>
        <time>2021-03-21T08:53:33.000Z</time>
      </trkpt>
      <trkpt lat="45.00258" lon="6.03659">
        <ele>1709</ele>
        <time>2021-03-21T08:53:34.000Z</time>
      </trkpt>
      <trkpt lat="45.00259" lon="6.03658">
        <ele>1708.8000488281</ele>
        <time>2021-03-21T08:53:35.000Z</time>
      </trkpt>
      <trkpt lat="45.00259" lon="6.03658">
        <ele>1708.5999755859</ele>
        <time>2021-03-21T08:53:36.000Z</time>
      </trkpt>
      <trkpt lat="45.00259" lon="6.03657">
        <ele>1708.5999755859</ele>
        <time>2021-03-21T08:53:37.000Z</time>
      </trkpt>
      <trkpt lat="45.0026" lon="6.03656">
        <ele>1708.4000244141</ele>
        <time>2021-03-21T08:53:38.000Z</time>
      </trkpt>
      <trkpt lat="45.0026" lon="6.03654">
        <ele>1708.4000244141</ele>
        <time>2021-03-21T08:53:39.000Z</time>
      </trkpt>
      <trkpt lat="45.0026" lon="6.03653">
        <ele>1708.4000244141</ele>
        <time>2021-03-21T08:53:40.000Z</time>
      </trkpt>
      <trkpt lat="45.0026" lon="6.03652">
        <ele>1708.5999755859</ele>
        <time>2021-03-21T08:53:41.000Z</time>
      </trkpt>
      <trkpt lat="45.00261" lon="6.03651">
        <ele>1708.8000488281</ele>
        <time>2021-03-21T08:53:42.000Z</time>
      </trkpt>
      <trkpt lat="45.00261" lon="6.0365">
        <ele>1709</ele>
        <time>2021-03-21T08:53:43.000Z</time>
      </trkpt>
      <trkpt lat="45.00261" lon="6.03649">
        <ele>1709</ele>
        <time>2021-03-21T08:53:44.000Z</time>
      </trkpt>
      <trkpt lat="45.00262" lon="6.03648">
        <ele>1709.1999511719</ele>
        <time>2021-03-21T08:53:45.000Z</time>
      </trkpt>
      <trkpt lat="45.00262" lon="6.03647">
        <ele>1709.4000244141</ele>
        <time>2021-03-21T08:53:46.000Z</time>
      </trkpt>
      <trkpt lat="45.00263" lon="6.03645">
        <ele>1709.4000244141</ele>
        <time>2021-03-21T08:53:47.000Z</time>
      </trkpt>
      <trkpt lat="45.00264" lon="6.03644">
        <ele>1709.5999755859</ele>
        <time>2021-03-21T08:53:48.000Z</time>
      </trkpt>
      <trkpt lat="45.00264" lon="6.03643">
        <ele>1709.8000488281</ele>
        <time>2021-03-21T08:53:49.000Z</time>
      </trkpt>
      <trkpt lat="45.00264" lon="6.03642">
        <ele>1709.8000488281</ele>
        <time>2021-03-21T08:53:50.000Z</time>
      </trkpt>
      <trkpt lat="45.00265" lon="6.03641">
        <ele>1710</ele>
        <time>2021-03-21T08:53:51.000Z</time>
      </trkpt>
      <trkpt lat="45.00265" lon="6.0364">
        <ele>1710</ele>
        <time>2021-03-21T08:53:52.000Z</time>
      </trkpt>
      <trkpt lat="45.00265" lon="6.0364">
        <ele>1710.1999511719</ele>
        <time>2021-03-21T08:53:53.000Z</time>
      </trkpt>
      <trkpt lat="45.00266" lon="6.03639">
        <ele>1710.4000244141</ele>
        <time>2021-03-21T08:53:54.000Z</time>
      </trkpt>
      <trkpt lat="45.00266" lon="6.03638">
        <ele>1710.4000244141</ele>
        <time>2021-03-21T08:53:55.000Z</time>
      </trkpt>
      <trkpt lat="45.00266" lon="6.03637">
        <ele>1710.4000244141</ele>
        <time>2021-03-21T08:53:56.000Z</time>
      </trkpt>
      <trkpt lat="45.00267" lon="6.03637">
        <ele>1710.5999755859</ele>
        <time>2021-03-21T08:53:57.000Z</time>
      </trkpt>
      <trkpt lat="45.00267" lon="6.03636">
        <ele>1710.5999755859</ele>
        <time>2021-03-21T08:53:58.000Z</time>
      </trkpt>
      <trkpt lat="45.00268" lon="6.03635">
        <ele>1710.8000488281</ele>
        <time>2021-03-21T08:53:59.000Z</time>
      </trkpt>
      <trkpt lat="45.00268" lon="6.03634">
        <ele>1710.8000488281</ele>
        <time>2021-03-21T08:54:00.000Z</time>
      </trkpt>
      <trkpt lat="45.00268" lon="6.03633">
        <ele>1711</ele>
        <time>2021-03-21T08:54:01.000Z</time>
      </trkpt>
      <trkpt lat="45.00269" lon="6.03632">
        <ele>1711</ele>
        <time>2021-03-21T08:54:02.000Z</time>
      </trkpt>
      <trkpt lat="45.00269" lon="6.03632">
        <ele>1711.1999511719</ele>
        <time>2021-03-21T08:54:03.000Z</time>
      </trkpt>
      <trkpt lat="45.0027" lon="6.03631">
        <ele>1711.4000244141</ele>
        <time>2021-03-21T08:54:04.000Z</time>
      </trkpt>
      <trkpt lat="45.0027" lon="6.0363">
        <ele>1711.4000244141</ele>
        <time>2021-03-21T08:54:05.000Z</time>
      </trkpt>
      <trkpt lat="45.0027" lon="6.03629">
        <ele>1711.5999755859</ele>
        <time>2021-03-21T08:54:06.000Z</time>
      </trkpt>
      <trkpt lat="45.0027" lon="6.03629">
        <ele>1711.8000488281</ele>
        <time>2021-03-21T08:54:07.000Z</time>
      </trkpt>
      <trkpt lat="45.00271" lon="6.03628">
        <ele>1712</ele>
        <time>2021-03-21T08:54:08.000Z</time>
      </trkpt>
      <trkpt lat="45.00271" lon="6.03628">
        <ele>1712</ele>
        <time>2021-03-21T08:54:09.000Z</time>
      </trkpt>
      <trkpt lat="45.00271" lon="6.03627">
        <ele>1712.4000244141</ele>
        <time>2021-03-21T08:54:10.000Z</time>
      </trkpt>
      <trkpt lat="45.00271" lon="6.03626">
        <ele>1712.5999755859</ele>
        <time>2021-03-21T08:54:11.000Z</time>
      </trkpt>
      <trkpt lat="45.00271" lon="6.03626">
        <ele>1713</ele>
        <time>2021-03-21T08:54:12.000Z</time>
      </trkpt>
      <trkpt lat="45.00271" lon="6.03625">
        <ele>1713.4000244141</ele>
        <time>2021-03-21T08:54:13.000Z</time>
      </trkpt>
      <trkpt lat="45.0027" lon="6.03625">
        <ele>1713.5999755859</ele>
        <time>2021-03-21T08:54:14.000Z</time>
      </trkpt>
      <trkpt lat="45.0027" lon="6.03624">
        <ele>1714</ele>
        <time>2021-03-21T08:54:15.000Z</time>
      </trkpt>
      <trkpt lat="45.00269" lon="6.03624">
        <ele>1714</ele>
        <time>2021-03-21T08:54:16.000Z</time>
      </trkpt>
      <trkpt lat="45.00269" lon="6.03623">
        <ele>1714.4000244141</ele>
        <time>2021-03-21T08:54:17.000Z</time>
      </trkpt>
      <trkpt lat="45.00268" lon="6.03623">
        <ele>1714.5999755859</ele>
        <time>2021-03-21T08:54:18.000Z</time>
      </trkpt>
      <trkpt lat="45.00267" lon="6.03623">
        <ele>1714.8000488281</ele>
        <time>2021-03-21T08:54:19.000Z</time>
      </trkpt>
      <trkpt lat="45.00266" lon="6.03623">
        <ele>1715.1999511719</ele>
        <time>2021-03-21T08:54:20.000Z</time>
      </trkpt>
      <trkpt lat="45.00266" lon="6.03623">
        <ele>1715.4000244141</ele>
        <time>2021-03-21T08:54:21.000Z</time>
      </trkpt>
      <trkpt lat="45.00265" lon="6.03622">
        <ele>1715.5999755859</ele>
        <time>2021-03-21T08:54:22.000Z</time>
      </trkpt>
      <trkpt lat="45.00264" lon="6.03622">
        <ele>1716</ele>
        <time>2021-03-21T08:54:23.000Z</time>
      </trkpt>
      <trkpt lat="45.00264" lon="6.03622">
        <ele>1716.1999511719</ele>
        <time>2021-03-21T08:54:24.000Z</time>
      </trkpt>
      <trkpt lat="45.00263" lon="6.03621">
        <ele>1716.4000244141</ele>
        <time>2021-03-21T08:54:25.000Z</time>
      </trkpt>
      <trkpt lat="45.00263" lon="6.03622">
        <ele>1716.4000244141</ele>
        <time>2021-03-21T08:54:26.000Z</time>
      </trkpt>
      <trkpt lat="45.00263" lon="6.03622">
        <ele>1716.1999511719</ele>
        <time>2021-03-21T08:54:27.000Z</time>
      </trkpt>
      <trkpt lat="45.00264" lon="6.03621">
        <ele>1716.1999511719</ele>
        <time>2021-03-21T08:54:28.000Z</time>
      </trkpt>
      <trkpt lat="45.00264" lon="6.03621">
        <ele>1716.4000244141</ele>
        <time>2021-03-21T08:54:29.000Z</time>
      </trkpt>
      <trkpt lat="45.00263" lon="6.03621">
        <ele>1716.4000244141</ele>
        <time>2021-03-21T08:54:30.000Z</time>
      </trkpt>
      <trkpt lat="45.00263" lon="6.03622">
        <ele>1716.4000244141</ele>
        <time>2021-03-21T08:54:31.000Z</time>
      </trkpt>
      <trkpt lat="45.00264" lon="6.03622">
        <ele>1716.1999511719</ele>
        <time>2021-03-21T08:54:32.000Z</time>
      </trkpt>
      <trkpt lat="45.00264" lon="6.03622">
        <ele>1716.1999511719</ele>
        <time>2021-03-21T08:54:33.000Z</time>
      </trkpt>
      <trkpt lat="45.00263" lon="6.03622">
        <ele>1716.4000244141</ele>
        <time>2021-03-21T08:54:34.000Z</time>
      </trkpt>
      <trkpt lat="45.00262" lon="6.03622">
        <ele>1716.8000488281</ele>
        <time>2021-03-21T08:54:35.000Z</time>
      </trkpt>
      <trkpt lat="45.00261" lon="6.03621">
        <ele>1717.1999511719</ele>
        <time>2021-03-21T08:54:36.000Z</time>
      </trkpt>
      <trkpt lat="45.00261" lon="6.03621">
        <ele>1717.4000244141</ele>
        <time>2021-03-21T08:54:37.000Z</time>
      </trkpt>
      <trkpt lat="45.00259" lon="6.03621">
        <ele>1717.8000488281</ele>
        <time>2021-03-21T08:54:38.000Z</time>
      </trkpt>
      <trkpt lat="45.00259" lon="6.03621">
        <ele>1718.1999511719</ele>
        <time>2021-03-21T08:54:39.000Z</time>
      </trkpt>
      <trkpt lat="45.00258" lon="6.03621">
        <ele>1718.5999755859</ele>
        <time>2021-03-21T08:54:40.000Z</time>
      </trkpt>
      <trkpt lat="45.00258" lon="6.0362">
        <ele>1719.1999511719</ele>
        <time>2021-03-21T08:54:41.000Z</time>
      </trkpt>
      <trkpt lat="45.00258" lon="6.03619">
        <ele>1719.5999755859</ele>
        <time>2021-03-21T08:54:42.000Z</time>
      </trkpt>
      <trkpt lat="45.00257" lon="6.03619">
        <ele>1720</ele>
        <time>2021-03-21T08:54:43.000Z</time>
      </trkpt>
      <trkpt lat="45.00257" lon="6.03618">
        <ele>1720.4000244141</ele>
        <time>2021-03-21T08:54:44.000Z</time>
      </trkpt>
      <trkpt lat="45.00256" lon="6.03618">
        <ele>1721</ele>
        <time>2021-03-21T08:54:45.000Z</time>
      </trkpt>
      <trkpt lat="45.00256" lon="6.03617">
        <ele>1721.1999511719</ele>
        <time>2021-03-21T08:54:46.000Z</time>
      </trkpt>
      <trkpt lat="45.00255" lon="6.03617">
        <ele>1721.5999755859</ele>
        <time>2021-03-21T08:54:47.000Z</time>
      </trkpt>
      <trkpt lat="45.00254" lon="6.03616">
        <ele>1722</ele>
        <time>2021-03-21T08:54:48.000Z</time>
      </trkpt>
      <trkpt lat="45.00254" lon="6.03616">
        <ele>1722.1999511719</ele>
        <time>2021-03-21T08:54:49.000Z</time>
      </trkpt>
      <trkpt lat="45.00254" lon="6.03615">
        <ele>1723</ele>
        <time>2021-03-21T08:54:50.000Z</time>
      </trkpt>
      <trkpt lat="45.00253" lon="6.03614">
        <ele>1723.4000244141</ele>
        <time>2021-03-21T08:54:51.000Z</time>
      </trkpt>
      <trkpt lat="45.00253" lon="6.03614">
        <ele>1723.5999755859</ele>
        <time>2021-03-21T08:54:52.000Z</time>
      </trkpt>
      <trkpt lat="45.00252" lon="6.03614">
        <ele>1724</ele>
        <time>2021-03-21T08:54:53.000Z</time>
      </trkpt>
      <trkpt lat="45.00252" lon="6.03613">
        <ele>1724.1999511719</ele>
        <time>2021-03-21T08:54:54.000Z</time>
      </trkpt>
      <trkpt lat="45.00252" lon="6.03613">
        <ele>1724.4000244141</ele>
        <time>2021-03-21T08:54:55.000Z</time>
      </trkpt>
      <trkpt lat="45.00252" lon="6.03613">
        <ele>1724.1999511719</ele>
        <time>2021-03-21T08:54:56.000Z</time>
      </trkpt>
      <trkpt lat="45.00252" lon="6.03614">
        <ele>1724.1999511719</ele>
        <time>2021-03-21T08:54:57.000Z</time>
      </trkpt>
      <trkpt lat="45.00252" lon="6.03614">
        <ele>1724</ele>
        <time>2021-03-21T08:54:58.000Z</time>
      </trkpt>
      <trkpt lat="45.00252" lon="6.03614">
        <ele>1724</ele>
        <time>2021-03-21T08:54:59.000Z</time>
      </trkpt>
      <trkpt lat="45.00252" lon="6.03614">
        <ele>1723.8000488281</ele>
        <time>2021-03-21T08:55:00.000Z</time>
      </trkpt>
      <trkpt lat="45.00252" lon="6.03615">
        <ele>1723.8000488281</ele>
        <time>2021-03-21T08:55:01.000Z</time>
      </trkpt>
      <trkpt lat="45.00252" lon="6.03615">
        <ele>1723.5999755859</ele>
        <time>2021-03-21T08:55:02.000Z</time>
      </trkpt>
      <trkpt lat="45.00252" lon="6.03615">
        <ele>1723.5999755859</ele>
        <time>2021-03-21T08:55:03.000Z</time>
      </trkpt>
      <trkpt lat="45.00252" lon="6.03615">
        <ele>1723.5999755859</ele>
        <time>2021-03-21T08:55:04.000Z</time>
      </trkpt>
      <trkpt lat="45.00252" lon="6.03615">
        <ele>1723.4000244141</ele>
        <time>2021-03-21T08:55:05.000Z</time>
      </trkpt>
      <trkpt lat="45.00252" lon="6.03616">
        <ele>1723.1999511719</ele>
        <time>2021-03-21T08:55:06.000Z</time>
      </trkpt>
      <trkpt lat="45.00252" lon="6.03616">
        <ele>1723.1999511719</ele>
        <time>2021-03-21T08:55:07.000Z</time>
      </trkpt>
      <trkpt lat="45.00251" lon="6.03616">
        <ele>1723.1999511719</ele>
        <time>2021-03-21T08:55:08.000Z</time>
      </trkpt>
      <trkpt lat="45.00251" lon="6.03616">
        <ele>1723</ele>
        <time>2021-03-21T08:55:09.000Z</time>
      </trkpt>
      <trkpt lat="45.00251" lon="6.03616">
        <ele>1723</ele>
        <time>2021-03-21T08:55:10.000Z</time>
      </trkpt>
      <trkpt lat="45.00251" lon="6.03616">
        <ele>1723.1999511719</ele>
        <time>2021-03-21T08:55:11.000Z</time>
      </trkpt>
      <trkpt lat="45.00251" lon="6.03616">
        <ele>1723.1999511719</ele>
        <time>2021-03-21T08:55:12.000Z</time>
      </trkpt>
      <trkpt lat="45.00251" lon="6.03616">
        <ele>1723.1999511719</ele>
        <time>2021-03-21T08:55:13.000Z</time>
      </trkpt>
      <trkpt lat="45.00251" lon="6.03616">
        <ele>1723.1999511719</ele>
        <time>2021-03-21T08:55:14.000Z</time>
      </trkpt>
      <trkpt lat="45.00251" lon="6.03616">
        <ele>1723.1999511719</ele>
        <time>2021-03-21T08:55:15.000Z</time>
      </trkpt>
      <trkpt lat="45.0025" lon="6.03617">
        <ele>1723.1999511719</ele>
        <time>2021-03-21T08:55:16.000Z</time>
      </trkpt>
      <trkpt lat="45.0025" lon="6.03617">
        <ele>1723.1999511719</ele>
        <time>2021-03-21T08:55:17.000Z</time>
      </trkpt>
      <trkpt lat="45.0025" lon="6.03617">
        <ele>1723.1999511719</ele>
        <time>2021-03-21T08:55:18.000Z</time>
      </trkpt>
      <trkpt lat="45.0025" lon="6.03617">
        <ele>1723.1999511719</ele>
        <time>2021-03-21T08:55:19.000Z</time>
      </trkpt>
      <trkpt lat="45.0025" lon="6.03616">
        <ele>1723.1999511719</ele>
        <time>2021-03-21T08:55:20.000Z</time>
      </trkpt>
      <trkpt lat="45.0025" lon="6.03616">
        <ele>1723.4000244141</ele>
        <time>2021-03-21T08:55:21.000Z</time>
      </trkpt>
      <trkpt lat="45.00251" lon="6.03616">
        <ele>1723.4000244141</ele>
        <time>2021-03-21T08:55:22.000Z</time>
      </trkpt>
      <trkpt lat="45.00251" lon="6.03616">
        <ele>1723.4000244141</ele>
        <time>2021-03-21T08:55:23.000Z</time>
      </trkpt>
      <trkpt lat="45.00251" lon="6.03616">
        <ele>1723.5999755859</ele>
        <time>2021-03-21T08:55:24.000Z</time>
      </trkpt>
      <trkpt lat="45.00251" lon="6.03616">
        <ele>1723.5999755859</ele>
        <time>2021-03-21T08:55:25.000Z</time>
      </trkpt>
      <trkpt lat="45.00251" lon="6.03616">
        <ele>1723.4000244141</ele>
        <time>2021-03-21T08:55:26.000Z</time>
      </trkpt>
      <trkpt lat="45.00251" lon="6.03616">
        <ele>1723.4000244141</ele>
        <time>2021-03-21T08:55:27.000Z</time>
      </trkpt>
      <trkpt lat="45.00251" lon="6.03616">
        <ele>1723.1999511719</ele>
        <time>2021-03-21T08:55:28.000Z</time>
      </trkpt>
      <trkpt lat="45.00251" lon="6.03616">
        <ele>1723.1999511719</ele>
        <time>2021-03-21T08:55:29.000Z</time>
      </trkpt>
      <trkpt lat="45.00251" lon="6.03616">
        <ele>1723.1999511719</ele>
        <time>2021-03-21T08:55:30.000Z</time>
      </trkpt>
      <trkpt lat="45.00251" lon="6.03616">
        <ele>1723.1999511719</ele>
        <time>2021-03-21T08:55:31.000Z</time>
      </trkpt>
      <trkpt lat="45.00251" lon="6.03616">
        <ele>1723</ele>
        <time>2021-03-21T08:55:32.000Z</time>
      </trkpt>
      <trkpt lat="45.00251" lon="6.03617">
        <ele>1723</ele>
        <time>2021-03-21T08:55:33.000Z</time>
      </trkpt>
      <trkpt lat="45.00251" lon="6.03617">
        <ele>1722.8000488281</ele>
        <time>2021-03-21T08:55:34.000Z</time>
      </trkpt>
      <trkpt lat="45.00251" lon="6.03618">
        <ele>1722.5999755859</ele>
        <time>2021-03-21T08:55:35.000Z</time>
      </trkpt>
      <trkpt lat="45.00251" lon="6.03618">
        <ele>1722.4000244141</ele>
        <time>2021-03-21T08:55:36.000Z</time>
      </trkpt>
      <trkpt lat="45.0025" lon="6.03619">
        <ele>1722.1999511719</ele>
        <time>2021-03-21T08:55:37.000Z</time>
      </trkpt>
      <trkpt lat="45.0025" lon="6.03619">
        <ele>1722</ele>
        <time>2021-03-21T08:55:38.000Z</time>
      </trkpt>
      <trkpt lat="45.0025" lon="6.03619">
        <ele>1721.8000488281</ele>
        <time>2021-03-21T08:55:39.000Z</time>
      </trkpt>
      <trkpt lat="45.0025" lon="6.0362">
        <ele>1721.8000488281</ele>
        <time>2021-03-21T08:55:40.000Z</time>
      </trkpt>
      <trkpt lat="45.0025" lon="6.0362">
        <ele>1721.8000488281</ele>
        <time>2021-03-21T08:55:41.000Z</time>
      </trkpt>
      <trkpt lat="45.0025" lon="6.0362">
        <ele>1721.8000488281</ele>
        <time>2021-03-21T08:55:42.000Z</time>
      </trkpt>
      <trkpt lat="45.0025" lon="6.0362">
        <ele>1721.8000488281</ele>
        <time>2021-03-21T08:55:43.000Z</time>
      </trkpt>
      <trkpt lat="45.00249" lon="6.03621">
        <ele>1721.5999755859</ele>
        <time>2021-03-21T08:55:44.000Z</time>
      </trkpt>
      <trkpt lat="45.00249" lon="6.03621">
        <ele>1721.4000244141</ele>
        <time>2021-03-21T08:55:45.000Z</time>
      </trkpt>
      <trkpt lat="45.00248" lon="6.03621">
        <ele>1721.4000244141</ele>
        <time>2021-03-21T08:55:46.000Z</time>
      </trkpt>
      <trkpt lat="45.00248" lon="6.03622">
        <ele>1721.1999511719</ele>
        <time>2021-03-21T08:55:47.000Z</time>
      </trkpt>
      <trkpt lat="45.00247" lon="6.03622">
        <ele>1721.1999511719</ele>
        <time>2021-03-21T08:55:48.000Z</time>
      </trkpt>
      <trkpt lat="45.00247" lon="6.03622">
        <ele>1721.1999511719</ele>
        <time>2021-03-21T08:55:49.000Z</time>
      </trkpt>
      <trkpt lat="45.00247" lon="6.03622">
        <ele>1721.1999511719</ele>
        <time>2021-03-21T08:55:50.000Z</time>
      </trkpt>
      <trkpt lat="45.00248" lon="6.03622">
        <ele>1721.4000244141</ele>
        <time>2021-03-21T08:55:51.000Z</time>
      </trkpt>
      <trkpt lat="45.00248" lon="6.03622">
        <ele>1721.5999755859</ele>
        <time>2021-03-21T08:55:52.000Z</time>
      </trkpt>
      <trkpt lat="45.00248" lon="6.03622">
        <ele>1721.5999755859</ele>
        <time>2021-03-21T08:55:53.000Z</time>
      </trkpt>
      <trkpt lat="45.00248" lon="6.03622">
        <ele>1721.5999755859</ele>
        <time>2021-03-21T08:55:54.000Z</time>
      </trkpt>
      <trkpt lat="45.00248" lon="6.03621">
        <ele>1721.5999755859</ele>
        <time>2021-03-21T08:55:55.000Z</time>
      </trkpt>
      <trkpt lat="45.00248" lon="6.03621">
        <ele>1721.5999755859</ele>
        <time>2021-03-21T08:55:56.000Z</time>
      </trkpt>
      <trkpt lat="45.00248" lon="6.03621">
        <ele>1721.8000488281</ele>
        <time>2021-03-21T08:55:57.000Z</time>
      </trkpt>
      <trkpt lat="45.00248" lon="6.03621">
        <ele>1721.8000488281</ele>
        <time>2021-03-21T08:55:58.000Z</time>
      </trkpt>
      <trkpt lat="45.00248" lon="6.03621">
        <ele>1721.8000488281</ele>
        <time>2021-03-21T08:55:59.000Z</time>
      </trkpt>
      <trkpt lat="45.00248" lon="6.03621">
        <ele>1721.8000488281</ele>
        <time>2021-03-21T08:56:00.000Z</time>
      </trkpt>
      <trkpt lat="45.00248" lon="6.03621">
        <ele>1721.8000488281</ele>
        <time>2021-03-21T08:56:01.000Z</time>
      </trkpt>
      <trkpt lat="45.00248" lon="6.03621">
        <ele>1722</ele>
        <time>2021-03-21T08:56:02.000Z</time>
      </trkpt>
      <trkpt lat="45.00247" lon="6.03621">
        <ele>1722</ele>
        <time>2021-03-21T08:56:03.000Z</time>
      </trkpt>
      <trkpt lat="45.00247" lon="6.03621">
        <ele>1722</ele>
        <time>2021-03-21T08:56:04.000Z</time>
      </trkpt>
      <trkpt lat="45.00248" lon="6.03621">
        <ele>1722</ele>
        <time>2021-03-21T08:56:05.000Z</time>
      </trkpt>
      <trkpt lat="45.00248" lon="6.0362">
        <ele>1722.1999511719</ele>
        <time>2021-03-21T08:56:06.000Z</time>
      </trkpt>
      <trkpt lat="45.00248" lon="6.0362">
        <ele>1722.1999511719</ele>
        <time>2021-03-21T08:56:07.000Z</time>
      </trkpt>
      <trkpt lat="45.00248" lon="6.0362">
        <ele>1722.1999511719</ele>
        <time>2021-03-21T08:56:08.000Z</time>
      </trkpt>
      <trkpt lat="45.00248" lon="6.0362">
        <ele>1722.1999511719</ele>
        <time>2021-03-21T08:56:09.000Z</time>
      </trkpt>
      <trkpt lat="45.00248" lon="6.0362">
        <ele>1722.1999511719</ele>
        <time>2021-03-21T08:56:10.000Z</time>
      </trkpt>
      <trkpt lat="45.00248" lon="6.0362">
        <ele>1722.1999511719</ele>
        <time>2021-03-21T08:56:11.000Z</time>
      </trkpt>
      <trkpt lat="45.00248" lon="6.0362">
        <ele>1722.1999511719</ele>
        <time>2021-03-21T08:56:12.000Z</time>
      </trkpt>
      <trkpt lat="45.00248" lon="6.0362">
        <ele>1722.1999511719</ele>
        <time>2021-03-21T08:56:13.000Z</time>
      </trkpt>
      <trkpt lat="45.00248" lon="6.0362">
        <ele>1722.1999511719</ele>
        <time>2021-03-21T08:56:14.000Z</time>
      </trkpt>
      <trkpt lat="45.00248" lon="6.0362">
        <ele>1722.4000244141</ele>
        <time>2021-03-21T08:56:15.000Z</time>
      </trkpt>
      <trkpt lat="45.00249" lon="6.0362">
        <ele>1722.1999511719</ele>
        <time>2021-03-21T08:56:16.000Z</time>
      </trkpt>
      <trkpt lat="45.00249" lon="6.0362">
        <ele>1722.1999511719</ele>
        <time>2021-03-21T08:56:17.000Z</time>
      </trkpt>
      <trkpt lat="45.00249" lon="6.03619">
        <ele>1722.1999511719</ele>
        <time>2021-03-21T08:56:18.000Z</time>
      </trkpt>
      <trkpt lat="45.00249" lon="6.03619">
        <ele>1722</ele>
        <time>2021-03-21T08:56:19.000Z</time>
      </trkpt>
      <trkpt lat="45.0025" lon="6.03619">
        <ele>1722.1999511719</ele>
        <time>2021-03-21T08:56:20.000Z</time>
      </trkpt>
      <trkpt lat="45.0025" lon="6.03618">
        <ele>1722.4000244141</ele>
        <time>2021-03-21T08:56:21.000Z</time>
      </trkpt>
      <trkpt lat="45.0025" lon="6.03618">
        <ele>1722.4000244141</ele>
        <time>2021-03-21T08:56:22.000Z</time>
      </trkpt>
      <trkpt lat="45.0025" lon="6.03618">
        <ele>1722.5999755859</ele>
        <time>2021-03-21T08:56:23.000Z</time>
      </trkpt>
      <trkpt lat="45.0025" lon="6.03618">
        <ele>1722.8000488281</ele>
        <time>2021-03-21T08:56:24.000Z</time>
      </trkpt>
      <trkpt lat="45.0025" lon="6.03618">
        <ele>1722.8000488281</ele>
        <time>2021-03-21T08:56:25.000Z</time>
      </trkpt>
      <trkpt lat="45.0025" lon="6.03617">
        <ele>1722.8000488281</ele>
        <time>2021-03-21T08:56:26.000Z</time>
      </trkpt>
      <trkpt lat="45.0025" lon="6.03617">
        <ele>1723</ele>
        <time>2021-03-21T08:56:27.000Z</time>
      </trkpt>
      <trkpt lat="45.0025" lon="6.03617">
        <ele>1723</ele>
        <time>2021-03-21T08:56:28.000Z</time>
      </trkpt>
      <trkpt lat="45.0025" lon="6.03617">
        <ele>1723</ele>
        <time>2021-03-21T08:56:29.000Z</time>
      </trkpt>
      <trkpt lat="45.00251" lon="6.03617">
        <ele>1723</ele>
        <time>2021-03-21T08:56:30.000Z</time>
      </trkpt>
      <trkpt lat="45.00251" lon="6.03617">
        <ele>1723</ele>
        <time>2021-03-21T08:56:31.000Z</time>
      </trkpt>
      <trkpt lat="45.00251" lon="6.03617">
        <ele>1723</ele>
        <time>2021-03-21T08:56:32.000Z</time>
      </trkpt>
      <trkpt lat="45.00251" lon="6.03617">
        <ele>1723</ele>
        <time>2021-03-21T08:56:33.000Z</time>
      </trkpt>
      <trkpt lat="45.00251" lon="6.03617">
        <ele>1723</ele>
        <time>2021-03-21T08:56:34.000Z</time>
      </trkpt>
      <trkpt lat="45.00251" lon="6.03617">
        <ele>1723</ele>
        <time>2021-03-21T08:56:35.000Z</time>
      </trkpt>
      <trkpt lat="45.00251" lon="6.03617">
        <ele>1723</ele>
        <time>2021-03-21T08:56:36.000Z</time>
      </trkpt>
      <trkpt lat="45.00251" lon="6.03617">
        <ele>1723.1999511719</ele>
        <time>2021-03-21T08:56:37.000Z</time>
      </trkpt>
      <trkpt lat="45.00251" lon="6.03616">
        <ele>1723.1999511719</ele>
        <time>2021-03-21T08:56:38.000Z</time>
      </trkpt>
      <trkpt lat="45.00251" lon="6.03616">
        <ele>1723.1999511719</ele>
        <time>2021-03-21T08:56:39.000Z</time>
      </trkpt>
      <trkpt lat="45.00251" lon="6.03616">
        <ele>1723.4000244141</ele>
        <time>2021-03-21T08:56:40.000Z</time>
      </trkpt>
      <trkpt lat="45.00251" lon="6.03616">
        <ele>1723.4000244141</ele>
        <time>2021-03-21T08:56:41.000Z</time>
      </trkpt>
      <trkpt lat="45.00251" lon="6.03616">
        <ele>1723.5999755859</ele>
        <time>2021-03-21T08:56:42.000Z</time>
      </trkpt>
      <trkpt lat="45.00251" lon="6.03615">
        <ele>1724</ele>
        <time>2021-03-21T08:56:43.000Z</time>
      </trkpt>
      <trkpt lat="45.0025" lon="6.03615">
        <ele>1724</ele>
        <time>2021-03-21T08:56:44.000Z</time>
      </trkpt>
      <trkpt lat="45.0025" lon="6.03615">
        <ele>1724.1999511719</ele>
        <time>2021-03-21T08:56:45.000Z</time>
      </trkpt>
      <trkpt lat="45.00249" lon="6.03615">
        <ele>1724.1999511719</ele>
        <time>2021-03-21T08:56:46.000Z</time>
      </trkpt>
      <trkpt lat="45.00248" lon="6.03615">
        <ele>1724.4000244141</ele>
        <time>2021-03-21T08:56:47.000Z</time>
      </trkpt>
      <trkpt lat="45.00248" lon="6.03616">
        <ele>1724.5999755859</ele>
        <time>2021-03-21T08:56:48.000Z</time>
      </trkpt>
      <trkpt lat="45.00247" lon="6.03616">
        <ele>1724.8000488281</ele>
        <time>2021-03-21T08:56:49.000Z</time>
      </trkpt>
      <trkpt lat="45.00247" lon="6.03615">
        <ele>1725</ele>
        <time>2021-03-21T08:56:50.000Z</time>
      </trkpt>
      <trkpt lat="45.00246" lon="6.03615">
        <ele>1725.1999511719</ele>
        <time>2021-03-21T08:56:51.000Z</time>
      </trkpt>
      <trkpt lat="45.00245" lon="6.03615">
        <ele>1725.8000488281</ele>
        <time>2021-03-21T08:56:52.000Z</time>
      </trkpt>
      <trkpt lat="45.00245" lon="6.03615">
        <ele>1726</ele>
        <time>2021-03-21T08:56:53.000Z</time>
      </trkpt>
      <trkpt lat="45.00244" lon="6.03615">
        <ele>1726.4000244141</ele>
        <time>2021-03-21T08:56:54.000Z</time>
      </trkpt>
      <trkpt lat="45.00243" lon="6.03614">
        <ele>1726.5999755859</ele>
        <time>2021-03-21T08:56:55.000Z</time>
      </trkpt>
      <trkpt lat="45.00243" lon="6.03614">
        <ele>1727</ele>
        <time>2021-03-21T08:56:56.000Z</time>
      </trkpt>
      <trkpt lat="45.00242" lon="6.03614">
        <ele>1727.1999511719</ele>
        <time>2021-03-21T08:56:57.000Z</time>
      </trkpt>
      <trkpt lat="45.00242" lon="6.03613">
        <ele>1727.5999755859</ele>
        <time>2021-03-21T08:56:58.000Z</time>
      </trkpt>
      <trkpt lat="45.00241" lon="6.03613">
        <ele>1728.1999511719</ele>
        <time>2021-03-21T08:56:59.000Z</time>
      </trkpt>
      <trkpt lat="45.0024" lon="6.03612">
        <ele>1728.5999755859</ele>
        <time>2021-03-21T08:57:00.000Z</time>
      </trkpt>
      <trkpt lat="45.0024" lon="6.03612">
        <ele>1728.8000488281</ele>
        <time>2021-03-21T08:57:01.000Z</time>
      </trkpt>
      <trkpt lat="45.00239" lon="6.03612">
        <ele>1729.1999511719</ele>
        <time>2021-03-21T08:57:02.000Z</time>
      </trkpt>
      <trkpt lat="45.00238" lon="6.03612">
        <ele>1729.4000244141</ele>
        <time>2021-03-21T08:57:03.000Z</time>
      </trkpt>
      <trkpt lat="45.00237" lon="6.03612">
        <ele>1729.8000488281</ele>
        <time>2021-03-21T08:57:04.000Z</time>
      </trkpt>
      <trkpt lat="45.00237" lon="6.03611">
        <ele>1730.1999511719</ele>
        <time>2021-03-21T08:57:05.000Z</time>
      </trkpt>
      <trkpt lat="45.00237" lon="6.03611">
        <ele>1730.5999755859</ele>
        <time>2021-03-21T08:57:06.000Z</time>
      </trkpt>
      <trkpt lat="45.00236" lon="6.0361">
        <ele>1731.1999511719</ele>
        <time>2021-03-21T08:57:07.000Z</time>
      </trkpt>
      <trkpt lat="45.00236" lon="6.03609">
        <ele>1731.5999755859</ele>
        <time>2021-03-21T08:57:08.000Z</time>
      </trkpt>
      <trkpt lat="45.00235" lon="6.03609">
        <ele>1732.1999511719</ele>
        <time>2021-03-21T08:57:09.000Z</time>
      </trkpt>
      <trkpt lat="45.00234" lon="6.03609">
        <ele>1732.4000244141</ele>
        <time>2021-03-21T08:57:10.000Z</time>
      </trkpt>
      <trkpt lat="45.00234" lon="6.03608">
        <ele>1732.8000488281</ele>
        <time>2021-03-21T08:57:11.000Z</time>
      </trkpt>
      <trkpt lat="45.00233" lon="6.03608">
        <ele>1733.1999511719</ele>
        <time>2021-03-21T08:57:12.000Z</time>
      </trkpt>
      <trkpt lat="45.00233" lon="6.03607">
        <ele>1733.5999755859</ele>
        <time>2021-03-21T08:57:13.000Z</time>
      </trkpt>
      <trkpt lat="45.00232" lon="6.03607">
        <ele>1734</ele>
        <time>2021-03-21T08:57:14.000Z</time>
      </trkpt>
      <trkpt lat="45.00232" lon="6.03606">
        <ele>1734.4000244141</ele>
        <time>2021-03-21T08:57:15.000Z</time>
      </trkpt>
      <trkpt lat="45.00231" lon="6.03606">
        <ele>1735</ele>
        <time>2021-03-21T08:57:16.000Z</time>
      </trkpt>
      <trkpt lat="45.0023" lon="6.03605">
        <ele>1735.4000244141</ele>
        <time>2021-03-21T08:57:17.000Z</time>
      </trkpt>
      <trkpt lat="45.0023" lon="6.03605">
        <ele>1735.5999755859</ele>
        <time>2021-03-21T08:57:18.000Z</time>
      </trkpt>
      <trkpt lat="45.00229" lon="6.03605">
        <ele>1736.1999511719</ele>
        <time>2021-03-21T08:57:19.000Z</time>
      </trkpt>
      <trkpt lat="45.00229" lon="6.03604">
        <ele>1736.5999755859</ele>
        <time>2021-03-21T08:57:20.000Z</time>
      </trkpt>
      <trkpt lat="45.00228" lon="6.03604">
        <ele>1737</ele>
        <time>2021-03-21T08:57:21.000Z</time>
      </trkpt>
      <trkpt lat="45.00227" lon="6.03604">
        <ele>1737.1999511719</ele>
        <time>2021-03-21T08:57:22.000Z</time>
      </trkpt>
      <trkpt lat="45.00226" lon="6.03603">
        <ele>1737.5999755859</ele>
        <time>2021-03-21T08:57:23.000Z</time>
      </trkpt>
      <trkpt lat="45.00226" lon="6.03603">
        <ele>1738.1999511719</ele>
        <time>2021-03-21T08:57:24.000Z</time>
      </trkpt>
      <trkpt lat="45.00225" lon="6.03603">
        <ele>1738.4000244141</ele>
        <time>2021-03-21T08:57:25.000Z</time>
      </trkpt>
      <trkpt lat="45.00225" lon="6.03602">
        <ele>1738.8000488281</ele>
        <time>2021-03-21T08:57:26.000Z</time>
      </trkpt>
      <trkpt lat="45.00224" lon="6.03602">
        <ele>1739</ele>
        <time>2021-03-21T08:57:27.000Z</time>
      </trkpt>
      <trkpt lat="45.00224" lon="6.03601">
        <ele>1739.4000244141</ele>
        <time>2021-03-21T08:57:28.000Z</time>
      </trkpt>
      <trkpt lat="45.00223" lon="6.03601">
        <ele>1739.8000488281</ele>
        <time>2021-03-21T08:57:29.000Z</time>
      </trkpt>
      <trkpt lat="45.00223" lon="6.03601">
        <ele>1740.1999511719</ele>
        <time>2021-03-21T08:57:30.000Z</time>
      </trkpt>
      <trkpt lat="45.00222" lon="6.036">
        <ele>1740.5999755859</ele>
        <time>2021-03-21T08:57:31.000Z</time>
      </trkpt>
      <trkpt lat="45.00222" lon="6.036">
        <ele>1741</ele>
        <time>2021-03-21T08:57:32.000Z</time>
      </trkpt>
      <trkpt lat="45.00221" lon="6.03599">
        <ele>1741.4000244141</ele>
        <time>2021-03-21T08:57:33.000Z</time>
      </trkpt>
      <trkpt lat="45.00221" lon="6.03599">
        <ele>1741.8000488281</ele>
        <time>2021-03-21T08:57:34.000Z</time>
      </trkpt>
      <trkpt lat="45.0022" lon="6.03598">
        <ele>1742.1999511719</ele>
        <time>2021-03-21T08:57:35.000Z</time>
      </trkpt>
      <trkpt lat="45.0022" lon="6.03598">
        <ele>1742.5999755859</ele>
        <time>2021-03-21T08:57:36.000Z</time>
      </trkpt>
      <trkpt lat="45.00219" lon="6.03597">
        <ele>1742.8000488281</ele>
        <time>2021-03-21T08:57:37.000Z</time>
      </trkpt>
      <trkpt lat="45.00219" lon="6.03596">
        <ele>1743.1999511719</ele>
        <time>2021-03-21T08:57:38.000Z</time>
      </trkpt>
      <trkpt lat="45.00218" lon="6.03596">
        <ele>1743.4000244141</ele>
        <time>2021-03-21T08:57:39.000Z</time>
      </trkpt>
      <trkpt lat="45.00218" lon="6.03595">
        <ele>1743.5999755859</ele>
        <time>2021-03-21T08:57:40.000Z</time>
      </trkpt>
      <trkpt lat="45.00218" lon="6.03595">
        <ele>1743.8000488281</ele>
        <time>2021-03-21T08:57:41.000Z</time>
      </trkpt>
      <trkpt lat="45.00217" lon="6.03594">
        <ele>1744.1999511719</ele>
        <time>2021-03-21T08:57:42.000Z</time>
      </trkpt>
      <trkpt lat="45.00217" lon="6.03594">
        <ele>1744.5999755859</ele>
        <time>2021-03-21T08:57:43.000Z</time>
      </trkpt>
      <trkpt lat="45.00216" lon="6.03593">
        <ele>1744.8000488281</ele>
        <time>2021-03-21T08:57:44.000Z</time>
      </trkpt>
      <trkpt lat="45.00216" lon="6.03593">
        <ele>1745</ele>
        <time>2021-03-21T08:57:45.000Z</time>
      </trkpt>
      <trkpt lat="45.00215" lon="6.03593">
        <ele>1745.1999511719</ele>
        <time>2021-03-21T08:57:46.000Z</time>
      </trkpt>
      <trkpt lat="45.00215" lon="6.03593">
        <ele>1745.4000244141</ele>
        <time>2021-03-21T08:57:47.000Z</time>
      </trkpt>
      <trkpt lat="45.00214" lon="6.03592">
        <ele>1745.5999755859</ele>
        <time>2021-03-21T08:57:48.000Z</time>
      </trkpt>
      <trkpt lat="45.00214" lon="6.03592">
        <ele>1745.8000488281</ele>
        <time>2021-03-21T08:57:49.000Z</time>
      </trkpt>
      <trkpt lat="45.00214" lon="6.03592">
        <ele>1746</ele>
        <time>2021-03-21T08:57:50.000Z</time>
      </trkpt>
      <trkpt lat="45.00213" lon="6.03591">
        <ele>1746.4000244141</ele>
        <time>2021-03-21T08:57:51.000Z</time>
      </trkpt>
      <trkpt lat="45.00213" lon="6.03591">
        <ele>1746.4000244141</ele>
        <time>2021-03-21T08:57:52.000Z</time>
      </trkpt>
      <trkpt lat="45.00212" lon="6.0359">
        <ele>1746.8000488281</ele>
        <time>2021-03-21T08:57:53.000Z</time>
      </trkpt>
      <trkpt lat="45.00212" lon="6.0359">
        <ele>1747</ele>
        <time>2021-03-21T08:57:54.000Z</time>
      </trkpt>
      <trkpt lat="45.00211" lon="6.0359">
        <ele>1747</ele>
        <time>2021-03-21T08:57:55.000Z</time>
      </trkpt>
      <trkpt lat="45.00211" lon="6.0359">
        <ele>1747.1999511719</ele>
        <time>2021-03-21T08:57:56.000Z</time>
      </trkpt>
      <trkpt lat="45.0021" lon="6.0359">
        <ele>1747.5999755859</ele>
        <time>2021-03-21T08:57:57.000Z</time>
      </trkpt>
      <trkpt lat="45.0021" lon="6.0359">
        <ele>1747.5999755859</ele>
        <time>2021-03-21T08:57:58.000Z</time>
      </trkpt>
      <trkpt lat="45.00209" lon="6.0359">
        <ele>1748</ele>
        <time>2021-03-21T08:57:59.000Z</time>
      </trkpt>
      <trkpt lat="45.00208" lon="6.0359">
        <ele>1748</ele>
        <time>2021-03-21T08:58:00.000Z</time>
      </trkpt>
      <trkpt lat="45.00208" lon="6.0359">
        <ele>1748.1999511719</ele>
        <time>2021-03-21T08:58:01.000Z</time>
      </trkpt>
      <trkpt lat="45.00207" lon="6.03589">
        <ele>1748.4000244141</ele>
        <time>2021-03-21T08:58:02.000Z</time>
      </trkpt>
      <trkpt lat="45.00207" lon="6.03589">
        <ele>1748.5999755859</ele>
        <time>2021-03-21T08:58:03.000Z</time>
      </trkpt>
      <trkpt lat="45.00206" lon="6.03589">
        <ele>1748.5999755859</ele>
        <time>2021-03-21T08:58:04.000Z</time>
      </trkpt>
      <trkpt lat="45.00206" lon="6.03589">
        <ele>1748.8000488281</ele>
        <time>2021-03-21T08:58:05.000Z</time>
      </trkpt>
      <trkpt lat="45.00205" lon="6.03589">
        <ele>1748.8000488281</ele>
        <time>2021-03-21T08:58:06.000Z</time>
      </trkpt>
      <trkpt lat="45.00205" lon="6.03588">
        <ele>1749</ele>
        <time>2021-03-21T08:58:07.000Z</time>
      </trkpt>
      <trkpt lat="45.00205" lon="6.03588">
        <ele>1749.1999511719</ele>
        <time>2021-03-21T08:58:08.000Z</time>
      </trkpt>
      <trkpt lat="45.00205" lon="6.03587">
        <ele>1749.4000244141</ele>
        <time>2021-03-21T08:58:09.000Z</time>
      </trkpt>
      <trkpt lat="45.00206" lon="6.03586">
        <ele>1749.4000244141</ele>
        <time>2021-03-21T08:58:10.000Z</time>
      </trkpt>
      <trkpt lat="45.00206" lon="6.03586">
        <ele>1749.4000244141</ele>
        <time>2021-03-21T08:58:11.000Z</time>
      </trkpt>
      <trkpt lat="45.00206" lon="6.03586">
        <ele>1749.5999755859</ele>
        <time>2021-03-21T08:58:12.000Z</time>
      </trkpt>
      <trkpt lat="45.00206" lon="6.03585">
        <ele>1749.8000488281</ele>
        <time>2021-03-21T08:58:13.000Z</time>
      </trkpt>
      <trkpt lat="45.00206" lon="6.03584">
        <ele>1749.8000488281</ele>
        <time>2021-03-21T08:58:14.000Z</time>
      </trkpt>
      <trkpt lat="45.00207" lon="6.03584">
        <ele>1749.8000488281</ele>
        <time>2021-03-21T08:58:15.000Z</time>
      </trkpt>
      <trkpt lat="45.00207" lon="6.03583">
        <ele>1750</ele>
        <time>2021-03-21T08:58:16.000Z</time>
      </trkpt>
      <trkpt lat="45.00207" lon="6.03583">
        <ele>1750.1999511719</ele>
        <time>2021-03-21T08:58:17.000Z</time>
      </trkpt>
      <trkpt lat="45.00208" lon="6.03582">
        <ele>1750.1999511719</ele>
        <time>2021-03-21T08:58:18.000Z</time>
      </trkpt>
      <trkpt lat="45.00208" lon="6.03581">
        <ele>1750.4000244141</ele>
        <time>2021-03-21T08:58:19.000Z</time>
      </trkpt>
      <trkpt lat="45.00209" lon="6.0358">
        <ele>1750.5999755859</ele>
        <time>2021-03-21T08:58:20.000Z</time>
      </trkpt>
      <trkpt lat="45.00209" lon="6.03579">
        <ele>1750.5999755859</ele>
        <time>2021-03-21T08:58:21.000Z</time>
      </trkpt>
      <trkpt lat="45.0021" lon="6.03579">
        <ele>1750.5999755859</ele>
        <time>2021-03-21T08:58:22.000Z</time>
      </trkpt>
      <trkpt lat="45.0021" lon="6.03578">
        <ele>1750.5999755859</ele>
        <time>2021-03-21T08:58:23.000Z</time>
      </trkpt>
      <trkpt lat="45.00211" lon="6.03577">
        <ele>1750.5999755859</ele>
        <time>2021-03-21T08:58:24.000Z</time>
      </trkpt>
      <trkpt lat="45.00211" lon="6.03576">
        <ele>1750.8000488281</ele>
        <time>2021-03-21T08:58:25.000Z</time>
      </trkpt>
      <trkpt lat="45.00211" lon="6.03576">
        <ele>1750.8000488281</ele>
        <time>2021-03-21T08:58:26.000Z</time>
      </trkpt>
      <trkpt lat="45.00212" lon="6.03575">
        <ele>1750.8000488281</ele>
        <time>2021-03-21T08:58:27.000Z</time>
      </trkpt>
      <trkpt lat="45.00212" lon="6.03574">
        <ele>1751</ele>
        <time>2021-03-21T08:58:28.000Z</time>
      </trkpt>
      <trkpt lat="45.00212" lon="6.03574">
        <ele>1751</ele>
        <time>2021-03-21T08:58:29.000Z</time>
      </trkpt>
      <trkpt lat="45.00213" lon="6.03573">
        <ele>1751.4000244141</ele>
        <time>2021-03-21T08:58:30.000Z</time>
      </trkpt>
      <trkpt lat="45.00213" lon="6.03572">
        <ele>1751.5999755859</ele>
        <time>2021-03-21T08:58:31.000Z</time>
      </trkpt>
      <trkpt lat="45.00214" lon="6.03571">
        <ele>1752</ele>
        <time>2021-03-21T08:58:32.000Z</time>
      </trkpt>
      <trkpt lat="45.00214" lon="6.0357">
        <ele>1752.1999511719</ele>
        <time>2021-03-21T08:58:33.000Z</time>
      </trkpt>
      <trkpt lat="45.00215" lon="6.03569">
        <ele>1752.4000244141</ele>
        <time>2021-03-21T08:58:34.000Z</time>
      </trkpt>
      <trkpt lat="45.00215" lon="6.03569">
        <ele>1752.5999755859</ele>
        <time>2021-03-21T08:58:35.000Z</time>
      </trkpt>
      <trkpt lat="45.00215" lon="6.03568">
        <ele>1752.8000488281</ele>
        <time>2021-03-21T08:58:36.000Z</time>
      </trkpt>
      <trkpt lat="45.00216" lon="6.03568">
        <ele>1753</ele>
        <time>2021-03-21T08:58:37.000Z</time>
      </trkpt>
      <trkpt lat="45.00216" lon="6.03567">
        <ele>1753</ele>
        <time>2021-03-21T08:58:38.000Z</time>
      </trkpt>
      <trkpt lat="45.00216" lon="6.03567">
        <ele>1753.1999511719</ele>
        <time>2021-03-21T08:58:39.000Z</time>
      </trkpt>
      <trkpt lat="45.00216" lon="6.03567">
        <ele>1753.1999511719</ele>
        <time>2021-03-21T08:58:40.000Z</time>
      </trkpt>
      <trkpt lat="45.00217" lon="6.03567">
        <ele>1753</ele>
        <time>2021-03-21T08:58:41.000Z</time>
      </trkpt>
      <trkpt lat="45.00217" lon="6.03567">
        <ele>1753</ele>
        <time>2021-03-21T08:58:42.000Z</time>
      </trkpt>
      <trkpt lat="45.00217" lon="6.03567">
        <ele>1752.8000488281</ele>
        <time>2021-03-21T08:58:43.000Z</time>
      </trkpt>
      <trkpt lat="45.00217" lon="6.03567">
        <ele>1752.8000488281</ele>
        <time>2021-03-21T08:58:44.000Z</time>
      </trkpt>
      <trkpt lat="45.00217" lon="6.03567">
        <ele>1753</ele>
        <time>2021-03-21T08:58:45.000Z</time>
      </trkpt>
      <trkpt lat="45.00217" lon="6.03567">
        <ele>1753</ele>
        <time>2021-03-21T08:58:46.000Z</time>
      </trkpt>
      <trkpt lat="45.00217" lon="6.03567">
        <ele>1753.1999511719</ele>
        <time>2021-03-21T08:58:47.000Z</time>
      </trkpt>
      <trkpt lat="45.00216" lon="6.03566">
        <ele>1753.5999755859</ele>
        <time>2021-03-21T08:58:48.000Z</time>
      </trkpt>
      <trkpt lat="45.00216" lon="6.03566">
        <ele>1753.5999755859</ele>
        <time>2021-03-21T08:58:49.000Z</time>
      </trkpt>
      <trkpt lat="45.00215" lon="6.03566">
        <ele>1753.8000488281</ele>
        <time>2021-03-21T08:58:50.000Z</time>
      </trkpt>
      <trkpt lat="45.00214" lon="6.03566">
        <ele>1754</ele>
        <time>2021-03-21T08:58:51.000Z</time>
      </trkpt>
      <trkpt lat="45.00214" lon="6.03565">
        <ele>1754.1999511719</ele>
        <time>2021-03-21T08:58:52.000Z</time>
      </trkpt>
      <trkpt lat="45.00213" lon="6.03565">
        <ele>1754.4000244141</ele>
        <time>2021-03-21T08:58:53.000Z</time>
      </trkpt>
      <trkpt lat="45.00212" lon="6.03565">
        <ele>1754.5999755859</ele>
        <time>2021-03-21T08:58:54.000Z</time>
      </trkpt>
      <trkpt lat="45.00211" lon="6.03565">
        <ele>1755</ele>
        <time>2021-03-21T08:58:55.000Z</time>
      </trkpt>
      <trkpt lat="45.0021" lon="6.03565">
        <ele>1755.1999511719</ele>
        <time>2021-03-21T08:58:56.000Z</time>
      </trkpt>
      <trkpt lat="45.0021" lon="6.03564">
        <ele>1755.4000244141</ele>
        <time>2021-03-21T08:58:57.000Z</time>
      </trkpt>
      <trkpt lat="45.00209" lon="6.03564">
        <ele>1755.5999755859</ele>
        <time>2021-03-21T08:58:58.000Z</time>
      </trkpt>
      <trkpt lat="45.00208" lon="6.03564">
        <ele>1755.8000488281</ele>
        <time>2021-03-21T08:58:59.000Z</time>
      </trkpt>
      <trkpt lat="45.00208" lon="6.03563">
        <ele>1756</ele>
        <time>2021-03-21T08:59:00.000Z</time>
      </trkpt>
      <trkpt lat="45.00207" lon="6.03563">
        <ele>1756</ele>
        <time>2021-03-21T08:59:01.000Z</time>
      </trkpt>
      <trkpt lat="45.00206" lon="6.03563">
        <ele>1756.1999511719</ele>
        <time>2021-03-21T08:59:02.000Z</time>
      </trkpt>
      <trkpt lat="45.00205" lon="6.03563">
        <ele>1756.1999511719</ele>
        <time>2021-03-21T08:59:03.000Z</time>
      </trkpt>
      <trkpt lat="45.00205" lon="6.03563">
        <ele>1756.1999511719</ele>
        <time>2021-03-21T08:59:04.000Z</time>
      </trkpt>
      <trkpt lat="45.00205" lon="6.03562">
        <ele>1756.4000244141</ele>
        <time>2021-03-21T08:59:05.000Z</time>
      </trkpt>
      <trkpt lat="45.00204" lon="6.03563">
        <ele>1756</ele>
        <time>2021-03-21T08:59:06.000Z</time>
      </trkpt>
      <trkpt lat="45.00203" lon="6.03563">
        <ele>1756.1999511719</ele>
        <time>2021-03-21T08:59:07.000Z</time>
      </trkpt>
      <trkpt lat="45.00202" lon="6.03563">
        <ele>1756.1999511719</ele>
        <time>2021-03-21T08:59:08.000Z</time>
      </trkpt>
      <trkpt lat="45.00202" lon="6.03563">
        <ele>1756.1999511719</ele>
        <time>2021-03-21T08:59:09.000Z</time>
      </trkpt>
      <trkpt lat="45.00201" lon="6.03563">
        <ele>1756.1999511719</ele>
        <time>2021-03-21T08:59:10.000Z</time>
      </trkpt>
      <trkpt lat="45.002" lon="6.03562">
        <ele>1756.4000244141</ele>
        <time>2021-03-21T08:59:11.000Z</time>
      </trkpt>
      <trkpt lat="45.002" lon="6.03562">
        <ele>1756.5999755859</ele>
        <time>2021-03-21T08:59:12.000Z</time>
      </trkpt>
      <trkpt lat="45.00199" lon="6.03561">
        <ele>1756.5999755859</ele>
        <time>2021-03-21T08:59:13.000Z</time>
      </trkpt>
      <trkpt lat="45.00199" lon="6.03561">
        <ele>1756.8000488281</ele>
        <time>2021-03-21T08:59:14.000Z</time>
      </trkpt>
      <trkpt lat="45.00198" lon="6.0356">
        <ele>1757</ele>
        <time>2021-03-21T08:59:15.000Z</time>
      </trkpt>
      <trkpt lat="45.00197" lon="6.0356">
        <ele>1757.1999511719</ele>
        <time>2021-03-21T08:59:16.000Z</time>
      </trkpt>
      <trkpt lat="45.00197" lon="6.03559">
        <ele>1757.5999755859</ele>
        <time>2021-03-21T08:59:17.000Z</time>
      </trkpt>
      <trkpt lat="45.00196" lon="6.03559">
        <ele>1757.8000488281</ele>
        <time>2021-03-21T08:59:18.000Z</time>
      </trkpt>
      <trkpt lat="45.00196" lon="6.03558">
        <ele>1758</ele>
        <time>2021-03-21T08:59:19.000Z</time>
      </trkpt>
      <trkpt lat="45.00195" lon="6.03557">
        <ele>1758.4000244141</ele>
        <time>2021-03-21T08:59:20.000Z</time>
      </trkpt>
      <trkpt lat="45.00195" lon="6.03557">
        <ele>1758.4000244141</ele>
        <time>2021-03-21T08:59:21.000Z</time>
      </trkpt>
      <trkpt lat="45.00195" lon="6.03556">
        <ele>1759</ele>
        <time>2021-03-21T08:59:22.000Z</time>
      </trkpt>
      <trkpt lat="45.00195" lon="6.03555">
        <ele>1759.4000244141</ele>
        <time>2021-03-21T08:59:23.000Z</time>
      </trkpt>
      <trkpt lat="45.00195" lon="6.03554">
        <ele>1759.5999755859</ele>
        <time>2021-03-21T08:59:24.000Z</time>
      </trkpt>
      <trkpt lat="45.00196" lon="6.03553">
        <ele>1760</ele>
        <time>2021-03-21T08:59:25.000Z</time>
      </trkpt>
      <trkpt lat="45.00196" lon="6.03553">
        <ele>1760.1999511719</ele>
        <time>2021-03-21T08:59:26.000Z</time>
      </trkpt>
      <trkpt lat="45.00197" lon="6.03553">
        <ele>1760.4000244141</ele>
        <time>2021-03-21T08:59:27.000Z</time>
      </trkpt>
      <trkpt lat="45.00197" lon="6.03552">
        <ele>1760.5999755859</ele>
        <time>2021-03-21T08:59:28.000Z</time>
      </trkpt>
      <trkpt lat="45.00198" lon="6.03551">
        <ele>1761</ele>
        <time>2021-03-21T08:59:29.000Z</time>
      </trkpt>
      <trkpt lat="45.00198" lon="6.0355">
        <ele>1761.4000244141</ele>
        <time>2021-03-21T08:59:30.000Z</time>
      </trkpt>
      <trkpt lat="45.00199" lon="6.03549">
        <ele>1761.8000488281</ele>
        <time>2021-03-21T08:59:31.000Z</time>
      </trkpt>
      <trkpt lat="45.002" lon="6.03549">
        <ele>1762.1999511719</ele>
        <time>2021-03-21T08:59:32.000Z</time>
      </trkpt>
      <trkpt lat="45.002" lon="6.03548">
        <ele>1762.4000244141</ele>
        <time>2021-03-21T08:59:33.000Z</time>
      </trkpt>
      <trkpt lat="45.00201" lon="6.03547">
        <ele>1762.8000488281</ele>
        <time>2021-03-21T08:59:34.000Z</time>
      </trkpt>
      <trkpt lat="45.00201" lon="6.03546">
        <ele>1763.1999511719</ele>
        <time>2021-03-21T08:59:35.000Z</time>
      </trkpt>
      <trkpt lat="45.00202" lon="6.03546">
        <ele>1763.5999755859</ele>
        <time>2021-03-21T08:59:36.000Z</time>
      </trkpt>
      <trkpt lat="45.00203" lon="6.03545">
        <ele>1763.8000488281</ele>
        <time>2021-03-21T08:59:37.000Z</time>
      </trkpt>
      <trkpt lat="45.00203" lon="6.03545">
        <ele>1764</ele>
        <time>2021-03-21T08:59:38.000Z</time>
      </trkpt>
      <trkpt lat="45.00204" lon="6.03544">
        <ele>1764.1999511719</ele>
        <time>2021-03-21T08:59:39.000Z</time>
      </trkpt>
      <trkpt lat="45.00205" lon="6.03544">
        <ele>1764.4000244141</ele>
        <time>2021-03-21T08:59:40.000Z</time>
      </trkpt>
      <trkpt lat="45.00205" lon="6.03543">
        <ele>1764.5999755859</ele>
        <time>2021-03-21T08:59:41.000Z</time>
      </trkpt>
      <trkpt lat="45.00206" lon="6.03543">
        <ele>1765</ele>
        <time>2021-03-21T08:59:42.000Z</time>
      </trkpt>
      <trkpt lat="45.00206" lon="6.03542">
        <ele>1765.1999511719</ele>
        <time>2021-03-21T08:59:43.000Z</time>
      </trkpt>
      <trkpt lat="45.00207" lon="6.03541">
        <ele>1765.5999755859</ele>
        <time>2021-03-21T08:59:44.000Z</time>
      </trkpt>
      <trkpt lat="45.00208" lon="6.03541">
        <ele>1765.5999755859</ele>
        <time>2021-03-21T08:59:45.000Z</time>
      </trkpt>
      <trkpt lat="45.00208" lon="6.03541">
        <ele>1765.5999755859</ele>
        <time>2021-03-21T08:59:46.000Z</time>
      </trkpt>
      <trkpt lat="45.00209" lon="6.0354">
        <ele>1765.5999755859</ele>
        <time>2021-03-21T08:59:47.000Z</time>
      </trkpt>
      <trkpt lat="45.0021" lon="6.0354">
        <ele>1765.5999755859</ele>
        <time>2021-03-21T08:59:48.000Z</time>
      </trkpt>
      <trkpt lat="45.0021" lon="6.03539">
        <ele>1765.8000488281</ele>
        <time>2021-03-21T08:59:49.000Z</time>
      </trkpt>
      <trkpt lat="45.00211" lon="6.03538">
        <ele>1765.8000488281</ele>
        <time>2021-03-21T08:59:50.000Z</time>
      </trkpt>
      <trkpt lat="45.00211" lon="6.03538">
        <ele>1765.8000488281</ele>
        <time>2021-03-21T08:59:51.000Z</time>
      </trkpt>
      <trkpt lat="45.00212" lon="6.03537">
        <ele>1766</ele>
        <time>2021-03-21T08:59:52.000Z</time>
      </trkpt>
      <trkpt lat="45.00213" lon="6.03536">
        <ele>1766</ele>
        <time>2021-03-21T08:59:53.000Z</time>
      </trkpt>
      <trkpt lat="45.00214" lon="6.03535">
        <ele>1766.1999511719</ele>
        <time>2021-03-21T08:59:54.000Z</time>
      </trkpt>
      <trkpt lat="45.00214" lon="6.03534">
        <ele>1766.1999511719</ele>
        <time>2021-03-21T08:59:55.000Z</time>
      </trkpt>
      <trkpt lat="45.00215" lon="6.03534">
        <ele>1766.1999511719</ele>
        <time>2021-03-21T08:59:56.000Z</time>
      </trkpt>
      <trkpt lat="45.00215" lon="6.03533">
        <ele>1766.1999511719</ele>
        <time>2021-03-21T08:59:57.000Z</time>
      </trkpt>
      <trkpt lat="45.00216" lon="6.03532">
        <ele>1766.1999511719</ele>
        <time>2021-03-21T08:59:58.000Z</time>
      </trkpt>
      <trkpt lat="45.00217" lon="6.03531">
        <ele>1766.4000244141</ele>
        <time>2021-03-21T08:59:59.000Z</time>
      </trkpt>
      <trkpt lat="45.00218" lon="6.03531">
        <ele>1766.4000244141</ele>
        <time>2021-03-21T09:00:00.000Z</time>
      </trkpt>
      <trkpt lat="45.00219" lon="6.0353">
        <ele>1766.5999755859</ele>
        <time>2021-03-21T09:00:01.000Z</time>
      </trkpt>
      <trkpt lat="45.00219" lon="6.03529">
        <ele>1766.5999755859</ele>
        <time>2021-03-21T09:00:02.000Z</time>
      </trkpt>
      <trkpt lat="45.0022" lon="6.03529">
        <ele>1766.5999755859</ele>
        <time>2021-03-21T09:00:03.000Z</time>
      </trkpt>
      <trkpt lat="45.0022" lon="6.03528">
        <ele>1766.5999755859</ele>
        <time>2021-03-21T09:00:04.000Z</time>
      </trkpt>
      <trkpt lat="45.00221" lon="6.03528">
        <ele>1766.5999755859</ele>
        <time>2021-03-21T09:00:05.000Z</time>
      </trkpt>
      <trkpt lat="45.00221" lon="6.03527">
        <ele>1767</ele>
        <time>2021-03-21T09:00:06.000Z</time>
      </trkpt>
      <trkpt lat="45.00222" lon="6.03526">
        <ele>1767.4000244141</ele>
        <time>2021-03-21T09:00:07.000Z</time>
      </trkpt>
      <trkpt lat="45.00222" lon="6.03525">
        <ele>1768</ele>
        <time>2021-03-21T09:00:08.000Z</time>
      </trkpt>
      <trkpt lat="45.00223" lon="6.03525">
        <ele>1768.4000244141</ele>
        <time>2021-03-21T09:00:09.000Z</time>
      </trkpt>
      <trkpt lat="45.00223" lon="6.03524">
        <ele>1768.8000488281</ele>
        <time>2021-03-21T09:00:10.000Z</time>
      </trkpt>
      <trkpt lat="45.00224" lon="6.03523">
        <ele>1769.1999511719</ele>
        <time>2021-03-21T09:00:11.000Z</time>
      </trkpt>
      <trkpt lat="45.00225" lon="6.03523">
        <ele>1769.4000244141</ele>
        <time>2021-03-21T09:00:12.000Z</time>
      </trkpt>
      <trkpt lat="45.00225" lon="6.03522">
        <ele>1769.5999755859</ele>
        <time>2021-03-21T09:00:13.000Z</time>
      </trkpt>
      <trkpt lat="45.00225" lon="6.03522">
        <ele>1770</ele>
        <time>2021-03-21T09:00:14.000Z</time>
      </trkpt>
      <trkpt lat="45.00226" lon="6.03521">
        <ele>1770.1999511719</ele>
        <time>2021-03-21T09:00:15.000Z</time>
      </trkpt>
      <trkpt lat="45.00226" lon="6.03521">
        <ele>1770.5999755859</ele>
        <time>2021-03-21T09:00:16.000Z</time>
      </trkpt>
      <trkpt lat="45.00226" lon="6.03521">
        <ele>1770.5999755859</ele>
        <time>2021-03-21T09:00:17.000Z</time>
      </trkpt>
      <trkpt lat="45.00227" lon="6.0352">
        <ele>1770.8000488281</ele>
        <time>2021-03-21T09:00:18.000Z</time>
      </trkpt>
      <trkpt lat="45.00227" lon="6.0352">
        <ele>1771</ele>
        <time>2021-03-21T09:00:19.000Z</time>
      </trkpt>
      <trkpt lat="45.00228" lon="6.0352">
        <ele>1771</ele>
        <time>2021-03-21T09:00:20.000Z</time>
      </trkpt>
      <trkpt lat="45.00228" lon="6.0352">
        <ele>1771.1999511719</ele>
        <time>2021-03-21T09:00:21.000Z</time>
      </trkpt>
      <trkpt lat="45.00229" lon="6.03519">
        <ele>1771.4000244141</ele>
        <time>2021-03-21T09:00:22.000Z</time>
      </trkpt>
      <trkpt lat="45.00229" lon="6.03519">
        <ele>1771.4000244141</ele>
        <time>2021-03-21T09:00:23.000Z</time>
      </trkpt>
      <trkpt lat="45.00229" lon="6.03519">
        <ele>1771.5999755859</ele>
        <time>2021-03-21T09:00:24.000Z</time>
      </trkpt>
      <trkpt lat="45.0023" lon="6.03518">
        <ele>1772</ele>
        <time>2021-03-21T09:00:25.000Z</time>
      </trkpt>
      <trkpt lat="45.0023" lon="6.03518">
        <ele>1772.1999511719</ele>
        <time>2021-03-21T09:00:26.000Z</time>
      </trkpt>
      <trkpt lat="45.00231" lon="6.03517">
        <ele>1772.8000488281</ele>
        <time>2021-03-21T09:00:27.000Z</time>
      </trkpt>
      <trkpt lat="45.00231" lon="6.03516">
        <ele>1773.1999511719</ele>
        <time>2021-03-21T09:00:28.000Z</time>
      </trkpt>
      <trkpt lat="45.00231" lon="6.03516">
        <ele>1773.4000244141</ele>
        <time>2021-03-21T09:00:29.000Z</time>
      </trkpt>
      <trkpt lat="45.00232" lon="6.03515">
        <ele>1774</ele>
        <time>2021-03-21T09:00:30.000Z</time>
      </trkpt>
      <trkpt lat="45.00232" lon="6.03514">
        <ele>1774</ele>
        <time>2021-03-21T09:00:31.000Z</time>
      </trkpt>
      <trkpt lat="45.00233" lon="6.03514">
        <ele>1774.1999511719</ele>
        <time>2021-03-21T09:00:32.000Z</time>
      </trkpt>
      <trkpt lat="45.00233" lon="6.03513">
        <ele>1774.4000244141</ele>
        <time>2021-03-21T09:00:33.000Z</time>
      </trkpt>
      <trkpt lat="45.00234" lon="6.03512">
        <ele>1774.8000488281</ele>
        <time>2021-03-21T09:00:34.000Z</time>
      </trkpt>
      <trkpt lat="45.00234" lon="6.03512">
        <ele>1775</ele>
        <time>2021-03-21T09:00:35.000Z</time>
      </trkpt>
      <trkpt lat="45.00235" lon="6.03511">
        <ele>1775</ele>
        <time>2021-03-21T09:00:36.000Z</time>
      </trkpt>
      <trkpt lat="45.00235" lon="6.03511">
        <ele>1775.1999511719</ele>
        <time>2021-03-21T09:00:37.000Z</time>
      </trkpt>
      <trkpt lat="45.00236" lon="6.0351">
        <ele>1775.4000244141</ele>
        <time>2021-03-21T09:00:38.000Z</time>
      </trkpt>
      <trkpt lat="45.00237" lon="6.0351">
        <ele>1775.5999755859</ele>
        <time>2021-03-21T09:00:39.000Z</time>
      </trkpt>
      <trkpt lat="45.00237" lon="6.03509">
        <ele>1775.8000488281</ele>
        <time>2021-03-21T09:00:40.000Z</time>
      </trkpt>
      <trkpt lat="45.00238" lon="6.03508">
        <ele>1776</ele>
        <time>2021-03-21T09:00:41.000Z</time>
      </trkpt>
      <trkpt lat="45.00238" lon="6.03508">
        <ele>1776.4000244141</ele>
        <time>2021-03-21T09:00:42.000Z</time>
      </trkpt>
      <trkpt lat="45.00239" lon="6.03507">
        <ele>1776.5999755859</ele>
        <time>2021-03-21T09:00:43.000Z</time>
      </trkpt>
      <trkpt lat="45.00239" lon="6.03506">
        <ele>1776.8000488281</ele>
        <time>2021-03-21T09:00:44.000Z</time>
      </trkpt>
      <trkpt lat="45.0024" lon="6.03506">
        <ele>1776.8000488281</ele>
        <time>2021-03-21T09:00:45.000Z</time>
      </trkpt>
      <trkpt lat="45.00241" lon="6.03504">
        <ele>1777.1999511719</ele>
        <time>2021-03-21T09:00:46.000Z</time>
      </trkpt>
      <trkpt lat="45.00241" lon="6.03504">
        <ele>1777.4000244141</ele>
        <time>2021-03-21T09:00:47.000Z</time>
      </trkpt>
      <trkpt lat="45.00242" lon="6.03503">
        <ele>1777.8000488281</ele>
        <time>2021-03-21T09:00:48.000Z</time>
      </trkpt>
      <trkpt lat="45.00242" lon="6.03502">
        <ele>1778</ele>
        <time>2021-03-21T09:00:49.000Z</time>
      </trkpt>
      <trkpt lat="45.00242" lon="6.03502">
        <ele>1778</ele>
        <time>2021-03-21T09:00:50.000Z</time>
      </trkpt>
      <trkpt lat="45.00243" lon="6.03501">
        <ele>1778.1999511719</ele>
        <time>2021-03-21T09:00:51.000Z</time>
      </trkpt>
      <trkpt lat="45.00243" lon="6.03501">
        <ele>1778.4000244141</ele>
        <time>2021-03-21T09:00:52.000Z</time>
      </trkpt>
      <trkpt lat="45.00244" lon="6.035">
        <ele>1778.5999755859</ele>
        <time>2021-03-21T09:00:53.000Z</time>
      </trkpt>
      <trkpt lat="45.00244" lon="6.03499">
        <ele>1778.8000488281</ele>
        <time>2021-03-21T09:00:54.000Z</time>
      </trkpt>
      <trkpt lat="45.00245" lon="6.03499">
        <ele>1778.8000488281</ele>
        <time>2021-03-21T09:00:55.000Z</time>
      </trkpt>
      <trkpt lat="45.00245" lon="6.03498">
        <ele>1779.1999511719</ele>
        <time>2021-03-21T09:00:56.000Z</time>
      </trkpt>
      <trkpt lat="45.00245" lon="6.03498">
        <ele>1779.4000244141</ele>
        <time>2021-03-21T09:00:57.000Z</time>
      </trkpt>
      <trkpt lat="45.00246" lon="6.03497">
        <ele>1779.5999755859</ele>
        <time>2021-03-21T09:00:58.000Z</time>
      </trkpt>
      <trkpt lat="45.00246" lon="6.03496">
        <ele>1779.8000488281</ele>
        <time>2021-03-21T09:00:59.000Z</time>
      </trkpt>
      <trkpt lat="45.00247" lon="6.03495">
        <ele>1780</ele>
        <time>2021-03-21T09:01:00.000Z</time>
      </trkpt>
      <trkpt lat="45.00247" lon="6.03495">
        <ele>1780.4000244141</ele>
        <time>2021-03-21T09:01:01.000Z</time>
      </trkpt>
      <trkpt lat="45.00247" lon="6.03495">
        <ele>1780.4000244141</ele>
        <time>2021-03-21T09:01:02.000Z</time>
      </trkpt>
      <trkpt lat="45.00248" lon="6.03494">
        <ele>1780.8000488281</ele>
        <time>2021-03-21T09:01:03.000Z</time>
      </trkpt>
      <trkpt lat="45.00249" lon="6.03494">
        <ele>1780.8000488281</ele>
        <time>2021-03-21T09:01:04.000Z</time>
      </trkpt>
      <trkpt lat="45.00249" lon="6.03493">
        <ele>1781</ele>
        <time>2021-03-21T09:01:05.000Z</time>
      </trkpt>
      <trkpt lat="45.00249" lon="6.03493">
        <ele>1781.1999511719</ele>
        <time>2021-03-21T09:01:06.000Z</time>
      </trkpt>
      <trkpt lat="45.0025" lon="6.03493">
        <ele>1781.1999511719</ele>
        <time>2021-03-21T09:01:07.000Z</time>
      </trkpt>
      <trkpt lat="45.0025" lon="6.03493">
        <ele>1781</ele>
        <time>2021-03-21T09:01:08.000Z</time>
      </trkpt>
      <trkpt lat="45.0025" lon="6.03494">
        <ele>1780.8000488281</ele>
        <time>2021-03-21T09:01:09.000Z</time>
      </trkpt>
      <trkpt lat="45.00251" lon="6.03494">
        <ele>1780.8000488281</ele>
        <time>2021-03-21T09:01:10.000Z</time>
      </trkpt>
      <trkpt lat="45.0025" lon="6.03493">
        <ele>1781</ele>
        <time>2021-03-21T09:01:11.000Z</time>
      </trkpt>
      <trkpt lat="45.0025" lon="6.03494">
        <ele>1780.8000488281</ele>
        <time>2021-03-21T09:01:12.000Z</time>
      </trkpt>
      <trkpt lat="45.0025" lon="6.03494">
        <ele>1780.8000488281</ele>
        <time>2021-03-21T09:01:13.000Z</time>
      </trkpt>
      <trkpt lat="45.0025" lon="6.03494">
        <ele>1781</ele>
        <time>2021-03-21T09:01:14.000Z</time>
      </trkpt>
      <trkpt lat="45.0025" lon="6.03493">
        <ele>1781.1999511719</ele>
        <time>2021-03-21T09:01:15.000Z</time>
      </trkpt>
      <trkpt lat="45.00249" lon="6.03493">
        <ele>1781.1999511719</ele>
        <time>2021-03-21T09:01:16.000Z</time>
      </trkpt>
      <trkpt lat="45.00249" lon="6.03493">
        <ele>1781.4000244141</ele>
        <time>2021-03-21T09:01:17.000Z</time>
      </trkpt>
      <trkpt lat="45.00248" lon="6.03492">
        <ele>1781.4000244141</ele>
        <time>2021-03-21T09:01:18.000Z</time>
      </trkpt>
      <trkpt lat="45.00248" lon="6.03492">
        <ele>1781.5999755859</ele>
        <time>2021-03-21T09:01:19.000Z</time>
      </trkpt>
      <trkpt lat="45.00248" lon="6.03491">
        <ele>1781.8000488281</ele>
        <time>2021-03-21T09:01:20.000Z</time>
      </trkpt>
      <trkpt lat="45.00247" lon="6.03491">
        <ele>1782</ele>
        <time>2021-03-21T09:01:21.000Z</time>
      </trkpt>
      <trkpt lat="45.00247" lon="6.03491">
        <ele>1782</ele>
        <time>2021-03-21T09:01:22.000Z</time>
      </trkpt>
      <trkpt lat="45.00246" lon="6.0349">
        <ele>1782.1999511719</ele>
        <time>2021-03-21T09:01:23.000Z</time>
      </trkpt>
      <trkpt lat="45.00246" lon="6.03489">
        <ele>1782.4000244141</ele>
        <time>2021-03-21T09:01:24.000Z</time>
      </trkpt>
      <trkpt lat="45.00245" lon="6.03488">
        <ele>1782.8000488281</ele>
        <time>2021-03-21T09:01:25.000Z</time>
      </trkpt>
      <trkpt lat="45.00245" lon="6.03488">
        <ele>1782.8000488281</ele>
        <time>2021-03-21T09:01:26.000Z</time>
      </trkpt>
      <trkpt lat="45.00244" lon="6.03488">
        <ele>1783</ele>
        <time>2021-03-21T09:01:27.000Z</time>
      </trkpt>
      <trkpt lat="45.00244" lon="6.03487">
        <ele>1783.1999511719</ele>
        <time>2021-03-21T09:01:28.000Z</time>
      </trkpt>
      <trkpt lat="45.00243" lon="6.03487">
        <ele>1783.4000244141</ele>
        <time>2021-03-21T09:01:29.000Z</time>
      </trkpt>
      <trkpt lat="45.00243" lon="6.03487">
        <ele>1783.4000244141</ele>
        <time>2021-03-21T09:01:30.000Z</time>
      </trkpt>
      <trkpt lat="45.00243" lon="6.03486">
        <ele>1783.5999755859</ele>
        <time>2021-03-21T09:01:31.000Z</time>
      </trkpt>
      <trkpt lat="45.00242" lon="6.03486">
        <ele>1783.5999755859</ele>
        <time>2021-03-21T09:01:32.000Z</time>
      </trkpt>
      <trkpt lat="45.00241" lon="6.03487">
        <ele>1783.4000244141</ele>
        <time>2021-03-21T09:01:33.000Z</time>
      </trkpt>
      <trkpt lat="45.0024" lon="6.03487">
        <ele>1783.4000244141</ele>
        <time>2021-03-21T09:01:34.000Z</time>
      </trkpt>
      <trkpt lat="45.0024" lon="6.03487">
        <ele>1783.1999511719</ele>
        <time>2021-03-21T09:01:35.000Z</time>
      </trkpt>
      <trkpt lat="45.00239" lon="6.03487">
        <ele>1783.1999511719</ele>
        <time>2021-03-21T09:01:36.000Z</time>
      </trkpt>
      <trkpt lat="45.00238" lon="6.03487">
        <ele>1783.1999511719</ele>
        <time>2021-03-21T09:01:37.000Z</time>
      </trkpt>
      <trkpt lat="45.00238" lon="6.03487">
        <ele>1783.1999511719</ele>
        <time>2021-03-21T09:01:38.000Z</time>
      </trkpt>
      <trkpt lat="45.00237" lon="6.03487">
        <ele>1783.1999511719</ele>
        <time>2021-03-21T09:01:39.000Z</time>
      </trkpt>
      <trkpt lat="45.00236" lon="6.03486">
        <ele>1783.1999511719</ele>
        <time>2021-03-21T09:01:40.000Z</time>
      </trkpt>
      <trkpt lat="45.00236" lon="6.03486">
        <ele>1783.4000244141</ele>
        <time>2021-03-21T09:01:41.000Z</time>
      </trkpt>
      <trkpt lat="45.00235" lon="6.03486">
        <ele>1783.4000244141</ele>
        <time>2021-03-21T09:01:42.000Z</time>
      </trkpt>
      <trkpt lat="45.00234" lon="6.03486">
        <ele>1783.4000244141</ele>
        <time>2021-03-21T09:01:43.000Z</time>
      </trkpt>
      <trkpt lat="45.00234" lon="6.03486">
        <ele>1783.4000244141</ele>
        <time>2021-03-21T09:01:44.000Z</time>
      </trkpt>
      <trkpt lat="45.00233" lon="6.03485">
        <ele>1783.4000244141</ele>
        <time>2021-03-21T09:01:45.000Z</time>
      </trkpt>
      <trkpt lat="45.00232" lon="6.03485">
        <ele>1783.4000244141</ele>
        <time>2021-03-21T09:01:46.000Z</time>
      </trkpt>
      <trkpt lat="45.00232" lon="6.03485">
        <ele>1783.4000244141</ele>
        <time>2021-03-21T09:01:47.000Z</time>
      </trkpt>
      <trkpt lat="45.00231" lon="6.03485">
        <ele>1783.4000244141</ele>
        <time>2021-03-21T09:01:48.000Z</time>
      </trkpt>
      <trkpt lat="45.00231" lon="6.03485">
        <ele>1783.4000244141</ele>
        <time>2021-03-21T09:01:49.000Z</time>
      </trkpt>
      <trkpt lat="45.0023" lon="6.03485">
        <ele>1783.4000244141</ele>
        <time>2021-03-21T09:01:50.000Z</time>
      </trkpt>
      <trkpt lat="45.00229" lon="6.03485">
        <ele>1783.4000244141</ele>
        <time>2021-03-21T09:01:51.000Z</time>
      </trkpt>
      <trkpt lat="45.00228" lon="6.03484">
        <ele>1783.5999755859</ele>
        <time>2021-03-21T09:01:52.000Z</time>
      </trkpt>
      <trkpt lat="45.00228" lon="6.03484">
        <ele>1783.5999755859</ele>
        <time>2021-03-21T09:01:53.000Z</time>
      </trkpt>
      <trkpt lat="45.00227" lon="6.03484">
        <ele>1783.5999755859</ele>
        <time>2021-03-21T09:01:54.000Z</time>
      </trkpt>
      <trkpt lat="45.00226" lon="6.03484">
        <ele>1783.5999755859</ele>
        <time>2021-03-21T09:01:55.000Z</time>
      </trkpt>
      <trkpt lat="45.00226" lon="6.03484">
        <ele>1783.5999755859</ele>
        <time>2021-03-21T09:01:56.000Z</time>
      </trkpt>
      <trkpt lat="45.00225" lon="6.03483">
        <ele>1783.5999755859</ele>
        <time>2021-03-21T09:01:57.000Z</time>
      </trkpt>
      <trkpt lat="45.00225" lon="6.03483">
        <ele>1783.8000488281</ele>
        <time>2021-03-21T09:01:58.000Z</time>
      </trkpt>
      <trkpt lat="45.00224" lon="6.03483">
        <ele>1783.8000488281</ele>
        <time>2021-03-21T09:01:59.000Z</time>
      </trkpt>
      <trkpt lat="45.00223" lon="6.03483">
        <ele>1783.8000488281</ele>
        <time>2021-03-21T09:02:00.000Z</time>
      </trkpt>
      <trkpt lat="45.00223" lon="6.03483">
        <ele>1783.8000488281</ele>
        <time>2021-03-21T09:02:01.000Z</time>
      </trkpt>
      <trkpt lat="45.00222" lon="6.03483">
        <ele>1783.8000488281</ele>
        <time>2021-03-21T09:02:02.000Z</time>
      </trkpt>
      <trkpt lat="45.00222" lon="6.03482">
        <ele>1783.8000488281</ele>
        <time>2021-03-21T09:02:03.000Z</time>
      </trkpt>
      <trkpt lat="45.00221" lon="6.03483">
        <ele>1783.8000488281</ele>
        <time>2021-03-21T09:02:04.000Z</time>
      </trkpt>
      <trkpt lat="45.0022" lon="6.03482">
        <ele>1783.8000488281</ele>
        <time>2021-03-21T09:02:05.000Z</time>
      </trkpt>
      <trkpt lat="45.0022" lon="6.03482">
        <ele>1783.8000488281</ele>
        <time>2021-03-21T09:02:06.000Z</time>
      </trkpt>
      <trkpt lat="45.00219" lon="6.03482">
        <ele>1783.8000488281</ele>
        <time>2021-03-21T09:02:07.000Z</time>
      </trkpt>
      <trkpt lat="45.00218" lon="6.03482">
        <ele>1783.8000488281</ele>
        <time>2021-03-21T09:02:08.000Z</time>
      </trkpt>
      <trkpt lat="45.00217" lon="6.03482">
        <ele>1783.8000488281</ele>
        <time>2021-03-21T09:02:09.000Z</time>
      </trkpt>
      <trkpt lat="45.00217" lon="6.03482">
        <ele>1783.8000488281</ele>
        <time>2021-03-21T09:02:10.000Z</time>
      </trkpt>
      <trkpt lat="45.00216" lon="6.03482">
        <ele>1783.8000488281</ele>
        <time>2021-03-21T09:02:11.000Z</time>
      </trkpt>
      <trkpt lat="45.00215" lon="6.03481">
        <ele>1783.8000488281</ele>
        <time>2021-03-21T09:02:12.000Z</time>
      </trkpt>
      <trkpt lat="45.00215" lon="6.03481">
        <ele>1783.8000488281</ele>
        <time>2021-03-21T09:02:13.000Z</time>
      </trkpt>
      <trkpt lat="45.00214" lon="6.03481">
        <ele>1783.8000488281</ele>
        <time>2021-03-21T09:02:14.000Z</time>
      </trkpt>
      <trkpt lat="45.00213" lon="6.03481">
        <ele>1783.5999755859</ele>
        <time>2021-03-21T09:02:15.000Z</time>
      </trkpt>
      <trkpt lat="45.00213" lon="6.03481">
        <ele>1783.8000488281</ele>
        <time>2021-03-21T09:02:16.000Z</time>
      </trkpt>
      <trkpt lat="45.00212" lon="6.03481">
        <ele>1783.8000488281</ele>
        <time>2021-03-21T09:02:17.000Z</time>
      </trkpt>
      <trkpt lat="45.00211" lon="6.0348">
        <ele>1783.8000488281</ele>
        <time>2021-03-21T09:02:18.000Z</time>
      </trkpt>
      <trkpt lat="45.0021" lon="6.0348">
        <ele>1784</ele>
        <time>2021-03-21T09:02:19.000Z</time>
      </trkpt>
      <trkpt lat="45.0021" lon="6.0348">
        <ele>1783.8000488281</ele>
        <time>2021-03-21T09:02:20.000Z</time>
      </trkpt>
      <trkpt lat="45.00209" lon="6.03479">
        <ele>1784.1999511719</ele>
        <time>2021-03-21T09:02:21.000Z</time>
      </trkpt>
      <trkpt lat="45.00208" lon="6.03479">
        <ele>1784.4000244141</ele>
        <time>2021-03-21T09:02:22.000Z</time>
      </trkpt>
      <trkpt lat="45.00207" lon="6.03479">
        <ele>1784.5999755859</ele>
        <time>2021-03-21T09:02:23.000Z</time>
      </trkpt>
      <trkpt lat="45.00207" lon="6.03478">
        <ele>1785</ele>
        <time>2021-03-21T09:02:24.000Z</time>
      </trkpt>
      <trkpt lat="45.00206" lon="6.03478">
        <ele>1785.1999511719</ele>
        <time>2021-03-21T09:02:25.000Z</time>
      </trkpt>
      <trkpt lat="45.00205" lon="6.03477">
        <ele>1785.5999755859</ele>
        <time>2021-03-21T09:02:26.000Z</time>
      </trkpt>
      <trkpt lat="45.00205" lon="6.03477">
        <ele>1785.8000488281</ele>
        <time>2021-03-21T09:02:27.000Z</time>
      </trkpt>
      <trkpt lat="45.00204" lon="6.03477">
        <ele>1786</ele>
        <time>2021-03-21T09:02:28.000Z</time>
      </trkpt>
      <trkpt lat="45.00203" lon="6.03477">
        <ele>1786.1999511719</ele>
        <time>2021-03-21T09:02:29.000Z</time>
      </trkpt>
      <trkpt lat="45.00203" lon="6.03477">
        <ele>1786.1999511719</ele>
        <time>2021-03-21T09:02:30.000Z</time>
      </trkpt>
      <trkpt lat="45.00202" lon="6.03476">
        <ele>1786.5999755859</ele>
        <time>2021-03-21T09:02:31.000Z</time>
      </trkpt>
      <trkpt lat="45.00202" lon="6.03476">
        <ele>1787</ele>
        <time>2021-03-21T09:02:32.000Z</time>
      </trkpt>
      <trkpt lat="45.00201" lon="6.03476">
        <ele>1787</ele>
        <time>2021-03-21T09:02:33.000Z</time>
      </trkpt>
      <trkpt lat="45.002" lon="6.03475">
        <ele>1787.5999755859</ele>
        <time>2021-03-21T09:02:34.000Z</time>
      </trkpt>
      <trkpt lat="45.002" lon="6.03475">
        <ele>1787.8000488281</ele>
        <time>2021-03-21T09:02:35.000Z</time>
      </trkpt>
      <trkpt lat="45.00199" lon="6.03474">
        <ele>1788.1999511719</ele>
        <time>2021-03-21T09:02:36.000Z</time>
      </trkpt>
      <trkpt lat="45.00199" lon="6.03474">
        <ele>1788.1999511719</ele>
        <time>2021-03-21T09:02:37.000Z</time>
      </trkpt>
      <trkpt lat="45.00198" lon="6.03473">
        <ele>1788.8000488281</ele>
        <time>2021-03-21T09:02:38.000Z</time>
      </trkpt>
      <trkpt lat="45.00197" lon="6.03473">
        <ele>1789</ele>
        <time>2021-03-21T09:02:39.000Z</time>
      </trkpt>
      <trkpt lat="45.00196" lon="6.03473">
        <ele>1789.1999511719</ele>
        <time>2021-03-21T09:02:40.000Z</time>
      </trkpt>
      <trkpt lat="45.00195" lon="6.03473">
        <ele>1789.4000244141</ele>
        <time>2021-03-21T09:02:41.000Z</time>
      </trkpt>
      <trkpt lat="45.00195" lon="6.03473">
        <ele>1789.5999755859</ele>
        <time>2021-03-21T09:02:42.000Z</time>
      </trkpt>
      <trkpt lat="45.00194" lon="6.03472">
        <ele>1790</ele>
        <time>2021-03-21T09:02:43.000Z</time>
      </trkpt>
      <trkpt lat="45.00194" lon="6.03472">
        <ele>1790.1999511719</ele>
        <time>2021-03-21T09:02:44.000Z</time>
      </trkpt>
      <trkpt lat="45.00193" lon="6.03472">
        <ele>1790.5999755859</ele>
        <time>2021-03-21T09:02:45.000Z</time>
      </trkpt>
      <trkpt lat="45.00192" lon="6.03472">
        <ele>1790.8000488281</ele>
        <time>2021-03-21T09:02:46.000Z</time>
      </trkpt>
      <trkpt lat="45.00191" lon="6.03472">
        <ele>1791</ele>
        <time>2021-03-21T09:02:47.000Z</time>
      </trkpt>
      <trkpt lat="45.0019" lon="6.03471">
        <ele>1791.4000244141</ele>
        <time>2021-03-21T09:02:48.000Z</time>
      </trkpt>
      <trkpt lat="45.00189" lon="6.03471">
        <ele>1791.5999755859</ele>
        <time>2021-03-21T09:02:49.000Z</time>
      </trkpt>
      <trkpt lat="45.00188" lon="6.03471">
        <ele>1792</ele>
        <time>2021-03-21T09:02:50.000Z</time>
      </trkpt>
      <trkpt lat="45.00187" lon="6.03471">
        <ele>1792.1999511719</ele>
        <time>2021-03-21T09:02:51.000Z</time>
      </trkpt>
      <trkpt lat="45.00187" lon="6.0347">
        <ele>1792.4000244141</ele>
        <time>2021-03-21T09:02:52.000Z</time>
      </trkpt>
      <trkpt lat="45.00186" lon="6.0347">
        <ele>1792.8000488281</ele>
        <time>2021-03-21T09:02:53.000Z</time>
      </trkpt>
      <trkpt lat="45.00185" lon="6.0347">
        <ele>1793.1999511719</ele>
        <time>2021-03-21T09:02:54.000Z</time>
      </trkpt>
      <trkpt lat="45.00184" lon="6.03469">
        <ele>1793.5999755859</ele>
        <time>2021-03-21T09:02:55.000Z</time>
      </trkpt>
      <trkpt lat="45.00183" lon="6.03469">
        <ele>1794</ele>
        <time>2021-03-21T09:02:56.000Z</time>
      </trkpt>
      <trkpt lat="45.00182" lon="6.03469">
        <ele>1794.4000244141</ele>
        <time>2021-03-21T09:02:57.000Z</time>
      </trkpt>
      <trkpt lat="45.00181" lon="6.03468">
        <ele>1794.5999755859</ele>
        <time>2021-03-21T09:02:58.000Z</time>
      </trkpt>
      <trkpt lat="45.0018" lon="6.03468">
        <ele>1795.1999511719</ele>
        <time>2021-03-21T09:02:59.000Z</time>
      </trkpt>
      <trkpt lat="45.00179" lon="6.03468">
        <ele>1795.5999755859</ele>
        <time>2021-03-21T09:03:00.000Z</time>
      </trkpt>
      <trkpt lat="45.00179" lon="6.03467">
        <ele>1796.1999511719</ele>
        <time>2021-03-21T09:03:01.000Z</time>
      </trkpt>
      <trkpt lat="45.00178" lon="6.03467">
        <ele>1796.5999755859</ele>
        <time>2021-03-21T09:03:02.000Z</time>
      </trkpt>
      <trkpt lat="45.00177" lon="6.03467">
        <ele>1797.1999511719</ele>
        <time>2021-03-21T09:03:03.000Z</time>
      </trkpt>
      <trkpt lat="45.00176" lon="6.03467">
        <ele>1797.5999755859</ele>
        <time>2021-03-21T09:03:04.000Z</time>
      </trkpt>
      <trkpt lat="45.00175" lon="6.03468">
        <ele>1798</ele>
        <time>2021-03-21T09:03:05.000Z</time>
      </trkpt>
      <trkpt lat="45.00174" lon="6.03468">
        <ele>1798.1999511719</ele>
        <time>2021-03-21T09:03:06.000Z</time>
      </trkpt>
      <trkpt lat="45.00173" lon="6.03468">
        <ele>1798.5999755859</ele>
        <time>2021-03-21T09:03:07.000Z</time>
      </trkpt>
      <trkpt lat="45.00172" lon="6.03469">
        <ele>1798.8000488281</ele>
        <time>2021-03-21T09:03:08.000Z</time>
      </trkpt>
      <trkpt lat="45.00172" lon="6.03469">
        <ele>1799</ele>
        <time>2021-03-21T09:03:09.000Z</time>
      </trkpt>
      <trkpt lat="45.00171" lon="6.0347">
        <ele>1799.1999511719</ele>
        <time>2021-03-21T09:03:10.000Z</time>
      </trkpt>
      <trkpt lat="45.0017" lon="6.0347">
        <ele>1799.4000244141</ele>
        <time>2021-03-21T09:03:11.000Z</time>
      </trkpt>
      <trkpt lat="45.00169" lon="6.03471">
        <ele>1799.5999755859</ele>
        <time>2021-03-21T09:03:12.000Z</time>
      </trkpt>
      <trkpt lat="45.00168" lon="6.03471">
        <ele>1800</ele>
        <time>2021-03-21T09:03:13.000Z</time>
      </trkpt>
      <trkpt lat="45.00167" lon="6.03472">
        <ele>1800.4000244141</ele>
        <time>2021-03-21T09:03:14.000Z</time>
      </trkpt>
      <trkpt lat="45.00166" lon="6.03472">
        <ele>1800.5999755859</ele>
        <time>2021-03-21T09:03:15.000Z</time>
      </trkpt>
      <trkpt lat="45.00166" lon="6.03472">
        <ele>1801.1999511719</ele>
        <time>2021-03-21T09:03:16.000Z</time>
      </trkpt>
      <trkpt lat="45.00165" lon="6.03472">
        <ele>1801.5999755859</ele>
        <time>2021-03-21T09:03:17.000Z</time>
      </trkpt>
      <trkpt lat="45.00164" lon="6.03472">
        <ele>1802</ele>
        <time>2021-03-21T09:03:18.000Z</time>
      </trkpt>
      <trkpt lat="45.00163" lon="6.03472">
        <ele>1802.4000244141</ele>
        <time>2021-03-21T09:03:19.000Z</time>
      </trkpt>
      <trkpt lat="45.00162" lon="6.03472">
        <ele>1802.5999755859</ele>
        <time>2021-03-21T09:03:20.000Z</time>
      </trkpt>
      <trkpt lat="45.00162" lon="6.03473">
        <ele>1802.5999755859</ele>
        <time>2021-03-21T09:03:21.000Z</time>
      </trkpt>
      <trkpt lat="45.00161" lon="6.03474">
        <ele>1802.5999755859</ele>
        <time>2021-03-21T09:03:22.000Z</time>
      </trkpt>
      <trkpt lat="45.00161" lon="6.03474">
        <ele>1802.8000488281</ele>
        <time>2021-03-21T09:03:23.000Z</time>
      </trkpt>
      <trkpt lat="45.0016" lon="6.03475">
        <ele>1802.5999755859</ele>
        <time>2021-03-21T09:03:24.000Z</time>
      </trkpt>
      <trkpt lat="45.0016" lon="6.03476">
        <ele>1802.5999755859</ele>
        <time>2021-03-21T09:03:25.000Z</time>
      </trkpt>
      <trkpt lat="45.0016" lon="6.03477">
        <ele>1802.1999511719</ele>
        <time>2021-03-21T09:03:26.000Z</time>
      </trkpt>
      <trkpt lat="45.0016" lon="6.03478">
        <ele>1802</ele>
        <time>2021-03-21T09:03:27.000Z</time>
      </trkpt>
      <trkpt lat="45.00159" lon="6.03479">
        <ele>1802</ele>
        <time>2021-03-21T09:03:28.000Z</time>
      </trkpt>
      <trkpt lat="45.00158" lon="6.0348">
        <ele>1801.8000488281</ele>
        <time>2021-03-21T09:03:29.000Z</time>
      </trkpt>
      <trkpt lat="45.00158" lon="6.03481">
        <ele>1801.5999755859</ele>
        <time>2021-03-21T09:03:30.000Z</time>
      </trkpt>
      <trkpt lat="45.00157" lon="6.03482">
        <ele>1801.5999755859</ele>
        <time>2021-03-21T09:03:31.000Z</time>
      </trkpt>
      <trkpt lat="45.00157" lon="6.03483">
        <ele>1801.5999755859</ele>
        <time>2021-03-21T09:03:32.000Z</time>
      </trkpt>
      <trkpt lat="45.00156" lon="6.03484">
        <ele>1801.4000244141</ele>
        <time>2021-03-21T09:03:33.000Z</time>
      </trkpt>
      <trkpt lat="45.00155" lon="6.03485">
        <ele>1801.5999755859</ele>
        <time>2021-03-21T09:03:34.000Z</time>
      </trkpt>
      <trkpt lat="45.00155" lon="6.03485">
        <ele>1801.5999755859</ele>
        <time>2021-03-21T09:03:35.000Z</time>
      </trkpt>
      <trkpt lat="45.00154" lon="6.03486">
        <ele>1802</ele>
        <time>2021-03-21T09:03:36.000Z</time>
      </trkpt>
      <trkpt lat="45.00153" lon="6.03486">
        <ele>1802.1999511719</ele>
        <time>2021-03-21T09:03:37.000Z</time>
      </trkpt>
      <trkpt lat="45.00152" lon="6.03486">
        <ele>1802.5999755859</ele>
        <time>2021-03-21T09:03:38.000Z</time>
      </trkpt>
      <trkpt lat="45.00152" lon="6.03486">
        <ele>1802.8000488281</ele>
        <time>2021-03-21T09:03:39.000Z</time>
      </trkpt>
      <trkpt lat="45.00151" lon="6.03486">
        <ele>1803</ele>
        <time>2021-03-21T09:03:40.000Z</time>
      </trkpt>
      <trkpt lat="45.0015" lon="6.03486">
        <ele>1803.1999511719</ele>
        <time>2021-03-21T09:03:41.000Z</time>
      </trkpt>
      <trkpt lat="45.0015" lon="6.03486">
        <ele>1803.5999755859</ele>
        <time>2021-03-21T09:03:42.000Z</time>
      </trkpt>
      <trkpt lat="45.00149" lon="6.03486">
        <ele>1804</ele>
        <time>2021-03-21T09:03:43.000Z</time>
      </trkpt>
      <trkpt lat="45.00148" lon="6.03486">
        <ele>1804.1999511719</ele>
        <time>2021-03-21T09:03:44.000Z</time>
      </trkpt>
      <trkpt lat="45.00148" lon="6.03486">
        <ele>1804.5999755859</ele>
        <time>2021-03-21T09:03:45.000Z</time>
      </trkpt>
      <trkpt lat="45.00147" lon="6.03486">
        <ele>1804.8000488281</ele>
        <time>2021-03-21T09:03:46.000Z</time>
      </trkpt>
      <trkpt lat="45.00147" lon="6.03486">
        <ele>1805.1999511719</ele>
        <time>2021-03-21T09:03:47.000Z</time>
      </trkpt>
      <trkpt lat="45.00146" lon="6.03486">
        <ele>1805.4000244141</ele>
        <time>2021-03-21T09:03:48.000Z</time>
      </trkpt>
      <trkpt lat="45.00145" lon="6.03486">
        <ele>1805.5999755859</ele>
        <time>2021-03-21T09:03:49.000Z</time>
      </trkpt>
      <trkpt lat="45.00145" lon="6.03486">
        <ele>1806</ele>
        <time>2021-03-21T09:03:50.000Z</time>
      </trkpt>
      <trkpt lat="45.00144" lon="6.03486">
        <ele>1806.4000244141</ele>
        <time>2021-03-21T09:03:51.000Z</time>
      </trkpt>
      <trkpt lat="45.00143" lon="6.03486">
        <ele>1806.5999755859</ele>
        <time>2021-03-21T09:03:52.000Z</time>
      </trkpt>
      <trkpt lat="45.00143" lon="6.03487">
        <ele>1806.8000488281</ele>
        <time>2021-03-21T09:03:53.000Z</time>
      </trkpt>
      <trkpt lat="45.00142" lon="6.03487">
        <ele>1807</ele>
        <time>2021-03-21T09:03:54.000Z</time>
      </trkpt>
      <trkpt lat="45.00141" lon="6.03487">
        <ele>1807.1999511719</ele>
        <time>2021-03-21T09:03:55.000Z</time>
      </trkpt>
      <trkpt lat="45.00141" lon="6.03488">
        <ele>1807</ele>
        <time>2021-03-21T09:03:56.000Z</time>
      </trkpt>
      <trkpt lat="45.00141" lon="6.03489">
        <ele>1806.5999755859</ele>
        <time>2021-03-21T09:03:57.000Z</time>
      </trkpt>
      <trkpt lat="45.0014" lon="6.03489">
        <ele>1806.8000488281</ele>
        <time>2021-03-21T09:03:58.000Z</time>
      </trkpt>
      <trkpt lat="45.0014" lon="6.0349">
        <ele>1806.4000244141</ele>
        <time>2021-03-21T09:03:59.000Z</time>
      </trkpt>
      <trkpt lat="45.00139" lon="6.03491">
        <ele>1806.1999511719</ele>
        <time>2021-03-21T09:04:00.000Z</time>
      </trkpt>
      <trkpt lat="45.00139" lon="6.03491">
        <ele>1806</ele>
        <time>2021-03-21T09:04:01.000Z</time>
      </trkpt>
      <trkpt lat="45.00139" lon="6.03492">
        <ele>1805.8000488281</ele>
        <time>2021-03-21T09:04:02.000Z</time>
      </trkpt>
      <trkpt lat="45.00138" lon="6.03492">
        <ele>1805.8000488281</ele>
        <time>2021-03-21T09:04:03.000Z</time>
      </trkpt>
      <trkpt lat="45.00138" lon="6.03492">
        <ele>1805.5999755859</ele>
        <time>2021-03-21T09:04:04.000Z</time>
      </trkpt>
      <trkpt lat="45.00137" lon="6.03492">
        <ele>1806</ele>
        <time>2021-03-21T09:04:05.000Z</time>
      </trkpt>
      <trkpt lat="45.00137" lon="6.03492">
        <ele>1806.1999511719</ele>
        <time>2021-03-21T09:04:06.000Z</time>
      </trkpt>
      <trkpt lat="45.00136" lon="6.03492">
        <ele>1806.5999755859</ele>
        <time>2021-03-21T09:04:07.000Z</time>
      </trkpt>
      <trkpt lat="45.00135" lon="6.03492">
        <ele>1807</ele>
        <time>2021-03-21T09:04:08.000Z</time>
      </trkpt>
      <trkpt lat="45.00135" lon="6.03492">
        <ele>1807.5999755859</ele>
        <time>2021-03-21T09:04:09.000Z</time>
      </trkpt>
      <trkpt lat="45.00134" lon="6.03491">
        <ele>1808</ele>
        <time>2021-03-21T09:04:10.000Z</time>
      </trkpt>
      <trkpt lat="45.00134" lon="6.03491">
        <ele>1808.4000244141</ele>
        <time>2021-03-21T09:04:11.000Z</time>
      </trkpt>
      <trkpt lat="45.00133" lon="6.03491">
        <ele>1809</ele>
        <time>2021-03-21T09:04:12.000Z</time>
      </trkpt>
      <trkpt lat="45.00133" lon="6.0349">
        <ele>1809.1999511719</ele>
        <time>2021-03-21T09:04:13.000Z</time>
      </trkpt>
      <trkpt lat="45.00133" lon="6.0349">
        <ele>1809.4000244141</ele>
        <time>2021-03-21T09:04:14.000Z</time>
      </trkpt>
      <trkpt lat="45.00132" lon="6.0349">
        <ele>1810</ele>
        <time>2021-03-21T09:04:15.000Z</time>
      </trkpt>
      <trkpt lat="45.00132" lon="6.0349">
        <ele>1810.1999511719</ele>
        <time>2021-03-21T09:04:16.000Z</time>
      </trkpt>
      <trkpt lat="45.00132" lon="6.03489">
        <ele>1810.5999755859</ele>
        <time>2021-03-21T09:04:17.000Z</time>
      </trkpt>
      <trkpt lat="45.00132" lon="6.03489">
        <ele>1810.5999755859</ele>
        <time>2021-03-21T09:04:18.000Z</time>
      </trkpt>
      <trkpt lat="45.00132" lon="6.03489">
        <ele>1810.5999755859</ele>
        <time>2021-03-21T09:04:19.000Z</time>
      </trkpt>
      <trkpt lat="45.00131" lon="6.03489">
        <ele>1810.8000488281</ele>
        <time>2021-03-21T09:04:20.000Z</time>
      </trkpt>
      <trkpt lat="45.00131" lon="6.03489">
        <ele>1811.1999511719</ele>
        <time>2021-03-21T09:04:21.000Z</time>
      </trkpt>
      <trkpt lat="45.00131" lon="6.03489">
        <ele>1811.4000244141</ele>
        <time>2021-03-21T09:04:22.000Z</time>
      </trkpt>
      <trkpt lat="45.0013" lon="6.03488">
        <ele>1811.8000488281</ele>
        <time>2021-03-21T09:04:23.000Z</time>
      </trkpt>
      <trkpt lat="45.00131" lon="6.03488">
        <ele>1811.8000488281</ele>
        <time>2021-03-21T09:04:24.000Z</time>
      </trkpt>
      <trkpt lat="45.00131" lon="6.03488">
        <ele>1811.8000488281</ele>
        <time>2021-03-21T09:04:25.000Z</time>
      </trkpt>
      <trkpt lat="45.0013" lon="6.03488">
        <ele>1812.1999511719</ele>
        <time>2021-03-21T09:04:26.000Z</time>
      </trkpt>
      <trkpt lat="45.0013" lon="6.03487">
        <ele>1812.4000244141</ele>
        <time>2021-03-21T09:04:27.000Z</time>
      </trkpt>
      <trkpt lat="45.0013" lon="6.03487">
        <ele>1812.5999755859</ele>
        <time>2021-03-21T09:04:28.000Z</time>
      </trkpt>
      <trkpt lat="45.0013" lon="6.03487">
        <ele>1812.8000488281</ele>
        <time>2021-03-21T09:04:29.000Z</time>
      </trkpt>
      <trkpt lat="45.00129" lon="6.03487">
        <ele>1813</ele>
        <time>2021-03-21T09:04:30.000Z</time>
      </trkpt>
      <trkpt lat="45.00129" lon="6.03487">
        <ele>1813</ele>
        <time>2021-03-21T09:04:31.000Z</time>
      </trkpt>
      <trkpt lat="45.00129" lon="6.03486">
        <ele>1813.4000244141</ele>
        <time>2021-03-21T09:04:32.000Z</time>
      </trkpt>
      <trkpt lat="45.00128" lon="6.03486">
        <ele>1813.5999755859</ele>
        <time>2021-03-21T09:04:33.000Z</time>
      </trkpt>
      <trkpt lat="45.00128" lon="6.03486">
        <ele>1813.8000488281</ele>
        <time>2021-03-21T09:04:34.000Z</time>
      </trkpt>
      <trkpt lat="45.00128" lon="6.03486">
        <ele>1814</ele>
        <time>2021-03-21T09:04:35.000Z</time>
      </trkpt>
      <trkpt lat="45.00127" lon="6.03485">
        <ele>1814.4000244141</ele>
        <time>2021-03-21T09:04:36.000Z</time>
      </trkpt>
      <trkpt lat="45.00126" lon="6.03485">
        <ele>1814.8000488281</ele>
        <time>2021-03-21T09:04:37.000Z</time>
      </trkpt>
      <trkpt lat="45.00126" lon="6.03485">
        <ele>1815</ele>
        <time>2021-03-21T09:04:38.000Z</time>
      </trkpt>
      <trkpt lat="45.00125" lon="6.03485">
        <ele>1815.4000244141</ele>
        <time>2021-03-21T09:04:39.000Z</time>
      </trkpt>
      <trkpt lat="45.00124" lon="6.03485">
        <ele>1815.5999755859</ele>
        <time>2021-03-21T09:04:40.000Z</time>
      </trkpt>
      <trkpt lat="45.00123" lon="6.03485">
        <ele>1815.8000488281</ele>
        <time>2021-03-21T09:04:41.000Z</time>
      </trkpt>
      <trkpt lat="45.00122" lon="6.03486">
        <ele>1815.8000488281</ele>
        <time>2021-03-21T09:04:42.000Z</time>
      </trkpt>
      <trkpt lat="45.00121" lon="6.03486">
        <ele>1816</ele>
        <time>2021-03-21T09:04:43.000Z</time>
      </trkpt>
      <trkpt lat="45.0012" lon="6.03486">
        <ele>1816</ele>
        <time>2021-03-21T09:04:44.000Z</time>
      </trkpt>
      <trkpt lat="45.00119" lon="6.03487">
        <ele>1816.1999511719</ele>
        <time>2021-03-21T09:04:45.000Z</time>
      </trkpt>
      <trkpt lat="45.00119" lon="6.03486">
        <ele>1816.1999511719</ele>
        <time>2021-03-21T09:04:46.000Z</time>
      </trkpt>
      <trkpt lat="45.00118" lon="6.03487">
        <ele>1816.4000244141</ele>
        <time>2021-03-21T09:04:47.000Z</time>
      </trkpt>
      <trkpt lat="45.00117" lon="6.03487">
        <ele>1816.4000244141</ele>
        <time>2021-03-21T09:04:48.000Z</time>
      </trkpt>
      <trkpt lat="45.00116" lon="6.03487">
        <ele>1816.5999755859</ele>
        <time>2021-03-21T09:04:49.000Z</time>
      </trkpt>
      <trkpt lat="45.00116" lon="6.03487">
        <ele>1816.8000488281</ele>
        <time>2021-03-21T09:04:50.000Z</time>
      </trkpt>
      <trkpt lat="45.00115" lon="6.03486">
        <ele>1817</ele>
        <time>2021-03-21T09:04:51.000Z</time>
      </trkpt>
      <trkpt lat="45.00115" lon="6.03486">
        <ele>1817</ele>
        <time>2021-03-21T09:04:52.000Z</time>
      </trkpt>
      <trkpt lat="45.00114" lon="6.03486">
        <ele>1817.1999511719</ele>
        <time>2021-03-21T09:04:53.000Z</time>
      </trkpt>
      <trkpt lat="45.00113" lon="6.03486">
        <ele>1817.4000244141</ele>
        <time>2021-03-21T09:04:54.000Z</time>
      </trkpt>
      <trkpt lat="45.00113" lon="6.03486">
        <ele>1817.4000244141</ele>
        <time>2021-03-21T09:04:55.000Z</time>
      </trkpt>
      <trkpt lat="45.00112" lon="6.03486">
        <ele>1817.5999755859</ele>
        <time>2021-03-21T09:04:56.000Z</time>
      </trkpt>
      <trkpt lat="45.00111" lon="6.03486">
        <ele>1817.8000488281</ele>
        <time>2021-03-21T09:04:57.000Z</time>
      </trkpt>
      <trkpt lat="45.0011" lon="6.03486">
        <ele>1818</ele>
        <time>2021-03-21T09:04:58.000Z</time>
      </trkpt>
      <trkpt lat="45.0011" lon="6.03486">
        <ele>1818</ele>
        <time>2021-03-21T09:04:59.000Z</time>
      </trkpt>
      <trkpt lat="45.00109" lon="6.03485">
        <ele>1818.1999511719</ele>
        <time>2021-03-21T09:05:00.000Z</time>
      </trkpt>
      <trkpt lat="45.00109" lon="6.03486">
        <ele>1818.1999511719</ele>
        <time>2021-03-21T09:05:01.000Z</time>
      </trkpt>
      <trkpt lat="45.00108" lon="6.03486">
        <ele>1818.4000244141</ele>
        <time>2021-03-21T09:05:02.000Z</time>
      </trkpt>
      <trkpt lat="45.00107" lon="6.03486">
        <ele>1818.4000244141</ele>
        <time>2021-03-21T09:05:03.000Z</time>
      </trkpt>
      <trkpt lat="45.00107" lon="6.03486">
        <ele>1818.5999755859</ele>
        <time>2021-03-21T09:05:04.000Z</time>
      </trkpt>
      <trkpt lat="45.00106" lon="6.03486">
        <ele>1818.8000488281</ele>
        <time>2021-03-21T09:05:05.000Z</time>
      </trkpt>
      <trkpt lat="45.00106" lon="6.03486">
        <ele>1818.8000488281</ele>
        <time>2021-03-21T09:05:06.000Z</time>
      </trkpt>
      <trkpt lat="45.00105" lon="6.03485">
        <ele>1819</ele>
        <time>2021-03-21T09:05:07.000Z</time>
      </trkpt>
      <trkpt lat="45.00105" lon="6.03485">
        <ele>1819</ele>
        <time>2021-03-21T09:05:08.000Z</time>
      </trkpt>
      <trkpt lat="45.00104" lon="6.03486">
        <ele>1819</ele>
        <time>2021-03-21T09:05:09.000Z</time>
      </trkpt>
      <trkpt lat="45.00104" lon="6.03486">
        <ele>1819.1999511719</ele>
        <time>2021-03-21T09:05:10.000Z</time>
      </trkpt>
      <trkpt lat="45.00103" lon="6.03486">
        <ele>1819.1999511719</ele>
        <time>2021-03-21T09:05:11.000Z</time>
      </trkpt>
      <trkpt lat="45.00103" lon="6.03486">
        <ele>1819.1999511719</ele>
        <time>2021-03-21T09:05:12.000Z</time>
      </trkpt>
      <trkpt lat="45.00102" lon="6.03486">
        <ele>1819.4000244141</ele>
        <time>2021-03-21T09:05:13.000Z</time>
      </trkpt>
      <trkpt lat="45.00101" lon="6.03486">
        <ele>1819.5999755859</ele>
        <time>2021-03-21T09:05:14.000Z</time>
      </trkpt>
      <trkpt lat="45.00101" lon="6.03486">
        <ele>1819.5999755859</ele>
        <time>2021-03-21T09:05:15.000Z</time>
      </trkpt>
      <trkpt lat="45.001" lon="6.03486">
        <ele>1819.8000488281</ele>
        <time>2021-03-21T09:05:16.000Z</time>
      </trkpt>
      <trkpt lat="45.001" lon="6.03486">
        <ele>1819.8000488281</ele>
        <time>2021-03-21T09:05:17.000Z</time>
      </trkpt>
      <trkpt lat="45.00099" lon="6.03486">
        <ele>1820</ele>
        <time>2021-03-21T09:05:18.000Z</time>
      </trkpt>
      <trkpt lat="45.00098" lon="6.03486">
        <ele>1820</ele>
        <time>2021-03-21T09:05:19.000Z</time>
      </trkpt>
      <trkpt lat="45.00098" lon="6.03486">
        <ele>1820.1999511719</ele>
        <time>2021-03-21T09:05:20.000Z</time>
      </trkpt>
      <trkpt lat="45.00097" lon="6.03486">
        <ele>1820.4000244141</ele>
        <time>2021-03-21T09:05:21.000Z</time>
      </trkpt>
      <trkpt lat="45.00097" lon="6.03486">
        <ele>1820.5999755859</ele>
        <time>2021-03-21T09:05:22.000Z</time>
      </trkpt>
      <trkpt lat="45.00096" lon="6.03486">
        <ele>1820.8000488281</ele>
        <time>2021-03-21T09:05:23.000Z</time>
      </trkpt>
      <trkpt lat="45.00095" lon="6.03486">
        <ele>1821</ele>
        <time>2021-03-21T09:05:24.000Z</time>
      </trkpt>
      <trkpt lat="45.00094" lon="6.03486">
        <ele>1821.1999511719</ele>
        <time>2021-03-21T09:05:25.000Z</time>
      </trkpt>
      <trkpt lat="45.00094" lon="6.03486">
        <ele>1821.4000244141</ele>
        <time>2021-03-21T09:05:26.000Z</time>
      </trkpt>
      <trkpt lat="45.00093" lon="6.03486">
        <ele>1821.8000488281</ele>
        <time>2021-03-21T09:05:27.000Z</time>
      </trkpt>
      <trkpt lat="45.00093" lon="6.03486">
        <ele>1822</ele>
        <time>2021-03-21T09:05:28.000Z</time>
      </trkpt>
      <trkpt lat="45.00092" lon="6.03486">
        <ele>1822.1999511719</ele>
        <time>2021-03-21T09:05:29.000Z</time>
      </trkpt>
      <trkpt lat="45.00092" lon="6.03486">
        <ele>1822.4000244141</ele>
        <time>2021-03-21T09:05:30.000Z</time>
      </trkpt>
      <trkpt lat="45.00091" lon="6.03486">
        <ele>1822.5999755859</ele>
        <time>2021-03-21T09:05:31.000Z</time>
      </trkpt>
      <trkpt lat="45.0009" lon="6.03486">
        <ele>1822.8000488281</ele>
        <time>2021-03-21T09:05:32.000Z</time>
      </trkpt>
      <trkpt lat="45.0009" lon="6.03486">
        <ele>1823.1999511719</ele>
        <time>2021-03-21T09:05:33.000Z</time>
      </trkpt>
      <trkpt lat="45.00089" lon="6.03486">
        <ele>1823.4000244141</ele>
        <time>2021-03-21T09:05:34.000Z</time>
      </trkpt>
      <trkpt lat="45.00089" lon="6.03486">
        <ele>1823.5999755859</ele>
        <time>2021-03-21T09:05:35.000Z</time>
      </trkpt>
      <trkpt lat="45.00088" lon="6.03486">
        <ele>1823.8000488281</ele>
        <time>2021-03-21T09:05:36.000Z</time>
      </trkpt>
      <trkpt lat="45.00087" lon="6.03487">
        <ele>1824</ele>
        <time>2021-03-21T09:05:37.000Z</time>
      </trkpt>
      <trkpt lat="45.00087" lon="6.03487">
        <ele>1824.1999511719</ele>
        <time>2021-03-21T09:05:38.000Z</time>
      </trkpt>
      <trkpt lat="45.00086" lon="6.03487">
        <ele>1824.5999755859</ele>
        <time>2021-03-21T09:05:39.000Z</time>
      </trkpt>
      <trkpt lat="45.00085" lon="6.03487">
        <ele>1824.5999755859</ele>
        <time>2021-03-21T09:05:40.000Z</time>
      </trkpt>
      <trkpt lat="45.00085" lon="6.03487">
        <ele>1825</ele>
        <time>2021-03-21T09:05:41.000Z</time>
      </trkpt>
      <trkpt lat="45.00084" lon="6.03487">
        <ele>1825.1999511719</ele>
        <time>2021-03-21T09:05:42.000Z</time>
      </trkpt>
      <trkpt lat="45.00084" lon="6.03487">
        <ele>1825.1999511719</ele>
        <time>2021-03-21T09:05:43.000Z</time>
      </trkpt>
      <trkpt lat="45.00083" lon="6.03487">
        <ele>1825.5999755859</ele>
        <time>2021-03-21T09:05:44.000Z</time>
      </trkpt>
      <trkpt lat="45.00083" lon="6.03487">
        <ele>1825.8000488281</ele>
        <time>2021-03-21T09:05:45.000Z</time>
      </trkpt>
      <trkpt lat="45.00082" lon="6.03487">
        <ele>1826</ele>
        <time>2021-03-21T09:05:46.000Z</time>
      </trkpt>
      <trkpt lat="45.00082" lon="6.03487">
        <ele>1826.1999511719</ele>
        <time>2021-03-21T09:05:47.000Z</time>
      </trkpt>
      <trkpt lat="45.00081" lon="6.03487">
        <ele>1826.4000244141</ele>
        <time>2021-03-21T09:05:48.000Z</time>
      </trkpt>
      <trkpt lat="45.00081" lon="6.03486">
        <ele>1826.5999755859</ele>
        <time>2021-03-21T09:05:49.000Z</time>
      </trkpt>
      <trkpt lat="45.00081" lon="6.03486">
        <ele>1826.8000488281</ele>
        <time>2021-03-21T09:05:50.000Z</time>
      </trkpt>
      <trkpt lat="45.0008" lon="6.03486">
        <ele>1827</ele>
        <time>2021-03-21T09:05:51.000Z</time>
      </trkpt>
      <trkpt lat="45.0008" lon="6.03485">
        <ele>1827.1999511719</ele>
        <time>2021-03-21T09:05:52.000Z</time>
      </trkpt>
      <trkpt lat="45.00079" lon="6.03484">
        <ele>1827.4000244141</ele>
        <time>2021-03-21T09:05:53.000Z</time>
      </trkpt>
      <trkpt lat="45.00079" lon="6.03484">
        <ele>1827.8000488281</ele>
        <time>2021-03-21T09:05:54.000Z</time>
      </trkpt>
      <trkpt lat="45.00079" lon="6.03483">
        <ele>1827.8000488281</ele>
        <time>2021-03-21T09:05:55.000Z</time>
      </trkpt>
      <trkpt lat="45.00078" lon="6.03483">
        <ele>1828.1999511719</ele>
        <time>2021-03-21T09:05:56.000Z</time>
      </trkpt>
      <trkpt lat="45.00078" lon="6.03483">
        <ele>1828.4000244141</ele>
        <time>2021-03-21T09:05:57.000Z</time>
      </trkpt>
      <trkpt lat="45.00077" lon="6.03482">
        <ele>1828.5999755859</ele>
        <time>2021-03-21T09:05:58.000Z</time>
      </trkpt>
      <trkpt lat="45.00077" lon="6.03482">
        <ele>1829</ele>
        <time>2021-03-21T09:05:59.000Z</time>
      </trkpt>
      <trkpt lat="45.00076" lon="6.03482">
        <ele>1829.1999511719</ele>
        <time>2021-03-21T09:06:00.000Z</time>
      </trkpt>
      <trkpt lat="45.00076" lon="6.03481">
        <ele>1829.4000244141</ele>
        <time>2021-03-21T09:06:01.000Z</time>
      </trkpt>
      <trkpt lat="45.00076" lon="6.03481">
        <ele>1829.5999755859</ele>
        <time>2021-03-21T09:06:02.000Z</time>
      </trkpt>
      <trkpt lat="45.00075" lon="6.03481">
        <ele>1829.8000488281</ele>
        <time>2021-03-21T09:06:03.000Z</time>
      </trkpt>
      <trkpt lat="45.00075" lon="6.03481">
        <ele>1830</ele>
        <time>2021-03-21T09:06:04.000Z</time>
      </trkpt>
      <trkpt lat="45.00074" lon="6.0348">
        <ele>1830.4000244141</ele>
        <time>2021-03-21T09:06:05.000Z</time>
      </trkpt>
      <trkpt lat="45.00073" lon="6.0348">
        <ele>1830.4000244141</ele>
        <time>2021-03-21T09:06:06.000Z</time>
      </trkpt>
      <trkpt lat="45.00073" lon="6.0348">
        <ele>1830.8000488281</ele>
        <time>2021-03-21T09:06:07.000Z</time>
      </trkpt>
      <trkpt lat="45.00072" lon="6.0348">
        <ele>1831</ele>
        <time>2021-03-21T09:06:08.000Z</time>
      </trkpt>
      <trkpt lat="45.00072" lon="6.0348">
        <ele>1831.1999511719</ele>
        <time>2021-03-21T09:06:09.000Z</time>
      </trkpt>
      <trkpt lat="45.00071" lon="6.0348">
        <ele>1831.4000244141</ele>
        <time>2021-03-21T09:06:10.000Z</time>
      </trkpt>
      <trkpt lat="45.00071" lon="6.0348">
        <ele>1831.4000244141</ele>
        <time>2021-03-21T09:06:11.000Z</time>
      </trkpt>
      <trkpt lat="45.0007" lon="6.03481">
        <ele>1831.5999755859</ele>
        <time>2021-03-21T09:06:12.000Z</time>
      </trkpt>
      <trkpt lat="45.0007" lon="6.03481">
        <ele>1831.5999755859</ele>
        <time>2021-03-21T09:06:13.000Z</time>
      </trkpt>
      <trkpt lat="45.0007" lon="6.03481">
        <ele>1831.8000488281</ele>
        <time>2021-03-21T09:06:14.000Z</time>
      </trkpt>
      <trkpt lat="45.00069" lon="6.03481">
        <ele>1832</ele>
        <time>2021-03-21T09:06:15.000Z</time>
      </trkpt>
      <trkpt lat="45.00069" lon="6.03481">
        <ele>1832.1999511719</ele>
        <time>2021-03-21T09:06:16.000Z</time>
      </trkpt>
      <trkpt lat="45.00069" lon="6.03481">
        <ele>1832.4000244141</ele>
        <time>2021-03-21T09:06:17.000Z</time>
      </trkpt>
      <trkpt lat="45.00068" lon="6.03481">
        <ele>1832.5999755859</ele>
        <time>2021-03-21T09:06:18.000Z</time>
      </trkpt>
      <trkpt lat="45.00068" lon="6.03481">
        <ele>1832.5999755859</ele>
        <time>2021-03-21T09:06:19.000Z</time>
      </trkpt>
      <trkpt lat="45.00068" lon="6.03482">
        <ele>1832.8000488281</ele>
        <time>2021-03-21T09:06:20.000Z</time>
      </trkpt>
      <trkpt lat="45.00067" lon="6.03482">
        <ele>1833</ele>
        <time>2021-03-21T09:06:21.000Z</time>
      </trkpt>
      <trkpt lat="45.00067" lon="6.03482">
        <ele>1833.1999511719</ele>
        <time>2021-03-21T09:06:22.000Z</time>
      </trkpt>
      <trkpt lat="45.00066" lon="6.03482">
        <ele>1833.5999755859</ele>
        <time>2021-03-21T09:06:23.000Z</time>
      </trkpt>
      <trkpt lat="45.00066" lon="6.03482">
        <ele>1833.8000488281</ele>
        <time>2021-03-21T09:06:24.000Z</time>
      </trkpt>
      <trkpt lat="45.00065" lon="6.03482">
        <ele>1834</ele>
        <time>2021-03-21T09:06:25.000Z</time>
      </trkpt>
      <trkpt lat="45.00065" lon="6.03482">
        <ele>1834.1999511719</ele>
        <time>2021-03-21T09:06:26.000Z</time>
      </trkpt>
      <trkpt lat="45.00065" lon="6.03482">
        <ele>1834.4000244141</ele>
        <time>2021-03-21T09:06:27.000Z</time>
      </trkpt>
      <trkpt lat="45.00064" lon="6.03482">
        <ele>1834.5999755859</ele>
        <time>2021-03-21T09:06:28.000Z</time>
      </trkpt>
      <trkpt lat="45.00063" lon="6.03483">
        <ele>1834.8000488281</ele>
        <time>2021-03-21T09:06:29.000Z</time>
      </trkpt>
      <trkpt lat="45.00063" lon="6.03483">
        <ele>1835.1999511719</ele>
        <time>2021-03-21T09:06:30.000Z</time>
      </trkpt>
      <trkpt lat="45.00062" lon="6.03483">
        <ele>1835.4000244141</ele>
        <time>2021-03-21T09:06:31.000Z</time>
      </trkpt>
      <trkpt lat="45.00061" lon="6.03483">
        <ele>1835.5999755859</ele>
        <time>2021-03-21T09:06:32.000Z</time>
      </trkpt>
      <trkpt lat="45.00061" lon="6.03483">
        <ele>1836</ele>
        <time>2021-03-21T09:06:33.000Z</time>
      </trkpt>
      <trkpt lat="45.0006" lon="6.03482">
        <ele>1836.1999511719</ele>
        <time>2021-03-21T09:06:34.000Z</time>
      </trkpt>
      <trkpt lat="45.0006" lon="6.03482">
        <ele>1836.4000244141</ele>
        <time>2021-03-21T09:06:35.000Z</time>
      </trkpt>
      <trkpt lat="45.00059" lon="6.03482">
        <ele>1836.8000488281</ele>
        <time>2021-03-21T09:06:36.000Z</time>
      </trkpt>
      <trkpt lat="45.00059" lon="6.03482">
        <ele>1837</ele>
        <time>2021-03-21T09:06:37.000Z</time>
      </trkpt>
      <trkpt lat="45.00057" lon="6.03482">
        <ele>1837.4000244141</ele>
        <time>2021-03-21T09:06:38.000Z</time>
      </trkpt>
      <trkpt lat="45.00057" lon="6.03483">
        <ele>1837.5999755859</ele>
        <time>2021-03-21T09:06:39.000Z</time>
      </trkpt>
      <trkpt lat="45.00056" lon="6.03483">
        <ele>1838</ele>
        <time>2021-03-21T09:06:40.000Z</time>
      </trkpt>
      <trkpt lat="45.00055" lon="6.03483">
        <ele>1838.4000244141</ele>
        <time>2021-03-21T09:06:41.000Z</time>
      </trkpt>
      <trkpt lat="45.00054" lon="6.03483">
        <ele>1838.5999755859</ele>
        <time>2021-03-21T09:06:42.000Z</time>
      </trkpt>
      <trkpt lat="45.00053" lon="6.03483">
        <ele>1839.1999511719</ele>
        <time>2021-03-21T09:06:43.000Z</time>
      </trkpt>
      <trkpt lat="45.00052" lon="6.03483">
        <ele>1839.4000244141</ele>
        <time>2021-03-21T09:06:44.000Z</time>
      </trkpt>
      <trkpt lat="45.00051" lon="6.03483">
        <ele>1840</ele>
        <time>2021-03-21T09:06:45.000Z</time>
      </trkpt>
      <trkpt lat="45.0005" lon="6.03484">
        <ele>1840.4000244141</ele>
        <time>2021-03-21T09:06:46.000Z</time>
      </trkpt>
      <trkpt lat="45.00049" lon="6.03484">
        <ele>1840.5999755859</ele>
        <time>2021-03-21T09:06:47.000Z</time>
      </trkpt>
      <trkpt lat="45.00048" lon="6.03484">
        <ele>1840.8000488281</ele>
        <time>2021-03-21T09:06:48.000Z</time>
      </trkpt>
      <trkpt lat="45.00048" lon="6.03484">
        <ele>1841</ele>
        <time>2021-03-21T09:06:49.000Z</time>
      </trkpt>
      <trkpt lat="45.00047" lon="6.03484">
        <ele>1841.4000244141</ele>
        <time>2021-03-21T09:06:50.000Z</time>
      </trkpt>
      <trkpt lat="45.00047" lon="6.03485">
        <ele>1841.5999755859</ele>
        <time>2021-03-21T09:06:51.000Z</time>
      </trkpt>
      <trkpt lat="45.00046" lon="6.03485">
        <ele>1841.8000488281</ele>
        <time>2021-03-21T09:06:52.000Z</time>
      </trkpt>
      <trkpt lat="45.00045" lon="6.03485">
        <ele>1842.1999511719</ele>
        <time>2021-03-21T09:06:53.000Z</time>
      </trkpt>
      <trkpt lat="45.00044" lon="6.03485">
        <ele>1842.4000244141</ele>
        <time>2021-03-21T09:06:54.000Z</time>
      </trkpt>
      <trkpt lat="45.00044" lon="6.03485">
        <ele>1842.8000488281</ele>
        <time>2021-03-21T09:06:55.000Z</time>
      </trkpt>
      <trkpt lat="45.00043" lon="6.03485">
        <ele>1842.8000488281</ele>
        <time>2021-03-21T09:06:56.000Z</time>
      </trkpt>
      <trkpt lat="45.00043" lon="6.03486">
        <ele>1843</ele>
        <time>2021-03-21T09:06:57.000Z</time>
      </trkpt>
      <trkpt lat="45.00042" lon="6.03486">
        <ele>1843.1999511719</ele>
        <time>2021-03-21T09:06:58.000Z</time>
      </trkpt>
      <trkpt lat="45.00042" lon="6.03486">
        <ele>1843.4000244141</ele>
        <time>2021-03-21T09:06:59.000Z</time>
      </trkpt>
      <trkpt lat="45.00041" lon="6.03486">
        <ele>1843.4000244141</ele>
        <time>2021-03-21T09:07:00.000Z</time>
      </trkpt>
      <trkpt lat="45.0004" lon="6.03486">
        <ele>1843.8000488281</ele>
        <time>2021-03-21T09:07:01.000Z</time>
      </trkpt>
      <trkpt lat="45.0004" lon="6.03486">
        <ele>1843.8000488281</ele>
        <time>2021-03-21T09:07:02.000Z</time>
      </trkpt>
      <trkpt lat="45.00039" lon="6.03487">
        <ele>1844</ele>
        <time>2021-03-21T09:07:03.000Z</time>
      </trkpt>
      <trkpt lat="45.00038" lon="6.03487">
        <ele>1844.4000244141</ele>
        <time>2021-03-21T09:07:04.000Z</time>
      </trkpt>
      <trkpt lat="45.00037" lon="6.03488">
        <ele>1844.4000244141</ele>
        <time>2021-03-21T09:07:05.000Z</time>
      </trkpt>
      <trkpt lat="45.00037" lon="6.03488">
        <ele>1844.5999755859</ele>
        <time>2021-03-21T09:07:06.000Z</time>
      </trkpt>
      <trkpt lat="45.00036" lon="6.03489">
        <ele>1844.8000488281</ele>
        <time>2021-03-21T09:07:07.000Z</time>
      </trkpt>
      <trkpt lat="45.00035" lon="6.03489">
        <ele>1844.8000488281</ele>
        <time>2021-03-21T09:07:08.000Z</time>
      </trkpt>
      <trkpt lat="45.00034" lon="6.03489">
        <ele>1845</ele>
        <time>2021-03-21T09:07:09.000Z</time>
      </trkpt>
      <trkpt lat="45.00034" lon="6.0349">
        <ele>1845.1999511719</ele>
        <time>2021-03-21T09:07:10.000Z</time>
      </trkpt>
      <trkpt lat="45.00033" lon="6.0349">
        <ele>1845.4000244141</ele>
        <time>2021-03-21T09:07:11.000Z</time>
      </trkpt>
      <trkpt lat="45.00033" lon="6.0349">
        <ele>1845.5999755859</ele>
        <time>2021-03-21T09:07:12.000Z</time>
      </trkpt>
      <trkpt lat="45.00032" lon="6.0349">
        <ele>1845.5999755859</ele>
        <time>2021-03-21T09:07:13.000Z</time>
      </trkpt>
      <trkpt lat="45.00032" lon="6.0349">
        <ele>1845.8000488281</ele>
        <time>2021-03-21T09:07:14.000Z</time>
      </trkpt>
      <trkpt lat="45.00031" lon="6.0349">
        <ele>1846</ele>
        <time>2021-03-21T09:07:15.000Z</time>
      </trkpt>
      <trkpt lat="45.0003" lon="6.0349">
        <ele>1846.1999511719</ele>
        <time>2021-03-21T09:07:16.000Z</time>
      </trkpt>
      <trkpt lat="45.0003" lon="6.03491">
        <ele>1846.4000244141</ele>
        <time>2021-03-21T09:07:17.000Z</time>
      </trkpt>
      <trkpt lat="45.00029" lon="6.03491">
        <ele>1846.8000488281</ele>
        <time>2021-03-21T09:07:18.000Z</time>
      </trkpt>
      <trkpt lat="45.00028" lon="6.03491">
        <ele>1847</ele>
        <time>2021-03-21T09:07:19.000Z</time>
      </trkpt>
      <trkpt lat="45.00027" lon="6.03491">
        <ele>1847.1999511719</ele>
        <time>2021-03-21T09:07:20.000Z</time>
      </trkpt>
      <trkpt lat="45.00026" lon="6.03491">
        <ele>1847.5999755859</ele>
        <time>2021-03-21T09:07:21.000Z</time>
      </trkpt>
      <trkpt lat="45.00026" lon="6.03491">
        <ele>1847.8000488281</ele>
        <time>2021-03-21T09:07:22.000Z</time>
      </trkpt>
      <trkpt lat="45.00025" lon="6.03491">
        <ele>1848</ele>
        <time>2021-03-21T09:07:23.000Z</time>
      </trkpt>
      <trkpt lat="45.00024" lon="6.03491">
        <ele>1848.4000244141</ele>
        <time>2021-03-21T09:07:24.000Z</time>
      </trkpt>
      <trkpt lat="45.00024" lon="6.0349">
        <ele>1848.5999755859</ele>
        <time>2021-03-21T09:07:25.000Z</time>
      </trkpt>
      <trkpt lat="45.00023" lon="6.0349">
        <ele>1849</ele>
        <time>2021-03-21T09:07:26.000Z</time>
      </trkpt>
      <trkpt lat="45.00023" lon="6.0349">
        <ele>1849.1999511719</ele>
        <time>2021-03-21T09:07:27.000Z</time>
      </trkpt>
      <trkpt lat="45.00022" lon="6.0349">
        <ele>1849.4000244141</ele>
        <time>2021-03-21T09:07:28.000Z</time>
      </trkpt>
      <trkpt lat="45.00021" lon="6.0349">
        <ele>1849.5999755859</ele>
        <time>2021-03-21T09:07:29.000Z</time>
      </trkpt>
      <trkpt lat="45.00021" lon="6.0349">
        <ele>1850</ele>
        <time>2021-03-21T09:07:30.000Z</time>
      </trkpt>
      <trkpt lat="45.0002" lon="6.03489">
        <ele>1850.1999511719</ele>
        <time>2021-03-21T09:07:31.000Z</time>
      </trkpt>
      <trkpt lat="45.00019" lon="6.03489">
        <ele>1850.5999755859</ele>
        <time>2021-03-21T09:07:32.000Z</time>
      </trkpt>
      <trkpt lat="45.00018" lon="6.03489">
        <ele>1850.8000488281</ele>
        <time>2021-03-21T09:07:33.000Z</time>
      </trkpt>
      <trkpt lat="45.00018" lon="6.03489">
        <ele>1851</ele>
        <time>2021-03-21T09:07:34.000Z</time>
      </trkpt>
      <trkpt lat="45.00017" lon="6.03489">
        <ele>1851.4000244141</ele>
        <time>2021-03-21T09:07:35.000Z</time>
      </trkpt>
      <trkpt lat="45.00016" lon="6.03489">
        <ele>1851.5999755859</ele>
        <time>2021-03-21T09:07:36.000Z</time>
      </trkpt>
      <trkpt lat="45.00015" lon="6.03489">
        <ele>1852</ele>
        <time>2021-03-21T09:07:37.000Z</time>
      </trkpt>
      <trkpt lat="45.00015" lon="6.03489">
        <ele>1852.1999511719</ele>
        <time>2021-03-21T09:07:38.000Z</time>
      </trkpt>
      <trkpt lat="45.00014" lon="6.03489">
        <ele>1852.1999511719</ele>
        <time>2021-03-21T09:07:39.000Z</time>
      </trkpt>
      <trkpt lat="45.00013" lon="6.03488">
        <ele>1852.5999755859</ele>
        <time>2021-03-21T09:07:40.000Z</time>
      </trkpt>
      <trkpt lat="45.00013" lon="6.03489">
        <ele>1852.5999755859</ele>
        <time>2021-03-21T09:07:41.000Z</time>
      </trkpt>
      <trkpt lat="45.00012" lon="6.03488">
        <ele>1852.5999755859</ele>
        <time>2021-03-21T09:07:42.000Z</time>
      </trkpt>
      <trkpt lat="45.00012" lon="6.03488">
        <ele>1852.5999755859</ele>
        <time>2021-03-21T09:07:43.000Z</time>
      </trkpt>
      <trkpt lat="45.00011" lon="6.03488">
        <ele>1852.5999755859</ele>
        <time>2021-03-21T09:07:44.000Z</time>
      </trkpt>
      <trkpt lat="45.0001" lon="6.03489">
        <ele>1852.4000244141</ele>
        <time>2021-03-21T09:07:45.000Z</time>
      </trkpt>
      <trkpt lat="45.00009" lon="6.03489">
        <ele>1852.5999755859</ele>
        <time>2021-03-21T09:07:46.000Z</time>
      </trkpt>
      <trkpt lat="45.00008" lon="6.03489">
        <ele>1852.5999755859</ele>
        <time>2021-03-21T09:07:47.000Z</time>
      </trkpt>
      <trkpt lat="45.00008" lon="6.03489">
        <ele>1852.4000244141</ele>
        <time>2021-03-21T09:07:48.000Z</time>
      </trkpt>
      <trkpt lat="45.00007" lon="6.03489">
        <ele>1852.4000244141</ele>
        <time>2021-03-21T09:07:49.000Z</time>
      </trkpt>
      <trkpt lat="45.00006" lon="6.03489">
        <ele>1852.4000244141</ele>
        <time>2021-03-21T09:07:50.000Z</time>
      </trkpt>
      <trkpt lat="45.00006" lon="6.03489">
        <ele>1852.4000244141</ele>
        <time>2021-03-21T09:07:51.000Z</time>
      </trkpt>
      <trkpt lat="45.00005" lon="6.03489">
        <ele>1852.4000244141</ele>
        <time>2021-03-21T09:07:52.000Z</time>
      </trkpt>
      <trkpt lat="45.00004" lon="6.03488">
        <ele>1852.5999755859</ele>
        <time>2021-03-21T09:07:53.000Z</time>
      </trkpt>
      <trkpt lat="45.00004" lon="6.03488">
        <ele>1852.5999755859</ele>
        <time>2021-03-21T09:07:54.000Z</time>
      </trkpt>
      <trkpt lat="45.00003" lon="6.03488">
        <ele>1852.5999755859</ele>
        <time>2021-03-21T09:07:55.000Z</time>
      </trkpt>
      <trkpt lat="45.00002" lon="6.03488">
        <ele>1852.5999755859</ele>
        <time>2021-03-21T09:07:56.000Z</time>
      </trkpt>
      <trkpt lat="45.00002" lon="6.03488">
        <ele>1852.8000488281</ele>
        <time>2021-03-21T09:07:57.000Z</time>
      </trkpt>
      <trkpt lat="45.00001" lon="6.03488">
        <ele>1852.8000488281</ele>
        <time>2021-03-21T09:07:58.000Z</time>
      </trkpt>
      <trkpt lat="45.00001" lon="6.03488">
        <ele>1852.8000488281</ele>
        <time>2021-03-21T09:07:59.000Z</time>
      </trkpt>
      <trkpt lat="45" lon="6.03487">
        <ele>1853</ele>
        <time>2021-03-21T09:08:00.000Z</time>
      </trkpt>
      <trkpt lat="45" lon="6.03487">
        <ele>1853</ele>
        <time>2021-03-21T09:08:01.000Z</time>
      </trkpt>
      <trkpt lat="44.99999" lon="6.03487">
        <ele>1853</ele>
        <time>2021-03-21T09:08:02.000Z</time>
      </trkpt>
      <trkpt lat="44.99998" lon="6.03487">
        <ele>1853</ele>
        <time>2021-03-21T09:08:03.000Z</time>
      </trkpt>
      <trkpt lat="44.99998" lon="6.03487">
        <ele>1853</ele>
        <time>2021-03-21T09:08:04.000Z</time>
      </trkpt>
      <trkpt lat="44.99997" lon="6.03487">
        <ele>1853.1999511719</ele>
        <time>2021-03-21T09:08:05.000Z</time>
      </trkpt>
      <trkpt lat="44.99997" lon="6.03487">
        <ele>1853.1999511719</ele>
        <time>2021-03-21T09:08:06.000Z</time>
      </trkpt>
      <trkpt lat="44.99996" lon="6.03486">
        <ele>1853.4000244141</ele>
        <time>2021-03-21T09:08:07.000Z</time>
      </trkpt>
      <trkpt lat="44.99995" lon="6.03486">
        <ele>1853.1999511719</ele>
        <time>2021-03-21T09:08:08.000Z</time>
      </trkpt>
      <trkpt lat="44.99995" lon="6.03486">
        <ele>1853.4000244141</ele>
        <time>2021-03-21T09:08:09.000Z</time>
      </trkpt>
      <trkpt lat="44.99994" lon="6.03486">
        <ele>1853.4000244141</ele>
        <time>2021-03-21T09:08:10.000Z</time>
      </trkpt>
      <trkpt lat="44.99994" lon="6.03486">
        <ele>1853.4000244141</ele>
        <time>2021-03-21T09:08:11.000Z</time>
      </trkpt>
      <trkpt lat="44.99993" lon="6.03486">
        <ele>1853.5999755859</ele>
        <time>2021-03-21T09:08:12.000Z</time>
      </trkpt>
      <trkpt lat="44.99993" lon="6.03485">
        <ele>1853.5999755859</ele>
        <time>2021-03-21T09:08:13.000Z</time>
      </trkpt>
      <trkpt lat="44.99993" lon="6.03485">
        <ele>1853.8000488281</ele>
        <time>2021-03-21T09:08:14.000Z</time>
      </trkpt>
      <trkpt lat="44.99992" lon="6.03485">
        <ele>1854</ele>
        <time>2021-03-21T09:08:15.000Z</time>
      </trkpt>
      <trkpt lat="44.99992" lon="6.03484">
        <ele>1854</ele>
        <time>2021-03-21T09:08:16.000Z</time>
      </trkpt>
      <trkpt lat="44.99992" lon="6.03484">
        <ele>1854</ele>
        <time>2021-03-21T09:08:17.000Z</time>
      </trkpt>
      <trkpt lat="44.99991" lon="6.03484">
        <ele>1854.1999511719</ele>
        <time>2021-03-21T09:08:18.000Z</time>
      </trkpt>
      <trkpt lat="44.99991" lon="6.03483">
        <ele>1854.4000244141</ele>
        <time>2021-03-21T09:08:19.000Z</time>
      </trkpt>
      <trkpt lat="44.9999" lon="6.03483">
        <ele>1854.4000244141</ele>
        <time>2021-03-21T09:08:20.000Z</time>
      </trkpt>
      <trkpt lat="44.9999" lon="6.03482">
        <ele>1854.8000488281</ele>
        <time>2021-03-21T09:08:21.000Z</time>
      </trkpt>
      <trkpt lat="44.9999" lon="6.03482">
        <ele>1855</ele>
        <time>2021-03-21T09:08:22.000Z</time>
      </trkpt>
      <trkpt lat="44.99989" lon="6.03481">
        <ele>1855</ele>
        <time>2021-03-21T09:08:23.000Z</time>
      </trkpt>
      <trkpt lat="44.99989" lon="6.03481">
        <ele>1855.1999511719</ele>
        <time>2021-03-21T09:08:24.000Z</time>
      </trkpt>
      <trkpt lat="44.99989" lon="6.03481">
        <ele>1855.1999511719</ele>
        <time>2021-03-21T09:08:25.000Z</time>
      </trkpt>
      <trkpt lat="44.99989" lon="6.03481">
        <ele>1855.4000244141</ele>
        <time>2021-03-21T09:08:26.000Z</time>
      </trkpt>
      <trkpt lat="44.99988" lon="6.0348">
        <ele>1855.5999755859</ele>
        <time>2021-03-21T09:08:27.000Z</time>
      </trkpt>
      <trkpt lat="44.99988" lon="6.0348">
        <ele>1855.5999755859</ele>
        <time>2021-03-21T09:08:28.000Z</time>
      </trkpt>
      <trkpt lat="44.99987" lon="6.0348">
        <ele>1855.5999755859</ele>
        <time>2021-03-21T09:08:29.000Z</time>
      </trkpt>
      <trkpt lat="44.99987" lon="6.03479">
        <ele>1855.8000488281</ele>
        <time>2021-03-21T09:08:30.000Z</time>
      </trkpt>
      <trkpt lat="44.99986" lon="6.03479">
        <ele>1856</ele>
        <time>2021-03-21T09:08:31.000Z</time>
      </trkpt>
      <trkpt lat="44.99986" lon="6.03479">
        <ele>1856.1999511719</ele>
        <time>2021-03-21T09:08:32.000Z</time>
      </trkpt>
      <trkpt lat="44.99985" lon="6.03478">
        <ele>1856.4000244141</ele>
        <time>2021-03-21T09:08:33.000Z</time>
      </trkpt>
      <trkpt lat="44.99985" lon="6.03478">
        <ele>1856.4000244141</ele>
        <time>2021-03-21T09:08:34.000Z</time>
      </trkpt>
      <trkpt lat="44.99984" lon="6.03478">
        <ele>1856.5999755859</ele>
        <time>2021-03-21T09:08:35.000Z</time>
      </trkpt>
      <trkpt lat="44.99983" lon="6.03478">
        <ele>1856.8000488281</ele>
        <time>2021-03-21T09:08:36.000Z</time>
      </trkpt>
      <trkpt lat="44.99983" lon="6.03478">
        <ele>1857</ele>
        <time>2021-03-21T09:08:37.000Z</time>
      </trkpt>
      <trkpt lat="44.99982" lon="6.03477">
        <ele>1857.1999511719</ele>
        <time>2021-03-21T09:08:38.000Z</time>
      </trkpt>
      <trkpt lat="44.99982" lon="6.03477">
        <ele>1857.4000244141</ele>
        <time>2021-03-21T09:08:39.000Z</time>
      </trkpt>
      <trkpt lat="44.99981" lon="6.03476">
        <ele>1857.5999755859</ele>
        <time>2021-03-21T09:08:40.000Z</time>
      </trkpt>
      <trkpt lat="44.99981" lon="6.03476">
        <ele>1857.8000488281</ele>
        <time>2021-03-21T09:08:41.000Z</time>
      </trkpt>
      <trkpt lat="44.9998" lon="6.03475">
        <ele>1858.1999511719</ele>
        <time>2021-03-21T09:08:42.000Z</time>
      </trkpt>
      <trkpt lat="44.9998" lon="6.03475">
        <ele>1858.1999511719</ele>
        <time>2021-03-21T09:08:43.000Z</time>
      </trkpt>
      <trkpt lat="44.99979" lon="6.03475">
        <ele>1858.4000244141</ele>
        <time>2021-03-21T09:08:44.000Z</time>
      </trkpt>
      <trkpt lat="44.99979" lon="6.03475">
        <ele>1858.5999755859</ele>
        <time>2021-03-21T09:08:45.000Z</time>
      </trkpt>
      <trkpt lat="44.99978" lon="6.03474">
        <ele>1858.8000488281</ele>
        <time>2021-03-21T09:08:46.000Z</time>
      </trkpt>
      <trkpt lat="44.99977" lon="6.03474">
        <ele>1858.8000488281</ele>
        <time>2021-03-21T09:08:47.000Z</time>
      </trkpt>
      <trkpt lat="44.99977" lon="6.03474">
        <ele>1859</ele>
        <time>2021-03-21T09:08:48.000Z</time>
      </trkpt>
      <trkpt lat="44.99976" lon="6.03474">
        <ele>1859.1999511719</ele>
        <time>2021-03-21T09:08:49.000Z</time>
      </trkpt>
      <trkpt lat="44.99976" lon="6.03474">
        <ele>1859.4000244141</ele>
        <time>2021-03-21T09:08:50.000Z</time>
      </trkpt>
      <trkpt lat="44.99975" lon="6.03473">
        <ele>1859.5999755859</ele>
        <time>2021-03-21T09:08:51.000Z</time>
      </trkpt>
      <trkpt lat="44.99975" lon="6.03473">
        <ele>1859.8000488281</ele>
        <time>2021-03-21T09:08:52.000Z</time>
      </trkpt>
      <trkpt lat="44.99974" lon="6.03472">
        <ele>1860</ele>
        <time>2021-03-21T09:08:53.000Z</time>
      </trkpt>
      <trkpt lat="44.99974" lon="6.03472">
        <ele>1860</ele>
        <time>2021-03-21T09:08:54.000Z</time>
      </trkpt>
      <trkpt lat="44.99973" lon="6.03473">
        <ele>1860.1999511719</ele>
        <time>2021-03-21T09:08:55.000Z</time>
      </trkpt>
      <trkpt lat="44.99972" lon="6.03473">
        <ele>1860.1999511719</ele>
        <time>2021-03-21T09:08:56.000Z</time>
      </trkpt>
      <trkpt lat="44.99972" lon="6.03473">
        <ele>1860.1999511719</ele>
        <time>2021-03-21T09:08:57.000Z</time>
      </trkpt>
      <trkpt lat="44.99972" lon="6.03472">
        <ele>1860.4000244141</ele>
        <time>2021-03-21T09:08:58.000Z</time>
      </trkpt>
      <trkpt lat="44.99971" lon="6.03472">
        <ele>1860.5999755859</ele>
        <time>2021-03-21T09:08:59.000Z</time>
      </trkpt>
      <trkpt lat="44.99971" lon="6.03471">
        <ele>1861</ele>
        <time>2021-03-21T09:09:00.000Z</time>
      </trkpt>
      <trkpt lat="44.9997" lon="6.03471">
        <ele>1861.1999511719</ele>
        <time>2021-03-21T09:09:01.000Z</time>
      </trkpt>
      <trkpt lat="44.9997" lon="6.0347">
        <ele>1861.5999755859</ele>
        <time>2021-03-21T09:09:02.000Z</time>
      </trkpt>
      <trkpt lat="44.99969" lon="6.0347">
        <ele>1861.8000488281</ele>
        <time>2021-03-21T09:09:03.000Z</time>
      </trkpt>
      <trkpt lat="44.99968" lon="6.03469">
        <ele>1862</ele>
        <time>2021-03-21T09:09:04.000Z</time>
      </trkpt>
      <trkpt lat="44.99968" lon="6.03469">
        <ele>1862</ele>
        <time>2021-03-21T09:09:05.000Z</time>
      </trkpt>
      <trkpt lat="44.99967" lon="6.03469">
        <ele>1862.1999511719</ele>
        <time>2021-03-21T09:09:06.000Z</time>
      </trkpt>
      <trkpt lat="44.99966" lon="6.03469">
        <ele>1862.4000244141</ele>
        <time>2021-03-21T09:09:07.000Z</time>
      </trkpt>
      <trkpt lat="44.99966" lon="6.03469">
        <ele>1862.4000244141</ele>
        <time>2021-03-21T09:09:08.000Z</time>
      </trkpt>
      <trkpt lat="44.99964" lon="6.03469">
        <ele>1862.4000244141</ele>
        <time>2021-03-21T09:09:09.000Z</time>
      </trkpt>
      <trkpt lat="44.99964" lon="6.03469">
        <ele>1862.5999755859</ele>
        <time>2021-03-21T09:09:10.000Z</time>
      </trkpt>
      <trkpt lat="44.99963" lon="6.03469">
        <ele>1862.5999755859</ele>
        <time>2021-03-21T09:09:11.000Z</time>
      </trkpt>
      <trkpt lat="44.99963" lon="6.03468">
        <ele>1862.8000488281</ele>
        <time>2021-03-21T09:09:12.000Z</time>
      </trkpt>
      <trkpt lat="44.99962" lon="6.03468">
        <ele>1863</ele>
        <time>2021-03-21T09:09:13.000Z</time>
      </trkpt>
      <trkpt lat="44.99962" lon="6.03468">
        <ele>1863</ele>
        <time>2021-03-21T09:09:14.000Z</time>
      </trkpt>
      <trkpt lat="44.99962" lon="6.03467">
        <ele>1863.1999511719</ele>
        <time>2021-03-21T09:09:15.000Z</time>
      </trkpt>
      <trkpt lat="44.99962" lon="6.03467">
        <ele>1863.5999755859</ele>
        <time>2021-03-21T09:09:16.000Z</time>
      </trkpt>
      <trkpt lat="44.99962" lon="6.03466">
        <ele>1863.8000488281</ele>
        <time>2021-03-21T09:09:17.000Z</time>
      </trkpt>
      <trkpt lat="44.99961" lon="6.03466">
        <ele>1864</ele>
        <time>2021-03-21T09:09:18.000Z</time>
      </trkpt>
      <trkpt lat="44.99961" lon="6.03466">
        <ele>1864.1999511719</ele>
        <time>2021-03-21T09:09:19.000Z</time>
      </trkpt>
      <trkpt lat="44.9996" lon="6.03465">
        <ele>1864.1999511719</ele>
        <time>2021-03-21T09:09:20.000Z</time>
      </trkpt>
      <trkpt lat="44.9996" lon="6.03466">
        <ele>1864.1999511719</ele>
        <time>2021-03-21T09:09:21.000Z</time>
      </trkpt>
      <trkpt lat="44.99959" lon="6.03466">
        <ele>1864.1999511719</ele>
        <time>2021-03-21T09:09:22.000Z</time>
      </trkpt>
      <trkpt lat="44.99959" lon="6.03466">
        <ele>1864.1999511719</ele>
        <time>2021-03-21T09:09:23.000Z</time>
      </trkpt>
      <trkpt lat="44.99958" lon="6.03466">
        <ele>1864.5999755859</ele>
        <time>2021-03-21T09:09:24.000Z</time>
      </trkpt>
      <trkpt lat="44.99958" lon="6.03465">
        <ele>1864.8000488281</ele>
        <time>2021-03-21T09:09:25.000Z</time>
      </trkpt>
      <trkpt lat="44.99957" lon="6.03465">
        <ele>1865</ele>
        <time>2021-03-21T09:09:26.000Z</time>
      </trkpt>
      <trkpt lat="44.99957" lon="6.03465">
        <ele>1865.5999755859</ele>
        <time>2021-03-21T09:09:27.000Z</time>
      </trkpt>
      <trkpt lat="44.99957" lon="6.03464">
        <ele>1865.8000488281</ele>
        <time>2021-03-21T09:09:28.000Z</time>
      </trkpt>
      <trkpt lat="44.99957" lon="6.03463">
        <ele>1866.4000244141</ele>
        <time>2021-03-21T09:09:29.000Z</time>
      </trkpt>
      <trkpt lat="44.99956" lon="6.03463">
        <ele>1866.5999755859</ele>
        <time>2021-03-21T09:09:30.000Z</time>
      </trkpt>
      <trkpt lat="44.99956" lon="6.03462">
        <ele>1867.4000244141</ele>
        <time>2021-03-21T09:09:31.000Z</time>
      </trkpt>
      <trkpt lat="44.99956" lon="6.03461">
        <ele>1867.5999755859</ele>
        <time>2021-03-21T09:09:32.000Z</time>
      </trkpt>
      <trkpt lat="44.99955" lon="6.03461">
        <ele>1868.1999511719</ele>
        <time>2021-03-21T09:09:33.000Z</time>
      </trkpt>
      <trkpt lat="44.99955" lon="6.0346">
        <ele>1868.5999755859</ele>
        <time>2021-03-21T09:09:34.000Z</time>
      </trkpt>
      <trkpt lat="44.99954" lon="6.0346">
        <ele>1869.1999511719</ele>
        <time>2021-03-21T09:09:35.000Z</time>
      </trkpt>
      <trkpt lat="44.99954" lon="6.03459">
        <ele>1869.8000488281</ele>
        <time>2021-03-21T09:09:36.000Z</time>
      </trkpt>
      <trkpt lat="44.99953" lon="6.03459">
        <ele>1869.8000488281</ele>
        <time>2021-03-21T09:09:37.000Z</time>
      </trkpt>
      <trkpt lat="44.99953" lon="6.03459">
        <ele>1870.1999511719</ele>
        <time>2021-03-21T09:09:38.000Z</time>
      </trkpt>
      <trkpt lat="44.99952" lon="6.03459">
        <ele>1870.5999755859</ele>
        <time>2021-03-21T09:09:39.000Z</time>
      </trkpt>
      <trkpt lat="44.99952" lon="6.03458">
        <ele>1871</ele>
        <time>2021-03-21T09:09:40.000Z</time>
      </trkpt>
      <trkpt lat="44.99952" lon="6.03458">
        <ele>1871.1999511719</ele>
        <time>2021-03-21T09:09:41.000Z</time>
      </trkpt>
      <trkpt lat="44.99952" lon="6.03456">
        <ele>1871</ele>
        <time>2021-03-21T09:09:42.000Z</time>
      </trkpt>
      <trkpt lat="44.99952" lon="6.03456">
        <ele>1871</ele>
        <time>2021-03-21T09:09:43.000Z</time>
      </trkpt>
      <trkpt lat="44.99953" lon="6.03455">
        <ele>1870.8000488281</ele>
        <time>2021-03-21T09:09:44.000Z</time>
      </trkpt>
      <trkpt lat="44.99953" lon="6.03454">
        <ele>1870.8000488281</ele>
        <time>2021-03-21T09:09:45.000Z</time>
      </trkpt>
      <trkpt lat="44.99954" lon="6.03454">
        <ele>1870.8000488281</ele>
        <time>2021-03-21T09:09:46.000Z</time>
      </trkpt>
      <trkpt lat="44.99955" lon="6.03453">
        <ele>1870.8000488281</ele>
        <time>2021-03-21T09:09:47.000Z</time>
      </trkpt>
      <trkpt lat="44.99956" lon="6.03452">
        <ele>1870.8000488281</ele>
        <time>2021-03-21T09:09:48.000Z</time>
      </trkpt>
      <trkpt lat="44.99956" lon="6.03451">
        <ele>1871</ele>
        <time>2021-03-21T09:09:49.000Z</time>
      </trkpt>
      <trkpt lat="44.99957" lon="6.03451">
        <ele>1871.1999511719</ele>
        <time>2021-03-21T09:09:50.000Z</time>
      </trkpt>
      <trkpt lat="44.99958" lon="6.0345">
        <ele>1871.1999511719</ele>
        <time>2021-03-21T09:09:51.000Z</time>
      </trkpt>
      <trkpt lat="44.99959" lon="6.03449">
        <ele>1871.4000244141</ele>
        <time>2021-03-21T09:09:52.000Z</time>
      </trkpt>
      <trkpt lat="44.9996" lon="6.03448">
        <ele>1871.8000488281</ele>
        <time>2021-03-21T09:09:53.000Z</time>
      </trkpt>
      <trkpt lat="44.9996" lon="6.03447">
        <ele>1872</ele>
        <time>2021-03-21T09:09:54.000Z</time>
      </trkpt>
      <trkpt lat="44.99961" lon="6.03446">
        <ele>1872.1999511719</ele>
        <time>2021-03-21T09:09:55.000Z</time>
      </trkpt>
      <trkpt lat="44.99962" lon="6.03446">
        <ele>1872.4000244141</ele>
        <time>2021-03-21T09:09:56.000Z</time>
      </trkpt>
      <trkpt lat="44.99963" lon="6.03445">
        <ele>1872.4000244141</ele>
        <time>2021-03-21T09:09:57.000Z</time>
      </trkpt>
      <trkpt lat="44.99963" lon="6.03445">
        <ele>1872.5999755859</ele>
        <time>2021-03-21T09:09:58.000Z</time>
      </trkpt>
      <trkpt lat="44.99964" lon="6.03444">
        <ele>1872.8000488281</ele>
        <time>2021-03-21T09:09:59.000Z</time>
      </trkpt>
      <trkpt lat="44.99964" lon="6.03444">
        <ele>1872.8000488281</ele>
        <time>2021-03-21T09:10:00.000Z</time>
      </trkpt>
      <trkpt lat="44.99965" lon="6.03444">
        <ele>1872.8000488281</ele>
        <time>2021-03-21T09:10:01.000Z</time>
      </trkpt>
      <trkpt lat="44.99965" lon="6.03443">
        <ele>1873.1999511719</ele>
        <time>2021-03-21T09:10:02.000Z</time>
      </trkpt>
      <trkpt lat="44.99965" lon="6.03443">
        <ele>1873</ele>
        <time>2021-03-21T09:10:03.000Z</time>
      </trkpt>
      <trkpt lat="44.99966" lon="6.03442">
        <ele>1873.1999511719</ele>
        <time>2021-03-21T09:10:04.000Z</time>
      </trkpt>
      <trkpt lat="44.99966" lon="6.03442">
        <ele>1873.1999511719</ele>
        <time>2021-03-21T09:10:05.000Z</time>
      </trkpt>
      <trkpt lat="44.99967" lon="6.03442">
        <ele>1873.4000244141</ele>
        <time>2021-03-21T09:10:06.000Z</time>
      </trkpt>
      <trkpt lat="44.99967" lon="6.03441">
        <ele>1873.5999755859</ele>
        <time>2021-03-21T09:10:07.000Z</time>
      </trkpt>
      <trkpt lat="44.99967" lon="6.03441">
        <ele>1873.5999755859</ele>
        <time>2021-03-21T09:10:08.000Z</time>
      </trkpt>
      <trkpt lat="44.99967" lon="6.03441">
        <ele>1873.8000488281</ele>
        <time>2021-03-21T09:10:09.000Z</time>
      </trkpt>
      <trkpt lat="44.99968" lon="6.0344">
        <ele>1874.1999511719</ele>
        <time>2021-03-21T09:10:10.000Z</time>
      </trkpt>
      <trkpt lat="44.99968" lon="6.0344">
        <ele>1874</ele>
        <time>2021-03-21T09:10:11.000Z</time>
      </trkpt>
      <trkpt lat="44.99968" lon="6.03441">
        <ele>1873.8000488281</ele>
        <time>2021-03-21T09:10:12.000Z</time>
      </trkpt>
      <trkpt lat="44.99969" lon="6.0344">
        <ele>1874</ele>
        <time>2021-03-21T09:10:13.000Z</time>
      </trkpt>
      <trkpt lat="44.99969" lon="6.0344">
        <ele>1873.8000488281</ele>
        <time>2021-03-21T09:10:14.000Z</time>
      </trkpt>
      <trkpt lat="44.99969" lon="6.0344">
        <ele>1874.1999511719</ele>
        <time>2021-03-21T09:10:15.000Z</time>
      </trkpt>
      <trkpt lat="44.99969" lon="6.0344">
        <ele>1874.4000244141</ele>
        <time>2021-03-21T09:10:16.000Z</time>
      </trkpt>
      <trkpt lat="44.99969" lon="6.03439">
        <ele>1874.5999755859</ele>
        <time>2021-03-21T09:10:17.000Z</time>
      </trkpt>
      <trkpt lat="44.99969" lon="6.03439">
        <ele>1874.8000488281</ele>
        <time>2021-03-21T09:10:18.000Z</time>
      </trkpt>
      <trkpt lat="44.99969" lon="6.03438">
        <ele>1875.1999511719</ele>
        <time>2021-03-21T09:10:19.000Z</time>
      </trkpt>
      <trkpt lat="44.99968" lon="6.03438">
        <ele>1875.1999511719</ele>
        <time>2021-03-21T09:10:20.000Z</time>
      </trkpt>
      <trkpt lat="44.99967" lon="6.03437">
        <ele>1875.8000488281</ele>
        <time>2021-03-21T09:10:21.000Z</time>
      </trkpt>
      <trkpt lat="44.99967" lon="6.03436">
        <ele>1876.1999511719</ele>
        <time>2021-03-21T09:10:22.000Z</time>
      </trkpt>
      <trkpt lat="44.99967" lon="6.03436">
        <ele>1876.4000244141</ele>
        <time>2021-03-21T09:10:23.000Z</time>
      </trkpt>
      <trkpt lat="44.99966" lon="6.03435">
        <ele>1876.8000488281</ele>
        <time>2021-03-21T09:10:24.000Z</time>
      </trkpt>
      <trkpt lat="44.99966" lon="6.03435">
        <ele>1877</ele>
        <time>2021-03-21T09:10:25.000Z</time>
      </trkpt>
      <trkpt lat="44.99965" lon="6.03435">
        <ele>1877.1999511719</ele>
        <time>2021-03-21T09:10:26.000Z</time>
      </trkpt>
      <trkpt lat="44.99964" lon="6.03434">
        <ele>1877.1999511719</ele>
        <time>2021-03-21T09:10:27.000Z</time>
      </trkpt>
      <trkpt lat="44.99964" lon="6.03434">
        <ele>1877.5999755859</ele>
        <time>2021-03-21T09:10:28.000Z</time>
      </trkpt>
      <trkpt lat="44.99964" lon="6.03434">
        <ele>1877.8000488281</ele>
        <time>2021-03-21T09:10:29.000Z</time>
      </trkpt>
      <trkpt lat="44.99963" lon="6.03433">
        <ele>1878</ele>
        <time>2021-03-21T09:10:30.000Z</time>
      </trkpt>
      <trkpt lat="44.99962" lon="6.03433">
        <ele>1878.1999511719</ele>
        <time>2021-03-21T09:10:31.000Z</time>
      </trkpt>
      <trkpt lat="44.99962" lon="6.03432">
        <ele>1878.5999755859</ele>
        <time>2021-03-21T09:10:32.000Z</time>
      </trkpt>
      <trkpt lat="44.99961" lon="6.03432">
        <ele>1878.8000488281</ele>
        <time>2021-03-21T09:10:33.000Z</time>
      </trkpt>
      <trkpt lat="44.99961" lon="6.03431">
        <ele>1879</ele>
        <time>2021-03-21T09:10:34.000Z</time>
      </trkpt>
      <trkpt lat="44.9996" lon="6.03431">
        <ele>1879.1999511719</ele>
        <time>2021-03-21T09:10:35.000Z</time>
      </trkpt>
      <trkpt lat="44.9996" lon="6.03431">
        <ele>1879.1999511719</ele>
        <time>2021-03-21T09:10:36.000Z</time>
      </trkpt>
      <trkpt lat="44.99959" lon="6.0343">
        <ele>1879.4000244141</ele>
        <time>2021-03-21T09:10:37.000Z</time>
      </trkpt>
      <trkpt lat="44.99959" lon="6.0343">
        <ele>1879.5999755859</ele>
        <time>2021-03-21T09:10:38.000Z</time>
      </trkpt>
      <trkpt lat="44.99958" lon="6.03429">
        <ele>1879.8000488281</ele>
        <time>2021-03-21T09:10:39.000Z</time>
      </trkpt>
      <trkpt lat="44.99958" lon="6.03429">
        <ele>1879.8000488281</ele>
        <time>2021-03-21T09:10:40.000Z</time>
      </trkpt>
      <trkpt lat="44.99957" lon="6.03429">
        <ele>1880.1999511719</ele>
        <time>2021-03-21T09:10:41.000Z</time>
      </trkpt>
      <trkpt lat="44.99957" lon="6.03428">
        <ele>1880.5999755859</ele>
        <time>2021-03-21T09:10:42.000Z</time>
      </trkpt>
      <trkpt lat="44.99957" lon="6.03427">
        <ele>1881</ele>
        <time>2021-03-21T09:10:43.000Z</time>
      </trkpt>
      <trkpt lat="44.99957" lon="6.03427">
        <ele>1880.8000488281</ele>
        <time>2021-03-21T09:10:44.000Z</time>
      </trkpt>
      <trkpt lat="44.99957" lon="6.03426">
        <ele>1881.1999511719</ele>
        <time>2021-03-21T09:10:45.000Z</time>
      </trkpt>
      <trkpt lat="44.99957" lon="6.03425">
        <ele>1881.4000244141</ele>
        <time>2021-03-21T09:10:46.000Z</time>
      </trkpt>
      <trkpt lat="44.99957" lon="6.03424">
        <ele>1881.8000488281</ele>
        <time>2021-03-21T09:10:47.000Z</time>
      </trkpt>
      <trkpt lat="44.99958" lon="6.03424">
        <ele>1881.8000488281</ele>
        <time>2021-03-21T09:10:48.000Z</time>
      </trkpt>
      <trkpt lat="44.99958" lon="6.03423">
        <ele>1882.1999511719</ele>
        <time>2021-03-21T09:10:49.000Z</time>
      </trkpt>
      <trkpt lat="44.99958" lon="6.03423">
        <ele>1882.1999511719</ele>
        <time>2021-03-21T09:10:50.000Z</time>
      </trkpt>
      <trkpt lat="44.99959" lon="6.03421">
        <ele>1882.5999755859</ele>
        <time>2021-03-21T09:10:51.000Z</time>
      </trkpt>
      <trkpt lat="44.99959" lon="6.03421">
        <ele>1882.8000488281</ele>
        <time>2021-03-21T09:10:52.000Z</time>
      </trkpt>
      <trkpt lat="44.99959" lon="6.0342">
        <ele>1883</ele>
        <time>2021-03-21T09:10:53.000Z</time>
      </trkpt>
      <trkpt lat="44.9996" lon="6.0342">
        <ele>1883.1999511719</ele>
        <time>2021-03-21T09:10:54.000Z</time>
      </trkpt>
      <trkpt lat="44.9996" lon="6.03419">
        <ele>1883.4000244141</ele>
        <time>2021-03-21T09:10:55.000Z</time>
      </trkpt>
      <trkpt lat="44.9996" lon="6.03418">
        <ele>1883.5999755859</ele>
        <time>2021-03-21T09:10:56.000Z</time>
      </trkpt>
      <trkpt lat="44.99961" lon="6.03418">
        <ele>1883.8000488281</ele>
        <time>2021-03-21T09:10:57.000Z</time>
      </trkpt>
      <trkpt lat="44.99961" lon="6.03417">
        <ele>1884</ele>
        <time>2021-03-21T09:10:58.000Z</time>
      </trkpt>
      <trkpt lat="44.99962" lon="6.03417">
        <ele>1884.1999511719</ele>
        <time>2021-03-21T09:10:59.000Z</time>
      </trkpt>
      <trkpt lat="44.99962" lon="6.03416">
        <ele>1884.5999755859</ele>
        <time>2021-03-21T09:11:00.000Z</time>
      </trkpt>
      <trkpt lat="44.99963" lon="6.03415">
        <ele>1884.5999755859</ele>
        <time>2021-03-21T09:11:01.000Z</time>
      </trkpt>
      <trkpt lat="44.99963" lon="6.03414">
        <ele>1885</ele>
        <time>2021-03-21T09:11:02.000Z</time>
      </trkpt>
      <trkpt lat="44.99963" lon="6.03414">
        <ele>1885.1999511719</ele>
        <time>2021-03-21T09:11:03.000Z</time>
      </trkpt>
      <trkpt lat="44.99964" lon="6.03413">
        <ele>1885.5999755859</ele>
        <time>2021-03-21T09:11:04.000Z</time>
      </trkpt>
      <trkpt lat="44.99964" lon="6.03412">
        <ele>1885.8000488281</ele>
        <time>2021-03-21T09:11:05.000Z</time>
      </trkpt>
      <trkpt lat="44.99965" lon="6.03411">
        <ele>1886.1999511719</ele>
        <time>2021-03-21T09:11:06.000Z</time>
      </trkpt>
      <trkpt lat="44.99965" lon="6.03411">
        <ele>1886.4000244141</ele>
        <time>2021-03-21T09:11:07.000Z</time>
      </trkpt>
      <trkpt lat="44.99966" lon="6.0341">
        <ele>1886.8000488281</ele>
        <time>2021-03-21T09:11:08.000Z</time>
      </trkpt>
      <trkpt lat="44.99966" lon="6.03409">
        <ele>1887.1999511719</ele>
        <time>2021-03-21T09:11:09.000Z</time>
      </trkpt>
      <trkpt lat="44.99967" lon="6.03408">
        <ele>1887.5999755859</ele>
        <time>2021-03-21T09:11:10.000Z</time>
      </trkpt>
      <trkpt lat="44.99968" lon="6.03407">
        <ele>1888.1999511719</ele>
        <time>2021-03-21T09:11:11.000Z</time>
      </trkpt>
      <trkpt lat="44.99969" lon="6.03406">
        <ele>1888.5999755859</ele>
        <time>2021-03-21T09:11:12.000Z</time>
      </trkpt>
      <trkpt lat="44.99969" lon="6.03406">
        <ele>1888.8000488281</ele>
        <time>2021-03-21T09:11:13.000Z</time>
      </trkpt>
      <trkpt lat="44.9997" lon="6.03404">
        <ele>1889.5999755859</ele>
        <time>2021-03-21T09:11:14.000Z</time>
      </trkpt>
      <trkpt lat="44.99971" lon="6.03403">
        <ele>1890</ele>
        <time>2021-03-21T09:11:15.000Z</time>
      </trkpt>
      <trkpt lat="44.99971" lon="6.03402">
        <ele>1890.5999755859</ele>
        <time>2021-03-21T09:11:16.000Z</time>
      </trkpt>
      <trkpt lat="44.99972" lon="6.03402">
        <ele>1891</ele>
        <time>2021-03-21T09:11:17.000Z</time>
      </trkpt>
      <trkpt lat="44.99973" lon="6.03401">
        <ele>1891.4000244141</ele>
        <time>2021-03-21T09:11:18.000Z</time>
      </trkpt>
      <trkpt lat="44.99974" lon="6.034">
        <ele>1891.8000488281</ele>
        <time>2021-03-21T09:11:19.000Z</time>
      </trkpt>
      <trkpt lat="44.99974" lon="6.03399">
        <ele>1892.1999511719</ele>
        <time>2021-03-21T09:11:20.000Z</time>
      </trkpt>
      <trkpt lat="44.99975" lon="6.03398">
        <ele>1892.8000488281</ele>
        <time>2021-03-21T09:11:21.000Z</time>
      </trkpt>
      <trkpt lat="44.99975" lon="6.03397">
        <ele>1893</ele>
        <time>2021-03-21T09:11:22.000Z</time>
      </trkpt>
      <trkpt lat="44.99975" lon="6.03396">
        <ele>1893.4000244141</ele>
        <time>2021-03-21T09:11:23.000Z</time>
      </trkpt>
      <trkpt lat="44.99976" lon="6.03396">
        <ele>1893.8000488281</ele>
        <time>2021-03-21T09:11:24.000Z</time>
      </trkpt>
      <trkpt lat="44.99976" lon="6.03394">
        <ele>1894.4000244141</ele>
        <time>2021-03-21T09:11:25.000Z</time>
      </trkpt>
      <trkpt lat="44.99976" lon="6.03394">
        <ele>1894.5999755859</ele>
        <time>2021-03-21T09:11:26.000Z</time>
      </trkpt>
      <trkpt lat="44.99976" lon="6.03392">
        <ele>1895</ele>
        <time>2021-03-21T09:11:27.000Z</time>
      </trkpt>
      <trkpt lat="44.99976" lon="6.03391">
        <ele>1895.4000244141</ele>
        <time>2021-03-21T09:11:28.000Z</time>
      </trkpt>
      <trkpt lat="44.99977" lon="6.03391">
        <ele>1895.4000244141</ele>
        <time>2021-03-21T09:11:29.000Z</time>
      </trkpt>
      <trkpt lat="44.99977" lon="6.0339">
        <ele>1895.5999755859</ele>
        <time>2021-03-21T09:11:30.000Z</time>
      </trkpt>
      <trkpt lat="44.99977" lon="6.0339">
        <ele>1895.8000488281</ele>
        <time>2021-03-21T09:11:31.000Z</time>
      </trkpt>
      <trkpt lat="44.99977" lon="6.03389">
        <ele>1896.1999511719</ele>
        <time>2021-03-21T09:11:32.000Z</time>
      </trkpt>
      <trkpt lat="44.99977" lon="6.03388">
        <ele>1896.4000244141</ele>
        <time>2021-03-21T09:11:33.000Z</time>
      </trkpt>
      <trkpt lat="44.99977" lon="6.03387">
        <ele>1896.5999755859</ele>
        <time>2021-03-21T09:11:34.000Z</time>
      </trkpt>
      <trkpt lat="44.99977" lon="6.03387">
        <ele>1897</ele>
        <time>2021-03-21T09:11:35.000Z</time>
      </trkpt>
      <trkpt lat="44.99978" lon="6.03385">
        <ele>1897.4000244141</ele>
        <time>2021-03-21T09:11:36.000Z</time>
      </trkpt>
      <trkpt lat="44.99978" lon="6.03384">
        <ele>1897.5999755859</ele>
        <time>2021-03-21T09:11:37.000Z</time>
      </trkpt>
      <trkpt lat="44.99978" lon="6.03383">
        <ele>1897.8000488281</ele>
        <time>2021-03-21T09:11:38.000Z</time>
      </trkpt>
      <trkpt lat="44.99979" lon="6.03382">
        <ele>1898.4000244141</ele>
        <time>2021-03-21T09:11:39.000Z</time>
      </trkpt>
      <trkpt lat="44.99979" lon="6.03381">
        <ele>1898.5999755859</ele>
        <time>2021-03-21T09:11:40.000Z</time>
      </trkpt>
      <trkpt lat="44.9998" lon="6.0338">
        <ele>1898.8000488281</ele>
        <time>2021-03-21T09:11:41.000Z</time>
      </trkpt>
      <trkpt lat="44.9998" lon="6.03379">
        <ele>1899.1999511719</ele>
        <time>2021-03-21T09:11:42.000Z</time>
      </trkpt>
      <trkpt lat="44.99981" lon="6.03378">
        <ele>1899.4000244141</ele>
        <time>2021-03-21T09:11:43.000Z</time>
      </trkpt>
      <trkpt lat="44.99981" lon="6.03377">
        <ele>1899.8000488281</ele>
        <time>2021-03-21T09:11:44.000Z</time>
      </trkpt>
      <trkpt lat="44.99982" lon="6.03376">
        <ele>1900</ele>
        <time>2021-03-21T09:11:45.000Z</time>
      </trkpt>
      <trkpt lat="44.99982" lon="6.03375">
        <ele>1900.5999755859</ele>
        <time>2021-03-21T09:11:46.000Z</time>
      </trkpt>
      <trkpt lat="44.99982" lon="6.03375">
        <ele>1900.5999755859</ele>
        <time>2021-03-21T09:11:47.000Z</time>
      </trkpt>
      <trkpt lat="44.99983" lon="6.03374">
        <ele>1901</ele>
        <time>2021-03-21T09:11:48.000Z</time>
      </trkpt>
      <trkpt lat="44.99982" lon="6.03375">
        <ele>1900.8000488281</ele>
        <time>2021-03-21T09:11:49.000Z</time>
      </trkpt>
      <trkpt lat="44.99982" lon="6.03375">
        <ele>1900.8000488281</ele>
        <time>2021-03-21T09:11:50.000Z</time>
      </trkpt>
      <trkpt lat="44.99982" lon="6.03375">
        <ele>1900.8000488281</ele>
        <time>2021-03-21T09:11:51.000Z</time>
      </trkpt>
      <trkpt lat="44.99982" lon="6.03375">
        <ele>1900.5999755859</ele>
        <time>2021-03-21T09:11:52.000Z</time>
      </trkpt>
      <trkpt lat="44.99981" lon="6.03375">
        <ele>1900.5999755859</ele>
        <time>2021-03-21T09:11:53.000Z</time>
      </trkpt>
      <trkpt lat="44.99981" lon="6.03376">
        <ele>1900.4000244141</ele>
        <time>2021-03-21T09:11:54.000Z</time>
      </trkpt>
      <trkpt lat="44.99981" lon="6.03376">
        <ele>1900.4000244141</ele>
        <time>2021-03-21T09:11:55.000Z</time>
      </trkpt>
      <trkpt lat="44.99982" lon="6.03376">
        <ele>1900.1999511719</ele>
        <time>2021-03-21T09:11:56.000Z</time>
      </trkpt>
      <trkpt lat="44.99982" lon="6.03376">
        <ele>1900.1999511719</ele>
        <time>2021-03-21T09:11:57.000Z</time>
      </trkpt>
      <trkpt lat="44.99982" lon="6.03376">
        <ele>1900.1999511719</ele>
        <time>2021-03-21T09:11:58.000Z</time>
      </trkpt>
      <trkpt lat="44.99983" lon="6.03375">
        <ele>1900.4000244141</ele>
        <time>2021-03-21T09:11:59.000Z</time>
      </trkpt>
      <trkpt lat="44.99983" lon="6.03375">
        <ele>1900.4000244141</ele>
        <time>2021-03-21T09:12:00.000Z</time>
      </trkpt>
      <trkpt lat="44.99983" lon="6.03375">
        <ele>1900.5999755859</ele>
        <time>2021-03-21T09:12:01.000Z</time>
      </trkpt>
      <trkpt lat="44.99983" lon="6.03375">
        <ele>1900.5999755859</ele>
        <time>2021-03-21T09:12:02.000Z</time>
      </trkpt>
      <trkpt lat="44.99983" lon="6.03375">
        <ele>1900.5999755859</ele>
        <time>2021-03-21T09:12:03.000Z</time>
      </trkpt>
      <trkpt lat="44.99983" lon="6.03375">
        <ele>1900.5999755859</ele>
        <time>2021-03-21T09:12:04.000Z</time>
      </trkpt>
      <trkpt lat="44.99983" lon="6.03375">
        <ele>1900.4000244141</ele>
        <time>2021-03-21T09:12:05.000Z</time>
      </trkpt>
      <trkpt lat="44.99983" lon="6.03375">
        <ele>1900.5999755859</ele>
        <time>2021-03-21T09:12:06.000Z</time>
      </trkpt>
      <trkpt lat="44.99983" lon="6.03375">
        <ele>1900.4000244141</ele>
        <time>2021-03-21T09:12:07.000Z</time>
      </trkpt>
      <trkpt lat="44.99982" lon="6.03376">
        <ele>1900.4000244141</ele>
        <time>2021-03-21T09:12:08.000Z</time>
      </trkpt>
      <trkpt lat="44.99982" lon="6.03376">
        <ele>1900.4000244141</ele>
        <time>2021-03-21T09:12:09.000Z</time>
      </trkpt>
      <trkpt lat="44.99982" lon="6.03376">
        <ele>1900.4000244141</ele>
        <time>2021-03-21T09:12:10.000Z</time>
      </trkpt>
      <trkpt lat="44.99982" lon="6.03376">
        <ele>1900.1999511719</ele>
        <time>2021-03-21T09:12:11.000Z</time>
      </trkpt>
      <trkpt lat="44.99982" lon="6.03376">
        <ele>1900.1999511719</ele>
        <time>2021-03-21T09:12:12.000Z</time>
      </trkpt>
      <trkpt lat="44.99982" lon="6.03376">
        <ele>1900.1999511719</ele>
        <time>2021-03-21T09:12:13.000Z</time>
      </trkpt>
      <trkpt lat="44.99982" lon="6.03376">
        <ele>1900.4000244141</ele>
        <time>2021-03-21T09:12:14.000Z</time>
      </trkpt>
      <trkpt lat="44.99982" lon="6.03376">
        <ele>1900.4000244141</ele>
        <time>2021-03-21T09:12:15.000Z</time>
      </trkpt>
      <trkpt lat="44.99982" lon="6.03376">
        <ele>1900.4000244141</ele>
        <time>2021-03-21T09:12:16.000Z</time>
      </trkpt>
      <trkpt lat="44.99982" lon="6.03376">
        <ele>1900.1999511719</ele>
        <time>2021-03-21T09:12:17.000Z</time>
      </trkpt>
      <trkpt lat="44.99982" lon="6.03376">
        <ele>1900.4000244141</ele>
        <time>2021-03-21T09:12:18.000Z</time>
      </trkpt>
      <trkpt lat="44.99982" lon="6.03375">
        <ele>1900.5999755859</ele>
        <time>2021-03-21T09:12:19.000Z</time>
      </trkpt>
      <trkpt lat="44.99982" lon="6.03375">
        <ele>1900.5999755859</ele>
        <time>2021-03-21T09:12:20.000Z</time>
      </trkpt>
      <trkpt lat="44.99982" lon="6.03375">
        <ele>1900.4000244141</ele>
        <time>2021-03-21T09:12:21.000Z</time>
      </trkpt>
      <trkpt lat="44.99982" lon="6.03376">
        <ele>1900.4000244141</ele>
        <time>2021-03-21T09:12:22.000Z</time>
      </trkpt>
      <trkpt lat="44.99982" lon="6.03376">
        <ele>1900.1999511719</ele>
        <time>2021-03-21T09:12:23.000Z</time>
      </trkpt>
      <trkpt lat="44.99981" lon="6.03376">
        <ele>1900.1999511719</ele>
        <time>2021-03-21T09:12:24.000Z</time>
      </trkpt>
      <trkpt lat="44.99981" lon="6.03376">
        <ele>1900.1999511719</ele>
        <time>2021-03-21T09:12:25.000Z</time>
      </trkpt>
      <trkpt lat="44.99981" lon="6.03376">
        <ele>1900.1999511719</ele>
        <time>2021-03-21T09:12:26.000Z</time>
      </trkpt>
      <trkpt lat="44.99981" lon="6.03376">
        <ele>1900.1999511719</ele>
        <time>2021-03-21T09:12:27.000Z</time>
      </trkpt>
      <trkpt lat="44.99982" lon="6.03376">
        <ele>1900.4000244141</ele>
        <time>2021-03-21T09:12:28.000Z</time>
      </trkpt>
      <trkpt lat="44.99982" lon="6.03375">
        <ele>1900.5999755859</ele>
        <time>2021-03-21T09:12:29.000Z</time>
      </trkpt>
      <trkpt lat="44.99983" lon="6.03375">
        <ele>1900.8000488281</ele>
        <time>2021-03-21T09:12:30.000Z</time>
      </trkpt>
      <trkpt lat="44.99983" lon="6.03374">
        <ele>1901</ele>
        <time>2021-03-21T09:12:31.000Z</time>
      </trkpt>
      <trkpt lat="44.99984" lon="6.03374">
        <ele>1901.4000244141</ele>
        <time>2021-03-21T09:12:32.000Z</time>
      </trkpt>
      <trkpt lat="44.99984" lon="6.03373">
        <ele>1901.8000488281</ele>
        <time>2021-03-21T09:12:33.000Z</time>
      </trkpt>
      <trkpt lat="44.99985" lon="6.03372">
        <ele>1902.1999511719</ele>
        <time>2021-03-21T09:12:34.000Z</time>
      </trkpt>
      <trkpt lat="44.99985" lon="6.03372">
        <ele>1902.1999511719</ele>
        <time>2021-03-21T09:12:35.000Z</time>
      </trkpt>
      <trkpt lat="44.99985" lon="6.03372">
        <ele>1902.1999511719</ele>
        <time>2021-03-21T09:12:36.000Z</time>
      </trkpt>
      <trkpt lat="44.99985" lon="6.03372">
        <ele>1902</ele>
        <time>2021-03-21T09:12:37.000Z</time>
      </trkpt>
      <trkpt lat="44.99984" lon="6.03372">
        <ele>1902</ele>
        <time>2021-03-21T09:12:38.000Z</time>
      </trkpt>
      <trkpt lat="44.99984" lon="6.03372">
        <ele>1902</ele>
        <time>2021-03-21T09:12:39.000Z</time>
      </trkpt>
      <trkpt lat="44.99984" lon="6.03373">
        <ele>1901.8000488281</ele>
        <time>2021-03-21T09:12:40.000Z</time>
      </trkpt>
      <trkpt lat="44.99984" lon="6.03372">
        <ele>1902</ele>
        <time>2021-03-21T09:12:41.000Z</time>
      </trkpt>
      <trkpt lat="44.99984" lon="6.03372">
        <ele>1902</ele>
        <time>2021-03-21T09:12:42.000Z</time>
      </trkpt>
      <trkpt lat="44.99984" lon="6.03372">
        <ele>1902</ele>
        <time>2021-03-21T09:12:43.000Z</time>
      </trkpt>
      <trkpt lat="44.99984" lon="6.03372">
        <ele>1902</ele>
        <time>2021-03-21T09:12:44.000Z</time>
      </trkpt>
      <trkpt lat="44.99983" lon="6.03373">
        <ele>1901.8000488281</ele>
        <time>2021-03-21T09:12:45.000Z</time>
      </trkpt>
      <trkpt lat="44.99983" lon="6.03373">
        <ele>1901.5999755859</ele>
        <time>2021-03-21T09:12:46.000Z</time>
      </trkpt>
      <trkpt lat="44.99983" lon="6.03373">
        <ele>1901.5999755859</ele>
        <time>2021-03-21T09:12:47.000Z</time>
      </trkpt>
      <trkpt lat="44.99983" lon="6.03373">
        <ele>1901.5999755859</ele>
        <time>2021-03-21T09:12:48.000Z</time>
      </trkpt>
      <trkpt lat="44.99983" lon="6.03373">
        <ele>1901.5999755859</ele>
        <time>2021-03-21T09:12:49.000Z</time>
      </trkpt>
      <trkpt lat="44.99983" lon="6.03373">
        <ele>1901.5999755859</ele>
        <time>2021-03-21T09:12:50.000Z</time>
      </trkpt>
      <trkpt lat="44.99983" lon="6.03373">
        <ele>1901.5999755859</ele>
        <time>2021-03-21T09:12:51.000Z</time>
      </trkpt>
      <trkpt lat="44.99983" lon="6.03373">
        <ele>1901.5999755859</ele>
        <time>2021-03-21T09:12:52.000Z</time>
      </trkpt>
      <trkpt lat="44.99982" lon="6.03373">
        <ele>1901.5999755859</ele>
        <time>2021-03-21T09:12:53.000Z</time>
      </trkpt>
      <trkpt lat="44.99982" lon="6.03373">
        <ele>1901.5999755859</ele>
        <time>2021-03-21T09:12:54.000Z</time>
      </trkpt>
      <trkpt lat="44.99982" lon="6.03373">
        <ele>1901.5999755859</ele>
        <time>2021-03-21T09:12:55.000Z</time>
      </trkpt>
      <trkpt lat="44.99982" lon="6.03373">
        <ele>1901.8000488281</ele>
        <time>2021-03-21T09:12:56.000Z</time>
      </trkpt>
      <trkpt lat="44.99982" lon="6.03373">
        <ele>1901.5999755859</ele>
        <time>2021-03-21T09:12:57.000Z</time>
      </trkpt>
      <trkpt lat="44.99982" lon="6.03373">
        <ele>1901.8000488281</ele>
        <time>2021-03-21T09:12:58.000Z</time>
      </trkpt>
      <trkpt lat="44.99982" lon="6.03373">
        <ele>1901.5999755859</ele>
        <time>2021-03-21T09:12:59.000Z</time>
      </trkpt>
      <trkpt lat="44.99981" lon="6.03374">
        <ele>1901.4000244141</ele>
        <time>2021-03-21T09:13:00.000Z</time>
      </trkpt>
      <trkpt lat="44.99981" lon="6.03374">
        <ele>1901.4000244141</ele>
        <time>2021-03-21T09:13:01.000Z</time>
      </trkpt>
      <trkpt lat="44.99982" lon="6.03374">
        <ele>1901.4000244141</ele>
        <time>2021-03-21T09:13:02.000Z</time>
      </trkpt>
      <trkpt lat="44.99982" lon="6.03374">
        <ele>1901.4000244141</ele>
        <time>2021-03-21T09:13:03.000Z</time>
      </trkpt>
      <trkpt lat="44.99982" lon="6.03374">
        <ele>1901.4000244141</ele>
        <time>2021-03-21T09:13:04.000Z</time>
      </trkpt>
      <trkpt lat="44.99982" lon="6.03374">
        <ele>1901.4000244141</ele>
        <time>2021-03-21T09:13:05.000Z</time>
      </trkpt>
      <trkpt lat="44.99982" lon="6.03373">
        <ele>1901.5999755859</ele>
        <time>2021-03-21T09:13:06.000Z</time>
      </trkpt>
      <trkpt lat="44.99982" lon="6.03373">
        <ele>1901.5999755859</ele>
        <time>2021-03-21T09:13:07.000Z</time>
      </trkpt>
      <trkpt lat="44.99982" lon="6.03373">
        <ele>1901.5999755859</ele>
        <time>2021-03-21T09:13:08.000Z</time>
      </trkpt>
      <trkpt lat="44.99982" lon="6.03373">
        <ele>1901.5999755859</ele>
        <time>2021-03-21T09:13:09.000Z</time>
      </trkpt>
      <trkpt lat="44.99981" lon="6.03374">
        <ele>1901.4000244141</ele>
        <time>2021-03-21T09:13:10.000Z</time>
      </trkpt>
      <trkpt lat="44.99981" lon="6.03374">
        <ele>1901.4000244141</ele>
        <time>2021-03-21T09:13:11.000Z</time>
      </trkpt>
      <trkpt lat="44.99981" lon="6.03374">
        <ele>1901.4000244141</ele>
        <time>2021-03-21T09:13:12.000Z</time>
      </trkpt>
      <trkpt lat="44.99981" lon="6.03374">
        <ele>1901.1999511719</ele>
        <time>2021-03-21T09:13:13.000Z</time>
      </trkpt>
      <trkpt lat="44.99981" lon="6.03374">
        <ele>1901.1999511719</ele>
        <time>2021-03-21T09:13:14.000Z</time>
      </trkpt>
      <trkpt lat="44.99981" lon="6.03374">
        <ele>1901.1999511719</ele>
        <time>2021-03-21T09:13:15.000Z</time>
      </trkpt>
      <trkpt lat="44.99981" lon="6.03374">
        <ele>1901.1999511719</ele>
        <time>2021-03-21T09:13:16.000Z</time>
      </trkpt>
      <trkpt lat="44.99981" lon="6.03374">
        <ele>1901.1999511719</ele>
        <time>2021-03-21T09:13:17.000Z</time>
      </trkpt>
      <trkpt lat="44.99981" lon="6.03374">
        <ele>1901.1999511719</ele>
        <time>2021-03-21T09:13:18.000Z</time>
      </trkpt>
      <trkpt lat="44.99981" lon="6.03374">
        <ele>1901.1999511719</ele>
        <time>2021-03-21T09:13:19.000Z</time>
      </trkpt>
      <trkpt lat="44.99981" lon="6.03374">
        <ele>1901.1999511719</ele>
        <time>2021-03-21T09:13:20.000Z</time>
      </trkpt>
      <trkpt lat="44.99981" lon="6.03374">
        <ele>1901.1999511719</ele>
        <time>2021-03-21T09:13:21.000Z</time>
      </trkpt>
      <trkpt lat="44.99981" lon="6.03374">
        <ele>1901.1999511719</ele>
        <time>2021-03-21T09:13:22.000Z</time>
      </trkpt>
      <trkpt lat="44.99981" lon="6.03374">
        <ele>1901.1999511719</ele>
        <time>2021-03-21T09:13:23.000Z</time>
      </trkpt>
      <trkpt lat="44.99982" lon="6.03374">
        <ele>1901.1999511719</ele>
        <time>2021-03-21T09:13:24.000Z</time>
      </trkpt>
      <trkpt lat="44.99982" lon="6.03374">
        <ele>1901.1999511719</ele>
        <time>2021-03-21T09:13:25.000Z</time>
      </trkpt>
      <trkpt lat="44.99982" lon="6.03374">
        <ele>1901.1999511719</ele>
        <time>2021-03-21T09:13:26.000Z</time>
      </trkpt>
      <trkpt lat="44.99982" lon="6.03374">
        <ele>1901.1999511719</ele>
        <time>2021-03-21T09:13:27.000Z</time>
      </trkpt>
      <trkpt lat="44.99982" lon="6.03374">
        <ele>1901</ele>
        <time>2021-03-21T09:13:28.000Z</time>
      </trkpt>
      <trkpt lat="44.99982" lon="6.03374">
        <ele>1901</ele>
        <time>2021-03-21T09:13:29.000Z</time>
      </trkpt>
      <trkpt lat="44.99982" lon="6.03374">
        <ele>1901</ele>
        <time>2021-03-21T09:13:30.000Z</time>
      </trkpt>
      <trkpt lat="44.99982" lon="6.03374">
        <ele>1901</ele>
        <time>2021-03-21T09:13:31.000Z</time>
      </trkpt>
      <trkpt lat="44.99982" lon="6.03374">
        <ele>1901</ele>
        <time>2021-03-21T09:13:32.000Z</time>
      </trkpt>
      <trkpt lat="44.99982" lon="6.03374">
        <ele>1901</ele>
        <time>2021-03-21T09:13:33.000Z</time>
      </trkpt>
      <trkpt lat="44.99982" lon="6.03374">
        <ele>1901</ele>
        <time>2021-03-21T09:13:34.000Z</time>
      </trkpt>
      <trkpt lat="44.99982" lon="6.03374">
        <ele>1901</ele>
        <time>2021-03-21T09:13:35.000Z</time>
      </trkpt>
      <trkpt lat="44.99982" lon="6.03374">
        <ele>1901</ele>
        <time>2021-03-21T09:13:36.000Z</time>
      </trkpt>
      <trkpt lat="44.99982" lon="6.03374">
        <ele>1901</ele>
        <time>2021-03-21T09:13:37.000Z</time>
      </trkpt>
      <trkpt lat="44.99982" lon="6.03374">
        <ele>1901</ele>
        <time>2021-03-21T09:13:38.000Z</time>
      </trkpt>
      <trkpt lat="44.99982" lon="6.03374">
        <ele>1901.1999511719</ele>
        <time>2021-03-21T09:13:39.000Z</time>
      </trkpt>
      <trkpt lat="44.99982" lon="6.03374">
        <ele>1901.1999511719</ele>
        <time>2021-03-21T09:13:40.000Z</time>
      </trkpt>
      <trkpt lat="44.99982" lon="6.03374">
        <ele>1901.1999511719</ele>
        <time>2021-03-21T09:13:41.000Z</time>
      </trkpt>
      <trkpt lat="44.99982" lon="6.03374">
        <ele>1901.1999511719</ele>
        <time>2021-03-21T09:13:42.000Z</time>
      </trkpt>
      <trkpt lat="44.99982" lon="6.03374">
        <ele>1901.1999511719</ele>
        <time>2021-03-21T09:13:43.000Z</time>
      </trkpt>
      <trkpt lat="44.99982" lon="6.03374">
        <ele>1901.1999511719</ele>
        <time>2021-03-21T09:13:44.000Z</time>
      </trkpt>
      <trkpt lat="44.99982" lon="6.03374">
        <ele>1901.1999511719</ele>
        <time>2021-03-21T09:13:45.000Z</time>
      </trkpt>
      <trkpt lat="44.99982" lon="6.03374">
        <ele>1901.1999511719</ele>
        <time>2021-03-21T09:13:46.000Z</time>
      </trkpt>
      <trkpt lat="44.99982" lon="6.03374">
        <ele>1901.1999511719</ele>
        <time>2021-03-21T09:13:47.000Z</time>
      </trkpt>
      <trkpt lat="44.99983" lon="6.03374">
        <ele>1901.1999511719</ele>
        <time>2021-03-21T09:13:48.000Z</time>
      </trkpt>
      <trkpt lat="44.99983" lon="6.03374">
        <ele>1901.1999511719</ele>
        <time>2021-03-21T09:13:49.000Z</time>
      </trkpt>
      <trkpt lat="44.99983" lon="6.03374">
        <ele>1901.4000244141</ele>
        <time>2021-03-21T09:13:50.000Z</time>
      </trkpt>
      <trkpt lat="44.99983" lon="6.03374">
        <ele>1901.4000244141</ele>
        <time>2021-03-21T09:13:51.000Z</time>
      </trkpt>
      <trkpt lat="44.99983" lon="6.03374">
        <ele>1901.4000244141</ele>
        <time>2021-03-21T09:13:52.000Z</time>
      </trkpt>
      <trkpt lat="44.99983" lon="6.03374">
        <ele>1901.4000244141</ele>
        <time>2021-03-21T09:13:53.000Z</time>
      </trkpt>
      <trkpt lat="44.99983" lon="6.03374">
        <ele>1901.1999511719</ele>
        <time>2021-03-21T09:13:54.000Z</time>
      </trkpt>
      <trkpt lat="44.99983" lon="6.03374">
        <ele>1901.1999511719</ele>
        <time>2021-03-21T09:13:55.000Z</time>
      </trkpt>
      <trkpt lat="44.99983" lon="6.03374">
        <ele>1901.1999511719</ele>
        <time>2021-03-21T09:13:56.000Z</time>
      </trkpt>
      <trkpt lat="44.99983" lon="6.03374">
        <ele>1901.1999511719</ele>
        <time>2021-03-21T09:13:57.000Z</time>
      </trkpt>
      <trkpt lat="44.99983" lon="6.03374">
        <ele>1901.1999511719</ele>
        <time>2021-03-21T09:13:58.000Z</time>
      </trkpt>
      <trkpt lat="44.99983" lon="6.03374">
        <ele>1901.1999511719</ele>
        <time>2021-03-21T09:13:59.000Z</time>
      </trkpt>
      <trkpt lat="44.99983" lon="6.03374">
        <ele>1901.1999511719</ele>
        <time>2021-03-21T09:14:00.000Z</time>
      </trkpt>
      <trkpt lat="44.99983" lon="6.03374">
        <ele>1901.4000244141</ele>
        <time>2021-03-21T09:14:01.000Z</time>
      </trkpt>
      <trkpt lat="44.99983" lon="6.03374">
        <ele>1901.1999511719</ele>
        <time>2021-03-21T09:14:02.000Z</time>
      </trkpt>
      <trkpt lat="44.99983" lon="6.03374">
        <ele>1901.4000244141</ele>
        <time>2021-03-21T09:14:03.000Z</time>
      </trkpt>
      <trkpt lat="44.99983" lon="6.03374">
        <ele>1901.1999511719</ele>
        <time>2021-03-21T09:14:04.000Z</time>
      </trkpt>
      <trkpt lat="44.99983" lon="6.03374">
        <ele>1901.1999511719</ele>
        <time>2021-03-21T09:14:05.000Z</time>
      </trkpt>
      <trkpt lat="44.99983" lon="6.03374">
        <ele>1901.1999511719</ele>
        <time>2021-03-21T09:14:06.000Z</time>
      </trkpt>
      <trkpt lat="44.99983" lon="6.03374">
        <ele>1901.1999511719</ele>
        <time>2021-03-21T09:14:07.000Z</time>
      </trkpt>
      <trkpt lat="44.99983" lon="6.03374">
        <ele>1901.1999511719</ele>
        <time>2021-03-21T09:14:08.000Z</time>
      </trkpt>
      <trkpt lat="44.99983" lon="6.03374">
        <ele>1901.1999511719</ele>
        <time>2021-03-21T09:14:09.000Z</time>
      </trkpt>
      <trkpt lat="44.99983" lon="6.03374">
        <ele>1901.1999511719</ele>
        <time>2021-03-21T09:14:10.000Z</time>
      </trkpt>
      <trkpt lat="44.99983" lon="6.03374">
        <ele>1901.4000244141</ele>
        <time>2021-03-21T09:14:11.000Z</time>
      </trkpt>
      <trkpt lat="44.99983" lon="6.03374">
        <ele>1901.4000244141</ele>
        <time>2021-03-21T09:14:12.000Z</time>
      </trkpt>
      <trkpt lat="44.99983" lon="6.03374">
        <ele>1901.4000244141</ele>
        <time>2021-03-21T09:14:13.000Z</time>
      </trkpt>
      <trkpt lat="44.99983" lon="6.03374">
        <ele>1901.4000244141</ele>
        <time>2021-03-21T09:14:14.000Z</time>
      </trkpt>
      <trkpt lat="44.99983" lon="6.03374">
        <ele>1901.4000244141</ele>
        <time>2021-03-21T09:14:15.000Z</time>
      </trkpt>
      <trkpt lat="44.99983" lon="6.03374">
        <ele>1901.4000244141</ele>
        <time>2021-03-21T09:14:16.000Z</time>
      </trkpt>
      <trkpt lat="44.99983" lon="6.03374">
        <ele>1901.4000244141</ele>
        <time>2021-03-21T09:14:17.000Z</time>
      </trkpt>
      <trkpt lat="44.99983" lon="6.03374">
        <ele>1901.4000244141</ele>
        <time>2021-03-21T09:14:18.000Z</time>
      </trkpt>
      <trkpt lat="44.99983" lon="6.03374">
        <ele>1901.4000244141</ele>
        <time>2021-03-21T09:14:19.000Z</time>
      </trkpt>
      <trkpt lat="44.99983" lon="6.03374">
        <ele>1901.4000244141</ele>
        <time>2021-03-21T09:14:20.000Z</time>
      </trkpt>
      <trkpt lat="44.99983" lon="6.03374">
        <ele>1901.4000244141</ele>
        <time>2021-03-21T09:14:21.000Z</time>
      </trkpt>
      <trkpt lat="44.99983" lon="6.03374">
        <ele>1901.4000244141</ele>
        <time>2021-03-21T09:14:22.000Z</time>
      </trkpt>
      <trkpt lat="44.99983" lon="6.03374">
        <ele>1901.4000244141</ele>
        <time>2021-03-21T09:14:23.000Z</time>
      </trkpt>
      <trkpt lat="44.99983" lon="6.03374">
        <ele>1901.4000244141</ele>
        <time>2021-03-21T09:14:24.000Z</time>
      </trkpt>
      <trkpt lat="44.99983" lon="6.03373">
        <ele>1901.4000244141</ele>
        <time>2021-03-21T09:14:25.000Z</time>
      </trkpt>
      <trkpt lat="44.99983" lon="6.03373">
        <ele>1901.5999755859</ele>
        <time>2021-03-21T09:14:26.000Z</time>
      </trkpt>
      <trkpt lat="44.99983" lon="6.03373">
        <ele>1901.5999755859</ele>
        <time>2021-03-21T09:14:27.000Z</time>
      </trkpt>
      <trkpt lat="44.99983" lon="6.03373">
        <ele>1901.5999755859</ele>
        <time>2021-03-21T09:14:28.000Z</time>
      </trkpt>
      <trkpt lat="44.99983" lon="6.03373">
        <ele>1901.8000488281</ele>
        <time>2021-03-21T09:14:29.000Z</time>
      </trkpt>
      <trkpt lat="44.99982" lon="6.03373">
        <ele>1902</ele>
        <time>2021-03-21T09:14:30.000Z</time>
      </trkpt>
      <trkpt lat="44.99982" lon="6.03373">
        <ele>1901.8000488281</ele>
        <time>2021-03-21T09:14:31.000Z</time>
      </trkpt>
      <trkpt lat="44.99982" lon="6.03373">
        <ele>1902</ele>
        <time>2021-03-21T09:14:32.000Z</time>
      </trkpt>
      <trkpt lat="44.99981" lon="6.03372">
        <ele>1902</ele>
        <time>2021-03-21T09:14:33.000Z</time>
      </trkpt>
      <trkpt lat="44.99981" lon="6.03372">
        <ele>1902.1999511719</ele>
        <time>2021-03-21T09:14:34.000Z</time>
      </trkpt>
      <trkpt lat="44.99981" lon="6.03372">
        <ele>1902.4000244141</ele>
        <time>2021-03-21T09:14:35.000Z</time>
      </trkpt>
      <trkpt lat="44.9998" lon="6.03372">
        <ele>1902.4000244141</ele>
        <time>2021-03-21T09:14:36.000Z</time>
      </trkpt>
      <trkpt lat="44.99979" lon="6.03372">
        <ele>1902.4000244141</ele>
        <time>2021-03-21T09:14:37.000Z</time>
      </trkpt>
      <trkpt lat="44.99979" lon="6.03372">
        <ele>1902.5999755859</ele>
        <time>2021-03-21T09:14:38.000Z</time>
      </trkpt>
      <trkpt lat="44.99979" lon="6.03372">
        <ele>1902.5999755859</ele>
        <time>2021-03-21T09:14:39.000Z</time>
      </trkpt>
      <trkpt lat="44.99979" lon="6.03372">
        <ele>1902.5999755859</ele>
        <time>2021-03-21T09:14:40.000Z</time>
      </trkpt>
      <trkpt lat="44.99979" lon="6.03372">
        <ele>1902.5999755859</ele>
        <time>2021-03-21T09:14:41.000Z</time>
      </trkpt>
      <trkpt lat="44.99979" lon="6.03372">
        <ele>1902.5999755859</ele>
        <time>2021-03-21T09:14:42.000Z</time>
      </trkpt>
      <trkpt lat="44.99979" lon="6.03372">
        <ele>1902.4000244141</ele>
        <time>2021-03-21T09:14:43.000Z</time>
      </trkpt>
      <trkpt lat="44.99979" lon="6.03372">
        <ele>1902.4000244141</ele>
        <time>2021-03-21T09:14:44.000Z</time>
      </trkpt>
      <trkpt lat="44.99979" lon="6.03372">
        <ele>1902.4000244141</ele>
        <time>2021-03-21T09:14:45.000Z</time>
      </trkpt>
      <trkpt lat="44.99979" lon="6.03372">
        <ele>1902.4000244141</ele>
        <time>2021-03-21T09:14:46.000Z</time>
      </trkpt>
      <trkpt lat="44.99979" lon="6.03372">
        <ele>1902.4000244141</ele>
        <time>2021-03-21T09:14:47.000Z</time>
      </trkpt>
      <trkpt lat="44.99979" lon="6.03371">
        <ele>1902.8000488281</ele>
        <time>2021-03-21T09:14:48.000Z</time>
      </trkpt>
      <trkpt lat="44.99978" lon="6.03371">
        <ele>1903</ele>
        <time>2021-03-21T09:14:49.000Z</time>
      </trkpt>
      <trkpt lat="44.99978" lon="6.03371">
        <ele>1903</ele>
        <time>2021-03-21T09:14:50.000Z</time>
      </trkpt>
      <trkpt lat="44.99978" lon="6.03371">
        <ele>1903</ele>
        <time>2021-03-21T09:14:51.000Z</time>
      </trkpt>
      <trkpt lat="44.99978" lon="6.03371">
        <ele>1903</ele>
        <time>2021-03-21T09:14:52.000Z</time>
      </trkpt>
      <trkpt lat="44.99978" lon="6.03371">
        <ele>1903</ele>
        <time>2021-03-21T09:14:53.000Z</time>
      </trkpt>
      <trkpt lat="44.99978" lon="6.03371">
        <ele>1903</ele>
        <time>2021-03-21T09:14:54.000Z</time>
      </trkpt>
      <trkpt lat="44.99977" lon="6.03371">
        <ele>1903</ele>
        <time>2021-03-21T09:14:55.000Z</time>
      </trkpt>
      <trkpt lat="44.99977" lon="6.03371">
        <ele>1902.8000488281</ele>
        <time>2021-03-21T09:14:56.000Z</time>
      </trkpt>
      <trkpt lat="44.99977" lon="6.03371">
        <ele>1902.8000488281</ele>
        <time>2021-03-21T09:14:57.000Z</time>
      </trkpt>
      <trkpt lat="44.99977" lon="6.03372">
        <ele>1902.5999755859</ele>
        <time>2021-03-21T09:14:58.000Z</time>
      </trkpt>
      <trkpt lat="44.99977" lon="6.03372">
        <ele>1902.5999755859</ele>
        <time>2021-03-21T09:14:59.000Z</time>
      </trkpt>
      <trkpt lat="44.99977" lon="6.03372">
        <ele>1902.5999755859</ele>
        <time>2021-03-21T09:15:00.000Z</time>
      </trkpt>
      <trkpt lat="44.99977" lon="6.03372">
        <ele>1902.5999755859</ele>
        <time>2021-03-21T09:15:01.000Z</time>
      </trkpt>
      <trkpt lat="44.99977" lon="6.03372">
        <ele>1902.5999755859</ele>
        <time>2021-03-21T09:15:02.000Z</time>
      </trkpt>
      <trkpt lat="44.99977" lon="6.03372">
        <ele>1902.5999755859</ele>
        <time>2021-03-21T09:15:03.000Z</time>
      </trkpt>
      <trkpt lat="44.99977" lon="6.03372">
        <ele>1902.5999755859</ele>
        <time>2021-03-21T09:15:04.000Z</time>
      </trkpt>
      <trkpt lat="44.99977" lon="6.03372">
        <ele>1902.5999755859</ele>
        <time>2021-03-21T09:15:05.000Z</time>
      </trkpt>
      <trkpt lat="44.99977" lon="6.03372">
        <ele>1902.5999755859</ele>
        <time>2021-03-21T09:15:06.000Z</time>
      </trkpt>
      <trkpt lat="44.99977" lon="6.03372">
        <ele>1902.5999755859</ele>
        <time>2021-03-21T09:15:07.000Z</time>
      </trkpt>
      <trkpt lat="44.99977" lon="6.03372">
        <ele>1902.5999755859</ele>
        <time>2021-03-21T09:15:08.000Z</time>
      </trkpt>
      <trkpt lat="44.99977" lon="6.03372">
        <ele>1902.5999755859</ele>
        <time>2021-03-21T09:15:09.000Z</time>
      </trkpt>
      <trkpt lat="44.99977" lon="6.03372">
        <ele>1902.5999755859</ele>
        <time>2021-03-21T09:15:10.000Z</time>
      </trkpt>
      <trkpt lat="44.99977" lon="6.03372">
        <ele>1902.5999755859</ele>
        <time>2021-03-21T09:15:11.000Z</time>
      </trkpt>
      <trkpt lat="44.99977" lon="6.03372">
        <ele>1902.5999755859</ele>
        <time>2021-03-21T09:15:12.000Z</time>
      </trkpt>
      <trkpt lat="44.99977" lon="6.03372">
        <ele>1902.5999755859</ele>
        <time>2021-03-21T09:15:13.000Z</time>
      </trkpt>
      <trkpt lat="44.99977" lon="6.03372">
        <ele>1902.5999755859</ele>
        <time>2021-03-21T09:15:14.000Z</time>
      </trkpt>
      <trkpt lat="44.99977" lon="6.03372">
        <ele>1902.5999755859</ele>
        <time>2021-03-21T09:15:15.000Z</time>
      </trkpt>
      <trkpt lat="44.99977" lon="6.03371">
        <ele>1902.8000488281</ele>
        <time>2021-03-21T09:15:16.000Z</time>
      </trkpt>
      <trkpt lat="44.99977" lon="6.03371">
        <ele>1902.8000488281</ele>
        <time>2021-03-21T09:15:17.000Z</time>
      </trkpt>
      <trkpt lat="44.99977" lon="6.03371">
        <ele>1902.8000488281</ele>
        <time>2021-03-21T09:15:18.000Z</time>
      </trkpt>
      <trkpt lat="44.99977" lon="6.03371">
        <ele>1902.8000488281</ele>
        <time>2021-03-21T09:15:19.000Z</time>
      </trkpt>
      <trkpt lat="44.99977" lon="6.03372">
        <ele>1902.5999755859</ele>
        <time>2021-03-21T09:15:20.000Z</time>
      </trkpt>
      <trkpt lat="44.99977" lon="6.03372">
        <ele>1902.5999755859</ele>
        <time>2021-03-21T09:15:21.000Z</time>
      </trkpt>
      <trkpt lat="44.99977" lon="6.03372">
        <ele>1902.5999755859</ele>
        <time>2021-03-21T09:15:22.000Z</time>
      </trkpt>
      <trkpt lat="44.99977" lon="6.03372">
        <ele>1902.4000244141</ele>
        <time>2021-03-21T09:15:23.000Z</time>
      </trkpt>
      <trkpt lat="44.99977" lon="6.03372">
        <ele>1902.4000244141</ele>
        <time>2021-03-21T09:15:24.000Z</time>
      </trkpt>
      <trkpt lat="44.99976" lon="6.03373">
        <ele>1902.1999511719</ele>
        <time>2021-03-21T09:15:25.000Z</time>
      </trkpt>
      <trkpt lat="44.99976" lon="6.03372">
        <ele>1902.1999511719</ele>
        <time>2021-03-21T09:15:26.000Z</time>
      </trkpt>
      <trkpt lat="44.99976" lon="6.03372">
        <ele>1902.1999511719</ele>
        <time>2021-03-21T09:15:27.000Z</time>
      </trkpt>
      <trkpt lat="44.99976" lon="6.03372">
        <ele>1902.1999511719</ele>
        <time>2021-03-21T09:15:28.000Z</time>
      </trkpt>
      <trkpt lat="44.99976" lon="6.03372">
        <ele>1902.4000244141</ele>
        <time>2021-03-21T09:15:29.000Z</time>
      </trkpt>
      <trkpt lat="44.99976" lon="6.03372">
        <ele>1902.5999755859</ele>
        <time>2021-03-21T09:15:30.000Z</time>
      </trkpt>
      <trkpt lat="44.99976" lon="6.03372">
        <ele>1902.5999755859</ele>
        <time>2021-03-21T09:15:31.000Z</time>
      </trkpt>
      <trkpt lat="44.99976" lon="6.03372">
        <ele>1902.5999755859</ele>
        <time>2021-03-21T09:15:32.000Z</time>
      </trkpt>
      <trkpt lat="44.99976" lon="6.03372">
        <ele>1902.8000488281</ele>
        <time>2021-03-21T09:15:33.000Z</time>
      </trkpt>
      <trkpt lat="44.99976" lon="6.03372">
        <ele>1902.5999755859</ele>
        <time>2021-03-21T09:15:34.000Z</time>
      </trkpt>
      <trkpt lat="44.99976" lon="6.03372">
        <ele>1902.5999755859</ele>
        <time>2021-03-21T09:15:35.000Z</time>
      </trkpt>
      <trkpt lat="44.99976" lon="6.03372">
        <ele>1902.5999755859</ele>
        <time>2021-03-21T09:15:36.000Z</time>
      </trkpt>
      <trkpt lat="44.99976" lon="6.03372">
        <ele>1902.5999755859</ele>
        <time>2021-03-21T09:15:37.000Z</time>
      </trkpt>
      <trkpt lat="44.99976" lon="6.03372">
        <ele>1902.4000244141</ele>
        <time>2021-03-21T09:15:38.000Z</time>
      </trkpt>
      <trkpt lat="44.99976" lon="6.03372">
        <ele>1902.4000244141</ele>
        <time>2021-03-21T09:15:39.000Z</time>
      </trkpt>
      <trkpt lat="44.99976" lon="6.03373">
        <ele>1902.1999511719</ele>
        <time>2021-03-21T09:15:40.000Z</time>
      </trkpt>
      <trkpt lat="44.99976" lon="6.03373">
        <ele>1902</ele>
        <time>2021-03-21T09:15:41.000Z</time>
      </trkpt>
      <trkpt lat="44.99975" lon="6.03373">
        <ele>1902</ele>
        <time>2021-03-21T09:15:42.000Z</time>
      </trkpt>
      <trkpt lat="44.99975" lon="6.03373">
        <ele>1901.8000488281</ele>
        <time>2021-03-21T09:15:43.000Z</time>
      </trkpt>
      <trkpt lat="44.99975" lon="6.03373">
        <ele>1901.8000488281</ele>
        <time>2021-03-21T09:15:44.000Z</time>
      </trkpt>
      <trkpt lat="44.99975" lon="6.03374">
        <ele>1901.8000488281</ele>
        <time>2021-03-21T09:15:45.000Z</time>
      </trkpt>
      <trkpt lat="44.99975" lon="6.03374">
        <ele>1901.5999755859</ele>
        <time>2021-03-21T09:15:46.000Z</time>
      </trkpt>
      <trkpt lat="44.99975" lon="6.03374">
        <ele>1901.4000244141</ele>
        <time>2021-03-21T09:15:47.000Z</time>
      </trkpt>
      <trkpt lat="44.99975" lon="6.03374">
        <ele>1901.4000244141</ele>
        <time>2021-03-21T09:15:48.000Z</time>
      </trkpt>
      <trkpt lat="44.99975" lon="6.03374">
        <ele>1901.1999511719</ele>
        <time>2021-03-21T09:15:49.000Z</time>
      </trkpt>
      <trkpt lat="44.99975" lon="6.03375">
        <ele>1901.1999511719</ele>
        <time>2021-03-21T09:15:50.000Z</time>
      </trkpt>
      <trkpt lat="44.99975" lon="6.03375">
        <ele>1901</ele>
        <time>2021-03-21T09:15:51.000Z</time>
      </trkpt>
      <trkpt lat="44.99975" lon="6.03375">
        <ele>1901.1999511719</ele>
        <time>2021-03-21T09:15:52.000Z</time>
      </trkpt>
      <trkpt lat="44.99975" lon="6.03375">
        <ele>1901.1999511719</ele>
        <time>2021-03-21T09:15:53.000Z</time>
      </trkpt>
      <trkpt lat="44.99975" lon="6.03375">
        <ele>1901.1999511719</ele>
        <time>2021-03-21T09:15:54.000Z</time>
      </trkpt>
      <trkpt lat="44.99975" lon="6.03375">
        <ele>1901.1999511719</ele>
        <time>2021-03-21T09:15:55.000Z</time>
      </trkpt>
      <trkpt lat="44.99975" lon="6.03375">
        <ele>1901.1999511719</ele>
        <time>2021-03-21T09:15:56.000Z</time>
      </trkpt>
      <trkpt lat="44.99975" lon="6.03375">
        <ele>1901.1999511719</ele>
        <time>2021-03-21T09:15:57.000Z</time>
      </trkpt>
      <trkpt lat="44.99975" lon="6.03375">
        <ele>1901.1999511719</ele>
        <time>2021-03-21T09:15:58.000Z</time>
      </trkpt>
      <trkpt lat="44.99975" lon="6.03374">
        <ele>1901.1999511719</ele>
        <time>2021-03-21T09:15:59.000Z</time>
      </trkpt>
      <trkpt lat="44.99976" lon="6.03374">
        <ele>1901.1999511719</ele>
        <time>2021-03-21T09:16:00.000Z</time>
      </trkpt>
      <trkpt lat="44.99976" lon="6.03374">
        <ele>1901.1999511719</ele>
        <time>2021-03-21T09:16:01.000Z</time>
      </trkpt>
      <trkpt lat="44.99976" lon="6.03374">
        <ele>1901.4000244141</ele>
        <time>2021-03-21T09:16:02.000Z</time>
      </trkpt>
      <trkpt lat="44.99976" lon="6.03374">
        <ele>1901.4000244141</ele>
        <time>2021-03-21T09:16:03.000Z</time>
      </trkpt>
      <trkpt lat="44.99976" lon="6.03374">
        <ele>1901.4000244141</ele>
        <time>2021-03-21T09:16:04.000Z</time>
      </trkpt>
      <trkpt lat="44.99976" lon="6.03374">
        <ele>1901.5999755859</ele>
        <time>2021-03-21T09:16:05.000Z</time>
      </trkpt>
      <trkpt lat="44.99976" lon="6.03374">
        <ele>1901.5999755859</ele>
        <time>2021-03-21T09:16:06.000Z</time>
      </trkpt>
      <trkpt lat="44.99976" lon="6.03374">
        <ele>1901.5999755859</ele>
        <time>2021-03-21T09:16:07.000Z</time>
      </trkpt>
      <trkpt lat="44.99975" lon="6.03374">
        <ele>1901.5999755859</ele>
        <time>2021-03-21T09:16:08.000Z</time>
      </trkpt>
      <trkpt lat="44.99975" lon="6.03374">
        <ele>1901.5999755859</ele>
        <time>2021-03-21T09:16:09.000Z</time>
      </trkpt>
      <trkpt lat="44.99975" lon="6.03373">
        <ele>1901.8000488281</ele>
        <time>2021-03-21T09:16:10.000Z</time>
      </trkpt>
      <trkpt lat="44.99975" lon="6.03374">
        <ele>1901.8000488281</ele>
        <time>2021-03-21T09:16:11.000Z</time>
      </trkpt>
      <trkpt lat="44.99975" lon="6.03374">
        <ele>1901.8000488281</ele>
        <time>2021-03-21T09:16:12.000Z</time>
      </trkpt>
      <trkpt lat="44.99975" lon="6.03373">
        <ele>1901.8000488281</ele>
        <time>2021-03-21T09:16:13.000Z</time>
      </trkpt>
      <trkpt lat="44.99975" lon="6.03373">
        <ele>1902</ele>
        <time>2021-03-21T09:16:14.000Z</time>
      </trkpt>
      <trkpt lat="44.99975" lon="6.03373">
        <ele>1901.8000488281</ele>
        <time>2021-03-21T09:16:15.000Z</time>
      </trkpt>
      <trkpt lat="44.99975" lon="6.03373">
        <ele>1901.8000488281</ele>
        <time>2021-03-21T09:16:16.000Z</time>
      </trkpt>
      <trkpt lat="44.99975" lon="6.03373">
        <ele>1901.8000488281</ele>
        <time>2021-03-21T09:16:17.000Z</time>
      </trkpt>
      <trkpt lat="44.99975" lon="6.03374">
        <ele>1901.8000488281</ele>
        <time>2021-03-21T09:16:18.000Z</time>
      </trkpt>
      <trkpt lat="44.99975" lon="6.03374">
        <ele>1901.5999755859</ele>
        <time>2021-03-21T09:16:19.000Z</time>
      </trkpt>
      <trkpt lat="44.99975" lon="6.03374">
        <ele>1901.5999755859</ele>
        <time>2021-03-21T09:16:20.000Z</time>
      </trkpt>
      <trkpt lat="44.99975" lon="6.03374">
        <ele>1901.5999755859</ele>
        <time>2021-03-21T09:16:21.000Z</time>
      </trkpt>
      <trkpt lat="44.99975" lon="6.03374">
        <ele>1901.5999755859</ele>
        <time>2021-03-21T09:16:22.000Z</time>
      </trkpt>
      <trkpt lat="44.99975" lon="6.03374">
        <ele>1901.5999755859</ele>
        <time>2021-03-21T09:16:23.000Z</time>
      </trkpt>
      <trkpt lat="44.99975" lon="6.03374">
        <ele>1901.5999755859</ele>
        <time>2021-03-21T09:16:24.000Z</time>
      </trkpt>
      <trkpt lat="44.99975" lon="6.03374">
        <ele>1901.5999755859</ele>
        <time>2021-03-21T09:16:25.000Z</time>
      </trkpt>
      <trkpt lat="44.99975" lon="6.03374">
        <ele>1901.4000244141</ele>
        <time>2021-03-21T09:16:26.000Z</time>
      </trkpt>
      <trkpt lat="44.99975" lon="6.03374">
        <ele>1901.4000244141</ele>
        <time>2021-03-21T09:16:27.000Z</time>
      </trkpt>
      <trkpt lat="44.99975" lon="6.03374">
        <ele>1901.4000244141</ele>
        <time>2021-03-21T09:16:28.000Z</time>
      </trkpt>
      <trkpt lat="44.99975" lon="6.03374">
        <ele>1901.1999511719</ele>
        <time>2021-03-21T09:16:29.000Z</time>
      </trkpt>
      <trkpt lat="44.99975" lon="6.03374">
        <ele>1901.1999511719</ele>
        <time>2021-03-21T09:16:30.000Z</time>
      </trkpt>
      <trkpt lat="44.99975" lon="6.03374">
        <ele>1901.4000244141</ele>
        <time>2021-03-21T09:16:31.000Z</time>
      </trkpt>
      <trkpt lat="44.99975" lon="6.03374">
        <ele>1901.1999511719</ele>
        <time>2021-03-21T09:16:32.000Z</time>
      </trkpt>
      <trkpt lat="44.99975" lon="6.03374">
        <ele>1901.4000244141</ele>
        <time>2021-03-21T09:16:33.000Z</time>
      </trkpt>
      <trkpt lat="44.99975" lon="6.03374">
        <ele>1901.4000244141</ele>
        <time>2021-03-21T09:16:34.000Z</time>
      </trkpt>
      <trkpt lat="44.99975" lon="6.03374">
        <ele>1901.4000244141</ele>
        <time>2021-03-21T09:16:35.000Z</time>
      </trkpt>
      <trkpt lat="44.99975" lon="6.03374">
        <ele>1901.4000244141</ele>
        <time>2021-03-21T09:16:36.000Z</time>
      </trkpt>
      <trkpt lat="44.99975" lon="6.03374">
        <ele>1901.5999755859</ele>
        <time>2021-03-21T09:16:37.000Z</time>
      </trkpt>
      <trkpt lat="44.99975" lon="6.03374">
        <ele>1901.5999755859</ele>
        <time>2021-03-21T09:16:38.000Z</time>
      </trkpt>
      <trkpt lat="44.99975" lon="6.03374">
        <ele>1901.5999755859</ele>
        <time>2021-03-21T09:16:39.000Z</time>
      </trkpt>
      <trkpt lat="44.99975" lon="6.03374">
        <ele>1901.5999755859</ele>
        <time>2021-03-21T09:16:40.000Z</time>
      </trkpt>
      <trkpt lat="44.99975" lon="6.03374">
        <ele>1901.5999755859</ele>
        <time>2021-03-21T09:16:41.000Z</time>
      </trkpt>
      <trkpt lat="44.99975" lon="6.03374">
        <ele>1901.5999755859</ele>
        <time>2021-03-21T09:16:42.000Z</time>
      </trkpt>
      <trkpt lat="44.99975" lon="6.03374">
        <ele>1901.8000488281</ele>
        <time>2021-03-21T09:16:43.000Z</time>
      </trkpt>
      <trkpt lat="44.99975" lon="6.03373">
        <ele>1901.8000488281</ele>
        <time>2021-03-21T09:16:44.000Z</time>
      </trkpt>
      <trkpt lat="44.99975" lon="6.03373">
        <ele>1901.8000488281</ele>
        <time>2021-03-21T09:16:45.000Z</time>
      </trkpt>
      <trkpt lat="44.99975" lon="6.03374">
        <ele>1901.5999755859</ele>
        <time>2021-03-21T09:16:46.000Z</time>
      </trkpt>
      <trkpt lat="44.99975" lon="6.03374">
        <ele>1901.5999755859</ele>
        <time>2021-03-21T09:16:47.000Z</time>
      </trkpt>
      <trkpt lat="44.99975" lon="6.03374">
        <ele>1901.5999755859</ele>
        <time>2021-03-21T09:16:48.000Z</time>
      </trkpt>
      <trkpt lat="44.99975" lon="6.03374">
        <ele>1901.5999755859</ele>
        <time>2021-03-21T09:16:49.000Z</time>
      </trkpt>
      <trkpt lat="44.99975" lon="6.03374">
        <ele>1901.5999755859</ele>
        <time>2021-03-21T09:16:50.000Z</time>
      </trkpt>
      <trkpt lat="44.99975" lon="6.03374">
        <ele>1901.5999755859</ele>
        <time>2021-03-21T09:16:51.000Z</time>
      </trkpt>
      <trkpt lat="44.99976" lon="6.03374">
        <ele>1901.5999755859</ele>
        <time>2021-03-21T09:16:52.000Z</time>
      </trkpt>
      <trkpt lat="44.99976" lon="6.03374">
        <ele>1901.5999755859</ele>
        <time>2021-03-21T09:16:53.000Z</time>
      </trkpt>
      <trkpt lat="44.99976" lon="6.03374">
        <ele>1901.5999755859</ele>
        <time>2021-03-21T09:16:54.000Z</time>
      </trkpt>
      <trkpt lat="44.99976" lon="6.03374">
        <ele>1901.5999755859</ele>
        <time>2021-03-21T09:16:55.000Z</time>
      </trkpt>
      <trkpt lat="44.99976" lon="6.03374">
        <ele>1901.5999755859</ele>
        <time>2021-03-21T09:16:56.000Z</time>
      </trkpt>
      <trkpt lat="44.99976" lon="6.03374">
        <ele>1901.5999755859</ele>
        <time>2021-03-21T09:16:57.000Z</time>
      </trkpt>
      <trkpt lat="44.99976" lon="6.03374">
        <ele>1901.5999755859</ele>
        <time>2021-03-21T09:16:58.000Z</time>
      </trkpt>
      <trkpt lat="44.99976" lon="6.03374">
        <ele>1901.5999755859</ele>
        <time>2021-03-21T09:16:59.000Z</time>
      </trkpt>
      <trkpt lat="44.99976" lon="6.03374">
        <ele>1901.5999755859</ele>
        <time>2021-03-21T09:17:00.000Z</time>
      </trkpt>
      <trkpt lat="44.99976" lon="6.03374">
        <ele>1901.5999755859</ele>
        <time>2021-03-21T09:17:01.000Z</time>
      </trkpt>
      <trkpt lat="44.99976" lon="6.03374">
        <ele>1901.5999755859</ele>
        <time>2021-03-21T09:17:02.000Z</time>
      </trkpt>
      <trkpt lat="44.99976" lon="6.03374">
        <ele>1901.5999755859</ele>
        <time>2021-03-21T09:17:03.000Z</time>
      </trkpt>
      <trkpt lat="44.99976" lon="6.03374">
        <ele>1901.5999755859</ele>
        <time>2021-03-21T09:17:04.000Z</time>
      </trkpt>
      <trkpt lat="44.99976" lon="6.03374">
        <ele>1901.5999755859</ele>
        <time>2021-03-21T09:17:05.000Z</time>
      </trkpt>
      <trkpt lat="44.99976" lon="6.03374">
        <ele>1901.5999755859</ele>
        <time>2021-03-21T09:17:06.000Z</time>
      </trkpt>
      <trkpt lat="44.99976" lon="6.03374">
        <ele>1901.5999755859</ele>
        <time>2021-03-21T09:17:07.000Z</time>
      </trkpt>
      <trkpt lat="44.99976" lon="6.03374">
        <ele>1901.8000488281</ele>
        <time>2021-03-21T09:17:08.000Z</time>
      </trkpt>
      <trkpt lat="44.99976" lon="6.03374">
        <ele>1901.5999755859</ele>
        <time>2021-03-21T09:17:09.000Z</time>
      </trkpt>
      <trkpt lat="44.99976" lon="6.03374">
        <ele>1901.5999755859</ele>
        <time>2021-03-21T09:17:10.000Z</time>
      </trkpt>
      <trkpt lat="44.99976" lon="6.03374">
        <ele>1901.5999755859</ele>
        <time>2021-03-21T09:17:11.000Z</time>
      </trkpt>
      <trkpt lat="44.99976" lon="6.03374">
        <ele>1901.5999755859</ele>
        <time>2021-03-21T09:17:12.000Z</time>
      </trkpt>
      <trkpt lat="44.99976" lon="6.03374">
        <ele>1901.5999755859</ele>
        <time>2021-03-21T09:17:13.000Z</time>
      </trkpt>
      <trkpt lat="44.99976" lon="6.03374">
        <ele>1901.5999755859</ele>
        <time>2021-03-21T09:17:14.000Z</time>
      </trkpt>
      <trkpt lat="44.99976" lon="6.03374">
        <ele>1901.5999755859</ele>
        <time>2021-03-21T09:17:15.000Z</time>
      </trkpt>
      <trkpt lat="44.99976" lon="6.03374">
        <ele>1901.5999755859</ele>
        <time>2021-03-21T09:17:16.000Z</time>
      </trkpt>
      <trkpt lat="44.99976" lon="6.03374">
        <ele>1901.5999755859</ele>
        <time>2021-03-21T09:17:17.000Z</time>
      </trkpt>
      <trkpt lat="44.99976" lon="6.03373">
        <ele>1901.8000488281</ele>
        <time>2021-03-21T09:17:18.000Z</time>
      </trkpt>
      <trkpt lat="44.99976" lon="6.03373">
        <ele>1901.8000488281</ele>
        <time>2021-03-21T09:17:19.000Z</time>
      </trkpt>
      <trkpt lat="44.99976" lon="6.03373">
        <ele>1901.8000488281</ele>
        <time>2021-03-21T09:17:20.000Z</time>
      </trkpt>
      <trkpt lat="44.99976" lon="6.03373">
        <ele>1902</ele>
        <time>2021-03-21T09:17:21.000Z</time>
      </trkpt>
      <trkpt lat="44.99976" lon="6.03373">
        <ele>1902</ele>
        <time>2021-03-21T09:17:22.000Z</time>
      </trkpt>
      <trkpt lat="44.99976" lon="6.03373">
        <ele>1902</ele>
        <time>2021-03-21T09:17:23.000Z</time>
      </trkpt>
      <trkpt lat="44.99976" lon="6.03373">
        <ele>1902</ele>
        <time>2021-03-21T09:17:24.000Z</time>
      </trkpt>
      <trkpt lat="44.99976" lon="6.03373">
        <ele>1902</ele>
        <time>2021-03-21T09:17:25.000Z</time>
      </trkpt>
      <trkpt lat="44.99976" lon="6.03373">
        <ele>1902</ele>
        <time>2021-03-21T09:17:26.000Z</time>
      </trkpt>
      <trkpt lat="44.99976" lon="6.03373">
        <ele>1902</ele>
        <time>2021-03-21T09:17:27.000Z</time>
      </trkpt>
      <trkpt lat="44.99976" lon="6.03373">
        <ele>1902</ele>
        <time>2021-03-21T09:17:28.000Z</time>
      </trkpt>
      <trkpt lat="44.99976" lon="6.03373">
        <ele>1902.1999511719</ele>
        <time>2021-03-21T09:17:29.000Z</time>
      </trkpt>
      <trkpt lat="44.99975" lon="6.03373">
        <ele>1902.1999511719</ele>
        <time>2021-03-21T09:17:30.000Z</time>
      </trkpt>
      <trkpt lat="44.99975" lon="6.03373">
        <ele>1902.1999511719</ele>
        <time>2021-03-21T09:17:31.000Z</time>
      </trkpt>
      <trkpt lat="44.99975" lon="6.03372">
        <ele>1902.4000244141</ele>
        <time>2021-03-21T09:17:32.000Z</time>
      </trkpt>
      <trkpt lat="44.99974" lon="6.03372">
        <ele>1902.8000488281</ele>
        <time>2021-03-21T09:17:33.000Z</time>
      </trkpt>
      <trkpt lat="44.99973" lon="6.03371">
        <ele>1903</ele>
        <time>2021-03-21T09:17:34.000Z</time>
      </trkpt>
      <trkpt lat="44.99973" lon="6.03371">
        <ele>1903.1999511719</ele>
        <time>2021-03-21T09:17:35.000Z</time>
      </trkpt>
      <trkpt lat="44.99972" lon="6.03371">
        <ele>1903.4000244141</ele>
        <time>2021-03-21T09:17:36.000Z</time>
      </trkpt>
      <trkpt lat="44.99971" lon="6.0337">
        <ele>1903.5999755859</ele>
        <time>2021-03-21T09:17:37.000Z</time>
      </trkpt>
      <trkpt lat="44.99971" lon="6.0337">
        <ele>1903.8000488281</ele>
        <time>2021-03-21T09:17:38.000Z</time>
      </trkpt>
      <trkpt lat="44.9997" lon="6.0337">
        <ele>1903.8000488281</ele>
        <time>2021-03-21T09:17:39.000Z</time>
      </trkpt>
      <trkpt lat="44.99969" lon="6.0337">
        <ele>1903.8000488281</ele>
        <time>2021-03-21T09:17:40.000Z</time>
      </trkpt>
      <trkpt lat="44.99968" lon="6.0337">
        <ele>1903.8000488281</ele>
        <time>2021-03-21T09:17:41.000Z</time>
      </trkpt>
      <trkpt lat="44.99967" lon="6.0337">
        <ele>1903.8000488281</ele>
        <time>2021-03-21T09:17:42.000Z</time>
      </trkpt>
      <trkpt lat="44.99966" lon="6.0337">
        <ele>1903.8000488281</ele>
        <time>2021-03-21T09:17:43.000Z</time>
      </trkpt>
      <trkpt lat="44.99965" lon="6.03371">
        <ele>1903.5999755859</ele>
        <time>2021-03-21T09:17:44.000Z</time>
      </trkpt>
      <trkpt lat="44.99964" lon="6.03371">
        <ele>1903.5999755859</ele>
        <time>2021-03-21T09:17:45.000Z</time>
      </trkpt>
      <trkpt lat="44.99964" lon="6.03371">
        <ele>1903.4000244141</ele>
        <time>2021-03-21T09:17:46.000Z</time>
      </trkpt>
      <trkpt lat="44.99963" lon="6.03372">
        <ele>1903</ele>
        <time>2021-03-21T09:17:47.000Z</time>
      </trkpt>
      <trkpt lat="44.99962" lon="6.03373">
        <ele>1902.8000488281</ele>
        <time>2021-03-21T09:17:48.000Z</time>
      </trkpt>
      <trkpt lat="44.99961" lon="6.03373">
        <ele>1902.5999755859</ele>
        <time>2021-03-21T09:17:49.000Z</time>
      </trkpt>
      <trkpt lat="44.99961" lon="6.03373">
        <ele>1902.4000244141</ele>
        <time>2021-03-21T09:17:50.000Z</time>
      </trkpt>
      <trkpt lat="44.9996" lon="6.03374">
        <ele>1902</ele>
        <time>2021-03-21T09:17:51.000Z</time>
      </trkpt>
      <trkpt lat="44.99959" lon="6.03374">
        <ele>1901.8000488281</ele>
        <time>2021-03-21T09:17:52.000Z</time>
      </trkpt>
      <trkpt lat="44.99959" lon="6.03375">
        <ele>1901.5999755859</ele>
        <time>2021-03-21T09:17:53.000Z</time>
      </trkpt>
      <trkpt lat="44.99958" lon="6.03375">
        <ele>1901.5999755859</ele>
        <time>2021-03-21T09:17:54.000Z</time>
      </trkpt>
      <trkpt lat="44.99957" lon="6.03375">
        <ele>1901.5999755859</ele>
        <time>2021-03-21T09:17:55.000Z</time>
      </trkpt>
      <trkpt lat="44.99956" lon="6.03376">
        <ele>1901.5999755859</ele>
        <time>2021-03-21T09:17:56.000Z</time>
      </trkpt>
      <trkpt lat="44.99956" lon="6.03376">
        <ele>1901.5999755859</ele>
        <time>2021-03-21T09:17:57.000Z</time>
      </trkpt>
      <trkpt lat="44.99955" lon="6.03376">
        <ele>1901.5999755859</ele>
        <time>2021-03-21T09:17:58.000Z</time>
      </trkpt>
      <trkpt lat="44.99954" lon="6.03376">
        <ele>1901.5999755859</ele>
        <time>2021-03-21T09:17:59.000Z</time>
      </trkpt>
      <trkpt lat="44.99954" lon="6.03376">
        <ele>1901.5999755859</ele>
        <time>2021-03-21T09:18:00.000Z</time>
      </trkpt>
      <trkpt lat="44.99953" lon="6.03376">
        <ele>1901.5999755859</ele>
        <time>2021-03-21T09:18:01.000Z</time>
      </trkpt>
      <trkpt lat="44.99952" lon="6.03376">
        <ele>1901.8000488281</ele>
        <time>2021-03-21T09:18:02.000Z</time>
      </trkpt>
      <trkpt lat="44.99952" lon="6.03376">
        <ele>1902.1999511719</ele>
        <time>2021-03-21T09:18:03.000Z</time>
      </trkpt>
      <trkpt lat="44.99951" lon="6.03375">
        <ele>1902.8000488281</ele>
        <time>2021-03-21T09:18:04.000Z</time>
      </trkpt>
      <trkpt lat="44.99951" lon="6.03375">
        <ele>1902.8000488281</ele>
        <time>2021-03-21T09:18:05.000Z</time>
      </trkpt>
      <trkpt lat="44.99952" lon="6.03373">
        <ele>1903.5999755859</ele>
        <time>2021-03-21T09:18:06.000Z</time>
      </trkpt>
      <trkpt lat="44.99952" lon="6.03373">
        <ele>1904</ele>
        <time>2021-03-21T09:18:07.000Z</time>
      </trkpt>
      <trkpt lat="44.99953" lon="6.03372">
        <ele>1904.5999755859</ele>
        <time>2021-03-21T09:18:08.000Z</time>
      </trkpt>
      <trkpt lat="44.99953" lon="6.03371">
        <ele>1905</ele>
        <time>2021-03-21T09:18:09.000Z</time>
      </trkpt>
      <trkpt lat="44.99954" lon="6.0337">
        <ele>1905.4000244141</ele>
        <time>2021-03-21T09:18:10.000Z</time>
      </trkpt>
      <trkpt lat="44.99954" lon="6.03369">
        <ele>1905.5999755859</ele>
        <time>2021-03-21T09:18:11.000Z</time>
      </trkpt>
      <trkpt lat="44.99954" lon="6.03368">
        <ele>1906</ele>
        <time>2021-03-21T09:18:12.000Z</time>
      </trkpt>
      <trkpt lat="44.99955" lon="6.03367">
        <ele>1906.5999755859</ele>
        <time>2021-03-21T09:18:13.000Z</time>
      </trkpt>
      <trkpt lat="44.99956" lon="6.03366">
        <ele>1906.8000488281</ele>
        <time>2021-03-21T09:18:14.000Z</time>
      </trkpt>
      <trkpt lat="44.99956" lon="6.03365">
        <ele>1907.1999511719</ele>
        <time>2021-03-21T09:18:15.000Z</time>
      </trkpt>
      <trkpt lat="44.99957" lon="6.03365">
        <ele>1907.1999511719</ele>
        <time>2021-03-21T09:18:16.000Z</time>
      </trkpt>
      <trkpt lat="44.99957" lon="6.03364">
        <ele>1907.5999755859</ele>
        <time>2021-03-21T09:18:17.000Z</time>
      </trkpt>
      <trkpt lat="44.99957" lon="6.03363">
        <ele>1908</ele>
        <time>2021-03-21T09:18:18.000Z</time>
      </trkpt>
      <trkpt lat="44.99958" lon="6.03363">
        <ele>1908.4000244141</ele>
        <time>2021-03-21T09:18:19.000Z</time>
      </trkpt>
      <trkpt lat="44.99958" lon="6.03362">
        <ele>1908.5999755859</ele>
        <time>2021-03-21T09:18:20.000Z</time>
      </trkpt>
      <trkpt lat="44.99959" lon="6.03361">
        <ele>1909.1999511719</ele>
        <time>2021-03-21T09:18:21.000Z</time>
      </trkpt>
      <trkpt lat="44.99959" lon="6.0336">
        <ele>1909.8000488281</ele>
        <time>2021-03-21T09:18:22.000Z</time>
      </trkpt>
      <trkpt lat="44.9996" lon="6.03359">
        <ele>1910.1999511719</ele>
        <time>2021-03-21T09:18:23.000Z</time>
      </trkpt>
      <trkpt lat="44.9996" lon="6.03358">
        <ele>1910.5999755859</ele>
        <time>2021-03-21T09:18:24.000Z</time>
      </trkpt>
      <trkpt lat="44.99961" lon="6.03357">
        <ele>1911</ele>
        <time>2021-03-21T09:18:25.000Z</time>
      </trkpt>
      <trkpt lat="44.99961" lon="6.03356">
        <ele>1911.4000244141</ele>
        <time>2021-03-21T09:18:26.000Z</time>
      </trkpt>
      <trkpt lat="44.99962" lon="6.03356">
        <ele>1911.8000488281</ele>
        <time>2021-03-21T09:18:27.000Z</time>
      </trkpt>
      <trkpt lat="44.99962" lon="6.03356">
        <ele>1911.8000488281</ele>
        <time>2021-03-21T09:18:28.000Z</time>
      </trkpt>
      <trkpt lat="44.99963" lon="6.03355">
        <ele>1912.1999511719</ele>
        <time>2021-03-21T09:18:29.000Z</time>
      </trkpt>
      <trkpt lat="44.99963" lon="6.03355">
        <ele>1912.4000244141</ele>
        <time>2021-03-21T09:18:30.000Z</time>
      </trkpt>
      <trkpt lat="44.99964" lon="6.03355">
        <ele>1912.4000244141</ele>
        <time>2021-03-21T09:18:31.000Z</time>
      </trkpt>
      <trkpt lat="44.99964" lon="6.03355">
        <ele>1912.1999511719</ele>
        <time>2021-03-21T09:18:32.000Z</time>
      </trkpt>
      <trkpt lat="44.99965" lon="6.03355">
        <ele>1912.1999511719</ele>
        <time>2021-03-21T09:18:33.000Z</time>
      </trkpt>
      <trkpt lat="44.99965" lon="6.03355">
        <ele>1912.4000244141</ele>
        <time>2021-03-21T09:18:34.000Z</time>
      </trkpt>
      <trkpt lat="44.99966" lon="6.03355">
        <ele>1912.1999511719</ele>
        <time>2021-03-21T09:18:35.000Z</time>
      </trkpt>
      <trkpt lat="44.99967" lon="6.03354">
        <ele>1912.4000244141</ele>
        <time>2021-03-21T09:18:36.000Z</time>
      </trkpt>
      <trkpt lat="44.99967" lon="6.03355">
        <ele>1912.1999511719</ele>
        <time>2021-03-21T09:18:37.000Z</time>
      </trkpt>
      <trkpt lat="44.99968" lon="6.03354">
        <ele>1912.4000244141</ele>
        <time>2021-03-21T09:18:38.000Z</time>
      </trkpt>
      <trkpt lat="44.99968" lon="6.03354">
        <ele>1912.5999755859</ele>
        <time>2021-03-21T09:18:39.000Z</time>
      </trkpt>
      <trkpt lat="44.99969" lon="6.03354">
        <ele>1912.5999755859</ele>
        <time>2021-03-21T09:18:40.000Z</time>
      </trkpt>
      <trkpt lat="44.99969" lon="6.03353">
        <ele>1912.8000488281</ele>
        <time>2021-03-21T09:18:41.000Z</time>
      </trkpt>
      <trkpt lat="44.9997" lon="6.03353">
        <ele>1912.8000488281</ele>
        <time>2021-03-21T09:18:42.000Z</time>
      </trkpt>
      <trkpt lat="44.9997" lon="6.03353">
        <ele>1913</ele>
        <time>2021-03-21T09:18:43.000Z</time>
      </trkpt>
      <trkpt lat="44.99971" lon="6.03353">
        <ele>1913</ele>
        <time>2021-03-21T09:18:44.000Z</time>
      </trkpt>
      <trkpt lat="44.99971" lon="6.03352">
        <ele>1913.1999511719</ele>
        <time>2021-03-21T09:18:45.000Z</time>
      </trkpt>
      <trkpt lat="44.99972" lon="6.03352">
        <ele>1913.4000244141</ele>
        <time>2021-03-21T09:18:46.000Z</time>
      </trkpt>
      <trkpt lat="44.99972" lon="6.03352">
        <ele>1913.5999755859</ele>
        <time>2021-03-21T09:18:47.000Z</time>
      </trkpt>
      <trkpt lat="44.99973" lon="6.03352">
        <ele>1913.5999755859</ele>
        <time>2021-03-21T09:18:48.000Z</time>
      </trkpt>
      <trkpt lat="44.99973" lon="6.03352">
        <ele>1913.5999755859</ele>
        <time>2021-03-21T09:18:49.000Z</time>
      </trkpt>
      <trkpt lat="44.99974" lon="6.03351">
        <ele>1913.8000488281</ele>
        <time>2021-03-21T09:18:50.000Z</time>
      </trkpt>
      <trkpt lat="44.99974" lon="6.03351">
        <ele>1913.5999755859</ele>
        <time>2021-03-21T09:18:51.000Z</time>
      </trkpt>
      <trkpt lat="44.99975" lon="6.03351">
        <ele>1913.8000488281</ele>
        <time>2021-03-21T09:18:52.000Z</time>
      </trkpt>
      <trkpt lat="44.99975" lon="6.03351">
        <ele>1914</ele>
        <time>2021-03-21T09:18:53.000Z</time>
      </trkpt>
      <trkpt lat="44.99976" lon="6.0335">
        <ele>1914.4000244141</ele>
        <time>2021-03-21T09:18:54.000Z</time>
      </trkpt>
      <trkpt lat="44.99976" lon="6.03349">
        <ele>1914.8000488281</ele>
        <time>2021-03-21T09:18:55.000Z</time>
      </trkpt>
      <trkpt lat="44.99977" lon="6.03349">
        <ele>1915</ele>
        <time>2021-03-21T09:18:56.000Z</time>
      </trkpt>
      <trkpt lat="44.99977" lon="6.03348">
        <ele>1915.4000244141</ele>
        <time>2021-03-21T09:18:57.000Z</time>
      </trkpt>
      <trkpt lat="44.99978" lon="6.03348">
        <ele>1915.5999755859</ele>
        <time>2021-03-21T09:18:58.000Z</time>
      </trkpt>
      <trkpt lat="44.99978" lon="6.03348">
        <ele>1915.8000488281</ele>
        <time>2021-03-21T09:18:59.000Z</time>
      </trkpt>
      <trkpt lat="44.99978" lon="6.03347">
        <ele>1916.1999511719</ele>
        <time>2021-03-21T09:19:00.000Z</time>
      </trkpt>
      <trkpt lat="44.99979" lon="6.03347">
        <ele>1916.1999511719</ele>
        <time>2021-03-21T09:19:01.000Z</time>
      </trkpt>
      <trkpt lat="44.99979" lon="6.03346">
        <ele>1916.8000488281</ele>
        <time>2021-03-21T09:19:02.000Z</time>
      </trkpt>
      <trkpt lat="44.99979" lon="6.03345">
        <ele>1917.1999511719</ele>
        <time>2021-03-21T09:19:03.000Z</time>
      </trkpt>
      <trkpt lat="44.9998" lon="6.03345">
        <ele>1917.8000488281</ele>
        <time>2021-03-21T09:19:04.000Z</time>
      </trkpt>
      <trkpt lat="44.9998" lon="6.03344">
        <ele>1918</ele>
        <time>2021-03-21T09:19:05.000Z</time>
      </trkpt>
      <trkpt lat="44.99981" lon="6.03344">
        <ele>1918</ele>
        <time>2021-03-21T09:19:06.000Z</time>
      </trkpt>
      <trkpt lat="44.99981" lon="6.03344">
        <ele>1918.4000244141</ele>
        <time>2021-03-21T09:19:07.000Z</time>
      </trkpt>
      <trkpt lat="44.99982" lon="6.03344">
        <ele>1918</ele>
        <time>2021-03-21T09:19:08.000Z</time>
      </trkpt>
      <trkpt lat="44.99982" lon="6.03344">
        <ele>1917.8000488281</ele>
        <time>2021-03-21T09:19:09.000Z</time>
      </trkpt>
      <trkpt lat="44.99982" lon="6.03345">
        <ele>1917.5999755859</ele>
        <time>2021-03-21T09:19:10.000Z</time>
      </trkpt>
      <trkpt lat="44.99982" lon="6.03345">
        <ele>1917.4000244141</ele>
        <time>2021-03-21T09:19:11.000Z</time>
      </trkpt>
      <trkpt lat="44.99982" lon="6.03345">
        <ele>1917.1999511719</ele>
        <time>2021-03-21T09:19:12.000Z</time>
      </trkpt>
      <trkpt lat="44.99982" lon="6.03346">
        <ele>1917</ele>
        <time>2021-03-21T09:19:13.000Z</time>
      </trkpt>
      <trkpt lat="44.99982" lon="6.03346">
        <ele>1916.8000488281</ele>
        <time>2021-03-21T09:19:14.000Z</time>
      </trkpt>
      <trkpt lat="44.99981" lon="6.03346">
        <ele>1916.8000488281</ele>
        <time>2021-03-21T09:19:15.000Z</time>
      </trkpt>
      <trkpt lat="44.99981" lon="6.03345">
        <ele>1917.1999511719</ele>
        <time>2021-03-21T09:19:16.000Z</time>
      </trkpt>
      <trkpt lat="44.9998" lon="6.03345">
        <ele>1917.4000244141</ele>
        <time>2021-03-21T09:19:17.000Z</time>
      </trkpt>
      <trkpt lat="44.99979" lon="6.03345">
        <ele>1917.8000488281</ele>
        <time>2021-03-21T09:19:18.000Z</time>
      </trkpt>
      <trkpt lat="44.99979" lon="6.03344">
        <ele>1918</ele>
        <time>2021-03-21T09:19:19.000Z</time>
      </trkpt>
      <trkpt lat="44.99978" lon="6.03344">
        <ele>1918</ele>
        <time>2021-03-21T09:19:20.000Z</time>
      </trkpt>
      <trkpt lat="44.99978" lon="6.03344">
        <ele>1918.1999511719</ele>
        <time>2021-03-21T09:19:21.000Z</time>
      </trkpt>
      <trkpt lat="44.99977" lon="6.03344">
        <ele>1918.5999755859</ele>
        <time>2021-03-21T09:19:22.000Z</time>
      </trkpt>
      <trkpt lat="44.99976" lon="6.03343">
        <ele>1918.5999755859</ele>
        <time>2021-03-21T09:19:23.000Z</time>
      </trkpt>
      <trkpt lat="44.99977" lon="6.03343">
        <ele>1918.8000488281</ele>
        <time>2021-03-21T09:19:24.000Z</time>
      </trkpt>
      <trkpt lat="44.99976" lon="6.03343">
        <ele>1919</ele>
        <time>2021-03-21T09:19:25.000Z</time>
      </trkpt>
      <trkpt lat="44.99976" lon="6.03342">
        <ele>1919.1999511719</ele>
        <time>2021-03-21T09:19:26.000Z</time>
      </trkpt>
      <trkpt lat="44.99976" lon="6.03342">
        <ele>1919.4000244141</ele>
        <time>2021-03-21T09:19:27.000Z</time>
      </trkpt>
      <trkpt lat="44.99976" lon="6.03342">
        <ele>1919.5999755859</ele>
        <time>2021-03-21T09:19:28.000Z</time>
      </trkpt>
      <trkpt lat="44.99976" lon="6.03342">
        <ele>1919.8000488281</ele>
        <time>2021-03-21T09:19:29.000Z</time>
      </trkpt>
      <trkpt lat="44.99976" lon="6.03341">
        <ele>1920</ele>
        <time>2021-03-21T09:19:30.000Z</time>
      </trkpt>
      <trkpt lat="44.99976" lon="6.03341">
        <ele>1920</ele>
        <time>2021-03-21T09:19:31.000Z</time>
      </trkpt>
      <trkpt lat="44.99976" lon="6.03341">
        <ele>1920.1999511719</ele>
        <time>2021-03-21T09:19:32.000Z</time>
      </trkpt>
      <trkpt lat="44.99976" lon="6.03341">
        <ele>1920.4000244141</ele>
        <time>2021-03-21T09:19:33.000Z</time>
      </trkpt>
      <trkpt lat="44.99976" lon="6.0334">
        <ele>1920.8000488281</ele>
        <time>2021-03-21T09:19:34.000Z</time>
      </trkpt>
      <trkpt lat="44.99976" lon="6.0334">
        <ele>1920.8000488281</ele>
        <time>2021-03-21T09:19:35.000Z</time>
      </trkpt>
      <trkpt lat="44.99976" lon="6.0334">
        <ele>1920.8000488281</ele>
        <time>2021-03-21T09:19:36.000Z</time>
      </trkpt>
      <trkpt lat="44.99976" lon="6.0334">
        <ele>1921</ele>
        <time>2021-03-21T09:19:37.000Z</time>
      </trkpt>
      <trkpt lat="44.99976" lon="6.0334">
        <ele>1921</ele>
        <time>2021-03-21T09:19:38.000Z</time>
      </trkpt>
      <trkpt lat="44.99976" lon="6.0334">
        <ele>1921</ele>
        <time>2021-03-21T09:19:39.000Z</time>
      </trkpt>
      <trkpt lat="44.99976" lon="6.0334">
        <ele>1920.8000488281</ele>
        <time>2021-03-21T09:19:40.000Z</time>
      </trkpt>
      <trkpt lat="44.99976" lon="6.0334">
        <ele>1920.8000488281</ele>
        <time>2021-03-21T09:19:41.000Z</time>
      </trkpt>
      <trkpt lat="44.99976" lon="6.0334">
        <ele>1921</ele>
        <time>2021-03-21T09:19:42.000Z</time>
      </trkpt>
      <trkpt lat="44.99976" lon="6.0334">
        <ele>1921</ele>
        <time>2021-03-21T09:19:43.000Z</time>
      </trkpt>
      <trkpt lat="44.99977" lon="6.0334">
        <ele>1921</ele>
        <time>2021-03-21T09:19:44.000Z</time>
      </trkpt>
      <trkpt lat="44.99977" lon="6.0334">
        <ele>1921.1999511719</ele>
        <time>2021-03-21T09:19:45.000Z</time>
      </trkpt>
      <trkpt lat="44.99977" lon="6.0334">
        <ele>1921.1999511719</ele>
        <time>2021-03-21T09:19:46.000Z</time>
      </trkpt>
      <trkpt lat="44.99977" lon="6.0334">
        <ele>1921.1999511719</ele>
        <time>2021-03-21T09:19:47.000Z</time>
      </trkpt>
      <trkpt lat="44.99977" lon="6.0334">
        <ele>1921.1999511719</ele>
        <time>2021-03-21T09:19:48.000Z</time>
      </trkpt>
      <trkpt lat="44.99978" lon="6.0334">
        <ele>1921.1999511719</ele>
        <time>2021-03-21T09:19:49.000Z</time>
      </trkpt>
      <trkpt lat="44.99978" lon="6.03339">
        <ele>1921.5999755859</ele>
        <time>2021-03-21T09:19:50.000Z</time>
      </trkpt>
      <trkpt lat="44.99978" lon="6.03339">
        <ele>1921.5999755859</ele>
        <time>2021-03-21T09:19:51.000Z</time>
      </trkpt>
      <trkpt lat="44.99979" lon="6.03339">
        <ele>1921.8000488281</ele>
        <time>2021-03-21T09:19:52.000Z</time>
      </trkpt>
      <trkpt lat="44.99979" lon="6.03338">
        <ele>1922.1999511719</ele>
        <time>2021-03-21T09:19:53.000Z</time>
      </trkpt>
      <trkpt lat="44.9998" lon="6.03337">
        <ele>1922.4000244141</ele>
        <time>2021-03-21T09:19:54.000Z</time>
      </trkpt>
      <trkpt lat="44.9998" lon="6.03337">
        <ele>1922.4000244141</ele>
        <time>2021-03-21T09:19:55.000Z</time>
      </trkpt>
      <trkpt lat="44.9998" lon="6.03337">
        <ele>1922.4000244141</ele>
        <time>2021-03-21T09:19:56.000Z</time>
      </trkpt>
      <trkpt lat="44.9998" lon="6.03337">
        <ele>1922.4000244141</ele>
        <time>2021-03-21T09:19:57.000Z</time>
      </trkpt>
      <trkpt lat="44.99981" lon="6.03337">
        <ele>1922.4000244141</ele>
        <time>2021-03-21T09:19:58.000Z</time>
      </trkpt>
      <trkpt lat="44.99981" lon="6.03337">
        <ele>1922.4000244141</ele>
        <time>2021-03-21T09:19:59.000Z</time>
      </trkpt>
      <trkpt lat="44.99981" lon="6.03337">
        <ele>1922.5999755859</ele>
        <time>2021-03-21T09:20:00.000Z</time>
      </trkpt>
      <trkpt lat="44.99981" lon="6.03337">
        <ele>1922.8000488281</ele>
        <time>2021-03-21T09:20:01.000Z</time>
      </trkpt>
      <trkpt lat="44.99981" lon="6.03337">
        <ele>1922.8000488281</ele>
        <time>2021-03-21T09:20:02.000Z</time>
      </trkpt>
      <trkpt lat="44.99981" lon="6.03337">
        <ele>1922.5999755859</ele>
        <time>2021-03-21T09:20:03.000Z</time>
      </trkpt>
      <trkpt lat="44.99982" lon="6.03337">
        <ele>1922.5999755859</ele>
        <time>2021-03-21T09:20:04.000Z</time>
      </trkpt>
      <trkpt lat="44.99981" lon="6.03337">
        <ele>1922.5999755859</ele>
        <time>2021-03-21T09:20:05.000Z</time>
      </trkpt>
      <trkpt lat="44.99981" lon="6.03337">
        <ele>1922.4000244141</ele>
        <time>2021-03-21T09:20:06.000Z</time>
      </trkpt>
      <trkpt lat="44.99981" lon="6.03337">
        <ele>1922.4000244141</ele>
        <time>2021-03-21T09:20:07.000Z</time>
      </trkpt>
      <trkpt lat="44.99981" lon="6.03337">
        <ele>1922.4000244141</ele>
        <time>2021-03-21T09:20:08.000Z</time>
      </trkpt>
      <trkpt lat="44.99981" lon="6.03337">
        <ele>1922.4000244141</ele>
        <time>2021-03-21T09:20:09.000Z</time>
      </trkpt>
      <trkpt lat="44.99981" lon="6.03337">
        <ele>1922.4000244141</ele>
        <time>2021-03-21T09:20:10.000Z</time>
      </trkpt>
      <trkpt lat="44.99981" lon="6.03338">
        <ele>1922.1999511719</ele>
        <time>2021-03-21T09:20:11.000Z</time>
      </trkpt>
      <trkpt lat="44.99981" lon="6.03338">
        <ele>1922</ele>
        <time>2021-03-21T09:20:12.000Z</time>
      </trkpt>
      <trkpt lat="44.99981" lon="6.03338">
        <ele>1921.8000488281</ele>
        <time>2021-03-21T09:20:13.000Z</time>
      </trkpt>
      <trkpt lat="44.9998" lon="6.03338">
        <ele>1921.8000488281</ele>
        <time>2021-03-21T09:20:14.000Z</time>
      </trkpt>
      <trkpt lat="44.9998" lon="6.03339">
        <ele>1921.5999755859</ele>
        <time>2021-03-21T09:20:15.000Z</time>
      </trkpt>
      <trkpt lat="44.9998" lon="6.03338">
        <ele>1921.8000488281</ele>
        <time>2021-03-21T09:20:16.000Z</time>
      </trkpt>
      <trkpt lat="44.9998" lon="6.03339">
        <ele>1921.5999755859</ele>
        <time>2021-03-21T09:20:17.000Z</time>
      </trkpt>
      <trkpt lat="44.9998" lon="6.03339">
        <ele>1921.5999755859</ele>
        <time>2021-03-21T09:20:18.000Z</time>
      </trkpt>
      <trkpt lat="44.9998" lon="6.03338">
        <ele>1921.8000488281</ele>
        <time>2021-03-21T09:20:19.000Z</time>
      </trkpt>
      <trkpt lat="44.9998" lon="6.03339">
        <ele>1921.5999755859</ele>
        <time>2021-03-21T09:20:20.000Z</time>
      </trkpt>
      <trkpt lat="44.9998" lon="6.03339">
        <ele>1921.5999755859</ele>
        <time>2021-03-21T09:20:21.000Z</time>
      </trkpt>
      <trkpt lat="44.9998" lon="6.03339">
        <ele>1921.5999755859</ele>
        <time>2021-03-21T09:20:22.000Z</time>
      </trkpt>
      <trkpt lat="44.9998" lon="6.03339">
        <ele>1921.5999755859</ele>
        <time>2021-03-21T09:20:23.000Z</time>
      </trkpt>
      <trkpt lat="44.9998" lon="6.03339">
        <ele>1921.5999755859</ele>
        <time>2021-03-21T09:20:24.000Z</time>
      </trkpt>
      <trkpt lat="44.99979" lon="6.03339">
        <ele>1921.5999755859</ele>
        <time>2021-03-21T09:20:25.000Z</time>
      </trkpt>
      <trkpt lat="44.99979" lon="6.03339">
        <ele>1921.8000488281</ele>
        <time>2021-03-21T09:20:26.000Z</time>
      </trkpt>
      <trkpt lat="44.99979" lon="6.03339">
        <ele>1921.5999755859</ele>
        <time>2021-03-21T09:20:27.000Z</time>
      </trkpt>
      <trkpt lat="44.99979" lon="6.03339">
        <ele>1921.5999755859</ele>
        <time>2021-03-21T09:20:28.000Z</time>
      </trkpt>
      <trkpt lat="44.99979" lon="6.03339">
        <ele>1921.5999755859</ele>
        <time>2021-03-21T09:20:29.000Z</time>
      </trkpt>
      <trkpt lat="44.99979" lon="6.03339">
        <ele>1921.5999755859</ele>
        <time>2021-03-21T09:20:30.000Z</time>
      </trkpt>
      <trkpt lat="44.99979" lon="6.03339">
        <ele>1921.5999755859</ele>
        <time>2021-03-21T09:20:31.000Z</time>
      </trkpt>
      <trkpt lat="44.99979" lon="6.03339">
        <ele>1921.8000488281</ele>
        <time>2021-03-21T09:20:32.000Z</time>
      </trkpt>
      <trkpt lat="44.99979" lon="6.03339">
        <ele>1921.8000488281</ele>
        <time>2021-03-21T09:20:33.000Z</time>
      </trkpt>
      <trkpt lat="44.9998" lon="6.03339">
        <ele>1921.5999755859</ele>
        <time>2021-03-21T09:20:34.000Z</time>
      </trkpt>
      <trkpt lat="44.9998" lon="6.03339">
        <ele>1921.5999755859</ele>
        <time>2021-03-21T09:20:35.000Z</time>
      </trkpt>
      <trkpt lat="44.9998" lon="6.03339">
        <ele>1921.5999755859</ele>
        <time>2021-03-21T09:20:36.000Z</time>
      </trkpt>
      <trkpt lat="44.9998" lon="6.03339">
        <ele>1921.4000244141</ele>
        <time>2021-03-21T09:20:37.000Z</time>
      </trkpt>
      <trkpt lat="44.9998" lon="6.03339">
        <ele>1921.5999755859</ele>
        <time>2021-03-21T09:20:38.000Z</time>
      </trkpt>
      <trkpt lat="44.9998" lon="6.03339">
        <ele>1921.5999755859</ele>
        <time>2021-03-21T09:20:39.000Z</time>
      </trkpt>
      <trkpt lat="44.99979" lon="6.03339">
        <ele>1921.5999755859</ele>
        <time>2021-03-21T09:20:40.000Z</time>
      </trkpt>
      <trkpt lat="44.99979" lon="6.03339">
        <ele>1921.5999755859</ele>
        <time>2021-03-21T09:20:41.000Z</time>
      </trkpt>
      <trkpt lat="44.99979" lon="6.03339">
        <ele>1921.5999755859</ele>
        <time>2021-03-21T09:20:42.000Z</time>
      </trkpt>
      <trkpt lat="44.99979" lon="6.03339">
        <ele>1921.5999755859</ele>
        <time>2021-03-21T09:20:43.000Z</time>
      </trkpt>
      <trkpt lat="44.9998" lon="6.03339">
        <ele>1921.5999755859</ele>
        <time>2021-03-21T09:20:44.000Z</time>
      </trkpt>
      <trkpt lat="44.99979" lon="6.03339">
        <ele>1921.5999755859</ele>
        <time>2021-03-21T09:20:45.000Z</time>
      </trkpt>
      <trkpt lat="44.99979" lon="6.03339">
        <ele>1921.8000488281</ele>
        <time>2021-03-21T09:20:46.000Z</time>
      </trkpt>
      <trkpt lat="44.99979" lon="6.03338">
        <ele>1922</ele>
        <time>2021-03-21T09:20:47.000Z</time>
      </trkpt>
      <trkpt lat="44.99979" lon="6.03338">
        <ele>1922.1999511719</ele>
        <time>2021-03-21T09:20:48.000Z</time>
      </trkpt>
      <trkpt lat="44.99979" lon="6.03338">
        <ele>1922.1999511719</ele>
        <time>2021-03-21T09:20:49.000Z</time>
      </trkpt>
      <trkpt lat="44.99979" lon="6.03338">
        <ele>1922.1999511719</ele>
        <time>2021-03-21T09:20:50.000Z</time>
      </trkpt>
      <trkpt lat="44.99979" lon="6.03338">
        <ele>1922.1999511719</ele>
        <time>2021-03-21T09:20:51.000Z</time>
      </trkpt>
      <trkpt lat="44.99979" lon="6.03338">
        <ele>1922.1999511719</ele>
        <time>2021-03-21T09:20:52.000Z</time>
      </trkpt>
      <trkpt lat="44.99979" lon="6.03338">
        <ele>1922.4000244141</ele>
        <time>2021-03-21T09:20:53.000Z</time>
      </trkpt>
      <trkpt lat="44.99978" lon="6.03337">
        <ele>1922.5999755859</ele>
        <time>2021-03-21T09:20:54.000Z</time>
      </trkpt>
      <trkpt lat="44.99979" lon="6.03337">
        <ele>1923</ele>
        <time>2021-03-21T09:20:55.000Z</time>
      </trkpt>
      <trkpt lat="44.99979" lon="6.03337">
        <ele>1923.1999511719</ele>
        <time>2021-03-21T09:20:56.000Z</time>
      </trkpt>
      <trkpt lat="44.99979" lon="6.03336">
        <ele>1923.1999511719</ele>
        <time>2021-03-21T09:20:57.000Z</time>
      </trkpt>
      <trkpt lat="44.99979" lon="6.03336">
        <ele>1923.1999511719</ele>
        <time>2021-03-21T09:20:58.000Z</time>
      </trkpt>
      <trkpt lat="44.99978" lon="6.03336">
        <ele>1923.4000244141</ele>
        <time>2021-03-21T09:20:59.000Z</time>
      </trkpt>
      <trkpt lat="44.99978" lon="6.03336">
        <ele>1923.4000244141</ele>
        <time>2021-03-21T09:21:00.000Z</time>
      </trkpt>
      <trkpt lat="44.99978" lon="6.03336">
        <ele>1923.4000244141</ele>
        <time>2021-03-21T09:21:01.000Z</time>
      </trkpt>
      <trkpt lat="44.99978" lon="6.03336">
        <ele>1923.4000244141</ele>
        <time>2021-03-21T09:21:02.000Z</time>
      </trkpt>
      <trkpt lat="44.99977" lon="6.03336">
        <ele>1923.4000244141</ele>
        <time>2021-03-21T09:21:03.000Z</time>
      </trkpt>
      <trkpt lat="44.99976" lon="6.03336">
        <ele>1923.4000244141</ele>
        <time>2021-03-21T09:21:04.000Z</time>
      </trkpt>
      <trkpt lat="44.99975" lon="6.03336">
        <ele>1923.5999755859</ele>
        <time>2021-03-21T09:21:05.000Z</time>
      </trkpt>
      <trkpt lat="44.99974" lon="6.03336">
        <ele>1923.8000488281</ele>
        <time>2021-03-21T09:21:06.000Z</time>
      </trkpt>
      <trkpt lat="44.99974" lon="6.03336">
        <ele>1923.8000488281</ele>
        <time>2021-03-21T09:21:07.000Z</time>
      </trkpt>
      <trkpt lat="44.99973" lon="6.03336">
        <ele>1924</ele>
        <time>2021-03-21T09:21:08.000Z</time>
      </trkpt>
      <trkpt lat="44.99972" lon="6.03335">
        <ele>1924.4000244141</ele>
        <time>2021-03-21T09:21:09.000Z</time>
      </trkpt>
      <trkpt lat="44.99971" lon="6.03335">
        <ele>1924.5999755859</ele>
        <time>2021-03-21T09:21:10.000Z</time>
      </trkpt>
      <trkpt lat="44.9997" lon="6.03335">
        <ele>1924.8000488281</ele>
        <time>2021-03-21T09:21:11.000Z</time>
      </trkpt>
      <trkpt lat="44.99969" lon="6.03334">
        <ele>1925.1999511719</ele>
        <time>2021-03-21T09:21:12.000Z</time>
      </trkpt>
      <trkpt lat="44.99969" lon="6.03334">
        <ele>1925.4000244141</ele>
        <time>2021-03-21T09:21:13.000Z</time>
      </trkpt>
      <trkpt lat="44.99968" lon="6.03334">
        <ele>1925.5999755859</ele>
        <time>2021-03-21T09:21:14.000Z</time>
      </trkpt>
      <trkpt lat="44.99967" lon="6.03333">
        <ele>1925.8000488281</ele>
        <time>2021-03-21T09:21:15.000Z</time>
      </trkpt>
      <trkpt lat="44.99967" lon="6.03333">
        <ele>1926.1999511719</ele>
        <time>2021-03-21T09:21:16.000Z</time>
      </trkpt>
      <trkpt lat="44.99966" lon="6.03333">
        <ele>1926.4000244141</ele>
        <time>2021-03-21T09:21:17.000Z</time>
      </trkpt>
      <trkpt lat="44.99965" lon="6.03332">
        <ele>1926.8000488281</ele>
        <time>2021-03-21T09:21:18.000Z</time>
      </trkpt>
      <trkpt lat="44.99965" lon="6.03332">
        <ele>1927</ele>
        <time>2021-03-21T09:21:19.000Z</time>
      </trkpt>
      <trkpt lat="44.99964" lon="6.03332">
        <ele>1927</ele>
        <time>2021-03-21T09:21:20.000Z</time>
      </trkpt>
      <trkpt lat="44.99963" lon="6.03331">
        <ele>1927.4000244141</ele>
        <time>2021-03-21T09:21:21.000Z</time>
      </trkpt>
      <trkpt lat="44.99963" lon="6.03331">
        <ele>1927.5999755859</ele>
        <time>2021-03-21T09:21:22.000Z</time>
      </trkpt>
      <trkpt lat="44.99962" lon="6.03331">
        <ele>1928</ele>
        <time>2021-03-21T09:21:23.000Z</time>
      </trkpt>
      <trkpt lat="44.99961" lon="6.0333">
        <ele>1928.1999511719</ele>
        <time>2021-03-21T09:21:24.000Z</time>
      </trkpt>
      <trkpt lat="44.99961" lon="6.0333">
        <ele>1928.1999511719</ele>
        <time>2021-03-21T09:21:25.000Z</time>
      </trkpt>
      <trkpt lat="44.9996" lon="6.0333">
        <ele>1928.4000244141</ele>
        <time>2021-03-21T09:21:26.000Z</time>
      </trkpt>
      <trkpt lat="44.9996" lon="6.0333">
        <ele>1928.5999755859</ele>
        <time>2021-03-21T09:21:27.000Z</time>
      </trkpt>
      <trkpt lat="44.99959" lon="6.0333">
        <ele>1928.5999755859</ele>
        <time>2021-03-21T09:21:28.000Z</time>
      </trkpt>
      <trkpt lat="44.99958" lon="6.0333">
        <ele>1928.5999755859</ele>
        <time>2021-03-21T09:21:29.000Z</time>
      </trkpt>
      <trkpt lat="44.99958" lon="6.0333">
        <ele>1928.8000488281</ele>
        <time>2021-03-21T09:21:30.000Z</time>
      </trkpt>
      <trkpt lat="44.99957" lon="6.03329">
        <ele>1928.8000488281</ele>
        <time>2021-03-21T09:21:31.000Z</time>
      </trkpt>
      <trkpt lat="44.99956" lon="6.03329">
        <ele>1928.8000488281</ele>
        <time>2021-03-21T09:21:32.000Z</time>
      </trkpt>
      <trkpt lat="44.99956" lon="6.03329">
        <ele>1929</ele>
        <time>2021-03-21T09:21:33.000Z</time>
      </trkpt>
      <trkpt lat="44.99955" lon="6.03329">
        <ele>1929.1999511719</ele>
        <time>2021-03-21T09:21:34.000Z</time>
      </trkpt>
      <trkpt lat="44.99954" lon="6.03329">
        <ele>1929.4000244141</ele>
        <time>2021-03-21T09:21:35.000Z</time>
      </trkpt>
      <trkpt lat="44.99954" lon="6.03329">
        <ele>1929.5999755859</ele>
        <time>2021-03-21T09:21:36.000Z</time>
      </trkpt>
      <trkpt lat="44.99953" lon="6.03328">
        <ele>1929.5999755859</ele>
        <time>2021-03-21T09:21:37.000Z</time>
      </trkpt>
      <trkpt lat="44.99953" lon="6.03328">
        <ele>1929.8000488281</ele>
        <time>2021-03-21T09:21:38.000Z</time>
      </trkpt>
      <trkpt lat="44.99952" lon="6.03328">
        <ele>1930</ele>
        <time>2021-03-21T09:21:39.000Z</time>
      </trkpt>
      <trkpt lat="44.99951" lon="6.03328">
        <ele>1929.8000488281</ele>
        <time>2021-03-21T09:21:40.000Z</time>
      </trkpt>
      <trkpt lat="44.99951" lon="6.03328">
        <ele>1929.8000488281</ele>
        <time>2021-03-21T09:21:41.000Z</time>
      </trkpt>
      <trkpt lat="44.9995" lon="6.03328">
        <ele>1930</ele>
        <time>2021-03-21T09:21:42.000Z</time>
      </trkpt>
      <trkpt lat="44.9995" lon="6.03328">
        <ele>1930.4000244141</ele>
        <time>2021-03-21T09:21:43.000Z</time>
      </trkpt>
      <trkpt lat="44.99949" lon="6.03328">
        <ele>1930.4000244141</ele>
        <time>2021-03-21T09:21:44.000Z</time>
      </trkpt>
      <trkpt lat="44.99949" lon="6.03328">
        <ele>1930.4000244141</ele>
        <time>2021-03-21T09:21:45.000Z</time>
      </trkpt>
      <trkpt lat="44.99948" lon="6.03328">
        <ele>1930.4000244141</ele>
        <time>2021-03-21T09:21:46.000Z</time>
      </trkpt>
      <trkpt lat="44.99947" lon="6.03328">
        <ele>1930.5999755859</ele>
        <time>2021-03-21T09:21:47.000Z</time>
      </trkpt>
      <trkpt lat="44.99947" lon="6.03328">
        <ele>1930.5999755859</ele>
        <time>2021-03-21T09:21:48.000Z</time>
      </trkpt>
      <trkpt lat="44.99946" lon="6.03327">
        <ele>1930.8000488281</ele>
        <time>2021-03-21T09:21:49.000Z</time>
      </trkpt>
      <trkpt lat="44.99946" lon="6.03327">
        <ele>1931.1999511719</ele>
        <time>2021-03-21T09:21:50.000Z</time>
      </trkpt>
      <trkpt lat="44.99945" lon="6.03326">
        <ele>1931.4000244141</ele>
        <time>2021-03-21T09:21:51.000Z</time>
      </trkpt>
      <trkpt lat="44.99944" lon="6.03326">
        <ele>1931.8000488281</ele>
        <time>2021-03-21T09:21:52.000Z</time>
      </trkpt>
      <trkpt lat="44.99944" lon="6.03325">
        <ele>1932.1999511719</ele>
        <time>2021-03-21T09:21:53.000Z</time>
      </trkpt>
      <trkpt lat="44.99943" lon="6.03325">
        <ele>1932.4000244141</ele>
        <time>2021-03-21T09:21:54.000Z</time>
      </trkpt>
      <trkpt lat="44.99943" lon="6.03324">
        <ele>1933</ele>
        <time>2021-03-21T09:21:55.000Z</time>
      </trkpt>
      <trkpt lat="44.99942" lon="6.03324">
        <ele>1933</ele>
        <time>2021-03-21T09:21:56.000Z</time>
      </trkpt>
      <trkpt lat="44.99942" lon="6.03324">
        <ele>1933.4000244141</ele>
        <time>2021-03-21T09:21:57.000Z</time>
      </trkpt>
      <trkpt lat="44.99941" lon="6.03323">
        <ele>1933.5999755859</ele>
        <time>2021-03-21T09:21:58.000Z</time>
      </trkpt>
      <trkpt lat="44.9994" lon="6.03323">
        <ele>1933.8000488281</ele>
        <time>2021-03-21T09:21:59.000Z</time>
      </trkpt>
      <trkpt lat="44.9994" lon="6.03323">
        <ele>1934</ele>
        <time>2021-03-21T09:22:00.000Z</time>
      </trkpt>
      <trkpt lat="44.99939" lon="6.03323">
        <ele>1934</ele>
        <time>2021-03-21T09:22:01.000Z</time>
      </trkpt>
      <trkpt lat="44.99938" lon="6.03323">
        <ele>1934.1999511719</ele>
        <time>2021-03-21T09:22:02.000Z</time>
      </trkpt>
      <trkpt lat="44.99938" lon="6.03323">
        <ele>1934.1999511719</ele>
        <time>2021-03-21T09:22:03.000Z</time>
      </trkpt>
      <trkpt lat="44.99937" lon="6.03322">
        <ele>1934.4000244141</ele>
        <time>2021-03-21T09:22:04.000Z</time>
      </trkpt>
      <trkpt lat="44.99936" lon="6.03322">
        <ele>1934.5999755859</ele>
        <time>2021-03-21T09:22:05.000Z</time>
      </trkpt>
      <trkpt lat="44.99936" lon="6.03322">
        <ele>1934.8000488281</ele>
        <time>2021-03-21T09:22:06.000Z</time>
      </trkpt>
      <trkpt lat="44.99935" lon="6.03321">
        <ele>1935.1999511719</ele>
        <time>2021-03-21T09:22:07.000Z</time>
      </trkpt>
      <trkpt lat="44.99935" lon="6.03321">
        <ele>1935.4000244141</ele>
        <time>2021-03-21T09:22:08.000Z</time>
      </trkpt>
      <trkpt lat="44.99934" lon="6.03321">
        <ele>1935.5999755859</ele>
        <time>2021-03-21T09:22:09.000Z</time>
      </trkpt>
      <trkpt lat="44.99934" lon="6.0332">
        <ele>1936</ele>
        <time>2021-03-21T09:22:10.000Z</time>
      </trkpt>
      <trkpt lat="44.99933" lon="6.0332">
        <ele>1936</ele>
        <time>2021-03-21T09:22:11.000Z</time>
      </trkpt>
      <trkpt lat="44.99932" lon="6.0332">
        <ele>1936.1999511719</ele>
        <time>2021-03-21T09:22:12.000Z</time>
      </trkpt>
      <trkpt lat="44.99932" lon="6.03319">
        <ele>1936.1999511719</ele>
        <time>2021-03-21T09:22:13.000Z</time>
      </trkpt>
      <trkpt lat="44.99931" lon="6.03319">
        <ele>1936.1999511719</ele>
        <time>2021-03-21T09:22:14.000Z</time>
      </trkpt>
      <trkpt lat="44.99931" lon="6.03319">
        <ele>1936.4000244141</ele>
        <time>2021-03-21T09:22:15.000Z</time>
      </trkpt>
      <trkpt lat="44.99931" lon="6.03319">
        <ele>1936.4000244141</ele>
        <time>2021-03-21T09:22:16.000Z</time>
      </trkpt>
      <trkpt lat="44.9993" lon="6.03318">
        <ele>1936.5999755859</ele>
        <time>2021-03-21T09:22:17.000Z</time>
      </trkpt>
      <trkpt lat="44.9993" lon="6.03318">
        <ele>1936.5999755859</ele>
        <time>2021-03-21T09:22:18.000Z</time>
      </trkpt>
      <trkpt lat="44.9993" lon="6.03317">
        <ele>1936.8000488281</ele>
        <time>2021-03-21T09:22:19.000Z</time>
      </trkpt>
      <trkpt lat="44.99929" lon="6.03317">
        <ele>1937</ele>
        <time>2021-03-21T09:22:20.000Z</time>
      </trkpt>
      <trkpt lat="44.99929" lon="6.03316">
        <ele>1937.1999511719</ele>
        <time>2021-03-21T09:22:21.000Z</time>
      </trkpt>
      <trkpt lat="44.99929" lon="6.03315">
        <ele>1937.4000244141</ele>
        <time>2021-03-21T09:22:22.000Z</time>
      </trkpt>
      <trkpt lat="44.99929" lon="6.03314">
        <ele>1937.5999755859</ele>
        <time>2021-03-21T09:22:23.000Z</time>
      </trkpt>
      <trkpt lat="44.99928" lon="6.03314">
        <ele>1937.8000488281</ele>
        <time>2021-03-21T09:22:24.000Z</time>
      </trkpt>
      <trkpt lat="44.99928" lon="6.03313">
        <ele>1938</ele>
        <time>2021-03-21T09:22:25.000Z</time>
      </trkpt>
      <trkpt lat="44.99928" lon="6.03312">
        <ele>1938.1999511719</ele>
        <time>2021-03-21T09:22:26.000Z</time>
      </trkpt>
      <trkpt lat="44.99928" lon="6.03311">
        <ele>1938.5999755859</ele>
        <time>2021-03-21T09:22:27.000Z</time>
      </trkpt>
      <trkpt lat="44.99928" lon="6.0331">
        <ele>1938.5999755859</ele>
        <time>2021-03-21T09:22:28.000Z</time>
      </trkpt>
      <trkpt lat="44.99929" lon="6.0331">
        <ele>1938.8000488281</ele>
        <time>2021-03-21T09:22:29.000Z</time>
      </trkpt>
      <trkpt lat="44.99929" lon="6.03309">
        <ele>1939</ele>
        <time>2021-03-21T09:22:30.000Z</time>
      </trkpt>
      <trkpt lat="44.99929" lon="6.03308">
        <ele>1939.1999511719</ele>
        <time>2021-03-21T09:22:31.000Z</time>
      </trkpt>
      <trkpt lat="44.99929" lon="6.03307">
        <ele>1939.4000244141</ele>
        <time>2021-03-21T09:22:32.000Z</time>
      </trkpt>
      <trkpt lat="44.99929" lon="6.03307">
        <ele>1939.5999755859</ele>
        <time>2021-03-21T09:22:33.000Z</time>
      </trkpt>
      <trkpt lat="44.9993" lon="6.03306">
        <ele>1939.5999755859</ele>
        <time>2021-03-21T09:22:34.000Z</time>
      </trkpt>
      <trkpt lat="44.9993" lon="6.03306">
        <ele>1939.8000488281</ele>
        <time>2021-03-21T09:22:35.000Z</time>
      </trkpt>
      <trkpt lat="44.9993" lon="6.03305">
        <ele>1940</ele>
        <time>2021-03-21T09:22:36.000Z</time>
      </trkpt>
      <trkpt lat="44.99931" lon="6.03304">
        <ele>1940</ele>
        <time>2021-03-21T09:22:37.000Z</time>
      </trkpt>
      <trkpt lat="44.99931" lon="6.03304">
        <ele>1940.1999511719</ele>
        <time>2021-03-21T09:22:38.000Z</time>
      </trkpt>
      <trkpt lat="44.99931" lon="6.03303">
        <ele>1940.1999511719</ele>
        <time>2021-03-21T09:22:39.000Z</time>
      </trkpt>
      <trkpt lat="44.99932" lon="6.03303">
        <ele>1940.4000244141</ele>
        <time>2021-03-21T09:22:40.000Z</time>
      </trkpt>
      <trkpt lat="44.99932" lon="6.03302">
        <ele>1940.5999755859</ele>
        <time>2021-03-21T09:22:41.000Z</time>
      </trkpt>
      <trkpt lat="44.99933" lon="6.03302">
        <ele>1940.5999755859</ele>
        <time>2021-03-21T09:22:42.000Z</time>
      </trkpt>
      <trkpt lat="44.99933" lon="6.03301">
        <ele>1940.5999755859</ele>
        <time>2021-03-21T09:22:43.000Z</time>
      </trkpt>
      <trkpt lat="44.99934" lon="6.03301">
        <ele>1940.8000488281</ele>
        <time>2021-03-21T09:22:44.000Z</time>
      </trkpt>
      <trkpt lat="44.99934" lon="6.033">
        <ele>1941</ele>
        <time>2021-03-21T09:22:45.000Z</time>
      </trkpt>
      <trkpt lat="44.99934" lon="6.033">
        <ele>1941</ele>
        <time>2021-03-21T09:22:46.000Z</time>
      </trkpt>
      <trkpt lat="44.99935" lon="6.03299">
        <ele>1941.1999511719</ele>
        <time>2021-03-21T09:22:47.000Z</time>
      </trkpt>
      <trkpt lat="44.99935" lon="6.03299">
        <ele>1941.1999511719</ele>
        <time>2021-03-21T09:22:48.000Z</time>
      </trkpt>
      <trkpt lat="44.99936" lon="6.03299">
        <ele>1941.4000244141</ele>
        <time>2021-03-21T09:22:49.000Z</time>
      </trkpt>
      <trkpt lat="44.99936" lon="6.03298">
        <ele>1941.4000244141</ele>
        <time>2021-03-21T09:22:50.000Z</time>
      </trkpt>
      <trkpt lat="44.99937" lon="6.03298">
        <ele>1941.8000488281</ele>
        <time>2021-03-21T09:22:51.000Z</time>
      </trkpt>
      <trkpt lat="44.99937" lon="6.03297">
        <ele>1942.1999511719</ele>
        <time>2021-03-21T09:22:52.000Z</time>
      </trkpt>
      <trkpt lat="44.99938" lon="6.03297">
        <ele>1942.5999755859</ele>
        <time>2021-03-21T09:22:53.000Z</time>
      </trkpt>
      <trkpt lat="44.99938" lon="6.03296">
        <ele>1942.8000488281</ele>
        <time>2021-03-21T09:22:54.000Z</time>
      </trkpt>
      <trkpt lat="44.99939" lon="6.03296">
        <ele>1943.1999511719</ele>
        <time>2021-03-21T09:22:55.000Z</time>
      </trkpt>
      <trkpt lat="44.99939" lon="6.03295">
        <ele>1943.4000244141</ele>
        <time>2021-03-21T09:22:56.000Z</time>
      </trkpt>
      <trkpt lat="44.9994" lon="6.03295">
        <ele>1943.8000488281</ele>
        <time>2021-03-21T09:22:57.000Z</time>
      </trkpt>
      <trkpt lat="44.99941" lon="6.03295">
        <ele>1944</ele>
        <time>2021-03-21T09:22:58.000Z</time>
      </trkpt>
      <trkpt lat="44.99941" lon="6.03295">
        <ele>1944.1999511719</ele>
        <time>2021-03-21T09:22:59.000Z</time>
      </trkpt>
      <trkpt lat="44.99941" lon="6.03294">
        <ele>1944.5999755859</ele>
        <time>2021-03-21T09:23:00.000Z</time>
      </trkpt>
      <trkpt lat="44.99942" lon="6.03294">
        <ele>1944.8000488281</ele>
        <time>2021-03-21T09:23:01.000Z</time>
      </trkpt>
      <trkpt lat="44.99942" lon="6.03294">
        <ele>1945</ele>
        <time>2021-03-21T09:23:02.000Z</time>
      </trkpt>
      <trkpt lat="44.99943" lon="6.03293">
        <ele>1945.1999511719</ele>
        <time>2021-03-21T09:23:03.000Z</time>
      </trkpt>
      <trkpt lat="44.99944" lon="6.03293">
        <ele>1945.5999755859</ele>
        <time>2021-03-21T09:23:04.000Z</time>
      </trkpt>
      <trkpt lat="44.99944" lon="6.03293">
        <ele>1946</ele>
        <time>2021-03-21T09:23:05.000Z</time>
      </trkpt>
      <trkpt lat="44.99945" lon="6.03292">
        <ele>1946.1999511719</ele>
        <time>2021-03-21T09:23:06.000Z</time>
      </trkpt>
      <trkpt lat="44.99945" lon="6.03292">
        <ele>1946.4000244141</ele>
        <time>2021-03-21T09:23:07.000Z</time>
      </trkpt>
      <trkpt lat="44.99946" lon="6.03292">
        <ele>1946.5999755859</ele>
        <time>2021-03-21T09:23:08.000Z</time>
      </trkpt>
      <trkpt lat="44.99946" lon="6.03292">
        <ele>1946.5999755859</ele>
        <time>2021-03-21T09:23:09.000Z</time>
      </trkpt>
      <trkpt lat="44.99947" lon="6.03292">
        <ele>1946.8000488281</ele>
        <time>2021-03-21T09:23:10.000Z</time>
      </trkpt>
      <trkpt lat="44.99948" lon="6.03291">
        <ele>1947.1999511719</ele>
        <time>2021-03-21T09:23:11.000Z</time>
      </trkpt>
      <trkpt lat="44.99949" lon="6.03291">
        <ele>1947.4000244141</ele>
        <time>2021-03-21T09:23:12.000Z</time>
      </trkpt>
      <trkpt lat="44.99949" lon="6.03291">
        <ele>1947.8000488281</ele>
        <time>2021-03-21T09:23:13.000Z</time>
      </trkpt>
      <trkpt lat="44.9995" lon="6.03291">
        <ele>1948</ele>
        <time>2021-03-21T09:23:14.000Z</time>
      </trkpt>
      <trkpt lat="44.9995" lon="6.03291">
        <ele>1948.1999511719</ele>
        <time>2021-03-21T09:23:15.000Z</time>
      </trkpt>
      <trkpt lat="44.99951" lon="6.0329">
        <ele>1948.5999755859</ele>
        <time>2021-03-21T09:23:16.000Z</time>
      </trkpt>
      <trkpt lat="44.99952" lon="6.0329">
        <ele>1948.8000488281</ele>
        <time>2021-03-21T09:23:17.000Z</time>
      </trkpt>
      <trkpt lat="44.99952" lon="6.0329">
        <ele>1949</ele>
        <time>2021-03-21T09:23:18.000Z</time>
      </trkpt>
      <trkpt lat="44.99953" lon="6.0329">
        <ele>1949.1999511719</ele>
        <time>2021-03-21T09:23:19.000Z</time>
      </trkpt>
      <trkpt lat="44.99953" lon="6.03289">
        <ele>1949.4000244141</ele>
        <time>2021-03-21T09:23:20.000Z</time>
      </trkpt>
      <trkpt lat="44.99954" lon="6.03289">
        <ele>1949.8000488281</ele>
        <time>2021-03-21T09:23:21.000Z</time>
      </trkpt>
      <trkpt lat="44.99954" lon="6.03289">
        <ele>1950</ele>
        <time>2021-03-21T09:23:22.000Z</time>
      </trkpt>
      <trkpt lat="44.99955" lon="6.03288">
        <ele>1950.4000244141</ele>
        <time>2021-03-21T09:23:23.000Z</time>
      </trkpt>
      <trkpt lat="44.99955" lon="6.03288">
        <ele>1950.5999755859</ele>
        <time>2021-03-21T09:23:24.000Z</time>
      </trkpt>
      <trkpt lat="44.99956" lon="6.03287">
        <ele>1951.1999511719</ele>
        <time>2021-03-21T09:23:25.000Z</time>
      </trkpt>
      <trkpt lat="44.99956" lon="6.03286">
        <ele>1951.4000244141</ele>
        <time>2021-03-21T09:23:26.000Z</time>
      </trkpt>
      <trkpt lat="44.99957" lon="6.03286">
        <ele>1951.8000488281</ele>
        <time>2021-03-21T09:23:27.000Z</time>
      </trkpt>
      <trkpt lat="44.99957" lon="6.03285">
        <ele>1952</ele>
        <time>2021-03-21T09:23:28.000Z</time>
      </trkpt>
      <trkpt lat="44.99958" lon="6.03285">
        <ele>1952.4000244141</ele>
        <time>2021-03-21T09:23:29.000Z</time>
      </trkpt>
      <trkpt lat="44.99958" lon="6.03284">
        <ele>1952.8000488281</ele>
        <time>2021-03-21T09:23:30.000Z</time>
      </trkpt>
      <trkpt lat="44.99959" lon="6.03284">
        <ele>1953</ele>
        <time>2021-03-21T09:23:31.000Z</time>
      </trkpt>
      <trkpt lat="44.99959" lon="6.03283">
        <ele>1953.4000244141</ele>
        <time>2021-03-21T09:23:32.000Z</time>
      </trkpt>
      <trkpt lat="44.99959" lon="6.03283">
        <ele>1953.5999755859</ele>
        <time>2021-03-21T09:23:33.000Z</time>
      </trkpt>
      <trkpt lat="44.9996" lon="6.03283">
        <ele>1953.8000488281</ele>
        <time>2021-03-21T09:23:34.000Z</time>
      </trkpt>
      <trkpt lat="44.9996" lon="6.03282">
        <ele>1954</ele>
        <time>2021-03-21T09:23:35.000Z</time>
      </trkpt>
      <trkpt lat="44.99961" lon="6.03282">
        <ele>1954.1999511719</ele>
        <time>2021-03-21T09:23:36.000Z</time>
      </trkpt>
      <trkpt lat="44.99961" lon="6.03281">
        <ele>1954.5999755859</ele>
        <time>2021-03-21T09:23:37.000Z</time>
      </trkpt>
      <trkpt lat="44.99962" lon="6.03281">
        <ele>1954.5999755859</ele>
        <time>2021-03-21T09:23:38.000Z</time>
      </trkpt>
      <trkpt lat="44.99962" lon="6.03281">
        <ele>1954.8000488281</ele>
        <time>2021-03-21T09:23:39.000Z</time>
      </trkpt>
      <trkpt lat="44.99963" lon="6.03281">
        <ele>1955</ele>
        <time>2021-03-21T09:23:40.000Z</time>
      </trkpt>
      <trkpt lat="44.99963" lon="6.0328">
        <ele>1955.1999511719</ele>
        <time>2021-03-21T09:23:41.000Z</time>
      </trkpt>
      <trkpt lat="44.99963" lon="6.0328">
        <ele>1955.4000244141</ele>
        <time>2021-03-21T09:23:42.000Z</time>
      </trkpt>
      <trkpt lat="44.99964" lon="6.03279">
        <ele>1955.5999755859</ele>
        <time>2021-03-21T09:23:43.000Z</time>
      </trkpt>
      <trkpt lat="44.99964" lon="6.03278">
        <ele>1956.1999511719</ele>
        <time>2021-03-21T09:23:44.000Z</time>
      </trkpt>
      <trkpt lat="44.99965" lon="6.03278">
        <ele>1956.4000244141</ele>
        <time>2021-03-21T09:23:45.000Z</time>
      </trkpt>
      <trkpt lat="44.99966" lon="6.03278">
        <ele>1956.5999755859</ele>
        <time>2021-03-21T09:23:46.000Z</time>
      </trkpt>
      <trkpt lat="44.99966" lon="6.03277">
        <ele>1956.5999755859</ele>
        <time>2021-03-21T09:23:47.000Z</time>
      </trkpt>
      <trkpt lat="44.99966" lon="6.03278">
        <ele>1956.5999755859</ele>
        <time>2021-03-21T09:23:48.000Z</time>
      </trkpt>
      <trkpt lat="44.99966" lon="6.03277">
        <ele>1956.8000488281</ele>
        <time>2021-03-21T09:23:49.000Z</time>
      </trkpt>
      <trkpt lat="44.99967" lon="6.03277">
        <ele>1957.1999511719</ele>
        <time>2021-03-21T09:23:50.000Z</time>
      </trkpt>
      <trkpt lat="44.99967" lon="6.03276">
        <ele>1957.4000244141</ele>
        <time>2021-03-21T09:23:51.000Z</time>
      </trkpt>
      <trkpt lat="44.99968" lon="6.03276">
        <ele>1957.5999755859</ele>
        <time>2021-03-21T09:23:52.000Z</time>
      </trkpt>
      <trkpt lat="44.99968" lon="6.03275">
        <ele>1958</ele>
        <time>2021-03-21T09:23:53.000Z</time>
      </trkpt>
      <trkpt lat="44.99969" lon="6.03275">
        <ele>1958.1999511719</ele>
        <time>2021-03-21T09:23:54.000Z</time>
      </trkpt>
      <trkpt lat="44.9997" lon="6.03274">
        <ele>1958.4000244141</ele>
        <time>2021-03-21T09:23:55.000Z</time>
      </trkpt>
      <trkpt lat="44.9997" lon="6.03274">
        <ele>1958.5999755859</ele>
        <time>2021-03-21T09:23:56.000Z</time>
      </trkpt>
      <trkpt lat="44.9997" lon="6.03274">
        <ele>1958.5999755859</ele>
        <time>2021-03-21T09:23:57.000Z</time>
      </trkpt>
      <trkpt lat="44.99971" lon="6.03273">
        <ele>1958.8000488281</ele>
        <time>2021-03-21T09:23:58.000Z</time>
      </trkpt>
      <trkpt lat="44.99971" lon="6.03273">
        <ele>1959</ele>
        <time>2021-03-21T09:23:59.000Z</time>
      </trkpt>
      <trkpt lat="44.99972" lon="6.03272">
        <ele>1959.1999511719</ele>
        <time>2021-03-21T09:24:00.000Z</time>
      </trkpt>
      <trkpt lat="44.99973" lon="6.03271">
        <ele>1959.4000244141</ele>
        <time>2021-03-21T09:24:01.000Z</time>
      </trkpt>
      <trkpt lat="44.99973" lon="6.03271">
        <ele>1959.5999755859</ele>
        <time>2021-03-21T09:24:02.000Z</time>
      </trkpt>
      <trkpt lat="44.99974" lon="6.0327">
        <ele>1959.8000488281</ele>
        <time>2021-03-21T09:24:03.000Z</time>
      </trkpt>
      <trkpt lat="44.99974" lon="6.0327">
        <ele>1960.1999511719</ele>
        <time>2021-03-21T09:24:04.000Z</time>
      </trkpt>
      <trkpt lat="44.99975" lon="6.03269">
        <ele>1960.1999511719</ele>
        <time>2021-03-21T09:24:05.000Z</time>
      </trkpt>
      <trkpt lat="44.99976" lon="6.03269">
        <ele>1960.5999755859</ele>
        <time>2021-03-21T09:24:06.000Z</time>
      </trkpt>
      <trkpt lat="44.99976" lon="6.03268">
        <ele>1960.8000488281</ele>
        <time>2021-03-21T09:24:07.000Z</time>
      </trkpt>
      <trkpt lat="44.99977" lon="6.03267">
        <ele>1961</ele>
        <time>2021-03-21T09:24:08.000Z</time>
      </trkpt>
      <trkpt lat="44.99977" lon="6.03267">
        <ele>1961.4000244141</ele>
        <time>2021-03-21T09:24:09.000Z</time>
      </trkpt>
      <trkpt lat="44.99977" lon="6.03266">
        <ele>1961.4000244141</ele>
        <time>2021-03-21T09:24:10.000Z</time>
      </trkpt>
      <trkpt lat="44.99978" lon="6.03266">
        <ele>1961.5999755859</ele>
        <time>2021-03-21T09:24:11.000Z</time>
      </trkpt>
      <trkpt lat="44.99978" lon="6.03265">
        <ele>1962</ele>
        <time>2021-03-21T09:24:12.000Z</time>
      </trkpt>
      <trkpt lat="44.99979" lon="6.03264">
        <ele>1962.1999511719</ele>
        <time>2021-03-21T09:24:13.000Z</time>
      </trkpt>
      <trkpt lat="44.99979" lon="6.03264">
        <ele>1962.4000244141</ele>
        <time>2021-03-21T09:24:14.000Z</time>
      </trkpt>
      <trkpt lat="44.9998" lon="6.03264">
        <ele>1962.8000488281</ele>
        <time>2021-03-21T09:24:15.000Z</time>
      </trkpt>
      <trkpt lat="44.9998" lon="6.03263">
        <ele>1963.4000244141</ele>
        <time>2021-03-21T09:24:16.000Z</time>
      </trkpt>
      <trkpt lat="44.99981" lon="6.03262">
        <ele>1963.8000488281</ele>
        <time>2021-03-21T09:24:17.000Z</time>
      </trkpt>
      <trkpt lat="44.99981" lon="6.03262">
        <ele>1964.1999511719</ele>
        <time>2021-03-21T09:24:18.000Z</time>
      </trkpt>
      <trkpt lat="44.99981" lon="6.03261">
        <ele>1964.4000244141</ele>
        <time>2021-03-21T09:24:19.000Z</time>
      </trkpt>
      <trkpt lat="44.99981" lon="6.0326">
        <ele>1965.4000244141</ele>
        <time>2021-03-21T09:24:20.000Z</time>
      </trkpt>
      <trkpt lat="44.99981" lon="6.03259">
        <ele>1965.8000488281</ele>
        <time>2021-03-21T09:24:21.000Z</time>
      </trkpt>
      <trkpt lat="44.99982" lon="6.03259">
        <ele>1966</ele>
        <time>2021-03-21T09:24:22.000Z</time>
      </trkpt>
      <trkpt lat="44.99982" lon="6.03258">
        <ele>1966.1999511719</ele>
        <time>2021-03-21T09:24:23.000Z</time>
      </trkpt>
      <trkpt lat="44.99983" lon="6.03258">
        <ele>1966.1999511719</ele>
        <time>2021-03-21T09:24:24.000Z</time>
      </trkpt>
      <trkpt lat="44.99983" lon="6.03258">
        <ele>1966.8000488281</ele>
        <time>2021-03-21T09:24:25.000Z</time>
      </trkpt>
      <trkpt lat="44.99983" lon="6.03258">
        <ele>1966.5999755859</ele>
        <time>2021-03-21T09:24:26.000Z</time>
      </trkpt>
      <trkpt lat="44.99984" lon="6.03257">
        <ele>1966.8000488281</ele>
        <time>2021-03-21T09:24:27.000Z</time>
      </trkpt>
      <trkpt lat="44.99984" lon="6.03257">
        <ele>1967.1999511719</ele>
        <time>2021-03-21T09:24:28.000Z</time>
      </trkpt>
      <trkpt lat="44.99984" lon="6.03256">
        <ele>1967.5999755859</ele>
        <time>2021-03-21T09:24:29.000Z</time>
      </trkpt>
      <trkpt lat="44.99984" lon="6.03256">
        <ele>1968</ele>
        <time>2021-03-21T09:24:30.000Z</time>
      </trkpt>
      <trkpt lat="44.99985" lon="6.03255">
        <ele>1968.4000244141</ele>
        <time>2021-03-21T09:24:31.000Z</time>
      </trkpt>
      <trkpt lat="44.99985" lon="6.03255">
        <ele>1968.5999755859</ele>
        <time>2021-03-21T09:24:32.000Z</time>
      </trkpt>
      <trkpt lat="44.99986" lon="6.03254">
        <ele>1969</ele>
        <time>2021-03-21T09:24:33.000Z</time>
      </trkpt>
      <trkpt lat="44.99986" lon="6.03254">
        <ele>1969</ele>
        <time>2021-03-21T09:24:34.000Z</time>
      </trkpt>
      <trkpt lat="44.99987" lon="6.03254">
        <ele>1969.1999511719</ele>
        <time>2021-03-21T09:24:35.000Z</time>
      </trkpt>
      <trkpt lat="44.99987" lon="6.03253">
        <ele>1969.4000244141</ele>
        <time>2021-03-21T09:24:36.000Z</time>
      </trkpt>
      <trkpt lat="44.99987" lon="6.03253">
        <ele>1969.4000244141</ele>
        <time>2021-03-21T09:24:37.000Z</time>
      </trkpt>
      <trkpt lat="44.99988" lon="6.03254">
        <ele>1969.4000244141</ele>
        <time>2021-03-21T09:24:38.000Z</time>
      </trkpt>
      <trkpt lat="44.99988" lon="6.03254">
        <ele>1969</ele>
        <time>2021-03-21T09:24:39.000Z</time>
      </trkpt>
      <trkpt lat="44.99989" lon="6.03254">
        <ele>1968.8000488281</ele>
        <time>2021-03-21T09:24:40.000Z</time>
      </trkpt>
      <trkpt lat="44.99989" lon="6.03254">
        <ele>1969</ele>
        <time>2021-03-21T09:24:41.000Z</time>
      </trkpt>
      <trkpt lat="44.99989" lon="6.03254">
        <ele>1969</ele>
        <time>2021-03-21T09:24:42.000Z</time>
      </trkpt>
      <trkpt lat="44.99989" lon="6.03255">
        <ele>1968.8000488281</ele>
        <time>2021-03-21T09:24:43.000Z</time>
      </trkpt>
      <trkpt lat="44.99988" lon="6.03255">
        <ele>1968.8000488281</ele>
        <time>2021-03-21T09:24:44.000Z</time>
      </trkpt>
      <trkpt lat="44.99988" lon="6.03255">
        <ele>1968.8000488281</ele>
        <time>2021-03-21T09:24:45.000Z</time>
      </trkpt>
      <trkpt lat="44.99988" lon="6.03254">
        <ele>1968.8000488281</ele>
        <time>2021-03-21T09:24:46.000Z</time>
      </trkpt>
      <trkpt lat="44.99988" lon="6.03255">
        <ele>1968.5999755859</ele>
        <time>2021-03-21T09:24:47.000Z</time>
      </trkpt>
      <trkpt lat="44.99987" lon="6.03254">
        <ele>1968.8000488281</ele>
        <time>2021-03-21T09:24:48.000Z</time>
      </trkpt>
      <trkpt lat="44.99986" lon="6.03254">
        <ele>1969</ele>
        <time>2021-03-21T09:24:49.000Z</time>
      </trkpt>
      <trkpt lat="44.99986" lon="6.03254">
        <ele>1969</ele>
        <time>2021-03-21T09:24:50.000Z</time>
      </trkpt>
      <trkpt lat="44.99986" lon="6.03254">
        <ele>1969.1999511719</ele>
        <time>2021-03-21T09:24:51.000Z</time>
      </trkpt>
      <trkpt lat="44.99985" lon="6.03254">
        <ele>1969</ele>
        <time>2021-03-21T09:24:52.000Z</time>
      </trkpt>
      <trkpt lat="44.99985" lon="6.03254">
        <ele>1969.1999511719</ele>
        <time>2021-03-21T09:24:53.000Z</time>
      </trkpt>
      <trkpt lat="44.99984" lon="6.03254">
        <ele>1969.1999511719</ele>
        <time>2021-03-21T09:24:54.000Z</time>
      </trkpt>
      <trkpt lat="44.99984" lon="6.03254">
        <ele>1969.4000244141</ele>
        <time>2021-03-21T09:24:55.000Z</time>
      </trkpt>
      <trkpt lat="44.99984" lon="6.03253">
        <ele>1969.5999755859</ele>
        <time>2021-03-21T09:24:56.000Z</time>
      </trkpt>
      <trkpt lat="44.99983" lon="6.03253">
        <ele>1969.4000244141</ele>
        <time>2021-03-21T09:24:57.000Z</time>
      </trkpt>
      <trkpt lat="44.99983" lon="6.03253">
        <ele>1969.4000244141</ele>
        <time>2021-03-21T09:24:58.000Z</time>
      </trkpt>
      <trkpt lat="44.99983" lon="6.03254">
        <ele>1969.1999511719</ele>
        <time>2021-03-21T09:24:59.000Z</time>
      </trkpt>
      <trkpt lat="44.99983" lon="6.03254">
        <ele>1969.1999511719</ele>
        <time>2021-03-21T09:25:00.000Z</time>
      </trkpt>
      <trkpt lat="44.99983" lon="6.03254">
        <ele>1969</ele>
        <time>2021-03-21T09:25:01.000Z</time>
      </trkpt>
      <trkpt lat="44.99983" lon="6.03254">
        <ele>1969</ele>
        <time>2021-03-21T09:25:02.000Z</time>
      </trkpt>
      <trkpt lat="44.99983" lon="6.03254">
        <ele>1969</ele>
        <time>2021-03-21T09:25:03.000Z</time>
      </trkpt>
      <trkpt lat="44.99983" lon="6.03254">
        <ele>1969</ele>
        <time>2021-03-21T09:25:04.000Z</time>
      </trkpt>
      <trkpt lat="44.99983" lon="6.03254">
        <ele>1968.8000488281</ele>
        <time>2021-03-21T09:25:05.000Z</time>
      </trkpt>
      <trkpt lat="44.99983" lon="6.03254">
        <ele>1968.8000488281</ele>
        <time>2021-03-21T09:25:06.000Z</time>
      </trkpt>
      <trkpt lat="44.99983" lon="6.03254">
        <ele>1968.8000488281</ele>
        <time>2021-03-21T09:25:07.000Z</time>
      </trkpt>
      <trkpt lat="44.99983" lon="6.03255">
        <ele>1968.5999755859</ele>
        <time>2021-03-21T09:25:08.000Z</time>
      </trkpt>
      <trkpt lat="44.99982" lon="6.03255">
        <ele>1968.5999755859</ele>
        <time>2021-03-21T09:25:09.000Z</time>
      </trkpt>
      <trkpt lat="44.99982" lon="6.03254">
        <ele>1968.8000488281</ele>
        <time>2021-03-21T09:25:10.000Z</time>
      </trkpt>
      <trkpt lat="44.99982" lon="6.03254">
        <ele>1968.8000488281</ele>
        <time>2021-03-21T09:25:11.000Z</time>
      </trkpt>
      <trkpt lat="44.99982" lon="6.03254">
        <ele>1968.8000488281</ele>
        <time>2021-03-21T09:25:12.000Z</time>
      </trkpt>
      <trkpt lat="44.99982" lon="6.03254">
        <ele>1968.8000488281</ele>
        <time>2021-03-21T09:25:13.000Z</time>
      </trkpt>
      <trkpt lat="44.99982" lon="6.03255">
        <ele>1968.5999755859</ele>
        <time>2021-03-21T09:25:14.000Z</time>
      </trkpt>
      <trkpt lat="44.99982" lon="6.03255">
        <ele>1968.5999755859</ele>
        <time>2021-03-21T09:25:15.000Z</time>
      </trkpt>
      <trkpt lat="44.99982" lon="6.03255">
        <ele>1968.5999755859</ele>
        <time>2021-03-21T09:25:16.000Z</time>
      </trkpt>
      <trkpt lat="44.99982" lon="6.03255">
        <ele>1968.5999755859</ele>
        <time>2021-03-21T09:25:17.000Z</time>
      </trkpt>
      <trkpt lat="44.99982" lon="6.03255">
        <ele>1968.5999755859</ele>
        <time>2021-03-21T09:25:18.000Z</time>
      </trkpt>
      <trkpt lat="44.99982" lon="6.03255">
        <ele>1968.5999755859</ele>
        <time>2021-03-21T09:25:19.000Z</time>
      </trkpt>
      <trkpt lat="44.99982" lon="6.03255">
        <ele>1968.4000244141</ele>
        <time>2021-03-21T09:25:20.000Z</time>
      </trkpt>
      <trkpt lat="44.99982" lon="6.03255">
        <ele>1968.4000244141</ele>
        <time>2021-03-21T09:25:21.000Z</time>
      </trkpt>
      <trkpt lat="44.99982" lon="6.03255">
        <ele>1968.4000244141</ele>
        <time>2021-03-21T09:25:22.000Z</time>
      </trkpt>
      <trkpt lat="44.99982" lon="6.03255">
        <ele>1968.4000244141</ele>
        <time>2021-03-21T09:25:23.000Z</time>
      </trkpt>
      <trkpt lat="44.99982" lon="6.03255">
        <ele>1968.4000244141</ele>
        <time>2021-03-21T09:25:24.000Z</time>
      </trkpt>
      <trkpt lat="44.99982" lon="6.03255">
        <ele>1968.4000244141</ele>
        <time>2021-03-21T09:25:25.000Z</time>
      </trkpt>
      <trkpt lat="44.99982" lon="6.03255">
        <ele>1968.4000244141</ele>
        <time>2021-03-21T09:25:26.000Z</time>
      </trkpt>
      <trkpt lat="44.99982" lon="6.03255">
        <ele>1968.4000244141</ele>
        <time>2021-03-21T09:25:27.000Z</time>
      </trkpt>
      <trkpt lat="44.99982" lon="6.03255">
        <ele>1968.4000244141</ele>
        <time>2021-03-21T09:25:28.000Z</time>
      </trkpt>
      <trkpt lat="44.99982" lon="6.03255">
        <ele>1968.1999511719</ele>
        <time>2021-03-21T09:25:29.000Z</time>
      </trkpt>
      <trkpt lat="44.99982" lon="6.03255">
        <ele>1968.1999511719</ele>
        <time>2021-03-21T09:25:30.000Z</time>
      </trkpt>
      <trkpt lat="44.99982" lon="6.03255">
        <ele>1968.1999511719</ele>
        <time>2021-03-21T09:25:31.000Z</time>
      </trkpt>
      <trkpt lat="44.99982" lon="6.03255">
        <ele>1968.4000244141</ele>
        <time>2021-03-21T09:25:32.000Z</time>
      </trkpt>
      <trkpt lat="44.99982" lon="6.03255">
        <ele>1968.5999755859</ele>
        <time>2021-03-21T09:25:33.000Z</time>
      </trkpt>
      <trkpt lat="44.99982" lon="6.03254">
        <ele>1968.8000488281</ele>
        <time>2021-03-21T09:25:34.000Z</time>
      </trkpt>
      <trkpt lat="44.99982" lon="6.03254">
        <ele>1969</ele>
        <time>2021-03-21T09:25:35.000Z</time>
      </trkpt>
      <trkpt lat="44.99982" lon="6.03254">
        <ele>1969.4000244141</ele>
        <time>2021-03-21T09:25:36.000Z</time>
      </trkpt>
      <trkpt lat="44.99982" lon="6.03254">
        <ele>1969.4000244141</ele>
        <time>2021-03-21T09:25:37.000Z</time>
      </trkpt>
      <trkpt lat="44.99982" lon="6.03253">
        <ele>1969.4000244141</ele>
        <time>2021-03-21T09:25:38.000Z</time>
      </trkpt>
      <trkpt lat="44.99982" lon="6.03253">
        <ele>1969.4000244141</ele>
        <time>2021-03-21T09:25:39.000Z</time>
      </trkpt>
      <trkpt lat="44.99982" lon="6.03254">
        <ele>1969.4000244141</ele>
        <time>2021-03-21T09:25:40.000Z</time>
      </trkpt>
      <trkpt lat="44.99982" lon="6.03254">
        <ele>1969.1999511719</ele>
        <time>2021-03-21T09:25:41.000Z</time>
      </trkpt>
      <trkpt lat="44.99982" lon="6.03254">
        <ele>1969.1999511719</ele>
        <time>2021-03-21T09:25:42.000Z</time>
      </trkpt>
      <trkpt lat="44.99982" lon="6.03254">
        <ele>1969</ele>
        <time>2021-03-21T09:25:43.000Z</time>
      </trkpt>
      <trkpt lat="44.99982" lon="6.03255">
        <ele>1968.5999755859</ele>
        <time>2021-03-21T09:25:44.000Z</time>
      </trkpt>
      <trkpt lat="44.99982" lon="6.03255">
        <ele>1968.5999755859</ele>
        <time>2021-03-21T09:25:45.000Z</time>
      </trkpt>
      <trkpt lat="44.99982" lon="6.03255">
        <ele>1968.4000244141</ele>
        <time>2021-03-21T09:25:46.000Z</time>
      </trkpt>
      <trkpt lat="44.99981" lon="6.03255">
        <ele>1968.4000244141</ele>
        <time>2021-03-21T09:25:47.000Z</time>
      </trkpt>
      <trkpt lat="44.99981" lon="6.03255">
        <ele>1968.5999755859</ele>
        <time>2021-03-21T09:25:48.000Z</time>
      </trkpt>
      <trkpt lat="44.99981" lon="6.03255">
        <ele>1968.5999755859</ele>
        <time>2021-03-21T09:25:49.000Z</time>
      </trkpt>
      <trkpt lat="44.99981" lon="6.03254">
        <ele>1968.8000488281</ele>
        <time>2021-03-21T09:25:50.000Z</time>
      </trkpt>
      <trkpt lat="44.99982" lon="6.03255">
        <ele>1968.5999755859</ele>
        <time>2021-03-21T09:25:51.000Z</time>
      </trkpt>
      <trkpt lat="44.99982" lon="6.03254">
        <ele>1968.8000488281</ele>
        <time>2021-03-21T09:25:52.000Z</time>
      </trkpt>
      <trkpt lat="44.99982" lon="6.03254">
        <ele>1969</ele>
        <time>2021-03-21T09:25:53.000Z</time>
      </trkpt>
      <trkpt lat="44.99982" lon="6.03254">
        <ele>1969.1999511719</ele>
        <time>2021-03-21T09:25:54.000Z</time>
      </trkpt>
      <trkpt lat="44.99982" lon="6.03254">
        <ele>1969.1999511719</ele>
        <time>2021-03-21T09:25:55.000Z</time>
      </trkpt>
      <trkpt lat="44.99983" lon="6.03254">
        <ele>1969.1999511719</ele>
        <time>2021-03-21T09:25:56.000Z</time>
      </trkpt>
      <trkpt lat="44.99983" lon="6.03254">
        <ele>1969.4000244141</ele>
        <time>2021-03-21T09:25:57.000Z</time>
      </trkpt>
      <trkpt lat="44.99983" lon="6.03253">
        <ele>1969.4000244141</ele>
        <time>2021-03-21T09:25:58.000Z</time>
      </trkpt>
      <trkpt lat="44.99983" lon="6.03253">
        <ele>1969.4000244141</ele>
        <time>2021-03-21T09:25:59.000Z</time>
      </trkpt>
      <trkpt lat="44.99983" lon="6.03253">
        <ele>1969.8000488281</ele>
        <time>2021-03-21T09:26:00.000Z</time>
      </trkpt>
      <trkpt lat="44.99983" lon="6.03253">
        <ele>1970</ele>
        <time>2021-03-21T09:26:01.000Z</time>
      </trkpt>
      <trkpt lat="44.99983" lon="6.03253">
        <ele>1969.8000488281</ele>
        <time>2021-03-21T09:26:02.000Z</time>
      </trkpt>
      <trkpt lat="44.99983" lon="6.03253">
        <ele>1969.8000488281</ele>
        <time>2021-03-21T09:26:03.000Z</time>
      </trkpt>
      <trkpt lat="44.99983" lon="6.03253">
        <ele>1969.8000488281</ele>
        <time>2021-03-21T09:26:04.000Z</time>
      </trkpt>
      <trkpt lat="44.99983" lon="6.03253">
        <ele>1970</ele>
        <time>2021-03-21T09:26:05.000Z</time>
      </trkpt>
      <trkpt lat="44.99983" lon="6.03253">
        <ele>1970</ele>
        <time>2021-03-21T09:26:06.000Z</time>
      </trkpt>
      <trkpt lat="44.99983" lon="6.03252">
        <ele>1970</ele>
        <time>2021-03-21T09:26:07.000Z</time>
      </trkpt>
      <trkpt lat="44.99984" lon="6.03252">
        <ele>1970</ele>
        <time>2021-03-21T09:26:08.000Z</time>
      </trkpt>
      <trkpt lat="44.99983" lon="6.03252">
        <ele>1970</ele>
        <time>2021-03-21T09:26:09.000Z</time>
      </trkpt>
      <trkpt lat="44.99983" lon="6.03252">
        <ele>1970</ele>
        <time>2021-03-21T09:26:10.000Z</time>
      </trkpt>
      <trkpt lat="44.99983" lon="6.03252">
        <ele>1970</ele>
        <time>2021-03-21T09:26:11.000Z</time>
      </trkpt>
      <trkpt lat="44.99983" lon="6.03252">
        <ele>1970</ele>
        <time>2021-03-21T09:26:12.000Z</time>
      </trkpt>
      <trkpt lat="44.99983" lon="6.03253">
        <ele>1969.5999755859</ele>
        <time>2021-03-21T09:26:13.000Z</time>
      </trkpt>
      <trkpt lat="44.99983" lon="6.03253">
        <ele>1969.4000244141</ele>
        <time>2021-03-21T09:26:14.000Z</time>
      </trkpt>
      <trkpt lat="44.99983" lon="6.03253">
        <ele>1969.4000244141</ele>
        <time>2021-03-21T09:26:15.000Z</time>
      </trkpt>
      <trkpt lat="44.99983" lon="6.03253">
        <ele>1969.4000244141</ele>
        <time>2021-03-21T09:26:16.000Z</time>
      </trkpt>
      <trkpt lat="44.99983" lon="6.03254">
        <ele>1969.1999511719</ele>
        <time>2021-03-21T09:26:17.000Z</time>
      </trkpt>
      <trkpt lat="44.99983" lon="6.03254">
        <ele>1969</ele>
        <time>2021-03-21T09:26:18.000Z</time>
      </trkpt>
      <trkpt lat="44.99983" lon="6.03254">
        <ele>1969</ele>
        <time>2021-03-21T09:26:19.000Z</time>
      </trkpt>
      <trkpt lat="44.99983" lon="6.03254">
        <ele>1969</ele>
        <time>2021-03-21T09:26:20.000Z</time>
      </trkpt>
      <trkpt lat="44.99983" lon="6.03254">
        <ele>1969</ele>
        <time>2021-03-21T09:26:21.000Z</time>
      </trkpt>
      <trkpt lat="44.99982" lon="6.03254">
        <ele>1969</ele>
        <time>2021-03-21T09:26:22.000Z</time>
      </trkpt>
      <trkpt lat="44.99982" lon="6.03254">
        <ele>1968.8000488281</ele>
        <time>2021-03-21T09:26:23.000Z</time>
      </trkpt>
      <trkpt lat="44.99982" lon="6.03254">
        <ele>1968.8000488281</ele>
        <time>2021-03-21T09:26:24.000Z</time>
      </trkpt>
      <trkpt lat="44.99982" lon="6.03255">
        <ele>1968.5999755859</ele>
        <time>2021-03-21T09:26:25.000Z</time>
      </trkpt>
      <trkpt lat="44.99982" lon="6.03255">
        <ele>1968.5999755859</ele>
        <time>2021-03-21T09:26:26.000Z</time>
      </trkpt>
      <trkpt lat="44.99982" lon="6.03255">
        <ele>1968.5999755859</ele>
        <time>2021-03-21T09:26:27.000Z</time>
      </trkpt>
      <trkpt lat="44.99982" lon="6.03254">
        <ele>1969</ele>
        <time>2021-03-21T09:26:28.000Z</time>
      </trkpt>
      <trkpt lat="44.99982" lon="6.03254">
        <ele>1968.8000488281</ele>
        <time>2021-03-21T09:26:29.000Z</time>
      </trkpt>
      <trkpt lat="44.99982" lon="6.03254">
        <ele>1969</ele>
        <time>2021-03-21T09:26:30.000Z</time>
      </trkpt>
      <trkpt lat="44.99983" lon="6.03254">
        <ele>1969</ele>
        <time>2021-03-21T09:26:31.000Z</time>
      </trkpt>
      <trkpt lat="44.99983" lon="6.03254">
        <ele>1969.1999511719</ele>
        <time>2021-03-21T09:26:32.000Z</time>
      </trkpt>
      <trkpt lat="44.99982" lon="6.03254">
        <ele>1969.4000244141</ele>
        <time>2021-03-21T09:26:33.000Z</time>
      </trkpt>
      <trkpt lat="44.99983" lon="6.03254">
        <ele>1969.4000244141</ele>
        <time>2021-03-21T09:26:34.000Z</time>
      </trkpt>
      <trkpt lat="44.99982" lon="6.03254">
        <ele>1969</ele>
        <time>2021-03-21T09:26:35.000Z</time>
      </trkpt>
      <trkpt lat="44.99982" lon="6.03254">
        <ele>1969</ele>
        <time>2021-03-21T09:26:36.000Z</time>
      </trkpt>
      <trkpt lat="44.99981" lon="6.03254">
        <ele>1969</ele>
        <time>2021-03-21T09:26:37.000Z</time>
      </trkpt>
      <trkpt lat="44.99981" lon="6.03254">
        <ele>1968.8000488281</ele>
        <time>2021-03-21T09:26:38.000Z</time>
      </trkpt>
      <trkpt lat="44.9998" lon="6.03254">
        <ele>1968.8000488281</ele>
        <time>2021-03-21T09:26:39.000Z</time>
      </trkpt>
      <trkpt lat="44.9998" lon="6.03254">
        <ele>1969.1999511719</ele>
        <time>2021-03-21T09:26:40.000Z</time>
      </trkpt>
      <trkpt lat="44.99979" lon="6.03254">
        <ele>1969.4000244141</ele>
        <time>2021-03-21T09:26:41.000Z</time>
      </trkpt>
      <trkpt lat="44.99978" lon="6.03254">
        <ele>1969.1999511719</ele>
        <time>2021-03-21T09:26:42.000Z</time>
      </trkpt>
      <trkpt lat="44.99977" lon="6.03254">
        <ele>1969.1999511719</ele>
        <time>2021-03-21T09:26:43.000Z</time>
      </trkpt>
      <trkpt lat="44.99977" lon="6.03254">
        <ele>1969.4000244141</ele>
        <time>2021-03-21T09:26:44.000Z</time>
      </trkpt>
      <trkpt lat="44.99976" lon="6.03253">
        <ele>1969.4000244141</ele>
        <time>2021-03-21T09:26:45.000Z</time>
      </trkpt>
      <trkpt lat="44.99975" lon="6.03253">
        <ele>1969.4000244141</ele>
        <time>2021-03-21T09:26:46.000Z</time>
      </trkpt>
      <trkpt lat="44.99975" lon="6.03253">
        <ele>1969.5999755859</ele>
        <time>2021-03-21T09:26:47.000Z</time>
      </trkpt>
      <trkpt lat="44.99975" lon="6.03253">
        <ele>1969.4000244141</ele>
        <time>2021-03-21T09:26:48.000Z</time>
      </trkpt>
      <trkpt lat="44.99974" lon="6.03253">
        <ele>1969.5999755859</ele>
        <time>2021-03-21T09:26:49.000Z</time>
      </trkpt>
      <trkpt lat="44.99974" lon="6.03253">
        <ele>1969.8000488281</ele>
        <time>2021-03-21T09:26:50.000Z</time>
      </trkpt>
      <trkpt lat="44.99973" lon="6.03253">
        <ele>1969.8000488281</ele>
        <time>2021-03-21T09:26:51.000Z</time>
      </trkpt>
      <trkpt lat="44.99973" lon="6.03253">
        <ele>1969.8000488281</ele>
        <time>2021-03-21T09:26:52.000Z</time>
      </trkpt>
      <trkpt lat="44.99972" lon="6.03253">
        <ele>1969.8000488281</ele>
        <time>2021-03-21T09:26:53.000Z</time>
      </trkpt>
      <trkpt lat="44.99972" lon="6.03253">
        <ele>1969.5999755859</ele>
        <time>2021-03-21T09:26:54.000Z</time>
      </trkpt>
      <trkpt lat="44.99972" lon="6.03253">
        <ele>1969.8000488281</ele>
        <time>2021-03-21T09:26:55.000Z</time>
      </trkpt>
      <trkpt lat="44.99971" lon="6.03253">
        <ele>1969.8000488281</ele>
        <time>2021-03-21T09:26:56.000Z</time>
      </trkpt>
      <trkpt lat="44.99971" lon="6.03253">
        <ele>1969.8000488281</ele>
        <time>2021-03-21T09:26:57.000Z</time>
      </trkpt>
      <trkpt lat="44.99971" lon="6.03252">
        <ele>1970.1999511719</ele>
        <time>2021-03-21T09:26:58.000Z</time>
      </trkpt>
      <trkpt lat="44.99971" lon="6.03252">
        <ele>1970</ele>
        <time>2021-03-21T09:26:59.000Z</time>
      </trkpt>
      <trkpt lat="44.99971" lon="6.03252">
        <ele>1970.4000244141</ele>
        <time>2021-03-21T09:27:00.000Z</time>
      </trkpt>
      <trkpt lat="44.99971" lon="6.03252">
        <ele>1970.5999755859</ele>
        <time>2021-03-21T09:27:01.000Z</time>
      </trkpt>
      <trkpt lat="44.99971" lon="6.03252">
        <ele>1970.5999755859</ele>
        <time>2021-03-21T09:27:02.000Z</time>
      </trkpt>
      <trkpt lat="44.99971" lon="6.03252">
        <ele>1970.5999755859</ele>
        <time>2021-03-21T09:27:03.000Z</time>
      </trkpt>
      <trkpt lat="44.9997" lon="6.03252">
        <ele>1970.5999755859</ele>
        <time>2021-03-21T09:27:04.000Z</time>
      </trkpt>
      <trkpt lat="44.9997" lon="6.03251">
        <ele>1970.5999755859</ele>
        <time>2021-03-21T09:27:05.000Z</time>
      </trkpt>
      <trkpt lat="44.9997" lon="6.03251">
        <ele>1970.8000488281</ele>
        <time>2021-03-21T09:27:06.000Z</time>
      </trkpt>
      <trkpt lat="44.9997" lon="6.03251">
        <ele>1970.8000488281</ele>
        <time>2021-03-21T09:27:07.000Z</time>
      </trkpt>
      <trkpt lat="44.99971" lon="6.03251">
        <ele>1970.8000488281</ele>
        <time>2021-03-21T09:27:08.000Z</time>
      </trkpt>
      <trkpt lat="44.99971" lon="6.03251">
        <ele>1970.8000488281</ele>
        <time>2021-03-21T09:27:09.000Z</time>
      </trkpt>
      <trkpt lat="44.99971" lon="6.03252">
        <ele>1970.4000244141</ele>
        <time>2021-03-21T09:27:10.000Z</time>
      </trkpt>
      <trkpt lat="44.99971" lon="6.03252">
        <ele>1970.4000244141</ele>
        <time>2021-03-21T09:27:11.000Z</time>
      </trkpt>
      <trkpt lat="44.99971" lon="6.03252">
        <ele>1970.5999755859</ele>
        <time>2021-03-21T09:27:12.000Z</time>
      </trkpt>
      <trkpt lat="44.99971" lon="6.03252">
        <ele>1970.4000244141</ele>
        <time>2021-03-21T09:27:13.000Z</time>
      </trkpt>
      <trkpt lat="44.99971" lon="6.03252">
        <ele>1970.5999755859</ele>
        <time>2021-03-21T09:27:14.000Z</time>
      </trkpt>
      <trkpt lat="44.99971" lon="6.03251">
        <ele>1970.8000488281</ele>
        <time>2021-03-21T09:27:15.000Z</time>
      </trkpt>
      <trkpt lat="44.99971" lon="6.03251">
        <ele>1970.8000488281</ele>
        <time>2021-03-21T09:27:16.000Z</time>
      </trkpt>
      <trkpt lat="44.9997" lon="6.03251">
        <ele>1970.8000488281</ele>
        <time>2021-03-21T09:27:17.000Z</time>
      </trkpt>
      <trkpt lat="44.9997" lon="6.03251">
        <ele>1970.8000488281</ele>
        <time>2021-03-21T09:27:18.000Z</time>
      </trkpt>
      <trkpt lat="44.9997" lon="6.03251">
        <ele>1971</ele>
        <time>2021-03-21T09:27:19.000Z</time>
      </trkpt>
      <trkpt lat="44.9997" lon="6.03251">
        <ele>1971.1999511719</ele>
        <time>2021-03-21T09:27:20.000Z</time>
      </trkpt>
      <trkpt lat="44.9997" lon="6.03251">
        <ele>1971.1999511719</ele>
        <time>2021-03-21T09:27:21.000Z</time>
      </trkpt>
      <trkpt lat="44.9997" lon="6.03251">
        <ele>1971.1999511719</ele>
        <time>2021-03-21T09:27:22.000Z</time>
      </trkpt>
      <trkpt lat="44.9997" lon="6.03251">
        <ele>1971.1999511719</ele>
        <time>2021-03-21T09:27:23.000Z</time>
      </trkpt>
      <trkpt lat="44.99969" lon="6.03251">
        <ele>1971.1999511719</ele>
        <time>2021-03-21T09:27:24.000Z</time>
      </trkpt>
      <trkpt lat="44.99969" lon="6.03251">
        <ele>1971.1999511719</ele>
        <time>2021-03-21T09:27:25.000Z</time>
      </trkpt>
      <trkpt lat="44.99969" lon="6.03251">
        <ele>1970.8000488281</ele>
        <time>2021-03-21T09:27:26.000Z</time>
      </trkpt>
      <trkpt lat="44.99969" lon="6.03251">
        <ele>1971</ele>
        <time>2021-03-21T09:27:27.000Z</time>
      </trkpt>
      <trkpt lat="44.99969" lon="6.03251">
        <ele>1970.8000488281</ele>
        <time>2021-03-21T09:27:28.000Z</time>
      </trkpt>
      <trkpt lat="44.99969" lon="6.03251">
        <ele>1970.8000488281</ele>
        <time>2021-03-21T09:27:29.000Z</time>
      </trkpt>
      <trkpt lat="44.99969" lon="6.03251">
        <ele>1970.5999755859</ele>
        <time>2021-03-21T09:27:30.000Z</time>
      </trkpt>
      <trkpt lat="44.99969" lon="6.03251">
        <ele>1970.5999755859</ele>
        <time>2021-03-21T09:27:31.000Z</time>
      </trkpt>
      <trkpt lat="44.99968" lon="6.03251">
        <ele>1970.5999755859</ele>
        <time>2021-03-21T09:27:32.000Z</time>
      </trkpt>
      <trkpt lat="44.99968" lon="6.03252">
        <ele>1970.5999755859</ele>
        <time>2021-03-21T09:27:33.000Z</time>
      </trkpt>
      <trkpt lat="44.99968" lon="6.03252">
        <ele>1970.4000244141</ele>
        <time>2021-03-21T09:27:34.000Z</time>
      </trkpt>
      <trkpt lat="44.99968" lon="6.03252">
        <ele>1970.1999511719</ele>
        <time>2021-03-21T09:27:35.000Z</time>
      </trkpt>
      <trkpt lat="44.99968" lon="6.03252">
        <ele>1970.1999511719</ele>
        <time>2021-03-21T09:27:36.000Z</time>
      </trkpt>
      <trkpt lat="44.99968" lon="6.03252">
        <ele>1970.1999511719</ele>
        <time>2021-03-21T09:27:37.000Z</time>
      </trkpt>
      <trkpt lat="44.99968" lon="6.03252">
        <ele>1970.1999511719</ele>
        <time>2021-03-21T09:27:38.000Z</time>
      </trkpt>
      <trkpt lat="44.99968" lon="6.03252">
        <ele>1970.1999511719</ele>
        <time>2021-03-21T09:27:39.000Z</time>
      </trkpt>
      <trkpt lat="44.99968" lon="6.03252">
        <ele>1970.1999511719</ele>
        <time>2021-03-21T09:27:40.000Z</time>
      </trkpt>
      <trkpt lat="44.99968" lon="6.03252">
        <ele>1970.4000244141</ele>
        <time>2021-03-21T09:27:41.000Z</time>
      </trkpt>
      <trkpt lat="44.99968" lon="6.03251">
        <ele>1970.5999755859</ele>
        <time>2021-03-21T09:27:42.000Z</time>
      </trkpt>
      <trkpt lat="44.99967" lon="6.03251">
        <ele>1970.8000488281</ele>
        <time>2021-03-21T09:27:43.000Z</time>
      </trkpt>
      <trkpt lat="44.99967" lon="6.03252">
        <ele>1970.5999755859</ele>
        <time>2021-03-21T09:27:44.000Z</time>
      </trkpt>
      <trkpt lat="44.99967" lon="6.03252">
        <ele>1970.5999755859</ele>
        <time>2021-03-21T09:27:45.000Z</time>
      </trkpt>
      <trkpt lat="44.99967" lon="6.03252">
        <ele>1970.5999755859</ele>
        <time>2021-03-21T09:27:46.000Z</time>
      </trkpt>
      <trkpt lat="44.99966" lon="6.03252">
        <ele>1970.5999755859</ele>
        <time>2021-03-21T09:27:47.000Z</time>
      </trkpt>
      <trkpt lat="44.99966" lon="6.03252">
        <ele>1970.5999755859</ele>
        <time>2021-03-21T09:27:48.000Z</time>
      </trkpt>
      <trkpt lat="44.99965" lon="6.03251">
        <ele>1970.5999755859</ele>
        <time>2021-03-21T09:27:49.000Z</time>
      </trkpt>
      <trkpt lat="44.99965" lon="6.03252">
        <ele>1970.5999755859</ele>
        <time>2021-03-21T09:27:50.000Z</time>
      </trkpt>
      <trkpt lat="44.99964" lon="6.03252">
        <ele>1970.4000244141</ele>
        <time>2021-03-21T09:27:51.000Z</time>
      </trkpt>
      <trkpt lat="44.99963" lon="6.03252">
        <ele>1970.4000244141</ele>
        <time>2021-03-21T09:27:52.000Z</time>
      </trkpt>
      <trkpt lat="44.99963" lon="6.03252">
        <ele>1970.4000244141</ele>
        <time>2021-03-21T09:27:53.000Z</time>
      </trkpt>
      <trkpt lat="44.99962" lon="6.03252">
        <ele>1970.4000244141</ele>
        <time>2021-03-21T09:27:54.000Z</time>
      </trkpt>
      <trkpt lat="44.99961" lon="6.03252">
        <ele>1970.4000244141</ele>
        <time>2021-03-21T09:27:55.000Z</time>
      </trkpt>
      <trkpt lat="44.99961" lon="6.03252">
        <ele>1970.1999511719</ele>
        <time>2021-03-21T09:27:56.000Z</time>
      </trkpt>
      <trkpt lat="44.9996" lon="6.03252">
        <ele>1970.1999511719</ele>
        <time>2021-03-21T09:27:57.000Z</time>
      </trkpt>
      <trkpt lat="44.9996" lon="6.03252">
        <ele>1970.1999511719</ele>
        <time>2021-03-21T09:27:58.000Z</time>
      </trkpt>
      <trkpt lat="44.99959" lon="6.03252">
        <ele>1970.1999511719</ele>
        <time>2021-03-21T09:27:59.000Z</time>
      </trkpt>
      <trkpt lat="44.99958" lon="6.03252">
        <ele>1970</ele>
        <time>2021-03-21T09:28:00.000Z</time>
      </trkpt>
      <trkpt lat="44.99958" lon="6.03253">
        <ele>1970</ele>
        <time>2021-03-21T09:28:01.000Z</time>
      </trkpt>
      <trkpt lat="44.99957" lon="6.03253">
        <ele>1969.8000488281</ele>
        <time>2021-03-21T09:28:02.000Z</time>
      </trkpt>
      <trkpt lat="44.99956" lon="6.03253">
        <ele>1969.8000488281</ele>
        <time>2021-03-21T09:28:03.000Z</time>
      </trkpt>
      <trkpt lat="44.99956" lon="6.03252">
        <ele>1969.8000488281</ele>
        <time>2021-03-21T09:28:04.000Z</time>
      </trkpt>
      <trkpt lat="44.99955" lon="6.03252">
        <ele>1970</ele>
        <time>2021-03-21T09:28:05.000Z</time>
      </trkpt>
      <trkpt lat="44.99955" lon="6.03252">
        <ele>1970</ele>
        <time>2021-03-21T09:28:06.000Z</time>
      </trkpt>
      <trkpt lat="44.99954" lon="6.03252">
        <ele>1970.1999511719</ele>
        <time>2021-03-21T09:28:07.000Z</time>
      </trkpt>
      <trkpt lat="44.99953" lon="6.03252">
        <ele>1970</ele>
        <time>2021-03-21T09:28:08.000Z</time>
      </trkpt>
      <trkpt lat="44.99953" lon="6.03252">
        <ele>1970</ele>
        <time>2021-03-21T09:28:09.000Z</time>
      </trkpt>
      <trkpt lat="44.99953" lon="6.03252">
        <ele>1970.1999511719</ele>
        <time>2021-03-21T09:28:10.000Z</time>
      </trkpt>
      <trkpt lat="44.99952" lon="6.03251">
        <ele>1970.1999511719</ele>
        <time>2021-03-21T09:28:11.000Z</time>
      </trkpt>
      <trkpt lat="44.99952" lon="6.03251">
        <ele>1970.1999511719</ele>
        <time>2021-03-21T09:28:12.000Z</time>
      </trkpt>
      <trkpt lat="44.99951" lon="6.03251">
        <ele>1970.1999511719</ele>
        <time>2021-03-21T09:28:13.000Z</time>
      </trkpt>
      <trkpt lat="44.99951" lon="6.03251">
        <ele>1970.1999511719</ele>
        <time>2021-03-21T09:28:14.000Z</time>
      </trkpt>
      <trkpt lat="44.9995" lon="6.03251">
        <ele>1970.1999511719</ele>
        <time>2021-03-21T09:28:15.000Z</time>
      </trkpt>
      <trkpt lat="44.9995" lon="6.03251">
        <ele>1970.4000244141</ele>
        <time>2021-03-21T09:28:16.000Z</time>
      </trkpt>
      <trkpt lat="44.99949" lon="6.03251">
        <ele>1970.4000244141</ele>
        <time>2021-03-21T09:28:17.000Z</time>
      </trkpt>
      <trkpt lat="44.99949" lon="6.03251">
        <ele>1970.5999755859</ele>
        <time>2021-03-21T09:28:18.000Z</time>
      </trkpt>
      <trkpt lat="44.99948" lon="6.0325">
        <ele>1970.5999755859</ele>
        <time>2021-03-21T09:28:19.000Z</time>
      </trkpt>
      <trkpt lat="44.99948" lon="6.0325">
        <ele>1970.5999755859</ele>
        <time>2021-03-21T09:28:20.000Z</time>
      </trkpt>
      <trkpt lat="44.99948" lon="6.0325">
        <ele>1970.8000488281</ele>
        <time>2021-03-21T09:28:21.000Z</time>
      </trkpt>
      <trkpt lat="44.99947" lon="6.0325">
        <ele>1970.8000488281</ele>
        <time>2021-03-21T09:28:22.000Z</time>
      </trkpt>
      <trkpt lat="44.99947" lon="6.0325">
        <ele>1970.8000488281</ele>
        <time>2021-03-21T09:28:23.000Z</time>
      </trkpt>
      <trkpt lat="44.99947" lon="6.0325">
        <ele>1971</ele>
        <time>2021-03-21T09:28:24.000Z</time>
      </trkpt>
      <trkpt lat="44.99947" lon="6.0325">
        <ele>1971</ele>
        <time>2021-03-21T09:28:25.000Z</time>
      </trkpt>
      <trkpt lat="44.99948" lon="6.0325">
        <ele>1970.8000488281</ele>
        <time>2021-03-21T09:28:26.000Z</time>
      </trkpt>
      <trkpt lat="44.99947" lon="6.0325">
        <ele>1970.8000488281</ele>
        <time>2021-03-21T09:28:27.000Z</time>
      </trkpt>
      <trkpt lat="44.99947" lon="6.0325">
        <ele>1971</ele>
        <time>2021-03-21T09:28:28.000Z</time>
      </trkpt>
      <trkpt lat="44.99947" lon="6.03249">
        <ele>1971.4000244141</ele>
        <time>2021-03-21T09:28:29.000Z</time>
      </trkpt>
      <trkpt lat="44.99947" lon="6.03249">
        <ele>1971.8000488281</ele>
        <time>2021-03-21T09:28:30.000Z</time>
      </trkpt>
      <trkpt lat="44.99947" lon="6.03248">
        <ele>1972</ele>
        <time>2021-03-21T09:28:31.000Z</time>
      </trkpt>
      <trkpt lat="44.99946" lon="6.03247">
        <ele>1972.4000244141</ele>
        <time>2021-03-21T09:28:32.000Z</time>
      </trkpt>
      <trkpt lat="44.99946" lon="6.03247">
        <ele>1972.8000488281</ele>
        <time>2021-03-21T09:28:33.000Z</time>
      </trkpt>
      <trkpt lat="44.99946" lon="6.03247">
        <ele>1973</ele>
        <time>2021-03-21T09:28:34.000Z</time>
      </trkpt>
      <trkpt lat="44.99945" lon="6.03246">
        <ele>1973.1999511719</ele>
        <time>2021-03-21T09:28:35.000Z</time>
      </trkpt>
      <trkpt lat="44.99945" lon="6.03246">
        <ele>1973.4000244141</ele>
        <time>2021-03-21T09:28:36.000Z</time>
      </trkpt>
      <trkpt lat="44.99944" lon="6.03246">
        <ele>1973.4000244141</ele>
        <time>2021-03-21T09:28:37.000Z</time>
      </trkpt>
      <trkpt lat="44.99944" lon="6.03245">
        <ele>1973.5999755859</ele>
        <time>2021-03-21T09:28:38.000Z</time>
      </trkpt>
      <trkpt lat="44.99943" lon="6.03245">
        <ele>1973.8000488281</ele>
        <time>2021-03-21T09:28:39.000Z</time>
      </trkpt>
      <trkpt lat="44.99943" lon="6.03245">
        <ele>1973.8000488281</ele>
        <time>2021-03-21T09:28:40.000Z</time>
      </trkpt>
      <trkpt lat="44.99942" lon="6.03244">
        <ele>1974</ele>
        <time>2021-03-21T09:28:41.000Z</time>
      </trkpt>
      <trkpt lat="44.99942" lon="6.03244">
        <ele>1974.1999511719</ele>
        <time>2021-03-21T09:28:42.000Z</time>
      </trkpt>
      <trkpt lat="44.99942" lon="6.03244">
        <ele>1974.4000244141</ele>
        <time>2021-03-21T09:28:43.000Z</time>
      </trkpt>
      <trkpt lat="44.99941" lon="6.03243">
        <ele>1974.5999755859</ele>
        <time>2021-03-21T09:28:44.000Z</time>
      </trkpt>
      <trkpt lat="44.99941" lon="6.03243">
        <ele>1974.8000488281</ele>
        <time>2021-03-21T09:28:45.000Z</time>
      </trkpt>
      <trkpt lat="44.9994" lon="6.03243">
        <ele>1974.8000488281</ele>
        <time>2021-03-21T09:28:46.000Z</time>
      </trkpt>
      <trkpt lat="44.9994" lon="6.03243">
        <ele>1975.1999511719</ele>
        <time>2021-03-21T09:28:47.000Z</time>
      </trkpt>
      <trkpt lat="44.9994" lon="6.03243">
        <ele>1975.1999511719</ele>
        <time>2021-03-21T09:28:48.000Z</time>
      </trkpt>
      <trkpt lat="44.99939" lon="6.03243">
        <ele>1975</ele>
        <time>2021-03-21T09:28:49.000Z</time>
      </trkpt>
      <trkpt lat="44.99939" lon="6.03242">
        <ele>1975.1999511719</ele>
        <time>2021-03-21T09:28:50.000Z</time>
      </trkpt>
      <trkpt lat="44.99939" lon="6.03242">
        <ele>1975.4000244141</ele>
        <time>2021-03-21T09:28:51.000Z</time>
      </trkpt>
      <trkpt lat="44.99938" lon="6.03242">
        <ele>1975.4000244141</ele>
        <time>2021-03-21T09:28:52.000Z</time>
      </trkpt>
      <trkpt lat="44.99938" lon="6.03242">
        <ele>1975.4000244141</ele>
        <time>2021-03-21T09:28:53.000Z</time>
      </trkpt>
      <trkpt lat="44.99938" lon="6.03242">
        <ele>1975.5999755859</ele>
        <time>2021-03-21T09:28:54.000Z</time>
      </trkpt>
      <trkpt lat="44.99937" lon="6.03242">
        <ele>1975.5999755859</ele>
        <time>2021-03-21T09:28:55.000Z</time>
      </trkpt>
      <trkpt lat="44.99937" lon="6.03241">
        <ele>1975.5999755859</ele>
        <time>2021-03-21T09:28:56.000Z</time>
      </trkpt>
      <trkpt lat="44.99937" lon="6.03241">
        <ele>1975.8000488281</ele>
        <time>2021-03-21T09:28:57.000Z</time>
      </trkpt>
      <trkpt lat="44.99937" lon="6.03241">
        <ele>1975.8000488281</ele>
        <time>2021-03-21T09:28:58.000Z</time>
      </trkpt>
      <trkpt lat="44.99937" lon="6.03241">
        <ele>1976</ele>
        <time>2021-03-21T09:28:59.000Z</time>
      </trkpt>
      <trkpt lat="44.99937" lon="6.03241">
        <ele>1976.1999511719</ele>
        <time>2021-03-21T09:29:00.000Z</time>
      </trkpt>
      <trkpt lat="44.99937" lon="6.0324">
        <ele>1976.4000244141</ele>
        <time>2021-03-21T09:29:01.000Z</time>
      </trkpt>
      <trkpt lat="44.99937" lon="6.0324">
        <ele>1976.5999755859</ele>
        <time>2021-03-21T09:29:02.000Z</time>
      </trkpt>
      <trkpt lat="44.99937" lon="6.0324">
        <ele>1976.5999755859</ele>
        <time>2021-03-21T09:29:03.000Z</time>
      </trkpt>
      <trkpt lat="44.99937" lon="6.0324">
        <ele>1976.5999755859</ele>
        <time>2021-03-21T09:29:04.000Z</time>
      </trkpt>
      <trkpt lat="44.99938" lon="6.0324">
        <ele>1976.8000488281</ele>
        <time>2021-03-21T09:29:05.000Z</time>
      </trkpt>
      <trkpt lat="44.99938" lon="6.03239">
        <ele>1977</ele>
        <time>2021-03-21T09:29:06.000Z</time>
      </trkpt>
      <trkpt lat="44.99938" lon="6.03239">
        <ele>1977.5999755859</ele>
        <time>2021-03-21T09:29:07.000Z</time>
      </trkpt>
      <trkpt lat="44.99938" lon="6.03238">
        <ele>1978</ele>
        <time>2021-03-21T09:29:08.000Z</time>
      </trkpt>
      <trkpt lat="44.99939" lon="6.03237">
        <ele>1978.4000244141</ele>
        <time>2021-03-21T09:29:09.000Z</time>
      </trkpt>
      <trkpt lat="44.99939" lon="6.03237">
        <ele>1978.5999755859</ele>
        <time>2021-03-21T09:29:10.000Z</time>
      </trkpt>
      <trkpt lat="44.99939" lon="6.03237">
        <ele>1979</ele>
        <time>2021-03-21T09:29:11.000Z</time>
      </trkpt>
      <trkpt lat="44.9994" lon="6.03236">
        <ele>1979.5999755859</ele>
        <time>2021-03-21T09:29:12.000Z</time>
      </trkpt>
      <trkpt lat="44.9994" lon="6.03235">
        <ele>1979.8000488281</ele>
        <time>2021-03-21T09:29:13.000Z</time>
      </trkpt>
      <trkpt lat="44.99941" lon="6.03235">
        <ele>1980</ele>
        <time>2021-03-21T09:29:14.000Z</time>
      </trkpt>
      <trkpt lat="44.99941" lon="6.03235">
        <ele>1980.1999511719</ele>
        <time>2021-03-21T09:29:15.000Z</time>
      </trkpt>
      <trkpt lat="44.99941" lon="6.03235">
        <ele>1980.4000244141</ele>
        <time>2021-03-21T09:29:16.000Z</time>
      </trkpt>
      <trkpt lat="44.99941" lon="6.03235">
        <ele>1980.4000244141</ele>
        <time>2021-03-21T09:29:17.000Z</time>
      </trkpt>
      <trkpt lat="44.99941" lon="6.03235">
        <ele>1980.4000244141</ele>
        <time>2021-03-21T09:29:18.000Z</time>
      </trkpt>
      <trkpt lat="44.99941" lon="6.03235">
        <ele>1979.8000488281</ele>
        <time>2021-03-21T09:29:19.000Z</time>
      </trkpt>
      <trkpt lat="44.99941" lon="6.03236">
        <ele>1979.5999755859</ele>
        <time>2021-03-21T09:29:20.000Z</time>
      </trkpt>
      <trkpt lat="44.99941" lon="6.03236">
        <ele>1979.5999755859</ele>
        <time>2021-03-21T09:29:21.000Z</time>
      </trkpt>
      <trkpt lat="44.99941" lon="6.03236">
        <ele>1979.4000244141</ele>
        <time>2021-03-21T09:29:22.000Z</time>
      </trkpt>
      <trkpt lat="44.9994" lon="6.03236">
        <ele>1979.5999755859</ele>
        <time>2021-03-21T09:29:23.000Z</time>
      </trkpt>
      <trkpt lat="44.9994" lon="6.03236">
        <ele>1979.1999511719</ele>
        <time>2021-03-21T09:29:24.000Z</time>
      </trkpt>
      <trkpt lat="44.9994" lon="6.03236">
        <ele>1979.1999511719</ele>
        <time>2021-03-21T09:29:25.000Z</time>
      </trkpt>
      <trkpt lat="44.9994" lon="6.03236">
        <ele>1979.4000244141</ele>
        <time>2021-03-21T09:29:26.000Z</time>
      </trkpt>
      <trkpt lat="44.9994" lon="6.03236">
        <ele>1979.4000244141</ele>
        <time>2021-03-21T09:29:27.000Z</time>
      </trkpt>
      <trkpt lat="44.9994" lon="6.03236">
        <ele>1979.5999755859</ele>
        <time>2021-03-21T09:29:28.000Z</time>
      </trkpt>
      <trkpt lat="44.9994" lon="6.03236">
        <ele>1979.5999755859</ele>
        <time>2021-03-21T09:29:29.000Z</time>
      </trkpt>
      <trkpt lat="44.9994" lon="6.03236">
        <ele>1979.5999755859</ele>
        <time>2021-03-21T09:29:30.000Z</time>
      </trkpt>
      <trkpt lat="44.9994" lon="6.03235">
        <ele>1980</ele>
        <time>2021-03-21T09:29:31.000Z</time>
      </trkpt>
      <trkpt lat="44.99939" lon="6.03235">
        <ele>1979.8000488281</ele>
        <time>2021-03-21T09:29:32.000Z</time>
      </trkpt>
      <trkpt lat="44.99939" lon="6.03235">
        <ele>1980</ele>
        <time>2021-03-21T09:29:33.000Z</time>
      </trkpt>
      <trkpt lat="44.99938" lon="6.03234">
        <ele>1980.4000244141</ele>
        <time>2021-03-21T09:29:34.000Z</time>
      </trkpt>
      <trkpt lat="44.99938" lon="6.03234">
        <ele>1980.5999755859</ele>
        <time>2021-03-21T09:29:35.000Z</time>
      </trkpt>
      <trkpt lat="44.99938" lon="6.03234">
        <ele>1980.8000488281</ele>
        <time>2021-03-21T09:29:36.000Z</time>
      </trkpt>
      <trkpt lat="44.99937" lon="6.03233">
        <ele>1981</ele>
        <time>2021-03-21T09:29:37.000Z</time>
      </trkpt>
      <trkpt lat="44.99937" lon="6.03233">
        <ele>1981.1999511719</ele>
        <time>2021-03-21T09:29:38.000Z</time>
      </trkpt>
      <trkpt lat="44.99937" lon="6.03233">
        <ele>1981.4000244141</ele>
        <time>2021-03-21T09:29:39.000Z</time>
      </trkpt>
      <trkpt lat="44.99937" lon="6.03232">
        <ele>1981.8000488281</ele>
        <time>2021-03-21T09:29:40.000Z</time>
      </trkpt>
      <trkpt lat="44.99937" lon="6.03232">
        <ele>1981.8000488281</ele>
        <time>2021-03-21T09:29:41.000Z</time>
      </trkpt>
      <trkpt lat="44.99937" lon="6.03232">
        <ele>1981.8000488281</ele>
        <time>2021-03-21T09:29:42.000Z</time>
      </trkpt>
      <trkpt lat="44.99938" lon="6.03232">
        <ele>1982</ele>
        <time>2021-03-21T09:29:43.000Z</time>
      </trkpt>
      <trkpt lat="44.99938" lon="6.03231">
        <ele>1982.5999755859</ele>
        <time>2021-03-21T09:29:44.000Z</time>
      </trkpt>
      <trkpt lat="44.99938" lon="6.03231">
        <ele>1982.8000488281</ele>
        <time>2021-03-21T09:29:45.000Z</time>
      </trkpt>
      <trkpt lat="44.99939" lon="6.0323">
        <ele>1983.1999511719</ele>
        <time>2021-03-21T09:29:46.000Z</time>
      </trkpt>
      <trkpt lat="44.99939" lon="6.0323">
        <ele>1983.5999755859</ele>
        <time>2021-03-21T09:29:47.000Z</time>
      </trkpt>
      <trkpt lat="44.99939" lon="6.03229">
        <ele>1984.1999511719</ele>
        <time>2021-03-21T09:29:48.000Z</time>
      </trkpt>
      <trkpt lat="44.99939" lon="6.03229">
        <ele>1984.4000244141</ele>
        <time>2021-03-21T09:29:49.000Z</time>
      </trkpt>
      <trkpt lat="44.9994" lon="6.03228">
        <ele>1984.5999755859</ele>
        <time>2021-03-21T09:29:50.000Z</time>
      </trkpt>
      <trkpt lat="44.9994" lon="6.03227">
        <ele>1985.1999511719</ele>
        <time>2021-03-21T09:29:51.000Z</time>
      </trkpt>
      <trkpt lat="44.99941" lon="6.03227">
        <ele>1986</ele>
        <time>2021-03-21T09:29:52.000Z</time>
      </trkpt>
      <trkpt lat="44.99941" lon="6.03226">
        <ele>1986.4000244141</ele>
        <time>2021-03-21T09:29:53.000Z</time>
      </trkpt>
      <trkpt lat="44.99941" lon="6.03225">
        <ele>1987</ele>
        <time>2021-03-21T09:29:54.000Z</time>
      </trkpt>
      <trkpt lat="44.99941" lon="6.03224">
        <ele>1987.5999755859</ele>
        <time>2021-03-21T09:29:55.000Z</time>
      </trkpt>
      <trkpt lat="44.99942" lon="6.03224">
        <ele>1988</ele>
        <time>2021-03-21T09:29:56.000Z</time>
      </trkpt>
      <trkpt lat="44.99942" lon="6.03223">
        <ele>1988.5999755859</ele>
        <time>2021-03-21T09:29:57.000Z</time>
      </trkpt>
      <trkpt lat="44.99943" lon="6.03222">
        <ele>1989</ele>
        <time>2021-03-21T09:29:58.000Z</time>
      </trkpt>
      <trkpt lat="44.99943" lon="6.03221">
        <ele>1989.5999755859</ele>
        <time>2021-03-21T09:29:59.000Z</time>
      </trkpt>
      <trkpt lat="44.99944" lon="6.03221">
        <ele>1990</ele>
        <time>2021-03-21T09:30:00.000Z</time>
      </trkpt>
      <trkpt lat="44.99944" lon="6.0322">
        <ele>1990.8000488281</ele>
        <time>2021-03-21T09:30:01.000Z</time>
      </trkpt>
      <trkpt lat="44.99945" lon="6.0322">
        <ele>1991.1999511719</ele>
        <time>2021-03-21T09:30:02.000Z</time>
      </trkpt>
      <trkpt lat="44.99945" lon="6.03219">
        <ele>1992.1999511719</ele>
        <time>2021-03-21T09:30:03.000Z</time>
      </trkpt>
      <trkpt lat="44.99946" lon="6.03218">
        <ele>1992.8000488281</ele>
        <time>2021-03-21T09:30:04.000Z</time>
      </trkpt>
      <trkpt lat="44.99947" lon="6.03217">
        <ele>1993.5999755859</ele>
        <time>2021-03-21T09:30:05.000Z</time>
      </trkpt>
      <trkpt lat="44.99947" lon="6.03216">
        <ele>1994.4000244141</ele>
        <time>2021-03-21T09:30:06.000Z</time>
      </trkpt>
      <trkpt lat="44.99948" lon="6.03215">
        <ele>1994.8000488281</ele>
        <time>2021-03-21T09:30:07.000Z</time>
      </trkpt>
      <trkpt lat="44.99948" lon="6.03215">
        <ele>1995.4000244141</ele>
        <time>2021-03-21T09:30:08.000Z</time>
      </trkpt>
      <trkpt lat="44.99948" lon="6.03214">
        <ele>1995.8000488281</ele>
        <time>2021-03-21T09:30:09.000Z</time>
      </trkpt>
      <trkpt lat="44.99949" lon="6.03213">
        <ele>1996.5999755859</ele>
        <time>2021-03-21T09:30:10.000Z</time>
      </trkpt>
      <trkpt lat="44.99949" lon="6.03213">
        <ele>1997.1999511719</ele>
        <time>2021-03-21T09:30:11.000Z</time>
      </trkpt>
      <trkpt lat="44.9995" lon="6.03212">
        <ele>1998</ele>
        <time>2021-03-21T09:30:12.000Z</time>
      </trkpt>
      <trkpt lat="44.99949" lon="6.03211">
        <ele>1998.1999511719</ele>
        <time>2021-03-21T09:30:13.000Z</time>
      </trkpt>
      <trkpt lat="44.9995" lon="6.0321">
        <ele>1998.8000488281</ele>
        <time>2021-03-21T09:30:14.000Z</time>
      </trkpt>
      <trkpt lat="44.9995" lon="6.0321">
        <ele>1999.4000244141</ele>
        <time>2021-03-21T09:30:15.000Z</time>
      </trkpt>
      <trkpt lat="44.9995" lon="6.0321">
        <ele>1999.5999755859</ele>
        <time>2021-03-21T09:30:16.000Z</time>
      </trkpt>
      <trkpt lat="44.99951" lon="6.03209">
        <ele>2000</ele>
        <time>2021-03-21T09:30:17.000Z</time>
      </trkpt>
      <trkpt lat="44.99951" lon="6.03208">
        <ele>2000.4000244141</ele>
        <time>2021-03-21T09:30:18.000Z</time>
      </trkpt>
      <trkpt lat="44.99951" lon="6.03208">
        <ele>2000.5999755859</ele>
        <time>2021-03-21T09:30:19.000Z</time>
      </trkpt>
      <trkpt lat="44.99952" lon="6.03208">
        <ele>2001</ele>
        <time>2021-03-21T09:30:20.000Z</time>
      </trkpt>
      <trkpt lat="44.99952" lon="6.03207">
        <ele>2001.4000244141</ele>
        <time>2021-03-21T09:30:21.000Z</time>
      </trkpt>
      <trkpt lat="44.99952" lon="6.03207">
        <ele>2001.8000488281</ele>
        <time>2021-03-21T09:30:22.000Z</time>
      </trkpt>
      <trkpt lat="44.99953" lon="6.03205">
        <ele>2002.5999755859</ele>
        <time>2021-03-21T09:30:23.000Z</time>
      </trkpt>
      <trkpt lat="44.99953" lon="6.03205">
        <ele>2003</ele>
        <time>2021-03-21T09:30:24.000Z</time>
      </trkpt>
      <trkpt lat="44.99953" lon="6.03204">
        <ele>2003.4000244141</ele>
        <time>2021-03-21T09:30:25.000Z</time>
      </trkpt>
      <trkpt lat="44.99953" lon="6.03203">
        <ele>2003.8000488281</ele>
        <time>2021-03-21T09:30:26.000Z</time>
      </trkpt>
      <trkpt lat="44.99954" lon="6.03203">
        <ele>2004</ele>
        <time>2021-03-21T09:30:27.000Z</time>
      </trkpt>
      <trkpt lat="44.99954" lon="6.03202">
        <ele>2004.4000244141</ele>
        <time>2021-03-21T09:30:28.000Z</time>
      </trkpt>
      <trkpt lat="44.99954" lon="6.03201">
        <ele>2004.8000488281</ele>
        <time>2021-03-21T09:30:29.000Z</time>
      </trkpt>
      <trkpt lat="44.99954" lon="6.032">
        <ele>2005.1999511719</ele>
        <time>2021-03-21T09:30:30.000Z</time>
      </trkpt>
      <trkpt lat="44.99954" lon="6.032">
        <ele>2005.5999755859</ele>
        <time>2021-03-21T09:30:31.000Z</time>
      </trkpt>
      <trkpt lat="44.99954" lon="6.03199">
        <ele>2005.8000488281</ele>
        <time>2021-03-21T09:30:32.000Z</time>
      </trkpt>
      <trkpt lat="44.99954" lon="6.03199">
        <ele>2006</ele>
        <time>2021-03-21T09:30:33.000Z</time>
      </trkpt>
      <trkpt lat="44.99954" lon="6.03198">
        <ele>2006.1999511719</ele>
        <time>2021-03-21T09:30:34.000Z</time>
      </trkpt>
      <trkpt lat="44.99954" lon="6.03198">
        <ele>2006.4000244141</ele>
        <time>2021-03-21T09:30:35.000Z</time>
      </trkpt>
      <trkpt lat="44.99953" lon="6.03197">
        <ele>2006.5999755859</ele>
        <time>2021-03-21T09:30:36.000Z</time>
      </trkpt>
      <trkpt lat="44.99953" lon="6.03197">
        <ele>2006.5999755859</ele>
        <time>2021-03-21T09:30:37.000Z</time>
      </trkpt>
      <trkpt lat="44.99952" lon="6.03197">
        <ele>2006.8000488281</ele>
        <time>2021-03-21T09:30:38.000Z</time>
      </trkpt>
      <trkpt lat="44.99951" lon="6.03197">
        <ele>2007</ele>
        <time>2021-03-21T09:30:39.000Z</time>
      </trkpt>
      <trkpt lat="44.99951" lon="6.03196">
        <ele>2007</ele>
        <time>2021-03-21T09:30:40.000Z</time>
      </trkpt>
      <trkpt lat="44.9995" lon="6.03197">
        <ele>2007</ele>
        <time>2021-03-21T09:30:41.000Z</time>
      </trkpt>
      <trkpt lat="44.99949" lon="6.03196">
        <ele>2007</ele>
        <time>2021-03-21T09:30:42.000Z</time>
      </trkpt>
      <trkpt lat="44.99948" lon="6.03197">
        <ele>2007</ele>
        <time>2021-03-21T09:30:43.000Z</time>
      </trkpt>
      <trkpt lat="44.99948" lon="6.03197">
        <ele>2007</ele>
        <time>2021-03-21T09:30:44.000Z</time>
      </trkpt>
      <trkpt lat="44.99947" lon="6.03197">
        <ele>2007</ele>
        <time>2021-03-21T09:30:45.000Z</time>
      </trkpt>
      <trkpt lat="44.99946" lon="6.03196">
        <ele>2007</ele>
        <time>2021-03-21T09:30:46.000Z</time>
      </trkpt>
      <trkpt lat="44.99946" lon="6.03196">
        <ele>2007.1999511719</ele>
        <time>2021-03-21T09:30:47.000Z</time>
      </trkpt>
      <trkpt lat="44.99945" lon="6.03196">
        <ele>2007.1999511719</ele>
        <time>2021-03-21T09:30:48.000Z</time>
      </trkpt>
      <trkpt lat="44.99944" lon="6.03196">
        <ele>2007.1999511719</ele>
        <time>2021-03-21T09:30:49.000Z</time>
      </trkpt>
      <trkpt lat="44.99944" lon="6.03196">
        <ele>2007.1999511719</ele>
        <time>2021-03-21T09:30:50.000Z</time>
      </trkpt>
      <trkpt lat="44.99943" lon="6.03196">
        <ele>2007</ele>
        <time>2021-03-21T09:30:51.000Z</time>
      </trkpt>
      <trkpt lat="44.99943" lon="6.03196">
        <ele>2006.8000488281</ele>
        <time>2021-03-21T09:30:52.000Z</time>
      </trkpt>
      <trkpt lat="44.99942" lon="6.03196">
        <ele>2006.8000488281</ele>
        <time>2021-03-21T09:30:53.000Z</time>
      </trkpt>
      <trkpt lat="44.99941" lon="6.03196">
        <ele>2006.8000488281</ele>
        <time>2021-03-21T09:30:54.000Z</time>
      </trkpt>
      <trkpt lat="44.99941" lon="6.03196">
        <ele>2006.5999755859</ele>
        <time>2021-03-21T09:30:55.000Z</time>
      </trkpt>
      <trkpt lat="44.9994" lon="6.03196">
        <ele>2006.5999755859</ele>
        <time>2021-03-21T09:30:56.000Z</time>
      </trkpt>
      <trkpt lat="44.9994" lon="6.03196">
        <ele>2006.4000244141</ele>
        <time>2021-03-21T09:30:57.000Z</time>
      </trkpt>
      <trkpt lat="44.99939" lon="6.03195">
        <ele>2006.8000488281</ele>
        <time>2021-03-21T09:30:58.000Z</time>
      </trkpt>
      <trkpt lat="44.99938" lon="6.03195">
        <ele>2006.5999755859</ele>
        <time>2021-03-21T09:30:59.000Z</time>
      </trkpt>
      <trkpt lat="44.99938" lon="6.03195">
        <ele>2006.5999755859</ele>
        <time>2021-03-21T09:31:00.000Z</time>
      </trkpt>
      <trkpt lat="44.99937" lon="6.03195">
        <ele>2006.5999755859</ele>
        <time>2021-03-21T09:31:01.000Z</time>
      </trkpt>
      <trkpt lat="44.99937" lon="6.03195">
        <ele>2006.8000488281</ele>
        <time>2021-03-21T09:31:02.000Z</time>
      </trkpt>
      <trkpt lat="44.99937" lon="6.03194">
        <ele>2007</ele>
        <time>2021-03-21T09:31:03.000Z</time>
      </trkpt>
      <trkpt lat="44.99936" lon="6.03194">
        <ele>2007</ele>
        <time>2021-03-21T09:31:04.000Z</time>
      </trkpt>
      <trkpt lat="44.99936" lon="6.03194">
        <ele>2007</ele>
        <time>2021-03-21T09:31:05.000Z</time>
      </trkpt>
      <trkpt lat="44.99935" lon="6.03194">
        <ele>2007.1999511719</ele>
        <time>2021-03-21T09:31:06.000Z</time>
      </trkpt>
      <trkpt lat="44.99935" lon="6.03193">
        <ele>2007.4000244141</ele>
        <time>2021-03-21T09:31:07.000Z</time>
      </trkpt>
      <trkpt lat="44.99934" lon="6.03193">
        <ele>2007.1999511719</ele>
        <time>2021-03-21T09:31:08.000Z</time>
      </trkpt>
      <trkpt lat="44.99934" lon="6.03193">
        <ele>2007.1999511719</ele>
        <time>2021-03-21T09:31:09.000Z</time>
      </trkpt>
      <trkpt lat="44.99933" lon="6.03193">
        <ele>2007.1999511719</ele>
        <time>2021-03-21T09:31:10.000Z</time>
      </trkpt>
      <trkpt lat="44.99933" lon="6.03193">
        <ele>2007.4000244141</ele>
        <time>2021-03-21T09:31:11.000Z</time>
      </trkpt>
      <trkpt lat="44.99932" lon="6.03193">
        <ele>2007.4000244141</ele>
        <time>2021-03-21T09:31:12.000Z</time>
      </trkpt>
      <trkpt lat="44.99932" lon="6.03192">
        <ele>2007.5999755859</ele>
        <time>2021-03-21T09:31:13.000Z</time>
      </trkpt>
      <trkpt lat="44.99931" lon="6.03192">
        <ele>2007.8000488281</ele>
        <time>2021-03-21T09:31:14.000Z</time>
      </trkpt>
      <trkpt lat="44.99931" lon="6.03191">
        <ele>2008</ele>
        <time>2021-03-21T09:31:15.000Z</time>
      </trkpt>
      <trkpt lat="44.99931" lon="6.03191">
        <ele>2008.4000244141</ele>
        <time>2021-03-21T09:31:16.000Z</time>
      </trkpt>
      <trkpt lat="44.9993" lon="6.0319">
        <ele>2008.5999755859</ele>
        <time>2021-03-21T09:31:17.000Z</time>
      </trkpt>
      <trkpt lat="44.9993" lon="6.0319">
        <ele>2009</ele>
        <time>2021-03-21T09:31:18.000Z</time>
      </trkpt>
      <trkpt lat="44.9993" lon="6.03189">
        <ele>2009.5999755859</ele>
        <time>2021-03-21T09:31:19.000Z</time>
      </trkpt>
      <trkpt lat="44.9993" lon="6.03188">
        <ele>2010</ele>
        <time>2021-03-21T09:31:20.000Z</time>
      </trkpt>
      <trkpt lat="44.9993" lon="6.03187">
        <ele>2010.5999755859</ele>
        <time>2021-03-21T09:31:21.000Z</time>
      </trkpt>
      <trkpt lat="44.9993" lon="6.03186">
        <ele>2011</ele>
        <time>2021-03-21T09:31:22.000Z</time>
      </trkpt>
      <trkpt lat="44.9993" lon="6.03186">
        <ele>2011.4000244141</ele>
        <time>2021-03-21T09:31:23.000Z</time>
      </trkpt>
      <trkpt lat="44.9993" lon="6.03185">
        <ele>2012</ele>
        <time>2021-03-21T09:31:24.000Z</time>
      </trkpt>
      <trkpt lat="44.9993" lon="6.03184">
        <ele>2012.4000244141</ele>
        <time>2021-03-21T09:31:25.000Z</time>
      </trkpt>
      <trkpt lat="44.99931" lon="6.03184">
        <ele>2012.8000488281</ele>
        <time>2021-03-21T09:31:26.000Z</time>
      </trkpt>
      <trkpt lat="44.99931" lon="6.03183">
        <ele>2013</ele>
        <time>2021-03-21T09:31:27.000Z</time>
      </trkpt>
      <trkpt lat="44.99931" lon="6.03183">
        <ele>2013.4000244141</ele>
        <time>2021-03-21T09:31:28.000Z</time>
      </trkpt>
      <trkpt lat="44.99931" lon="6.03182">
        <ele>2013.8000488281</ele>
        <time>2021-03-21T09:31:29.000Z</time>
      </trkpt>
      <trkpt lat="44.99931" lon="6.03181">
        <ele>2014</ele>
        <time>2021-03-21T09:31:30.000Z</time>
      </trkpt>
      <trkpt lat="44.99931" lon="6.03181">
        <ele>2014.4000244141</ele>
        <time>2021-03-21T09:31:31.000Z</time>
      </trkpt>
      <trkpt lat="44.99931" lon="6.0318">
        <ele>2014.5999755859</ele>
        <time>2021-03-21T09:31:32.000Z</time>
      </trkpt>
      <trkpt lat="44.99932" lon="6.03179">
        <ele>2015</ele>
        <time>2021-03-21T09:31:33.000Z</time>
      </trkpt>
      <trkpt lat="44.99932" lon="6.03178">
        <ele>2015.1999511719</ele>
        <time>2021-03-21T09:31:34.000Z</time>
      </trkpt>
      <trkpt lat="44.99932" lon="6.03177">
        <ele>2015.4000244141</ele>
        <time>2021-03-21T09:31:35.000Z</time>
      </trkpt>
      <trkpt lat="44.99932" lon="6.03177">
        <ele>2015.8000488281</ele>
        <time>2021-03-21T09:31:36.000Z</time>
      </trkpt>
      <trkpt lat="44.99932" lon="6.03176">
        <ele>2015.8000488281</ele>
        <time>2021-03-21T09:31:37.000Z</time>
      </trkpt>
      <trkpt lat="44.99932" lon="6.03176">
        <ele>2016.1999511719</ele>
        <time>2021-03-21T09:31:38.000Z</time>
      </trkpt>
      <trkpt lat="44.99933" lon="6.03175">
        <ele>2016.4000244141</ele>
        <time>2021-03-21T09:31:39.000Z</time>
      </trkpt>
      <trkpt lat="44.99932" lon="6.03174">
        <ele>2016.5999755859</ele>
        <time>2021-03-21T09:31:40.000Z</time>
      </trkpt>
      <trkpt lat="44.99932" lon="6.03174">
        <ele>2016.5999755859</ele>
        <time>2021-03-21T09:31:41.000Z</time>
      </trkpt>
      <trkpt lat="44.99932" lon="6.03173">
        <ele>2017</ele>
        <time>2021-03-21T09:31:42.000Z</time>
      </trkpt>
      <trkpt lat="44.99932" lon="6.03173">
        <ele>2017.1999511719</ele>
        <time>2021-03-21T09:31:43.000Z</time>
      </trkpt>
      <trkpt lat="44.99932" lon="6.03171">
        <ele>2017.5999755859</ele>
        <time>2021-03-21T09:31:44.000Z</time>
      </trkpt>
      <trkpt lat="44.99932" lon="6.03171">
        <ele>2017.8000488281</ele>
        <time>2021-03-21T09:31:45.000Z</time>
      </trkpt>
      <trkpt lat="44.99931" lon="6.0317">
        <ele>2018</ele>
        <time>2021-03-21T09:31:46.000Z</time>
      </trkpt>
      <trkpt lat="44.99931" lon="6.0317">
        <ele>2018</ele>
        <time>2021-03-21T09:31:47.000Z</time>
      </trkpt>
      <trkpt lat="44.99931" lon="6.0317">
        <ele>2018.1999511719</ele>
        <time>2021-03-21T09:31:48.000Z</time>
      </trkpt>
      <trkpt lat="44.9993" lon="6.03169">
        <ele>2018.4000244141</ele>
        <time>2021-03-21T09:31:49.000Z</time>
      </trkpt>
      <trkpt lat="44.9993" lon="6.03169">
        <ele>2018.4000244141</ele>
        <time>2021-03-21T09:31:50.000Z</time>
      </trkpt>
      <trkpt lat="44.99929" lon="6.03169">
        <ele>2018.5999755859</ele>
        <time>2021-03-21T09:31:51.000Z</time>
      </trkpt>
      <trkpt lat="44.99929" lon="6.03168">
        <ele>2018.8000488281</ele>
        <time>2021-03-21T09:31:52.000Z</time>
      </trkpt>
      <trkpt lat="44.99928" lon="6.03167">
        <ele>2019</ele>
        <time>2021-03-21T09:31:53.000Z</time>
      </trkpt>
      <trkpt lat="44.99928" lon="6.03167">
        <ele>2019.1999511719</ele>
        <time>2021-03-21T09:31:54.000Z</time>
      </trkpt>
      <trkpt lat="44.99928" lon="6.03166">
        <ele>2019.1999511719</ele>
        <time>2021-03-21T09:31:55.000Z</time>
      </trkpt>
      <trkpt lat="44.99927" lon="6.03166">
        <ele>2019.4000244141</ele>
        <time>2021-03-21T09:31:56.000Z</time>
      </trkpt>
      <trkpt lat="44.99927" lon="6.03166">
        <ele>2019.4000244141</ele>
        <time>2021-03-21T09:31:57.000Z</time>
      </trkpt>
      <trkpt lat="44.99926" lon="6.03165">
        <ele>2019.5999755859</ele>
        <time>2021-03-21T09:31:58.000Z</time>
      </trkpt>
      <trkpt lat="44.99926" lon="6.03165">
        <ele>2019.5999755859</ele>
        <time>2021-03-21T09:31:59.000Z</time>
      </trkpt>
      <trkpt lat="44.99925" lon="6.03164">
        <ele>2019.8000488281</ele>
        <time>2021-03-21T09:32:00.000Z</time>
      </trkpt>
      <trkpt lat="44.99925" lon="6.03164">
        <ele>2020</ele>
        <time>2021-03-21T09:32:01.000Z</time>
      </trkpt>
      <trkpt lat="44.99925" lon="6.03163">
        <ele>2020.1999511719</ele>
        <time>2021-03-21T09:32:02.000Z</time>
      </trkpt>
      <trkpt lat="44.99924" lon="6.03163">
        <ele>2020.1999511719</ele>
        <time>2021-03-21T09:32:03.000Z</time>
      </trkpt>
      <trkpt lat="44.99924" lon="6.03162">
        <ele>2020.4000244141</ele>
        <time>2021-03-21T09:32:04.000Z</time>
      </trkpt>
      <trkpt lat="44.99923" lon="6.03162">
        <ele>2020.5999755859</ele>
        <time>2021-03-21T09:32:05.000Z</time>
      </trkpt>
      <trkpt lat="44.99923" lon="6.03161">
        <ele>2020.5999755859</ele>
        <time>2021-03-21T09:32:06.000Z</time>
      </trkpt>
      <trkpt lat="44.99922" lon="6.03161">
        <ele>2020.8000488281</ele>
        <time>2021-03-21T09:32:07.000Z</time>
      </trkpt>
      <trkpt lat="44.99922" lon="6.03161">
        <ele>2020.8000488281</ele>
        <time>2021-03-21T09:32:08.000Z</time>
      </trkpt>
      <trkpt lat="44.99922" lon="6.03161">
        <ele>2020.8000488281</ele>
        <time>2021-03-21T09:32:09.000Z</time>
      </trkpt>
      <trkpt lat="44.99921" lon="6.03161">
        <ele>2020.8000488281</ele>
        <time>2021-03-21T09:32:10.000Z</time>
      </trkpt>
      <trkpt lat="44.99921" lon="6.0316">
        <ele>2021</ele>
        <time>2021-03-21T09:32:11.000Z</time>
      </trkpt>
      <trkpt lat="44.99921" lon="6.0316">
        <ele>2021.1999511719</ele>
        <time>2021-03-21T09:32:12.000Z</time>
      </trkpt>
      <trkpt lat="44.99922" lon="6.0316">
        <ele>2021.1999511719</ele>
        <time>2021-03-21T09:32:13.000Z</time>
      </trkpt>
      <trkpt lat="44.99922" lon="6.03159">
        <ele>2021.1999511719</ele>
        <time>2021-03-21T09:32:14.000Z</time>
      </trkpt>
      <trkpt lat="44.99922" lon="6.03159">
        <ele>2021.4000244141</ele>
        <time>2021-03-21T09:32:15.000Z</time>
      </trkpt>
      <trkpt lat="44.99922" lon="6.03159">
        <ele>2021.4000244141</ele>
        <time>2021-03-21T09:32:16.000Z</time>
      </trkpt>
      <trkpt lat="44.99922" lon="6.03159">
        <ele>2021.4000244141</ele>
        <time>2021-03-21T09:32:17.000Z</time>
      </trkpt>
      <trkpt lat="44.99922" lon="6.03159">
        <ele>2021.4000244141</ele>
        <time>2021-03-21T09:32:18.000Z</time>
      </trkpt>
      <trkpt lat="44.99922" lon="6.03158">
        <ele>2021.8000488281</ele>
        <time>2021-03-21T09:32:19.000Z</time>
      </trkpt>
      <trkpt lat="44.99923" lon="6.03158">
        <ele>2021.8000488281</ele>
        <time>2021-03-21T09:32:20.000Z</time>
      </trkpt>
      <trkpt lat="44.99923" lon="6.03157">
        <ele>2022.1999511719</ele>
        <time>2021-03-21T09:32:21.000Z</time>
      </trkpt>
      <trkpt lat="44.99923" lon="6.03157">
        <ele>2022.4000244141</ele>
        <time>2021-03-21T09:32:22.000Z</time>
      </trkpt>
      <trkpt lat="44.99924" lon="6.03156">
        <ele>2022.5999755859</ele>
        <time>2021-03-21T09:32:23.000Z</time>
      </trkpt>
      <trkpt lat="44.99924" lon="6.03155">
        <ele>2023</ele>
        <time>2021-03-21T09:32:24.000Z</time>
      </trkpt>
      <trkpt lat="44.99924" lon="6.03154">
        <ele>2023.1999511719</ele>
        <time>2021-03-21T09:32:25.000Z</time>
      </trkpt>
      <trkpt lat="44.99925" lon="6.03154">
        <ele>2023.4000244141</ele>
        <time>2021-03-21T09:32:26.000Z</time>
      </trkpt>
      <trkpt lat="44.99925" lon="6.03153">
        <ele>2023.8000488281</ele>
        <time>2021-03-21T09:32:27.000Z</time>
      </trkpt>
      <trkpt lat="44.99926" lon="6.03152">
        <ele>2024</ele>
        <time>2021-03-21T09:32:28.000Z</time>
      </trkpt>
      <trkpt lat="44.99926" lon="6.03152">
        <ele>2024.1999511719</ele>
        <time>2021-03-21T09:32:29.000Z</time>
      </trkpt>
      <trkpt lat="44.99927" lon="6.03151">
        <ele>2024.5999755859</ele>
        <time>2021-03-21T09:32:30.000Z</time>
      </trkpt>
      <trkpt lat="44.99927" lon="6.03151">
        <ele>2024.8000488281</ele>
        <time>2021-03-21T09:32:31.000Z</time>
      </trkpt>
      <trkpt lat="44.99928" lon="6.0315">
        <ele>2025</ele>
        <time>2021-03-21T09:32:32.000Z</time>
      </trkpt>
      <trkpt lat="44.99928" lon="6.0315">
        <ele>2025</ele>
        <time>2021-03-21T09:32:33.000Z</time>
      </trkpt>
      <trkpt lat="44.99929" lon="6.03149">
        <ele>2025.1999511719</ele>
        <time>2021-03-21T09:32:34.000Z</time>
      </trkpt>
      <trkpt lat="44.99929" lon="6.03149">
        <ele>2025.4000244141</ele>
        <time>2021-03-21T09:32:35.000Z</time>
      </trkpt>
      <trkpt lat="44.9993" lon="6.03148">
        <ele>2025.5999755859</ele>
        <time>2021-03-21T09:32:36.000Z</time>
      </trkpt>
      <trkpt lat="44.99931" lon="6.03148">
        <ele>2025.8000488281</ele>
        <time>2021-03-21T09:32:37.000Z</time>
      </trkpt>
      <trkpt lat="44.99931" lon="6.03148">
        <ele>2026</ele>
        <time>2021-03-21T09:32:38.000Z</time>
      </trkpt>
      <trkpt lat="44.99931" lon="6.03147">
        <ele>2026</ele>
        <time>2021-03-21T09:32:39.000Z</time>
      </trkpt>
      <trkpt lat="44.99932" lon="6.03147">
        <ele>2026</ele>
        <time>2021-03-21T09:32:40.000Z</time>
      </trkpt>
      <trkpt lat="44.99932" lon="6.03147">
        <ele>2026.1999511719</ele>
        <time>2021-03-21T09:32:41.000Z</time>
      </trkpt>
      <trkpt lat="44.99933" lon="6.03146">
        <ele>2026.1999511719</ele>
        <time>2021-03-21T09:32:42.000Z</time>
      </trkpt>
      <trkpt lat="44.99933" lon="6.03146">
        <ele>2026.4000244141</ele>
        <time>2021-03-21T09:32:43.000Z</time>
      </trkpt>
      <trkpt lat="44.99934" lon="6.03146">
        <ele>2026.4000244141</ele>
        <time>2021-03-21T09:32:44.000Z</time>
      </trkpt>
      <trkpt lat="44.99934" lon="6.03145">
        <ele>2026.5999755859</ele>
        <time>2021-03-21T09:32:45.000Z</time>
      </trkpt>
      <trkpt lat="44.99934" lon="6.03145">
        <ele>2026.8000488281</ele>
        <time>2021-03-21T09:32:46.000Z</time>
      </trkpt>
      <trkpt lat="44.99934" lon="6.03145">
        <ele>2026.8000488281</ele>
        <time>2021-03-21T09:32:47.000Z</time>
      </trkpt>
      <trkpt lat="44.99935" lon="6.03145">
        <ele>2026.8000488281</ele>
        <time>2021-03-21T09:32:48.000Z</time>
      </trkpt>
      <trkpt lat="44.99935" lon="6.03145">
        <ele>2026.5999755859</ele>
        <time>2021-03-21T09:32:49.000Z</time>
      </trkpt>
      <trkpt lat="44.99935" lon="6.03146">
        <ele>2026.4000244141</ele>
        <time>2021-03-21T09:32:50.000Z</time>
      </trkpt>
      <trkpt lat="44.99935" lon="6.03146">
        <ele>2026.4000244141</ele>
        <time>2021-03-21T09:32:51.000Z</time>
      </trkpt>
      <trkpt lat="44.99935" lon="6.03146">
        <ele>2026.4000244141</ele>
        <time>2021-03-21T09:32:52.000Z</time>
      </trkpt>
      <trkpt lat="44.99935" lon="6.03145">
        <ele>2026.8000488281</ele>
        <time>2021-03-21T09:32:53.000Z</time>
      </trkpt>
      <trkpt lat="44.99935" lon="6.03145">
        <ele>2026.5999755859</ele>
        <time>2021-03-21T09:32:54.000Z</time>
      </trkpt>
      <trkpt lat="44.99934" lon="6.03145">
        <ele>2026.5999755859</ele>
        <time>2021-03-21T09:32:55.000Z</time>
      </trkpt>
      <trkpt lat="44.99934" lon="6.03145">
        <ele>2026.5999755859</ele>
        <time>2021-03-21T09:32:56.000Z</time>
      </trkpt>
      <trkpt lat="44.99934" lon="6.03144">
        <ele>2027</ele>
        <time>2021-03-21T09:32:57.000Z</time>
      </trkpt>
      <trkpt lat="44.99933" lon="6.03144">
        <ele>2027</ele>
        <time>2021-03-21T09:32:58.000Z</time>
      </trkpt>
      <trkpt lat="44.99933" lon="6.03144">
        <ele>2027.1999511719</ele>
        <time>2021-03-21T09:32:59.000Z</time>
      </trkpt>
      <trkpt lat="44.99933" lon="6.03143">
        <ele>2027.4000244141</ele>
        <time>2021-03-21T09:33:00.000Z</time>
      </trkpt>
      <trkpt lat="44.99932" lon="6.03142">
        <ele>2027.8000488281</ele>
        <time>2021-03-21T09:33:01.000Z</time>
      </trkpt>
      <trkpt lat="44.99932" lon="6.03142">
        <ele>2027.8000488281</ele>
        <time>2021-03-21T09:33:02.000Z</time>
      </trkpt>
      <trkpt lat="44.99931" lon="6.03141">
        <ele>2028.1999511719</ele>
        <time>2021-03-21T09:33:03.000Z</time>
      </trkpt>
      <trkpt lat="44.9993" lon="6.0314">
        <ele>2028.4000244141</ele>
        <time>2021-03-21T09:33:04.000Z</time>
      </trkpt>
      <trkpt lat="44.9993" lon="6.0314">
        <ele>2028.4000244141</ele>
        <time>2021-03-21T09:33:05.000Z</time>
      </trkpt>
      <trkpt lat="44.99929" lon="6.0314">
        <ele>2028.4000244141</ele>
        <time>2021-03-21T09:33:06.000Z</time>
      </trkpt>
      <trkpt lat="44.99929" lon="6.0314">
        <ele>2028.4000244141</ele>
        <time>2021-03-21T09:33:07.000Z</time>
      </trkpt>
      <trkpt lat="44.99928" lon="6.03139">
        <ele>2028.5999755859</ele>
        <time>2021-03-21T09:33:08.000Z</time>
      </trkpt>
      <trkpt lat="44.99928" lon="6.03138">
        <ele>2028.8000488281</ele>
        <time>2021-03-21T09:33:09.000Z</time>
      </trkpt>
      <trkpt lat="44.99927" lon="6.03138">
        <ele>2028.8000488281</ele>
        <time>2021-03-21T09:33:10.000Z</time>
      </trkpt>
      <trkpt lat="44.99926" lon="6.03138">
        <ele>2029</ele>
        <time>2021-03-21T09:33:11.000Z</time>
      </trkpt>
      <trkpt lat="44.99926" lon="6.03137">
        <ele>2029</ele>
        <time>2021-03-21T09:33:12.000Z</time>
      </trkpt>
      <trkpt lat="44.99925" lon="6.03137">
        <ele>2029</ele>
        <time>2021-03-21T09:33:13.000Z</time>
      </trkpt>
      <trkpt lat="44.99925" lon="6.03137">
        <ele>2029</ele>
        <time>2021-03-21T09:33:14.000Z</time>
      </trkpt>
      <trkpt lat="44.99924" lon="6.03137">
        <ele>2029.1999511719</ele>
        <time>2021-03-21T09:33:15.000Z</time>
      </trkpt>
      <trkpt lat="44.99924" lon="6.03136">
        <ele>2029.1999511719</ele>
        <time>2021-03-21T09:33:16.000Z</time>
      </trkpt>
      <trkpt lat="44.99923" lon="6.03136">
        <ele>2029.1999511719</ele>
        <time>2021-03-21T09:33:17.000Z</time>
      </trkpt>
      <trkpt lat="44.99923" lon="6.03136">
        <ele>2029.4000244141</ele>
        <time>2021-03-21T09:33:18.000Z</time>
      </trkpt>
      <trkpt lat="44.99922" lon="6.03135">
        <ele>2029.4000244141</ele>
        <time>2021-03-21T09:33:19.000Z</time>
      </trkpt>
      <trkpt lat="44.99922" lon="6.03135">
        <ele>2029.4000244141</ele>
        <time>2021-03-21T09:33:20.000Z</time>
      </trkpt>
      <trkpt lat="44.99921" lon="6.03135">
        <ele>2029.5999755859</ele>
        <time>2021-03-21T09:33:21.000Z</time>
      </trkpt>
      <trkpt lat="44.99921" lon="6.03134">
        <ele>2029.5999755859</ele>
        <time>2021-03-21T09:33:22.000Z</time>
      </trkpt>
      <trkpt lat="44.9992" lon="6.03134">
        <ele>2029.8000488281</ele>
        <time>2021-03-21T09:33:23.000Z</time>
      </trkpt>
      <trkpt lat="44.9992" lon="6.03133">
        <ele>2029.8000488281</ele>
        <time>2021-03-21T09:33:24.000Z</time>
      </trkpt>
      <trkpt lat="44.99919" lon="6.03133">
        <ele>2030</ele>
        <time>2021-03-21T09:33:25.000Z</time>
      </trkpt>
      <trkpt lat="44.99919" lon="6.03133">
        <ele>2030</ele>
        <time>2021-03-21T09:33:26.000Z</time>
      </trkpt>
      <trkpt lat="44.99918" lon="6.03132">
        <ele>2030</ele>
        <time>2021-03-21T09:33:27.000Z</time>
      </trkpt>
      <trkpt lat="44.99918" lon="6.03132">
        <ele>2030</ele>
        <time>2021-03-21T09:33:28.000Z</time>
      </trkpt>
      <trkpt lat="44.99918" lon="6.03132">
        <ele>2030.1999511719</ele>
        <time>2021-03-21T09:33:29.000Z</time>
      </trkpt>
      <trkpt lat="44.99917" lon="6.03131">
        <ele>2030.1999511719</ele>
        <time>2021-03-21T09:33:30.000Z</time>
      </trkpt>
      <trkpt lat="44.99916" lon="6.03131">
        <ele>2030.4000244141</ele>
        <time>2021-03-21T09:33:31.000Z</time>
      </trkpt>
      <trkpt lat="44.99916" lon="6.0313">
        <ele>2030.5999755859</ele>
        <time>2021-03-21T09:33:32.000Z</time>
      </trkpt>
      <trkpt lat="44.99916" lon="6.0313">
        <ele>2030.5999755859</ele>
        <time>2021-03-21T09:33:33.000Z</time>
      </trkpt>
      <trkpt lat="44.99915" lon="6.03129">
        <ele>2030.8000488281</ele>
        <time>2021-03-21T09:33:34.000Z</time>
      </trkpt>
      <trkpt lat="44.99915" lon="6.03129">
        <ele>2030.8000488281</ele>
        <time>2021-03-21T09:33:35.000Z</time>
      </trkpt>
      <trkpt lat="44.99914" lon="6.03129">
        <ele>2030.8000488281</ele>
        <time>2021-03-21T09:33:36.000Z</time>
      </trkpt>
      <trkpt lat="44.99914" lon="6.03128">
        <ele>2031</ele>
        <time>2021-03-21T09:33:37.000Z</time>
      </trkpt>
      <trkpt lat="44.99913" lon="6.03128">
        <ele>2031.1999511719</ele>
        <time>2021-03-21T09:33:38.000Z</time>
      </trkpt>
      <trkpt lat="44.99913" lon="6.03127">
        <ele>2031.1999511719</ele>
        <time>2021-03-21T09:33:39.000Z</time>
      </trkpt>
      <trkpt lat="44.99912" lon="6.03127">
        <ele>2031.1999511719</ele>
        <time>2021-03-21T09:33:40.000Z</time>
      </trkpt>
      <trkpt lat="44.99912" lon="6.03127">
        <ele>2031.4000244141</ele>
        <time>2021-03-21T09:33:41.000Z</time>
      </trkpt>
      <trkpt lat="44.99911" lon="6.03126">
        <ele>2031.5999755859</ele>
        <time>2021-03-21T09:33:42.000Z</time>
      </trkpt>
      <trkpt lat="44.99911" lon="6.03126">
        <ele>2031.5999755859</ele>
        <time>2021-03-21T09:33:43.000Z</time>
      </trkpt>
      <trkpt lat="44.99911" lon="6.03125">
        <ele>2032</ele>
        <time>2021-03-21T09:33:44.000Z</time>
      </trkpt>
      <trkpt lat="44.99911" lon="6.03124">
        <ele>2032</ele>
        <time>2021-03-21T09:33:45.000Z</time>
      </trkpt>
      <trkpt lat="44.99911" lon="6.03124">
        <ele>2032.1999511719</ele>
        <time>2021-03-21T09:33:46.000Z</time>
      </trkpt>
      <trkpt lat="44.9991" lon="6.03123">
        <ele>2032.4000244141</ele>
        <time>2021-03-21T09:33:47.000Z</time>
      </trkpt>
      <trkpt lat="44.9991" lon="6.03123">
        <ele>2032.4000244141</ele>
        <time>2021-03-21T09:33:48.000Z</time>
      </trkpt>
      <trkpt lat="44.99909" lon="6.03122">
        <ele>2032.5999755859</ele>
        <time>2021-03-21T09:33:49.000Z</time>
      </trkpt>
      <trkpt lat="44.99909" lon="6.03122">
        <ele>2032.8000488281</ele>
        <time>2021-03-21T09:33:50.000Z</time>
      </trkpt>
      <trkpt lat="44.99909" lon="6.03121">
        <ele>2033</ele>
        <time>2021-03-21T09:33:51.000Z</time>
      </trkpt>
      <trkpt lat="44.99908" lon="6.03121">
        <ele>2033.1999511719</ele>
        <time>2021-03-21T09:33:52.000Z</time>
      </trkpt>
      <trkpt lat="44.99908" lon="6.0312">
        <ele>2033.4000244141</ele>
        <time>2021-03-21T09:33:53.000Z</time>
      </trkpt>
      <trkpt lat="44.99908" lon="6.03119">
        <ele>2033.4000244141</ele>
        <time>2021-03-21T09:33:54.000Z</time>
      </trkpt>
      <trkpt lat="44.99907" lon="6.03119">
        <ele>2033.5999755859</ele>
        <time>2021-03-21T09:33:55.000Z</time>
      </trkpt>
      <trkpt lat="44.99907" lon="6.03118">
        <ele>2033.8000488281</ele>
        <time>2021-03-21T09:33:56.000Z</time>
      </trkpt>
      <trkpt lat="44.99906" lon="6.03118">
        <ele>2033.8000488281</ele>
        <time>2021-03-21T09:33:57.000Z</time>
      </trkpt>
      <trkpt lat="44.99906" lon="6.03118">
        <ele>2034</ele>
        <time>2021-03-21T09:33:58.000Z</time>
      </trkpt>
      <trkpt lat="44.99906" lon="6.03117">
        <ele>2034</ele>
        <time>2021-03-21T09:33:59.000Z</time>
      </trkpt>
      <trkpt lat="44.99905" lon="6.03117">
        <ele>2034.1999511719</ele>
        <time>2021-03-21T09:34:00.000Z</time>
      </trkpt>
      <trkpt lat="44.99905" lon="6.03116">
        <ele>2034.4000244141</ele>
        <time>2021-03-21T09:34:01.000Z</time>
      </trkpt>
      <trkpt lat="44.99904" lon="6.03115">
        <ele>2034.5999755859</ele>
        <time>2021-03-21T09:34:02.000Z</time>
      </trkpt>
      <trkpt lat="44.99904" lon="6.03115">
        <ele>2034.5999755859</ele>
        <time>2021-03-21T09:34:03.000Z</time>
      </trkpt>
      <trkpt lat="44.99903" lon="6.03114">
        <ele>2034.8000488281</ele>
        <time>2021-03-21T09:34:04.000Z</time>
      </trkpt>
      <trkpt lat="44.99903" lon="6.03114">
        <ele>2035</ele>
        <time>2021-03-21T09:34:05.000Z</time>
      </trkpt>
      <trkpt lat="44.99903" lon="6.03113">
        <ele>2035.1999511719</ele>
        <time>2021-03-21T09:34:06.000Z</time>
      </trkpt>
      <trkpt lat="44.99902" lon="6.03112">
        <ele>2035.1999511719</ele>
        <time>2021-03-21T09:34:07.000Z</time>
      </trkpt>
      <trkpt lat="44.99902" lon="6.03112">
        <ele>2035.1999511719</ele>
        <time>2021-03-21T09:34:08.000Z</time>
      </trkpt>
      <trkpt lat="44.99901" lon="6.03112">
        <ele>2035.1999511719</ele>
        <time>2021-03-21T09:34:09.000Z</time>
      </trkpt>
      <trkpt lat="44.99901" lon="6.03111">
        <ele>2035.4000244141</ele>
        <time>2021-03-21T09:34:10.000Z</time>
      </trkpt>
      <trkpt lat="44.999" lon="6.03111">
        <ele>2035.4000244141</ele>
        <time>2021-03-21T09:34:11.000Z</time>
      </trkpt>
      <trkpt lat="44.999" lon="6.03111">
        <ele>2035.4000244141</ele>
        <time>2021-03-21T09:34:12.000Z</time>
      </trkpt>
      <trkpt lat="44.99899" lon="6.0311">
        <ele>2035.4000244141</ele>
        <time>2021-03-21T09:34:13.000Z</time>
      </trkpt>
      <trkpt lat="44.99899" lon="6.0311">
        <ele>2035.5999755859</ele>
        <time>2021-03-21T09:34:14.000Z</time>
      </trkpt>
      <trkpt lat="44.99898" lon="6.03109">
        <ele>2035.8000488281</ele>
        <time>2021-03-21T09:34:15.000Z</time>
      </trkpt>
      <trkpt lat="44.99898" lon="6.03109">
        <ele>2035.5999755859</ele>
        <time>2021-03-21T09:34:16.000Z</time>
      </trkpt>
      <trkpt lat="44.99897" lon="6.03109">
        <ele>2035.5999755859</ele>
        <time>2021-03-21T09:34:17.000Z</time>
      </trkpt>
      <trkpt lat="44.99897" lon="6.03108">
        <ele>2035.8000488281</ele>
        <time>2021-03-21T09:34:18.000Z</time>
      </trkpt>
      <trkpt lat="44.99896" lon="6.03108">
        <ele>2035.8000488281</ele>
        <time>2021-03-21T09:34:19.000Z</time>
      </trkpt>
      <trkpt lat="44.99896" lon="6.03107">
        <ele>2035.8000488281</ele>
        <time>2021-03-21T09:34:20.000Z</time>
      </trkpt>
      <trkpt lat="44.99895" lon="6.03107">
        <ele>2035.8000488281</ele>
        <time>2021-03-21T09:34:21.000Z</time>
      </trkpt>
      <trkpt lat="44.99895" lon="6.03106">
        <ele>2036</ele>
        <time>2021-03-21T09:34:22.000Z</time>
      </trkpt>
      <trkpt lat="44.99895" lon="6.03106">
        <ele>2036.1999511719</ele>
        <time>2021-03-21T09:34:23.000Z</time>
      </trkpt>
      <trkpt lat="44.99895" lon="6.03106">
        <ele>2036.1999511719</ele>
        <time>2021-03-21T09:34:24.000Z</time>
      </trkpt>
      <trkpt lat="44.99895" lon="6.03106">
        <ele>2036.1999511719</ele>
        <time>2021-03-21T09:34:25.000Z</time>
      </trkpt>
      <trkpt lat="44.99896" lon="6.03105">
        <ele>2036.4000244141</ele>
        <time>2021-03-21T09:34:26.000Z</time>
      </trkpt>
      <trkpt lat="44.99896" lon="6.03105">
        <ele>2036.4000244141</ele>
        <time>2021-03-21T09:34:27.000Z</time>
      </trkpt>
      <trkpt lat="44.99896" lon="6.03105">
        <ele>2036.5999755859</ele>
        <time>2021-03-21T09:34:28.000Z</time>
      </trkpt>
      <trkpt lat="44.99896" lon="6.03105">
        <ele>2036.5999755859</ele>
        <time>2021-03-21T09:34:29.000Z</time>
      </trkpt>
      <trkpt lat="44.99897" lon="6.03104">
        <ele>2037</ele>
        <time>2021-03-21T09:34:30.000Z</time>
      </trkpt>
      <trkpt lat="44.99897" lon="6.03103">
        <ele>2037.1999511719</ele>
        <time>2021-03-21T09:34:31.000Z</time>
      </trkpt>
      <trkpt lat="44.99898" lon="6.03102">
        <ele>2037.8000488281</ele>
        <time>2021-03-21T09:34:32.000Z</time>
      </trkpt>
      <trkpt lat="44.99898" lon="6.03102">
        <ele>2038</ele>
        <time>2021-03-21T09:34:33.000Z</time>
      </trkpt>
      <trkpt lat="44.99899" lon="6.03101">
        <ele>2038.5999755859</ele>
        <time>2021-03-21T09:34:34.000Z</time>
      </trkpt>
      <trkpt lat="44.999" lon="6.031">
        <ele>2039</ele>
        <time>2021-03-21T09:34:35.000Z</time>
      </trkpt>
      <trkpt lat="44.999" lon="6.03099">
        <ele>2039.1999511719</ele>
        <time>2021-03-21T09:34:36.000Z</time>
      </trkpt>
      <trkpt lat="44.99901" lon="6.03099">
        <ele>2039.5999755859</ele>
        <time>2021-03-21T09:34:37.000Z</time>
      </trkpt>
      <trkpt lat="44.99902" lon="6.03098">
        <ele>2039.8000488281</ele>
        <time>2021-03-21T09:34:38.000Z</time>
      </trkpt>
      <trkpt lat="44.99902" lon="6.03097">
        <ele>2040.4000244141</ele>
        <time>2021-03-21T09:34:39.000Z</time>
      </trkpt>
      <trkpt lat="44.99902" lon="6.03097">
        <ele>2040.5999755859</ele>
        <time>2021-03-21T09:34:40.000Z</time>
      </trkpt>
      <trkpt lat="44.99903" lon="6.03096">
        <ele>2041.1999511719</ele>
        <time>2021-03-21T09:34:41.000Z</time>
      </trkpt>
      <trkpt lat="44.99904" lon="6.03095">
        <ele>2041.4000244141</ele>
        <time>2021-03-21T09:34:42.000Z</time>
      </trkpt>
      <trkpt lat="44.99904" lon="6.03094">
        <ele>2042</ele>
        <time>2021-03-21T09:34:43.000Z</time>
      </trkpt>
      <trkpt lat="44.99904" lon="6.03094">
        <ele>2042.4000244141</ele>
        <time>2021-03-21T09:34:44.000Z</time>
      </trkpt>
      <trkpt lat="44.99905" lon="6.03093">
        <ele>2042.8000488281</ele>
        <time>2021-03-21T09:34:45.000Z</time>
      </trkpt>
      <trkpt lat="44.99905" lon="6.03092">
        <ele>2043.1999511719</ele>
        <time>2021-03-21T09:34:46.000Z</time>
      </trkpt>
      <trkpt lat="44.99906" lon="6.03091">
        <ele>2043.5999755859</ele>
        <time>2021-03-21T09:34:47.000Z</time>
      </trkpt>
      <trkpt lat="44.99906" lon="6.03091">
        <ele>2044</ele>
        <time>2021-03-21T09:34:48.000Z</time>
      </trkpt>
      <trkpt lat="44.99907" lon="6.0309">
        <ele>2044.4000244141</ele>
        <time>2021-03-21T09:34:49.000Z</time>
      </trkpt>
      <trkpt lat="44.99907" lon="6.0309">
        <ele>2044.8000488281</ele>
        <time>2021-03-21T09:34:50.000Z</time>
      </trkpt>
      <trkpt lat="44.99908" lon="6.03089">
        <ele>2045</ele>
        <time>2021-03-21T09:34:51.000Z</time>
      </trkpt>
      <trkpt lat="44.99908" lon="6.03089">
        <ele>2045.4000244141</ele>
        <time>2021-03-21T09:34:52.000Z</time>
      </trkpt>
      <trkpt lat="44.99909" lon="6.03088">
        <ele>2045.5999755859</ele>
        <time>2021-03-21T09:34:53.000Z</time>
      </trkpt>
      <trkpt lat="44.99909" lon="6.03087">
        <ele>2046.1999511719</ele>
        <time>2021-03-21T09:34:54.000Z</time>
      </trkpt>
      <trkpt lat="44.9991" lon="6.03087">
        <ele>2046.4000244141</ele>
        <time>2021-03-21T09:34:55.000Z</time>
      </trkpt>
      <trkpt lat="44.9991" lon="6.03086">
        <ele>2046.8000488281</ele>
        <time>2021-03-21T09:34:56.000Z</time>
      </trkpt>
      <trkpt lat="44.99911" lon="6.03086">
        <ele>2047</ele>
        <time>2021-03-21T09:34:57.000Z</time>
      </trkpt>
      <trkpt lat="44.99911" lon="6.03085">
        <ele>2047.5999755859</ele>
        <time>2021-03-21T09:34:58.000Z</time>
      </trkpt>
      <trkpt lat="44.99912" lon="6.03085">
        <ele>2047.8000488281</ele>
        <time>2021-03-21T09:34:59.000Z</time>
      </trkpt>
      <trkpt lat="44.99913" lon="6.03085">
        <ele>2048</ele>
        <time>2021-03-21T09:35:00.000Z</time>
      </trkpt>
      <trkpt lat="44.99913" lon="6.03085">
        <ele>2048.1999511719</ele>
        <time>2021-03-21T09:35:01.000Z</time>
      </trkpt>
      <trkpt lat="44.99914" lon="6.03084">
        <ele>2048.6000976562</ele>
        <time>2021-03-21T09:35:02.000Z</time>
      </trkpt>
      <trkpt lat="44.99914" lon="6.03084">
        <ele>2048.8000488281</ele>
        <time>2021-03-21T09:35:03.000Z</time>
      </trkpt>
      <trkpt lat="44.99915" lon="6.03083">
        <ele>2049</ele>
        <time>2021-03-21T09:35:04.000Z</time>
      </trkpt>
      <trkpt lat="44.99915" lon="6.03083">
        <ele>2049.3999023438</ele>
        <time>2021-03-21T09:35:05.000Z</time>
      </trkpt>
      <trkpt lat="44.99916" lon="6.03082">
        <ele>2049.6000976562</ele>
        <time>2021-03-21T09:35:06.000Z</time>
      </trkpt>
      <trkpt lat="44.99916" lon="6.03082">
        <ele>2050.1999511719</ele>
        <time>2021-03-21T09:35:07.000Z</time>
      </trkpt>
      <trkpt lat="44.99917" lon="6.03082">
        <ele>2050.1999511719</ele>
        <time>2021-03-21T09:35:08.000Z</time>
      </trkpt>
      <trkpt lat="44.99917" lon="6.03082">
        <ele>2050.6000976562</ele>
        <time>2021-03-21T09:35:09.000Z</time>
      </trkpt>
      <trkpt lat="44.99918" lon="6.03081">
        <ele>2050.8000488281</ele>
        <time>2021-03-21T09:35:10.000Z</time>
      </trkpt>
      <trkpt lat="44.99918" lon="6.03081">
        <ele>2051.1999511719</ele>
        <time>2021-03-21T09:35:11.000Z</time>
      </trkpt>
      <trkpt lat="44.99919" lon="6.0308">
        <ele>2051.3999023438</ele>
        <time>2021-03-21T09:35:12.000Z</time>
      </trkpt>
      <trkpt lat="44.99919" lon="6.0308">
        <ele>2052</ele>
        <time>2021-03-21T09:35:13.000Z</time>
      </trkpt>
      <trkpt lat="44.9992" lon="6.03079">
        <ele>2052.3999023438</ele>
        <time>2021-03-21T09:35:14.000Z</time>
      </trkpt>
      <trkpt lat="44.9992" lon="6.03078">
        <ele>2052.8000488281</ele>
        <time>2021-03-21T09:35:15.000Z</time>
      </trkpt>
      <trkpt lat="44.99921" lon="6.03077">
        <ele>2053.3999023438</ele>
        <time>2021-03-21T09:35:16.000Z</time>
      </trkpt>
      <trkpt lat="44.99922" lon="6.03077">
        <ele>2053.8000488281</ele>
        <time>2021-03-21T09:35:17.000Z</time>
      </trkpt>
      <trkpt lat="44.99922" lon="6.03076">
        <ele>2054.1999511719</ele>
        <time>2021-03-21T09:35:18.000Z</time>
      </trkpt>
      <trkpt lat="44.99923" lon="6.03076">
        <ele>2054.6000976562</ele>
        <time>2021-03-21T09:35:19.000Z</time>
      </trkpt>
      <trkpt lat="44.99923" lon="6.03075">
        <ele>2055</ele>
        <time>2021-03-21T09:35:20.000Z</time>
      </trkpt>
      <trkpt lat="44.99923" lon="6.03075">
        <ele>2055.1999511719</ele>
        <time>2021-03-21T09:35:21.000Z</time>
      </trkpt>
      <trkpt lat="44.99924" lon="6.03074">
        <ele>2055.6000976562</ele>
        <time>2021-03-21T09:35:22.000Z</time>
      </trkpt>
      <trkpt lat="44.99924" lon="6.03074">
        <ele>2055.8000488281</ele>
        <time>2021-03-21T09:35:23.000Z</time>
      </trkpt>
      <trkpt lat="44.99925" lon="6.03073">
        <ele>2056.3999023438</ele>
        <time>2021-03-21T09:35:24.000Z</time>
      </trkpt>
      <trkpt lat="44.99926" lon="6.03073">
        <ele>2056.8000488281</ele>
        <time>2021-03-21T09:35:25.000Z</time>
      </trkpt>
      <trkpt lat="44.99926" lon="6.03072">
        <ele>2057</ele>
        <time>2021-03-21T09:35:26.000Z</time>
      </trkpt>
      <trkpt lat="44.99926" lon="6.03072">
        <ele>2057.3999023438</ele>
        <time>2021-03-21T09:35:27.000Z</time>
      </trkpt>
      <trkpt lat="44.99927" lon="6.03071">
        <ele>2057.6000976562</ele>
        <time>2021-03-21T09:35:28.000Z</time>
      </trkpt>
      <trkpt lat="44.99927" lon="6.03071">
        <ele>2058</ele>
        <time>2021-03-21T09:35:29.000Z</time>
      </trkpt>
      <trkpt lat="44.99927" lon="6.0307">
        <ele>2058.1999511719</ele>
        <time>2021-03-21T09:35:30.000Z</time>
      </trkpt>
      <trkpt lat="44.99927" lon="6.0307">
        <ele>2058.3999023438</ele>
        <time>2021-03-21T09:35:31.000Z</time>
      </trkpt>
      <trkpt lat="44.99928" lon="6.0307">
        <ele>2058.6000976562</ele>
        <time>2021-03-21T09:35:32.000Z</time>
      </trkpt>
      <trkpt lat="44.99928" lon="6.0307">
        <ele>2059</ele>
        <time>2021-03-21T09:35:33.000Z</time>
      </trkpt>
      <trkpt lat="44.99929" lon="6.03069">
        <ele>2059.1999511719</ele>
        <time>2021-03-21T09:35:34.000Z</time>
      </trkpt>
      <trkpt lat="44.99929" lon="6.03069">
        <ele>2059.6000976562</ele>
        <time>2021-03-21T09:35:35.000Z</time>
      </trkpt>
      <trkpt lat="44.9993" lon="6.03068">
        <ele>2059.8000488281</ele>
        <time>2021-03-21T09:35:36.000Z</time>
      </trkpt>
      <trkpt lat="44.9993" lon="6.03068">
        <ele>2060.1999511719</ele>
        <time>2021-03-21T09:35:37.000Z</time>
      </trkpt>
      <trkpt lat="44.9993" lon="6.03068">
        <ele>2060.1999511719</ele>
        <time>2021-03-21T09:35:38.000Z</time>
      </trkpt>
      <trkpt lat="44.9993" lon="6.03067">
        <ele>2060.1999511719</ele>
        <time>2021-03-21T09:35:39.000Z</time>
      </trkpt>
      <trkpt lat="44.9993" lon="6.03068">
        <ele>2060.1999511719</ele>
        <time>2021-03-21T09:35:40.000Z</time>
      </trkpt>
      <trkpt lat="44.9993" lon="6.03067">
        <ele>2060.3999023438</ele>
        <time>2021-03-21T09:35:41.000Z</time>
      </trkpt>
      <trkpt lat="44.9993" lon="6.03068">
        <ele>2060</ele>
        <time>2021-03-21T09:35:42.000Z</time>
      </trkpt>
      <trkpt lat="44.9993" lon="6.03069">
        <ele>2059.6000976562</ele>
        <time>2021-03-21T09:35:43.000Z</time>
      </trkpt>
      <trkpt lat="44.9993" lon="6.0307">
        <ele>2059.1999511719</ele>
        <time>2021-03-21T09:35:44.000Z</time>
      </trkpt>
      <trkpt lat="44.9993" lon="6.0307">
        <ele>2059.1999511719</ele>
        <time>2021-03-21T09:35:45.000Z</time>
      </trkpt>
      <trkpt lat="44.9993" lon="6.0307">
        <ele>2059</ele>
        <time>2021-03-21T09:35:46.000Z</time>
      </trkpt>
      <trkpt lat="44.9993" lon="6.0307">
        <ele>2059.1999511719</ele>
        <time>2021-03-21T09:35:47.000Z</time>
      </trkpt>
      <trkpt lat="44.9993" lon="6.0307">
        <ele>2059</ele>
        <time>2021-03-21T09:35:48.000Z</time>
      </trkpt>
      <trkpt lat="44.9993" lon="6.0307">
        <ele>2059</ele>
        <time>2021-03-21T09:35:49.000Z</time>
      </trkpt>
      <trkpt lat="44.9993" lon="6.0307">
        <ele>2059.1999511719</ele>
        <time>2021-03-21T09:35:50.000Z</time>
      </trkpt>
      <trkpt lat="44.9993" lon="6.0307">
        <ele>2059.1999511719</ele>
        <time>2021-03-21T09:35:51.000Z</time>
      </trkpt>
      <trkpt lat="44.9993" lon="6.0307">
        <ele>2059.1999511719</ele>
        <time>2021-03-21T09:35:52.000Z</time>
      </trkpt>
      <trkpt lat="44.9993" lon="6.0307">
        <ele>2059</ele>
        <time>2021-03-21T09:35:53.000Z</time>
      </trkpt>
      <trkpt lat="44.9993" lon="6.0307">
        <ele>2058.8000488281</ele>
        <time>2021-03-21T09:35:54.000Z</time>
      </trkpt>
      <trkpt lat="44.99929" lon="6.0307">
        <ele>2059</ele>
        <time>2021-03-21T09:35:55.000Z</time>
      </trkpt>
      <trkpt lat="44.99929" lon="6.0307">
        <ele>2058.6000976562</ele>
        <time>2021-03-21T09:35:56.000Z</time>
      </trkpt>
      <trkpt lat="44.99928" lon="6.03071">
        <ele>2058.1999511719</ele>
        <time>2021-03-21T09:35:57.000Z</time>
      </trkpt>
      <trkpt lat="44.99928" lon="6.03071">
        <ele>2058</ele>
        <time>2021-03-21T09:35:58.000Z</time>
      </trkpt>
      <trkpt lat="44.99927" lon="6.03072">
        <ele>2057.6000976562</ele>
        <time>2021-03-21T09:35:59.000Z</time>
      </trkpt>
      <trkpt lat="44.99927" lon="6.03072">
        <ele>2057.6000976562</ele>
        <time>2021-03-21T09:36:00.000Z</time>
      </trkpt>
      <trkpt lat="44.99927" lon="6.03071">
        <ele>2057.8000488281</ele>
        <time>2021-03-21T09:36:01.000Z</time>
      </trkpt>
      <trkpt lat="44.99927" lon="6.03072">
        <ele>2057.6000976562</ele>
        <time>2021-03-21T09:36:02.000Z</time>
      </trkpt>
      <trkpt lat="44.99927" lon="6.03072">
        <ele>2057.3999023438</ele>
        <time>2021-03-21T09:36:03.000Z</time>
      </trkpt>
      <trkpt lat="44.99926" lon="6.03072">
        <ele>2057.3999023438</ele>
        <time>2021-03-21T09:36:04.000Z</time>
      </trkpt>
      <trkpt lat="44.99926" lon="6.03072">
        <ele>2057.1999511719</ele>
        <time>2021-03-21T09:36:05.000Z</time>
      </trkpt>
      <trkpt lat="44.99926" lon="6.03072">
        <ele>2057.1999511719</ele>
        <time>2021-03-21T09:36:06.000Z</time>
      </trkpt>
      <trkpt lat="44.99926" lon="6.03072">
        <ele>2057.1999511719</ele>
        <time>2021-03-21T09:36:07.000Z</time>
      </trkpt>
      <trkpt lat="44.99926" lon="6.03071">
        <ele>2057.6000976562</ele>
        <time>2021-03-21T09:36:08.000Z</time>
      </trkpt>
      <trkpt lat="44.99926" lon="6.03072">
        <ele>2057.3999023438</ele>
        <time>2021-03-21T09:36:09.000Z</time>
      </trkpt>
      <trkpt lat="44.99925" lon="6.03072">
        <ele>2057</ele>
        <time>2021-03-21T09:36:10.000Z</time>
      </trkpt>
      <trkpt lat="44.99925" lon="6.03072">
        <ele>2057</ele>
        <time>2021-03-21T09:36:11.000Z</time>
      </trkpt>
      <trkpt lat="44.99925" lon="6.03072">
        <ele>2057</ele>
        <time>2021-03-21T09:36:12.000Z</time>
      </trkpt>
      <trkpt lat="44.99925" lon="6.03072">
        <ele>2057</ele>
        <time>2021-03-21T09:36:13.000Z</time>
      </trkpt>
      <trkpt lat="44.99925" lon="6.03073">
        <ele>2056.8000488281</ele>
        <time>2021-03-21T09:36:14.000Z</time>
      </trkpt>
      <trkpt lat="44.99925" lon="6.03073">
        <ele>2056.6000976562</ele>
        <time>2021-03-21T09:36:15.000Z</time>
      </trkpt>
      <trkpt lat="44.99925" lon="6.03073">
        <ele>2056.6000976562</ele>
        <time>2021-03-21T09:36:16.000Z</time>
      </trkpt>
      <trkpt lat="44.99926" lon="6.03073">
        <ele>2056.6000976562</ele>
        <time>2021-03-21T09:36:17.000Z</time>
      </trkpt>
      <trkpt lat="44.99926" lon="6.03073">
        <ele>2056.3999023438</ele>
        <time>2021-03-21T09:36:18.000Z</time>
      </trkpt>
      <trkpt lat="44.99926" lon="6.03073">
        <ele>2056.6000976562</ele>
        <time>2021-03-21T09:36:19.000Z</time>
      </trkpt>
      <trkpt lat="44.99926" lon="6.03073">
        <ele>2056.6000976562</ele>
        <time>2021-03-21T09:36:20.000Z</time>
      </trkpt>
      <trkpt lat="44.99926" lon="6.03073">
        <ele>2056.6000976562</ele>
        <time>2021-03-21T09:36:21.000Z</time>
      </trkpt>
      <trkpt lat="44.99926" lon="6.03072">
        <ele>2057</ele>
        <time>2021-03-21T09:36:22.000Z</time>
      </trkpt>
      <trkpt lat="44.99926" lon="6.03072">
        <ele>2057.1999511719</ele>
        <time>2021-03-21T09:36:23.000Z</time>
      </trkpt>
      <trkpt lat="44.99926" lon="6.03072">
        <ele>2057</ele>
        <time>2021-03-21T09:36:24.000Z</time>
      </trkpt>
      <trkpt lat="44.99926" lon="6.03072">
        <ele>2057.1999511719</ele>
        <time>2021-03-21T09:36:25.000Z</time>
      </trkpt>
      <trkpt lat="44.99926" lon="6.03072">
        <ele>2057.1999511719</ele>
        <time>2021-03-21T09:36:26.000Z</time>
      </trkpt>
      <trkpt lat="44.99926" lon="6.03072">
        <ele>2057.1999511719</ele>
        <time>2021-03-21T09:36:27.000Z</time>
      </trkpt>
      <trkpt lat="44.99926" lon="6.03072">
        <ele>2057.1999511719</ele>
        <time>2021-03-21T09:36:28.000Z</time>
      </trkpt>
      <trkpt lat="44.99925" lon="6.03072">
        <ele>2057.1999511719</ele>
        <time>2021-03-21T09:36:29.000Z</time>
      </trkpt>
      <trkpt lat="44.99925" lon="6.03072">
        <ele>2057</ele>
        <time>2021-03-21T09:36:30.000Z</time>
      </trkpt>
      <trkpt lat="44.99925" lon="6.03072">
        <ele>2057</ele>
        <time>2021-03-21T09:36:31.000Z</time>
      </trkpt>
      <trkpt lat="44.99925" lon="6.03072">
        <ele>2057</ele>
        <time>2021-03-21T09:36:32.000Z</time>
      </trkpt>
      <trkpt lat="44.99925" lon="6.03072">
        <ele>2057</ele>
        <time>2021-03-21T09:36:33.000Z</time>
      </trkpt>
      <trkpt lat="44.99924" lon="6.03072">
        <ele>2056.8000488281</ele>
        <time>2021-03-21T09:36:34.000Z</time>
      </trkpt>
      <trkpt lat="44.99924" lon="6.03072">
        <ele>2056.8000488281</ele>
        <time>2021-03-21T09:36:35.000Z</time>
      </trkpt>
      <trkpt lat="44.99924" lon="6.03072">
        <ele>2056.6000976562</ele>
        <time>2021-03-21T09:36:36.000Z</time>
      </trkpt>
      <trkpt lat="44.99924" lon="6.03072">
        <ele>2056.6000976562</ele>
        <time>2021-03-21T09:36:37.000Z</time>
      </trkpt>
      <trkpt lat="44.99924" lon="6.03072">
        <ele>2056.6000976562</ele>
        <time>2021-03-21T09:36:38.000Z</time>
      </trkpt>
      <trkpt lat="44.99924" lon="6.03071">
        <ele>2057</ele>
        <time>2021-03-21T09:36:39.000Z</time>
      </trkpt>
      <trkpt lat="44.99924" lon="6.03071">
        <ele>2057</ele>
        <time>2021-03-21T09:36:40.000Z</time>
      </trkpt>
      <trkpt lat="44.99924" lon="6.03071">
        <ele>2057</ele>
        <time>2021-03-21T09:36:41.000Z</time>
      </trkpt>
      <trkpt lat="44.99923" lon="6.03071">
        <ele>2057</ele>
        <time>2021-03-21T09:36:42.000Z</time>
      </trkpt>
      <trkpt lat="44.99923" lon="6.03071">
        <ele>2057.1999511719</ele>
        <time>2021-03-21T09:36:43.000Z</time>
      </trkpt>
      <trkpt lat="44.99924" lon="6.03071">
        <ele>2057.1999511719</ele>
        <time>2021-03-21T09:36:44.000Z</time>
      </trkpt>
      <trkpt lat="44.99924" lon="6.03072">
        <ele>2057</ele>
        <time>2021-03-21T09:36:45.000Z</time>
      </trkpt>
      <trkpt lat="44.99924" lon="6.03072">
        <ele>2056.8000488281</ele>
        <time>2021-03-21T09:36:46.000Z</time>
      </trkpt>
      <trkpt lat="44.99924" lon="6.03072">
        <ele>2056.6000976562</ele>
        <time>2021-03-21T09:36:47.000Z</time>
      </trkpt>
      <trkpt lat="44.99924" lon="6.03072">
        <ele>2056.8000488281</ele>
        <time>2021-03-21T09:36:48.000Z</time>
      </trkpt>
      <trkpt lat="44.99925" lon="6.03072">
        <ele>2057</ele>
        <time>2021-03-21T09:36:49.000Z</time>
      </trkpt>
      <trkpt lat="44.99925" lon="6.03071">
        <ele>2057.1999511719</ele>
        <time>2021-03-21T09:36:50.000Z</time>
      </trkpt>
      <trkpt lat="44.99925" lon="6.03071">
        <ele>2057.3999023438</ele>
        <time>2021-03-21T09:36:51.000Z</time>
      </trkpt>
      <trkpt lat="44.99925" lon="6.03071">
        <ele>2057.1999511719</ele>
        <time>2021-03-21T09:36:52.000Z</time>
      </trkpt>
      <trkpt lat="44.99925" lon="6.03072">
        <ele>2057.1999511719</ele>
        <time>2021-03-21T09:36:53.000Z</time>
      </trkpt>
      <trkpt lat="44.99925" lon="6.03071">
        <ele>2057.1999511719</ele>
        <time>2021-03-21T09:36:54.000Z</time>
      </trkpt>
      <trkpt lat="44.99925" lon="6.03071">
        <ele>2057.1999511719</ele>
        <time>2021-03-21T09:36:55.000Z</time>
      </trkpt>
      <trkpt lat="44.99925" lon="6.03072">
        <ele>2057</ele>
        <time>2021-03-21T09:36:56.000Z</time>
      </trkpt>
      <trkpt lat="44.99925" lon="6.03072">
        <ele>2056.8000488281</ele>
        <time>2021-03-21T09:36:57.000Z</time>
      </trkpt>
      <trkpt lat="44.99925" lon="6.03072">
        <ele>2056.8000488281</ele>
        <time>2021-03-21T09:36:58.000Z</time>
      </trkpt>
      <trkpt lat="44.99925" lon="6.03072">
        <ele>2057</ele>
        <time>2021-03-21T09:36:59.000Z</time>
      </trkpt>
      <trkpt lat="44.99925" lon="6.03072">
        <ele>2057</ele>
        <time>2021-03-21T09:37:00.000Z</time>
      </trkpt>
      <trkpt lat="44.99925" lon="6.03072">
        <ele>2057</ele>
        <time>2021-03-21T09:37:01.000Z</time>
      </trkpt>
      <trkpt lat="44.99925" lon="6.03072">
        <ele>2056.8000488281</ele>
        <time>2021-03-21T09:37:02.000Z</time>
      </trkpt>
      <trkpt lat="44.99925" lon="6.03072">
        <ele>2056.8000488281</ele>
        <time>2021-03-21T09:37:03.000Z</time>
      </trkpt>
      <trkpt lat="44.99925" lon="6.03072">
        <ele>2057</ele>
        <time>2021-03-21T09:37:04.000Z</time>
      </trkpt>
      <trkpt lat="44.99925" lon="6.03072">
        <ele>2057</ele>
        <time>2021-03-21T09:37:05.000Z</time>
      </trkpt>
      <trkpt lat="44.99925" lon="6.03072">
        <ele>2057</ele>
        <time>2021-03-21T09:37:06.000Z</time>
      </trkpt>
      <trkpt lat="44.99925" lon="6.03072">
        <ele>2057</ele>
        <time>2021-03-21T09:37:07.000Z</time>
      </trkpt>
      <trkpt lat="44.99925" lon="6.03072">
        <ele>2057</ele>
        <time>2021-03-21T09:37:08.000Z</time>
      </trkpt>
      <trkpt lat="44.99925" lon="6.03072">
        <ele>2057.1999511719</ele>
        <time>2021-03-21T09:37:09.000Z</time>
      </trkpt>
      <trkpt lat="44.99925" lon="6.03071">
        <ele>2057.3999023438</ele>
        <time>2021-03-21T09:37:10.000Z</time>
      </trkpt>
      <trkpt lat="44.99925" lon="6.03072">
        <ele>2057.1999511719</ele>
        <time>2021-03-21T09:37:11.000Z</time>
      </trkpt>
      <trkpt lat="44.99925" lon="6.03072">
        <ele>2057.1999511719</ele>
        <time>2021-03-21T09:37:12.000Z</time>
      </trkpt>
      <trkpt lat="44.99925" lon="6.03072">
        <ele>2057</ele>
        <time>2021-03-21T09:37:13.000Z</time>
      </trkpt>
      <trkpt lat="44.99925" lon="6.03072">
        <ele>2057</ele>
        <time>2021-03-21T09:37:14.000Z</time>
      </trkpt>
      <trkpt lat="44.99925" lon="6.03072">
        <ele>2057</ele>
        <time>2021-03-21T09:37:15.000Z</time>
      </trkpt>
      <trkpt lat="44.99925" lon="6.03072">
        <ele>2056.8000488281</ele>
        <time>2021-03-21T09:37:16.000Z</time>
      </trkpt>
      <trkpt lat="44.99926" lon="6.03072">
        <ele>2056.8000488281</ele>
        <time>2021-03-21T09:37:17.000Z</time>
      </trkpt>
      <trkpt lat="44.99926" lon="6.03073">
        <ele>2056.6000976562</ele>
        <time>2021-03-21T09:37:18.000Z</time>
      </trkpt>
      <trkpt lat="44.99926" lon="6.03073">
        <ele>2056.6000976562</ele>
        <time>2021-03-21T09:37:19.000Z</time>
      </trkpt>
      <trkpt lat="44.99926" lon="6.03072">
        <ele>2057</ele>
        <time>2021-03-21T09:37:20.000Z</time>
      </trkpt>
      <trkpt lat="44.99926" lon="6.03072">
        <ele>2057.1999511719</ele>
        <time>2021-03-21T09:37:21.000Z</time>
      </trkpt>
      <trkpt lat="44.99926" lon="6.03072">
        <ele>2057.1999511719</ele>
        <time>2021-03-21T09:37:22.000Z</time>
      </trkpt>
      <trkpt lat="44.99927" lon="6.03073">
        <ele>2057</ele>
        <time>2021-03-21T09:37:23.000Z</time>
      </trkpt>
      <trkpt lat="44.99926" lon="6.03072">
        <ele>2057.1999511719</ele>
        <time>2021-03-21T09:37:24.000Z</time>
      </trkpt>
      <trkpt lat="44.99927" lon="6.03072">
        <ele>2057.1999511719</ele>
        <time>2021-03-21T09:37:25.000Z</time>
      </trkpt>
      <trkpt lat="44.99927" lon="6.03072">
        <ele>2057.1999511719</ele>
        <time>2021-03-21T09:37:26.000Z</time>
      </trkpt>
      <trkpt lat="44.99927" lon="6.03072">
        <ele>2057.1999511719</ele>
        <time>2021-03-21T09:37:27.000Z</time>
      </trkpt>
      <trkpt lat="44.99927" lon="6.03072">
        <ele>2057.3999023438</ele>
        <time>2021-03-21T09:37:28.000Z</time>
      </trkpt>
      <trkpt lat="44.99927" lon="6.03072">
        <ele>2057.3999023438</ele>
        <time>2021-03-21T09:37:29.000Z</time>
      </trkpt>
      <trkpt lat="44.99927" lon="6.03072">
        <ele>2057.3999023438</ele>
        <time>2021-03-21T09:37:30.000Z</time>
      </trkpt>
      <trkpt lat="44.99927" lon="6.03072">
        <ele>2057.6000976562</ele>
        <time>2021-03-21T09:37:31.000Z</time>
      </trkpt>
      <trkpt lat="44.99927" lon="6.03072">
        <ele>2057.3999023438</ele>
        <time>2021-03-21T09:37:32.000Z</time>
      </trkpt>
      <trkpt lat="44.99928" lon="6.03072">
        <ele>2057.3999023438</ele>
        <time>2021-03-21T09:37:33.000Z</time>
      </trkpt>
      <trkpt lat="44.99927" lon="6.03072">
        <ele>2057.1999511719</ele>
        <time>2021-03-21T09:37:34.000Z</time>
      </trkpt>
      <trkpt lat="44.99927" lon="6.03073">
        <ele>2057.1999511719</ele>
        <time>2021-03-21T09:37:35.000Z</time>
      </trkpt>
      <trkpt lat="44.99927" lon="6.03073">
        <ele>2057</ele>
        <time>2021-03-21T09:37:36.000Z</time>
      </trkpt>
      <trkpt lat="44.99927" lon="6.03073">
        <ele>2057</ele>
        <time>2021-03-21T09:37:37.000Z</time>
      </trkpt>
      <trkpt lat="44.99927" lon="6.03073">
        <ele>2057</ele>
        <time>2021-03-21T09:37:38.000Z</time>
      </trkpt>
      <trkpt lat="44.99927" lon="6.03072">
        <ele>2057.1999511719</ele>
        <time>2021-03-21T09:37:39.000Z</time>
      </trkpt>
      <trkpt lat="44.99927" lon="6.03072">
        <ele>2057.1999511719</ele>
        <time>2021-03-21T09:37:40.000Z</time>
      </trkpt>
      <trkpt lat="44.99927" lon="6.03073">
        <ele>2057.1999511719</ele>
        <time>2021-03-21T09:37:41.000Z</time>
      </trkpt>
      <trkpt lat="44.99927" lon="6.03073">
        <ele>2057</ele>
        <time>2021-03-21T09:37:42.000Z</time>
      </trkpt>
      <trkpt lat="44.99927" lon="6.03073">
        <ele>2057</ele>
        <time>2021-03-21T09:37:43.000Z</time>
      </trkpt>
      <trkpt lat="44.99926" lon="6.03072">
        <ele>2057</ele>
        <time>2021-03-21T09:37:44.000Z</time>
      </trkpt>
      <trkpt lat="44.99926" lon="6.03072">
        <ele>2057</ele>
        <time>2021-03-21T09:37:45.000Z</time>
      </trkpt>
      <trkpt lat="44.99926" lon="6.03072">
        <ele>2057</ele>
        <time>2021-03-21T09:37:46.000Z</time>
      </trkpt>
      <trkpt lat="44.99926" lon="6.03072">
        <ele>2057</ele>
        <time>2021-03-21T09:37:47.000Z</time>
      </trkpt>
      <trkpt lat="44.99926" lon="6.03073">
        <ele>2057</ele>
        <time>2021-03-21T09:37:48.000Z</time>
      </trkpt>
      <trkpt lat="44.99926" lon="6.03073">
        <ele>2056.8000488281</ele>
        <time>2021-03-21T09:37:49.000Z</time>
      </trkpt>
      <trkpt lat="44.99926" lon="6.03073">
        <ele>2056.6000976562</ele>
        <time>2021-03-21T09:37:50.000Z</time>
      </trkpt>
      <trkpt lat="44.99926" lon="6.03073">
        <ele>2056.3999023438</ele>
        <time>2021-03-21T09:37:51.000Z</time>
      </trkpt>
      <trkpt lat="44.99926" lon="6.03074">
        <ele>2056.3999023438</ele>
        <time>2021-03-21T09:37:52.000Z</time>
      </trkpt>
      <trkpt lat="44.99926" lon="6.03074">
        <ele>2056.1999511719</ele>
        <time>2021-03-21T09:37:53.000Z</time>
      </trkpt>
      <trkpt lat="44.99926" lon="6.03074">
        <ele>2056.1999511719</ele>
        <time>2021-03-21T09:37:54.000Z</time>
      </trkpt>
      <trkpt lat="44.99926" lon="6.03074">
        <ele>2056</ele>
        <time>2021-03-21T09:37:55.000Z</time>
      </trkpt>
      <trkpt lat="44.99926" lon="6.03074">
        <ele>2056</ele>
        <time>2021-03-21T09:37:56.000Z</time>
      </trkpt>
      <trkpt lat="44.99926" lon="6.03074">
        <ele>2056</ele>
        <time>2021-03-21T09:37:57.000Z</time>
      </trkpt>
      <trkpt lat="44.99926" lon="6.03074">
        <ele>2055.8000488281</ele>
        <time>2021-03-21T09:37:58.000Z</time>
      </trkpt>
      <trkpt lat="44.99925" lon="6.03075">
        <ele>2055.6000976562</ele>
        <time>2021-03-21T09:37:59.000Z</time>
      </trkpt>
      <trkpt lat="44.99925" lon="6.03075">
        <ele>2055.3999023438</ele>
        <time>2021-03-21T09:38:00.000Z</time>
      </trkpt>
      <trkpt lat="44.99925" lon="6.03075">
        <ele>2055.1999511719</ele>
        <time>2021-03-21T09:38:01.000Z</time>
      </trkpt>
      <trkpt lat="44.99925" lon="6.03074">
        <ele>2055.8000488281</ele>
        <time>2021-03-21T09:38:02.000Z</time>
      </trkpt>
      <trkpt lat="44.99925" lon="6.03075">
        <ele>2055.3999023438</ele>
        <time>2021-03-21T09:38:03.000Z</time>
      </trkpt>
      <trkpt lat="44.99925" lon="6.03076">
        <ele>2055.1999511719</ele>
        <time>2021-03-21T09:38:04.000Z</time>
      </trkpt>
      <trkpt lat="44.99925" lon="6.03076">
        <ele>2054.8000488281</ele>
        <time>2021-03-21T09:38:05.000Z</time>
      </trkpt>
      <trkpt lat="44.99925" lon="6.03077">
        <ele>2054.6000976562</ele>
        <time>2021-03-21T09:38:06.000Z</time>
      </trkpt>
      <trkpt lat="44.99925" lon="6.03077">
        <ele>2054.6000976562</ele>
        <time>2021-03-21T09:38:07.000Z</time>
      </trkpt>
      <trkpt lat="44.99925" lon="6.03077">
        <ele>2054.3999023438</ele>
        <time>2021-03-21T09:38:08.000Z</time>
      </trkpt>
      <trkpt lat="44.99925" lon="6.03077">
        <ele>2054.3999023438</ele>
        <time>2021-03-21T09:38:09.000Z</time>
      </trkpt>
      <trkpt lat="44.99925" lon="6.03077">
        <ele>2054.3999023438</ele>
        <time>2021-03-21T09:38:10.000Z</time>
      </trkpt>
      <trkpt lat="44.99925" lon="6.03077">
        <ele>2054.1999511719</ele>
        <time>2021-03-21T09:38:11.000Z</time>
      </trkpt>
      <trkpt lat="44.99925" lon="6.03077">
        <ele>2054.3999023438</ele>
        <time>2021-03-21T09:38:12.000Z</time>
      </trkpt>
      <trkpt lat="44.99925" lon="6.03076">
        <ele>2054.8000488281</ele>
        <time>2021-03-21T09:38:13.000Z</time>
      </trkpt>
      <trkpt lat="44.99925" lon="6.03076">
        <ele>2054.8000488281</ele>
        <time>2021-03-21T09:38:14.000Z</time>
      </trkpt>
      <trkpt lat="44.99925" lon="6.03076">
        <ele>2055</ele>
        <time>2021-03-21T09:38:15.000Z</time>
      </trkpt>
      <trkpt lat="44.99925" lon="6.03076">
        <ele>2055.1999511719</ele>
        <time>2021-03-21T09:38:16.000Z</time>
      </trkpt>
      <trkpt lat="44.99925" lon="6.03075">
        <ele>2055.1999511719</ele>
        <time>2021-03-21T09:38:17.000Z</time>
      </trkpt>
      <trkpt lat="44.99925" lon="6.03075">
        <ele>2055.3999023438</ele>
        <time>2021-03-21T09:38:18.000Z</time>
      </trkpt>
      <trkpt lat="44.99925" lon="6.03075">
        <ele>2055.3999023438</ele>
        <time>2021-03-21T09:38:19.000Z</time>
      </trkpt>
      <trkpt lat="44.99925" lon="6.03075">
        <ele>2055.3999023438</ele>
        <time>2021-03-21T09:38:20.000Z</time>
      </trkpt>
      <trkpt lat="44.99925" lon="6.03075">
        <ele>2055.6000976562</ele>
        <time>2021-03-21T09:38:21.000Z</time>
      </trkpt>
      <trkpt lat="44.99926" lon="6.03074">
        <ele>2056</ele>
        <time>2021-03-21T09:38:22.000Z</time>
      </trkpt>
      <trkpt lat="44.99925" lon="6.03074">
        <ele>2056</ele>
        <time>2021-03-21T09:38:23.000Z</time>
      </trkpt>
      <trkpt lat="44.99925" lon="6.03074">
        <ele>2055.8000488281</ele>
        <time>2021-03-21T09:38:24.000Z</time>
      </trkpt>
      <trkpt lat="44.99925" lon="6.03075">
        <ele>2055.8000488281</ele>
        <time>2021-03-21T09:38:25.000Z</time>
      </trkpt>
      <trkpt lat="44.99925" lon="6.03074">
        <ele>2055.8000488281</ele>
        <time>2021-03-21T09:38:26.000Z</time>
      </trkpt>
      <trkpt lat="44.99925" lon="6.03074">
        <ele>2055.8000488281</ele>
        <time>2021-03-21T09:38:27.000Z</time>
      </trkpt>
      <trkpt lat="44.99926" lon="6.03074">
        <ele>2055.8000488281</ele>
        <time>2021-03-21T09:38:28.000Z</time>
      </trkpt>
      <trkpt lat="44.99926" lon="6.03075">
        <ele>2055.8000488281</ele>
        <time>2021-03-21T09:38:29.000Z</time>
      </trkpt>
      <trkpt lat="44.99926" lon="6.03075">
        <ele>2055.6000976562</ele>
        <time>2021-03-21T09:38:30.000Z</time>
      </trkpt>
      <trkpt lat="44.99926" lon="6.03075">
        <ele>2055.3999023438</ele>
        <time>2021-03-21T09:38:31.000Z</time>
      </trkpt>
      <trkpt lat="44.99926" lon="6.03075">
        <ele>2055.3999023438</ele>
        <time>2021-03-21T09:38:32.000Z</time>
      </trkpt>
      <trkpt lat="44.99926" lon="6.03076">
        <ele>2055.3999023438</ele>
        <time>2021-03-21T09:38:33.000Z</time>
      </trkpt>
      <trkpt lat="44.99926" lon="6.03075">
        <ele>2055.6000976562</ele>
        <time>2021-03-21T09:38:34.000Z</time>
      </trkpt>
      <trkpt lat="44.99926" lon="6.03075">
        <ele>2055.6000976562</ele>
        <time>2021-03-21T09:38:35.000Z</time>
      </trkpt>
      <trkpt lat="44.99926" lon="6.03075">
        <ele>2055.6000976562</ele>
        <time>2021-03-21T09:38:36.000Z</time>
      </trkpt>
      <trkpt lat="44.99926" lon="6.03075">
        <ele>2055.8000488281</ele>
        <time>2021-03-21T09:38:37.000Z</time>
      </trkpt>
      <trkpt lat="44.99926" lon="6.03075">
        <ele>2055.3999023438</ele>
        <time>2021-03-21T09:38:38.000Z</time>
      </trkpt>
      <trkpt lat="44.99926" lon="6.03075">
        <ele>2055.6000976562</ele>
        <time>2021-03-21T09:38:39.000Z</time>
      </trkpt>
      <trkpt lat="44.99926" lon="6.03075">
        <ele>2055.3999023438</ele>
        <time>2021-03-21T09:38:40.000Z</time>
      </trkpt>
      <trkpt lat="44.99926" lon="6.03075">
        <ele>2055.3999023438</ele>
        <time>2021-03-21T09:38:41.000Z</time>
      </trkpt>
      <trkpt lat="44.99926" lon="6.03075">
        <ele>2055.8000488281</ele>
        <time>2021-03-21T09:38:42.000Z</time>
      </trkpt>
      <trkpt lat="44.99926" lon="6.03075">
        <ele>2055.6000976562</ele>
        <time>2021-03-21T09:38:43.000Z</time>
      </trkpt>
      <trkpt lat="44.99926" lon="6.03075">
        <ele>2055.6000976562</ele>
        <time>2021-03-21T09:38:44.000Z</time>
      </trkpt>
      <trkpt lat="44.99926" lon="6.03075">
        <ele>2055.6000976562</ele>
        <time>2021-03-21T09:38:45.000Z</time>
      </trkpt>
      <trkpt lat="44.99926" lon="6.03075">
        <ele>2055.8000488281</ele>
        <time>2021-03-21T09:38:46.000Z</time>
      </trkpt>
      <trkpt lat="44.99926" lon="6.03074">
        <ele>2056.1999511719</ele>
        <time>2021-03-21T09:38:47.000Z</time>
      </trkpt>
      <trkpt lat="44.99926" lon="6.03075">
        <ele>2055.8000488281</ele>
        <time>2021-03-21T09:38:48.000Z</time>
      </trkpt>
      <trkpt lat="44.99926" lon="6.03074">
        <ele>2055.8000488281</ele>
        <time>2021-03-21T09:38:49.000Z</time>
      </trkpt>
      <trkpt lat="44.99926" lon="6.03074">
        <ele>2056</ele>
        <time>2021-03-21T09:38:50.000Z</time>
      </trkpt>
      <trkpt lat="44.99925" lon="6.03074">
        <ele>2056</ele>
        <time>2021-03-21T09:38:51.000Z</time>
      </trkpt>
      <trkpt lat="44.99925" lon="6.03074">
        <ele>2056.1999511719</ele>
        <time>2021-03-21T09:38:52.000Z</time>
      </trkpt>
      <trkpt lat="44.99926" lon="6.03073">
        <ele>2056.6000976562</ele>
        <time>2021-03-21T09:38:53.000Z</time>
      </trkpt>
      <trkpt lat="44.99926" lon="6.03073">
        <ele>2056.8000488281</ele>
        <time>2021-03-21T09:38:54.000Z</time>
      </trkpt>
      <trkpt lat="44.99926" lon="6.03073">
        <ele>2056.8000488281</ele>
        <time>2021-03-21T09:38:55.000Z</time>
      </trkpt>
      <trkpt lat="44.99926" lon="6.03073">
        <ele>2056.8000488281</ele>
        <time>2021-03-21T09:38:56.000Z</time>
      </trkpt>
      <trkpt lat="44.99926" lon="6.03072">
        <ele>2057.3999023438</ele>
        <time>2021-03-21T09:38:57.000Z</time>
      </trkpt>
      <trkpt lat="44.99927" lon="6.03071">
        <ele>2057.8000488281</ele>
        <time>2021-03-21T09:38:58.000Z</time>
      </trkpt>
      <trkpt lat="44.99927" lon="6.03071">
        <ele>2058</ele>
        <time>2021-03-21T09:38:59.000Z</time>
      </trkpt>
      <trkpt lat="44.99927" lon="6.03071">
        <ele>2057.8000488281</ele>
        <time>2021-03-21T09:39:00.000Z</time>
      </trkpt>
      <trkpt lat="44.99926" lon="6.0307">
        <ele>2058</ele>
        <time>2021-03-21T09:39:01.000Z</time>
      </trkpt>
      <trkpt lat="44.99926" lon="6.0307">
        <ele>2058</ele>
        <time>2021-03-21T09:39:02.000Z</time>
      </trkpt>
      <trkpt lat="44.99926" lon="6.0307">
        <ele>2058</ele>
        <time>2021-03-21T09:39:03.000Z</time>
      </trkpt>
      <trkpt lat="44.99926" lon="6.0307">
        <ele>2058.1999511719</ele>
        <time>2021-03-21T09:39:04.000Z</time>
      </trkpt>
      <trkpt lat="44.99925" lon="6.0307">
        <ele>2058.1999511719</ele>
        <time>2021-03-21T09:39:05.000Z</time>
      </trkpt>
      <trkpt lat="44.99925" lon="6.03069">
        <ele>2058.6000976562</ele>
        <time>2021-03-21T09:39:06.000Z</time>
      </trkpt>
      <trkpt lat="44.99925" lon="6.03068">
        <ele>2059</ele>
        <time>2021-03-21T09:39:07.000Z</time>
      </trkpt>
      <trkpt lat="44.99924" lon="6.03068">
        <ele>2059.1999511719</ele>
        <time>2021-03-21T09:39:08.000Z</time>
      </trkpt>
      <trkpt lat="44.99924" lon="6.03067">
        <ele>2059.6000976562</ele>
        <time>2021-03-21T09:39:09.000Z</time>
      </trkpt>
      <trkpt lat="44.99924" lon="6.03067">
        <ele>2059.8000488281</ele>
        <time>2021-03-21T09:39:10.000Z</time>
      </trkpt>
      <trkpt lat="44.99923" lon="6.03066">
        <ele>2060.3999023438</ele>
        <time>2021-03-21T09:39:11.000Z</time>
      </trkpt>
      <trkpt lat="44.99923" lon="6.03065">
        <ele>2060.8000488281</ele>
        <time>2021-03-21T09:39:12.000Z</time>
      </trkpt>
      <trkpt lat="44.99923" lon="6.03064">
        <ele>2061.1999511719</ele>
        <time>2021-03-21T09:39:13.000Z</time>
      </trkpt>
      <trkpt lat="44.99923" lon="6.03063">
        <ele>2061.6000976562</ele>
        <time>2021-03-21T09:39:14.000Z</time>
      </trkpt>
      <trkpt lat="44.99923" lon="6.03063">
        <ele>2062</ele>
        <time>2021-03-21T09:39:15.000Z</time>
      </trkpt>
      <trkpt lat="44.99922" lon="6.03064">
        <ele>2061</ele>
        <time>2021-03-21T09:39:16.000Z</time>
      </trkpt>
      <trkpt lat="44.99922" lon="6.03064">
        <ele>2061.1999511719</ele>
        <time>2021-03-21T09:39:17.000Z</time>
      </trkpt>
      <trkpt lat="44.99922" lon="6.03064">
        <ele>2061.1999511719</ele>
        <time>2021-03-21T09:39:18.000Z</time>
      </trkpt>
      <trkpt lat="44.99923" lon="6.03064">
        <ele>2061.1999511719</ele>
        <time>2021-03-21T09:39:19.000Z</time>
      </trkpt>
      <trkpt lat="44.99923" lon="6.03064">
        <ele>2061.1999511719</ele>
        <time>2021-03-21T09:39:20.000Z</time>
      </trkpt>
      <trkpt lat="44.99923" lon="6.03064">
        <ele>2061.3999023438</ele>
        <time>2021-03-21T09:39:21.000Z</time>
      </trkpt>
      <trkpt lat="44.99922" lon="6.03064">
        <ele>2061.3999023438</ele>
        <time>2021-03-21T09:39:22.000Z</time>
      </trkpt>
      <trkpt lat="44.99922" lon="6.03064">
        <ele>2061.1999511719</ele>
        <time>2021-03-21T09:39:23.000Z</time>
      </trkpt>
      <trkpt lat="44.99922" lon="6.03064">
        <ele>2061.1999511719</ele>
        <time>2021-03-21T09:39:24.000Z</time>
      </trkpt>
      <trkpt lat="44.99922" lon="6.03064">
        <ele>2061.3999023438</ele>
        <time>2021-03-21T09:39:25.000Z</time>
      </trkpt>
      <trkpt lat="44.99922" lon="6.03063">
        <ele>2061.3999023438</ele>
        <time>2021-03-21T09:39:26.000Z</time>
      </trkpt>
      <trkpt lat="44.99922" lon="6.03063">
        <ele>2061.6000976562</ele>
        <time>2021-03-21T09:39:27.000Z</time>
      </trkpt>
      <trkpt lat="44.99922" lon="6.03062">
        <ele>2062.3999023438</ele>
        <time>2021-03-21T09:39:28.000Z</time>
      </trkpt>
      <trkpt lat="44.99921" lon="6.03061">
        <ele>2062.6000976562</ele>
        <time>2021-03-21T09:39:29.000Z</time>
      </trkpt>
      <trkpt lat="44.99921" lon="6.0306">
        <ele>2063</ele>
        <time>2021-03-21T09:39:30.000Z</time>
      </trkpt>
      <trkpt lat="44.9992" lon="6.0306">
        <ele>2063.1999511719</ele>
        <time>2021-03-21T09:39:31.000Z</time>
      </trkpt>
      <trkpt lat="44.9992" lon="6.03059">
        <ele>2063.6000976562</ele>
        <time>2021-03-21T09:39:32.000Z</time>
      </trkpt>
      <trkpt lat="44.99919" lon="6.03058">
        <ele>2064.1999511719</ele>
        <time>2021-03-21T09:39:33.000Z</time>
      </trkpt>
      <trkpt lat="44.99919" lon="6.03057">
        <ele>2064.3999023438</ele>
        <time>2021-03-21T09:39:34.000Z</time>
      </trkpt>
      <trkpt lat="44.99918" lon="6.03056">
        <ele>2064.8000488281</ele>
        <time>2021-03-21T09:39:35.000Z</time>
      </trkpt>
      <trkpt lat="44.99918" lon="6.03055">
        <ele>2065.1999511719</ele>
        <time>2021-03-21T09:39:36.000Z</time>
      </trkpt>
      <trkpt lat="44.99918" lon="6.03055">
        <ele>2065.3999023438</ele>
        <time>2021-03-21T09:39:37.000Z</time>
      </trkpt>
      <trkpt lat="44.99917" lon="6.03054">
        <ele>2065.8000488281</ele>
        <time>2021-03-21T09:39:38.000Z</time>
      </trkpt>
      <trkpt lat="44.99917" lon="6.03053">
        <ele>2066</ele>
        <time>2021-03-21T09:39:39.000Z</time>
      </trkpt>
      <trkpt lat="44.99916" lon="6.03052">
        <ele>2066.6000976562</ele>
        <time>2021-03-21T09:39:40.000Z</time>
      </trkpt>
      <trkpt lat="44.99916" lon="6.03051">
        <ele>2066.8000488281</ele>
        <time>2021-03-21T09:39:41.000Z</time>
      </trkpt>
      <trkpt lat="44.99916" lon="6.03051">
        <ele>2067</ele>
        <time>2021-03-21T09:39:42.000Z</time>
      </trkpt>
      <trkpt lat="44.99915" lon="6.0305">
        <ele>2067.1999511719</ele>
        <time>2021-03-21T09:39:43.000Z</time>
      </trkpt>
      <trkpt lat="44.99915" lon="6.0305">
        <ele>2067.6000976562</ele>
        <time>2021-03-21T09:39:44.000Z</time>
      </trkpt>
      <trkpt lat="44.99914" lon="6.03049">
        <ele>2067.8000488281</ele>
        <time>2021-03-21T09:39:45.000Z</time>
      </trkpt>
      <trkpt lat="44.99914" lon="6.03048">
        <ele>2068</ele>
        <time>2021-03-21T09:39:46.000Z</time>
      </trkpt>
      <trkpt lat="44.99914" lon="6.03048">
        <ele>2068.1999511719</ele>
        <time>2021-03-21T09:39:47.000Z</time>
      </trkpt>
      <trkpt lat="44.99913" lon="6.03047">
        <ele>2068.3999023438</ele>
        <time>2021-03-21T09:39:48.000Z</time>
      </trkpt>
      <trkpt lat="44.99913" lon="6.03047">
        <ele>2068.8000488281</ele>
        <time>2021-03-21T09:39:49.000Z</time>
      </trkpt>
      <trkpt lat="44.99912" lon="6.03046">
        <ele>2069</ele>
        <time>2021-03-21T09:39:50.000Z</time>
      </trkpt>
      <trkpt lat="44.99912" lon="6.03046">
        <ele>2069.1999511719</ele>
        <time>2021-03-21T09:39:51.000Z</time>
      </trkpt>
      <trkpt lat="44.99912" lon="6.03045">
        <ele>2069.3999023438</ele>
        <time>2021-03-21T09:39:52.000Z</time>
      </trkpt>
      <trkpt lat="44.99911" lon="6.03044">
        <ele>2069.8000488281</ele>
        <time>2021-03-21T09:39:53.000Z</time>
      </trkpt>
      <trkpt lat="44.99911" lon="6.03044">
        <ele>2070</ele>
        <time>2021-03-21T09:39:54.000Z</time>
      </trkpt>
      <trkpt lat="44.9991" lon="6.03043">
        <ele>2070.1999511719</ele>
        <time>2021-03-21T09:39:55.000Z</time>
      </trkpt>
      <trkpt lat="44.9991" lon="6.03043">
        <ele>2070.6000976562</ele>
        <time>2021-03-21T09:39:56.000Z</time>
      </trkpt>
      <trkpt lat="44.9991" lon="6.03042">
        <ele>2070.8000488281</ele>
        <time>2021-03-21T09:39:57.000Z</time>
      </trkpt>
      <trkpt lat="44.99909" lon="6.03041">
        <ele>2071.1999511719</ele>
        <time>2021-03-21T09:39:58.000Z</time>
      </trkpt>
      <trkpt lat="44.99909" lon="6.03041">
        <ele>2071.1999511719</ele>
        <time>2021-03-21T09:39:59.000Z</time>
      </trkpt>
      <trkpt lat="44.99909" lon="6.0304">
        <ele>2071.6000976562</ele>
        <time>2021-03-21T09:40:00.000Z</time>
      </trkpt>
      <trkpt lat="44.99908" lon="6.0304">
        <ele>2071.8000488281</ele>
        <time>2021-03-21T09:40:01.000Z</time>
      </trkpt>
      <trkpt lat="44.99908" lon="6.03039">
        <ele>2072</ele>
        <time>2021-03-21T09:40:02.000Z</time>
      </trkpt>
      <trkpt lat="44.99907" lon="6.03039">
        <ele>2072</ele>
        <time>2021-03-21T09:40:03.000Z</time>
      </trkpt>
      <trkpt lat="44.99907" lon="6.03038">
        <ele>2072.3999023438</ele>
        <time>2021-03-21T09:40:04.000Z</time>
      </trkpt>
      <trkpt lat="44.99906" lon="6.03038">
        <ele>2072.3999023438</ele>
        <time>2021-03-21T09:40:05.000Z</time>
      </trkpt>
      <trkpt lat="44.99906" lon="6.03037">
        <ele>2072.6000976562</ele>
        <time>2021-03-21T09:40:06.000Z</time>
      </trkpt>
      <trkpt lat="44.99906" lon="6.03037">
        <ele>2072.8000488281</ele>
        <time>2021-03-21T09:40:07.000Z</time>
      </trkpt>
      <trkpt lat="44.99905" lon="6.03037">
        <ele>2073</ele>
        <time>2021-03-21T09:40:08.000Z</time>
      </trkpt>
      <trkpt lat="44.99905" lon="6.03036">
        <ele>2073.1999511719</ele>
        <time>2021-03-21T09:40:09.000Z</time>
      </trkpt>
      <trkpt lat="44.99905" lon="6.03036">
        <ele>2073.3999023438</ele>
        <time>2021-03-21T09:40:10.000Z</time>
      </trkpt>
      <trkpt lat="44.99904" lon="6.03035">
        <ele>2073.6000976562</ele>
        <time>2021-03-21T09:40:11.000Z</time>
      </trkpt>
      <trkpt lat="44.99904" lon="6.03035">
        <ele>2073.8000488281</ele>
        <time>2021-03-21T09:40:12.000Z</time>
      </trkpt>
      <trkpt lat="44.99904" lon="6.03034">
        <ele>2074</ele>
        <time>2021-03-21T09:40:13.000Z</time>
      </trkpt>
      <trkpt lat="44.99903" lon="6.03034">
        <ele>2074.1999511719</ele>
        <time>2021-03-21T09:40:14.000Z</time>
      </trkpt>
      <trkpt lat="44.99903" lon="6.03033">
        <ele>2074.3999023438</ele>
        <time>2021-03-21T09:40:15.000Z</time>
      </trkpt>
      <trkpt lat="44.99903" lon="6.03032">
        <ele>2074.8000488281</ele>
        <time>2021-03-21T09:40:16.000Z</time>
      </trkpt>
      <trkpt lat="44.99902" lon="6.03032">
        <ele>2075</ele>
        <time>2021-03-21T09:40:17.000Z</time>
      </trkpt>
      <trkpt lat="44.99902" lon="6.03031">
        <ele>2075.3999023438</ele>
        <time>2021-03-21T09:40:18.000Z</time>
      </trkpt>
      <trkpt lat="44.99902" lon="6.03031">
        <ele>2075.6000976562</ele>
        <time>2021-03-21T09:40:19.000Z</time>
      </trkpt>
      <trkpt lat="44.99902" lon="6.0303">
        <ele>2076</ele>
        <time>2021-03-21T09:40:20.000Z</time>
      </trkpt>
      <trkpt lat="44.99902" lon="6.03029">
        <ele>2076.1999511719</ele>
        <time>2021-03-21T09:40:21.000Z</time>
      </trkpt>
      <trkpt lat="44.99902" lon="6.03028">
        <ele>2076.6000976562</ele>
        <time>2021-03-21T09:40:22.000Z</time>
      </trkpt>
      <trkpt lat="44.99901" lon="6.03028">
        <ele>2076.8000488281</ele>
        <time>2021-03-21T09:40:23.000Z</time>
      </trkpt>
      <trkpt lat="44.99901" lon="6.03027">
        <ele>2077.1999511719</ele>
        <time>2021-03-21T09:40:24.000Z</time>
      </trkpt>
      <trkpt lat="44.99901" lon="6.03027">
        <ele>2077.3999023438</ele>
        <time>2021-03-21T09:40:25.000Z</time>
      </trkpt>
      <trkpt lat="44.99901" lon="6.03026">
        <ele>2077.8000488281</ele>
        <time>2021-03-21T09:40:26.000Z</time>
      </trkpt>
      <trkpt lat="44.999" lon="6.03025">
        <ele>2078</ele>
        <time>2021-03-21T09:40:27.000Z</time>
      </trkpt>
      <trkpt lat="44.999" lon="6.03025">
        <ele>2078.3999023438</ele>
        <time>2021-03-21T09:40:28.000Z</time>
      </trkpt>
      <trkpt lat="44.999" lon="6.03024">
        <ele>2078.6000976562</ele>
        <time>2021-03-21T09:40:29.000Z</time>
      </trkpt>
      <trkpt lat="44.999" lon="6.03023">
        <ele>2079</ele>
        <time>2021-03-21T09:40:30.000Z</time>
      </trkpt>
      <trkpt lat="44.99899" lon="6.03023">
        <ele>2079.1999511719</ele>
        <time>2021-03-21T09:40:31.000Z</time>
      </trkpt>
      <trkpt lat="44.99899" lon="6.03022">
        <ele>2079.3999023438</ele>
        <time>2021-03-21T09:40:32.000Z</time>
      </trkpt>
      <trkpt lat="44.99899" lon="6.03022">
        <ele>2079.6000976562</ele>
        <time>2021-03-21T09:40:33.000Z</time>
      </trkpt>
      <trkpt lat="44.99899" lon="6.03021">
        <ele>2080</ele>
        <time>2021-03-21T09:40:34.000Z</time>
      </trkpt>
      <trkpt lat="44.99899" lon="6.03021">
        <ele>2080.1999511719</ele>
        <time>2021-03-21T09:40:35.000Z</time>
      </trkpt>
      <trkpt lat="44.99899" lon="6.0302">
        <ele>2080.3999023438</ele>
        <time>2021-03-21T09:40:36.000Z</time>
      </trkpt>
      <trkpt lat="44.99899" lon="6.0302">
        <ele>2080.6000976562</ele>
        <time>2021-03-21T09:40:37.000Z</time>
      </trkpt>
      <trkpt lat="44.99899" lon="6.03019">
        <ele>2080.8000488281</ele>
        <time>2021-03-21T09:40:38.000Z</time>
      </trkpt>
      <trkpt lat="44.99899" lon="6.0302">
        <ele>2080.8000488281</ele>
        <time>2021-03-21T09:40:39.000Z</time>
      </trkpt>
      <trkpt lat="44.999" lon="6.0302">
        <ele>2080.8000488281</ele>
        <time>2021-03-21T09:40:40.000Z</time>
      </trkpt>
      <trkpt lat="44.999" lon="6.03019">
        <ele>2081</ele>
        <time>2021-03-21T09:40:41.000Z</time>
      </trkpt>
      <trkpt lat="44.99901" lon="6.03019">
        <ele>2081</ele>
        <time>2021-03-21T09:40:42.000Z</time>
      </trkpt>
      <trkpt lat="44.99901" lon="6.03019">
        <ele>2081.1999511719</ele>
        <time>2021-03-21T09:40:43.000Z</time>
      </trkpt>
      <trkpt lat="44.99902" lon="6.03019">
        <ele>2081.1999511719</ele>
        <time>2021-03-21T09:40:44.000Z</time>
      </trkpt>
      <trkpt lat="44.99902" lon="6.03019">
        <ele>2081</ele>
        <time>2021-03-21T09:40:45.000Z</time>
      </trkpt>
      <trkpt lat="44.99903" lon="6.03019">
        <ele>2081</ele>
        <time>2021-03-21T09:40:46.000Z</time>
      </trkpt>
      <trkpt lat="44.99903" lon="6.03019">
        <ele>2081.1999511719</ele>
        <time>2021-03-21T09:40:47.000Z</time>
      </trkpt>
      <trkpt lat="44.99904" lon="6.03019">
        <ele>2081.1999511719</ele>
        <time>2021-03-21T09:40:48.000Z</time>
      </trkpt>
      <trkpt lat="44.99904" lon="6.03018">
        <ele>2081.3999023438</ele>
        <time>2021-03-21T09:40:49.000Z</time>
      </trkpt>
      <trkpt lat="44.99905" lon="6.03018">
        <ele>2081.6000976562</ele>
        <time>2021-03-21T09:40:50.000Z</time>
      </trkpt>
      <trkpt lat="44.99905" lon="6.03018">
        <ele>2081.6000976562</ele>
        <time>2021-03-21T09:40:51.000Z</time>
      </trkpt>
      <trkpt lat="44.99906" lon="6.03017">
        <ele>2082</ele>
        <time>2021-03-21T09:40:52.000Z</time>
      </trkpt>
      <trkpt lat="44.99906" lon="6.03018">
        <ele>2081.8000488281</ele>
        <time>2021-03-21T09:40:53.000Z</time>
      </trkpt>
      <trkpt lat="44.99906" lon="6.03017">
        <ele>2082</ele>
        <time>2021-03-21T09:40:54.000Z</time>
      </trkpt>
      <trkpt lat="44.99907" lon="6.03017">
        <ele>2082</ele>
        <time>2021-03-21T09:40:55.000Z</time>
      </trkpt>
      <trkpt lat="44.99907" lon="6.03017">
        <ele>2082.1999511719</ele>
        <time>2021-03-21T09:40:56.000Z</time>
      </trkpt>
      <trkpt lat="44.99908" lon="6.03017">
        <ele>2082.1999511719</ele>
        <time>2021-03-21T09:40:57.000Z</time>
      </trkpt>
      <trkpt lat="44.99909" lon="6.03016">
        <ele>2082.6000976562</ele>
        <time>2021-03-21T09:40:58.000Z</time>
      </trkpt>
      <trkpt lat="44.99909" lon="6.03016">
        <ele>2082.6000976562</ele>
        <time>2021-03-21T09:40:59.000Z</time>
      </trkpt>
      <trkpt lat="44.9991" lon="6.03015">
        <ele>2082.8000488281</ele>
        <time>2021-03-21T09:41:00.000Z</time>
      </trkpt>
      <trkpt lat="44.9991" lon="6.03015">
        <ele>2082.8000488281</ele>
        <time>2021-03-21T09:41:01.000Z</time>
      </trkpt>
      <trkpt lat="44.99911" lon="6.03015">
        <ele>2083</ele>
        <time>2021-03-21T09:41:02.000Z</time>
      </trkpt>
      <trkpt lat="44.99911" lon="6.03015">
        <ele>2083</ele>
        <time>2021-03-21T09:41:03.000Z</time>
      </trkpt>
      <trkpt lat="44.99912" lon="6.03014">
        <ele>2083.1999511719</ele>
        <time>2021-03-21T09:41:04.000Z</time>
      </trkpt>
      <trkpt lat="44.99912" lon="6.03014">
        <ele>2083.3999023438</ele>
        <time>2021-03-21T09:41:05.000Z</time>
      </trkpt>
      <trkpt lat="44.99913" lon="6.03014">
        <ele>2083.3999023438</ele>
        <time>2021-03-21T09:41:06.000Z</time>
      </trkpt>
      <trkpt lat="44.99913" lon="6.03014">
        <ele>2083.3999023438</ele>
        <time>2021-03-21T09:41:07.000Z</time>
      </trkpt>
      <trkpt lat="44.99914" lon="6.03013">
        <ele>2083.6000976562</ele>
        <time>2021-03-21T09:41:08.000Z</time>
      </trkpt>
      <trkpt lat="44.99915" lon="6.03013">
        <ele>2083.6000976562</ele>
        <time>2021-03-21T09:41:09.000Z</time>
      </trkpt>
      <trkpt lat="44.99915" lon="6.03013">
        <ele>2083.8000488281</ele>
        <time>2021-03-21T09:41:10.000Z</time>
      </trkpt>
      <trkpt lat="44.99915" lon="6.03013">
        <ele>2084</ele>
        <time>2021-03-21T09:41:11.000Z</time>
      </trkpt>
      <trkpt lat="44.99916" lon="6.03013">
        <ele>2084</ele>
        <time>2021-03-21T09:41:12.000Z</time>
      </trkpt>
      <trkpt lat="44.99916" lon="6.03012">
        <ele>2084.1999511719</ele>
        <time>2021-03-21T09:41:13.000Z</time>
      </trkpt>
      <trkpt lat="44.99917" lon="6.03012">
        <ele>2084.1999511719</ele>
        <time>2021-03-21T09:41:14.000Z</time>
      </trkpt>
      <trkpt lat="44.99917" lon="6.03011">
        <ele>2084.3999023438</ele>
        <time>2021-03-21T09:41:15.000Z</time>
      </trkpt>
      <trkpt lat="44.99918" lon="6.03011">
        <ele>2084.6000976562</ele>
        <time>2021-03-21T09:41:16.000Z</time>
      </trkpt>
      <trkpt lat="44.99918" lon="6.03011">
        <ele>2084.6000976562</ele>
        <time>2021-03-21T09:41:17.000Z</time>
      </trkpt>
      <trkpt lat="44.99919" lon="6.03011">
        <ele>2084.6000976562</ele>
        <time>2021-03-21T09:41:18.000Z</time>
      </trkpt>
      <trkpt lat="44.99919" lon="6.0301">
        <ele>2084.8000488281</ele>
        <time>2021-03-21T09:41:19.000Z</time>
      </trkpt>
      <trkpt lat="44.9992" lon="6.0301">
        <ele>2085</ele>
        <time>2021-03-21T09:41:20.000Z</time>
      </trkpt>
      <trkpt lat="44.9992" lon="6.03009">
        <ele>2085.3999023438</ele>
        <time>2021-03-21T09:41:21.000Z</time>
      </trkpt>
      <trkpt lat="44.9992" lon="6.03009">
        <ele>2085.3999023438</ele>
        <time>2021-03-21T09:41:22.000Z</time>
      </trkpt>
      <trkpt lat="44.99921" lon="6.03008">
        <ele>2085.8000488281</ele>
        <time>2021-03-21T09:41:23.000Z</time>
      </trkpt>
      <trkpt lat="44.99921" lon="6.03008">
        <ele>2085.8000488281</ele>
        <time>2021-03-21T09:41:24.000Z</time>
      </trkpt>
      <trkpt lat="44.99922" lon="6.03007">
        <ele>2086.1999511719</ele>
        <time>2021-03-21T09:41:25.000Z</time>
      </trkpt>
      <trkpt lat="44.99923" lon="6.03007">
        <ele>2086.1999511719</ele>
        <time>2021-03-21T09:41:26.000Z</time>
      </trkpt>
      <trkpt lat="44.99923" lon="6.03006">
        <ele>2086.6000976562</ele>
        <time>2021-03-21T09:41:27.000Z</time>
      </trkpt>
      <trkpt lat="44.99923" lon="6.03006">
        <ele>2086.8000488281</ele>
        <time>2021-03-21T09:41:28.000Z</time>
      </trkpt>
      <trkpt lat="44.99924" lon="6.03006">
        <ele>2087</ele>
        <time>2021-03-21T09:41:29.000Z</time>
      </trkpt>
      <trkpt lat="44.99924" lon="6.03005">
        <ele>2087</ele>
        <time>2021-03-21T09:41:30.000Z</time>
      </trkpt>
      <trkpt lat="44.99925" lon="6.03005">
        <ele>2087.3999023438</ele>
        <time>2021-03-21T09:41:31.000Z</time>
      </trkpt>
      <trkpt lat="44.99925" lon="6.03005">
        <ele>2087.3999023438</ele>
        <time>2021-03-21T09:41:32.000Z</time>
      </trkpt>
      <trkpt lat="44.99926" lon="6.03004">
        <ele>2087.3999023438</ele>
        <time>2021-03-21T09:41:33.000Z</time>
      </trkpt>
      <trkpt lat="44.99927" lon="6.03004">
        <ele>2087.6000976562</ele>
        <time>2021-03-21T09:41:34.000Z</time>
      </trkpt>
      <trkpt lat="44.99927" lon="6.03004">
        <ele>2087.8000488281</ele>
        <time>2021-03-21T09:41:35.000Z</time>
      </trkpt>
      <trkpt lat="44.99927" lon="6.03003">
        <ele>2088</ele>
        <time>2021-03-21T09:41:36.000Z</time>
      </trkpt>
      <trkpt lat="44.99928" lon="6.03004">
        <ele>2087.8000488281</ele>
        <time>2021-03-21T09:41:37.000Z</time>
      </trkpt>
      <trkpt lat="44.99928" lon="6.03004">
        <ele>2087.6000976562</ele>
        <time>2021-03-21T09:41:38.000Z</time>
      </trkpt>
      <trkpt lat="44.99928" lon="6.03004">
        <ele>2087.6000976562</ele>
        <time>2021-03-21T09:41:39.000Z</time>
      </trkpt>
      <trkpt lat="44.99928" lon="6.03004">
        <ele>2087.6000976562</ele>
        <time>2021-03-21T09:41:40.000Z</time>
      </trkpt>
      <trkpt lat="44.99928" lon="6.03004">
        <ele>2087.8000488281</ele>
        <time>2021-03-21T09:41:41.000Z</time>
      </trkpt>
      <trkpt lat="44.99928" lon="6.03003">
        <ele>2088</ele>
        <time>2021-03-21T09:41:42.000Z</time>
      </trkpt>
      <trkpt lat="44.99928" lon="6.03003">
        <ele>2088</ele>
        <time>2021-03-21T09:41:43.000Z</time>
      </trkpt>
      <trkpt lat="44.99927" lon="6.03003">
        <ele>2088</ele>
        <time>2021-03-21T09:41:44.000Z</time>
      </trkpt>
      <trkpt lat="44.99927" lon="6.03003">
        <ele>2088.1999511719</ele>
        <time>2021-03-21T09:41:45.000Z</time>
      </trkpt>
      <trkpt lat="44.99926" lon="6.03002">
        <ele>2088.3999023438</ele>
        <time>2021-03-21T09:41:46.000Z</time>
      </trkpt>
      <trkpt lat="44.99926" lon="6.03002">
        <ele>2088.6000976562</ele>
        <time>2021-03-21T09:41:47.000Z</time>
      </trkpt>
      <trkpt lat="44.99925" lon="6.03001">
        <ele>2088.8000488281</ele>
        <time>2021-03-21T09:41:48.000Z</time>
      </trkpt>
      <trkpt lat="44.99925" lon="6.03">
        <ele>2089.1999511719</ele>
        <time>2021-03-21T09:41:49.000Z</time>
      </trkpt>
      <trkpt lat="44.99924" lon="6.03">
        <ele>2089.3999023438</ele>
        <time>2021-03-21T09:41:50.000Z</time>
      </trkpt>
      <trkpt lat="44.99924" lon="6.02999">
        <ele>2089.8000488281</ele>
        <time>2021-03-21T09:41:51.000Z</time>
      </trkpt>
      <trkpt lat="44.99923" lon="6.02999">
        <ele>2090</ele>
        <time>2021-03-21T09:41:52.000Z</time>
      </trkpt>
      <trkpt lat="44.99922" lon="6.02998">
        <ele>2090.1999511719</ele>
        <time>2021-03-21T09:41:53.000Z</time>
      </trkpt>
      <trkpt lat="44.99922" lon="6.02998">
        <ele>2090.3999023438</ele>
        <time>2021-03-21T09:41:54.000Z</time>
      </trkpt>
      <trkpt lat="44.99921" lon="6.02997">
        <ele>2090.6000976562</ele>
        <time>2021-03-21T09:41:55.000Z</time>
      </trkpt>
      <trkpt lat="44.99921" lon="6.02997">
        <ele>2090.6000976562</ele>
        <time>2021-03-21T09:41:56.000Z</time>
      </trkpt>
      <trkpt lat="44.9992" lon="6.02996">
        <ele>2091</ele>
        <time>2021-03-21T09:41:57.000Z</time>
      </trkpt>
      <trkpt lat="44.9992" lon="6.02996">
        <ele>2091.1999511719</ele>
        <time>2021-03-21T09:41:58.000Z</time>
      </trkpt>
      <trkpt lat="44.99919" lon="6.02995">
        <ele>2091.3999023438</ele>
        <time>2021-03-21T09:41:59.000Z</time>
      </trkpt>
      <trkpt lat="44.99919" lon="6.02994">
        <ele>2092</ele>
        <time>2021-03-21T09:42:00.000Z</time>
      </trkpt>
      <trkpt lat="44.99918" lon="6.02994">
        <ele>2092.1999511719</ele>
        <time>2021-03-21T09:42:01.000Z</time>
      </trkpt>
      <trkpt lat="44.99918" lon="6.02993">
        <ele>2092.3999023438</ele>
        <time>2021-03-21T09:42:02.000Z</time>
      </trkpt>
      <trkpt lat="44.99917" lon="6.02993">
        <ele>2092.6000976562</ele>
        <time>2021-03-21T09:42:03.000Z</time>
      </trkpt>
      <trkpt lat="44.99917" lon="6.02992">
        <ele>2092.8000488281</ele>
        <time>2021-03-21T09:42:04.000Z</time>
      </trkpt>
      <trkpt lat="44.99916" lon="6.02992">
        <ele>2093</ele>
        <time>2021-03-21T09:42:05.000Z</time>
      </trkpt>
      <trkpt lat="44.99916" lon="6.02991">
        <ele>2093.1999511719</ele>
        <time>2021-03-21T09:42:06.000Z</time>
      </trkpt>
      <trkpt lat="44.99915" lon="6.02991">
        <ele>2093.3999023438</ele>
        <time>2021-03-21T09:42:07.000Z</time>
      </trkpt>
      <trkpt lat="44.99915" lon="6.0299">
        <ele>2093.8000488281</ele>
        <time>2021-03-21T09:42:08.000Z</time>
      </trkpt>
      <trkpt lat="44.99914" lon="6.02989">
        <ele>2094</ele>
        <time>2021-03-21T09:42:09.000Z</time>
      </trkpt>
      <trkpt lat="44.99914" lon="6.02989">
        <ele>2094.1999511719</ele>
        <time>2021-03-21T09:42:10.000Z</time>
      </trkpt>
      <trkpt lat="44.99913" lon="6.02988">
        <ele>2094.6000976562</ele>
        <time>2021-03-21T09:42:11.000Z</time>
      </trkpt>
      <trkpt lat="44.99913" lon="6.02987">
        <ele>2094.8000488281</ele>
        <time>2021-03-21T09:42:12.000Z</time>
      </trkpt>
      <trkpt lat="44.99912" lon="6.02986">
        <ele>2095.3999023438</ele>
        <time>2021-03-21T09:42:13.000Z</time>
      </trkpt>
      <trkpt lat="44.99912" lon="6.02986">
        <ele>2095.8000488281</ele>
        <time>2021-03-21T09:42:14.000Z</time>
      </trkpt>
      <trkpt lat="44.99911" lon="6.02985">
        <ele>2096</ele>
        <time>2021-03-21T09:42:15.000Z</time>
      </trkpt>
      <trkpt lat="44.99911" lon="6.02985">
        <ele>2096.3999023438</ele>
        <time>2021-03-21T09:42:16.000Z</time>
      </trkpt>
      <trkpt lat="44.9991" lon="6.02984">
        <ele>2096.8000488281</ele>
        <time>2021-03-21T09:42:17.000Z</time>
      </trkpt>
      <trkpt lat="44.9991" lon="6.02983">
        <ele>2097.1999511719</ele>
        <time>2021-03-21T09:42:18.000Z</time>
      </trkpt>
      <trkpt lat="44.9991" lon="6.02983">
        <ele>2097.6000976562</ele>
        <time>2021-03-21T09:42:19.000Z</time>
      </trkpt>
      <trkpt lat="44.99909" lon="6.02982">
        <ele>2097.8000488281</ele>
        <time>2021-03-21T09:42:20.000Z</time>
      </trkpt>
      <trkpt lat="44.99909" lon="6.02982">
        <ele>2098.1999511719</ele>
        <time>2021-03-21T09:42:21.000Z</time>
      </trkpt>
      <trkpt lat="44.99908" lon="6.02982">
        <ele>2098.1999511719</ele>
        <time>2021-03-21T09:42:22.000Z</time>
      </trkpt>
      <trkpt lat="44.99908" lon="6.02981">
        <ele>2098.6000976562</ele>
        <time>2021-03-21T09:42:23.000Z</time>
      </trkpt>
      <trkpt lat="44.99907" lon="6.0298">
        <ele>2099</ele>
        <time>2021-03-21T09:42:24.000Z</time>
      </trkpt>
      <trkpt lat="44.99907" lon="6.02979">
        <ele>2099.6000976562</ele>
        <time>2021-03-21T09:42:25.000Z</time>
      </trkpt>
      <trkpt lat="44.99907" lon="6.02979">
        <ele>2100</ele>
        <time>2021-03-21T09:42:26.000Z</time>
      </trkpt>
      <trkpt lat="44.99906" lon="6.02978">
        <ele>2100.1999511719</ele>
        <time>2021-03-21T09:42:27.000Z</time>
      </trkpt>
      <trkpt lat="44.99906" lon="6.02978">
        <ele>2100.6000976562</ele>
        <time>2021-03-21T09:42:28.000Z</time>
      </trkpt>
      <trkpt lat="44.99905" lon="6.02977">
        <ele>2100.8000488281</ele>
        <time>2021-03-21T09:42:29.000Z</time>
      </trkpt>
      <trkpt lat="44.99905" lon="6.02977">
        <ele>2101</ele>
        <time>2021-03-21T09:42:30.000Z</time>
      </trkpt>
      <trkpt lat="44.99904" lon="6.02977">
        <ele>2101.1999511719</ele>
        <time>2021-03-21T09:42:31.000Z</time>
      </trkpt>
      <trkpt lat="44.99904" lon="6.02976">
        <ele>2101.6000976562</ele>
        <time>2021-03-21T09:42:32.000Z</time>
      </trkpt>
      <trkpt lat="44.99903" lon="6.02976">
        <ele>2101.8000488281</ele>
        <time>2021-03-21T09:42:33.000Z</time>
      </trkpt>
      <trkpt lat="44.99903" lon="6.02975">
        <ele>2102</ele>
        <time>2021-03-21T09:42:34.000Z</time>
      </trkpt>
      <trkpt lat="44.99902" lon="6.02975">
        <ele>2102.3999023438</ele>
        <time>2021-03-21T09:42:35.000Z</time>
      </trkpt>
      <trkpt lat="44.99902" lon="6.02975">
        <ele>2102.6000976562</ele>
        <time>2021-03-21T09:42:36.000Z</time>
      </trkpt>
      <trkpt lat="44.99901" lon="6.02974">
        <ele>2103</ele>
        <time>2021-03-21T09:42:37.000Z</time>
      </trkpt>
      <trkpt lat="44.99901" lon="6.02974">
        <ele>2103.3999023438</ele>
        <time>2021-03-21T09:42:38.000Z</time>
      </trkpt>
      <trkpt lat="44.99901" lon="6.02973">
        <ele>2103.8000488281</ele>
        <time>2021-03-21T09:42:39.000Z</time>
      </trkpt>
      <trkpt lat="44.999" lon="6.02973">
        <ele>2104</ele>
        <time>2021-03-21T09:42:40.000Z</time>
      </trkpt>
      <trkpt lat="44.999" lon="6.02973">
        <ele>2103.8000488281</ele>
        <time>2021-03-21T09:42:41.000Z</time>
      </trkpt>
      <trkpt lat="44.999" lon="6.02974">
        <ele>2103.3999023438</ele>
        <time>2021-03-21T09:42:42.000Z</time>
      </trkpt>
      <trkpt lat="44.999" lon="6.02974">
        <ele>2103.1999511719</ele>
        <time>2021-03-21T09:42:43.000Z</time>
      </trkpt>
      <trkpt lat="44.999" lon="6.02974">
        <ele>2103</ele>
        <time>2021-03-21T09:42:44.000Z</time>
      </trkpt>
      <trkpt lat="44.999" lon="6.02975">
        <ele>2102.8000488281</ele>
        <time>2021-03-21T09:42:45.000Z</time>
      </trkpt>
      <trkpt lat="44.999" lon="6.02975">
        <ele>2102.6000976562</ele>
        <time>2021-03-21T09:42:46.000Z</time>
      </trkpt>
      <trkpt lat="44.999" lon="6.02975">
        <ele>2102.3999023438</ele>
        <time>2021-03-21T09:42:47.000Z</time>
      </trkpt>
      <trkpt lat="44.999" lon="6.02975">
        <ele>2102.6000976562</ele>
        <time>2021-03-21T09:42:48.000Z</time>
      </trkpt>
      <trkpt lat="44.999" lon="6.02975">
        <ele>2102.6000976562</ele>
        <time>2021-03-21T09:42:49.000Z</time>
      </trkpt>
      <trkpt lat="44.999" lon="6.02975">
        <ele>2102.3999023438</ele>
        <time>2021-03-21T09:42:50.000Z</time>
      </trkpt>
      <trkpt lat="44.999" lon="6.02976">
        <ele>2102.1999511719</ele>
        <time>2021-03-21T09:42:51.000Z</time>
      </trkpt>
      <trkpt lat="44.999" lon="6.02976">
        <ele>2102.1999511719</ele>
        <time>2021-03-21T09:42:52.000Z</time>
      </trkpt>
      <trkpt lat="44.999" lon="6.02976">
        <ele>2102.3999023438</ele>
        <time>2021-03-21T09:42:53.000Z</time>
      </trkpt>
      <trkpt lat="44.999" lon="6.02976">
        <ele>2102.3999023438</ele>
        <time>2021-03-21T09:42:54.000Z</time>
      </trkpt>
      <trkpt lat="44.999" lon="6.02975">
        <ele>2102.6000976562</ele>
        <time>2021-03-21T09:42:55.000Z</time>
      </trkpt>
      <trkpt lat="44.999" lon="6.02975">
        <ele>2102.3999023438</ele>
        <time>2021-03-21T09:42:56.000Z</time>
      </trkpt>
      <trkpt lat="44.99899" lon="6.02976">
        <ele>2102.3999023438</ele>
        <time>2021-03-21T09:42:57.000Z</time>
      </trkpt>
      <trkpt lat="44.99899" lon="6.02976">
        <ele>2102.1999511719</ele>
        <time>2021-03-21T09:42:58.000Z</time>
      </trkpt>
      <trkpt lat="44.99899" lon="6.02976">
        <ele>2101.8000488281</ele>
        <time>2021-03-21T09:42:59.000Z</time>
      </trkpt>
      <trkpt lat="44.99899" lon="6.02976">
        <ele>2102</ele>
        <time>2021-03-21T09:43:00.000Z</time>
      </trkpt>
      <trkpt lat="44.99899" lon="6.02977">
        <ele>2101.8000488281</ele>
        <time>2021-03-21T09:43:01.000Z</time>
      </trkpt>
      <trkpt lat="44.99899" lon="6.02976">
        <ele>2102</ele>
        <time>2021-03-21T09:43:02.000Z</time>
      </trkpt>
      <trkpt lat="44.99898" lon="6.02976">
        <ele>2102.1999511719</ele>
        <time>2021-03-21T09:43:03.000Z</time>
      </trkpt>
      <trkpt lat="44.99898" lon="6.02975">
        <ele>2102.6000976562</ele>
        <time>2021-03-21T09:43:04.000Z</time>
      </trkpt>
      <trkpt lat="44.99897" lon="6.02975">
        <ele>2103</ele>
        <time>2021-03-21T09:43:05.000Z</time>
      </trkpt>
      <trkpt lat="44.99897" lon="6.02974">
        <ele>2103.3999023438</ele>
        <time>2021-03-21T09:43:06.000Z</time>
      </trkpt>
      <trkpt lat="44.99897" lon="6.02974">
        <ele>2103.8000488281</ele>
        <time>2021-03-21T09:43:07.000Z</time>
      </trkpt>
      <trkpt lat="44.99896" lon="6.02973">
        <ele>2104.3999023438</ele>
        <time>2021-03-21T09:43:08.000Z</time>
      </trkpt>
      <trkpt lat="44.99896" lon="6.02972">
        <ele>2104.8000488281</ele>
        <time>2021-03-21T09:43:09.000Z</time>
      </trkpt>
      <trkpt lat="44.99896" lon="6.02971">
        <ele>2105.3999023438</ele>
        <time>2021-03-21T09:43:10.000Z</time>
      </trkpt>
      <trkpt lat="44.99895" lon="6.0297">
        <ele>2106</ele>
        <time>2021-03-21T09:43:11.000Z</time>
      </trkpt>
      <trkpt lat="44.99895" lon="6.0297">
        <ele>2106.3999023438</ele>
        <time>2021-03-21T09:43:12.000Z</time>
      </trkpt>
      <trkpt lat="44.99894" lon="6.02969">
        <ele>2107</ele>
        <time>2021-03-21T09:43:13.000Z</time>
      </trkpt>
      <trkpt lat="44.99894" lon="6.02969">
        <ele>2107.1999511719</ele>
        <time>2021-03-21T09:43:14.000Z</time>
      </trkpt>
      <trkpt lat="44.99893" lon="6.02968">
        <ele>2107.8000488281</ele>
        <time>2021-03-21T09:43:15.000Z</time>
      </trkpt>
      <trkpt lat="44.99893" lon="6.02967">
        <ele>2108.1999511719</ele>
        <time>2021-03-21T09:43:16.000Z</time>
      </trkpt>
      <trkpt lat="44.99892" lon="6.02967">
        <ele>2108.6000976562</ele>
        <time>2021-03-21T09:43:17.000Z</time>
      </trkpt>
      <trkpt lat="44.99892" lon="6.02966">
        <ele>2109</ele>
        <time>2021-03-21T09:43:18.000Z</time>
      </trkpt>
      <trkpt lat="44.99891" lon="6.02965">
        <ele>2109.6000976562</ele>
        <time>2021-03-21T09:43:19.000Z</time>
      </trkpt>
      <trkpt lat="44.99891" lon="6.02965">
        <ele>2110</ele>
        <time>2021-03-21T09:43:20.000Z</time>
      </trkpt>
      <trkpt lat="44.9989" lon="6.02964">
        <ele>2110.6000976562</ele>
        <time>2021-03-21T09:43:21.000Z</time>
      </trkpt>
      <trkpt lat="44.9989" lon="6.02963">
        <ele>2111</ele>
        <time>2021-03-21T09:43:22.000Z</time>
      </trkpt>
      <trkpt lat="44.9989" lon="6.02962">
        <ele>2111.6000976562</ele>
        <time>2021-03-21T09:43:23.000Z</time>
      </trkpt>
      <trkpt lat="44.99889" lon="6.02962">
        <ele>2112</ele>
        <time>2021-03-21T09:43:24.000Z</time>
      </trkpt>
      <trkpt lat="44.99889" lon="6.02961">
        <ele>2112.1999511719</ele>
        <time>2021-03-21T09:43:25.000Z</time>
      </trkpt>
      <trkpt lat="44.99888" lon="6.02961">
        <ele>2112.8000488281</ele>
        <time>2021-03-21T09:43:26.000Z</time>
      </trkpt>
      <trkpt lat="44.99888" lon="6.0296">
        <ele>2113</ele>
        <time>2021-03-21T09:43:27.000Z</time>
      </trkpt>
      <trkpt lat="44.99887" lon="6.02959">
        <ele>2113.6000976562</ele>
        <time>2021-03-21T09:43:28.000Z</time>
      </trkpt>
      <trkpt lat="44.99887" lon="6.02959">
        <ele>2114</ele>
        <time>2021-03-21T09:43:29.000Z</time>
      </trkpt>
      <trkpt lat="44.99886" lon="6.02958">
        <ele>2114.3999023438</ele>
        <time>2021-03-21T09:43:30.000Z</time>
      </trkpt>
      <trkpt lat="44.99886" lon="6.02958">
        <ele>2114.8000488281</ele>
        <time>2021-03-21T09:43:31.000Z</time>
      </trkpt>
      <trkpt lat="44.99885" lon="6.02957">
        <ele>2115.1999511719</ele>
        <time>2021-03-21T09:43:32.000Z</time>
      </trkpt>
      <trkpt lat="44.99885" lon="6.02956">
        <ele>2115.6000976562</ele>
        <time>2021-03-21T09:43:33.000Z</time>
      </trkpt>
      <trkpt lat="44.99884" lon="6.02956">
        <ele>2115.8000488281</ele>
        <time>2021-03-21T09:43:34.000Z</time>
      </trkpt>
      <trkpt lat="44.99884" lon="6.02955">
        <ele>2116.3999023438</ele>
        <time>2021-03-21T09:43:35.000Z</time>
      </trkpt>
      <trkpt lat="44.99883" lon="6.02955">
        <ele>2116.8000488281</ele>
        <time>2021-03-21T09:43:36.000Z</time>
      </trkpt>
      <trkpt lat="44.99883" lon="6.02954">
        <ele>2117.1999511719</ele>
        <time>2021-03-21T09:43:37.000Z</time>
      </trkpt>
      <trkpt lat="44.99882" lon="6.02953">
        <ele>2117.6000976562</ele>
        <time>2021-03-21T09:43:38.000Z</time>
      </trkpt>
      <trkpt lat="44.99882" lon="6.02953">
        <ele>2118</ele>
        <time>2021-03-21T09:43:39.000Z</time>
      </trkpt>
      <trkpt lat="44.99881" lon="6.02952">
        <ele>2118.3999023438</ele>
        <time>2021-03-21T09:43:40.000Z</time>
      </trkpt>
      <trkpt lat="44.99881" lon="6.02951">
        <ele>2118.8000488281</ele>
        <time>2021-03-21T09:43:41.000Z</time>
      </trkpt>
      <trkpt lat="44.9988" lon="6.02951">
        <ele>2119.1999511719</ele>
        <time>2021-03-21T09:43:42.000Z</time>
      </trkpt>
      <trkpt lat="44.9988" lon="6.0295">
        <ele>2119.6000976562</ele>
        <time>2021-03-21T09:43:43.000Z</time>
      </trkpt>
      <trkpt lat="44.9988" lon="6.0295">
        <ele>2120</ele>
        <time>2021-03-21T09:43:44.000Z</time>
      </trkpt>
      <trkpt lat="44.99879" lon="6.02949">
        <ele>2120.3999023438</ele>
        <time>2021-03-21T09:43:45.000Z</time>
      </trkpt>
      <trkpt lat="44.99879" lon="6.02948">
        <ele>2120.8000488281</ele>
        <time>2021-03-21T09:43:46.000Z</time>
      </trkpt>
      <trkpt lat="44.99878" lon="6.02948">
        <ele>2121.1999511719</ele>
        <time>2021-03-21T09:43:47.000Z</time>
      </trkpt>
      <trkpt lat="44.99878" lon="6.02947">
        <ele>2121.6000976562</ele>
        <time>2021-03-21T09:43:48.000Z</time>
      </trkpt>
      <trkpt lat="44.99878" lon="6.02946">
        <ele>2122</ele>
        <time>2021-03-21T09:43:49.000Z</time>
      </trkpt>
      <trkpt lat="44.99877" lon="6.02946">
        <ele>2122.3999023438</ele>
        <time>2021-03-21T09:43:50.000Z</time>
      </trkpt>
      <trkpt lat="44.99877" lon="6.02945">
        <ele>2122.8000488281</ele>
        <time>2021-03-21T09:43:51.000Z</time>
      </trkpt>
      <trkpt lat="44.99877" lon="6.02945">
        <ele>2123.1999511719</ele>
        <time>2021-03-21T09:43:52.000Z</time>
      </trkpt>
      <trkpt lat="44.99876" lon="6.02944">
        <ele>2123.8000488281</ele>
        <time>2021-03-21T09:43:53.000Z</time>
      </trkpt>
      <trkpt lat="44.99876" lon="6.02943">
        <ele>2124.1999511719</ele>
        <time>2021-03-21T09:43:54.000Z</time>
      </trkpt>
      <trkpt lat="44.99875" lon="6.02942">
        <ele>2124.6000976562</ele>
        <time>2021-03-21T09:43:55.000Z</time>
      </trkpt>
      <trkpt lat="44.99875" lon="6.02941">
        <ele>2125.1999511719</ele>
        <time>2021-03-21T09:43:56.000Z</time>
      </trkpt>
      <trkpt lat="44.99875" lon="6.02941">
        <ele>2125.3999023438</ele>
        <time>2021-03-21T09:43:57.000Z</time>
      </trkpt>
      <trkpt lat="44.99874" lon="6.0294">
        <ele>2125.6000976562</ele>
        <time>2021-03-21T09:43:58.000Z</time>
      </trkpt>
      <trkpt lat="44.99874" lon="6.0294">
        <ele>2125.8000488281</ele>
        <time>2021-03-21T09:43:59.000Z</time>
      </trkpt>
      <trkpt lat="44.99874" lon="6.02939">
        <ele>2126</ele>
        <time>2021-03-21T09:44:00.000Z</time>
      </trkpt>
      <trkpt lat="44.99873" lon="6.02938">
        <ele>2126.3999023438</ele>
        <time>2021-03-21T09:44:01.000Z</time>
      </trkpt>
      <trkpt lat="44.99873" lon="6.02938">
        <ele>2126.6000976562</ele>
        <time>2021-03-21T09:44:02.000Z</time>
      </trkpt>
      <trkpt lat="44.99873" lon="6.02937">
        <ele>2126.8000488281</ele>
        <time>2021-03-21T09:44:03.000Z</time>
      </trkpt>
      <trkpt lat="44.99872" lon="6.02937">
        <ele>2126.8000488281</ele>
        <time>2021-03-21T09:44:04.000Z</time>
      </trkpt>
      <trkpt lat="44.99872" lon="6.02936">
        <ele>2127.3999023438</ele>
        <time>2021-03-21T09:44:05.000Z</time>
      </trkpt>
      <trkpt lat="44.99871" lon="6.02935">
        <ele>2127.3999023438</ele>
        <time>2021-03-21T09:44:06.000Z</time>
      </trkpt>
      <trkpt lat="44.99871" lon="6.02934">
        <ele>2127.6000976562</ele>
        <time>2021-03-21T09:44:07.000Z</time>
      </trkpt>
      <trkpt lat="44.9987" lon="6.02934">
        <ele>2127.8000488281</ele>
        <time>2021-03-21T09:44:08.000Z</time>
      </trkpt>
      <trkpt lat="44.9987" lon="6.02933">
        <ele>2128</ele>
        <time>2021-03-21T09:44:09.000Z</time>
      </trkpt>
      <trkpt lat="44.9987" lon="6.02933">
        <ele>2128.1999511719</ele>
        <time>2021-03-21T09:44:10.000Z</time>
      </trkpt>
      <trkpt lat="44.99869" lon="6.02932">
        <ele>2128.3999023438</ele>
        <time>2021-03-21T09:44:11.000Z</time>
      </trkpt>
      <trkpt lat="44.99869" lon="6.02932">
        <ele>2128.6000976562</ele>
        <time>2021-03-21T09:44:12.000Z</time>
      </trkpt>
      <trkpt lat="44.99868" lon="6.02931">
        <ele>2128.6000976562</ele>
        <time>2021-03-21T09:44:13.000Z</time>
      </trkpt>
      <trkpt lat="44.99868" lon="6.0293">
        <ele>2128.6000976562</ele>
        <time>2021-03-21T09:44:14.000Z</time>
      </trkpt>
      <trkpt lat="44.99868" lon="6.0293">
        <ele>2128.6000976562</ele>
        <time>2021-03-21T09:44:15.000Z</time>
      </trkpt>
      <trkpt lat="44.99867" lon="6.02929">
        <ele>2128.8000488281</ele>
        <time>2021-03-21T09:44:16.000Z</time>
      </trkpt>
      <trkpt lat="44.99867" lon="6.02928">
        <ele>2128.8000488281</ele>
        <time>2021-03-21T09:44:17.000Z</time>
      </trkpt>
      <trkpt lat="44.99866" lon="6.02927">
        <ele>2128.8000488281</ele>
        <time>2021-03-21T09:44:18.000Z</time>
      </trkpt>
      <trkpt lat="44.99866" lon="6.02927">
        <ele>2129</ele>
        <time>2021-03-21T09:44:19.000Z</time>
      </trkpt>
      <trkpt lat="44.99865" lon="6.02927">
        <ele>2128.8000488281</ele>
        <time>2021-03-21T09:44:20.000Z</time>
      </trkpt>
      <trkpt lat="44.99865" lon="6.02926">
        <ele>2128.8000488281</ele>
        <time>2021-03-21T09:44:21.000Z</time>
      </trkpt>
      <trkpt lat="44.99864" lon="6.02926">
        <ele>2128.8000488281</ele>
        <time>2021-03-21T09:44:22.000Z</time>
      </trkpt>
      <trkpt lat="44.99864" lon="6.02925">
        <ele>2128.6000976562</ele>
        <time>2021-03-21T09:44:23.000Z</time>
      </trkpt>
      <trkpt lat="44.99864" lon="6.02925">
        <ele>2128.6000976562</ele>
        <time>2021-03-21T09:44:24.000Z</time>
      </trkpt>
      <trkpt lat="44.99863" lon="6.02925">
        <ele>2128.6000976562</ele>
        <time>2021-03-21T09:44:25.000Z</time>
      </trkpt>
      <trkpt lat="44.99864" lon="6.02925">
        <ele>2128.6000976562</ele>
        <time>2021-03-21T09:44:26.000Z</time>
      </trkpt>
      <trkpt lat="44.99864" lon="6.02925">
        <ele>2128.6000976562</ele>
        <time>2021-03-21T09:44:27.000Z</time>
      </trkpt>
      <trkpt lat="44.99863" lon="6.02924">
        <ele>2128.8000488281</ele>
        <time>2021-03-21T09:44:28.000Z</time>
      </trkpt>
      <trkpt lat="44.99863" lon="6.02924">
        <ele>2128.8000488281</ele>
        <time>2021-03-21T09:44:29.000Z</time>
      </trkpt>
      <trkpt lat="44.99863" lon="6.02923">
        <ele>2128.8000488281</ele>
        <time>2021-03-21T09:44:30.000Z</time>
      </trkpt>
      <trkpt lat="44.99862" lon="6.02923">
        <ele>2128.8000488281</ele>
        <time>2021-03-21T09:44:31.000Z</time>
      </trkpt>
      <trkpt lat="44.99862" lon="6.02922">
        <ele>2128.8000488281</ele>
        <time>2021-03-21T09:44:32.000Z</time>
      </trkpt>
      <trkpt lat="44.99861" lon="6.02921">
        <ele>2128.8000488281</ele>
        <time>2021-03-21T09:44:33.000Z</time>
      </trkpt>
      <trkpt lat="44.9986" lon="6.02921">
        <ele>2128.6000976562</ele>
        <time>2021-03-21T09:44:34.000Z</time>
      </trkpt>
      <trkpt lat="44.9986" lon="6.02921">
        <ele>2128.3999023438</ele>
        <time>2021-03-21T09:44:35.000Z</time>
      </trkpt>
      <trkpt lat="44.99859" lon="6.0292">
        <ele>2128.3999023438</ele>
        <time>2021-03-21T09:44:36.000Z</time>
      </trkpt>
      <trkpt lat="44.99858" lon="6.02919">
        <ele>2128.3999023438</ele>
        <time>2021-03-21T09:44:37.000Z</time>
      </trkpt>
      <trkpt lat="44.99857" lon="6.02919">
        <ele>2128.1999511719</ele>
        <time>2021-03-21T09:44:38.000Z</time>
      </trkpt>
      <trkpt lat="44.99857" lon="6.02919">
        <ele>2128</ele>
        <time>2021-03-21T09:44:39.000Z</time>
      </trkpt>
      <trkpt lat="44.99856" lon="6.02918">
        <ele>2127.6000976562</ele>
        <time>2021-03-21T09:44:40.000Z</time>
      </trkpt>
      <trkpt lat="44.99855" lon="6.02918">
        <ele>2127.3999023438</ele>
        <time>2021-03-21T09:44:41.000Z</time>
      </trkpt>
      <trkpt lat="44.99854" lon="6.02918">
        <ele>2127.1999511719</ele>
        <time>2021-03-21T09:44:42.000Z</time>
      </trkpt>
      <trkpt lat="44.99853" lon="6.02918">
        <ele>2126.8000488281</ele>
        <time>2021-03-21T09:44:43.000Z</time>
      </trkpt>
      <trkpt lat="44.99853" lon="6.02918">
        <ele>2126.6000976562</ele>
        <time>2021-03-21T09:44:44.000Z</time>
      </trkpt>
      <trkpt lat="44.99852" lon="6.02918">
        <ele>2126.1999511719</ele>
        <time>2021-03-21T09:44:45.000Z</time>
      </trkpt>
      <trkpt lat="44.99851" lon="6.02918">
        <ele>2126</ele>
        <time>2021-03-21T09:44:46.000Z</time>
      </trkpt>
      <trkpt lat="44.9985" lon="6.02917">
        <ele>2125.8000488281</ele>
        <time>2021-03-21T09:44:47.000Z</time>
      </trkpt>
      <trkpt lat="44.9985" lon="6.02917">
        <ele>2125.6000976562</ele>
        <time>2021-03-21T09:44:48.000Z</time>
      </trkpt>
      <trkpt lat="44.99849" lon="6.02917">
        <ele>2125.3999023438</ele>
        <time>2021-03-21T09:44:49.000Z</time>
      </trkpt>
      <trkpt lat="44.99848" lon="6.02917">
        <ele>2125.1999511719</ele>
        <time>2021-03-21T09:44:50.000Z</time>
      </trkpt>
      <trkpt lat="44.99848" lon="6.02917">
        <ele>2125</ele>
        <time>2021-03-21T09:44:51.000Z</time>
      </trkpt>
      <trkpt lat="44.99847" lon="6.02916">
        <ele>2124.8000488281</ele>
        <time>2021-03-21T09:44:52.000Z</time>
      </trkpt>
      <trkpt lat="44.99847" lon="6.02917">
        <ele>2124.6000976562</ele>
        <time>2021-03-21T09:44:53.000Z</time>
      </trkpt>
      <trkpt lat="44.99846" lon="6.02916">
        <ele>2124.6000976562</ele>
        <time>2021-03-21T09:44:54.000Z</time>
      </trkpt>
      <trkpt lat="44.99845" lon="6.02916">
        <ele>2124.3999023438</ele>
        <time>2021-03-21T09:44:55.000Z</time>
      </trkpt>
      <trkpt lat="44.99845" lon="6.02915">
        <ele>2124.3999023438</ele>
        <time>2021-03-21T09:44:56.000Z</time>
      </trkpt>
      <trkpt lat="44.99844" lon="6.02915">
        <ele>2124.1999511719</ele>
        <time>2021-03-21T09:44:57.000Z</time>
      </trkpt>
      <trkpt lat="44.99844" lon="6.02915">
        <ele>2124.1999511719</ele>
        <time>2021-03-21T09:44:58.000Z</time>
      </trkpt>
      <trkpt lat="44.99843" lon="6.02914">
        <ele>2124</ele>
        <time>2021-03-21T09:44:59.000Z</time>
      </trkpt>
      <trkpt lat="44.99843" lon="6.02914">
        <ele>2124</ele>
        <time>2021-03-21T09:45:00.000Z</time>
      </trkpt>
      <trkpt lat="44.99842" lon="6.02913">
        <ele>2124</ele>
        <time>2021-03-21T09:45:01.000Z</time>
      </trkpt>
      <trkpt lat="44.99841" lon="6.02913">
        <ele>2123.8000488281</ele>
        <time>2021-03-21T09:45:02.000Z</time>
      </trkpt>
      <trkpt lat="44.99841" lon="6.02913">
        <ele>2123.8000488281</ele>
        <time>2021-03-21T09:45:03.000Z</time>
      </trkpt>
      <trkpt lat="44.9984" lon="6.02912">
        <ele>2123.8000488281</ele>
        <time>2021-03-21T09:45:04.000Z</time>
      </trkpt>
      <trkpt lat="44.9984" lon="6.02912">
        <ele>2123.6000976562</ele>
        <time>2021-03-21T09:45:05.000Z</time>
      </trkpt>
      <trkpt lat="44.99839" lon="6.02912">
        <ele>2123.3999023438</ele>
        <time>2021-03-21T09:45:06.000Z</time>
      </trkpt>
      <trkpt lat="44.99839" lon="6.02911">
        <ele>2123.6000976562</ele>
        <time>2021-03-21T09:45:07.000Z</time>
      </trkpt>
      <trkpt lat="44.99838" lon="6.02911">
        <ele>2123.3999023438</ele>
        <time>2021-03-21T09:45:08.000Z</time>
      </trkpt>
      <trkpt lat="44.99837" lon="6.02911">
        <ele>2123.1999511719</ele>
        <time>2021-03-21T09:45:09.000Z</time>
      </trkpt>
      <trkpt lat="44.99837" lon="6.0291">
        <ele>2123</ele>
        <time>2021-03-21T09:45:10.000Z</time>
      </trkpt>
      <trkpt lat="44.99836" lon="6.0291">
        <ele>2122.8000488281</ele>
        <time>2021-03-21T09:45:11.000Z</time>
      </trkpt>
      <trkpt lat="44.99836" lon="6.0291">
        <ele>2122.8000488281</ele>
        <time>2021-03-21T09:45:12.000Z</time>
      </trkpt>
      <trkpt lat="44.99835" lon="6.0291">
        <ele>2122.6000976562</ele>
        <time>2021-03-21T09:45:13.000Z</time>
      </trkpt>
      <trkpt lat="44.99835" lon="6.0291">
        <ele>2122.6000976562</ele>
        <time>2021-03-21T09:45:14.000Z</time>
      </trkpt>
      <trkpt lat="44.99835" lon="6.0291">
        <ele>2122.3999023438</ele>
        <time>2021-03-21T09:45:15.000Z</time>
      </trkpt>
      <trkpt lat="44.99835" lon="6.0291">
        <ele>2122.6000976562</ele>
        <time>2021-03-21T09:45:16.000Z</time>
      </trkpt>
      <trkpt lat="44.99834" lon="6.02909">
        <ele>2122.3999023438</ele>
        <time>2021-03-21T09:45:17.000Z</time>
      </trkpt>
      <trkpt lat="44.99834" lon="6.02909">
        <ele>2122.3999023438</ele>
        <time>2021-03-21T09:45:18.000Z</time>
      </trkpt>
      <trkpt lat="44.99833" lon="6.02909">
        <ele>2122.1999511719</ele>
        <time>2021-03-21T09:45:19.000Z</time>
      </trkpt>
      <trkpt lat="44.99832" lon="6.02908">
        <ele>2122.1999511719</ele>
        <time>2021-03-21T09:45:20.000Z</time>
      </trkpt>
      <trkpt lat="44.99832" lon="6.02908">
        <ele>2122.1999511719</ele>
        <time>2021-03-21T09:45:21.000Z</time>
      </trkpt>
      <trkpt lat="44.99831" lon="6.02907">
        <ele>2122.1999511719</ele>
        <time>2021-03-21T09:45:22.000Z</time>
      </trkpt>
      <trkpt lat="44.99831" lon="6.02907">
        <ele>2122</ele>
        <time>2021-03-21T09:45:23.000Z</time>
      </trkpt>
      <trkpt lat="44.9983" lon="6.02906">
        <ele>2122</ele>
        <time>2021-03-21T09:45:24.000Z</time>
      </trkpt>
      <trkpt lat="44.99829" lon="6.02906">
        <ele>2122</ele>
        <time>2021-03-21T09:45:25.000Z</time>
      </trkpt>
      <trkpt lat="44.99829" lon="6.02905">
        <ele>2122</ele>
        <time>2021-03-21T09:45:26.000Z</time>
      </trkpt>
      <trkpt lat="44.99828" lon="6.02905">
        <ele>2121.8000488281</ele>
        <time>2021-03-21T09:45:27.000Z</time>
      </trkpt>
      <trkpt lat="44.99828" lon="6.02904">
        <ele>2121.8000488281</ele>
        <time>2021-03-21T09:45:28.000Z</time>
      </trkpt>
      <trkpt lat="44.99827" lon="6.02904">
        <ele>2121.3999023438</ele>
        <time>2021-03-21T09:45:29.000Z</time>
      </trkpt>
      <trkpt lat="44.99826" lon="6.02904">
        <ele>2121.3999023438</ele>
        <time>2021-03-21T09:45:30.000Z</time>
      </trkpt>
      <trkpt lat="44.99825" lon="6.02903">
        <ele>2121.6000976562</ele>
        <time>2021-03-21T09:45:31.000Z</time>
      </trkpt>
      <trkpt lat="44.99825" lon="6.02903">
        <ele>2121.6000976562</ele>
        <time>2021-03-21T09:45:32.000Z</time>
      </trkpt>
      <trkpt lat="44.99825" lon="6.02902">
        <ele>2122.1999511719</ele>
        <time>2021-03-21T09:45:33.000Z</time>
      </trkpt>
      <trkpt lat="44.99824" lon="6.02901">
        <ele>2122.6000976562</ele>
        <time>2021-03-21T09:45:34.000Z</time>
      </trkpt>
      <trkpt lat="44.99823" lon="6.02901">
        <ele>2122.6000976562</ele>
        <time>2021-03-21T09:45:35.000Z</time>
      </trkpt>
      <trkpt lat="44.99823" lon="6.029">
        <ele>2122.6000976562</ele>
        <time>2021-03-21T09:45:36.000Z</time>
      </trkpt>
      <trkpt lat="44.99822" lon="6.029">
        <ele>2122.8000488281</ele>
        <time>2021-03-21T09:45:37.000Z</time>
      </trkpt>
      <trkpt lat="44.99822" lon="6.02899">
        <ele>2123.1999511719</ele>
        <time>2021-03-21T09:45:38.000Z</time>
      </trkpt>
      <trkpt lat="44.99821" lon="6.02899">
        <ele>2123</ele>
        <time>2021-03-21T09:45:39.000Z</time>
      </trkpt>
      <trkpt lat="44.99821" lon="6.02898">
        <ele>2123.3999023438</ele>
        <time>2021-03-21T09:45:40.000Z</time>
      </trkpt>
      <trkpt lat="44.99821" lon="6.02897">
        <ele>2123.8000488281</ele>
        <time>2021-03-21T09:45:41.000Z</time>
      </trkpt>
      <trkpt lat="44.99821" lon="6.02896">
        <ele>2125</ele>
        <time>2021-03-21T09:45:42.000Z</time>
      </trkpt>
      <trkpt lat="44.99822" lon="6.02895">
        <ele>2125.3999023438</ele>
        <time>2021-03-21T09:45:43.000Z</time>
      </trkpt>
      <trkpt lat="44.99822" lon="6.02895">
        <ele>2125.6000976562</ele>
        <time>2021-03-21T09:45:44.000Z</time>
      </trkpt>
      <trkpt lat="44.99822" lon="6.02895">
        <ele>2125.6000976562</ele>
        <time>2021-03-21T09:45:45.000Z</time>
      </trkpt>
      <trkpt lat="44.99822" lon="6.02895">
        <ele>2125.6000976562</ele>
        <time>2021-03-21T09:45:46.000Z</time>
      </trkpt>
      <trkpt lat="44.99822" lon="6.02896">
        <ele>2125.3999023438</ele>
        <time>2021-03-21T09:45:47.000Z</time>
      </trkpt>
      <trkpt lat="44.99822" lon="6.02895">
        <ele>2126</ele>
        <time>2021-03-21T09:45:48.000Z</time>
      </trkpt>
      <trkpt lat="44.99823" lon="6.02895">
        <ele>2126.1999511719</ele>
        <time>2021-03-21T09:45:49.000Z</time>
      </trkpt>
      <trkpt lat="44.99824" lon="6.02895">
        <ele>2126.6000976562</ele>
        <time>2021-03-21T09:45:50.000Z</time>
      </trkpt>
      <trkpt lat="44.99824" lon="6.02894">
        <ele>2127</ele>
        <time>2021-03-21T09:45:51.000Z</time>
      </trkpt>
      <trkpt lat="44.99825" lon="6.02895">
        <ele>2127</ele>
        <time>2021-03-21T09:45:52.000Z</time>
      </trkpt>
      <trkpt lat="44.99826" lon="6.02894">
        <ele>2127.8000488281</ele>
        <time>2021-03-21T09:45:53.000Z</time>
      </trkpt>
      <trkpt lat="44.99826" lon="6.02894">
        <ele>2128</ele>
        <time>2021-03-21T09:45:54.000Z</time>
      </trkpt>
      <trkpt lat="44.99827" lon="6.02893">
        <ele>2128.8000488281</ele>
        <time>2021-03-21T09:45:55.000Z</time>
      </trkpt>
      <trkpt lat="44.99827" lon="6.02893">
        <ele>2129.3999023438</ele>
        <time>2021-03-21T09:45:56.000Z</time>
      </trkpt>
      <trkpt lat="44.99828" lon="6.02893">
        <ele>2129.6000976562</ele>
        <time>2021-03-21T09:45:57.000Z</time>
      </trkpt>
      <trkpt lat="44.99828" lon="6.02892">
        <ele>2130</ele>
        <time>2021-03-21T09:45:58.000Z</time>
      </trkpt>
      <trkpt lat="44.99829" lon="6.02892">
        <ele>2130.1999511719</ele>
        <time>2021-03-21T09:45:59.000Z</time>
      </trkpt>
      <trkpt lat="44.9983" lon="6.02891">
        <ele>2131.6000976562</ele>
        <time>2021-03-21T09:46:00.000Z</time>
      </trkpt>
      <trkpt lat="44.9983" lon="6.0289">
        <ele>2132</ele>
        <time>2021-03-21T09:46:01.000Z</time>
      </trkpt>
      <trkpt lat="44.99831" lon="6.0289">
        <ele>2132.6000976562</ele>
        <time>2021-03-21T09:46:02.000Z</time>
      </trkpt>
      <trkpt lat="44.99831" lon="6.02889">
        <ele>2133</ele>
        <time>2021-03-21T09:46:03.000Z</time>
      </trkpt>
      <trkpt lat="44.99832" lon="6.02888">
        <ele>2133.8000488281</ele>
        <time>2021-03-21T09:46:04.000Z</time>
      </trkpt>
      <trkpt lat="44.99832" lon="6.02888">
        <ele>2134</ele>
        <time>2021-03-21T09:46:05.000Z</time>
      </trkpt>
      <trkpt lat="44.99832" lon="6.02888">
        <ele>2134.1999511719</ele>
        <time>2021-03-21T09:46:06.000Z</time>
      </trkpt>
      <trkpt lat="44.99833" lon="6.02887">
        <ele>2134.6000976562</ele>
        <time>2021-03-21T09:46:07.000Z</time>
      </trkpt>
      <trkpt lat="44.99833" lon="6.02887">
        <ele>2134.6000976562</ele>
        <time>2021-03-21T09:46:08.000Z</time>
      </trkpt>
      <trkpt lat="44.99833" lon="6.02886">
        <ele>2134.8000488281</ele>
        <time>2021-03-21T09:46:09.000Z</time>
      </trkpt>
      <trkpt lat="44.99833" lon="6.02886">
        <ele>2135</ele>
        <time>2021-03-21T09:46:10.000Z</time>
      </trkpt>
      <trkpt lat="44.99833" lon="6.02886">
        <ele>2135.1999511719</ele>
        <time>2021-03-21T09:46:11.000Z</time>
      </trkpt>
      <trkpt lat="44.99833" lon="6.02886">
        <ele>2135.1999511719</ele>
        <time>2021-03-21T09:46:12.000Z</time>
      </trkpt>
      <trkpt lat="44.99832" lon="6.02885">
        <ele>2135.3999023438</ele>
        <time>2021-03-21T09:46:13.000Z</time>
      </trkpt>
      <trkpt lat="44.99832" lon="6.02885">
        <ele>2135.6000976562</ele>
        <time>2021-03-21T09:46:14.000Z</time>
      </trkpt>
      <trkpt lat="44.99832" lon="6.02884">
        <ele>2135.6000976562</ele>
        <time>2021-03-21T09:46:15.000Z</time>
      </trkpt>
      <trkpt lat="44.99832" lon="6.02884">
        <ele>2136</ele>
        <time>2021-03-21T09:46:16.000Z</time>
      </trkpt>
      <trkpt lat="44.99831" lon="6.02883">
        <ele>2136</ele>
        <time>2021-03-21T09:46:17.000Z</time>
      </trkpt>
      <trkpt lat="44.99831" lon="6.02883">
        <ele>2136.1999511719</ele>
        <time>2021-03-21T09:46:18.000Z</time>
      </trkpt>
      <trkpt lat="44.9983" lon="6.02883">
        <ele>2136.1999511719</ele>
        <time>2021-03-21T09:46:19.000Z</time>
      </trkpt>
      <trkpt lat="44.9983" lon="6.02882">
        <ele>2136.1999511719</ele>
        <time>2021-03-21T09:46:20.000Z</time>
      </trkpt>
      <trkpt lat="44.99829" lon="6.02882">
        <ele>2136.1999511719</ele>
        <time>2021-03-21T09:46:21.000Z</time>
      </trkpt>
      <trkpt lat="44.99829" lon="6.02882">
        <ele>2136.6000976562</ele>
        <time>2021-03-21T09:46:22.000Z</time>
      </trkpt>
      <trkpt lat="44.99828" lon="6.02881">
        <ele>2136.6000976562</ele>
        <time>2021-03-21T09:46:23.000Z</time>
      </trkpt>
      <trkpt lat="44.99828" lon="6.02881">
        <ele>2136.8000488281</ele>
        <time>2021-03-21T09:46:24.000Z</time>
      </trkpt>
      <trkpt lat="44.99827" lon="6.0288">
        <ele>2137</ele>
        <time>2021-03-21T09:46:25.000Z</time>
      </trkpt>
      <trkpt lat="44.99827" lon="6.0288">
        <ele>2137</ele>
        <time>2021-03-21T09:46:26.000Z</time>
      </trkpt>
      <trkpt lat="44.99826" lon="6.0288">
        <ele>2137</ele>
        <time>2021-03-21T09:46:27.000Z</time>
      </trkpt>
      <trkpt lat="44.99826" lon="6.02879">
        <ele>2137.3999023438</ele>
        <time>2021-03-21T09:46:28.000Z</time>
      </trkpt>
      <trkpt lat="44.99825" lon="6.02878">
        <ele>2137.6000976562</ele>
        <time>2021-03-21T09:46:29.000Z</time>
      </trkpt>
      <trkpt lat="44.99825" lon="6.02878">
        <ele>2137.8000488281</ele>
        <time>2021-03-21T09:46:30.000Z</time>
      </trkpt>
      <trkpt lat="44.99824" lon="6.02877">
        <ele>2138</ele>
        <time>2021-03-21T09:46:31.000Z</time>
      </trkpt>
      <trkpt lat="44.99824" lon="6.02876">
        <ele>2138.1999511719</ele>
        <time>2021-03-21T09:46:32.000Z</time>
      </trkpt>
      <trkpt lat="44.99823" lon="6.02876">
        <ele>2138.3999023438</ele>
        <time>2021-03-21T09:46:33.000Z</time>
      </trkpt>
      <trkpt lat="44.99823" lon="6.02876">
        <ele>2138.3999023438</ele>
        <time>2021-03-21T09:46:34.000Z</time>
      </trkpt>
      <trkpt lat="44.99822" lon="6.02875">
        <ele>2138.3999023438</ele>
        <time>2021-03-21T09:46:35.000Z</time>
      </trkpt>
      <trkpt lat="44.99821" lon="6.02875">
        <ele>2138.6000976562</ele>
        <time>2021-03-21T09:46:36.000Z</time>
      </trkpt>
      <trkpt lat="44.99821" lon="6.02874">
        <ele>2138.8000488281</ele>
        <time>2021-03-21T09:46:37.000Z</time>
      </trkpt>
      <trkpt lat="44.9982" lon="6.02873">
        <ele>2139.1999511719</ele>
        <time>2021-03-21T09:46:38.000Z</time>
      </trkpt>
      <trkpt lat="44.9982" lon="6.02872">
        <ele>2139.3999023438</ele>
        <time>2021-03-21T09:46:39.000Z</time>
      </trkpt>
      <trkpt lat="44.99819" lon="6.02872">
        <ele>2139.8000488281</ele>
        <time>2021-03-21T09:46:40.000Z</time>
      </trkpt>
      <trkpt lat="44.99819" lon="6.02871">
        <ele>2140.3999023438</ele>
        <time>2021-03-21T09:46:41.000Z</time>
      </trkpt>
      <trkpt lat="44.99818" lon="6.0287">
        <ele>2140.8000488281</ele>
        <time>2021-03-21T09:46:42.000Z</time>
      </trkpt>
      <trkpt lat="44.99818" lon="6.0287">
        <ele>2141.1999511719</ele>
        <time>2021-03-21T09:46:43.000Z</time>
      </trkpt>
      <trkpt lat="44.99817" lon="6.02869">
        <ele>2141.3999023438</ele>
        <time>2021-03-21T09:46:44.000Z</time>
      </trkpt>
      <trkpt lat="44.99816" lon="6.02869">
        <ele>2142</ele>
        <time>2021-03-21T09:46:45.000Z</time>
      </trkpt>
      <trkpt lat="44.99816" lon="6.02868">
        <ele>2142.1999511719</ele>
        <time>2021-03-21T09:46:46.000Z</time>
      </trkpt>
      <trkpt lat="44.99815" lon="6.02868">
        <ele>2142.8000488281</ele>
        <time>2021-03-21T09:46:47.000Z</time>
      </trkpt>
      <trkpt lat="44.99814" lon="6.02867">
        <ele>2143</ele>
        <time>2021-03-21T09:46:48.000Z</time>
      </trkpt>
      <trkpt lat="44.99814" lon="6.02867">
        <ele>2143.3999023438</ele>
        <time>2021-03-21T09:46:49.000Z</time>
      </trkpt>
      <trkpt lat="44.99813" lon="6.02867">
        <ele>2143.6000976562</ele>
        <time>2021-03-21T09:46:50.000Z</time>
      </trkpt>
      <trkpt lat="44.99812" lon="6.02867">
        <ele>2143.6000976562</ele>
        <time>2021-03-21T09:46:51.000Z</time>
      </trkpt>
      <trkpt lat="44.99811" lon="6.02867">
        <ele>2143.8000488281</ele>
        <time>2021-03-21T09:46:52.000Z</time>
      </trkpt>
      <trkpt lat="44.99811" lon="6.02867">
        <ele>2143.8000488281</ele>
        <time>2021-03-21T09:46:53.000Z</time>
      </trkpt>
      <trkpt lat="44.9981" lon="6.02868">
        <ele>2143.8000488281</ele>
        <time>2021-03-21T09:46:54.000Z</time>
      </trkpt>
      <trkpt lat="44.99809" lon="6.02868">
        <ele>2143.8000488281</ele>
        <time>2021-03-21T09:46:55.000Z</time>
      </trkpt>
      <trkpt lat="44.99809" lon="6.02868">
        <ele>2143.8000488281</ele>
        <time>2021-03-21T09:46:56.000Z</time>
      </trkpt>
      <trkpt lat="44.99808" lon="6.02868">
        <ele>2143.8000488281</ele>
        <time>2021-03-21T09:46:57.000Z</time>
      </trkpt>
      <trkpt lat="44.99807" lon="6.02868">
        <ele>2144</ele>
        <time>2021-03-21T09:46:58.000Z</time>
      </trkpt>
      <trkpt lat="44.99806" lon="6.02868">
        <ele>2144</ele>
        <time>2021-03-21T09:46:59.000Z</time>
      </trkpt>
      <trkpt lat="44.99806" lon="6.02868">
        <ele>2144</ele>
        <time>2021-03-21T09:47:00.000Z</time>
      </trkpt>
      <trkpt lat="44.99805" lon="6.02868">
        <ele>2144.1999511719</ele>
        <time>2021-03-21T09:47:01.000Z</time>
      </trkpt>
      <trkpt lat="44.99804" lon="6.02868">
        <ele>2144.1999511719</ele>
        <time>2021-03-21T09:47:02.000Z</time>
      </trkpt>
      <trkpt lat="44.99804" lon="6.02868">
        <ele>2144.3999023438</ele>
        <time>2021-03-21T09:47:03.000Z</time>
      </trkpt>
      <trkpt lat="44.99804" lon="6.02868">
        <ele>2144.3999023438</ele>
        <time>2021-03-21T09:47:04.000Z</time>
      </trkpt>
      <trkpt lat="44.99803" lon="6.02868">
        <ele>2144.3999023438</ele>
        <time>2021-03-21T09:47:05.000Z</time>
      </trkpt>
      <trkpt lat="44.99802" lon="6.02868">
        <ele>2144.6000976562</ele>
        <time>2021-03-21T09:47:06.000Z</time>
      </trkpt>
      <trkpt lat="44.99802" lon="6.02868">
        <ele>2144.8000488281</ele>
        <time>2021-03-21T09:47:07.000Z</time>
      </trkpt>
      <trkpt lat="44.99801" lon="6.02868">
        <ele>2144.8000488281</ele>
        <time>2021-03-21T09:47:08.000Z</time>
      </trkpt>
      <trkpt lat="44.99801" lon="6.02868">
        <ele>2145</ele>
        <time>2021-03-21T09:47:09.000Z</time>
      </trkpt>
      <trkpt lat="44.998" lon="6.02868">
        <ele>2145.1999511719</ele>
        <time>2021-03-21T09:47:10.000Z</time>
      </trkpt>
      <trkpt lat="44.99799" lon="6.02868">
        <ele>2145.1999511719</ele>
        <time>2021-03-21T09:47:11.000Z</time>
      </trkpt>
      <trkpt lat="44.99799" lon="6.02868">
        <ele>2145.3999023438</ele>
        <time>2021-03-21T09:47:12.000Z</time>
      </trkpt>
      <trkpt lat="44.99798" lon="6.02868">
        <ele>2145.3999023438</ele>
        <time>2021-03-21T09:47:13.000Z</time>
      </trkpt>
      <trkpt lat="44.99797" lon="6.02868">
        <ele>2145.3999023438</ele>
        <time>2021-03-21T09:47:14.000Z</time>
      </trkpt>
      <trkpt lat="44.99797" lon="6.02868">
        <ele>2145.1999511719</ele>
        <time>2021-03-21T09:47:15.000Z</time>
      </trkpt>
      <trkpt lat="44.99796" lon="6.02869">
        <ele>2145.1999511719</ele>
        <time>2021-03-21T09:47:16.000Z</time>
      </trkpt>
      <trkpt lat="44.99795" lon="6.02868">
        <ele>2145.3999023438</ele>
        <time>2021-03-21T09:47:17.000Z</time>
      </trkpt>
      <trkpt lat="44.99794" lon="6.02868">
        <ele>2145.6000976562</ele>
        <time>2021-03-21T09:47:18.000Z</time>
      </trkpt>
      <trkpt lat="44.99794" lon="6.02868">
        <ele>2145.8000488281</ele>
        <time>2021-03-21T09:47:19.000Z</time>
      </trkpt>
      <trkpt lat="44.99793" lon="6.02868">
        <ele>2146</ele>
        <time>2021-03-21T09:47:20.000Z</time>
      </trkpt>
      <trkpt lat="44.99793" lon="6.02867">
        <ele>2146.6000976562</ele>
        <time>2021-03-21T09:47:21.000Z</time>
      </trkpt>
      <trkpt lat="44.99793" lon="6.02867">
        <ele>2146.8000488281</ele>
        <time>2021-03-21T09:47:22.000Z</time>
      </trkpt>
      <trkpt lat="44.99792" lon="6.02866">
        <ele>2147</ele>
        <time>2021-03-21T09:47:23.000Z</time>
      </trkpt>
      <trkpt lat="44.99791" lon="6.02866">
        <ele>2147.3999023438</ele>
        <time>2021-03-21T09:47:24.000Z</time>
      </trkpt>
      <trkpt lat="44.9979" lon="6.02866">
        <ele>2147.8000488281</ele>
        <time>2021-03-21T09:47:25.000Z</time>
      </trkpt>
      <trkpt lat="44.9979" lon="6.02865">
        <ele>2148.1999511719</ele>
        <time>2021-03-21T09:47:26.000Z</time>
      </trkpt>
      <trkpt lat="44.99789" lon="6.02865">
        <ele>2148.6000976562</ele>
        <time>2021-03-21T09:47:27.000Z</time>
      </trkpt>
      <trkpt lat="44.99789" lon="6.02864">
        <ele>2149.1999511719</ele>
        <time>2021-03-21T09:47:28.000Z</time>
      </trkpt>
      <trkpt lat="44.99788" lon="6.02864">
        <ele>2149.8000488281</ele>
        <time>2021-03-21T09:47:29.000Z</time>
      </trkpt>
      <trkpt lat="44.99787" lon="6.02864">
        <ele>2150</ele>
        <time>2021-03-21T09:47:30.000Z</time>
      </trkpt>
      <trkpt lat="44.99787" lon="6.02863">
        <ele>2150.8000488281</ele>
        <time>2021-03-21T09:47:31.000Z</time>
      </trkpt>
      <trkpt lat="44.99786" lon="6.02862">
        <ele>2151.1999511719</ele>
        <time>2021-03-21T09:47:32.000Z</time>
      </trkpt>
      <trkpt lat="44.99786" lon="6.02862">
        <ele>2151.3999023438</ele>
        <time>2021-03-21T09:47:33.000Z</time>
      </trkpt>
      <trkpt lat="44.99786" lon="6.02862">
        <ele>2151.6000976562</ele>
        <time>2021-03-21T09:47:34.000Z</time>
      </trkpt>
      <trkpt lat="44.99786" lon="6.02862">
        <ele>2151.6000976562</ele>
        <time>2021-03-21T09:47:35.000Z</time>
      </trkpt>
      <trkpt lat="44.99786" lon="6.02862">
        <ele>2151.6000976562</ele>
        <time>2021-03-21T09:47:36.000Z</time>
      </trkpt>
      <trkpt lat="44.99786" lon="6.02862">
        <ele>2151.6000976562</ele>
        <time>2021-03-21T09:47:37.000Z</time>
      </trkpt>
      <trkpt lat="44.99786" lon="6.02861">
        <ele>2151.6000976562</ele>
        <time>2021-03-21T09:47:38.000Z</time>
      </trkpt>
      <trkpt lat="44.99786" lon="6.02861">
        <ele>2151.8000488281</ele>
        <time>2021-03-21T09:47:39.000Z</time>
      </trkpt>
      <trkpt lat="44.99786" lon="6.02861">
        <ele>2151.8000488281</ele>
        <time>2021-03-21T09:47:40.000Z</time>
      </trkpt>
      <trkpt lat="44.99787" lon="6.02861">
        <ele>2151.6000976562</ele>
        <time>2021-03-21T09:47:41.000Z</time>
      </trkpt>
      <trkpt lat="44.99787" lon="6.02861">
        <ele>2151.6000976562</ele>
        <time>2021-03-21T09:47:42.000Z</time>
      </trkpt>
      <trkpt lat="44.99788" lon="6.0286">
        <ele>2151.6000976562</ele>
        <time>2021-03-21T09:47:43.000Z</time>
      </trkpt>
      <trkpt lat="44.99788" lon="6.0286">
        <ele>2151.8000488281</ele>
        <time>2021-03-21T09:47:44.000Z</time>
      </trkpt>
      <trkpt lat="44.99789" lon="6.02859">
        <ele>2151.8000488281</ele>
        <time>2021-03-21T09:47:45.000Z</time>
      </trkpt>
      <trkpt lat="44.9979" lon="6.02858">
        <ele>2152</ele>
        <time>2021-03-21T09:47:46.000Z</time>
      </trkpt>
      <trkpt lat="44.99791" lon="6.02858">
        <ele>2152</ele>
        <time>2021-03-21T09:47:47.000Z</time>
      </trkpt>
      <trkpt lat="44.99791" lon="6.02857">
        <ele>2152.3999023438</ele>
        <time>2021-03-21T09:47:48.000Z</time>
      </trkpt>
      <trkpt lat="44.99792" lon="6.02857">
        <ele>2152.1999511719</ele>
        <time>2021-03-21T09:47:49.000Z</time>
      </trkpt>
      <trkpt lat="44.99793" lon="6.02856">
        <ele>2152.3999023438</ele>
        <time>2021-03-21T09:47:50.000Z</time>
      </trkpt>
      <trkpt lat="44.99793" lon="6.02856">
        <ele>2152.3999023438</ele>
        <time>2021-03-21T09:47:51.000Z</time>
      </trkpt>
      <trkpt lat="44.99794" lon="6.02855">
        <ele>2152.8000488281</ele>
        <time>2021-03-21T09:47:52.000Z</time>
      </trkpt>
      <trkpt lat="44.99794" lon="6.02855">
        <ele>2153</ele>
        <time>2021-03-21T09:47:53.000Z</time>
      </trkpt>
      <trkpt lat="44.99794" lon="6.02854">
        <ele>2153.3999023438</ele>
        <time>2021-03-21T09:47:54.000Z</time>
      </trkpt>
      <trkpt lat="44.99795" lon="6.02853">
        <ele>2153.8000488281</ele>
        <time>2021-03-21T09:47:55.000Z</time>
      </trkpt>
      <trkpt lat="44.99795" lon="6.02853">
        <ele>2154</ele>
        <time>2021-03-21T09:47:56.000Z</time>
      </trkpt>
      <trkpt lat="44.99796" lon="6.02852">
        <ele>2154.1999511719</ele>
        <time>2021-03-21T09:47:57.000Z</time>
      </trkpt>
      <trkpt lat="44.99796" lon="6.02852">
        <ele>2154.3999023438</ele>
        <time>2021-03-21T09:47:58.000Z</time>
      </trkpt>
      <trkpt lat="44.99796" lon="6.0285">
        <ele>2154.8000488281</ele>
        <time>2021-03-21T09:47:59.000Z</time>
      </trkpt>
      <trkpt lat="44.99796" lon="6.0285">
        <ele>2155.1999511719</ele>
        <time>2021-03-21T09:48:00.000Z</time>
      </trkpt>
      <trkpt lat="44.99797" lon="6.02849">
        <ele>2155.3999023438</ele>
        <time>2021-03-21T09:48:01.000Z</time>
      </trkpt>
      <trkpt lat="44.99797" lon="6.02848">
        <ele>2155.8000488281</ele>
        <time>2021-03-21T09:48:02.000Z</time>
      </trkpt>
      <trkpt lat="44.99797" lon="6.02847">
        <ele>2155.8000488281</ele>
        <time>2021-03-21T09:48:03.000Z</time>
      </trkpt>
      <trkpt lat="44.99798" lon="6.02846">
        <ele>2156</ele>
        <time>2021-03-21T09:48:04.000Z</time>
      </trkpt>
      <trkpt lat="44.99798" lon="6.02845">
        <ele>2156</ele>
        <time>2021-03-21T09:48:05.000Z</time>
      </trkpt>
      <trkpt lat="44.99798" lon="6.02844">
        <ele>2156.1999511719</ele>
        <time>2021-03-21T09:48:06.000Z</time>
      </trkpt>
      <trkpt lat="44.99798" lon="6.02843">
        <ele>2156.1999511719</ele>
        <time>2021-03-21T09:48:07.000Z</time>
      </trkpt>
      <trkpt lat="44.99798" lon="6.02843">
        <ele>2156.3999023438</ele>
        <time>2021-03-21T09:48:08.000Z</time>
      </trkpt>
      <trkpt lat="44.99798" lon="6.02842">
        <ele>2156.6000976562</ele>
        <time>2021-03-21T09:48:09.000Z</time>
      </trkpt>
      <trkpt lat="44.99798" lon="6.02841">
        <ele>2156.8000488281</ele>
        <time>2021-03-21T09:48:10.000Z</time>
      </trkpt>
      <trkpt lat="44.99798" lon="6.0284">
        <ele>2156.8000488281</ele>
        <time>2021-03-21T09:48:11.000Z</time>
      </trkpt>
      <trkpt lat="44.99797" lon="6.02839">
        <ele>2157.1999511719</ele>
        <time>2021-03-21T09:48:12.000Z</time>
      </trkpt>
      <trkpt lat="44.99797" lon="6.02839">
        <ele>2157.1999511719</ele>
        <time>2021-03-21T09:48:13.000Z</time>
      </trkpt>
      <trkpt lat="44.99797" lon="6.02838">
        <ele>2157.3999023438</ele>
        <time>2021-03-21T09:48:14.000Z</time>
      </trkpt>
      <trkpt lat="44.99797" lon="6.02837">
        <ele>2157.6000976562</ele>
        <time>2021-03-21T09:48:15.000Z</time>
      </trkpt>
      <trkpt lat="44.99796" lon="6.02836">
        <ele>2158</ele>
        <time>2021-03-21T09:48:16.000Z</time>
      </trkpt>
      <trkpt lat="44.99796" lon="6.02835">
        <ele>2158.1999511719</ele>
        <time>2021-03-21T09:48:17.000Z</time>
      </trkpt>
      <trkpt lat="44.99796" lon="6.02835">
        <ele>2158.1999511719</ele>
        <time>2021-03-21T09:48:18.000Z</time>
      </trkpt>
      <trkpt lat="44.99796" lon="6.02835">
        <ele>2158.3999023438</ele>
        <time>2021-03-21T09:48:19.000Z</time>
      </trkpt>
      <trkpt lat="44.99796" lon="6.02835">
        <ele>2158.3999023438</ele>
        <time>2021-03-21T09:48:20.000Z</time>
      </trkpt>
      <trkpt lat="44.99796" lon="6.02834">
        <ele>2158.3999023438</ele>
        <time>2021-03-21T09:48:21.000Z</time>
      </trkpt>
      <trkpt lat="44.99796" lon="6.02834">
        <ele>2158.3999023438</ele>
        <time>2021-03-21T09:48:22.000Z</time>
      </trkpt>
      <trkpt lat="44.99796" lon="6.02834">
        <ele>2158.3999023438</ele>
        <time>2021-03-21T09:48:23.000Z</time>
      </trkpt>
      <trkpt lat="44.99796" lon="6.02834">
        <ele>2158.3999023438</ele>
        <time>2021-03-21T09:48:24.000Z</time>
      </trkpt>
      <trkpt lat="44.99796" lon="6.02834">
        <ele>2158.6000976562</ele>
        <time>2021-03-21T09:48:25.000Z</time>
      </trkpt>
      <trkpt lat="44.99796" lon="6.02833">
        <ele>2158.8000488281</ele>
        <time>2021-03-21T09:48:26.000Z</time>
      </trkpt>
      <trkpt lat="44.99796" lon="6.02832">
        <ele>2158.8000488281</ele>
        <time>2021-03-21T09:48:27.000Z</time>
      </trkpt>
      <trkpt lat="44.99795" lon="6.02831">
        <ele>2159.1999511719</ele>
        <time>2021-03-21T09:48:28.000Z</time>
      </trkpt>
      <trkpt lat="44.99795" lon="6.0283">
        <ele>2159.3999023438</ele>
        <time>2021-03-21T09:48:29.000Z</time>
      </trkpt>
      <trkpt lat="44.99795" lon="6.02828">
        <ele>2159.6000976562</ele>
        <time>2021-03-21T09:48:30.000Z</time>
      </trkpt>
      <trkpt lat="44.99795" lon="6.02827">
        <ele>2159.8000488281</ele>
        <time>2021-03-21T09:48:31.000Z</time>
      </trkpt>
      <trkpt lat="44.99795" lon="6.02826">
        <ele>2160</ele>
        <time>2021-03-21T09:48:32.000Z</time>
      </trkpt>
      <trkpt lat="44.99795" lon="6.02825">
        <ele>2160.1999511719</ele>
        <time>2021-03-21T09:48:33.000Z</time>
      </trkpt>
      <trkpt lat="44.99795" lon="6.02824">
        <ele>2160.6000976562</ele>
        <time>2021-03-21T09:48:34.000Z</time>
      </trkpt>
      <trkpt lat="44.99796" lon="6.02822">
        <ele>2161.3999023438</ele>
        <time>2021-03-21T09:48:35.000Z</time>
      </trkpt>
      <trkpt lat="44.99796" lon="6.02821">
        <ele>2161.8000488281</ele>
        <time>2021-03-21T09:48:36.000Z</time>
      </trkpt>
      <trkpt lat="44.99796" lon="6.0282">
        <ele>2162.1999511719</ele>
        <time>2021-03-21T09:48:37.000Z</time>
      </trkpt>
      <trkpt lat="44.99797" lon="6.02819">
        <ele>2162.8000488281</ele>
        <time>2021-03-21T09:48:38.000Z</time>
      </trkpt>
      <trkpt lat="44.99797" lon="6.02819">
        <ele>2163</ele>
        <time>2021-03-21T09:48:39.000Z</time>
      </trkpt>
      <trkpt lat="44.99798" lon="6.02818">
        <ele>2163.3999023438</ele>
        <time>2021-03-21T09:48:40.000Z</time>
      </trkpt>
      <trkpt lat="44.99798" lon="6.02818">
        <ele>2163.3999023438</ele>
        <time>2021-03-21T09:48:41.000Z</time>
      </trkpt>
      <trkpt lat="44.998" lon="6.02817">
        <ele>2163.8000488281</ele>
        <time>2021-03-21T09:48:42.000Z</time>
      </trkpt>
      <trkpt lat="44.998" lon="6.02817">
        <ele>2164</ele>
        <time>2021-03-21T09:48:43.000Z</time>
      </trkpt>
      <trkpt lat="44.99801" lon="6.02817">
        <ele>2164.1999511719</ele>
        <time>2021-03-21T09:48:44.000Z</time>
      </trkpt>
      <trkpt lat="44.99802" lon="6.02816">
        <ele>2164.6000976562</ele>
        <time>2021-03-21T09:48:45.000Z</time>
      </trkpt>
      <trkpt lat="44.99803" lon="6.02816">
        <ele>2164.8000488281</ele>
        <time>2021-03-21T09:48:46.000Z</time>
      </trkpt>
      <trkpt lat="44.99804" lon="6.02815">
        <ele>2165.1999511719</ele>
        <time>2021-03-21T09:48:47.000Z</time>
      </trkpt>
      <trkpt lat="44.99804" lon="6.02815">
        <ele>2165.1999511719</ele>
        <time>2021-03-21T09:48:48.000Z</time>
      </trkpt>
      <trkpt lat="44.99805" lon="6.02814">
        <ele>2165.3999023438</ele>
        <time>2021-03-21T09:48:49.000Z</time>
      </trkpt>
      <trkpt lat="44.99805" lon="6.02814">
        <ele>2165.6000976562</ele>
        <time>2021-03-21T09:48:50.000Z</time>
      </trkpt>
      <trkpt lat="44.99806" lon="6.02814">
        <ele>2165.8000488281</ele>
        <time>2021-03-21T09:48:51.000Z</time>
      </trkpt>
      <trkpt lat="44.99807" lon="6.02813">
        <ele>2166.1999511719</ele>
        <time>2021-03-21T09:48:52.000Z</time>
      </trkpt>
      <trkpt lat="44.99807" lon="6.02813">
        <ele>2166.3999023438</ele>
        <time>2021-03-21T09:48:53.000Z</time>
      </trkpt>
      <trkpt lat="44.99808" lon="6.02812">
        <ele>2166.8000488281</ele>
        <time>2021-03-21T09:48:54.000Z</time>
      </trkpt>
      <trkpt lat="44.99809" lon="6.02811">
        <ele>2167</ele>
        <time>2021-03-21T09:48:55.000Z</time>
      </trkpt>
      <trkpt lat="44.99809" lon="6.02811">
        <ele>2167.1999511719</ele>
        <time>2021-03-21T09:48:56.000Z</time>
      </trkpt>
      <trkpt lat="44.9981" lon="6.02811">
        <ele>2167.3999023438</ele>
        <time>2021-03-21T09:48:57.000Z</time>
      </trkpt>
      <trkpt lat="44.9981" lon="6.0281">
        <ele>2167.6000976562</ele>
        <time>2021-03-21T09:48:58.000Z</time>
      </trkpt>
      <trkpt lat="44.99811" lon="6.0281">
        <ele>2167.8000488281</ele>
        <time>2021-03-21T09:48:59.000Z</time>
      </trkpt>
      <trkpt lat="44.99811" lon="6.0281">
        <ele>2167.8000488281</ele>
        <time>2021-03-21T09:49:00.000Z</time>
      </trkpt>
      <trkpt lat="44.99812" lon="6.02809">
        <ele>2168</ele>
        <time>2021-03-21T09:49:01.000Z</time>
      </trkpt>
      <trkpt lat="44.99812" lon="6.02809">
        <ele>2168</ele>
        <time>2021-03-21T09:49:02.000Z</time>
      </trkpt>
      <trkpt lat="44.99813" lon="6.02808">
        <ele>2168.1999511719</ele>
        <time>2021-03-21T09:49:03.000Z</time>
      </trkpt>
      <trkpt lat="44.99813" lon="6.02808">
        <ele>2168.3999023438</ele>
        <time>2021-03-21T09:49:04.000Z</time>
      </trkpt>
      <trkpt lat="44.99813" lon="6.02807">
        <ele>2168.8000488281</ele>
        <time>2021-03-21T09:49:05.000Z</time>
      </trkpt>
      <trkpt lat="44.99814" lon="6.02806">
        <ele>2169</ele>
        <time>2021-03-21T09:49:06.000Z</time>
      </trkpt>
      <trkpt lat="44.99814" lon="6.02805">
        <ele>2169.3999023438</ele>
        <time>2021-03-21T09:49:07.000Z</time>
      </trkpt>
      <trkpt lat="44.99814" lon="6.02804">
        <ele>2169.8000488281</ele>
        <time>2021-03-21T09:49:08.000Z</time>
      </trkpt>
      <trkpt lat="44.99815" lon="6.02804">
        <ele>2170</ele>
        <time>2021-03-21T09:49:09.000Z</time>
      </trkpt>
      <trkpt lat="44.99815" lon="6.02803">
        <ele>2170.1999511719</ele>
        <time>2021-03-21T09:49:10.000Z</time>
      </trkpt>
      <trkpt lat="44.99816" lon="6.02803">
        <ele>2170.1999511719</ele>
        <time>2021-03-21T09:49:11.000Z</time>
      </trkpt>
      <trkpt lat="44.99816" lon="6.02802">
        <ele>2170.3999023438</ele>
        <time>2021-03-21T09:49:12.000Z</time>
      </trkpt>
      <trkpt lat="44.99817" lon="6.02802">
        <ele>2170.6000976562</ele>
        <time>2021-03-21T09:49:13.000Z</time>
      </trkpt>
      <trkpt lat="44.99817" lon="6.02801">
        <ele>2170.8000488281</ele>
        <time>2021-03-21T09:49:14.000Z</time>
      </trkpt>
      <trkpt lat="44.99817" lon="6.02801">
        <ele>2171</ele>
        <time>2021-03-21T09:49:15.000Z</time>
      </trkpt>
      <trkpt lat="44.99817" lon="6.028">
        <ele>2171.1999511719</ele>
        <time>2021-03-21T09:49:16.000Z</time>
      </trkpt>
      <trkpt lat="44.99817" lon="6.028">
        <ele>2171.1999511719</ele>
        <time>2021-03-21T09:49:17.000Z</time>
      </trkpt>
      <trkpt lat="44.99817" lon="6.028">
        <ele>2171.3999023438</ele>
        <time>2021-03-21T09:49:18.000Z</time>
      </trkpt>
      <trkpt lat="44.99818" lon="6.028">
        <ele>2171.3999023438</ele>
        <time>2021-03-21T09:49:19.000Z</time>
      </trkpt>
      <trkpt lat="44.99817" lon="6.02799">
        <ele>2171.6000976562</ele>
        <time>2021-03-21T09:49:20.000Z</time>
      </trkpt>
      <trkpt lat="44.99818" lon="6.02798">
        <ele>2171.8000488281</ele>
        <time>2021-03-21T09:49:21.000Z</time>
      </trkpt>
      <trkpt lat="44.99817" lon="6.02798">
        <ele>2172.1999511719</ele>
        <time>2021-03-21T09:49:22.000Z</time>
      </trkpt>
      <trkpt lat="44.99817" lon="6.02797">
        <ele>2172.3999023438</ele>
        <time>2021-03-21T09:49:23.000Z</time>
      </trkpt>
      <trkpt lat="44.99816" lon="6.02796">
        <ele>2172.8000488281</ele>
        <time>2021-03-21T09:49:24.000Z</time>
      </trkpt>
      <trkpt lat="44.99816" lon="6.02796">
        <ele>2172.8000488281</ele>
        <time>2021-03-21T09:49:25.000Z</time>
      </trkpt>
      <trkpt lat="44.99816" lon="6.02795">
        <ele>2173.1999511719</ele>
        <time>2021-03-21T09:49:26.000Z</time>
      </trkpt>
      <trkpt lat="44.99816" lon="6.02795">
        <ele>2173</ele>
        <time>2021-03-21T09:49:27.000Z</time>
      </trkpt>
      <trkpt lat="44.99816" lon="6.02795">
        <ele>2173</ele>
        <time>2021-03-21T09:49:28.000Z</time>
      </trkpt>
      <trkpt lat="44.99816" lon="6.02796">
        <ele>2172.8000488281</ele>
        <time>2021-03-21T09:49:29.000Z</time>
      </trkpt>
      <trkpt lat="44.99816" lon="6.02796">
        <ele>2172.8000488281</ele>
        <time>2021-03-21T09:49:30.000Z</time>
      </trkpt>
      <trkpt lat="44.99816" lon="6.02795">
        <ele>2173</ele>
        <time>2021-03-21T09:49:31.000Z</time>
      </trkpt>
      <trkpt lat="44.99816" lon="6.02795">
        <ele>2173</ele>
        <time>2021-03-21T09:49:32.000Z</time>
      </trkpt>
      <trkpt lat="44.99816" lon="6.02795">
        <ele>2173</ele>
        <time>2021-03-21T09:49:33.000Z</time>
      </trkpt>
      <trkpt lat="44.99816" lon="6.02796">
        <ele>2172.8000488281</ele>
        <time>2021-03-21T09:49:34.000Z</time>
      </trkpt>
      <trkpt lat="44.99816" lon="6.02796">
        <ele>2172.8000488281</ele>
        <time>2021-03-21T09:49:35.000Z</time>
      </trkpt>
      <trkpt lat="44.99816" lon="6.02796">
        <ele>2172.8000488281</ele>
        <time>2021-03-21T09:49:36.000Z</time>
      </trkpt>
      <trkpt lat="44.99816" lon="6.02796">
        <ele>2172.8000488281</ele>
        <time>2021-03-21T09:49:37.000Z</time>
      </trkpt>
      <trkpt lat="44.99816" lon="6.02796">
        <ele>2172.8000488281</ele>
        <time>2021-03-21T09:49:38.000Z</time>
      </trkpt>
      <trkpt lat="44.99816" lon="6.02796">
        <ele>2172.8000488281</ele>
        <time>2021-03-21T09:49:39.000Z</time>
      </trkpt>
      <trkpt lat="44.99815" lon="6.02796">
        <ele>2172.8000488281</ele>
        <time>2021-03-21T09:49:40.000Z</time>
      </trkpt>
      <trkpt lat="44.99815" lon="6.02796">
        <ele>2172.8000488281</ele>
        <time>2021-03-21T09:49:41.000Z</time>
      </trkpt>
      <trkpt lat="44.99815" lon="6.02796">
        <ele>2172.8000488281</ele>
        <time>2021-03-21T09:49:42.000Z</time>
      </trkpt>
      <trkpt lat="44.99815" lon="6.02796">
        <ele>2172.8000488281</ele>
        <time>2021-03-21T09:49:43.000Z</time>
      </trkpt>
      <trkpt lat="44.99815" lon="6.02796">
        <ele>2172.8000488281</ele>
        <time>2021-03-21T09:49:44.000Z</time>
      </trkpt>
      <trkpt lat="44.99814" lon="6.02796">
        <ele>2172.6000976562</ele>
        <time>2021-03-21T09:49:45.000Z</time>
      </trkpt>
      <trkpt lat="44.99814" lon="6.02797">
        <ele>2172.3999023438</ele>
        <time>2021-03-21T09:49:46.000Z</time>
      </trkpt>
      <trkpt lat="44.99814" lon="6.02797">
        <ele>2172.3999023438</ele>
        <time>2021-03-21T09:49:47.000Z</time>
      </trkpt>
      <trkpt lat="44.99814" lon="6.02796">
        <ele>2172.6000976562</ele>
        <time>2021-03-21T09:49:48.000Z</time>
      </trkpt>
      <trkpt lat="44.99814" lon="6.02797">
        <ele>2172.3999023438</ele>
        <time>2021-03-21T09:49:49.000Z</time>
      </trkpt>
      <trkpt lat="44.99814" lon="6.02797">
        <ele>2172.3999023438</ele>
        <time>2021-03-21T09:49:50.000Z</time>
      </trkpt>
      <trkpt lat="44.99814" lon="6.02797">
        <ele>2172.3999023438</ele>
        <time>2021-03-21T09:49:51.000Z</time>
      </trkpt>
      <trkpt lat="44.99814" lon="6.02797">
        <ele>2172.3999023438</ele>
        <time>2021-03-21T09:49:52.000Z</time>
      </trkpt>
      <trkpt lat="44.99814" lon="6.02797">
        <ele>2172.3999023438</ele>
        <time>2021-03-21T09:49:53.000Z</time>
      </trkpt>
      <trkpt lat="44.99814" lon="6.02797">
        <ele>2172.1999511719</ele>
        <time>2021-03-21T09:49:54.000Z</time>
      </trkpt>
      <trkpt lat="44.99814" lon="6.02797">
        <ele>2172.1999511719</ele>
        <time>2021-03-21T09:49:55.000Z</time>
      </trkpt>
      <trkpt lat="44.99814" lon="6.02798">
        <ele>2172.1999511719</ele>
        <time>2021-03-21T09:49:56.000Z</time>
      </trkpt>
      <trkpt lat="44.99814" lon="6.02798">
        <ele>2172.1999511719</ele>
        <time>2021-03-21T09:49:57.000Z</time>
      </trkpt>
      <trkpt lat="44.99814" lon="6.02798">
        <ele>2172.1999511719</ele>
        <time>2021-03-21T09:49:58.000Z</time>
      </trkpt>
      <trkpt lat="44.99814" lon="6.02798">
        <ele>2172.1999511719</ele>
        <time>2021-03-21T09:49:59.000Z</time>
      </trkpt>
      <trkpt lat="44.99814" lon="6.02798">
        <ele>2172.1999511719</ele>
        <time>2021-03-21T09:50:00.000Z</time>
      </trkpt>
      <trkpt lat="44.99814" lon="6.02797">
        <ele>2172.1999511719</ele>
        <time>2021-03-21T09:50:01.000Z</time>
      </trkpt>
      <trkpt lat="44.99814" lon="6.02797">
        <ele>2172.1999511719</ele>
        <time>2021-03-21T09:50:02.000Z</time>
      </trkpt>
      <trkpt lat="44.99814" lon="6.02797">
        <ele>2172.1999511719</ele>
        <time>2021-03-21T09:50:03.000Z</time>
      </trkpt>
      <trkpt lat="44.99814" lon="6.02797">
        <ele>2172.1999511719</ele>
        <time>2021-03-21T09:50:04.000Z</time>
      </trkpt>
      <trkpt lat="44.99814" lon="6.02797">
        <ele>2172.3999023438</ele>
        <time>2021-03-21T09:50:05.000Z</time>
      </trkpt>
      <trkpt lat="44.99814" lon="6.02797">
        <ele>2172.6000976562</ele>
        <time>2021-03-21T09:50:06.000Z</time>
      </trkpt>
      <trkpt lat="44.99814" lon="6.02797">
        <ele>2172.6000976562</ele>
        <time>2021-03-21T09:50:07.000Z</time>
      </trkpt>
      <trkpt lat="44.99815" lon="6.02796">
        <ele>2172.6000976562</ele>
        <time>2021-03-21T09:50:08.000Z</time>
      </trkpt>
      <trkpt lat="44.99814" lon="6.02796">
        <ele>2172.6000976562</ele>
        <time>2021-03-21T09:50:09.000Z</time>
      </trkpt>
      <trkpt lat="44.99815" lon="6.02797">
        <ele>2172.6000976562</ele>
        <time>2021-03-21T09:50:10.000Z</time>
      </trkpt>
      <trkpt lat="44.99815" lon="6.02797">
        <ele>2172.6000976562</ele>
        <time>2021-03-21T09:50:11.000Z</time>
      </trkpt>
      <trkpt lat="44.99815" lon="6.02797">
        <ele>2172.3999023438</ele>
        <time>2021-03-21T09:50:12.000Z</time>
      </trkpt>
      <trkpt lat="44.99815" lon="6.02797">
        <ele>2172.3999023438</ele>
        <time>2021-03-21T09:50:13.000Z</time>
      </trkpt>
      <trkpt lat="44.99815" lon="6.02797">
        <ele>2172.1999511719</ele>
        <time>2021-03-21T09:50:14.000Z</time>
      </trkpt>
      <trkpt lat="44.99815" lon="6.02797">
        <ele>2172.1999511719</ele>
        <time>2021-03-21T09:50:15.000Z</time>
      </trkpt>
      <trkpt lat="44.99815" lon="6.02797">
        <ele>2172.1999511719</ele>
        <time>2021-03-21T09:50:16.000Z</time>
      </trkpt>
      <trkpt lat="44.99815" lon="6.02798">
        <ele>2172.1999511719</ele>
        <time>2021-03-21T09:50:17.000Z</time>
      </trkpt>
      <trkpt lat="44.99815" lon="6.02798">
        <ele>2172.1999511719</ele>
        <time>2021-03-21T09:50:18.000Z</time>
      </trkpt>
      <trkpt lat="44.99815" lon="6.02798">
        <ele>2172.1999511719</ele>
        <time>2021-03-21T09:50:19.000Z</time>
      </trkpt>
      <trkpt lat="44.99815" lon="6.02797">
        <ele>2172.3999023438</ele>
        <time>2021-03-21T09:50:20.000Z</time>
      </trkpt>
      <trkpt lat="44.99815" lon="6.02797">
        <ele>2172.3999023438</ele>
        <time>2021-03-21T09:50:21.000Z</time>
      </trkpt>
      <trkpt lat="44.99815" lon="6.02798">
        <ele>2172.1999511719</ele>
        <time>2021-03-21T09:50:22.000Z</time>
      </trkpt>
      <trkpt lat="44.99815" lon="6.02797">
        <ele>2172.1999511719</ele>
        <time>2021-03-21T09:50:23.000Z</time>
      </trkpt>
      <trkpt lat="44.99814" lon="6.02798">
        <ele>2172</ele>
        <time>2021-03-21T09:50:24.000Z</time>
      </trkpt>
      <trkpt lat="44.99814" lon="6.02798">
        <ele>2172</ele>
        <time>2021-03-21T09:50:25.000Z</time>
      </trkpt>
      <trkpt lat="44.99815" lon="6.02798">
        <ele>2172.1999511719</ele>
        <time>2021-03-21T09:50:26.000Z</time>
      </trkpt>
      <trkpt lat="44.99815" lon="6.02798">
        <ele>2172.1999511719</ele>
        <time>2021-03-21T09:50:27.000Z</time>
      </trkpt>
      <trkpt lat="44.99815" lon="6.02797">
        <ele>2172.3999023438</ele>
        <time>2021-03-21T09:50:28.000Z</time>
      </trkpt>
      <trkpt lat="44.99815" lon="6.02797">
        <ele>2172.3999023438</ele>
        <time>2021-03-21T09:50:29.000Z</time>
      </trkpt>
      <trkpt lat="44.99815" lon="6.02797">
        <ele>2172.3999023438</ele>
        <time>2021-03-21T09:50:30.000Z</time>
      </trkpt>
      <trkpt lat="44.99815" lon="6.02797">
        <ele>2172.3999023438</ele>
        <time>2021-03-21T09:50:31.000Z</time>
      </trkpt>
      <trkpt lat="44.99815" lon="6.02797">
        <ele>2172.1999511719</ele>
        <time>2021-03-21T09:50:32.000Z</time>
      </trkpt>
      <trkpt lat="44.99814" lon="6.02797">
        <ele>2172.1999511719</ele>
        <time>2021-03-21T09:50:33.000Z</time>
      </trkpt>
      <trkpt lat="44.99815" lon="6.02797">
        <ele>2172.1999511719</ele>
        <time>2021-03-21T09:50:34.000Z</time>
      </trkpt>
      <trkpt lat="44.99815" lon="6.02798">
        <ele>2172.1999511719</ele>
        <time>2021-03-21T09:50:35.000Z</time>
      </trkpt>
      <trkpt lat="44.99815" lon="6.02798">
        <ele>2172.1999511719</ele>
        <time>2021-03-21T09:50:36.000Z</time>
      </trkpt>
      <trkpt lat="44.99815" lon="6.02798">
        <ele>2172.1999511719</ele>
        <time>2021-03-21T09:50:37.000Z</time>
      </trkpt>
      <trkpt lat="44.99815" lon="6.02798">
        <ele>2172</ele>
        <time>2021-03-21T09:50:38.000Z</time>
      </trkpt>
      <trkpt lat="44.99815" lon="6.02798">
        <ele>2172</ele>
        <time>2021-03-21T09:50:39.000Z</time>
      </trkpt>
      <trkpt lat="44.99815" lon="6.02799">
        <ele>2171.8000488281</ele>
        <time>2021-03-21T09:50:40.000Z</time>
      </trkpt>
      <trkpt lat="44.99814" lon="6.02799">
        <ele>2171.8000488281</ele>
        <time>2021-03-21T09:50:41.000Z</time>
      </trkpt>
      <trkpt lat="44.99814" lon="6.02799">
        <ele>2171.8000488281</ele>
        <time>2021-03-21T09:50:42.000Z</time>
      </trkpt>
      <trkpt lat="44.99814" lon="6.02799">
        <ele>2171.6000976562</ele>
        <time>2021-03-21T09:50:43.000Z</time>
      </trkpt>
      <trkpt lat="44.99814" lon="6.02799">
        <ele>2171.6000976562</ele>
        <time>2021-03-21T09:50:44.000Z</time>
      </trkpt>
      <trkpt lat="44.99814" lon="6.02799">
        <ele>2171.6000976562</ele>
        <time>2021-03-21T09:50:45.000Z</time>
      </trkpt>
      <trkpt lat="44.99814" lon="6.02799">
        <ele>2171.6000976562</ele>
        <time>2021-03-21T09:50:46.000Z</time>
      </trkpt>
      <trkpt lat="44.99814" lon="6.02799">
        <ele>2171.6000976562</ele>
        <time>2021-03-21T09:50:47.000Z</time>
      </trkpt>
      <trkpt lat="44.99814" lon="6.02799">
        <ele>2171.6000976562</ele>
        <time>2021-03-21T09:50:48.000Z</time>
      </trkpt>
      <trkpt lat="44.99814" lon="6.02799">
        <ele>2171.6000976562</ele>
        <time>2021-03-21T09:50:49.000Z</time>
      </trkpt>
      <trkpt lat="44.99814" lon="6.02799">
        <ele>2171.8000488281</ele>
        <time>2021-03-21T09:50:50.000Z</time>
      </trkpt>
      <trkpt lat="44.99814" lon="6.02799">
        <ele>2171.6000976562</ele>
        <time>2021-03-21T09:50:51.000Z</time>
      </trkpt>
      <trkpt lat="44.99814" lon="6.02799">
        <ele>2171.6000976562</ele>
        <time>2021-03-21T09:50:52.000Z</time>
      </trkpt>
      <trkpt lat="44.99814" lon="6.02799">
        <ele>2171.6000976562</ele>
        <time>2021-03-21T09:50:53.000Z</time>
      </trkpt>
      <trkpt lat="44.99814" lon="6.02799">
        <ele>2171.6000976562</ele>
        <time>2021-03-21T09:50:54.000Z</time>
      </trkpt>
      <trkpt lat="44.99814" lon="6.02799">
        <ele>2171.6000976562</ele>
        <time>2021-03-21T09:50:55.000Z</time>
      </trkpt>
      <trkpt lat="44.99814" lon="6.02799">
        <ele>2171.6000976562</ele>
        <time>2021-03-21T09:50:56.000Z</time>
      </trkpt>
      <trkpt lat="44.99814" lon="6.02799">
        <ele>2171.6000976562</ele>
        <time>2021-03-21T09:50:57.000Z</time>
      </trkpt>
      <trkpt lat="44.99814" lon="6.02799">
        <ele>2171.6000976562</ele>
        <time>2021-03-21T09:50:58.000Z</time>
      </trkpt>
      <trkpt lat="44.99814" lon="6.028">
        <ele>2171.3999023438</ele>
        <time>2021-03-21T09:50:59.000Z</time>
      </trkpt>
      <trkpt lat="44.99814" lon="6.02799">
        <ele>2171.6000976562</ele>
        <time>2021-03-21T09:51:00.000Z</time>
      </trkpt>
      <trkpt lat="44.99814" lon="6.028">
        <ele>2171.3999023438</ele>
        <time>2021-03-21T09:51:01.000Z</time>
      </trkpt>
      <trkpt lat="44.99814" lon="6.028">
        <ele>2171.3999023438</ele>
        <time>2021-03-21T09:51:02.000Z</time>
      </trkpt>
      <trkpt lat="44.99814" lon="6.028">
        <ele>2171.3999023438</ele>
        <time>2021-03-21T09:51:03.000Z</time>
      </trkpt>
      <trkpt lat="44.99814" lon="6.02799">
        <ele>2171.3999023438</ele>
        <time>2021-03-21T09:51:04.000Z</time>
      </trkpt>
      <trkpt lat="44.99814" lon="6.02799">
        <ele>2171.6000976562</ele>
        <time>2021-03-21T09:51:05.000Z</time>
      </trkpt>
      <trkpt lat="44.99814" lon="6.028">
        <ele>2171.3999023438</ele>
        <time>2021-03-21T09:51:06.000Z</time>
      </trkpt>
      <trkpt lat="44.99814" lon="6.028">
        <ele>2171.3999023438</ele>
        <time>2021-03-21T09:51:07.000Z</time>
      </trkpt>
      <trkpt lat="44.99814" lon="6.02799">
        <ele>2171.6000976562</ele>
        <time>2021-03-21T09:51:08.000Z</time>
      </trkpt>
      <trkpt lat="44.99814" lon="6.02799">
        <ele>2171.6000976562</ele>
        <time>2021-03-21T09:51:09.000Z</time>
      </trkpt>
      <trkpt lat="44.99814" lon="6.02799">
        <ele>2171.6000976562</ele>
        <time>2021-03-21T09:51:10.000Z</time>
      </trkpt>
      <trkpt lat="44.99814" lon="6.02799">
        <ele>2171.8000488281</ele>
        <time>2021-03-21T09:51:11.000Z</time>
      </trkpt>
      <trkpt lat="44.99814" lon="6.02799">
        <ele>2171.8000488281</ele>
        <time>2021-03-21T09:51:12.000Z</time>
      </trkpt>
      <trkpt lat="44.99814" lon="6.02799">
        <ele>2171.8000488281</ele>
        <time>2021-03-21T09:51:13.000Z</time>
      </trkpt>
      <trkpt lat="44.99814" lon="6.02799">
        <ele>2171.6000976562</ele>
        <time>2021-03-21T09:51:14.000Z</time>
      </trkpt>
      <trkpt lat="44.99814" lon="6.02799">
        <ele>2171.6000976562</ele>
        <time>2021-03-21T09:51:15.000Z</time>
      </trkpt>
      <trkpt lat="44.99814" lon="6.02799">
        <ele>2171.6000976562</ele>
        <time>2021-03-21T09:51:16.000Z</time>
      </trkpt>
      <trkpt lat="44.99814" lon="6.02799">
        <ele>2171.3999023438</ele>
        <time>2021-03-21T09:51:17.000Z</time>
      </trkpt>
      <trkpt lat="44.99814" lon="6.028">
        <ele>2171.3999023438</ele>
        <time>2021-03-21T09:51:18.000Z</time>
      </trkpt>
      <trkpt lat="44.99813" lon="6.02799">
        <ele>2171.6000976562</ele>
        <time>2021-03-21T09:51:19.000Z</time>
      </trkpt>
      <trkpt lat="44.99813" lon="6.02799">
        <ele>2171.8000488281</ele>
        <time>2021-03-21T09:51:20.000Z</time>
      </trkpt>
      <trkpt lat="44.99812" lon="6.02798">
        <ele>2172.1999511719</ele>
        <time>2021-03-21T09:51:21.000Z</time>
      </trkpt>
      <trkpt lat="44.99812" lon="6.02797">
        <ele>2172.3999023438</ele>
        <time>2021-03-21T09:51:22.000Z</time>
      </trkpt>
      <trkpt lat="44.99811" lon="6.02796">
        <ele>2172.8000488281</ele>
        <time>2021-03-21T09:51:23.000Z</time>
      </trkpt>
      <trkpt lat="44.99811" lon="6.02795">
        <ele>2173.1999511719</ele>
        <time>2021-03-21T09:51:24.000Z</time>
      </trkpt>
      <trkpt lat="44.9981" lon="6.02794">
        <ele>2173.6000976562</ele>
        <time>2021-03-21T09:51:25.000Z</time>
      </trkpt>
      <trkpt lat="44.9981" lon="6.02793">
        <ele>2173.8000488281</ele>
        <time>2021-03-21T09:51:26.000Z</time>
      </trkpt>
      <trkpt lat="44.99809" lon="6.02793">
        <ele>2174</ele>
        <time>2021-03-21T09:51:27.000Z</time>
      </trkpt>
      <trkpt lat="44.99809" lon="6.02792">
        <ele>2174.3999023438</ele>
        <time>2021-03-21T09:51:28.000Z</time>
      </trkpt>
      <trkpt lat="44.99808" lon="6.02791">
        <ele>2174.8000488281</ele>
        <time>2021-03-21T09:51:29.000Z</time>
      </trkpt>
      <trkpt lat="44.99808" lon="6.0279">
        <ele>2175.1999511719</ele>
        <time>2021-03-21T09:51:30.000Z</time>
      </trkpt>
      <trkpt lat="44.99807" lon="6.0279">
        <ele>2175.3999023438</ele>
        <time>2021-03-21T09:51:31.000Z</time>
      </trkpt>
      <trkpt lat="44.99807" lon="6.0279">
        <ele>2175.3999023438</ele>
        <time>2021-03-21T09:51:32.000Z</time>
      </trkpt>
      <trkpt lat="44.99806" lon="6.02789">
        <ele>2175.8000488281</ele>
        <time>2021-03-21T09:51:33.000Z</time>
      </trkpt>
      <trkpt lat="44.99806" lon="6.02788">
        <ele>2176.1999511719</ele>
        <time>2021-03-21T09:51:34.000Z</time>
      </trkpt>
      <trkpt lat="44.99805" lon="6.02788">
        <ele>2176.3999023438</ele>
        <time>2021-03-21T09:51:35.000Z</time>
      </trkpt>
      <trkpt lat="44.99805" lon="6.02788">
        <ele>2176.6000976562</ele>
        <time>2021-03-21T09:51:36.000Z</time>
      </trkpt>
      <trkpt lat="44.99804" lon="6.02787">
        <ele>2176.8000488281</ele>
        <time>2021-03-21T09:51:37.000Z</time>
      </trkpt>
      <trkpt lat="44.99804" lon="6.02787">
        <ele>2176.8000488281</ele>
        <time>2021-03-21T09:51:38.000Z</time>
      </trkpt>
      <trkpt lat="44.99803" lon="6.02787">
        <ele>2177</ele>
        <time>2021-03-21T09:51:39.000Z</time>
      </trkpt>
      <trkpt lat="44.99802" lon="6.02787">
        <ele>2177.1999511719</ele>
        <time>2021-03-21T09:51:40.000Z</time>
      </trkpt>
      <trkpt lat="44.99801" lon="6.02787">
        <ele>2176.8000488281</ele>
        <time>2021-03-21T09:51:41.000Z</time>
      </trkpt>
      <trkpt lat="44.998" lon="6.02787">
        <ele>2176.8000488281</ele>
        <time>2021-03-21T09:51:42.000Z</time>
      </trkpt>
      <trkpt lat="44.998" lon="6.02788">
        <ele>2176.6000976562</ele>
        <time>2021-03-21T09:51:43.000Z</time>
      </trkpt>
      <trkpt lat="44.99799" lon="6.02788">
        <ele>2176.3999023438</ele>
        <time>2021-03-21T09:51:44.000Z</time>
      </trkpt>
      <trkpt lat="44.99798" lon="6.02788">
        <ele>2176.3999023438</ele>
        <time>2021-03-21T09:51:45.000Z</time>
      </trkpt>
      <trkpt lat="44.99798" lon="6.02789">
        <ele>2176.1999511719</ele>
        <time>2021-03-21T09:51:46.000Z</time>
      </trkpt>
      <trkpt lat="44.99797" lon="6.02789">
        <ele>2176</ele>
        <time>2021-03-21T09:51:47.000Z</time>
      </trkpt>
      <trkpt lat="44.99797" lon="6.02788">
        <ele>2176.1999511719</ele>
        <time>2021-03-21T09:51:48.000Z</time>
      </trkpt>
      <trkpt lat="44.99796" lon="6.02788">
        <ele>2176.3999023438</ele>
        <time>2021-03-21T09:51:49.000Z</time>
      </trkpt>
      <trkpt lat="44.99796" lon="6.02788">
        <ele>2176.3999023438</ele>
        <time>2021-03-21T09:51:50.000Z</time>
      </trkpt>
      <trkpt lat="44.99795" lon="6.02788">
        <ele>2176.6000976562</ele>
        <time>2021-03-21T09:51:51.000Z</time>
      </trkpt>
      <trkpt lat="44.99794" lon="6.02788">
        <ele>2176.6000976562</ele>
        <time>2021-03-21T09:51:52.000Z</time>
      </trkpt>
      <trkpt lat="44.99794" lon="6.02787">
        <ele>2177.1999511719</ele>
        <time>2021-03-21T09:51:53.000Z</time>
      </trkpt>
      <trkpt lat="44.99793" lon="6.02786">
        <ele>2177.3999023438</ele>
        <time>2021-03-21T09:51:54.000Z</time>
      </trkpt>
      <trkpt lat="44.99793" lon="6.02786">
        <ele>2177.6000976562</ele>
        <time>2021-03-21T09:51:55.000Z</time>
      </trkpt>
      <trkpt lat="44.99792" lon="6.02785">
        <ele>2177.8000488281</ele>
        <time>2021-03-21T09:51:56.000Z</time>
      </trkpt>
      <trkpt lat="44.99792" lon="6.02785">
        <ele>2178</ele>
        <time>2021-03-21T09:51:57.000Z</time>
      </trkpt>
      <trkpt lat="44.99791" lon="6.02784">
        <ele>2178.1999511719</ele>
        <time>2021-03-21T09:51:58.000Z</time>
      </trkpt>
      <trkpt lat="44.9979" lon="6.02784">
        <ele>2178.1999511719</ele>
        <time>2021-03-21T09:51:59.000Z</time>
      </trkpt>
      <trkpt lat="44.99789" lon="6.02784">
        <ele>2178.1999511719</ele>
        <time>2021-03-21T09:52:00.000Z</time>
      </trkpt>
      <trkpt lat="44.99789" lon="6.02784">
        <ele>2178.1999511719</ele>
        <time>2021-03-21T09:52:01.000Z</time>
      </trkpt>
      <trkpt lat="44.99788" lon="6.02784">
        <ele>2178.1999511719</ele>
        <time>2021-03-21T09:52:02.000Z</time>
      </trkpt>
      <trkpt lat="44.99787" lon="6.02784">
        <ele>2178.1999511719</ele>
        <time>2021-03-21T09:52:03.000Z</time>
      </trkpt>
      <trkpt lat="44.99787" lon="6.02783">
        <ele>2178.1999511719</ele>
        <time>2021-03-21T09:52:04.000Z</time>
      </trkpt>
      <trkpt lat="44.99786" lon="6.02783">
        <ele>2178.3999023438</ele>
        <time>2021-03-21T09:52:05.000Z</time>
      </trkpt>
      <trkpt lat="44.99786" lon="6.02783">
        <ele>2178.3999023438</ele>
        <time>2021-03-21T09:52:06.000Z</time>
      </trkpt>
      <trkpt lat="44.99785" lon="6.02782">
        <ele>2178.3999023438</ele>
        <time>2021-03-21T09:52:07.000Z</time>
      </trkpt>
      <trkpt lat="44.99785" lon="6.02782">
        <ele>2178.3999023438</ele>
        <time>2021-03-21T09:52:08.000Z</time>
      </trkpt>
      <trkpt lat="44.99784" lon="6.02782">
        <ele>2178.3999023438</ele>
        <time>2021-03-21T09:52:09.000Z</time>
      </trkpt>
      <trkpt lat="44.99783" lon="6.02782">
        <ele>2178.3999023438</ele>
        <time>2021-03-21T09:52:10.000Z</time>
      </trkpt>
      <trkpt lat="44.99783" lon="6.02782">
        <ele>2178.3999023438</ele>
        <time>2021-03-21T09:52:11.000Z</time>
      </trkpt>
      <trkpt lat="44.99782" lon="6.02782">
        <ele>2178.3999023438</ele>
        <time>2021-03-21T09:52:12.000Z</time>
      </trkpt>
      <trkpt lat="44.99782" lon="6.02781">
        <ele>2178.6000976562</ele>
        <time>2021-03-21T09:52:13.000Z</time>
      </trkpt>
      <trkpt lat="44.99781" lon="6.02781">
        <ele>2178.8000488281</ele>
        <time>2021-03-21T09:52:14.000Z</time>
      </trkpt>
      <trkpt lat="44.9978" lon="6.02781">
        <ele>2178.8000488281</ele>
        <time>2021-03-21T09:52:15.000Z</time>
      </trkpt>
      <trkpt lat="44.99779" lon="6.02781">
        <ele>2178.8000488281</ele>
        <time>2021-03-21T09:52:16.000Z</time>
      </trkpt>
      <trkpt lat="44.99779" lon="6.02781">
        <ele>2178.8000488281</ele>
        <time>2021-03-21T09:52:17.000Z</time>
      </trkpt>
      <trkpt lat="44.99778" lon="6.0278">
        <ele>2179</ele>
        <time>2021-03-21T09:52:18.000Z</time>
      </trkpt>
      <trkpt lat="44.99778" lon="6.02781">
        <ele>2179</ele>
        <time>2021-03-21T09:52:19.000Z</time>
      </trkpt>
      <trkpt lat="44.99777" lon="6.02781">
        <ele>2179</ele>
        <time>2021-03-21T09:52:20.000Z</time>
      </trkpt>
      <trkpt lat="44.99776" lon="6.02781">
        <ele>2179.1999511719</ele>
        <time>2021-03-21T09:52:21.000Z</time>
      </trkpt>
      <trkpt lat="44.99776" lon="6.02781">
        <ele>2179.1999511719</ele>
        <time>2021-03-21T09:52:22.000Z</time>
      </trkpt>
      <trkpt lat="44.99775" lon="6.02781">
        <ele>2179.1999511719</ele>
        <time>2021-03-21T09:52:23.000Z</time>
      </trkpt>
      <trkpt lat="44.99774" lon="6.02781">
        <ele>2179.3999023438</ele>
        <time>2021-03-21T09:52:24.000Z</time>
      </trkpt>
      <trkpt lat="44.99773" lon="6.02782">
        <ele>2179.3999023438</ele>
        <time>2021-03-21T09:52:25.000Z</time>
      </trkpt>
      <trkpt lat="44.99772" lon="6.02781">
        <ele>2179.6000976562</ele>
        <time>2021-03-21T09:52:26.000Z</time>
      </trkpt>
      <trkpt lat="44.99772" lon="6.02781">
        <ele>2179.8000488281</ele>
        <time>2021-03-21T09:52:27.000Z</time>
      </trkpt>
      <trkpt lat="44.99771" lon="6.02781">
        <ele>2179.8000488281</ele>
        <time>2021-03-21T09:52:28.000Z</time>
      </trkpt>
      <trkpt lat="44.9977" lon="6.02781">
        <ele>2180</ele>
        <time>2021-03-21T09:52:29.000Z</time>
      </trkpt>
      <trkpt lat="44.9977" lon="6.02781">
        <ele>2180</ele>
        <time>2021-03-21T09:52:30.000Z</time>
      </trkpt>
      <trkpt lat="44.99769" lon="6.02781">
        <ele>2180</ele>
        <time>2021-03-21T09:52:31.000Z</time>
      </trkpt>
      <trkpt lat="44.99769" lon="6.02781">
        <ele>2180.1999511719</ele>
        <time>2021-03-21T09:52:32.000Z</time>
      </trkpt>
      <trkpt lat="44.99769" lon="6.02781">
        <ele>2180.1999511719</ele>
        <time>2021-03-21T09:52:33.000Z</time>
      </trkpt>
      <trkpt lat="44.99769" lon="6.02781">
        <ele>2180.1999511719</ele>
        <time>2021-03-21T09:52:34.000Z</time>
      </trkpt>
      <trkpt lat="44.9977" lon="6.0278">
        <ele>2180.1999511719</ele>
        <time>2021-03-21T09:52:35.000Z</time>
      </trkpt>
      <trkpt lat="44.9977" lon="6.0278">
        <ele>2180.3999023438</ele>
        <time>2021-03-21T09:52:36.000Z</time>
      </trkpt>
      <trkpt lat="44.9977" lon="6.02779">
        <ele>2180.3999023438</ele>
        <time>2021-03-21T09:52:37.000Z</time>
      </trkpt>
      <trkpt lat="44.99771" lon="6.02777">
        <ele>2180.8000488281</ele>
        <time>2021-03-21T09:52:38.000Z</time>
      </trkpt>
      <trkpt lat="44.99772" lon="6.02776">
        <ele>2181</ele>
        <time>2021-03-21T09:52:39.000Z</time>
      </trkpt>
      <trkpt lat="44.99772" lon="6.02775">
        <ele>2181</ele>
        <time>2021-03-21T09:52:40.000Z</time>
      </trkpt>
      <trkpt lat="44.99773" lon="6.02774">
        <ele>2181.3999023438</ele>
        <time>2021-03-21T09:52:41.000Z</time>
      </trkpt>
      <trkpt lat="44.99773" lon="6.02774">
        <ele>2181.3999023438</ele>
        <time>2021-03-21T09:52:42.000Z</time>
      </trkpt>
      <trkpt lat="44.99774" lon="6.02773">
        <ele>2182</ele>
        <time>2021-03-21T09:52:43.000Z</time>
      </trkpt>
      <trkpt lat="44.99774" lon="6.02772">
        <ele>2182.1999511719</ele>
        <time>2021-03-21T09:52:44.000Z</time>
      </trkpt>
      <trkpt lat="44.99775" lon="6.02771">
        <ele>2183</ele>
        <time>2021-03-21T09:52:45.000Z</time>
      </trkpt>
      <trkpt lat="44.99775" lon="6.02771">
        <ele>2183.3999023438</ele>
        <time>2021-03-21T09:52:46.000Z</time>
      </trkpt>
      <trkpt lat="44.99776" lon="6.02771">
        <ele>2183.6000976562</ele>
        <time>2021-03-21T09:52:47.000Z</time>
      </trkpt>
      <trkpt lat="44.99777" lon="6.0277">
        <ele>2184</ele>
        <time>2021-03-21T09:52:48.000Z</time>
      </trkpt>
      <trkpt lat="44.99777" lon="6.0277">
        <ele>2184.1999511719</ele>
        <time>2021-03-21T09:52:49.000Z</time>
      </trkpt>
      <trkpt lat="44.99778" lon="6.02769">
        <ele>2184.6000976562</ele>
        <time>2021-03-21T09:52:50.000Z</time>
      </trkpt>
      <trkpt lat="44.99779" lon="6.02769">
        <ele>2184.6000976562</ele>
        <time>2021-03-21T09:52:51.000Z</time>
      </trkpt>
      <trkpt lat="44.99779" lon="6.02769">
        <ele>2184.6000976562</ele>
        <time>2021-03-21T09:52:52.000Z</time>
      </trkpt>
      <trkpt lat="44.99779" lon="6.0277">
        <ele>2184.6000976562</ele>
        <time>2021-03-21T09:52:53.000Z</time>
      </trkpt>
      <trkpt lat="44.99779" lon="6.02769">
        <ele>2184.6000976562</ele>
        <time>2021-03-21T09:52:54.000Z</time>
      </trkpt>
      <trkpt lat="44.99779" lon="6.0277">
        <ele>2184.6000976562</ele>
        <time>2021-03-21T09:52:55.000Z</time>
      </trkpt>
      <trkpt lat="44.99779" lon="6.0277">
        <ele>2184.6000976562</ele>
        <time>2021-03-21T09:52:56.000Z</time>
      </trkpt>
      <trkpt lat="44.99779" lon="6.0277">
        <ele>2184.6000976562</ele>
        <time>2021-03-21T09:52:57.000Z</time>
      </trkpt>
      <trkpt lat="44.99779" lon="6.0277">
        <ele>2184.1999511719</ele>
        <time>2021-03-21T09:52:58.000Z</time>
      </trkpt>
      <trkpt lat="44.99779" lon="6.02771">
        <ele>2184</ele>
        <time>2021-03-21T09:52:59.000Z</time>
      </trkpt>
      <trkpt lat="44.99779" lon="6.02771">
        <ele>2183.8000488281</ele>
        <time>2021-03-21T09:53:00.000Z</time>
      </trkpt>
      <trkpt lat="44.99778" lon="6.0277">
        <ele>2184.1999511719</ele>
        <time>2021-03-21T09:53:01.000Z</time>
      </trkpt>
      <trkpt lat="44.99778" lon="6.02771">
        <ele>2183.8000488281</ele>
        <time>2021-03-21T09:53:02.000Z</time>
      </trkpt>
      <trkpt lat="44.99778" lon="6.02771">
        <ele>2183.6000976562</ele>
        <time>2021-03-21T09:53:03.000Z</time>
      </trkpt>
      <trkpt lat="44.99778" lon="6.02771">
        <ele>2183.6000976562</ele>
        <time>2021-03-21T09:53:04.000Z</time>
      </trkpt>
      <trkpt lat="44.99778" lon="6.02771">
        <ele>2183.8000488281</ele>
        <time>2021-03-21T09:53:05.000Z</time>
      </trkpt>
      <trkpt lat="44.99778" lon="6.02771">
        <ele>2183.6000976562</ele>
        <time>2021-03-21T09:53:06.000Z</time>
      </trkpt>
      <trkpt lat="44.99777" lon="6.02771">
        <ele>2183.8000488281</ele>
        <time>2021-03-21T09:53:07.000Z</time>
      </trkpt>
      <trkpt lat="44.99777" lon="6.0277">
        <ele>2184.1999511719</ele>
        <time>2021-03-21T09:53:08.000Z</time>
      </trkpt>
      <trkpt lat="44.99777" lon="6.02769">
        <ele>2184.3999023438</ele>
        <time>2021-03-21T09:53:09.000Z</time>
      </trkpt>
      <trkpt lat="44.99776" lon="6.02769">
        <ele>2184.6000976562</ele>
        <time>2021-03-21T09:53:10.000Z</time>
      </trkpt>
      <trkpt lat="44.99776" lon="6.02768">
        <ele>2185</ele>
        <time>2021-03-21T09:53:11.000Z</time>
      </trkpt>
      <trkpt lat="44.99775" lon="6.02767">
        <ele>2185.1999511719</ele>
        <time>2021-03-21T09:53:12.000Z</time>
      </trkpt>
      <trkpt lat="44.99775" lon="6.02767">
        <ele>2185.3999023438</ele>
        <time>2021-03-21T09:53:13.000Z</time>
      </trkpt>
      <trkpt lat="44.99774" lon="6.02767">
        <ele>2185.3999023438</ele>
        <time>2021-03-21T09:53:14.000Z</time>
      </trkpt>
      <trkpt lat="44.99773" lon="6.02767">
        <ele>2185.1999511719</ele>
        <time>2021-03-21T09:53:15.000Z</time>
      </trkpt>
      <trkpt lat="44.99773" lon="6.02766">
        <ele>2185.6000976562</ele>
        <time>2021-03-21T09:53:16.000Z</time>
      </trkpt>
      <trkpt lat="44.99773" lon="6.02766">
        <ele>2185.6000976562</ele>
        <time>2021-03-21T09:53:17.000Z</time>
      </trkpt>
      <trkpt lat="44.99773" lon="6.02766">
        <ele>2185.6000976562</ele>
        <time>2021-03-21T09:53:18.000Z</time>
      </trkpt>
      <trkpt lat="44.99772" lon="6.02767">
        <ele>2185</ele>
        <time>2021-03-21T09:53:19.000Z</time>
      </trkpt>
      <trkpt lat="44.99772" lon="6.02767">
        <ele>2184.8000488281</ele>
        <time>2021-03-21T09:53:20.000Z</time>
      </trkpt>
      <trkpt lat="44.99772" lon="6.02768">
        <ele>2184.3999023438</ele>
        <time>2021-03-21T09:53:21.000Z</time>
      </trkpt>
      <trkpt lat="44.99772" lon="6.02768">
        <ele>2184.1999511719</ele>
        <time>2021-03-21T09:53:22.000Z</time>
      </trkpt>
      <trkpt lat="44.99772" lon="6.02768">
        <ele>2184.1999511719</ele>
        <time>2021-03-21T09:53:23.000Z</time>
      </trkpt>
      <trkpt lat="44.99771" lon="6.02769">
        <ele>2184</ele>
        <time>2021-03-21T09:53:24.000Z</time>
      </trkpt>
      <trkpt lat="44.99771" lon="6.02769">
        <ele>2183.8000488281</ele>
        <time>2021-03-21T09:53:25.000Z</time>
      </trkpt>
      <trkpt lat="44.99771" lon="6.02769">
        <ele>2183.8000488281</ele>
        <time>2021-03-21T09:53:26.000Z</time>
      </trkpt>
      <trkpt lat="44.99771" lon="6.02769">
        <ele>2183.8000488281</ele>
        <time>2021-03-21T09:53:27.000Z</time>
      </trkpt>
      <trkpt lat="44.99771" lon="6.02769">
        <ele>2184</ele>
        <time>2021-03-21T09:53:28.000Z</time>
      </trkpt>
      <trkpt lat="44.99771" lon="6.02769">
        <ele>2183.8000488281</ele>
        <time>2021-03-21T09:53:29.000Z</time>
      </trkpt>
      <trkpt lat="44.99771" lon="6.02769">
        <ele>2183.8000488281</ele>
        <time>2021-03-21T09:53:30.000Z</time>
      </trkpt>
      <trkpt lat="44.99771" lon="6.02769">
        <ele>2184</ele>
        <time>2021-03-21T09:53:31.000Z</time>
      </trkpt>
      <trkpt lat="44.99771" lon="6.02769">
        <ele>2184</ele>
        <time>2021-03-21T09:53:32.000Z</time>
      </trkpt>
      <trkpt lat="44.99771" lon="6.02769">
        <ele>2184</ele>
        <time>2021-03-21T09:53:33.000Z</time>
      </trkpt>
      <trkpt lat="44.99771" lon="6.02769">
        <ele>2183.8000488281</ele>
        <time>2021-03-21T09:53:34.000Z</time>
      </trkpt>
      <trkpt lat="44.99771" lon="6.02769">
        <ele>2183.8000488281</ele>
        <time>2021-03-21T09:53:35.000Z</time>
      </trkpt>
      <trkpt lat="44.9977" lon="6.02769">
        <ele>2183.6000976562</ele>
        <time>2021-03-21T09:53:36.000Z</time>
      </trkpt>
      <trkpt lat="44.9977" lon="6.02769">
        <ele>2183.8000488281</ele>
        <time>2021-03-21T09:53:37.000Z</time>
      </trkpt>
      <trkpt lat="44.9977" lon="6.02768">
        <ele>2183.8000488281</ele>
        <time>2021-03-21T09:53:38.000Z</time>
      </trkpt>
      <trkpt lat="44.9977" lon="6.02768">
        <ele>2184</ele>
        <time>2021-03-21T09:53:39.000Z</time>
      </trkpt>
      <trkpt lat="44.9977" lon="6.02768">
        <ele>2183.8000488281</ele>
        <time>2021-03-21T09:53:40.000Z</time>
      </trkpt>
      <trkpt lat="44.99769" lon="6.02769">
        <ele>2183.8000488281</ele>
        <time>2021-03-21T09:53:41.000Z</time>
      </trkpt>
      <trkpt lat="44.99769" lon="6.02768">
        <ele>2183.8000488281</ele>
        <time>2021-03-21T09:53:42.000Z</time>
      </trkpt>
      <trkpt lat="44.9977" lon="6.02768">
        <ele>2183.8000488281</ele>
        <time>2021-03-21T09:53:43.000Z</time>
      </trkpt>
      <trkpt lat="44.99769" lon="6.02769">
        <ele>2183.6000976562</ele>
        <time>2021-03-21T09:53:44.000Z</time>
      </trkpt>
      <trkpt lat="44.99769" lon="6.02769">
        <ele>2183.6000976562</ele>
        <time>2021-03-21T09:53:45.000Z</time>
      </trkpt>
      <trkpt lat="44.9977" lon="6.02768">
        <ele>2184</ele>
        <time>2021-03-21T09:53:46.000Z</time>
      </trkpt>
      <trkpt lat="44.99769" lon="6.02768">
        <ele>2184.1999511719</ele>
        <time>2021-03-21T09:53:47.000Z</time>
      </trkpt>
      <trkpt lat="44.99769" lon="6.02767">
        <ele>2184.3999023438</ele>
        <time>2021-03-21T09:53:48.000Z</time>
      </trkpt>
      <trkpt lat="44.99768" lon="6.02767">
        <ele>2184.1999511719</ele>
        <time>2021-03-21T09:53:49.000Z</time>
      </trkpt>
      <trkpt lat="44.99767" lon="6.02767">
        <ele>2184.1999511719</ele>
        <time>2021-03-21T09:53:50.000Z</time>
      </trkpt>
      <trkpt lat="44.99766" lon="6.02767">
        <ele>2184.1999511719</ele>
        <time>2021-03-21T09:53:51.000Z</time>
      </trkpt>
      <trkpt lat="44.99766" lon="6.02767">
        <ele>2184.1999511719</ele>
        <time>2021-03-21T09:53:52.000Z</time>
      </trkpt>
      <trkpt lat="44.99765" lon="6.02767">
        <ele>2184.1999511719</ele>
        <time>2021-03-21T09:53:53.000Z</time>
      </trkpt>
      <trkpt lat="44.99764" lon="6.02768">
        <ele>2184.1999511719</ele>
        <time>2021-03-21T09:53:54.000Z</time>
      </trkpt>
      <trkpt lat="44.99763" lon="6.02767">
        <ele>2184.6000976562</ele>
        <time>2021-03-21T09:53:55.000Z</time>
      </trkpt>
      <trkpt lat="44.99762" lon="6.02767">
        <ele>2184.8000488281</ele>
        <time>2021-03-21T09:53:56.000Z</time>
      </trkpt>
      <trkpt lat="44.99762" lon="6.02767">
        <ele>2185</ele>
        <time>2021-03-21T09:53:57.000Z</time>
      </trkpt>
      <trkpt lat="44.99761" lon="6.02767">
        <ele>2185.1999511719</ele>
        <time>2021-03-21T09:53:58.000Z</time>
      </trkpt>
      <trkpt lat="44.9976" lon="6.02768">
        <ele>2185.3999023438</ele>
        <time>2021-03-21T09:53:59.000Z</time>
      </trkpt>
      <trkpt lat="44.9976" lon="6.02768">
        <ele>2185.3999023438</ele>
        <time>2021-03-21T09:54:00.000Z</time>
      </trkpt>
      <trkpt lat="44.99758" lon="6.02769">
        <ele>2185.6000976562</ele>
        <time>2021-03-21T09:54:01.000Z</time>
      </trkpt>
      <trkpt lat="44.99758" lon="6.0277">
        <ele>2185.8000488281</ele>
        <time>2021-03-21T09:54:02.000Z</time>
      </trkpt>
      <trkpt lat="44.99757" lon="6.0277">
        <ele>2186</ele>
        <time>2021-03-21T09:54:03.000Z</time>
      </trkpt>
      <trkpt lat="44.99756" lon="6.0277">
        <ele>2186.1999511719</ele>
        <time>2021-03-21T09:54:04.000Z</time>
      </trkpt>
      <trkpt lat="44.99755" lon="6.0277">
        <ele>2186.3999023438</ele>
        <time>2021-03-21T09:54:05.000Z</time>
      </trkpt>
      <trkpt lat="44.99755" lon="6.02771">
        <ele>2186.6000976562</ele>
        <time>2021-03-21T09:54:06.000Z</time>
      </trkpt>
      <trkpt lat="44.99754" lon="6.02771">
        <ele>2186.8000488281</ele>
        <time>2021-03-21T09:54:07.000Z</time>
      </trkpt>
      <trkpt lat="44.99753" lon="6.02771">
        <ele>2187</ele>
        <time>2021-03-21T09:54:08.000Z</time>
      </trkpt>
      <trkpt lat="44.99752" lon="6.02772">
        <ele>2187.1999511719</ele>
        <time>2021-03-21T09:54:09.000Z</time>
      </trkpt>
      <trkpt lat="44.99751" lon="6.02772">
        <ele>2187.1999511719</ele>
        <time>2021-03-21T09:54:10.000Z</time>
      </trkpt>
      <trkpt lat="44.9975" lon="6.02773">
        <ele>2187.3999023438</ele>
        <time>2021-03-21T09:54:11.000Z</time>
      </trkpt>
      <trkpt lat="44.9975" lon="6.02773">
        <ele>2187.6000976562</ele>
        <time>2021-03-21T09:54:12.000Z</time>
      </trkpt>
      <trkpt lat="44.99749" lon="6.02774">
        <ele>2187.8000488281</ele>
        <time>2021-03-21T09:54:13.000Z</time>
      </trkpt>
      <trkpt lat="44.99747" lon="6.02774">
        <ele>2188</ele>
        <time>2021-03-21T09:54:14.000Z</time>
      </trkpt>
      <trkpt lat="44.99747" lon="6.02775">
        <ele>2188</ele>
        <time>2021-03-21T09:54:15.000Z</time>
      </trkpt>
      <trkpt lat="44.99746" lon="6.02775">
        <ele>2188.1999511719</ele>
        <time>2021-03-21T09:54:16.000Z</time>
      </trkpt>
      <trkpt lat="44.99745" lon="6.02776">
        <ele>2188</ele>
        <time>2021-03-21T09:54:17.000Z</time>
      </trkpt>
      <trkpt lat="44.99744" lon="6.02776">
        <ele>2188</ele>
        <time>2021-03-21T09:54:18.000Z</time>
      </trkpt>
      <trkpt lat="44.99743" lon="6.02777">
        <ele>2188</ele>
        <time>2021-03-21T09:54:19.000Z</time>
      </trkpt>
      <trkpt lat="44.99741" lon="6.02778">
        <ele>2187.8000488281</ele>
        <time>2021-03-21T09:54:20.000Z</time>
      </trkpt>
      <trkpt lat="44.99741" lon="6.02778">
        <ele>2187.8000488281</ele>
        <time>2021-03-21T09:54:21.000Z</time>
      </trkpt>
      <trkpt lat="44.9974" lon="6.02779">
        <ele>2187.6000976562</ele>
        <time>2021-03-21T09:54:22.000Z</time>
      </trkpt>
      <trkpt lat="44.99739" lon="6.0278">
        <ele>2187.6000976562</ele>
        <time>2021-03-21T09:54:23.000Z</time>
      </trkpt>
      <trkpt lat="44.99737" lon="6.02781">
        <ele>2187.3999023438</ele>
        <time>2021-03-21T09:54:24.000Z</time>
      </trkpt>
      <trkpt lat="44.99736" lon="6.02782">
        <ele>2187.1999511719</ele>
        <time>2021-03-21T09:54:25.000Z</time>
      </trkpt>
      <trkpt lat="44.99735" lon="6.02783">
        <ele>2187</ele>
        <time>2021-03-21T09:54:26.000Z</time>
      </trkpt>
      <trkpt lat="44.99734" lon="6.02783">
        <ele>2187.1999511719</ele>
        <time>2021-03-21T09:54:27.000Z</time>
      </trkpt>
      <trkpt lat="44.99733" lon="6.02784">
        <ele>2187.1999511719</ele>
        <time>2021-03-21T09:54:28.000Z</time>
      </trkpt>
      <trkpt lat="44.99732" lon="6.02785">
        <ele>2187</ele>
        <time>2021-03-21T09:54:29.000Z</time>
      </trkpt>
      <trkpt lat="44.99731" lon="6.02786">
        <ele>2187</ele>
        <time>2021-03-21T09:54:30.000Z</time>
      </trkpt>
      <trkpt lat="44.9973" lon="6.02787">
        <ele>2187</ele>
        <time>2021-03-21T09:54:31.000Z</time>
      </trkpt>
      <trkpt lat="44.99729" lon="6.02788">
        <ele>2186.6000976562</ele>
        <time>2021-03-21T09:54:32.000Z</time>
      </trkpt>
      <trkpt lat="44.99728" lon="6.02789">
        <ele>2186.6000976562</ele>
        <time>2021-03-21T09:54:33.000Z</time>
      </trkpt>
      <trkpt lat="44.99727" lon="6.0279">
        <ele>2186.1999511719</ele>
        <time>2021-03-21T09:54:34.000Z</time>
      </trkpt>
      <trkpt lat="44.99727" lon="6.02791">
        <ele>2186</ele>
        <time>2021-03-21T09:54:35.000Z</time>
      </trkpt>
      <trkpt lat="44.99726" lon="6.02791">
        <ele>2185.8000488281</ele>
        <time>2021-03-21T09:54:36.000Z</time>
      </trkpt>
      <trkpt lat="44.99725" lon="6.02792">
        <ele>2185.3999023438</ele>
        <time>2021-03-21T09:54:37.000Z</time>
      </trkpt>
      <trkpt lat="44.99724" lon="6.02793">
        <ele>2185.3999023438</ele>
        <time>2021-03-21T09:54:38.000Z</time>
      </trkpt>
      <trkpt lat="44.99723" lon="6.02794">
        <ele>2185.1999511719</ele>
        <time>2021-03-21T09:54:39.000Z</time>
      </trkpt>
      <trkpt lat="44.99723" lon="6.02795">
        <ele>2185.3999023438</ele>
        <time>2021-03-21T09:54:40.000Z</time>
      </trkpt>
      <trkpt lat="44.99722" lon="6.02795">
        <ele>2185.3999023438</ele>
        <time>2021-03-21T09:54:41.000Z</time>
      </trkpt>
      <trkpt lat="44.99721" lon="6.02795">
        <ele>2185.6000976562</ele>
        <time>2021-03-21T09:54:42.000Z</time>
      </trkpt>
      <trkpt lat="44.9972" lon="6.02795">
        <ele>2185.8000488281</ele>
        <time>2021-03-21T09:54:43.000Z</time>
      </trkpt>
      <trkpt lat="44.99719" lon="6.02795">
        <ele>2185.8000488281</ele>
        <time>2021-03-21T09:54:44.000Z</time>
      </trkpt>
      <trkpt lat="44.99719" lon="6.02795">
        <ele>2186</ele>
        <time>2021-03-21T09:54:45.000Z</time>
      </trkpt>
      <trkpt lat="44.99718" lon="6.02795">
        <ele>2186</ele>
        <time>2021-03-21T09:54:46.000Z</time>
      </trkpt>
      <trkpt lat="44.99718" lon="6.02796">
        <ele>2186.1999511719</ele>
        <time>2021-03-21T09:54:47.000Z</time>
      </trkpt>
      <trkpt lat="44.99716" lon="6.02796">
        <ele>2186.3999023438</ele>
        <time>2021-03-21T09:54:48.000Z</time>
      </trkpt>
      <trkpt lat="44.99716" lon="6.02796">
        <ele>2186.3999023438</ele>
        <time>2021-03-21T09:54:49.000Z</time>
      </trkpt>
      <trkpt lat="44.99715" lon="6.02797">
        <ele>2186.6000976562</ele>
        <time>2021-03-21T09:54:50.000Z</time>
      </trkpt>
      <trkpt lat="44.99714" lon="6.02797">
        <ele>2186.6000976562</ele>
        <time>2021-03-21T09:54:51.000Z</time>
      </trkpt>
      <trkpt lat="44.99713" lon="6.02797">
        <ele>2186.8000488281</ele>
        <time>2021-03-21T09:54:52.000Z</time>
      </trkpt>
      <trkpt lat="44.99712" lon="6.02797">
        <ele>2187</ele>
        <time>2021-03-21T09:54:53.000Z</time>
      </trkpt>
      <trkpt lat="44.99712" lon="6.02797">
        <ele>2187</ele>
        <time>2021-03-21T09:54:54.000Z</time>
      </trkpt>
      <trkpt lat="44.99711" lon="6.02797">
        <ele>2187</ele>
        <time>2021-03-21T09:54:55.000Z</time>
      </trkpt>
      <trkpt lat="44.9971" lon="6.02797">
        <ele>2187.1999511719</ele>
        <time>2021-03-21T09:54:56.000Z</time>
      </trkpt>
      <trkpt lat="44.9971" lon="6.02797">
        <ele>2187.1999511719</ele>
        <time>2021-03-21T09:54:57.000Z</time>
      </trkpt>
      <trkpt lat="44.99709" lon="6.02797">
        <ele>2187.3999023438</ele>
        <time>2021-03-21T09:54:58.000Z</time>
      </trkpt>
      <trkpt lat="44.99708" lon="6.02797">
        <ele>2187.6000976562</ele>
        <time>2021-03-21T09:54:59.000Z</time>
      </trkpt>
      <trkpt lat="44.99707" lon="6.02797">
        <ele>2188</ele>
        <time>2021-03-21T09:55:00.000Z</time>
      </trkpt>
      <trkpt lat="44.99707" lon="6.02796">
        <ele>2188.3999023438</ele>
        <time>2021-03-21T09:55:01.000Z</time>
      </trkpt>
      <trkpt lat="44.99706" lon="6.02796">
        <ele>2188.8000488281</ele>
        <time>2021-03-21T09:55:02.000Z</time>
      </trkpt>
      <trkpt lat="44.99706" lon="6.02795">
        <ele>2189.1999511719</ele>
        <time>2021-03-21T09:55:03.000Z</time>
      </trkpt>
      <trkpt lat="44.99706" lon="6.02795">
        <ele>2189.1999511719</ele>
        <time>2021-03-21T09:55:04.000Z</time>
      </trkpt>
      <trkpt lat="44.99706" lon="6.02795">
        <ele>2189</ele>
        <time>2021-03-21T09:55:05.000Z</time>
      </trkpt>
      <trkpt lat="44.99706" lon="6.02795">
        <ele>2189</ele>
        <time>2021-03-21T09:55:06.000Z</time>
      </trkpt>
      <trkpt lat="44.99706" lon="6.02795">
        <ele>2189</ele>
        <time>2021-03-21T09:55:07.000Z</time>
      </trkpt>
      <trkpt lat="44.99706" lon="6.02795">
        <ele>2189</ele>
        <time>2021-03-21T09:55:08.000Z</time>
      </trkpt>
      <trkpt lat="44.99706" lon="6.02796">
        <ele>2188.8000488281</ele>
        <time>2021-03-21T09:55:09.000Z</time>
      </trkpt>
      <trkpt lat="44.99706" lon="6.02796">
        <ele>2188.8000488281</ele>
        <time>2021-03-21T09:55:10.000Z</time>
      </trkpt>
      <trkpt lat="44.99706" lon="6.02796">
        <ele>2188.8000488281</ele>
        <time>2021-03-21T09:55:11.000Z</time>
      </trkpt>
      <trkpt lat="44.99706" lon="6.02796">
        <ele>2189</ele>
        <time>2021-03-21T09:55:12.000Z</time>
      </trkpt>
      <trkpt lat="44.99706" lon="6.02796">
        <ele>2188.8000488281</ele>
        <time>2021-03-21T09:55:13.000Z</time>
      </trkpt>
      <trkpt lat="44.99705" lon="6.02796">
        <ele>2188.8000488281</ele>
        <time>2021-03-21T09:55:14.000Z</time>
      </trkpt>
      <trkpt lat="44.99705" lon="6.02797">
        <ele>2188.8000488281</ele>
        <time>2021-03-21T09:55:15.000Z</time>
      </trkpt>
      <trkpt lat="44.99705" lon="6.02797">
        <ele>2188.6000976562</ele>
        <time>2021-03-21T09:55:16.000Z</time>
      </trkpt>
      <trkpt lat="44.99705" lon="6.02798">
        <ele>2188.3999023438</ele>
        <time>2021-03-21T09:55:17.000Z</time>
      </trkpt>
      <trkpt lat="44.99705" lon="6.02798">
        <ele>2188.1999511719</ele>
        <time>2021-03-21T09:55:18.000Z</time>
      </trkpt>
      <trkpt lat="44.99705" lon="6.02798">
        <ele>2188.1999511719</ele>
        <time>2021-03-21T09:55:19.000Z</time>
      </trkpt>
      <trkpt lat="44.99705" lon="6.02799">
        <ele>2188</ele>
        <time>2021-03-21T09:55:20.000Z</time>
      </trkpt>
      <trkpt lat="44.99705" lon="6.02798">
        <ele>2188.1999511719</ele>
        <time>2021-03-21T09:55:21.000Z</time>
      </trkpt>
      <trkpt lat="44.99705" lon="6.02798">
        <ele>2188.1999511719</ele>
        <time>2021-03-21T09:55:22.000Z</time>
      </trkpt>
      <trkpt lat="44.99705" lon="6.02798">
        <ele>2188.1999511719</ele>
        <time>2021-03-21T09:55:23.000Z</time>
      </trkpt>
      <trkpt lat="44.99705" lon="6.02798">
        <ele>2188.3999023438</ele>
        <time>2021-03-21T09:55:24.000Z</time>
      </trkpt>
      <trkpt lat="44.99705" lon="6.02798">
        <ele>2188.3999023438</ele>
        <time>2021-03-21T09:55:25.000Z</time>
      </trkpt>
      <trkpt lat="44.99705" lon="6.02798">
        <ele>2188.3999023438</ele>
        <time>2021-03-21T09:55:26.000Z</time>
      </trkpt>
      <trkpt lat="44.99706" lon="6.02797">
        <ele>2188.3999023438</ele>
        <time>2021-03-21T09:55:27.000Z</time>
      </trkpt>
      <trkpt lat="44.99705" lon="6.02797">
        <ele>2188.6000976562</ele>
        <time>2021-03-21T09:55:28.000Z</time>
      </trkpt>
      <trkpt lat="44.99705" lon="6.02798">
        <ele>2188.3999023438</ele>
        <time>2021-03-21T09:55:29.000Z</time>
      </trkpt>
      <trkpt lat="44.99705" lon="6.02798">
        <ele>2188.3999023438</ele>
        <time>2021-03-21T09:55:30.000Z</time>
      </trkpt>
      <trkpt lat="44.99705" lon="6.02797">
        <ele>2188.3999023438</ele>
        <time>2021-03-21T09:55:31.000Z</time>
      </trkpt>
      <trkpt lat="44.99705" lon="6.02797">
        <ele>2188.6000976562</ele>
        <time>2021-03-21T09:55:32.000Z</time>
      </trkpt>
      <trkpt lat="44.99706" lon="6.02797">
        <ele>2188.6000976562</ele>
        <time>2021-03-21T09:55:33.000Z</time>
      </trkpt>
      <trkpt lat="44.99706" lon="6.02796">
        <ele>2188.6000976562</ele>
        <time>2021-03-21T09:55:34.000Z</time>
      </trkpt>
      <trkpt lat="44.99705" lon="6.02796">
        <ele>2188.8000488281</ele>
        <time>2021-03-21T09:55:35.000Z</time>
      </trkpt>
      <trkpt lat="44.99705" lon="6.02796">
        <ele>2189</ele>
        <time>2021-03-21T09:55:36.000Z</time>
      </trkpt>
      <trkpt lat="44.99704" lon="6.02796">
        <ele>2189.3999023438</ele>
        <time>2021-03-21T09:55:37.000Z</time>
      </trkpt>
      <trkpt lat="44.99704" lon="6.02796">
        <ele>2189.6000976562</ele>
        <time>2021-03-21T09:55:38.000Z</time>
      </trkpt>
      <trkpt lat="44.99703" lon="6.02795">
        <ele>2190.1999511719</ele>
        <time>2021-03-21T09:55:39.000Z</time>
      </trkpt>
      <trkpt lat="44.99702" lon="6.02795">
        <ele>2190.6000976562</ele>
        <time>2021-03-21T09:55:40.000Z</time>
      </trkpt>
      <trkpt lat="44.99702" lon="6.02794">
        <ele>2191.1999511719</ele>
        <time>2021-03-21T09:55:41.000Z</time>
      </trkpt>
      <trkpt lat="44.99701" lon="6.02794">
        <ele>2191.6000976562</ele>
        <time>2021-03-21T09:55:42.000Z</time>
      </trkpt>
      <trkpt lat="44.997" lon="6.02794">
        <ele>2192</ele>
        <time>2021-03-21T09:55:43.000Z</time>
      </trkpt>
      <trkpt lat="44.99699" lon="6.02793">
        <ele>2192.6000976562</ele>
        <time>2021-03-21T09:55:44.000Z</time>
      </trkpt>
      <trkpt lat="44.99698" lon="6.02793">
        <ele>2193</ele>
        <time>2021-03-21T09:55:45.000Z</time>
      </trkpt>
      <trkpt lat="44.99697" lon="6.02793">
        <ele>2193.3999023438</ele>
        <time>2021-03-21T09:55:46.000Z</time>
      </trkpt>
      <trkpt lat="44.99696" lon="6.02792">
        <ele>2194</ele>
        <time>2021-03-21T09:55:47.000Z</time>
      </trkpt>
      <trkpt lat="44.99696" lon="6.02792">
        <ele>2194.3999023438</ele>
        <time>2021-03-21T09:55:48.000Z</time>
      </trkpt>
      <trkpt lat="44.99695" lon="6.02791">
        <ele>2195</ele>
        <time>2021-03-21T09:55:49.000Z</time>
      </trkpt>
      <trkpt lat="44.99694" lon="6.02791">
        <ele>2195.1999511719</ele>
        <time>2021-03-21T09:55:50.000Z</time>
      </trkpt>
      <trkpt lat="44.99693" lon="6.0279">
        <ele>2195.8000488281</ele>
        <time>2021-03-21T09:55:51.000Z</time>
      </trkpt>
      <trkpt lat="44.99692" lon="6.0279">
        <ele>2196</ele>
        <time>2021-03-21T09:55:52.000Z</time>
      </trkpt>
      <trkpt lat="44.99692" lon="6.0279">
        <ele>2196.3999023438</ele>
        <time>2021-03-21T09:55:53.000Z</time>
      </trkpt>
      <trkpt lat="44.99691" lon="6.0279">
        <ele>2197</ele>
        <time>2021-03-21T09:55:54.000Z</time>
      </trkpt>
      <trkpt lat="44.9969" lon="6.0279">
        <ele>2197.1999511719</ele>
        <time>2021-03-21T09:55:55.000Z</time>
      </trkpt>
      <trkpt lat="44.99689" lon="6.02789">
        <ele>2197.6000976562</ele>
        <time>2021-03-21T09:55:56.000Z</time>
      </trkpt>
      <trkpt lat="44.99689" lon="6.02788">
        <ele>2198.1999511719</ele>
        <time>2021-03-21T09:55:57.000Z</time>
      </trkpt>
      <trkpt lat="44.99689" lon="6.02788">
        <ele>2198.3999023438</ele>
        <time>2021-03-21T09:55:58.000Z</time>
      </trkpt>
      <trkpt lat="44.99688" lon="6.02787">
        <ele>2198.8000488281</ele>
        <time>2021-03-21T09:55:59.000Z</time>
      </trkpt>
      <trkpt lat="44.99688" lon="6.02787">
        <ele>2199</ele>
        <time>2021-03-21T09:56:00.000Z</time>
      </trkpt>
      <trkpt lat="44.99687" lon="6.02786">
        <ele>2199.3999023438</ele>
        <time>2021-03-21T09:56:01.000Z</time>
      </trkpt>
      <trkpt lat="44.99687" lon="6.02787">
        <ele>2199.3999023438</ele>
        <time>2021-03-21T09:56:02.000Z</time>
      </trkpt>
      <trkpt lat="44.99687" lon="6.02788">
        <ele>2199.1999511719</ele>
        <time>2021-03-21T09:56:03.000Z</time>
      </trkpt>
      <trkpt lat="44.99687" lon="6.02788">
        <ele>2199.1999511719</ele>
        <time>2021-03-21T09:56:04.000Z</time>
      </trkpt>
      <trkpt lat="44.99686" lon="6.02788">
        <ele>2199.3999023438</ele>
        <time>2021-03-21T09:56:05.000Z</time>
      </trkpt>
      <trkpt lat="44.99687" lon="6.02788">
        <ele>2199.3999023438</ele>
        <time>2021-03-21T09:56:06.000Z</time>
      </trkpt>
      <trkpt lat="44.99686" lon="6.02788">
        <ele>2199.3999023438</ele>
        <time>2021-03-21T09:56:07.000Z</time>
      </trkpt>
      <trkpt lat="44.99687" lon="6.02788">
        <ele>2199.1999511719</ele>
        <time>2021-03-21T09:56:08.000Z</time>
      </trkpt>
      <trkpt lat="44.99687" lon="6.02788">
        <ele>2199.1999511719</ele>
        <time>2021-03-21T09:56:09.000Z</time>
      </trkpt>
      <trkpt lat="44.99687" lon="6.02788">
        <ele>2199</ele>
        <time>2021-03-21T09:56:10.000Z</time>
      </trkpt>
      <trkpt lat="44.99687" lon="6.02787">
        <ele>2199.1999511719</ele>
        <time>2021-03-21T09:56:11.000Z</time>
      </trkpt>
      <trkpt lat="44.99687" lon="6.02788">
        <ele>2199.1999511719</ele>
        <time>2021-03-21T09:56:12.000Z</time>
      </trkpt>
      <trkpt lat="44.99687" lon="6.02788">
        <ele>2199.1999511719</ele>
        <time>2021-03-21T09:56:13.000Z</time>
      </trkpt>
      <trkpt lat="44.99687" lon="6.02787">
        <ele>2199.3999023438</ele>
        <time>2021-03-21T09:56:14.000Z</time>
      </trkpt>
      <trkpt lat="44.99687" lon="6.02788">
        <ele>2199.1999511719</ele>
        <time>2021-03-21T09:56:15.000Z</time>
      </trkpt>
      <trkpt lat="44.99687" lon="6.02787">
        <ele>2199.3999023438</ele>
        <time>2021-03-21T09:56:16.000Z</time>
      </trkpt>
      <trkpt lat="44.99686" lon="6.02788">
        <ele>2199.3999023438</ele>
        <time>2021-03-21T09:56:17.000Z</time>
      </trkpt>
      <trkpt lat="44.99686" lon="6.02787">
        <ele>2200</ele>
        <time>2021-03-21T09:56:18.000Z</time>
      </trkpt>
      <trkpt lat="44.99686" lon="6.02786">
        <ele>2200.3999023438</ele>
        <time>2021-03-21T09:56:19.000Z</time>
      </trkpt>
      <trkpt lat="44.99685" lon="6.02785">
        <ele>2200.8000488281</ele>
        <time>2021-03-21T09:56:20.000Z</time>
      </trkpt>
      <trkpt lat="44.99685" lon="6.02785">
        <ele>2201.1999511719</ele>
        <time>2021-03-21T09:56:21.000Z</time>
      </trkpt>
      <trkpt lat="44.99684" lon="6.02784">
        <ele>2201.6000976562</ele>
        <time>2021-03-21T09:56:22.000Z</time>
      </trkpt>
      <trkpt lat="44.99683" lon="6.02783">
        <ele>2202.1999511719</ele>
        <time>2021-03-21T09:56:23.000Z</time>
      </trkpt>
      <trkpt lat="44.99683" lon="6.02783">
        <ele>2202.3999023438</ele>
        <time>2021-03-21T09:56:24.000Z</time>
      </trkpt>
      <trkpt lat="44.99682" lon="6.02783">
        <ele>2202.8000488281</ele>
        <time>2021-03-21T09:56:25.000Z</time>
      </trkpt>
      <trkpt lat="44.99682" lon="6.02782">
        <ele>2203.1999511719</ele>
        <time>2021-03-21T09:56:26.000Z</time>
      </trkpt>
      <trkpt lat="44.99681" lon="6.02782">
        <ele>2203.6000976562</ele>
        <time>2021-03-21T09:56:27.000Z</time>
      </trkpt>
      <trkpt lat="44.9968" lon="6.02781">
        <ele>2204.1999511719</ele>
        <time>2021-03-21T09:56:28.000Z</time>
      </trkpt>
      <trkpt lat="44.9968" lon="6.02781">
        <ele>2204.1999511719</ele>
        <time>2021-03-21T09:56:29.000Z</time>
      </trkpt>
      <trkpt lat="44.99679" lon="6.0278">
        <ele>2204.6000976562</ele>
        <time>2021-03-21T09:56:30.000Z</time>
      </trkpt>
      <trkpt lat="44.99679" lon="6.0278">
        <ele>2205</ele>
        <time>2021-03-21T09:56:31.000Z</time>
      </trkpt>
      <trkpt lat="44.99678" lon="6.0278">
        <ele>2205.1999511719</ele>
        <time>2021-03-21T09:56:32.000Z</time>
      </trkpt>
      <trkpt lat="44.99678" lon="6.02779">
        <ele>2205.3999023438</ele>
        <time>2021-03-21T09:56:33.000Z</time>
      </trkpt>
      <trkpt lat="44.99677" lon="6.02779">
        <ele>2205.6000976562</ele>
        <time>2021-03-21T09:56:34.000Z</time>
      </trkpt>
      <trkpt lat="44.99676" lon="6.02778">
        <ele>2206</ele>
        <time>2021-03-21T09:56:35.000Z</time>
      </trkpt>
      <trkpt lat="44.99676" lon="6.02778">
        <ele>2206.3999023438</ele>
        <time>2021-03-21T09:56:36.000Z</time>
      </trkpt>
      <trkpt lat="44.99675" lon="6.02777">
        <ele>2206.6000976562</ele>
        <time>2021-03-21T09:56:37.000Z</time>
      </trkpt>
      <trkpt lat="44.99675" lon="6.02777">
        <ele>2207</ele>
        <time>2021-03-21T09:56:38.000Z</time>
      </trkpt>
      <trkpt lat="44.99674" lon="6.02776">
        <ele>2207.1999511719</ele>
        <time>2021-03-21T09:56:39.000Z</time>
      </trkpt>
      <trkpt lat="44.99673" lon="6.02775">
        <ele>2207.6000976562</ele>
        <time>2021-03-21T09:56:40.000Z</time>
      </trkpt>
      <trkpt lat="44.99673" lon="6.02775">
        <ele>2207.8000488281</ele>
        <time>2021-03-21T09:56:41.000Z</time>
      </trkpt>
      <trkpt lat="44.99672" lon="6.02774">
        <ele>2208.3999023438</ele>
        <time>2021-03-21T09:56:42.000Z</time>
      </trkpt>
      <trkpt lat="44.99672" lon="6.02773">
        <ele>2208.8000488281</ele>
        <time>2021-03-21T09:56:43.000Z</time>
      </trkpt>
      <trkpt lat="44.99671" lon="6.02773">
        <ele>2209</ele>
        <time>2021-03-21T09:56:44.000Z</time>
      </trkpt>
      <trkpt lat="44.9967" lon="6.02773">
        <ele>2209.1999511719</ele>
        <time>2021-03-21T09:56:45.000Z</time>
      </trkpt>
      <trkpt lat="44.9967" lon="6.02772">
        <ele>2209.3999023438</ele>
        <time>2021-03-21T09:56:46.000Z</time>
      </trkpt>
      <trkpt lat="44.99669" lon="6.02772">
        <ele>2209.8000488281</ele>
        <time>2021-03-21T09:56:47.000Z</time>
      </trkpt>
      <trkpt lat="44.99669" lon="6.02772">
        <ele>2210</ele>
        <time>2021-03-21T09:56:48.000Z</time>
      </trkpt>
      <trkpt lat="44.99668" lon="6.02771">
        <ele>2210.3999023438</ele>
        <time>2021-03-21T09:56:49.000Z</time>
      </trkpt>
      <trkpt lat="44.99668" lon="6.02771">
        <ele>2210.6000976562</ele>
        <time>2021-03-21T09:56:50.000Z</time>
      </trkpt>
      <trkpt lat="44.99667" lon="6.02771">
        <ele>2210.8000488281</ele>
        <time>2021-03-21T09:56:51.000Z</time>
      </trkpt>
      <trkpt lat="44.99667" lon="6.0277">
        <ele>2211.1999511719</ele>
        <time>2021-03-21T09:56:52.000Z</time>
      </trkpt>
      <trkpt lat="44.99667" lon="6.02769">
        <ele>2211.3999023438</ele>
        <time>2021-03-21T09:56:53.000Z</time>
      </trkpt>
      <trkpt lat="44.99666" lon="6.02768">
        <ele>2211.8000488281</ele>
        <time>2021-03-21T09:56:54.000Z</time>
      </trkpt>
      <trkpt lat="44.99666" lon="6.02768">
        <ele>2212</ele>
        <time>2021-03-21T09:56:55.000Z</time>
      </trkpt>
      <trkpt lat="44.99666" lon="6.02767">
        <ele>2212.3999023438</ele>
        <time>2021-03-21T09:56:56.000Z</time>
      </trkpt>
      <trkpt lat="44.99665" lon="6.02767">
        <ele>2212.6000976562</ele>
        <time>2021-03-21T09:56:57.000Z</time>
      </trkpt>
      <trkpt lat="44.99665" lon="6.02766">
        <ele>2213</ele>
        <time>2021-03-21T09:56:58.000Z</time>
      </trkpt>
      <trkpt lat="44.99664" lon="6.02765">
        <ele>2213.3999023438</ele>
        <time>2021-03-21T09:56:59.000Z</time>
      </trkpt>
      <trkpt lat="44.99663" lon="6.02765">
        <ele>2213.6000976562</ele>
        <time>2021-03-21T09:57:00.000Z</time>
      </trkpt>
      <trkpt lat="44.99663" lon="6.02764">
        <ele>2214</ele>
        <time>2021-03-21T09:57:01.000Z</time>
      </trkpt>
      <trkpt lat="44.99662" lon="6.02764">
        <ele>2214.1999511719</ele>
        <time>2021-03-21T09:57:02.000Z</time>
      </trkpt>
      <trkpt lat="44.99662" lon="6.02763">
        <ele>2214.3999023438</ele>
        <time>2021-03-21T09:57:03.000Z</time>
      </trkpt>
      <trkpt lat="44.99662" lon="6.02764">
        <ele>2214.3999023438</ele>
        <time>2021-03-21T09:57:04.000Z</time>
      </trkpt>
      <trkpt lat="44.99662" lon="6.02764">
        <ele>2214.3999023438</ele>
        <time>2021-03-21T09:57:05.000Z</time>
      </trkpt>
      <trkpt lat="44.99662" lon="6.02763">
        <ele>2214.3999023438</ele>
        <time>2021-03-21T09:57:06.000Z</time>
      </trkpt>
      <trkpt lat="44.99662" lon="6.02763">
        <ele>2214.6000976562</ele>
        <time>2021-03-21T09:57:07.000Z</time>
      </trkpt>
      <trkpt lat="44.99662" lon="6.02762">
        <ele>2215.1999511719</ele>
        <time>2021-03-21T09:57:08.000Z</time>
      </trkpt>
      <trkpt lat="44.99661" lon="6.02761">
        <ele>2215.3999023438</ele>
        <time>2021-03-21T09:57:09.000Z</time>
      </trkpt>
      <trkpt lat="44.99661" lon="6.0276">
        <ele>2215.8000488281</ele>
        <time>2021-03-21T09:57:10.000Z</time>
      </trkpt>
      <trkpt lat="44.99661" lon="6.0276">
        <ele>2216</ele>
        <time>2021-03-21T09:57:11.000Z</time>
      </trkpt>
      <trkpt lat="44.99659" lon="6.02759">
        <ele>2216.3999023438</ele>
        <time>2021-03-21T09:57:12.000Z</time>
      </trkpt>
      <trkpt lat="44.99659" lon="6.02759">
        <ele>2216.6000976562</ele>
        <time>2021-03-21T09:57:13.000Z</time>
      </trkpt>
      <trkpt lat="44.99658" lon="6.02758">
        <ele>2217</ele>
        <time>2021-03-21T09:57:14.000Z</time>
      </trkpt>
      <trkpt lat="44.99658" lon="6.02757">
        <ele>2217.3999023438</ele>
        <time>2021-03-21T09:57:15.000Z</time>
      </trkpt>
      <trkpt lat="44.99657" lon="6.02757">
        <ele>2217.6000976562</ele>
        <time>2021-03-21T09:57:16.000Z</time>
      </trkpt>
      <trkpt lat="44.99656" lon="6.02757">
        <ele>2217.8000488281</ele>
        <time>2021-03-21T09:57:17.000Z</time>
      </trkpt>
      <trkpt lat="44.99656" lon="6.02756">
        <ele>2218</ele>
        <time>2021-03-21T09:57:18.000Z</time>
      </trkpt>
      <trkpt lat="44.99655" lon="6.02756">
        <ele>2218.3999023438</ele>
        <time>2021-03-21T09:57:19.000Z</time>
      </trkpt>
      <trkpt lat="44.99655" lon="6.02756">
        <ele>2218.3999023438</ele>
        <time>2021-03-21T09:57:20.000Z</time>
      </trkpt>
      <trkpt lat="44.99654" lon="6.02756">
        <ele>2218.6000976562</ele>
        <time>2021-03-21T09:57:21.000Z</time>
      </trkpt>
      <trkpt lat="44.99653" lon="6.02756">
        <ele>2218.6000976562</ele>
        <time>2021-03-21T09:57:22.000Z</time>
      </trkpt>
      <trkpt lat="44.99653" lon="6.02756">
        <ele>2218.8000488281</ele>
        <time>2021-03-21T09:57:23.000Z</time>
      </trkpt>
      <trkpt lat="44.99652" lon="6.02756">
        <ele>2219</ele>
        <time>2021-03-21T09:57:24.000Z</time>
      </trkpt>
      <trkpt lat="44.99651" lon="6.02756">
        <ele>2219</ele>
        <time>2021-03-21T09:57:25.000Z</time>
      </trkpt>
      <trkpt lat="44.99651" lon="6.02756">
        <ele>2219.1999511719</ele>
        <time>2021-03-21T09:57:26.000Z</time>
      </trkpt>
      <trkpt lat="44.9965" lon="6.02757">
        <ele>2219.1999511719</ele>
        <time>2021-03-21T09:57:27.000Z</time>
      </trkpt>
      <trkpt lat="44.9965" lon="6.02757">
        <ele>2219.3999023438</ele>
        <time>2021-03-21T09:57:28.000Z</time>
      </trkpt>
      <trkpt lat="44.99649" lon="6.02757">
        <ele>2219.6000976562</ele>
        <time>2021-03-21T09:57:29.000Z</time>
      </trkpt>
      <trkpt lat="44.99648" lon="6.02757">
        <ele>2219.6000976562</ele>
        <time>2021-03-21T09:57:30.000Z</time>
      </trkpt>
      <trkpt lat="44.99647" lon="6.02757">
        <ele>2219.8000488281</ele>
        <time>2021-03-21T09:57:31.000Z</time>
      </trkpt>
      <trkpt lat="44.99647" lon="6.02757">
        <ele>2219.8000488281</ele>
        <time>2021-03-21T09:57:32.000Z</time>
      </trkpt>
      <trkpt lat="44.99646" lon="6.02758">
        <ele>2219.8000488281</ele>
        <time>2021-03-21T09:57:33.000Z</time>
      </trkpt>
      <trkpt lat="44.99645" lon="6.02758">
        <ele>2220</ele>
        <time>2021-03-21T09:57:34.000Z</time>
      </trkpt>
      <trkpt lat="44.99645" lon="6.02758">
        <ele>2220</ele>
        <time>2021-03-21T09:57:35.000Z</time>
      </trkpt>
      <trkpt lat="44.99644" lon="6.02759">
        <ele>2220</ele>
        <time>2021-03-21T09:57:36.000Z</time>
      </trkpt>
      <trkpt lat="44.99643" lon="6.02759">
        <ele>2220</ele>
        <time>2021-03-21T09:57:37.000Z</time>
      </trkpt>
      <trkpt lat="44.99642" lon="6.02759">
        <ele>2220</ele>
        <time>2021-03-21T09:57:38.000Z</time>
      </trkpt>
      <trkpt lat="44.99641" lon="6.0276">
        <ele>2220</ele>
        <time>2021-03-21T09:57:39.000Z</time>
      </trkpt>
      <trkpt lat="44.99641" lon="6.0276">
        <ele>2220.1999511719</ele>
        <time>2021-03-21T09:57:40.000Z</time>
      </trkpt>
      <trkpt lat="44.9964" lon="6.02759">
        <ele>2220.3999023438</ele>
        <time>2021-03-21T09:57:41.000Z</time>
      </trkpt>
      <trkpt lat="44.99639" lon="6.0276">
        <ele>2220.3999023438</ele>
        <time>2021-03-21T09:57:42.000Z</time>
      </trkpt>
      <trkpt lat="44.99639" lon="6.0276">
        <ele>2220.3999023438</ele>
        <time>2021-03-21T09:57:43.000Z</time>
      </trkpt>
      <trkpt lat="44.99638" lon="6.0276">
        <ele>2220.6000976562</ele>
        <time>2021-03-21T09:57:44.000Z</time>
      </trkpt>
      <trkpt lat="44.99637" lon="6.02761">
        <ele>2220.3999023438</ele>
        <time>2021-03-21T09:57:45.000Z</time>
      </trkpt>
      <trkpt lat="44.99636" lon="6.02761">
        <ele>2220.3999023438</ele>
        <time>2021-03-21T09:57:46.000Z</time>
      </trkpt>
      <trkpt lat="44.99635" lon="6.02761">
        <ele>2220.3999023438</ele>
        <time>2021-03-21T09:57:47.000Z</time>
      </trkpt>
      <trkpt lat="44.99634" lon="6.02762">
        <ele>2220.3999023438</ele>
        <time>2021-03-21T09:57:48.000Z</time>
      </trkpt>
      <trkpt lat="44.99634" lon="6.02763">
        <ele>2220.1999511719</ele>
        <time>2021-03-21T09:57:49.000Z</time>
      </trkpt>
      <trkpt lat="44.99633" lon="6.02763">
        <ele>2220.1999511719</ele>
        <time>2021-03-21T09:57:50.000Z</time>
      </trkpt>
      <trkpt lat="44.99632" lon="6.02763">
        <ele>2220.1999511719</ele>
        <time>2021-03-21T09:57:51.000Z</time>
      </trkpt>
      <trkpt lat="44.99632" lon="6.02763">
        <ele>2220.1999511719</ele>
        <time>2021-03-21T09:57:52.000Z</time>
      </trkpt>
      <trkpt lat="44.99631" lon="6.02764">
        <ele>2220.3999023438</ele>
        <time>2021-03-21T09:57:53.000Z</time>
      </trkpt>
      <trkpt lat="44.9963" lon="6.02765">
        <ele>2220</ele>
        <time>2021-03-21T09:57:54.000Z</time>
      </trkpt>
      <trkpt lat="44.9963" lon="6.02765">
        <ele>2220</ele>
        <time>2021-03-21T09:57:55.000Z</time>
      </trkpt>
      <trkpt lat="44.99629" lon="6.02766">
        <ele>2220</ele>
        <time>2021-03-21T09:57:56.000Z</time>
      </trkpt>
      <trkpt lat="44.99628" lon="6.02766">
        <ele>2219.8000488281</ele>
        <time>2021-03-21T09:57:57.000Z</time>
      </trkpt>
      <trkpt lat="44.99628" lon="6.02767">
        <ele>2219.8000488281</ele>
        <time>2021-03-21T09:57:58.000Z</time>
      </trkpt>
      <trkpt lat="44.99627" lon="6.02768">
        <ele>2219.6000976562</ele>
        <time>2021-03-21T09:57:59.000Z</time>
      </trkpt>
      <trkpt lat="44.99627" lon="6.02768">
        <ele>2219.6000976562</ele>
        <time>2021-03-21T09:58:00.000Z</time>
      </trkpt>
      <trkpt lat="44.99626" lon="6.02769">
        <ele>2219.3999023438</ele>
        <time>2021-03-21T09:58:01.000Z</time>
      </trkpt>
      <trkpt lat="44.99626" lon="6.0277">
        <ele>2219.1999511719</ele>
        <time>2021-03-21T09:58:02.000Z</time>
      </trkpt>
      <trkpt lat="44.99625" lon="6.02771">
        <ele>2219</ele>
        <time>2021-03-21T09:58:03.000Z</time>
      </trkpt>
      <trkpt lat="44.99625" lon="6.02772">
        <ele>2218.8000488281</ele>
        <time>2021-03-21T09:58:04.000Z</time>
      </trkpt>
      <trkpt lat="44.99624" lon="6.02773">
        <ele>2218.6000976562</ele>
        <time>2021-03-21T09:58:05.000Z</time>
      </trkpt>
      <trkpt lat="44.99624" lon="6.02773">
        <ele>2218.3999023438</ele>
        <time>2021-03-21T09:58:06.000Z</time>
      </trkpt>
      <trkpt lat="44.99623" lon="6.02774">
        <ele>2218.3999023438</ele>
        <time>2021-03-21T09:58:07.000Z</time>
      </trkpt>
      <trkpt lat="44.99623" lon="6.02775">
        <ele>2218.1999511719</ele>
        <time>2021-03-21T09:58:08.000Z</time>
      </trkpt>
      <trkpt lat="44.99623" lon="6.02775">
        <ele>2218.3999023438</ele>
        <time>2021-03-21T09:58:09.000Z</time>
      </trkpt>
      <trkpt lat="44.99622" lon="6.02775">
        <ele>2218.1999511719</ele>
        <time>2021-03-21T09:58:10.000Z</time>
      </trkpt>
      <trkpt lat="44.99622" lon="6.02776">
        <ele>2218.1999511719</ele>
        <time>2021-03-21T09:58:11.000Z</time>
      </trkpt>
      <trkpt lat="44.99621" lon="6.02776">
        <ele>2218.1999511719</ele>
        <time>2021-03-21T09:58:12.000Z</time>
      </trkpt>
      <trkpt lat="44.9962" lon="6.02777">
        <ele>2218</ele>
        <time>2021-03-21T09:58:13.000Z</time>
      </trkpt>
      <trkpt lat="44.9962" lon="6.02778">
        <ele>2217.8000488281</ele>
        <time>2021-03-21T09:58:14.000Z</time>
      </trkpt>
      <trkpt lat="44.9962" lon="6.02778">
        <ele>2217.8000488281</ele>
        <time>2021-03-21T09:58:15.000Z</time>
      </trkpt>
      <trkpt lat="44.99619" lon="6.02779">
        <ele>2217.6000976562</ele>
        <time>2021-03-21T09:58:16.000Z</time>
      </trkpt>
      <trkpt lat="44.99618" lon="6.0278">
        <ele>2217.6000976562</ele>
        <time>2021-03-21T09:58:17.000Z</time>
      </trkpt>
      <trkpt lat="44.99617" lon="6.0278">
        <ele>2217.6000976562</ele>
        <time>2021-03-21T09:58:18.000Z</time>
      </trkpt>
      <trkpt lat="44.99617" lon="6.02781">
        <ele>2217.6000976562</ele>
        <time>2021-03-21T09:58:19.000Z</time>
      </trkpt>
      <trkpt lat="44.99616" lon="6.02782">
        <ele>2217.3999023438</ele>
        <time>2021-03-21T09:58:20.000Z</time>
      </trkpt>
      <trkpt lat="44.99615" lon="6.02782">
        <ele>2217.3999023438</ele>
        <time>2021-03-21T09:58:21.000Z</time>
      </trkpt>
      <trkpt lat="44.99615" lon="6.02783">
        <ele>2217.3999023438</ele>
        <time>2021-03-21T09:58:22.000Z</time>
      </trkpt>
      <trkpt lat="44.99614" lon="6.02783">
        <ele>2217.3999023438</ele>
        <time>2021-03-21T09:58:23.000Z</time>
      </trkpt>
      <trkpt lat="44.99614" lon="6.02784">
        <ele>2217.6000976562</ele>
        <time>2021-03-21T09:58:24.000Z</time>
      </trkpt>
      <trkpt lat="44.99613" lon="6.02784">
        <ele>2217.8000488281</ele>
        <time>2021-03-21T09:58:25.000Z</time>
      </trkpt>
      <trkpt lat="44.99612" lon="6.02785">
        <ele>2217.8000488281</ele>
        <time>2021-03-21T09:58:26.000Z</time>
      </trkpt>
      <trkpt lat="44.99612" lon="6.02785">
        <ele>2218</ele>
        <time>2021-03-21T09:58:27.000Z</time>
      </trkpt>
      <trkpt lat="44.99611" lon="6.02785">
        <ele>2218</ele>
        <time>2021-03-21T09:58:28.000Z</time>
      </trkpt>
      <trkpt lat="44.99611" lon="6.02785">
        <ele>2218.1999511719</ele>
        <time>2021-03-21T09:58:29.000Z</time>
      </trkpt>
      <trkpt lat="44.9961" lon="6.02785">
        <ele>2218.3999023438</ele>
        <time>2021-03-21T09:58:30.000Z</time>
      </trkpt>
      <trkpt lat="44.99609" lon="6.02786">
        <ele>2218.3999023438</ele>
        <time>2021-03-21T09:58:31.000Z</time>
      </trkpt>
      <trkpt lat="44.99609" lon="6.02786">
        <ele>2218.6000976562</ele>
        <time>2021-03-21T09:58:32.000Z</time>
      </trkpt>
      <trkpt lat="44.99608" lon="6.02786">
        <ele>2218.8000488281</ele>
        <time>2021-03-21T09:58:33.000Z</time>
      </trkpt>
      <trkpt lat="44.99608" lon="6.02786">
        <ele>2219</ele>
        <time>2021-03-21T09:58:34.000Z</time>
      </trkpt>
      <trkpt lat="44.99607" lon="6.02786">
        <ele>2219.1999511719</ele>
        <time>2021-03-21T09:58:35.000Z</time>
      </trkpt>
      <trkpt lat="44.99607" lon="6.02786">
        <ele>2219.3999023438</ele>
        <time>2021-03-21T09:58:36.000Z</time>
      </trkpt>
      <trkpt lat="44.99606" lon="6.02785">
        <ele>2219.8000488281</ele>
        <time>2021-03-21T09:58:37.000Z</time>
      </trkpt>
      <trkpt lat="44.99605" lon="6.02786">
        <ele>2220</ele>
        <time>2021-03-21T09:58:38.000Z</time>
      </trkpt>
      <trkpt lat="44.99604" lon="6.02785">
        <ele>2220.1999511719</ele>
        <time>2021-03-21T09:58:39.000Z</time>
      </trkpt>
      <trkpt lat="44.99604" lon="6.02785">
        <ele>2220.3999023438</ele>
        <time>2021-03-21T09:58:40.000Z</time>
      </trkpt>
      <trkpt lat="44.99603" lon="6.02785">
        <ele>2220.8000488281</ele>
        <time>2021-03-21T09:58:41.000Z</time>
      </trkpt>
      <trkpt lat="44.99602" lon="6.02785">
        <ele>2221</ele>
        <time>2021-03-21T09:58:42.000Z</time>
      </trkpt>
      <trkpt lat="44.99602" lon="6.02784">
        <ele>2221.3999023438</ele>
        <time>2021-03-21T09:58:43.000Z</time>
      </trkpt>
      <trkpt lat="44.99601" lon="6.02784">
        <ele>2221.6000976562</ele>
        <time>2021-03-21T09:58:44.000Z</time>
      </trkpt>
      <trkpt lat="44.996" lon="6.02783">
        <ele>2222</ele>
        <time>2021-03-21T09:58:45.000Z</time>
      </trkpt>
      <trkpt lat="44.996" lon="6.02783">
        <ele>2222.1999511719</ele>
        <time>2021-03-21T09:58:46.000Z</time>
      </trkpt>
      <trkpt lat="44.99599" lon="6.02783">
        <ele>2222.6000976562</ele>
        <time>2021-03-21T09:58:47.000Z</time>
      </trkpt>
      <trkpt lat="44.99599" lon="6.02782">
        <ele>2222.8000488281</ele>
        <time>2021-03-21T09:58:48.000Z</time>
      </trkpt>
      <trkpt lat="44.99598" lon="6.02781">
        <ele>2223.1999511719</ele>
        <time>2021-03-21T09:58:49.000Z</time>
      </trkpt>
      <trkpt lat="44.99598" lon="6.0278">
        <ele>2223.6000976562</ele>
        <time>2021-03-21T09:58:50.000Z</time>
      </trkpt>
      <trkpt lat="44.99597" lon="6.0278">
        <ele>2223.8000488281</ele>
        <time>2021-03-21T09:58:51.000Z</time>
      </trkpt>
      <trkpt lat="44.99597" lon="6.02779">
        <ele>2224</ele>
        <time>2021-03-21T09:58:52.000Z</time>
      </trkpt>
      <trkpt lat="44.99596" lon="6.02779">
        <ele>2224.1999511719</ele>
        <time>2021-03-21T09:58:53.000Z</time>
      </trkpt>
      <trkpt lat="44.99596" lon="6.02778">
        <ele>2224.6000976562</ele>
        <time>2021-03-21T09:58:54.000Z</time>
      </trkpt>
      <trkpt lat="44.99595" lon="6.02777">
        <ele>2225</ele>
        <time>2021-03-21T09:58:55.000Z</time>
      </trkpt>
      <trkpt lat="44.99595" lon="6.02776">
        <ele>2225.1999511719</ele>
        <time>2021-03-21T09:58:56.000Z</time>
      </trkpt>
      <trkpt lat="44.99594" lon="6.02776">
        <ele>2225.6000976562</ele>
        <time>2021-03-21T09:58:57.000Z</time>
      </trkpt>
      <trkpt lat="44.99594" lon="6.02775">
        <ele>2225.8000488281</ele>
        <time>2021-03-21T09:58:58.000Z</time>
      </trkpt>
      <trkpt lat="44.99593" lon="6.02775">
        <ele>2226.1999511719</ele>
        <time>2021-03-21T09:58:59.000Z</time>
      </trkpt>
      <trkpt lat="44.99592" lon="6.02775">
        <ele>2226.3999023438</ele>
        <time>2021-03-21T09:59:00.000Z</time>
      </trkpt>
      <trkpt lat="44.99592" lon="6.02774">
        <ele>2226.8000488281</ele>
        <time>2021-03-21T09:59:01.000Z</time>
      </trkpt>
      <trkpt lat="44.99591" lon="6.02774">
        <ele>2227</ele>
        <time>2021-03-21T09:59:02.000Z</time>
      </trkpt>
      <trkpt lat="44.9959" lon="6.02774">
        <ele>2227.1999511719</ele>
        <time>2021-03-21T09:59:03.000Z</time>
      </trkpt>
      <trkpt lat="44.9959" lon="6.02773">
        <ele>2227.6000976562</ele>
        <time>2021-03-21T09:59:04.000Z</time>
      </trkpt>
      <trkpt lat="44.99589" lon="6.02773">
        <ele>2227.8000488281</ele>
        <time>2021-03-21T09:59:05.000Z</time>
      </trkpt>
      <trkpt lat="44.99588" lon="6.02772">
        <ele>2228.1999511719</ele>
        <time>2021-03-21T09:59:06.000Z</time>
      </trkpt>
      <trkpt lat="44.99588" lon="6.02772">
        <ele>2228.3999023438</ele>
        <time>2021-03-21T09:59:07.000Z</time>
      </trkpt>
      <trkpt lat="44.99587" lon="6.02772">
        <ele>2228.8000488281</ele>
        <time>2021-03-21T09:59:08.000Z</time>
      </trkpt>
      <trkpt lat="44.99587" lon="6.02771">
        <ele>2229</ele>
        <time>2021-03-21T09:59:09.000Z</time>
      </trkpt>
      <trkpt lat="44.99586" lon="6.02771">
        <ele>2229.1999511719</ele>
        <time>2021-03-21T09:59:10.000Z</time>
      </trkpt>
      <trkpt lat="44.99585" lon="6.02771">
        <ele>2229.6000976562</ele>
        <time>2021-03-21T09:59:11.000Z</time>
      </trkpt>
      <trkpt lat="44.99585" lon="6.02771">
        <ele>2229.6000976562</ele>
        <time>2021-03-21T09:59:12.000Z</time>
      </trkpt>
      <trkpt lat="44.99585" lon="6.02771">
        <ele>2229.8000488281</ele>
        <time>2021-03-21T09:59:13.000Z</time>
      </trkpt>
      <trkpt lat="44.99584" lon="6.0277">
        <ele>2230</ele>
        <time>2021-03-21T09:59:14.000Z</time>
      </trkpt>
      <trkpt lat="44.99584" lon="6.0277">
        <ele>2230.1999511719</ele>
        <time>2021-03-21T09:59:15.000Z</time>
      </trkpt>
      <trkpt lat="44.99583" lon="6.0277">
        <ele>2230.3999023438</ele>
        <time>2021-03-21T09:59:16.000Z</time>
      </trkpt>
      <trkpt lat="44.99583" lon="6.0277">
        <ele>2230.6000976562</ele>
        <time>2021-03-21T09:59:17.000Z</time>
      </trkpt>
      <trkpt lat="44.99582" lon="6.0277">
        <ele>2230.8000488281</ele>
        <time>2021-03-21T09:59:18.000Z</time>
      </trkpt>
      <trkpt lat="44.99582" lon="6.02769">
        <ele>2231</ele>
        <time>2021-03-21T09:59:19.000Z</time>
      </trkpt>
      <trkpt lat="44.99581" lon="6.02769">
        <ele>2231.1999511719</ele>
        <time>2021-03-21T09:59:20.000Z</time>
      </trkpt>
      <trkpt lat="44.9958" lon="6.02769">
        <ele>2231.3999023438</ele>
        <time>2021-03-21T09:59:21.000Z</time>
      </trkpt>
      <trkpt lat="44.9958" lon="6.02769">
        <ele>2231.8000488281</ele>
        <time>2021-03-21T09:59:22.000Z</time>
      </trkpt>
      <trkpt lat="44.99579" lon="6.02768">
        <ele>2232.1999511719</ele>
        <time>2021-03-21T09:59:23.000Z</time>
      </trkpt>
      <trkpt lat="44.99579" lon="6.02767">
        <ele>2232.3999023438</ele>
        <time>2021-03-21T09:59:24.000Z</time>
      </trkpt>
      <trkpt lat="44.99578" lon="6.02767">
        <ele>2232.8000488281</ele>
        <time>2021-03-21T09:59:25.000Z</time>
      </trkpt>
      <trkpt lat="44.99578" lon="6.02766">
        <ele>2233</ele>
        <time>2021-03-21T09:59:26.000Z</time>
      </trkpt>
      <trkpt lat="44.99577" lon="6.02766">
        <ele>2233.3999023438</ele>
        <time>2021-03-21T09:59:27.000Z</time>
      </trkpt>
      <trkpt lat="44.99576" lon="6.02765">
        <ele>2233.6000976562</ele>
        <time>2021-03-21T09:59:28.000Z</time>
      </trkpt>
      <trkpt lat="44.99576" lon="6.02765">
        <ele>2234</ele>
        <time>2021-03-21T09:59:29.000Z</time>
      </trkpt>
      <trkpt lat="44.99575" lon="6.02765">
        <ele>2234.1999511719</ele>
        <time>2021-03-21T09:59:30.000Z</time>
      </trkpt>
      <trkpt lat="44.99574" lon="6.02765">
        <ele>2234.3999023438</ele>
        <time>2021-03-21T09:59:31.000Z</time>
      </trkpt>
      <trkpt lat="44.99574" lon="6.02764">
        <ele>2234.6000976562</ele>
        <time>2021-03-21T09:59:32.000Z</time>
      </trkpt>
      <trkpt lat="44.99574" lon="6.02764">
        <ele>2234.8000488281</ele>
        <time>2021-03-21T09:59:33.000Z</time>
      </trkpt>
      <trkpt lat="44.99573" lon="6.02764">
        <ele>2235</ele>
        <time>2021-03-21T09:59:34.000Z</time>
      </trkpt>
      <trkpt lat="44.99572" lon="6.02764">
        <ele>2235.1999511719</ele>
        <time>2021-03-21T09:59:35.000Z</time>
      </trkpt>
      <trkpt lat="44.99571" lon="6.02764">
        <ele>2235.6000976562</ele>
        <time>2021-03-21T09:59:36.000Z</time>
      </trkpt>
      <trkpt lat="44.9957" lon="6.02765">
        <ele>2235.8000488281</ele>
        <time>2021-03-21T09:59:37.000Z</time>
      </trkpt>
      <trkpt lat="44.9957" lon="6.02764">
        <ele>2236</ele>
        <time>2021-03-21T09:59:38.000Z</time>
      </trkpt>
      <trkpt lat="44.99569" lon="6.02765">
        <ele>2236</ele>
        <time>2021-03-21T09:59:39.000Z</time>
      </trkpt>
      <trkpt lat="44.99568" lon="6.02765">
        <ele>2236</ele>
        <time>2021-03-21T09:59:40.000Z</time>
      </trkpt>
      <trkpt lat="44.99567" lon="6.02765">
        <ele>2236.1999511719</ele>
        <time>2021-03-21T09:59:41.000Z</time>
      </trkpt>
      <trkpt lat="44.99567" lon="6.02765">
        <ele>2236.1999511719</ele>
        <time>2021-03-21T09:59:42.000Z</time>
      </trkpt>
      <trkpt lat="44.99566" lon="6.02765">
        <ele>2236.1999511719</ele>
        <time>2021-03-21T09:59:43.000Z</time>
      </trkpt>
      <trkpt lat="44.99566" lon="6.02765">
        <ele>2236.3999023438</ele>
        <time>2021-03-21T09:59:44.000Z</time>
      </trkpt>
      <trkpt lat="44.99565" lon="6.02766">
        <ele>2236.1999511719</ele>
        <time>2021-03-21T09:59:45.000Z</time>
      </trkpt>
      <trkpt lat="44.99564" lon="6.02766">
        <ele>2236.1999511719</ele>
        <time>2021-03-21T09:59:46.000Z</time>
      </trkpt>
      <trkpt lat="44.99564" lon="6.02766">
        <ele>2236.1999511719</ele>
        <time>2021-03-21T09:59:47.000Z</time>
      </trkpt>
      <trkpt lat="44.99563" lon="6.02767">
        <ele>2236.1999511719</ele>
        <time>2021-03-21T09:59:48.000Z</time>
      </trkpt>
      <trkpt lat="44.99563" lon="6.02767">
        <ele>2236.1999511719</ele>
        <time>2021-03-21T09:59:49.000Z</time>
      </trkpt>
      <trkpt lat="44.99563" lon="6.02768">
        <ele>2236</ele>
        <time>2021-03-21T09:59:50.000Z</time>
      </trkpt>
      <trkpt lat="44.99563" lon="6.02769">
        <ele>2235.8000488281</ele>
        <time>2021-03-21T09:59:51.000Z</time>
      </trkpt>
      <trkpt lat="44.99563" lon="6.0277">
        <ele>2235.6000976562</ele>
        <time>2021-03-21T09:59:52.000Z</time>
      </trkpt>
      <trkpt lat="44.99563" lon="6.0277">
        <ele>2235.6000976562</ele>
        <time>2021-03-21T09:59:53.000Z</time>
      </trkpt>
      <trkpt lat="44.99562" lon="6.0277">
        <ele>2235.6000976562</ele>
        <time>2021-03-21T09:59:54.000Z</time>
      </trkpt>
      <trkpt lat="44.99563" lon="6.0277">
        <ele>2235.6000976562</ele>
        <time>2021-03-21T09:59:55.000Z</time>
      </trkpt>
      <trkpt lat="44.99563" lon="6.0277">
        <ele>2235.3999023438</ele>
        <time>2021-03-21T09:59:56.000Z</time>
      </trkpt>
      <trkpt lat="44.99563" lon="6.02771">
        <ele>2235.3999023438</ele>
        <time>2021-03-21T09:59:57.000Z</time>
      </trkpt>
      <trkpt lat="44.99563" lon="6.02771">
        <ele>2235.3999023438</ele>
        <time>2021-03-21T09:59:58.000Z</time>
      </trkpt>
      <trkpt lat="44.99563" lon="6.02771">
        <ele>2235.3999023438</ele>
        <time>2021-03-21T09:59:59.000Z</time>
      </trkpt>
      <trkpt lat="44.99563" lon="6.02771">
        <ele>2235.3999023438</ele>
        <time>2021-03-21T10:00:00.000Z</time>
      </trkpt>
      <trkpt lat="44.99562" lon="6.02771">
        <ele>2235.3999023438</ele>
        <time>2021-03-21T10:00:01.000Z</time>
      </trkpt>
      <trkpt lat="44.99562" lon="6.02771">
        <ele>2235.3999023438</ele>
        <time>2021-03-21T10:00:02.000Z</time>
      </trkpt>
      <trkpt lat="44.99563" lon="6.02771">
        <ele>2235.3999023438</ele>
        <time>2021-03-21T10:00:03.000Z</time>
      </trkpt>
      <trkpt lat="44.99563" lon="6.02771">
        <ele>2235.3999023438</ele>
        <time>2021-03-21T10:00:04.000Z</time>
      </trkpt>
      <trkpt lat="44.99563" lon="6.02771">
        <ele>2235.3999023438</ele>
        <time>2021-03-21T10:00:05.000Z</time>
      </trkpt>
      <trkpt lat="44.99563" lon="6.02771">
        <ele>2235.3999023438</ele>
        <time>2021-03-21T10:00:06.000Z</time>
      </trkpt>
      <trkpt lat="44.99563" lon="6.02771">
        <ele>2235.3999023438</ele>
        <time>2021-03-21T10:00:07.000Z</time>
      </trkpt>
      <trkpt lat="44.99563" lon="6.02771">
        <ele>2235.3999023438</ele>
        <time>2021-03-21T10:00:08.000Z</time>
      </trkpt>
      <trkpt lat="44.99563" lon="6.02771">
        <ele>2235.3999023438</ele>
        <time>2021-03-21T10:00:09.000Z</time>
      </trkpt>
      <trkpt lat="44.99563" lon="6.0277">
        <ele>2235.6000976562</ele>
        <time>2021-03-21T10:00:10.000Z</time>
      </trkpt>
      <trkpt lat="44.99562" lon="6.0277">
        <ele>2235.6000976562</ele>
        <time>2021-03-21T10:00:11.000Z</time>
      </trkpt>
      <trkpt lat="44.99562" lon="6.0277">
        <ele>2235.6000976562</ele>
        <time>2021-03-21T10:00:12.000Z</time>
      </trkpt>
      <trkpt lat="44.99562" lon="6.0277">
        <ele>2235.6000976562</ele>
        <time>2021-03-21T10:00:13.000Z</time>
      </trkpt>
      <trkpt lat="44.99562" lon="6.0277">
        <ele>2235.6000976562</ele>
        <time>2021-03-21T10:00:14.000Z</time>
      </trkpt>
      <trkpt lat="44.99561" lon="6.0277">
        <ele>2235.8000488281</ele>
        <time>2021-03-21T10:00:15.000Z</time>
      </trkpt>
      <trkpt lat="44.99561" lon="6.0277">
        <ele>2235.8000488281</ele>
        <time>2021-03-21T10:00:16.000Z</time>
      </trkpt>
      <trkpt lat="44.99562" lon="6.02769">
        <ele>2235.8000488281</ele>
        <time>2021-03-21T10:00:17.000Z</time>
      </trkpt>
      <trkpt lat="44.99562" lon="6.02769">
        <ele>2235.8000488281</ele>
        <time>2021-03-21T10:00:18.000Z</time>
      </trkpt>
      <trkpt lat="44.99562" lon="6.02769">
        <ele>2235.8000488281</ele>
        <time>2021-03-21T10:00:19.000Z</time>
      </trkpt>
      <trkpt lat="44.99562" lon="6.02769">
        <ele>2236</ele>
        <time>2021-03-21T10:00:20.000Z</time>
      </trkpt>
      <trkpt lat="44.99562" lon="6.02768">
        <ele>2236</ele>
        <time>2021-03-21T10:00:21.000Z</time>
      </trkpt>
      <trkpt lat="44.99562" lon="6.02768">
        <ele>2236</ele>
        <time>2021-03-21T10:00:22.000Z</time>
      </trkpt>
      <trkpt lat="44.99562" lon="6.02768">
        <ele>2236</ele>
        <time>2021-03-21T10:00:23.000Z</time>
      </trkpt>
      <trkpt lat="44.99562" lon="6.02768">
        <ele>2236</ele>
        <time>2021-03-21T10:00:24.000Z</time>
      </trkpt>
      <trkpt lat="44.99562" lon="6.02768">
        <ele>2236</ele>
        <time>2021-03-21T10:00:25.000Z</time>
      </trkpt>
      <trkpt lat="44.99562" lon="6.02768">
        <ele>2236.1999511719</ele>
        <time>2021-03-21T10:00:26.000Z</time>
      </trkpt>
      <trkpt lat="44.99562" lon="6.02768">
        <ele>2236</ele>
        <time>2021-03-21T10:00:27.000Z</time>
      </trkpt>
      <trkpt lat="44.99562" lon="6.02768">
        <ele>2236</ele>
        <time>2021-03-21T10:00:28.000Z</time>
      </trkpt>
      <trkpt lat="44.99562" lon="6.02768">
        <ele>2236</ele>
        <time>2021-03-21T10:00:29.000Z</time>
      </trkpt>
      <trkpt lat="44.99562" lon="6.02768">
        <ele>2236</ele>
        <time>2021-03-21T10:00:30.000Z</time>
      </trkpt>
      <trkpt lat="44.99563" lon="6.02768">
        <ele>2236</ele>
        <time>2021-03-21T10:00:31.000Z</time>
      </trkpt>
      <trkpt lat="44.99562" lon="6.02768">
        <ele>2236</ele>
        <time>2021-03-21T10:00:32.000Z</time>
      </trkpt>
      <trkpt lat="44.99562" lon="6.02768">
        <ele>2236.1999511719</ele>
        <time>2021-03-21T10:00:33.000Z</time>
      </trkpt>
      <trkpt lat="44.99562" lon="6.02768">
        <ele>2236</ele>
        <time>2021-03-21T10:00:34.000Z</time>
      </trkpt>
      <trkpt lat="44.99562" lon="6.02769">
        <ele>2236</ele>
        <time>2021-03-21T10:00:35.000Z</time>
      </trkpt>
      <trkpt lat="44.99562" lon="6.02768">
        <ele>2236</ele>
        <time>2021-03-21T10:00:36.000Z</time>
      </trkpt>
      <trkpt lat="44.99562" lon="6.02768">
        <ele>2236</ele>
        <time>2021-03-21T10:00:37.000Z</time>
      </trkpt>
      <trkpt lat="44.99563" lon="6.02768">
        <ele>2236</ele>
        <time>2021-03-21T10:00:38.000Z</time>
      </trkpt>
      <trkpt lat="44.99563" lon="6.02768">
        <ele>2236</ele>
        <time>2021-03-21T10:00:39.000Z</time>
      </trkpt>
      <trkpt lat="44.99563" lon="6.02768">
        <ele>2236</ele>
        <time>2021-03-21T10:00:40.000Z</time>
      </trkpt>
      <trkpt lat="44.99563" lon="6.02768">
        <ele>2236.1999511719</ele>
        <time>2021-03-21T10:00:41.000Z</time>
      </trkpt>
      <trkpt lat="44.99563" lon="6.02767">
        <ele>2236.1999511719</ele>
        <time>2021-03-21T10:00:42.000Z</time>
      </trkpt>
      <trkpt lat="44.99563" lon="6.02767">
        <ele>2236.1999511719</ele>
        <time>2021-03-21T10:00:43.000Z</time>
      </trkpt>
      <trkpt lat="44.99562" lon="6.02767">
        <ele>2236.1999511719</ele>
        <time>2021-03-21T10:00:44.000Z</time>
      </trkpt>
      <trkpt lat="44.99563" lon="6.02767">
        <ele>2236.1999511719</ele>
        <time>2021-03-21T10:00:45.000Z</time>
      </trkpt>
      <trkpt lat="44.99563" lon="6.02767">
        <ele>2236.1999511719</ele>
        <time>2021-03-21T10:00:46.000Z</time>
      </trkpt>
      <trkpt lat="44.99563" lon="6.02767">
        <ele>2236.1999511719</ele>
        <time>2021-03-21T10:00:47.000Z</time>
      </trkpt>
      <trkpt lat="44.99563" lon="6.02767">
        <ele>2236.1999511719</ele>
        <time>2021-03-21T10:00:48.000Z</time>
      </trkpt>
      <trkpt lat="44.99563" lon="6.02767">
        <ele>2236.1999511719</ele>
        <time>2021-03-21T10:00:49.000Z</time>
      </trkpt>
      <trkpt lat="44.99563" lon="6.02767">
        <ele>2236.1999511719</ele>
        <time>2021-03-21T10:00:50.000Z</time>
      </trkpt>
      <trkpt lat="44.99563" lon="6.02767">
        <ele>2236.1999511719</ele>
        <time>2021-03-21T10:00:51.000Z</time>
      </trkpt>
      <trkpt lat="44.99563" lon="6.02767">
        <ele>2236.1999511719</ele>
        <time>2021-03-21T10:00:52.000Z</time>
      </trkpt>
      <trkpt lat="44.99563" lon="6.02767">
        <ele>2236.1999511719</ele>
        <time>2021-03-21T10:00:53.000Z</time>
      </trkpt>
      <trkpt lat="44.99563" lon="6.02767">
        <ele>2236.1999511719</ele>
        <time>2021-03-21T10:00:54.000Z</time>
      </trkpt>
      <trkpt lat="44.99563" lon="6.02768">
        <ele>2236</ele>
        <time>2021-03-21T10:00:55.000Z</time>
      </trkpt>
      <trkpt lat="44.99563" lon="6.02768">
        <ele>2236</ele>
        <time>2021-03-21T10:00:56.000Z</time>
      </trkpt>
      <trkpt lat="44.99563" lon="6.02768">
        <ele>2236</ele>
        <time>2021-03-21T10:00:57.000Z</time>
      </trkpt>
      <trkpt lat="44.99562" lon="6.02769">
        <ele>2235.8000488281</ele>
        <time>2021-03-21T10:00:58.000Z</time>
      </trkpt>
      <trkpt lat="44.99562" lon="6.0277">
        <ele>2235.8000488281</ele>
        <time>2021-03-21T10:00:59.000Z</time>
      </trkpt>
      <trkpt lat="44.99561" lon="6.0277">
        <ele>2235.8000488281</ele>
        <time>2021-03-21T10:01:00.000Z</time>
      </trkpt>
      <trkpt lat="44.99561" lon="6.0277">
        <ele>2235.8000488281</ele>
        <time>2021-03-21T10:01:01.000Z</time>
      </trkpt>
      <trkpt lat="44.99561" lon="6.0277">
        <ele>2235.8000488281</ele>
        <time>2021-03-21T10:01:02.000Z</time>
      </trkpt>
      <trkpt lat="44.99561" lon="6.0277">
        <ele>2235.6000976562</ele>
        <time>2021-03-21T10:01:03.000Z</time>
      </trkpt>
      <trkpt lat="44.99561" lon="6.02771">
        <ele>2235.6000976562</ele>
        <time>2021-03-21T10:01:04.000Z</time>
      </trkpt>
      <trkpt lat="44.99561" lon="6.02771">
        <ele>2235.6000976562</ele>
        <time>2021-03-21T10:01:05.000Z</time>
      </trkpt>
      <trkpt lat="44.99561" lon="6.02771">
        <ele>2235.6000976562</ele>
        <time>2021-03-21T10:01:06.000Z</time>
      </trkpt>
      <trkpt lat="44.99561" lon="6.02771">
        <ele>2235.3999023438</ele>
        <time>2021-03-21T10:01:07.000Z</time>
      </trkpt>
      <trkpt lat="44.99561" lon="6.02772">
        <ele>2235.3999023438</ele>
        <time>2021-03-21T10:01:08.000Z</time>
      </trkpt>
      <trkpt lat="44.99561" lon="6.02771">
        <ele>2235.3999023438</ele>
        <time>2021-03-21T10:01:09.000Z</time>
      </trkpt>
      <trkpt lat="44.99561" lon="6.02771">
        <ele>2235.3999023438</ele>
        <time>2021-03-21T10:01:10.000Z</time>
      </trkpt>
      <trkpt lat="44.99562" lon="6.02771">
        <ele>2235.3999023438</ele>
        <time>2021-03-21T10:01:11.000Z</time>
      </trkpt>
      <trkpt lat="44.99562" lon="6.02771">
        <ele>2235.3999023438</ele>
        <time>2021-03-21T10:01:12.000Z</time>
      </trkpt>
      <trkpt lat="44.99563" lon="6.02771">
        <ele>2235.3999023438</ele>
        <time>2021-03-21T10:01:13.000Z</time>
      </trkpt>
      <trkpt lat="44.99563" lon="6.0277">
        <ele>2235.3999023438</ele>
        <time>2021-03-21T10:01:14.000Z</time>
      </trkpt>
      <trkpt lat="44.99563" lon="6.02771">
        <ele>2235.3999023438</ele>
        <time>2021-03-21T10:01:15.000Z</time>
      </trkpt>
      <trkpt lat="44.99562" lon="6.02771">
        <ele>2235.3999023438</ele>
        <time>2021-03-21T10:01:16.000Z</time>
      </trkpt>
      <trkpt lat="44.99562" lon="6.02771">
        <ele>2235.3999023438</ele>
        <time>2021-03-21T10:01:17.000Z</time>
      </trkpt>
      <trkpt lat="44.99562" lon="6.02771">
        <ele>2235.3999023438</ele>
        <time>2021-03-21T10:01:18.000Z</time>
      </trkpt>
      <trkpt lat="44.99562" lon="6.02771">
        <ele>2235.3999023438</ele>
        <time>2021-03-21T10:01:19.000Z</time>
      </trkpt>
      <trkpt lat="44.99562" lon="6.02771">
        <ele>2235.6000976562</ele>
        <time>2021-03-21T10:01:20.000Z</time>
      </trkpt>
      <trkpt lat="44.99562" lon="6.02771">
        <ele>2235.6000976562</ele>
        <time>2021-03-21T10:01:21.000Z</time>
      </trkpt>
      <trkpt lat="44.99562" lon="6.0277">
        <ele>2235.6000976562</ele>
        <time>2021-03-21T10:01:22.000Z</time>
      </trkpt>
      <trkpt lat="44.99562" lon="6.0277">
        <ele>2235.6000976562</ele>
        <time>2021-03-21T10:01:23.000Z</time>
      </trkpt>
      <trkpt lat="44.99562" lon="6.0277">
        <ele>2235.6000976562</ele>
        <time>2021-03-21T10:01:24.000Z</time>
      </trkpt>
      <trkpt lat="44.99562" lon="6.02771">
        <ele>2235.6000976562</ele>
        <time>2021-03-21T10:01:25.000Z</time>
      </trkpt>
      <trkpt lat="44.99562" lon="6.02771">
        <ele>2235.3999023438</ele>
        <time>2021-03-21T10:01:26.000Z</time>
      </trkpt>
      <trkpt lat="44.99562" lon="6.02771">
        <ele>2235.3999023438</ele>
        <time>2021-03-21T10:01:27.000Z</time>
      </trkpt>
      <trkpt lat="44.99562" lon="6.02771">
        <ele>2235.3999023438</ele>
        <time>2021-03-21T10:01:28.000Z</time>
      </trkpt>
      <trkpt lat="44.99562" lon="6.02772">
        <ele>2235.1999511719</ele>
        <time>2021-03-21T10:01:29.000Z</time>
      </trkpt>
      <trkpt lat="44.99562" lon="6.02772">
        <ele>2235.1999511719</ele>
        <time>2021-03-21T10:01:30.000Z</time>
      </trkpt>
      <trkpt lat="44.99562" lon="6.02772">
        <ele>2235.1999511719</ele>
        <time>2021-03-21T10:01:31.000Z</time>
      </trkpt>
      <trkpt lat="44.99562" lon="6.02772">
        <ele>2235.1999511719</ele>
        <time>2021-03-21T10:01:32.000Z</time>
      </trkpt>
      <trkpt lat="44.99562" lon="6.02773">
        <ele>2235</ele>
        <time>2021-03-21T10:01:33.000Z</time>
      </trkpt>
      <trkpt lat="44.99562" lon="6.02773">
        <ele>2235</ele>
        <time>2021-03-21T10:01:34.000Z</time>
      </trkpt>
      <trkpt lat="44.99562" lon="6.02773">
        <ele>2235</ele>
        <time>2021-03-21T10:01:35.000Z</time>
      </trkpt>
      <trkpt lat="44.99562" lon="6.02773">
        <ele>2235</ele>
        <time>2021-03-21T10:01:36.000Z</time>
      </trkpt>
      <trkpt lat="44.99562" lon="6.02773">
        <ele>2235</ele>
        <time>2021-03-21T10:01:37.000Z</time>
      </trkpt>
      <trkpt lat="44.99562" lon="6.02773">
        <ele>2235</ele>
        <time>2021-03-21T10:01:38.000Z</time>
      </trkpt>
      <trkpt lat="44.99562" lon="6.02773">
        <ele>2235</ele>
        <time>2021-03-21T10:01:39.000Z</time>
      </trkpt>
      <trkpt lat="44.99562" lon="6.02773">
        <ele>2235</ele>
        <time>2021-03-21T10:01:40.000Z</time>
      </trkpt>
      <trkpt lat="44.99562" lon="6.02773">
        <ele>2235</ele>
        <time>2021-03-21T10:01:41.000Z</time>
      </trkpt>
      <trkpt lat="44.99562" lon="6.02773">
        <ele>2235</ele>
        <time>2021-03-21T10:01:42.000Z</time>
      </trkpt>
      <trkpt lat="44.99562" lon="6.02773">
        <ele>2235</ele>
        <time>2021-03-21T10:01:43.000Z</time>
      </trkpt>
      <trkpt lat="44.99562" lon="6.02773">
        <ele>2235</ele>
        <time>2021-03-21T10:01:44.000Z</time>
      </trkpt>
      <trkpt lat="44.99562" lon="6.02773">
        <ele>2235</ele>
        <time>2021-03-21T10:01:45.000Z</time>
      </trkpt>
      <trkpt lat="44.99562" lon="6.02773">
        <ele>2235</ele>
        <time>2021-03-21T10:01:46.000Z</time>
      </trkpt>
      <trkpt lat="44.99562" lon="6.02773">
        <ele>2235</ele>
        <time>2021-03-21T10:01:47.000Z</time>
      </trkpt>
      <trkpt lat="44.99562" lon="6.02773">
        <ele>2235</ele>
        <time>2021-03-21T10:01:48.000Z</time>
      </trkpt>
      <trkpt lat="44.99562" lon="6.02773">
        <ele>2235</ele>
        <time>2021-03-21T10:01:49.000Z</time>
      </trkpt>
      <trkpt lat="44.99562" lon="6.02772">
        <ele>2235.1999511719</ele>
        <time>2021-03-21T10:01:50.000Z</time>
      </trkpt>
      <trkpt lat="44.99562" lon="6.02772">
        <ele>2235.1999511719</ele>
        <time>2021-03-21T10:01:51.000Z</time>
      </trkpt>
      <trkpt lat="44.99562" lon="6.02773">
        <ele>2235.1999511719</ele>
        <time>2021-03-21T10:01:52.000Z</time>
      </trkpt>
      <trkpt lat="44.99562" lon="6.02772">
        <ele>2235.1999511719</ele>
        <time>2021-03-21T10:01:53.000Z</time>
      </trkpt>
      <trkpt lat="44.99562" lon="6.02772">
        <ele>2235.1999511719</ele>
        <time>2021-03-21T10:01:54.000Z</time>
      </trkpt>
      <trkpt lat="44.99562" lon="6.02772">
        <ele>2235.1999511719</ele>
        <time>2021-03-21T10:01:55.000Z</time>
      </trkpt>
      <trkpt lat="44.99562" lon="6.02772">
        <ele>2235.1999511719</ele>
        <time>2021-03-21T10:01:56.000Z</time>
      </trkpt>
      <trkpt lat="44.99562" lon="6.02772">
        <ele>2235.1999511719</ele>
        <time>2021-03-21T10:01:57.000Z</time>
      </trkpt>
      <trkpt lat="44.99562" lon="6.02772">
        <ele>2235.3999023438</ele>
        <time>2021-03-21T10:01:58.000Z</time>
      </trkpt>
      <trkpt lat="44.99562" lon="6.02771">
        <ele>2235.3999023438</ele>
        <time>2021-03-21T10:01:59.000Z</time>
      </trkpt>
      <trkpt lat="44.99562" lon="6.02771">
        <ele>2235.6000976562</ele>
        <time>2021-03-21T10:02:00.000Z</time>
      </trkpt>
      <trkpt lat="44.99562" lon="6.0277">
        <ele>2235.6000976562</ele>
        <time>2021-03-21T10:02:01.000Z</time>
      </trkpt>
      <trkpt lat="44.99562" lon="6.0277">
        <ele>2235.6000976562</ele>
        <time>2021-03-21T10:02:02.000Z</time>
      </trkpt>
      <trkpt lat="44.99562" lon="6.0277">
        <ele>2235.8000488281</ele>
        <time>2021-03-21T10:02:03.000Z</time>
      </trkpt>
      <trkpt lat="44.99562" lon="6.0277">
        <ele>2235.8000488281</ele>
        <time>2021-03-21T10:02:04.000Z</time>
      </trkpt>
      <trkpt lat="44.99562" lon="6.0277">
        <ele>2235.8000488281</ele>
        <time>2021-03-21T10:02:05.000Z</time>
      </trkpt>
      <trkpt lat="44.99562" lon="6.0277">
        <ele>2235.8000488281</ele>
        <time>2021-03-21T10:02:06.000Z</time>
      </trkpt>
      <trkpt lat="44.99562" lon="6.0277">
        <ele>2235.6000976562</ele>
        <time>2021-03-21T10:02:07.000Z</time>
      </trkpt>
      <trkpt lat="44.99562" lon="6.0277">
        <ele>2235.6000976562</ele>
        <time>2021-03-21T10:02:08.000Z</time>
      </trkpt>
      <trkpt lat="44.99562" lon="6.0277">
        <ele>2235.6000976562</ele>
        <time>2021-03-21T10:02:09.000Z</time>
      </trkpt>
      <trkpt lat="44.99562" lon="6.0277">
        <ele>2235.6000976562</ele>
        <time>2021-03-21T10:02:10.000Z</time>
      </trkpt>
      <trkpt lat="44.99562" lon="6.02769">
        <ele>2235.8000488281</ele>
        <time>2021-03-21T10:02:11.000Z</time>
      </trkpt>
      <trkpt lat="44.99563" lon="6.02769">
        <ele>2235.8000488281</ele>
        <time>2021-03-21T10:02:12.000Z</time>
      </trkpt>
      <trkpt lat="44.99563" lon="6.02769">
        <ele>2235.8000488281</ele>
        <time>2021-03-21T10:02:13.000Z</time>
      </trkpt>
      <trkpt lat="44.99563" lon="6.02769">
        <ele>2235.8000488281</ele>
        <time>2021-03-21T10:02:14.000Z</time>
      </trkpt>
      <trkpt lat="44.99563" lon="6.02769">
        <ele>2235.8000488281</ele>
        <time>2021-03-21T10:02:15.000Z</time>
      </trkpt>
      <trkpt lat="44.99563" lon="6.02769">
        <ele>2235.8000488281</ele>
        <time>2021-03-21T10:02:16.000Z</time>
      </trkpt>
      <trkpt lat="44.99563" lon="6.0277">
        <ele>2235.6000976562</ele>
        <time>2021-03-21T10:02:17.000Z</time>
      </trkpt>
      <trkpt lat="44.99563" lon="6.0277">
        <ele>2235.6000976562</ele>
        <time>2021-03-21T10:02:18.000Z</time>
      </trkpt>
      <trkpt lat="44.99563" lon="6.0277">
        <ele>2235.6000976562</ele>
        <time>2021-03-21T10:02:19.000Z</time>
      </trkpt>
      <trkpt lat="44.99564" lon="6.0277">
        <ele>2235.6000976562</ele>
        <time>2021-03-21T10:02:20.000Z</time>
      </trkpt>
      <trkpt lat="44.99564" lon="6.02769">
        <ele>2235.6000976562</ele>
        <time>2021-03-21T10:02:21.000Z</time>
      </trkpt>
      <trkpt lat="44.99564" lon="6.02769">
        <ele>2235.6000976562</ele>
        <time>2021-03-21T10:02:22.000Z</time>
      </trkpt>
      <trkpt lat="44.99564" lon="6.02768">
        <ele>2235.8000488281</ele>
        <time>2021-03-21T10:02:23.000Z</time>
      </trkpt>
      <trkpt lat="44.99565" lon="6.02767">
        <ele>2236.1999511719</ele>
        <time>2021-03-21T10:02:24.000Z</time>
      </trkpt>
      <trkpt lat="44.99565" lon="6.02766">
        <ele>2236.1999511719</ele>
        <time>2021-03-21T10:02:25.000Z</time>
      </trkpt>
      <trkpt lat="44.99564" lon="6.02767">
        <ele>2236</ele>
        <time>2021-03-21T10:02:26.000Z</time>
      </trkpt>
      <trkpt lat="44.99564" lon="6.02767">
        <ele>2236</ele>
        <time>2021-03-21T10:02:27.000Z</time>
      </trkpt>
      <trkpt lat="44.99564" lon="6.02768">
        <ele>2235.8000488281</ele>
        <time>2021-03-21T10:02:28.000Z</time>
      </trkpt>
      <trkpt lat="44.99564" lon="6.02769">
        <ele>2235.8000488281</ele>
        <time>2021-03-21T10:02:29.000Z</time>
      </trkpt>
      <trkpt lat="44.99564" lon="6.02769">
        <ele>2235.6000976562</ele>
        <time>2021-03-21T10:02:30.000Z</time>
      </trkpt>
      <trkpt lat="44.99564" lon="6.0277">
        <ele>2235.3999023438</ele>
        <time>2021-03-21T10:02:31.000Z</time>
      </trkpt>
      <trkpt lat="44.99564" lon="6.02771">
        <ele>2235.1999511719</ele>
        <time>2021-03-21T10:02:32.000Z</time>
      </trkpt>
      <trkpt lat="44.99563" lon="6.02772">
        <ele>2235</ele>
        <time>2021-03-21T10:02:33.000Z</time>
      </trkpt>
      <trkpt lat="44.99563" lon="6.02773">
        <ele>2235</ele>
        <time>2021-03-21T10:02:34.000Z</time>
      </trkpt>
      <trkpt lat="44.99563" lon="6.02774">
        <ele>2234.8000488281</ele>
        <time>2021-03-21T10:02:35.000Z</time>
      </trkpt>
      <trkpt lat="44.99562" lon="6.02775">
        <ele>2234.6000976562</ele>
        <time>2021-03-21T10:02:36.000Z</time>
      </trkpt>
      <trkpt lat="44.99562" lon="6.02775">
        <ele>2234.3999023438</ele>
        <time>2021-03-21T10:02:37.000Z</time>
      </trkpt>
      <trkpt lat="44.99562" lon="6.02776">
        <ele>2234.3999023438</ele>
        <time>2021-03-21T10:02:38.000Z</time>
      </trkpt>
      <trkpt lat="44.99561" lon="6.02777">
        <ele>2234.1999511719</ele>
        <time>2021-03-21T10:02:39.000Z</time>
      </trkpt>
      <trkpt lat="44.99562" lon="6.02777">
        <ele>2234.1999511719</ele>
        <time>2021-03-21T10:02:40.000Z</time>
      </trkpt>
      <trkpt lat="44.99562" lon="6.02777">
        <ele>2234.1999511719</ele>
        <time>2021-03-21T10:02:41.000Z</time>
      </trkpt>
      <trkpt lat="44.99562" lon="6.02777">
        <ele>2234.1999511719</ele>
        <time>2021-03-21T10:02:42.000Z</time>
      </trkpt>
      <trkpt lat="44.99562" lon="6.02777">
        <ele>2234.1999511719</ele>
        <time>2021-03-21T10:02:43.000Z</time>
      </trkpt>
      <trkpt lat="44.99563" lon="6.02777">
        <ele>2234.1999511719</ele>
        <time>2021-03-21T10:02:44.000Z</time>
      </trkpt>
      <trkpt lat="44.99562" lon="6.02777">
        <ele>2234</ele>
        <time>2021-03-21T10:02:45.000Z</time>
      </trkpt>
      <trkpt lat="44.99562" lon="6.02777">
        <ele>2234.1999511719</ele>
        <time>2021-03-21T10:02:46.000Z</time>
      </trkpt>
      <trkpt lat="44.99562" lon="6.02777">
        <ele>2234.1999511719</ele>
        <time>2021-03-21T10:02:47.000Z</time>
      </trkpt>
      <trkpt lat="44.99562" lon="6.02777">
        <ele>2234.1999511719</ele>
        <time>2021-03-21T10:02:48.000Z</time>
      </trkpt>
      <trkpt lat="44.99562" lon="6.02777">
        <ele>2234.1999511719</ele>
        <time>2021-03-21T10:02:49.000Z</time>
      </trkpt>
      <trkpt lat="44.99562" lon="6.02777">
        <ele>2234</ele>
        <time>2021-03-21T10:02:50.000Z</time>
      </trkpt>
      <trkpt lat="44.99562" lon="6.02777">
        <ele>2234.1999511719</ele>
        <time>2021-03-21T10:02:51.000Z</time>
      </trkpt>
      <trkpt lat="44.99562" lon="6.02777">
        <ele>2234.1999511719</ele>
        <time>2021-03-21T10:02:52.000Z</time>
      </trkpt>
      <trkpt lat="44.99562" lon="6.02777">
        <ele>2234.1999511719</ele>
        <time>2021-03-21T10:02:53.000Z</time>
      </trkpt>
      <trkpt lat="44.99562" lon="6.02777">
        <ele>2234.1999511719</ele>
        <time>2021-03-21T10:02:54.000Z</time>
      </trkpt>
      <trkpt lat="44.99562" lon="6.02777">
        <ele>2234.1999511719</ele>
        <time>2021-03-21T10:02:55.000Z</time>
      </trkpt>
      <trkpt lat="44.99562" lon="6.02777">
        <ele>2234.1999511719</ele>
        <time>2021-03-21T10:02:56.000Z</time>
      </trkpt>
      <trkpt lat="44.99562" lon="6.02777">
        <ele>2234.1999511719</ele>
        <time>2021-03-21T10:02:57.000Z</time>
      </trkpt>
      <trkpt lat="44.99562" lon="6.02777">
        <ele>2234.1999511719</ele>
        <time>2021-03-21T10:02:58.000Z</time>
      </trkpt>
      <trkpt lat="44.99562" lon="6.02777">
        <ele>2234.1999511719</ele>
        <time>2021-03-21T10:02:59.000Z</time>
      </trkpt>
      <trkpt lat="44.99562" lon="6.02777">
        <ele>2234.1999511719</ele>
        <time>2021-03-21T10:03:00.000Z</time>
      </trkpt>
      <trkpt lat="44.99562" lon="6.02776">
        <ele>2234.3999023438</ele>
        <time>2021-03-21T10:03:01.000Z</time>
      </trkpt>
      <trkpt lat="44.99563" lon="6.02775">
        <ele>2234.3999023438</ele>
        <time>2021-03-21T10:03:02.000Z</time>
      </trkpt>
      <trkpt lat="44.99563" lon="6.02775">
        <ele>2234.3999023438</ele>
        <time>2021-03-21T10:03:03.000Z</time>
      </trkpt>
      <trkpt lat="44.99563" lon="6.02774">
        <ele>2234.6000976562</ele>
        <time>2021-03-21T10:03:04.000Z</time>
      </trkpt>
      <trkpt lat="44.99564" lon="6.02774">
        <ele>2234.6000976562</ele>
        <time>2021-03-21T10:03:05.000Z</time>
      </trkpt>
      <trkpt lat="44.99564" lon="6.02774">
        <ele>2234.6000976562</ele>
        <time>2021-03-21T10:03:06.000Z</time>
      </trkpt>
      <trkpt lat="44.99565" lon="6.02774">
        <ele>2234.6000976562</ele>
        <time>2021-03-21T10:03:07.000Z</time>
      </trkpt>
      <trkpt lat="44.99565" lon="6.02774">
        <ele>2234.3999023438</ele>
        <time>2021-03-21T10:03:08.000Z</time>
      </trkpt>
      <trkpt lat="44.99565" lon="6.02774">
        <ele>2234.3999023438</ele>
        <time>2021-03-21T10:03:09.000Z</time>
      </trkpt>
      <trkpt lat="44.99565" lon="6.02773">
        <ele>2234.6000976562</ele>
        <time>2021-03-21T10:03:10.000Z</time>
      </trkpt>
      <trkpt lat="44.99565" lon="6.02773">
        <ele>2234.6000976562</ele>
        <time>2021-03-21T10:03:11.000Z</time>
      </trkpt>
      <trkpt lat="44.99565" lon="6.02773">
        <ele>2234.6000976562</ele>
        <time>2021-03-21T10:03:12.000Z</time>
      </trkpt>
      <trkpt lat="44.99565" lon="6.02773">
        <ele>2234.6000976562</ele>
        <time>2021-03-21T10:03:13.000Z</time>
      </trkpt>
      <trkpt lat="44.99565" lon="6.02774">
        <ele>2234.6000976562</ele>
        <time>2021-03-21T10:03:14.000Z</time>
      </trkpt>
      <trkpt lat="44.99564" lon="6.02774">
        <ele>2234.3999023438</ele>
        <time>2021-03-21T10:03:15.000Z</time>
      </trkpt>
      <trkpt lat="44.99564" lon="6.02775">
        <ele>2234.3999023438</ele>
        <time>2021-03-21T10:03:16.000Z</time>
      </trkpt>
      <trkpt lat="44.99564" lon="6.02775">
        <ele>2234.3999023438</ele>
        <time>2021-03-21T10:03:17.000Z</time>
      </trkpt>
      <trkpt lat="44.99564" lon="6.02775">
        <ele>2234.3999023438</ele>
        <time>2021-03-21T10:03:18.000Z</time>
      </trkpt>
      <trkpt lat="44.99564" lon="6.02774">
        <ele>2234.6000976562</ele>
        <time>2021-03-21T10:03:19.000Z</time>
      </trkpt>
      <trkpt lat="44.99564" lon="6.02774">
        <ele>2234.6000976562</ele>
        <time>2021-03-21T10:03:20.000Z</time>
      </trkpt>
      <trkpt lat="44.99563" lon="6.02774">
        <ele>2234.6000976562</ele>
        <time>2021-03-21T10:03:21.000Z</time>
      </trkpt>
      <trkpt lat="44.99563" lon="6.02775">
        <ele>2234.3999023438</ele>
        <time>2021-03-21T10:03:22.000Z</time>
      </trkpt>
      <trkpt lat="44.99563" lon="6.02775">
        <ele>2234.3999023438</ele>
        <time>2021-03-21T10:03:23.000Z</time>
      </trkpt>
      <trkpt lat="44.99563" lon="6.02775">
        <ele>2234.3999023438</ele>
        <time>2021-03-21T10:03:24.000Z</time>
      </trkpt>
      <trkpt lat="44.99563" lon="6.02776">
        <ele>2234.3999023438</ele>
        <time>2021-03-21T10:03:25.000Z</time>
      </trkpt>
      <trkpt lat="44.99562" lon="6.02776">
        <ele>2234.3999023438</ele>
        <time>2021-03-21T10:03:26.000Z</time>
      </trkpt>
      <trkpt lat="44.99562" lon="6.02775">
        <ele>2234.3999023438</ele>
        <time>2021-03-21T10:03:27.000Z</time>
      </trkpt>
      <trkpt lat="44.99562" lon="6.02776">
        <ele>2234.3999023438</ele>
        <time>2021-03-21T10:03:28.000Z</time>
      </trkpt>
      <trkpt lat="44.99562" lon="6.02775">
        <ele>2234.6000976562</ele>
        <time>2021-03-21T10:03:29.000Z</time>
      </trkpt>
      <trkpt lat="44.99562" lon="6.02775">
        <ele>2234.6000976562</ele>
        <time>2021-03-21T10:03:30.000Z</time>
      </trkpt>
      <trkpt lat="44.99562" lon="6.02776">
        <ele>2234.3999023438</ele>
        <time>2021-03-21T10:03:31.000Z</time>
      </trkpt>
      <trkpt lat="44.99561" lon="6.02775">
        <ele>2234.6000976562</ele>
        <time>2021-03-21T10:03:32.000Z</time>
      </trkpt>
      <trkpt lat="44.99562" lon="6.02775">
        <ele>2234.6000976562</ele>
        <time>2021-03-21T10:03:33.000Z</time>
      </trkpt>
      <trkpt lat="44.99561" lon="6.02776">
        <ele>2234.3999023438</ele>
        <time>2021-03-21T10:03:34.000Z</time>
      </trkpt>
      <trkpt lat="44.99561" lon="6.02776">
        <ele>2234.3999023438</ele>
        <time>2021-03-21T10:03:35.000Z</time>
      </trkpt>
      <trkpt lat="44.99561" lon="6.02776">
        <ele>2234.3999023438</ele>
        <time>2021-03-21T10:03:36.000Z</time>
      </trkpt>
      <trkpt lat="44.99561" lon="6.02776">
        <ele>2234.6000976562</ele>
        <time>2021-03-21T10:03:37.000Z</time>
      </trkpt>
      <trkpt lat="44.99562" lon="6.02776">
        <ele>2234.3999023438</ele>
        <time>2021-03-21T10:03:38.000Z</time>
      </trkpt>
      <trkpt lat="44.99561" lon="6.02776">
        <ele>2234.3999023438</ele>
        <time>2021-03-21T10:03:39.000Z</time>
      </trkpt>
      <trkpt lat="44.99563" lon="6.02775">
        <ele>2234.6000976562</ele>
        <time>2021-03-21T10:03:40.000Z</time>
      </trkpt>
      <trkpt lat="44.99563" lon="6.02774">
        <ele>2234.6000976562</ele>
        <time>2021-03-21T10:03:41.000Z</time>
      </trkpt>
      <trkpt lat="44.99563" lon="6.02774">
        <ele>2234.8000488281</ele>
        <time>2021-03-21T10:03:42.000Z</time>
      </trkpt>
      <trkpt lat="44.99564" lon="6.02773">
        <ele>2234.8000488281</ele>
        <time>2021-03-21T10:03:43.000Z</time>
      </trkpt>
      <trkpt lat="44.99564" lon="6.02773">
        <ele>2234.8000488281</ele>
        <time>2021-03-21T10:03:44.000Z</time>
      </trkpt>
      <trkpt lat="44.99564" lon="6.02772">
        <ele>2235</ele>
        <time>2021-03-21T10:03:45.000Z</time>
      </trkpt>
      <trkpt lat="44.99564" lon="6.02772">
        <ele>2235</ele>
        <time>2021-03-21T10:03:46.000Z</time>
      </trkpt>
      <trkpt lat="44.99564" lon="6.02772">
        <ele>2235</ele>
        <time>2021-03-21T10:03:47.000Z</time>
      </trkpt>
      <trkpt lat="44.99564" lon="6.02772">
        <ele>2235</ele>
        <time>2021-03-21T10:03:48.000Z</time>
      </trkpt>
      <trkpt lat="44.99564" lon="6.02771">
        <ele>2235</ele>
        <time>2021-03-21T10:03:49.000Z</time>
      </trkpt>
      <trkpt lat="44.99564" lon="6.02771">
        <ele>2235.1999511719</ele>
        <time>2021-03-21T10:03:50.000Z</time>
      </trkpt>
      <trkpt lat="44.99564" lon="6.02771">
        <ele>2235.1999511719</ele>
        <time>2021-03-21T10:03:51.000Z</time>
      </trkpt>
      <trkpt lat="44.99564" lon="6.02772">
        <ele>2235.1999511719</ele>
        <time>2021-03-21T10:03:52.000Z</time>
      </trkpt>
      <trkpt lat="44.99563" lon="6.02771">
        <ele>2235.1999511719</ele>
        <time>2021-03-21T10:03:53.000Z</time>
      </trkpt>
      <trkpt lat="44.99563" lon="6.02771">
        <ele>2235.1999511719</ele>
        <time>2021-03-21T10:03:54.000Z</time>
      </trkpt>
      <trkpt lat="44.99563" lon="6.02771">
        <ele>2235.1999511719</ele>
        <time>2021-03-21T10:03:55.000Z</time>
      </trkpt>
      <trkpt lat="44.99563" lon="6.02771">
        <ele>2235.1999511719</ele>
        <time>2021-03-21T10:03:56.000Z</time>
      </trkpt>
      <trkpt lat="44.99563" lon="6.02771">
        <ele>2235.1999511719</ele>
        <time>2021-03-21T10:03:57.000Z</time>
      </trkpt>
      <trkpt lat="44.99563" lon="6.02771">
        <ele>2235.1999511719</ele>
        <time>2021-03-21T10:03:58.000Z</time>
      </trkpt>
      <trkpt lat="44.99563" lon="6.02771">
        <ele>2235.1999511719</ele>
        <time>2021-03-21T10:03:59.000Z</time>
      </trkpt>
      <trkpt lat="44.99563" lon="6.02771">
        <ele>2235.3999023438</ele>
        <time>2021-03-21T10:04:00.000Z</time>
      </trkpt>
      <trkpt lat="44.99563" lon="6.02771">
        <ele>2235.3999023438</ele>
        <time>2021-03-21T10:04:01.000Z</time>
      </trkpt>
      <trkpt lat="44.99563" lon="6.02771">
        <ele>2235.3999023438</ele>
        <time>2021-03-21T10:04:02.000Z</time>
      </trkpt>
      <trkpt lat="44.99563" lon="6.02771">
        <ele>2235.3999023438</ele>
        <time>2021-03-21T10:04:03.000Z</time>
      </trkpt>
      <trkpt lat="44.99563" lon="6.02771">
        <ele>2235.3999023438</ele>
        <time>2021-03-21T10:04:04.000Z</time>
      </trkpt>
      <trkpt lat="44.99563" lon="6.02771">
        <ele>2235.3999023438</ele>
        <time>2021-03-21T10:04:05.000Z</time>
      </trkpt>
      <trkpt lat="44.99563" lon="6.02771">
        <ele>2235.3999023438</ele>
        <time>2021-03-21T10:04:06.000Z</time>
      </trkpt>
      <trkpt lat="44.99563" lon="6.02771">
        <ele>2235.3999023438</ele>
        <time>2021-03-21T10:04:07.000Z</time>
      </trkpt>
      <trkpt lat="44.99563" lon="6.02771">
        <ele>2235.3999023438</ele>
        <time>2021-03-21T10:04:08.000Z</time>
      </trkpt>
      <trkpt lat="44.99563" lon="6.02771">
        <ele>2235.3999023438</ele>
        <time>2021-03-21T10:04:09.000Z</time>
      </trkpt>
      <trkpt lat="44.99563" lon="6.02771">
        <ele>2235.3999023438</ele>
        <time>2021-03-21T10:04:10.000Z</time>
      </trkpt>
      <trkpt lat="44.99563" lon="6.02771">
        <ele>2235.3999023438</ele>
        <time>2021-03-21T10:04:11.000Z</time>
      </trkpt>
      <trkpt lat="44.99563" lon="6.0277">
        <ele>2235.3999023438</ele>
        <time>2021-03-21T10:04:12.000Z</time>
      </trkpt>
      <trkpt lat="44.99563" lon="6.0277">
        <ele>2235.3999023438</ele>
        <time>2021-03-21T10:04:13.000Z</time>
      </trkpt>
      <trkpt lat="44.99563" lon="6.0277">
        <ele>2235.3999023438</ele>
        <time>2021-03-21T10:04:14.000Z</time>
      </trkpt>
      <trkpt lat="44.99563" lon="6.02771">
        <ele>2235.3999023438</ele>
        <time>2021-03-21T10:04:15.000Z</time>
      </trkpt>
      <trkpt lat="44.99563" lon="6.0277">
        <ele>2235.3999023438</ele>
        <time>2021-03-21T10:04:16.000Z</time>
      </trkpt>
      <trkpt lat="44.99563" lon="6.0277">
        <ele>2235.3999023438</ele>
        <time>2021-03-21T10:04:17.000Z</time>
      </trkpt>
      <trkpt lat="44.99563" lon="6.0277">
        <ele>2235.3999023438</ele>
        <time>2021-03-21T10:04:18.000Z</time>
      </trkpt>
      <trkpt lat="44.99563" lon="6.02771">
        <ele>2235.3999023438</ele>
        <time>2021-03-21T10:04:19.000Z</time>
      </trkpt>
      <trkpt lat="44.99563" lon="6.02772">
        <ele>2235.1999511719</ele>
        <time>2021-03-21T10:04:20.000Z</time>
      </trkpt>
      <trkpt lat="44.99563" lon="6.02772">
        <ele>2235.1999511719</ele>
        <time>2021-03-21T10:04:21.000Z</time>
      </trkpt>
      <trkpt lat="44.99563" lon="6.02772">
        <ele>2235</ele>
        <time>2021-03-21T10:04:22.000Z</time>
      </trkpt>
      <trkpt lat="44.99563" lon="6.02772">
        <ele>2235</ele>
        <time>2021-03-21T10:04:23.000Z</time>
      </trkpt>
      <trkpt lat="44.99563" lon="6.02772">
        <ele>2235</ele>
        <time>2021-03-21T10:04:24.000Z</time>
      </trkpt>
      <trkpt lat="44.99563" lon="6.02772">
        <ele>2235</ele>
        <time>2021-03-21T10:04:25.000Z</time>
      </trkpt>
      <trkpt lat="44.99563" lon="6.02773">
        <ele>2235</ele>
        <time>2021-03-21T10:04:26.000Z</time>
      </trkpt>
      <trkpt lat="44.99563" lon="6.02773">
        <ele>2234.8000488281</ele>
        <time>2021-03-21T10:04:27.000Z</time>
      </trkpt>
      <trkpt lat="44.99563" lon="6.02773">
        <ele>2235</ele>
        <time>2021-03-21T10:04:28.000Z</time>
      </trkpt>
      <trkpt lat="44.99563" lon="6.02773">
        <ele>2235</ele>
        <time>2021-03-21T10:04:29.000Z</time>
      </trkpt>
      <trkpt lat="44.99563" lon="6.02773">
        <ele>2235</ele>
        <time>2021-03-21T10:04:30.000Z</time>
      </trkpt>
      <trkpt lat="44.99563" lon="6.02772">
        <ele>2235</ele>
        <time>2021-03-21T10:04:31.000Z</time>
      </trkpt>
      <trkpt lat="44.99563" lon="6.02772">
        <ele>2235</ele>
        <time>2021-03-21T10:04:32.000Z</time>
      </trkpt>
      <trkpt lat="44.99563" lon="6.02772">
        <ele>2235</ele>
        <time>2021-03-21T10:04:33.000Z</time>
      </trkpt>
      <trkpt lat="44.99563" lon="6.02772">
        <ele>2235.1999511719</ele>
        <time>2021-03-21T10:04:34.000Z</time>
      </trkpt>
      <trkpt lat="44.99563" lon="6.02771">
        <ele>2235.1999511719</ele>
        <time>2021-03-21T10:04:35.000Z</time>
      </trkpt>
      <trkpt lat="44.99563" lon="6.02771">
        <ele>2235.3999023438</ele>
        <time>2021-03-21T10:04:36.000Z</time>
      </trkpt>
      <trkpt lat="44.99563" lon="6.02771">
        <ele>2235.3999023438</ele>
        <time>2021-03-21T10:04:37.000Z</time>
      </trkpt>
      <trkpt lat="44.99563" lon="6.0277">
        <ele>2235.3999023438</ele>
        <time>2021-03-21T10:04:38.000Z</time>
      </trkpt>
      <trkpt lat="44.99563" lon="6.0277">
        <ele>2235.3999023438</ele>
        <time>2021-03-21T10:04:39.000Z</time>
      </trkpt>
      <trkpt lat="44.99563" lon="6.0277">
        <ele>2235.3999023438</ele>
        <time>2021-03-21T10:04:40.000Z</time>
      </trkpt>
      <trkpt lat="44.99562" lon="6.02771">
        <ele>2235.3999023438</ele>
        <time>2021-03-21T10:04:41.000Z</time>
      </trkpt>
      <trkpt lat="44.99562" lon="6.02771">
        <ele>2235.3999023438</ele>
        <time>2021-03-21T10:04:42.000Z</time>
      </trkpt>
      <trkpt lat="44.99562" lon="6.02771">
        <ele>2235.3999023438</ele>
        <time>2021-03-21T10:04:43.000Z</time>
      </trkpt>
      <trkpt lat="44.99562" lon="6.02771">
        <ele>2235.3999023438</ele>
        <time>2021-03-21T10:04:44.000Z</time>
      </trkpt>
      <trkpt lat="44.99562" lon="6.02771">
        <ele>2235.3999023438</ele>
        <time>2021-03-21T10:04:45.000Z</time>
      </trkpt>
      <trkpt lat="44.99562" lon="6.02771">
        <ele>2235.3999023438</ele>
        <time>2021-03-21T10:04:46.000Z</time>
      </trkpt>
      <trkpt lat="44.99562" lon="6.02771">
        <ele>2235.3999023438</ele>
        <time>2021-03-21T10:04:47.000Z</time>
      </trkpt>
      <trkpt lat="44.99562" lon="6.02771">
        <ele>2235.3999023438</ele>
        <time>2021-03-21T10:04:48.000Z</time>
      </trkpt>
      <trkpt lat="44.99562" lon="6.02771">
        <ele>2235.3999023438</ele>
        <time>2021-03-21T10:04:49.000Z</time>
      </trkpt>
      <trkpt lat="44.99562" lon="6.0277">
        <ele>2235.6000976562</ele>
        <time>2021-03-21T10:04:50.000Z</time>
      </trkpt>
      <trkpt lat="44.99562" lon="6.0277">
        <ele>2235.6000976562</ele>
        <time>2021-03-21T10:04:51.000Z</time>
      </trkpt>
      <trkpt lat="44.99562" lon="6.0277">
        <ele>2235.6000976562</ele>
        <time>2021-03-21T10:04:52.000Z</time>
      </trkpt>
      <trkpt lat="44.99562" lon="6.0277">
        <ele>2235.6000976562</ele>
        <time>2021-03-21T10:04:53.000Z</time>
      </trkpt>
      <trkpt lat="44.99562" lon="6.0277">
        <ele>2235.6000976562</ele>
        <time>2021-03-21T10:04:54.000Z</time>
      </trkpt>
      <trkpt lat="44.99562" lon="6.0277">
        <ele>2235.6000976562</ele>
        <time>2021-03-21T10:04:55.000Z</time>
      </trkpt>
      <trkpt lat="44.99562" lon="6.0277">
        <ele>2235.8000488281</ele>
        <time>2021-03-21T10:04:56.000Z</time>
      </trkpt>
      <trkpt lat="44.99562" lon="6.0277">
        <ele>2235.6000976562</ele>
        <time>2021-03-21T10:04:57.000Z</time>
      </trkpt>
      <trkpt lat="44.99562" lon="6.0277">
        <ele>2235.6000976562</ele>
        <time>2021-03-21T10:04:58.000Z</time>
      </trkpt>
      <trkpt lat="44.99563" lon="6.0277">
        <ele>2235.6000976562</ele>
        <time>2021-03-21T10:04:59.000Z</time>
      </trkpt>
      <trkpt lat="44.99563" lon="6.0277">
        <ele>2235.6000976562</ele>
        <time>2021-03-21T10:05:00.000Z</time>
      </trkpt>
      <trkpt lat="44.99563" lon="6.0277">
        <ele>2235.6000976562</ele>
        <time>2021-03-21T10:05:01.000Z</time>
      </trkpt>
      <trkpt lat="44.99563" lon="6.0277">
        <ele>2235.6000976562</ele>
        <time>2021-03-21T10:05:02.000Z</time>
      </trkpt>
      <trkpt lat="44.99563" lon="6.02769">
        <ele>2235.8000488281</ele>
        <time>2021-03-21T10:05:03.000Z</time>
      </trkpt>
      <trkpt lat="44.99563" lon="6.02769">
        <ele>2235.8000488281</ele>
        <time>2021-03-21T10:05:04.000Z</time>
      </trkpt>
      <trkpt lat="44.99563" lon="6.02769">
        <ele>2235.8000488281</ele>
        <time>2021-03-21T10:05:05.000Z</time>
      </trkpt>
      <trkpt lat="44.99563" lon="6.02769">
        <ele>2235.8000488281</ele>
        <time>2021-03-21T10:05:06.000Z</time>
      </trkpt>
      <trkpt lat="44.99563" lon="6.02769">
        <ele>2235.8000488281</ele>
        <time>2021-03-21T10:05:07.000Z</time>
      </trkpt>
      <trkpt lat="44.99563" lon="6.02769">
        <ele>2235.8000488281</ele>
        <time>2021-03-21T10:05:08.000Z</time>
      </trkpt>
      <trkpt lat="44.99563" lon="6.02769">
        <ele>2235.6000976562</ele>
        <time>2021-03-21T10:05:09.000Z</time>
      </trkpt>
      <trkpt lat="44.99563" lon="6.0277">
        <ele>2235.6000976562</ele>
        <time>2021-03-21T10:05:10.000Z</time>
      </trkpt>
      <trkpt lat="44.99563" lon="6.0277">
        <ele>2235.3999023438</ele>
        <time>2021-03-21T10:05:11.000Z</time>
      </trkpt>
      <trkpt lat="44.99563" lon="6.0277">
        <ele>2235.6000976562</ele>
        <time>2021-03-21T10:05:12.000Z</time>
      </trkpt>
      <trkpt lat="44.99562" lon="6.02771">
        <ele>2235.3999023438</ele>
        <time>2021-03-21T10:05:13.000Z</time>
      </trkpt>
      <trkpt lat="44.99562" lon="6.02771">
        <ele>2235.3999023438</ele>
        <time>2021-03-21T10:05:14.000Z</time>
      </trkpt>
      <trkpt lat="44.99562" lon="6.02771">
        <ele>2235.3999023438</ele>
        <time>2021-03-21T10:05:15.000Z</time>
      </trkpt>
      <trkpt lat="44.99562" lon="6.02772">
        <ele>2235.1999511719</ele>
        <time>2021-03-21T10:05:16.000Z</time>
      </trkpt>
      <trkpt lat="44.99562" lon="6.02772">
        <ele>2235.1999511719</ele>
        <time>2021-03-21T10:05:17.000Z</time>
      </trkpt>
      <trkpt lat="44.99562" lon="6.02772">
        <ele>2235.1999511719</ele>
        <time>2021-03-21T10:05:18.000Z</time>
      </trkpt>
      <trkpt lat="44.99562" lon="6.02772">
        <ele>2235.1999511719</ele>
        <time>2021-03-21T10:05:19.000Z</time>
      </trkpt>
      <trkpt lat="44.99562" lon="6.02772">
        <ele>2235.1999511719</ele>
        <time>2021-03-21T10:05:20.000Z</time>
      </trkpt>
      <trkpt lat="44.99562" lon="6.02772">
        <ele>2235.1999511719</ele>
        <time>2021-03-21T10:05:21.000Z</time>
      </trkpt>
      <trkpt lat="44.99562" lon="6.02772">
        <ele>2235.1999511719</ele>
        <time>2021-03-21T10:05:22.000Z</time>
      </trkpt>
      <trkpt lat="44.99561" lon="6.02772">
        <ele>2235.1999511719</ele>
        <time>2021-03-21T10:05:23.000Z</time>
      </trkpt>
      <trkpt lat="44.99562" lon="6.02772">
        <ele>2235.1999511719</ele>
        <time>2021-03-21T10:05:24.000Z</time>
      </trkpt>
      <trkpt lat="44.99562" lon="6.02772">
        <ele>2235.1999511719</ele>
        <time>2021-03-21T10:05:25.000Z</time>
      </trkpt>
      <trkpt lat="44.99561" lon="6.02773">
        <ele>2235.1999511719</ele>
        <time>2021-03-21T10:05:26.000Z</time>
      </trkpt>
      <trkpt lat="44.99562" lon="6.02772">
        <ele>2235.1999511719</ele>
        <time>2021-03-21T10:05:27.000Z</time>
      </trkpt>
      <trkpt lat="44.99562" lon="6.02772">
        <ele>2235.1999511719</ele>
        <time>2021-03-21T10:05:28.000Z</time>
      </trkpt>
      <trkpt lat="44.99562" lon="6.02772">
        <ele>2235.1999511719</ele>
        <time>2021-03-21T10:05:29.000Z</time>
      </trkpt>
      <trkpt lat="44.99562" lon="6.02772">
        <ele>2235.3999023438</ele>
        <time>2021-03-21T10:05:30.000Z</time>
      </trkpt>
      <trkpt lat="44.99562" lon="6.02771">
        <ele>2235.3999023438</ele>
        <time>2021-03-21T10:05:31.000Z</time>
      </trkpt>
      <trkpt lat="44.99562" lon="6.02771">
        <ele>2235.6000976562</ele>
        <time>2021-03-21T10:05:32.000Z</time>
      </trkpt>
      <trkpt lat="44.99562" lon="6.0277">
        <ele>2235.6000976562</ele>
        <time>2021-03-21T10:05:33.000Z</time>
      </trkpt>
      <trkpt lat="44.99562" lon="6.02771">
        <ele>2235.3999023438</ele>
        <time>2021-03-21T10:05:34.000Z</time>
      </trkpt>
      <trkpt lat="44.99562" lon="6.02771">
        <ele>2235.3999023438</ele>
        <time>2021-03-21T10:05:35.000Z</time>
      </trkpt>
      <trkpt lat="44.99562" lon="6.02771">
        <ele>2235.3999023438</ele>
        <time>2021-03-21T10:05:36.000Z</time>
      </trkpt>
      <trkpt lat="44.99562" lon="6.02772">
        <ele>2235.1999511719</ele>
        <time>2021-03-21T10:05:37.000Z</time>
      </trkpt>
      <trkpt lat="44.99562" lon="6.02772">
        <ele>2235.1999511719</ele>
        <time>2021-03-21T10:05:38.000Z</time>
      </trkpt>
      <trkpt lat="44.99562" lon="6.02772">
        <ele>2235.1999511719</ele>
        <time>2021-03-21T10:05:39.000Z</time>
      </trkpt>
      <trkpt lat="44.99562" lon="6.02772">
        <ele>2235.1999511719</ele>
        <time>2021-03-21T10:05:40.000Z</time>
      </trkpt>
      <trkpt lat="44.99562" lon="6.02773">
        <ele>2235</ele>
        <time>2021-03-21T10:05:41.000Z</time>
      </trkpt>
      <trkpt lat="44.99563" lon="6.02773">
        <ele>2235</ele>
        <time>2021-03-21T10:05:42.000Z</time>
      </trkpt>
      <trkpt lat="44.99563" lon="6.02773">
        <ele>2235</ele>
        <time>2021-03-21T10:05:43.000Z</time>
      </trkpt>
      <trkpt lat="44.99563" lon="6.02773">
        <ele>2234.8000488281</ele>
        <time>2021-03-21T10:05:44.000Z</time>
      </trkpt>
      <trkpt lat="44.99563" lon="6.02773">
        <ele>2234.8000488281</ele>
        <time>2021-03-21T10:05:45.000Z</time>
      </trkpt>
      <trkpt lat="44.99563" lon="6.02774">
        <ele>2234.8000488281</ele>
        <time>2021-03-21T10:05:46.000Z</time>
      </trkpt>
      <trkpt lat="44.99563" lon="6.02773">
        <ele>2234.8000488281</ele>
        <time>2021-03-21T10:05:47.000Z</time>
      </trkpt>
      <trkpt lat="44.99563" lon="6.02773">
        <ele>2234.8000488281</ele>
        <time>2021-03-21T10:05:48.000Z</time>
      </trkpt>
      <trkpt lat="44.99563" lon="6.02773">
        <ele>2235</ele>
        <time>2021-03-21T10:05:49.000Z</time>
      </trkpt>
      <trkpt lat="44.99563" lon="6.02772">
        <ele>2235.1999511719</ele>
        <time>2021-03-21T10:05:50.000Z</time>
      </trkpt>
      <trkpt lat="44.99563" lon="6.02771">
        <ele>2235.1999511719</ele>
        <time>2021-03-21T10:05:51.000Z</time>
      </trkpt>
      <trkpt lat="44.99563" lon="6.02771">
        <ele>2235.1999511719</ele>
        <time>2021-03-21T10:05:52.000Z</time>
      </trkpt>
      <trkpt lat="44.99563" lon="6.02772">
        <ele>2235.1999511719</ele>
        <time>2021-03-21T10:05:53.000Z</time>
      </trkpt>
      <trkpt lat="44.99564" lon="6.02771">
        <ele>2235.1999511719</ele>
        <time>2021-03-21T10:05:54.000Z</time>
      </trkpt>
      <trkpt lat="44.99563" lon="6.02772">
        <ele>2235</ele>
        <time>2021-03-21T10:05:55.000Z</time>
      </trkpt>
      <trkpt lat="44.99564" lon="6.02772">
        <ele>2235</ele>
        <time>2021-03-21T10:05:56.000Z</time>
      </trkpt>
      <trkpt lat="44.99563" lon="6.02772">
        <ele>2235</ele>
        <time>2021-03-21T10:05:57.000Z</time>
      </trkpt>
      <trkpt lat="44.99563" lon="6.02773">
        <ele>2235</ele>
        <time>2021-03-21T10:05:58.000Z</time>
      </trkpt>
      <trkpt lat="44.99563" lon="6.02772">
        <ele>2235</ele>
        <time>2021-03-21T10:05:59.000Z</time>
      </trkpt>
      <trkpt lat="44.99563" lon="6.02772">
        <ele>2235</ele>
        <time>2021-03-21T10:06:00.000Z</time>
      </trkpt>
      <trkpt lat="44.99563" lon="6.02773">
        <ele>2235</ele>
        <time>2021-03-21T10:06:01.000Z</time>
      </trkpt>
      <trkpt lat="44.99563" lon="6.02773">
        <ele>2235</ele>
        <time>2021-03-21T10:06:02.000Z</time>
      </trkpt>
      <trkpt lat="44.99563" lon="6.02773">
        <ele>2234.8000488281</ele>
        <time>2021-03-21T10:06:03.000Z</time>
      </trkpt>
      <trkpt lat="44.99563" lon="6.02773">
        <ele>2234.8000488281</ele>
        <time>2021-03-21T10:06:04.000Z</time>
      </trkpt>
      <trkpt lat="44.99563" lon="6.02774">
        <ele>2234.8000488281</ele>
        <time>2021-03-21T10:06:05.000Z</time>
      </trkpt>
      <trkpt lat="44.99563" lon="6.02774">
        <ele>2234.8000488281</ele>
        <time>2021-03-21T10:06:06.000Z</time>
      </trkpt>
      <trkpt lat="44.99563" lon="6.02774">
        <ele>2234.8000488281</ele>
        <time>2021-03-21T10:06:07.000Z</time>
      </trkpt>
      <trkpt lat="44.99563" lon="6.02774">
        <ele>2234.8000488281</ele>
        <time>2021-03-21T10:06:08.000Z</time>
      </trkpt>
      <trkpt lat="44.99562" lon="6.02774">
        <ele>2234.8000488281</ele>
        <time>2021-03-21T10:06:09.000Z</time>
      </trkpt>
      <trkpt lat="44.99562" lon="6.02774">
        <ele>2234.6000976562</ele>
        <time>2021-03-21T10:06:10.000Z</time>
      </trkpt>
      <trkpt lat="44.99562" lon="6.02775">
        <ele>2234.6000976562</ele>
        <time>2021-03-21T10:06:11.000Z</time>
      </trkpt>
      <trkpt lat="44.99562" lon="6.02775">
        <ele>2234.6000976562</ele>
        <time>2021-03-21T10:06:12.000Z</time>
      </trkpt>
      <trkpt lat="44.99562" lon="6.02775">
        <ele>2234.3999023438</ele>
        <time>2021-03-21T10:06:13.000Z</time>
      </trkpt>
      <trkpt lat="44.99562" lon="6.02775">
        <ele>2234.6000976562</ele>
        <time>2021-03-21T10:06:14.000Z</time>
      </trkpt>
      <trkpt lat="44.99562" lon="6.02776">
        <ele>2234.3999023438</ele>
        <time>2021-03-21T10:06:15.000Z</time>
      </trkpt>
      <trkpt lat="44.99562" lon="6.02775">
        <ele>2234.6000976562</ele>
        <time>2021-03-21T10:06:16.000Z</time>
      </trkpt>
      <trkpt lat="44.99562" lon="6.02774">
        <ele>2234.8000488281</ele>
        <time>2021-03-21T10:06:17.000Z</time>
      </trkpt>
      <trkpt lat="44.99562" lon="6.02774">
        <ele>2234.8000488281</ele>
        <time>2021-03-21T10:06:18.000Z</time>
      </trkpt>
      <trkpt lat="44.99562" lon="6.02773">
        <ele>2235</ele>
        <time>2021-03-21T10:06:19.000Z</time>
      </trkpt>
      <trkpt lat="44.99562" lon="6.02774">
        <ele>2234.8000488281</ele>
        <time>2021-03-21T10:06:20.000Z</time>
      </trkpt>
      <trkpt lat="44.99563" lon="6.02774">
        <ele>2234.8000488281</ele>
        <time>2021-03-21T10:06:21.000Z</time>
      </trkpt>
      <trkpt lat="44.99562" lon="6.02774">
        <ele>2234.8000488281</ele>
        <time>2021-03-21T10:06:22.000Z</time>
      </trkpt>
      <trkpt lat="44.99563" lon="6.02773">
        <ele>2235</ele>
        <time>2021-03-21T10:06:23.000Z</time>
      </trkpt>
      <trkpt lat="44.99563" lon="6.02772">
        <ele>2235</ele>
        <time>2021-03-21T10:06:24.000Z</time>
      </trkpt>
      <trkpt lat="44.99564" lon="6.02772">
        <ele>2235</ele>
        <time>2021-03-21T10:06:25.000Z</time>
      </trkpt>
      <trkpt lat="44.99564" lon="6.02772">
        <ele>2235</ele>
        <time>2021-03-21T10:06:26.000Z</time>
      </trkpt>
      <trkpt lat="44.99564" lon="6.02771">
        <ele>2235</ele>
        <time>2021-03-21T10:06:27.000Z</time>
      </trkpt>
      <trkpt lat="44.99564" lon="6.02771">
        <ele>2235.1999511719</ele>
        <time>2021-03-21T10:06:28.000Z</time>
      </trkpt>
      <trkpt lat="44.99564" lon="6.02771">
        <ele>2235.1999511719</ele>
        <time>2021-03-21T10:06:29.000Z</time>
      </trkpt>
      <trkpt lat="44.99564" lon="6.02771">
        <ele>2235.1999511719</ele>
        <time>2021-03-21T10:06:30.000Z</time>
      </trkpt>
      <trkpt lat="44.99563" lon="6.02771">
        <ele>2235.1999511719</ele>
        <time>2021-03-21T10:06:31.000Z</time>
      </trkpt>
      <trkpt lat="44.99563" lon="6.02771">
        <ele>2235.1999511719</ele>
        <time>2021-03-21T10:06:32.000Z</time>
      </trkpt>
      <trkpt lat="44.99563" lon="6.02772">
        <ele>2235.1999511719</ele>
        <time>2021-03-21T10:06:33.000Z</time>
      </trkpt>
      <trkpt lat="44.99563" lon="6.02772">
        <ele>2235.1999511719</ele>
        <time>2021-03-21T10:06:34.000Z</time>
      </trkpt>
      <trkpt lat="44.99563" lon="6.02772">
        <ele>2235.1999511719</ele>
        <time>2021-03-21T10:06:35.000Z</time>
      </trkpt>
      <trkpt lat="44.99563" lon="6.02772">
        <ele>2235.1999511719</ele>
        <time>2021-03-21T10:06:36.000Z</time>
      </trkpt>
      <trkpt lat="44.99562" lon="6.02772">
        <ele>2235.1999511719</ele>
        <time>2021-03-21T10:06:37.000Z</time>
      </trkpt>
      <trkpt lat="44.99562" lon="6.02772">
        <ele>2235.1999511719</ele>
        <time>2021-03-21T10:06:38.000Z</time>
      </trkpt>
      <trkpt lat="44.99561" lon="6.02772">
        <ele>2235.1999511719</ele>
        <time>2021-03-21T10:06:39.000Z</time>
      </trkpt>
      <trkpt lat="44.99561" lon="6.02773">
        <ele>2235.1999511719</ele>
        <time>2021-03-21T10:06:40.000Z</time>
      </trkpt>
      <trkpt lat="44.99561" lon="6.02773">
        <ele>2235.1999511719</ele>
        <time>2021-03-21T10:06:41.000Z</time>
      </trkpt>
      <trkpt lat="44.9956" lon="6.02773">
        <ele>2235.1999511719</ele>
        <time>2021-03-21T10:06:42.000Z</time>
      </trkpt>
      <trkpt lat="44.99559" lon="6.02773">
        <ele>2235.3999023438</ele>
        <time>2021-03-21T10:06:43.000Z</time>
      </trkpt>
      <trkpt lat="44.99559" lon="6.02773">
        <ele>2235.3999023438</ele>
        <time>2021-03-21T10:06:44.000Z</time>
      </trkpt>
      <trkpt lat="44.99558" lon="6.02773">
        <ele>2235.3999023438</ele>
        <time>2021-03-21T10:06:45.000Z</time>
      </trkpt>
      <trkpt lat="44.99558" lon="6.02773">
        <ele>2235.3999023438</ele>
        <time>2021-03-21T10:06:46.000Z</time>
      </trkpt>
      <trkpt lat="44.99557" lon="6.02773">
        <ele>2235.3999023438</ele>
        <time>2021-03-21T10:06:47.000Z</time>
      </trkpt>
      <trkpt lat="44.99556" lon="6.02773">
        <ele>2235.6000976562</ele>
        <time>2021-03-21T10:06:48.000Z</time>
      </trkpt>
      <trkpt lat="44.99556" lon="6.02773">
        <ele>2235.8000488281</ele>
        <time>2021-03-21T10:06:49.000Z</time>
      </trkpt>
      <trkpt lat="44.99555" lon="6.02773">
        <ele>2235.8000488281</ele>
        <time>2021-03-21T10:06:50.000Z</time>
      </trkpt>
      <trkpt lat="44.99555" lon="6.02772">
        <ele>2236</ele>
        <time>2021-03-21T10:06:51.000Z</time>
      </trkpt>
      <trkpt lat="44.99554" lon="6.02772">
        <ele>2236</ele>
        <time>2021-03-21T10:06:52.000Z</time>
      </trkpt>
      <trkpt lat="44.99554" lon="6.02772">
        <ele>2236.1999511719</ele>
        <time>2021-03-21T10:06:53.000Z</time>
      </trkpt>
      <trkpt lat="44.99553" lon="6.02772">
        <ele>2236.1999511719</ele>
        <time>2021-03-21T10:06:54.000Z</time>
      </trkpt>
      <trkpt lat="44.99552" lon="6.02771">
        <ele>2236.3999023438</ele>
        <time>2021-03-21T10:06:55.000Z</time>
      </trkpt>
      <trkpt lat="44.99551" lon="6.02771">
        <ele>2236.6000976562</ele>
        <time>2021-03-21T10:06:56.000Z</time>
      </trkpt>
      <trkpt lat="44.99551" lon="6.02771">
        <ele>2236.6000976562</ele>
        <time>2021-03-21T10:06:57.000Z</time>
      </trkpt>
      <trkpt lat="44.9955" lon="6.02771">
        <ele>2236.8000488281</ele>
        <time>2021-03-21T10:06:58.000Z</time>
      </trkpt>
      <trkpt lat="44.99549" lon="6.02771">
        <ele>2236.8000488281</ele>
        <time>2021-03-21T10:06:59.000Z</time>
      </trkpt>
      <trkpt lat="44.99548" lon="6.02771">
        <ele>2237</ele>
        <time>2021-03-21T10:07:00.000Z</time>
      </trkpt>
      <trkpt lat="44.99548" lon="6.0277">
        <ele>2237.1999511719</ele>
        <time>2021-03-21T10:07:01.000Z</time>
      </trkpt>
      <trkpt lat="44.99547" lon="6.0277">
        <ele>2237.1999511719</ele>
        <time>2021-03-21T10:07:02.000Z</time>
      </trkpt>
      <trkpt lat="44.99546" lon="6.0277">
        <ele>2237.3999023438</ele>
        <time>2021-03-21T10:07:03.000Z</time>
      </trkpt>
      <trkpt lat="44.99546" lon="6.0277">
        <ele>2237.3999023438</ele>
        <time>2021-03-21T10:07:04.000Z</time>
      </trkpt>
      <trkpt lat="44.99545" lon="6.0277">
        <ele>2237.6000976562</ele>
        <time>2021-03-21T10:07:05.000Z</time>
      </trkpt>
      <trkpt lat="44.99545" lon="6.0277">
        <ele>2237.6000976562</ele>
        <time>2021-03-21T10:07:06.000Z</time>
      </trkpt>
      <trkpt lat="44.99544" lon="6.0277">
        <ele>2237.8000488281</ele>
        <time>2021-03-21T10:07:07.000Z</time>
      </trkpt>
      <trkpt lat="44.99543" lon="6.02769">
        <ele>2238</ele>
        <time>2021-03-21T10:07:08.000Z</time>
      </trkpt>
      <trkpt lat="44.99543" lon="6.02769">
        <ele>2238</ele>
        <time>2021-03-21T10:07:09.000Z</time>
      </trkpt>
      <trkpt lat="44.99542" lon="6.02769">
        <ele>2238.1999511719</ele>
        <time>2021-03-21T10:07:10.000Z</time>
      </trkpt>
      <trkpt lat="44.99541" lon="6.02769">
        <ele>2238.3999023438</ele>
        <time>2021-03-21T10:07:11.000Z</time>
      </trkpt>
      <trkpt lat="44.9954" lon="6.02769">
        <ele>2238.3999023438</ele>
        <time>2021-03-21T10:07:12.000Z</time>
      </trkpt>
      <trkpt lat="44.9954" lon="6.02769">
        <ele>2238.6000976562</ele>
        <time>2021-03-21T10:07:13.000Z</time>
      </trkpt>
      <trkpt lat="44.99539" lon="6.02769">
        <ele>2238.8000488281</ele>
        <time>2021-03-21T10:07:14.000Z</time>
      </trkpt>
      <trkpt lat="44.99538" lon="6.02769">
        <ele>2238.8000488281</ele>
        <time>2021-03-21T10:07:15.000Z</time>
      </trkpt>
      <trkpt lat="44.99537" lon="6.02769">
        <ele>2239</ele>
        <time>2021-03-21T10:07:16.000Z</time>
      </trkpt>
      <trkpt lat="44.99537" lon="6.02769">
        <ele>2239.1999511719</ele>
        <time>2021-03-21T10:07:17.000Z</time>
      </trkpt>
      <trkpt lat="44.99536" lon="6.0277">
        <ele>2239.3999023438</ele>
        <time>2021-03-21T10:07:18.000Z</time>
      </trkpt>
      <trkpt lat="44.99535" lon="6.0277">
        <ele>2239.3999023438</ele>
        <time>2021-03-21T10:07:19.000Z</time>
      </trkpt>
      <trkpt lat="44.99534" lon="6.0277">
        <ele>2239.6000976562</ele>
        <time>2021-03-21T10:07:20.000Z</time>
      </trkpt>
      <trkpt lat="44.99533" lon="6.0277">
        <ele>2239.8000488281</ele>
        <time>2021-03-21T10:07:21.000Z</time>
      </trkpt>
      <trkpt lat="44.99532" lon="6.02771">
        <ele>2239.8000488281</ele>
        <time>2021-03-21T10:07:22.000Z</time>
      </trkpt>
      <trkpt lat="44.99531" lon="6.02772">
        <ele>2240</ele>
        <time>2021-03-21T10:07:23.000Z</time>
      </trkpt>
      <trkpt lat="44.9953" lon="6.02772">
        <ele>2240.1999511719</ele>
        <time>2021-03-21T10:07:24.000Z</time>
      </trkpt>
      <trkpt lat="44.9953" lon="6.02772">
        <ele>2240.3999023438</ele>
        <time>2021-03-21T10:07:25.000Z</time>
      </trkpt>
      <trkpt lat="44.99529" lon="6.02772">
        <ele>2240.3999023438</ele>
        <time>2021-03-21T10:07:26.000Z</time>
      </trkpt>
      <trkpt lat="44.99528" lon="6.02773">
        <ele>2240.6000976562</ele>
        <time>2021-03-21T10:07:27.000Z</time>
      </trkpt>
      <trkpt lat="44.99527" lon="6.02773">
        <ele>2240.6000976562</ele>
        <time>2021-03-21T10:07:28.000Z</time>
      </trkpt>
      <trkpt lat="44.99526" lon="6.02774">
        <ele>2240.8000488281</ele>
        <time>2021-03-21T10:07:29.000Z</time>
      </trkpt>
      <trkpt lat="44.99525" lon="6.02774">
        <ele>2241</ele>
        <time>2021-03-21T10:07:30.000Z</time>
      </trkpt>
      <trkpt lat="44.99524" lon="6.02773">
        <ele>2241.1999511719</ele>
        <time>2021-03-21T10:07:31.000Z</time>
      </trkpt>
      <trkpt lat="44.99523" lon="6.02773">
        <ele>2241.3999023438</ele>
        <time>2021-03-21T10:07:32.000Z</time>
      </trkpt>
      <trkpt lat="44.99523" lon="6.02773">
        <ele>2241.6000976562</ele>
        <time>2021-03-21T10:07:33.000Z</time>
      </trkpt>
      <trkpt lat="44.99522" lon="6.02773">
        <ele>2241.6000976562</ele>
        <time>2021-03-21T10:07:34.000Z</time>
      </trkpt>
      <trkpt lat="44.99521" lon="6.02774">
        <ele>2241.8000488281</ele>
        <time>2021-03-21T10:07:35.000Z</time>
      </trkpt>
      <trkpt lat="44.9952" lon="6.02774">
        <ele>2241.8000488281</ele>
        <time>2021-03-21T10:07:36.000Z</time>
      </trkpt>
      <trkpt lat="44.99519" lon="6.02774">
        <ele>2242</ele>
        <time>2021-03-21T10:07:37.000Z</time>
      </trkpt>
      <trkpt lat="44.99519" lon="6.02774">
        <ele>2242</ele>
        <time>2021-03-21T10:07:38.000Z</time>
      </trkpt>
      <trkpt lat="44.99518" lon="6.02773">
        <ele>2242.1999511719</ele>
        <time>2021-03-21T10:07:39.000Z</time>
      </trkpt>
      <trkpt lat="44.99517" lon="6.02773">
        <ele>2242.3999023438</ele>
        <time>2021-03-21T10:07:40.000Z</time>
      </trkpt>
      <trkpt lat="44.99516" lon="6.02773">
        <ele>2242.3999023438</ele>
        <time>2021-03-21T10:07:41.000Z</time>
      </trkpt>
      <trkpt lat="44.99515" lon="6.02773">
        <ele>2242.8000488281</ele>
        <time>2021-03-21T10:07:42.000Z</time>
      </trkpt>
      <trkpt lat="44.99515" lon="6.02773">
        <ele>2242.8000488281</ele>
        <time>2021-03-21T10:07:43.000Z</time>
      </trkpt>
      <trkpt lat="44.99514" lon="6.02772">
        <ele>2243.1999511719</ele>
        <time>2021-03-21T10:07:44.000Z</time>
      </trkpt>
      <trkpt lat="44.99514" lon="6.02771">
        <ele>2243.3999023438</ele>
        <time>2021-03-21T10:07:45.000Z</time>
      </trkpt>
      <trkpt lat="44.99513" lon="6.02771">
        <ele>2243.6000976562</ele>
        <time>2021-03-21T10:07:46.000Z</time>
      </trkpt>
      <trkpt lat="44.99512" lon="6.0277">
        <ele>2244</ele>
        <time>2021-03-21T10:07:47.000Z</time>
      </trkpt>
      <trkpt lat="44.99512" lon="6.0277">
        <ele>2244.1999511719</ele>
        <time>2021-03-21T10:07:48.000Z</time>
      </trkpt>
      <trkpt lat="44.99511" lon="6.0277">
        <ele>2244.6000976562</ele>
        <time>2021-03-21T10:07:49.000Z</time>
      </trkpt>
      <trkpt lat="44.9951" lon="6.0277">
        <ele>2245</ele>
        <time>2021-03-21T10:07:50.000Z</time>
      </trkpt>
      <trkpt lat="44.9951" lon="6.02769">
        <ele>2245.3999023438</ele>
        <time>2021-03-21T10:07:51.000Z</time>
      </trkpt>
      <trkpt lat="44.99509" lon="6.02769">
        <ele>2245.6000976562</ele>
        <time>2021-03-21T10:07:52.000Z</time>
      </trkpt>
      <trkpt lat="44.99509" lon="6.02769">
        <ele>2245.8000488281</ele>
        <time>2021-03-21T10:07:53.000Z</time>
      </trkpt>
      <trkpt lat="44.99508" lon="6.02768">
        <ele>2246.1999511719</ele>
        <time>2021-03-21T10:07:54.000Z</time>
      </trkpt>
      <trkpt lat="44.99507" lon="6.02768">
        <ele>2246.3999023438</ele>
        <time>2021-03-21T10:07:55.000Z</time>
      </trkpt>
      <trkpt lat="44.99507" lon="6.02768">
        <ele>2246.8000488281</ele>
        <time>2021-03-21T10:07:56.000Z</time>
      </trkpt>
      <trkpt lat="44.99506" lon="6.02768">
        <ele>2247</ele>
        <time>2021-03-21T10:07:57.000Z</time>
      </trkpt>
      <trkpt lat="44.99505" lon="6.02768">
        <ele>2247.1999511719</ele>
        <time>2021-03-21T10:07:58.000Z</time>
      </trkpt>
      <trkpt lat="44.99505" lon="6.02767">
        <ele>2247.6000976562</ele>
        <time>2021-03-21T10:07:59.000Z</time>
      </trkpt>
      <trkpt lat="44.99504" lon="6.02768">
        <ele>2247.8000488281</ele>
        <time>2021-03-21T10:08:00.000Z</time>
      </trkpt>
      <trkpt lat="44.99503" lon="6.02768">
        <ele>2248</ele>
        <time>2021-03-21T10:08:01.000Z</time>
      </trkpt>
      <trkpt lat="44.99503" lon="6.02768">
        <ele>2248.1999511719</ele>
        <time>2021-03-21T10:08:02.000Z</time>
      </trkpt>
      <trkpt lat="44.99502" lon="6.02767">
        <ele>2248.6000976562</ele>
        <time>2021-03-21T10:08:03.000Z</time>
      </trkpt>
      <trkpt lat="44.99502" lon="6.02767">
        <ele>2248.8000488281</ele>
        <time>2021-03-21T10:08:04.000Z</time>
      </trkpt>
      <trkpt lat="44.99501" lon="6.02767">
        <ele>2249</ele>
        <time>2021-03-21T10:08:05.000Z</time>
      </trkpt>
      <trkpt lat="44.995" lon="6.02766">
        <ele>2249.6000976562</ele>
        <time>2021-03-21T10:08:06.000Z</time>
      </trkpt>
      <trkpt lat="44.99499" lon="6.02766">
        <ele>2249.8000488281</ele>
        <time>2021-03-21T10:08:07.000Z</time>
      </trkpt>
      <trkpt lat="44.99498" lon="6.02766">
        <ele>2250.1999511719</ele>
        <time>2021-03-21T10:08:08.000Z</time>
      </trkpt>
      <trkpt lat="44.99498" lon="6.02766">
        <ele>2250.6000976562</ele>
        <time>2021-03-21T10:08:09.000Z</time>
      </trkpt>
      <trkpt lat="44.99497" lon="6.02766">
        <ele>2250.6000976562</ele>
        <time>2021-03-21T10:08:10.000Z</time>
      </trkpt>
      <trkpt lat="44.99496" lon="6.02765">
        <ele>2251.1999511719</ele>
        <time>2021-03-21T10:08:11.000Z</time>
      </trkpt>
      <trkpt lat="44.99496" lon="6.02765">
        <ele>2251.3999023438</ele>
        <time>2021-03-21T10:08:12.000Z</time>
      </trkpt>
      <trkpt lat="44.99494" lon="6.02765">
        <ele>2251.8000488281</ele>
        <time>2021-03-21T10:08:13.000Z</time>
      </trkpt>
      <trkpt lat="44.99494" lon="6.02764">
        <ele>2252.1999511719</ele>
        <time>2021-03-21T10:08:14.000Z</time>
      </trkpt>
      <trkpt lat="44.99494" lon="6.02764">
        <ele>2252.3999023438</ele>
        <time>2021-03-21T10:08:15.000Z</time>
      </trkpt>
      <trkpt lat="44.99493" lon="6.02764">
        <ele>2252.8000488281</ele>
        <time>2021-03-21T10:08:16.000Z</time>
      </trkpt>
      <trkpt lat="44.99492" lon="6.02764">
        <ele>2253</ele>
        <time>2021-03-21T10:08:17.000Z</time>
      </trkpt>
      <trkpt lat="44.99491" lon="6.02764">
        <ele>2253.1999511719</ele>
        <time>2021-03-21T10:08:18.000Z</time>
      </trkpt>
      <trkpt lat="44.9949" lon="6.02764">
        <ele>2253.6000976562</ele>
        <time>2021-03-21T10:08:19.000Z</time>
      </trkpt>
      <trkpt lat="44.99489" lon="6.02764">
        <ele>2254</ele>
        <time>2021-03-21T10:08:20.000Z</time>
      </trkpt>
      <trkpt lat="44.99488" lon="6.02764">
        <ele>2254.3999023438</ele>
        <time>2021-03-21T10:08:21.000Z</time>
      </trkpt>
      <trkpt lat="44.99487" lon="6.02764">
        <ele>2254.6000976562</ele>
        <time>2021-03-21T10:08:22.000Z</time>
      </trkpt>
      <trkpt lat="44.99486" lon="6.02764">
        <ele>2255.1999511719</ele>
        <time>2021-03-21T10:08:23.000Z</time>
      </trkpt>
      <trkpt lat="44.99485" lon="6.02764">
        <ele>2255.1999511719</ele>
        <time>2021-03-21T10:08:24.000Z</time>
      </trkpt>
      <trkpt lat="44.99484" lon="6.02764">
        <ele>2255.3999023438</ele>
        <time>2021-03-21T10:08:25.000Z</time>
      </trkpt>
      <trkpt lat="44.99483" lon="6.02764">
        <ele>2255.6000976562</ele>
        <time>2021-03-21T10:08:26.000Z</time>
      </trkpt>
      <trkpt lat="44.99483" lon="6.02764">
        <ele>2255.6000976562</ele>
        <time>2021-03-21T10:08:27.000Z</time>
      </trkpt>
      <trkpt lat="44.99482" lon="6.02764">
        <ele>2255.8000488281</ele>
        <time>2021-03-21T10:08:28.000Z</time>
      </trkpt>
      <trkpt lat="44.99481" lon="6.02764">
        <ele>2255.8000488281</ele>
        <time>2021-03-21T10:08:29.000Z</time>
      </trkpt>
      <trkpt lat="44.9948" lon="6.02765">
        <ele>2255.8000488281</ele>
        <time>2021-03-21T10:08:30.000Z</time>
      </trkpt>
      <trkpt lat="44.9948" lon="6.02764">
        <ele>2256.1999511719</ele>
        <time>2021-03-21T10:08:31.000Z</time>
      </trkpt>
      <trkpt lat="44.99479" lon="6.02764">
        <ele>2256.1999511719</ele>
        <time>2021-03-21T10:08:32.000Z</time>
      </trkpt>
      <trkpt lat="44.99478" lon="6.02763">
        <ele>2256.3999023438</ele>
        <time>2021-03-21T10:08:33.000Z</time>
      </trkpt>
      <trkpt lat="44.99477" lon="6.02763">
        <ele>2256.6000976562</ele>
        <time>2021-03-21T10:08:34.000Z</time>
      </trkpt>
      <trkpt lat="44.99477" lon="6.02764">
        <ele>2256.8000488281</ele>
        <time>2021-03-21T10:08:35.000Z</time>
      </trkpt>
      <trkpt lat="44.99476" lon="6.02763">
        <ele>2257</ele>
        <time>2021-03-21T10:08:36.000Z</time>
      </trkpt>
      <trkpt lat="44.99475" lon="6.02764">
        <ele>2256.8000488281</ele>
        <time>2021-03-21T10:08:37.000Z</time>
      </trkpt>
      <trkpt lat="44.99474" lon="6.02764">
        <ele>2256.8000488281</ele>
        <time>2021-03-21T10:08:38.000Z</time>
      </trkpt>
      <trkpt lat="44.99473" lon="6.02764">
        <ele>2257</ele>
        <time>2021-03-21T10:08:39.000Z</time>
      </trkpt>
      <trkpt lat="44.99473" lon="6.02764">
        <ele>2257</ele>
        <time>2021-03-21T10:08:40.000Z</time>
      </trkpt>
      <trkpt lat="44.99472" lon="6.02764">
        <ele>2257.1999511719</ele>
        <time>2021-03-21T10:08:41.000Z</time>
      </trkpt>
      <trkpt lat="44.99471" lon="6.02765">
        <ele>2257.1999511719</ele>
        <time>2021-03-21T10:08:42.000Z</time>
      </trkpt>
      <trkpt lat="44.99471" lon="6.02764">
        <ele>2257.1999511719</ele>
        <time>2021-03-21T10:08:43.000Z</time>
      </trkpt>
      <trkpt lat="44.9947" lon="6.02765">
        <ele>2257.3999023438</ele>
        <time>2021-03-21T10:08:44.000Z</time>
      </trkpt>
      <trkpt lat="44.99469" lon="6.02765">
        <ele>2257.3999023438</ele>
        <time>2021-03-21T10:08:45.000Z</time>
      </trkpt>
      <trkpt lat="44.99468" lon="6.02765">
        <ele>2257.3999023438</ele>
        <time>2021-03-21T10:08:46.000Z</time>
      </trkpt>
      <trkpt lat="44.99467" lon="6.02766">
        <ele>2257.3999023438</ele>
        <time>2021-03-21T10:08:47.000Z</time>
      </trkpt>
      <trkpt lat="44.99467" lon="6.02765">
        <ele>2257.6000976562</ele>
        <time>2021-03-21T10:08:48.000Z</time>
      </trkpt>
      <trkpt lat="44.99466" lon="6.02765">
        <ele>2257.6000976562</ele>
        <time>2021-03-21T10:08:49.000Z</time>
      </trkpt>
      <trkpt lat="44.99466" lon="6.02766">
        <ele>2257.6000976562</ele>
        <time>2021-03-21T10:08:50.000Z</time>
      </trkpt>
      <trkpt lat="44.99465" lon="6.02766">
        <ele>2257.6000976562</ele>
        <time>2021-03-21T10:08:51.000Z</time>
      </trkpt>
      <trkpt lat="44.99464" lon="6.02767">
        <ele>2257.6000976562</ele>
        <time>2021-03-21T10:08:52.000Z</time>
      </trkpt>
      <trkpt lat="44.99463" lon="6.02767">
        <ele>2257.6000976562</ele>
        <time>2021-03-21T10:08:53.000Z</time>
      </trkpt>
      <trkpt lat="44.99462" lon="6.02767">
        <ele>2257.6000976562</ele>
        <time>2021-03-21T10:08:54.000Z</time>
      </trkpt>
      <trkpt lat="44.99461" lon="6.02768">
        <ele>2257.6000976562</ele>
        <time>2021-03-21T10:08:55.000Z</time>
      </trkpt>
      <trkpt lat="44.99461" lon="6.02768">
        <ele>2258</ele>
        <time>2021-03-21T10:08:56.000Z</time>
      </trkpt>
      <trkpt lat="44.9946" lon="6.02768">
        <ele>2258.1999511719</ele>
        <time>2021-03-21T10:08:57.000Z</time>
      </trkpt>
      <trkpt lat="44.99459" lon="6.02768">
        <ele>2258.3999023438</ele>
        <time>2021-03-21T10:08:58.000Z</time>
      </trkpt>
      <trkpt lat="44.99458" lon="6.02768">
        <ele>2258.6000976562</ele>
        <time>2021-03-21T10:08:59.000Z</time>
      </trkpt>
      <trkpt lat="44.99458" lon="6.02768">
        <ele>2258.6000976562</ele>
        <time>2021-03-21T10:09:00.000Z</time>
      </trkpt>
      <trkpt lat="44.99457" lon="6.02768">
        <ele>2259</ele>
        <time>2021-03-21T10:09:01.000Z</time>
      </trkpt>
      <trkpt lat="44.99457" lon="6.02768">
        <ele>2259.1999511719</ele>
        <time>2021-03-21T10:09:02.000Z</time>
      </trkpt>
      <trkpt lat="44.99456" lon="6.02769">
        <ele>2259.3999023438</ele>
        <time>2021-03-21T10:09:03.000Z</time>
      </trkpt>
      <trkpt lat="44.99455" lon="6.02769">
        <ele>2259.8000488281</ele>
        <time>2021-03-21T10:09:04.000Z</time>
      </trkpt>
      <trkpt lat="44.99454" lon="6.02769">
        <ele>2260</ele>
        <time>2021-03-21T10:09:05.000Z</time>
      </trkpt>
      <trkpt lat="44.99453" lon="6.02769">
        <ele>2260.1999511719</ele>
        <time>2021-03-21T10:09:06.000Z</time>
      </trkpt>
      <trkpt lat="44.99453" lon="6.02769">
        <ele>2260.3999023438</ele>
        <time>2021-03-21T10:09:07.000Z</time>
      </trkpt>
      <trkpt lat="44.99452" lon="6.02769">
        <ele>2260.8000488281</ele>
        <time>2021-03-21T10:09:08.000Z</time>
      </trkpt>
      <trkpt lat="44.99451" lon="6.02769">
        <ele>2261</ele>
        <time>2021-03-21T10:09:09.000Z</time>
      </trkpt>
      <trkpt lat="44.9945" lon="6.02769">
        <ele>2261.1999511719</ele>
        <time>2021-03-21T10:09:10.000Z</time>
      </trkpt>
      <trkpt lat="44.99448" lon="6.02769">
        <ele>2261.6000976562</ele>
        <time>2021-03-21T10:09:11.000Z</time>
      </trkpt>
      <trkpt lat="44.99448" lon="6.02769">
        <ele>2262</ele>
        <time>2021-03-21T10:09:12.000Z</time>
      </trkpt>
      <trkpt lat="44.99447" lon="6.02769">
        <ele>2262.1999511719</ele>
        <time>2021-03-21T10:09:13.000Z</time>
      </trkpt>
      <trkpt lat="44.99446" lon="6.02769">
        <ele>2262.3999023438</ele>
        <time>2021-03-21T10:09:14.000Z</time>
      </trkpt>
      <trkpt lat="44.99446" lon="6.02769">
        <ele>2262.6000976562</ele>
        <time>2021-03-21T10:09:15.000Z</time>
      </trkpt>
      <trkpt lat="44.99445" lon="6.02769">
        <ele>2262.8000488281</ele>
        <time>2021-03-21T10:09:16.000Z</time>
      </trkpt>
      <trkpt lat="44.99444" lon="6.02769">
        <ele>2263.1999511719</ele>
        <time>2021-03-21T10:09:17.000Z</time>
      </trkpt>
      <trkpt lat="44.99444" lon="6.02769">
        <ele>2263.3999023438</ele>
        <time>2021-03-21T10:09:18.000Z</time>
      </trkpt>
      <trkpt lat="44.99443" lon="6.02768">
        <ele>2263.6000976562</ele>
        <time>2021-03-21T10:09:19.000Z</time>
      </trkpt>
      <trkpt lat="44.99442" lon="6.02768">
        <ele>2263.8000488281</ele>
        <time>2021-03-21T10:09:20.000Z</time>
      </trkpt>
      <trkpt lat="44.99442" lon="6.02768">
        <ele>2264</ele>
        <time>2021-03-21T10:09:21.000Z</time>
      </trkpt>
      <trkpt lat="44.99441" lon="6.02768">
        <ele>2264.3999023438</ele>
        <time>2021-03-21T10:09:22.000Z</time>
      </trkpt>
      <trkpt lat="44.9944" lon="6.02768">
        <ele>2264.3999023438</ele>
        <time>2021-03-21T10:09:23.000Z</time>
      </trkpt>
      <trkpt lat="44.99439" lon="6.02768">
        <ele>2264.8000488281</ele>
        <time>2021-03-21T10:09:24.000Z</time>
      </trkpt>
      <trkpt lat="44.99439" lon="6.02768">
        <ele>2265</ele>
        <time>2021-03-21T10:09:25.000Z</time>
      </trkpt>
      <trkpt lat="44.99438" lon="6.02767">
        <ele>2265.1999511719</ele>
        <time>2021-03-21T10:09:26.000Z</time>
      </trkpt>
      <trkpt lat="44.99437" lon="6.02767">
        <ele>2265.3999023438</ele>
        <time>2021-03-21T10:09:27.000Z</time>
      </trkpt>
      <trkpt lat="44.99437" lon="6.02767">
        <ele>2265.8000488281</ele>
        <time>2021-03-21T10:09:28.000Z</time>
      </trkpt>
      <trkpt lat="44.99436" lon="6.02767">
        <ele>2266</ele>
        <time>2021-03-21T10:09:29.000Z</time>
      </trkpt>
      <trkpt lat="44.99435" lon="6.02766">
        <ele>2266.1999511719</ele>
        <time>2021-03-21T10:09:30.000Z</time>
      </trkpt>
      <trkpt lat="44.99435" lon="6.02766">
        <ele>2266.3999023438</ele>
        <time>2021-03-21T10:09:31.000Z</time>
      </trkpt>
      <trkpt lat="44.99434" lon="6.02766">
        <ele>2266.8000488281</ele>
        <time>2021-03-21T10:09:32.000Z</time>
      </trkpt>
      <trkpt lat="44.99433" lon="6.02766">
        <ele>2267</ele>
        <time>2021-03-21T10:09:33.000Z</time>
      </trkpt>
      <trkpt lat="44.99432" lon="6.02766">
        <ele>2267.1999511719</ele>
        <time>2021-03-21T10:09:34.000Z</time>
      </trkpt>
      <trkpt lat="44.99432" lon="6.02766">
        <ele>2267.6000976562</ele>
        <time>2021-03-21T10:09:35.000Z</time>
      </trkpt>
      <trkpt lat="44.99431" lon="6.02766">
        <ele>2267.8000488281</ele>
        <time>2021-03-21T10:09:36.000Z</time>
      </trkpt>
      <trkpt lat="44.9943" lon="6.02766">
        <ele>2268.1999511719</ele>
        <time>2021-03-21T10:09:37.000Z</time>
      </trkpt>
      <trkpt lat="44.99429" lon="6.02766">
        <ele>2268.3999023438</ele>
        <time>2021-03-21T10:09:38.000Z</time>
      </trkpt>
      <trkpt lat="44.99428" lon="6.02766">
        <ele>2268.8000488281</ele>
        <time>2021-03-21T10:09:39.000Z</time>
      </trkpt>
      <trkpt lat="44.99427" lon="6.02766">
        <ele>2269.1999511719</ele>
        <time>2021-03-21T10:09:40.000Z</time>
      </trkpt>
      <trkpt lat="44.99426" lon="6.02766">
        <ele>2269.3999023438</ele>
        <time>2021-03-21T10:09:41.000Z</time>
      </trkpt>
      <trkpt lat="44.99425" lon="6.02766">
        <ele>2269.8000488281</ele>
        <time>2021-03-21T10:09:42.000Z</time>
      </trkpt>
      <trkpt lat="44.99424" lon="6.02767">
        <ele>2270</ele>
        <time>2021-03-21T10:09:43.000Z</time>
      </trkpt>
      <trkpt lat="44.99423" lon="6.02767">
        <ele>2270.3999023438</ele>
        <time>2021-03-21T10:09:44.000Z</time>
      </trkpt>
      <trkpt lat="44.99422" lon="6.02767">
        <ele>2270.8000488281</ele>
        <time>2021-03-21T10:09:45.000Z</time>
      </trkpt>
      <trkpt lat="44.99421" lon="6.02767">
        <ele>2271</ele>
        <time>2021-03-21T10:09:46.000Z</time>
      </trkpt>
      <trkpt lat="44.9942" lon="6.02767">
        <ele>2271.3999023438</ele>
        <time>2021-03-21T10:09:47.000Z</time>
      </trkpt>
      <trkpt lat="44.99419" lon="6.02767">
        <ele>2271.6000976562</ele>
        <time>2021-03-21T10:09:48.000Z</time>
      </trkpt>
      <trkpt lat="44.99419" lon="6.02767">
        <ele>2272</ele>
        <time>2021-03-21T10:09:49.000Z</time>
      </trkpt>
      <trkpt lat="44.99418" lon="6.02767">
        <ele>2272.1999511719</ele>
        <time>2021-03-21T10:09:50.000Z</time>
      </trkpt>
      <trkpt lat="44.99417" lon="6.02767">
        <ele>2272.3999023438</ele>
        <time>2021-03-21T10:09:51.000Z</time>
      </trkpt>
      <trkpt lat="44.99416" lon="6.02767">
        <ele>2272.8000488281</ele>
        <time>2021-03-21T10:09:52.000Z</time>
      </trkpt>
      <trkpt lat="44.99416" lon="6.02766">
        <ele>2272.8000488281</ele>
        <time>2021-03-21T10:09:53.000Z</time>
      </trkpt>
      <trkpt lat="44.99416" lon="6.02766">
        <ele>2273</ele>
        <time>2021-03-21T10:09:54.000Z</time>
      </trkpt>
      <trkpt lat="44.99415" lon="6.02766">
        <ele>2273.3999023438</ele>
        <time>2021-03-21T10:09:55.000Z</time>
      </trkpt>
      <trkpt lat="44.99415" lon="6.02766">
        <ele>2273.6000976562</ele>
        <time>2021-03-21T10:09:56.000Z</time>
      </trkpt>
      <trkpt lat="44.99414" lon="6.02766">
        <ele>2273.8000488281</ele>
        <time>2021-03-21T10:09:57.000Z</time>
      </trkpt>
      <trkpt lat="44.99414" lon="6.02765">
        <ele>2274</ele>
        <time>2021-03-21T10:09:58.000Z</time>
      </trkpt>
      <trkpt lat="44.99413" lon="6.02765">
        <ele>2274.1999511719</ele>
        <time>2021-03-21T10:09:59.000Z</time>
      </trkpt>
      <trkpt lat="44.99413" lon="6.02765">
        <ele>2274.3999023438</ele>
        <time>2021-03-21T10:10:00.000Z</time>
      </trkpt>
      <trkpt lat="44.99412" lon="6.02765">
        <ele>2274.3999023438</ele>
        <time>2021-03-21T10:10:01.000Z</time>
      </trkpt>
      <trkpt lat="44.99411" lon="6.02766">
        <ele>2274.8000488281</ele>
        <time>2021-03-21T10:10:02.000Z</time>
      </trkpt>
      <trkpt lat="44.99411" lon="6.02765">
        <ele>2275</ele>
        <time>2021-03-21T10:10:03.000Z</time>
      </trkpt>
      <trkpt lat="44.99411" lon="6.02765">
        <ele>2275.1999511719</ele>
        <time>2021-03-21T10:10:04.000Z</time>
      </trkpt>
      <trkpt lat="44.9941" lon="6.02765">
        <ele>2275.3999023438</ele>
        <time>2021-03-21T10:10:05.000Z</time>
      </trkpt>
      <trkpt lat="44.99409" lon="6.02765">
        <ele>2275.6000976562</ele>
        <time>2021-03-21T10:10:06.000Z</time>
      </trkpt>
      <trkpt lat="44.99409" lon="6.02765">
        <ele>2275.8000488281</ele>
        <time>2021-03-21T10:10:07.000Z</time>
      </trkpt>
      <trkpt lat="44.99408" lon="6.02766">
        <ele>2276</ele>
        <time>2021-03-21T10:10:08.000Z</time>
      </trkpt>
      <trkpt lat="44.99407" lon="6.02765">
        <ele>2276.3999023438</ele>
        <time>2021-03-21T10:10:09.000Z</time>
      </trkpt>
      <trkpt lat="44.99406" lon="6.02765">
        <ele>2276.6000976562</ele>
        <time>2021-03-21T10:10:10.000Z</time>
      </trkpt>
      <trkpt lat="44.99406" lon="6.02766">
        <ele>2276.8000488281</ele>
        <time>2021-03-21T10:10:11.000Z</time>
      </trkpt>
      <trkpt lat="44.99405" lon="6.02766">
        <ele>2277</ele>
        <time>2021-03-21T10:10:12.000Z</time>
      </trkpt>
      <trkpt lat="44.99405" lon="6.02765">
        <ele>2277.1999511719</ele>
        <time>2021-03-21T10:10:13.000Z</time>
      </trkpt>
      <trkpt lat="44.99404" lon="6.02765">
        <ele>2277.3999023438</ele>
        <time>2021-03-21T10:10:14.000Z</time>
      </trkpt>
      <trkpt lat="44.99403" lon="6.02765">
        <ele>2277.6000976562</ele>
        <time>2021-03-21T10:10:15.000Z</time>
      </trkpt>
      <trkpt lat="44.99403" lon="6.02765">
        <ele>2277.8000488281</ele>
        <time>2021-03-21T10:10:16.000Z</time>
      </trkpt>
      <trkpt lat="44.99402" lon="6.02765">
        <ele>2278.1999511719</ele>
        <time>2021-03-21T10:10:17.000Z</time>
      </trkpt>
      <trkpt lat="44.99402" lon="6.02765">
        <ele>2278.3999023438</ele>
        <time>2021-03-21T10:10:18.000Z</time>
      </trkpt>
      <trkpt lat="44.99401" lon="6.02765">
        <ele>2278.6000976562</ele>
        <time>2021-03-21T10:10:19.000Z</time>
      </trkpt>
      <trkpt lat="44.99401" lon="6.02764">
        <ele>2279</ele>
        <time>2021-03-21T10:10:20.000Z</time>
      </trkpt>
      <trkpt lat="44.994" lon="6.02764">
        <ele>2279.1999511719</ele>
        <time>2021-03-21T10:10:21.000Z</time>
      </trkpt>
      <trkpt lat="44.99399" lon="6.02765">
        <ele>2279.6000976562</ele>
        <time>2021-03-21T10:10:22.000Z</time>
      </trkpt>
      <trkpt lat="44.99399" lon="6.02765">
        <ele>2279.8000488281</ele>
        <time>2021-03-21T10:10:23.000Z</time>
      </trkpt>
      <trkpt lat="44.99398" lon="6.02765">
        <ele>2280</ele>
        <time>2021-03-21T10:10:24.000Z</time>
      </trkpt>
      <trkpt lat="44.99398" lon="6.02765">
        <ele>2280</ele>
        <time>2021-03-21T10:10:25.000Z</time>
      </trkpt>
      <trkpt lat="44.99397" lon="6.02765">
        <ele>2280.3999023438</ele>
        <time>2021-03-21T10:10:26.000Z</time>
      </trkpt>
      <trkpt lat="44.99396" lon="6.02765">
        <ele>2280.6000976562</ele>
        <time>2021-03-21T10:10:27.000Z</time>
      </trkpt>
      <trkpt lat="44.99395" lon="6.02766">
        <ele>2280.8000488281</ele>
        <time>2021-03-21T10:10:28.000Z</time>
      </trkpt>
      <trkpt lat="44.99395" lon="6.02765">
        <ele>2281.1999511719</ele>
        <time>2021-03-21T10:10:29.000Z</time>
      </trkpt>
      <trkpt lat="44.99394" lon="6.02765">
        <ele>2281.3999023438</ele>
        <time>2021-03-21T10:10:30.000Z</time>
      </trkpt>
      <trkpt lat="44.99394" lon="6.02765">
        <ele>2281.8000488281</ele>
        <time>2021-03-21T10:10:31.000Z</time>
      </trkpt>
      <trkpt lat="44.99393" lon="6.02765">
        <ele>2282</ele>
        <time>2021-03-21T10:10:32.000Z</time>
      </trkpt>
      <trkpt lat="44.99393" lon="6.02765">
        <ele>2282.1999511719</ele>
        <time>2021-03-21T10:10:33.000Z</time>
      </trkpt>
      <trkpt lat="44.99392" lon="6.02764">
        <ele>2282.6000976562</ele>
        <time>2021-03-21T10:10:34.000Z</time>
      </trkpt>
      <trkpt lat="44.99391" lon="6.02764">
        <ele>2282.8000488281</ele>
        <time>2021-03-21T10:10:35.000Z</time>
      </trkpt>
      <trkpt lat="44.99391" lon="6.02764">
        <ele>2283.1999511719</ele>
        <time>2021-03-21T10:10:36.000Z</time>
      </trkpt>
      <trkpt lat="44.99391" lon="6.02764">
        <ele>2283.3999023438</ele>
        <time>2021-03-21T10:10:37.000Z</time>
      </trkpt>
      <trkpt lat="44.9939" lon="6.02764">
        <ele>2283.6000976562</ele>
        <time>2021-03-21T10:10:38.000Z</time>
      </trkpt>
      <trkpt lat="44.99389" lon="6.02764">
        <ele>2283.8000488281</ele>
        <time>2021-03-21T10:10:39.000Z</time>
      </trkpt>
      <trkpt lat="44.99389" lon="6.02764">
        <ele>2284</ele>
        <time>2021-03-21T10:10:40.000Z</time>
      </trkpt>
      <trkpt lat="44.99388" lon="6.02764">
        <ele>2284.3999023438</ele>
        <time>2021-03-21T10:10:41.000Z</time>
      </trkpt>
      <trkpt lat="44.99387" lon="6.02764">
        <ele>2284.6000976562</ele>
        <time>2021-03-21T10:10:42.000Z</time>
      </trkpt>
      <trkpt lat="44.99387" lon="6.02765">
        <ele>2285</ele>
        <time>2021-03-21T10:10:43.000Z</time>
      </trkpt>
      <trkpt lat="44.99385" lon="6.02765">
        <ele>2285.3999023438</ele>
        <time>2021-03-21T10:10:44.000Z</time>
      </trkpt>
      <trkpt lat="44.99384" lon="6.02766">
        <ele>2285.8000488281</ele>
        <time>2021-03-21T10:10:45.000Z</time>
      </trkpt>
      <trkpt lat="44.99383" lon="6.02766">
        <ele>2286</ele>
        <time>2021-03-21T10:10:46.000Z</time>
      </trkpt>
      <trkpt lat="44.99383" lon="6.02766">
        <ele>2286.3999023438</ele>
        <time>2021-03-21T10:10:47.000Z</time>
      </trkpt>
      <trkpt lat="44.99382" lon="6.02766">
        <ele>2286.6000976562</ele>
        <time>2021-03-21T10:10:48.000Z</time>
      </trkpt>
      <trkpt lat="44.99381" lon="6.02766">
        <ele>2286.8000488281</ele>
        <time>2021-03-21T10:10:49.000Z</time>
      </trkpt>
      <trkpt lat="44.99381" lon="6.02767">
        <ele>2287</ele>
        <time>2021-03-21T10:10:50.000Z</time>
      </trkpt>
      <trkpt lat="44.9938" lon="6.02767">
        <ele>2287.3999023438</ele>
        <time>2021-03-21T10:10:51.000Z</time>
      </trkpt>
      <trkpt lat="44.99379" lon="6.02767">
        <ele>2287.6000976562</ele>
        <time>2021-03-21T10:10:52.000Z</time>
      </trkpt>
      <trkpt lat="44.99379" lon="6.02766">
        <ele>2287.8000488281</ele>
        <time>2021-03-21T10:10:53.000Z</time>
      </trkpt>
      <trkpt lat="44.99378" lon="6.02767">
        <ele>2288.1999511719</ele>
        <time>2021-03-21T10:10:54.000Z</time>
      </trkpt>
      <trkpt lat="44.99377" lon="6.02767">
        <ele>2288.3999023438</ele>
        <time>2021-03-21T10:10:55.000Z</time>
      </trkpt>
      <trkpt lat="44.99377" lon="6.02767">
        <ele>2288.8000488281</ele>
        <time>2021-03-21T10:10:56.000Z</time>
      </trkpt>
      <trkpt lat="44.99376" lon="6.02767">
        <ele>2289.1999511719</ele>
        <time>2021-03-21T10:10:57.000Z</time>
      </trkpt>
      <trkpt lat="44.99375" lon="6.02768">
        <ele>2289.3999023438</ele>
        <time>2021-03-21T10:10:58.000Z</time>
      </trkpt>
      <trkpt lat="44.99374" lon="6.02768">
        <ele>2289.8000488281</ele>
        <time>2021-03-21T10:10:59.000Z</time>
      </trkpt>
      <trkpt lat="44.99373" lon="6.02769">
        <ele>2289.8000488281</ele>
        <time>2021-03-21T10:11:00.000Z</time>
      </trkpt>
      <trkpt lat="44.99372" lon="6.02769">
        <ele>2290</ele>
        <time>2021-03-21T10:11:01.000Z</time>
      </trkpt>
      <trkpt lat="44.99371" lon="6.0277">
        <ele>2290</ele>
        <time>2021-03-21T10:11:02.000Z</time>
      </trkpt>
      <trkpt lat="44.99371" lon="6.02771">
        <ele>2290.1999511719</ele>
        <time>2021-03-21T10:11:03.000Z</time>
      </trkpt>
      <trkpt lat="44.9937" lon="6.02771">
        <ele>2290.1999511719</ele>
        <time>2021-03-21T10:11:04.000Z</time>
      </trkpt>
      <trkpt lat="44.99369" lon="6.02772">
        <ele>2290.3999023438</ele>
        <time>2021-03-21T10:11:05.000Z</time>
      </trkpt>
      <trkpt lat="44.99368" lon="6.02772">
        <ele>2290.3999023438</ele>
        <time>2021-03-21T10:11:06.000Z</time>
      </trkpt>
      <trkpt lat="44.99367" lon="6.02773">
        <ele>2290.3999023438</ele>
        <time>2021-03-21T10:11:07.000Z</time>
      </trkpt>
      <trkpt lat="44.99366" lon="6.02773">
        <ele>2290.6000976562</ele>
        <time>2021-03-21T10:11:08.000Z</time>
      </trkpt>
      <trkpt lat="44.99366" lon="6.02774">
        <ele>2290.6000976562</ele>
        <time>2021-03-21T10:11:09.000Z</time>
      </trkpt>
      <trkpt lat="44.99365" lon="6.02774">
        <ele>2290.8000488281</ele>
        <time>2021-03-21T10:11:10.000Z</time>
      </trkpt>
      <trkpt lat="44.99364" lon="6.02774">
        <ele>2291</ele>
        <time>2021-03-21T10:11:11.000Z</time>
      </trkpt>
      <trkpt lat="44.99363" lon="6.02775">
        <ele>2291</ele>
        <time>2021-03-21T10:11:12.000Z</time>
      </trkpt>
      <trkpt lat="44.99362" lon="6.02775">
        <ele>2291.1999511719</ele>
        <time>2021-03-21T10:11:13.000Z</time>
      </trkpt>
      <trkpt lat="44.99361" lon="6.02775">
        <ele>2291.3999023438</ele>
        <time>2021-03-21T10:11:14.000Z</time>
      </trkpt>
      <trkpt lat="44.99361" lon="6.02775">
        <ele>2291.3999023438</ele>
        <time>2021-03-21T10:11:15.000Z</time>
      </trkpt>
      <trkpt lat="44.9936" lon="6.02775">
        <ele>2291.6000976562</ele>
        <time>2021-03-21T10:11:16.000Z</time>
      </trkpt>
      <trkpt lat="44.99359" lon="6.02775">
        <ele>2291.8000488281</ele>
        <time>2021-03-21T10:11:17.000Z</time>
      </trkpt>
      <trkpt lat="44.99358" lon="6.02775">
        <ele>2291.8000488281</ele>
        <time>2021-03-21T10:11:18.000Z</time>
      </trkpt>
      <trkpt lat="44.99358" lon="6.02775">
        <ele>2292</ele>
        <time>2021-03-21T10:11:19.000Z</time>
      </trkpt>
      <trkpt lat="44.99357" lon="6.02775">
        <ele>2292.1999511719</ele>
        <time>2021-03-21T10:11:20.000Z</time>
      </trkpt>
      <trkpt lat="44.99356" lon="6.02775">
        <ele>2292.3999023438</ele>
        <time>2021-03-21T10:11:21.000Z</time>
      </trkpt>
      <trkpt lat="44.99355" lon="6.02775">
        <ele>2292.6000976562</ele>
        <time>2021-03-21T10:11:22.000Z</time>
      </trkpt>
      <trkpt lat="44.99355" lon="6.02776">
        <ele>2292.8000488281</ele>
        <time>2021-03-21T10:11:23.000Z</time>
      </trkpt>
      <trkpt lat="44.99354" lon="6.02776">
        <ele>2293</ele>
        <time>2021-03-21T10:11:24.000Z</time>
      </trkpt>
      <trkpt lat="44.99353" lon="6.02777">
        <ele>2293.1999511719</ele>
        <time>2021-03-21T10:11:25.000Z</time>
      </trkpt>
      <trkpt lat="44.99352" lon="6.02778">
        <ele>2293.3999023438</ele>
        <time>2021-03-21T10:11:26.000Z</time>
      </trkpt>
      <trkpt lat="44.99351" lon="6.02778">
        <ele>2293.6000976562</ele>
        <time>2021-03-21T10:11:27.000Z</time>
      </trkpt>
      <trkpt lat="44.99351" lon="6.02778">
        <ele>2293.6000976562</ele>
        <time>2021-03-21T10:11:28.000Z</time>
      </trkpt>
      <trkpt lat="44.9935" lon="6.02778">
        <ele>2293.8000488281</ele>
        <time>2021-03-21T10:11:29.000Z</time>
      </trkpt>
      <trkpt lat="44.99349" lon="6.02779">
        <ele>2294</ele>
        <time>2021-03-21T10:11:30.000Z</time>
      </trkpt>
      <trkpt lat="44.99348" lon="6.02779">
        <ele>2294.1999511719</ele>
        <time>2021-03-21T10:11:31.000Z</time>
      </trkpt>
      <trkpt lat="44.99347" lon="6.02781">
        <ele>2294.3999023438</ele>
        <time>2021-03-21T10:11:32.000Z</time>
      </trkpt>
      <trkpt lat="44.99347" lon="6.02781">
        <ele>2294.3999023438</ele>
        <time>2021-03-21T10:11:33.000Z</time>
      </trkpt>
      <trkpt lat="44.99346" lon="6.02782">
        <ele>2294.3999023438</ele>
        <time>2021-03-21T10:11:34.000Z</time>
      </trkpt>
      <trkpt lat="44.99346" lon="6.02783">
        <ele>2294.3999023438</ele>
        <time>2021-03-21T10:11:35.000Z</time>
      </trkpt>
      <trkpt lat="44.99346" lon="6.02784">
        <ele>2294.3999023438</ele>
        <time>2021-03-21T10:11:36.000Z</time>
      </trkpt>
      <trkpt lat="44.99346" lon="6.02785">
        <ele>2294.3999023438</ele>
        <time>2021-03-21T10:11:37.000Z</time>
      </trkpt>
      <trkpt lat="44.99346" lon="6.02785">
        <ele>2294.3999023438</ele>
        <time>2021-03-21T10:11:38.000Z</time>
      </trkpt>
      <trkpt lat="44.99347" lon="6.02786">
        <ele>2294.1999511719</ele>
        <time>2021-03-21T10:11:39.000Z</time>
      </trkpt>
      <trkpt lat="44.99347" lon="6.02787">
        <ele>2294.1999511719</ele>
        <time>2021-03-21T10:11:40.000Z</time>
      </trkpt>
      <trkpt lat="44.99348" lon="6.02788">
        <ele>2294</ele>
        <time>2021-03-21T10:11:41.000Z</time>
      </trkpt>
      <trkpt lat="44.99349" lon="6.02788">
        <ele>2293.8000488281</ele>
        <time>2021-03-21T10:11:42.000Z</time>
      </trkpt>
      <trkpt lat="44.99349" lon="6.02789">
        <ele>2293.6000976562</ele>
        <time>2021-03-21T10:11:43.000Z</time>
      </trkpt>
      <trkpt lat="44.9935" lon="6.0279">
        <ele>2293.3999023438</ele>
        <time>2021-03-21T10:11:44.000Z</time>
      </trkpt>
      <trkpt lat="44.9935" lon="6.02791">
        <ele>2293.1999511719</ele>
        <time>2021-03-21T10:11:45.000Z</time>
      </trkpt>
      <trkpt lat="44.99352" lon="6.02791">
        <ele>2293</ele>
        <time>2021-03-21T10:11:46.000Z</time>
      </trkpt>
      <trkpt lat="44.99352" lon="6.02793">
        <ele>2292.6000976562</ele>
        <time>2021-03-21T10:11:47.000Z</time>
      </trkpt>
      <trkpt lat="44.99353" lon="6.02793">
        <ele>2292.3999023438</ele>
        <time>2021-03-21T10:11:48.000Z</time>
      </trkpt>
      <trkpt lat="44.99354" lon="6.02794">
        <ele>2292.3999023438</ele>
        <time>2021-03-21T10:11:49.000Z</time>
      </trkpt>
      <trkpt lat="44.99354" lon="6.02795">
        <ele>2292.1999511719</ele>
        <time>2021-03-21T10:11:50.000Z</time>
      </trkpt>
      <trkpt lat="44.99355" lon="6.02796">
        <ele>2292</ele>
        <time>2021-03-21T10:11:51.000Z</time>
      </trkpt>
      <trkpt lat="44.99355" lon="6.02797">
        <ele>2292</ele>
        <time>2021-03-21T10:11:52.000Z</time>
      </trkpt>
      <trkpt lat="44.99356" lon="6.02798">
        <ele>2291.8000488281</ele>
        <time>2021-03-21T10:11:53.000Z</time>
      </trkpt>
      <trkpt lat="44.99356" lon="6.02799">
        <ele>2291.8000488281</ele>
        <time>2021-03-21T10:11:54.000Z</time>
      </trkpt>
      <trkpt lat="44.99357" lon="6.028">
        <ele>2291.6000976562</ele>
        <time>2021-03-21T10:11:55.000Z</time>
      </trkpt>
      <trkpt lat="44.99358" lon="6.028">
        <ele>2291.3999023438</ele>
        <time>2021-03-21T10:11:56.000Z</time>
      </trkpt>
      <trkpt lat="44.99358" lon="6.02801">
        <ele>2291.1999511719</ele>
        <time>2021-03-21T10:11:57.000Z</time>
      </trkpt>
      <trkpt lat="44.99359" lon="6.02802">
        <ele>2291</ele>
        <time>2021-03-21T10:11:58.000Z</time>
      </trkpt>
      <trkpt lat="44.9936" lon="6.02803">
        <ele>2290.8000488281</ele>
        <time>2021-03-21T10:11:59.000Z</time>
      </trkpt>
      <trkpt lat="44.9936" lon="6.02803">
        <ele>2290.6000976562</ele>
        <time>2021-03-21T10:12:00.000Z</time>
      </trkpt>
      <trkpt lat="44.99361" lon="6.02804">
        <ele>2290.6000976562</ele>
        <time>2021-03-21T10:12:01.000Z</time>
      </trkpt>
      <trkpt lat="44.99361" lon="6.02805">
        <ele>2290.3999023438</ele>
        <time>2021-03-21T10:12:02.000Z</time>
      </trkpt>
      <trkpt lat="44.99362" lon="6.02805">
        <ele>2290.1999511719</ele>
        <time>2021-03-21T10:12:03.000Z</time>
      </trkpt>
      <trkpt lat="44.99363" lon="6.02806">
        <ele>2290</ele>
        <time>2021-03-21T10:12:04.000Z</time>
      </trkpt>
      <trkpt lat="44.99363" lon="6.02807">
        <ele>2290</ele>
        <time>2021-03-21T10:12:05.000Z</time>
      </trkpt>
      <trkpt lat="44.99364" lon="6.02808">
        <ele>2289.6000976562</ele>
        <time>2021-03-21T10:12:06.000Z</time>
      </trkpt>
      <trkpt lat="44.99365" lon="6.02809">
        <ele>2289.3999023438</ele>
        <time>2021-03-21T10:12:07.000Z</time>
      </trkpt>
      <trkpt lat="44.99366" lon="6.0281">
        <ele>2289.1999511719</ele>
        <time>2021-03-21T10:12:08.000Z</time>
      </trkpt>
      <trkpt lat="44.99366" lon="6.02811">
        <ele>2289.1999511719</ele>
        <time>2021-03-21T10:12:09.000Z</time>
      </trkpt>
      <trkpt lat="44.99367" lon="6.02811">
        <ele>2289</ele>
        <time>2021-03-21T10:12:10.000Z</time>
      </trkpt>
      <trkpt lat="44.99368" lon="6.02811">
        <ele>2288.8000488281</ele>
        <time>2021-03-21T10:12:11.000Z</time>
      </trkpt>
      <trkpt lat="44.99368" lon="6.02812">
        <ele>2288.6000976562</ele>
        <time>2021-03-21T10:12:12.000Z</time>
      </trkpt>
      <trkpt lat="44.9937" lon="6.02812">
        <ele>2288.3999023438</ele>
        <time>2021-03-21T10:12:13.000Z</time>
      </trkpt>
      <trkpt lat="44.99371" lon="6.02812">
        <ele>2288</ele>
        <time>2021-03-21T10:12:14.000Z</time>
      </trkpt>
      <trkpt lat="44.99372" lon="6.02812">
        <ele>2287.8000488281</ele>
        <time>2021-03-21T10:12:15.000Z</time>
      </trkpt>
      <trkpt lat="44.99373" lon="6.02813">
        <ele>2287.6000976562</ele>
        <time>2021-03-21T10:12:16.000Z</time>
      </trkpt>
      <trkpt lat="44.99373" lon="6.02813">
        <ele>2287.3999023438</ele>
        <time>2021-03-21T10:12:17.000Z</time>
      </trkpt>
      <trkpt lat="44.99374" lon="6.02814">
        <ele>2287.1999511719</ele>
        <time>2021-03-21T10:12:18.000Z</time>
      </trkpt>
      <trkpt lat="44.99375" lon="6.02813">
        <ele>2287</ele>
        <time>2021-03-21T10:12:19.000Z</time>
      </trkpt>
      <trkpt lat="44.99375" lon="6.02814">
        <ele>2286.8000488281</ele>
        <time>2021-03-21T10:12:20.000Z</time>
      </trkpt>
      <trkpt lat="44.99376" lon="6.02815">
        <ele>2286.6000976562</ele>
        <time>2021-03-21T10:12:21.000Z</time>
      </trkpt>
      <trkpt lat="44.99376" lon="6.02814">
        <ele>2286.3999023438</ele>
        <time>2021-03-21T10:12:22.000Z</time>
      </trkpt>
      <trkpt lat="44.99376" lon="6.02815">
        <ele>2286.3999023438</ele>
        <time>2021-03-21T10:12:23.000Z</time>
      </trkpt>
      <trkpt lat="44.99376" lon="6.02816">
        <ele>2286.3999023438</ele>
        <time>2021-03-21T10:12:24.000Z</time>
      </trkpt>
      <trkpt lat="44.99375" lon="6.02816">
        <ele>2287</ele>
        <time>2021-03-21T10:12:25.000Z</time>
      </trkpt>
      <trkpt lat="44.99374" lon="6.02817">
        <ele>2287.1999511719</ele>
        <time>2021-03-21T10:12:26.000Z</time>
      </trkpt>
      <trkpt lat="44.99373" lon="6.02817">
        <ele>2287.3999023438</ele>
        <time>2021-03-21T10:12:27.000Z</time>
      </trkpt>
      <trkpt lat="44.99373" lon="6.02817">
        <ele>2287.6000976562</ele>
        <time>2021-03-21T10:12:28.000Z</time>
      </trkpt>
      <trkpt lat="44.99372" lon="6.02817">
        <ele>2287.6000976562</ele>
        <time>2021-03-21T10:12:29.000Z</time>
      </trkpt>
      <trkpt lat="44.99372" lon="6.02818">
        <ele>2287.8000488281</ele>
        <time>2021-03-21T10:12:30.000Z</time>
      </trkpt>
      <trkpt lat="44.99371" lon="6.02818">
        <ele>2288</ele>
        <time>2021-03-21T10:12:31.000Z</time>
      </trkpt>
      <trkpt lat="44.9937" lon="6.02818">
        <ele>2288.1999511719</ele>
        <time>2021-03-21T10:12:32.000Z</time>
      </trkpt>
      <trkpt lat="44.99369" lon="6.02819">
        <ele>2288.3999023438</ele>
        <time>2021-03-21T10:12:33.000Z</time>
      </trkpt>
      <trkpt lat="44.99369" lon="6.02819">
        <ele>2288.6000976562</ele>
        <time>2021-03-21T10:12:34.000Z</time>
      </trkpt>
      <trkpt lat="44.99368" lon="6.02819">
        <ele>2288.8000488281</ele>
        <time>2021-03-21T10:12:35.000Z</time>
      </trkpt>
      <trkpt lat="44.99367" lon="6.02819">
        <ele>2289</ele>
        <time>2021-03-21T10:12:36.000Z</time>
      </trkpt>
      <trkpt lat="44.99366" lon="6.0282">
        <ele>2289.1999511719</ele>
        <time>2021-03-21T10:12:37.000Z</time>
      </trkpt>
      <trkpt lat="44.99366" lon="6.02819">
        <ele>2289.1999511719</ele>
        <time>2021-03-21T10:12:38.000Z</time>
      </trkpt>
      <trkpt lat="44.99365" lon="6.02819">
        <ele>2289.3999023438</ele>
        <time>2021-03-21T10:12:39.000Z</time>
      </trkpt>
      <trkpt lat="44.99365" lon="6.02819">
        <ele>2289.6000976562</ele>
        <time>2021-03-21T10:12:40.000Z</time>
      </trkpt>
      <trkpt lat="44.99365" lon="6.02819">
        <ele>2289.6000976562</ele>
        <time>2021-03-21T10:12:41.000Z</time>
      </trkpt>
      <trkpt lat="44.99364" lon="6.02819">
        <ele>2289.6000976562</ele>
        <time>2021-03-21T10:12:42.000Z</time>
      </trkpt>
      <trkpt lat="44.99364" lon="6.02818">
        <ele>2289.6000976562</ele>
        <time>2021-03-21T10:12:43.000Z</time>
      </trkpt>
      <trkpt lat="44.99364" lon="6.02818">
        <ele>2289.8000488281</ele>
        <time>2021-03-21T10:12:44.000Z</time>
      </trkpt>
      <trkpt lat="44.99364" lon="6.02818">
        <ele>2289.8000488281</ele>
        <time>2021-03-21T10:12:45.000Z</time>
      </trkpt>
      <trkpt lat="44.99363" lon="6.02818">
        <ele>2290</ele>
        <time>2021-03-21T10:12:46.000Z</time>
      </trkpt>
      <trkpt lat="44.99363" lon="6.02817">
        <ele>2289.8000488281</ele>
        <time>2021-03-21T10:12:47.000Z</time>
      </trkpt>
      <trkpt lat="44.99363" lon="6.02817">
        <ele>2290</ele>
        <time>2021-03-21T10:12:48.000Z</time>
      </trkpt>
      <trkpt lat="44.99363" lon="6.02817">
        <ele>2290</ele>
        <time>2021-03-21T10:12:49.000Z</time>
      </trkpt>
      <trkpt lat="44.99362" lon="6.02817">
        <ele>2290.1999511719</ele>
        <time>2021-03-21T10:12:50.000Z</time>
      </trkpt>
      <trkpt lat="44.99362" lon="6.02816">
        <ele>2290.1999511719</ele>
        <time>2021-03-21T10:12:51.000Z</time>
      </trkpt>
      <trkpt lat="44.99362" lon="6.02816">
        <ele>2290.3999023438</ele>
        <time>2021-03-21T10:12:52.000Z</time>
      </trkpt>
      <trkpt lat="44.99361" lon="6.02817">
        <ele>2290.3999023438</ele>
        <time>2021-03-21T10:12:53.000Z</time>
      </trkpt>
      <trkpt lat="44.99361" lon="6.02817">
        <ele>2290.6000976562</ele>
        <time>2021-03-21T10:12:54.000Z</time>
      </trkpt>
      <trkpt lat="44.9936" lon="6.02818">
        <ele>2290.6000976562</ele>
        <time>2021-03-21T10:12:55.000Z</time>
      </trkpt>
      <trkpt lat="44.9936" lon="6.02818">
        <ele>2290.8000488281</ele>
        <time>2021-03-21T10:12:56.000Z</time>
      </trkpt>
      <trkpt lat="44.99359" lon="6.02819">
        <ele>2291</ele>
        <time>2021-03-21T10:12:57.000Z</time>
      </trkpt>
      <trkpt lat="44.99359" lon="6.0282">
        <ele>2291.1999511719</ele>
        <time>2021-03-21T10:12:58.000Z</time>
      </trkpt>
      <trkpt lat="44.99358" lon="6.0282">
        <ele>2291.1999511719</ele>
        <time>2021-03-21T10:12:59.000Z</time>
      </trkpt>
      <trkpt lat="44.99358" lon="6.0282">
        <ele>2291.3999023438</ele>
        <time>2021-03-21T10:13:00.000Z</time>
      </trkpt>
      <trkpt lat="44.99357" lon="6.02821">
        <ele>2291.3999023438</ele>
        <time>2021-03-21T10:13:01.000Z</time>
      </trkpt>
      <trkpt lat="44.99356" lon="6.02822">
        <ele>2291.3999023438</ele>
        <time>2021-03-21T10:13:02.000Z</time>
      </trkpt>
      <trkpt lat="44.99355" lon="6.02822">
        <ele>2291.6000976562</ele>
        <time>2021-03-21T10:13:03.000Z</time>
      </trkpt>
      <trkpt lat="44.99354" lon="6.02823">
        <ele>2291.6000976562</ele>
        <time>2021-03-21T10:13:04.000Z</time>
      </trkpt>
      <trkpt lat="44.99354" lon="6.02824">
        <ele>2291.6000976562</ele>
        <time>2021-03-21T10:13:05.000Z</time>
      </trkpt>
      <trkpt lat="44.99353" lon="6.02824">
        <ele>2291.8000488281</ele>
        <time>2021-03-21T10:13:06.000Z</time>
      </trkpt>
      <trkpt lat="44.99353" lon="6.02824">
        <ele>2291.8000488281</ele>
        <time>2021-03-21T10:13:07.000Z</time>
      </trkpt>
      <trkpt lat="44.99352" lon="6.02824">
        <ele>2291.8000488281</ele>
        <time>2021-03-21T10:13:08.000Z</time>
      </trkpt>
      <trkpt lat="44.99352" lon="6.02825">
        <ele>2291.8000488281</ele>
        <time>2021-03-21T10:13:09.000Z</time>
      </trkpt>
      <trkpt lat="44.99352" lon="6.02825">
        <ele>2292</ele>
        <time>2021-03-21T10:13:10.000Z</time>
      </trkpt>
      <trkpt lat="44.99352" lon="6.02825">
        <ele>2292</ele>
        <time>2021-03-21T10:13:11.000Z</time>
      </trkpt>
      <trkpt lat="44.99351" lon="6.02826">
        <ele>2292</ele>
        <time>2021-03-21T10:13:12.000Z</time>
      </trkpt>
      <trkpt lat="44.99351" lon="6.02826">
        <ele>2292</ele>
        <time>2021-03-21T10:13:13.000Z</time>
      </trkpt>
      <trkpt lat="44.99351" lon="6.02827">
        <ele>2292</ele>
        <time>2021-03-21T10:13:14.000Z</time>
      </trkpt>
      <trkpt lat="44.99352" lon="6.02827">
        <ele>2291.6000976562</ele>
        <time>2021-03-21T10:13:15.000Z</time>
      </trkpt>
      <trkpt lat="44.99352" lon="6.02828">
        <ele>2291.6000976562</ele>
        <time>2021-03-21T10:13:16.000Z</time>
      </trkpt>
      <trkpt lat="44.99353" lon="6.02829">
        <ele>2291.6000976562</ele>
        <time>2021-03-21T10:13:17.000Z</time>
      </trkpt>
      <trkpt lat="44.99353" lon="6.02831">
        <ele>2291.3999023438</ele>
        <time>2021-03-21T10:13:18.000Z</time>
      </trkpt>
      <trkpt lat="44.99353" lon="6.02832">
        <ele>2291.1999511719</ele>
        <time>2021-03-21T10:13:19.000Z</time>
      </trkpt>
      <trkpt lat="44.99354" lon="6.02833">
        <ele>2291</ele>
        <time>2021-03-21T10:13:20.000Z</time>
      </trkpt>
      <trkpt lat="44.99355" lon="6.02833">
        <ele>2290.8000488281</ele>
        <time>2021-03-21T10:13:21.000Z</time>
      </trkpt>
      <trkpt lat="44.99355" lon="6.02834">
        <ele>2290.3999023438</ele>
        <time>2021-03-21T10:13:22.000Z</time>
      </trkpt>
      <trkpt lat="44.99356" lon="6.02834">
        <ele>2290</ele>
        <time>2021-03-21T10:13:23.000Z</time>
      </trkpt>
      <trkpt lat="44.99357" lon="6.02835">
        <ele>2289.6000976562</ele>
        <time>2021-03-21T10:13:24.000Z</time>
      </trkpt>
      <trkpt lat="44.99357" lon="6.02836">
        <ele>2289.6000976562</ele>
        <time>2021-03-21T10:13:25.000Z</time>
      </trkpt>
      <trkpt lat="44.99357" lon="6.02837">
        <ele>2289.3999023438</ele>
        <time>2021-03-21T10:13:26.000Z</time>
      </trkpt>
      <trkpt lat="44.99358" lon="6.02839">
        <ele>2289.3999023438</ele>
        <time>2021-03-21T10:13:27.000Z</time>
      </trkpt>
      <trkpt lat="44.99358" lon="6.02839">
        <ele>2289</ele>
        <time>2021-03-21T10:13:28.000Z</time>
      </trkpt>
      <trkpt lat="44.99359" lon="6.02841">
        <ele>2289</ele>
        <time>2021-03-21T10:13:29.000Z</time>
      </trkpt>
      <trkpt lat="44.99359" lon="6.02842">
        <ele>2288.8000488281</ele>
        <time>2021-03-21T10:13:30.000Z</time>
      </trkpt>
      <trkpt lat="44.99359" lon="6.02843">
        <ele>2288.8000488281</ele>
        <time>2021-03-21T10:13:31.000Z</time>
      </trkpt>
      <trkpt lat="44.9936" lon="6.02844">
        <ele>2288.3999023438</ele>
        <time>2021-03-21T10:13:32.000Z</time>
      </trkpt>
      <trkpt lat="44.99361" lon="6.02845">
        <ele>2288</ele>
        <time>2021-03-21T10:13:33.000Z</time>
      </trkpt>
      <trkpt lat="44.99361" lon="6.02845">
        <ele>2287.6000976562</ele>
        <time>2021-03-21T10:13:34.000Z</time>
      </trkpt>
      <trkpt lat="44.99362" lon="6.02846">
        <ele>2287.1999511719</ele>
        <time>2021-03-21T10:13:35.000Z</time>
      </trkpt>
      <trkpt lat="44.99363" lon="6.02847">
        <ele>2286.8000488281</ele>
        <time>2021-03-21T10:13:36.000Z</time>
      </trkpt>
      <trkpt lat="44.99364" lon="6.02848">
        <ele>2286.6000976562</ele>
        <time>2021-03-21T10:13:37.000Z</time>
      </trkpt>
      <trkpt lat="44.99364" lon="6.0285">
        <ele>2286.1999511719</ele>
        <time>2021-03-21T10:13:38.000Z</time>
      </trkpt>
      <trkpt lat="44.99364" lon="6.02852">
        <ele>2286</ele>
        <time>2021-03-21T10:13:39.000Z</time>
      </trkpt>
      <trkpt lat="44.99365" lon="6.02853">
        <ele>2285.6000976562</ele>
        <time>2021-03-21T10:13:40.000Z</time>
      </trkpt>
      <trkpt lat="44.99365" lon="6.02854">
        <ele>2285.1999511719</ele>
        <time>2021-03-21T10:13:41.000Z</time>
      </trkpt>
      <trkpt lat="44.99366" lon="6.02855">
        <ele>2284.8000488281</ele>
        <time>2021-03-21T10:13:42.000Z</time>
      </trkpt>
      <trkpt lat="44.99367" lon="6.02856">
        <ele>2284.1999511719</ele>
        <time>2021-03-21T10:13:43.000Z</time>
      </trkpt>
      <trkpt lat="44.99368" lon="6.02858">
        <ele>2283.6000976562</ele>
        <time>2021-03-21T10:13:44.000Z</time>
      </trkpt>
      <trkpt lat="44.99369" lon="6.02858">
        <ele>2283</ele>
        <time>2021-03-21T10:13:45.000Z</time>
      </trkpt>
      <trkpt lat="44.9937" lon="6.02859">
        <ele>2282.3999023438</ele>
        <time>2021-03-21T10:13:46.000Z</time>
      </trkpt>
      <trkpt lat="44.9937" lon="6.0286">
        <ele>2282</ele>
        <time>2021-03-21T10:13:47.000Z</time>
      </trkpt>
      <trkpt lat="44.9937" lon="6.02862">
        <ele>2281.8000488281</ele>
        <time>2021-03-21T10:13:48.000Z</time>
      </trkpt>
      <trkpt lat="44.99371" lon="6.02863">
        <ele>2281.3999023438</ele>
        <time>2021-03-21T10:13:49.000Z</time>
      </trkpt>
      <trkpt lat="44.99371" lon="6.02864">
        <ele>2281.1999511719</ele>
        <time>2021-03-21T10:13:50.000Z</time>
      </trkpt>
      <trkpt lat="44.99372" lon="6.02864">
        <ele>2281</ele>
        <time>2021-03-21T10:13:51.000Z</time>
      </trkpt>
      <trkpt lat="44.99372" lon="6.02863">
        <ele>2280.8000488281</ele>
        <time>2021-03-21T10:13:52.000Z</time>
      </trkpt>
      <trkpt lat="44.99372" lon="6.02862">
        <ele>2280.8000488281</ele>
        <time>2021-03-21T10:13:53.000Z</time>
      </trkpt>
      <trkpt lat="44.99372" lon="6.02862">
        <ele>2280.8000488281</ele>
        <time>2021-03-21T10:13:54.000Z</time>
      </trkpt>
      <trkpt lat="44.99373" lon="6.02862">
        <ele>2280.6000976562</ele>
        <time>2021-03-21T10:13:55.000Z</time>
      </trkpt>
      <trkpt lat="44.99373" lon="6.02862">
        <ele>2280.6000976562</ele>
        <time>2021-03-21T10:13:56.000Z</time>
      </trkpt>
      <trkpt lat="44.99373" lon="6.02862">
        <ele>2280.6000976562</ele>
        <time>2021-03-21T10:13:57.000Z</time>
      </trkpt>
      <trkpt lat="44.99373" lon="6.02862">
        <ele>2280.3999023438</ele>
        <time>2021-03-21T10:13:58.000Z</time>
      </trkpt>
      <trkpt lat="44.99373" lon="6.02862">
        <ele>2280.3999023438</ele>
        <time>2021-03-21T10:13:59.000Z</time>
      </trkpt>
      <trkpt lat="44.99371" lon="6.02864">
        <ele>2281</ele>
        <time>2021-03-21T10:14:00.000Z</time>
      </trkpt>
      <trkpt lat="44.99371" lon="6.02864">
        <ele>2281</ele>
        <time>2021-03-21T10:14:01.000Z</time>
      </trkpt>
      <trkpt lat="44.99369" lon="6.02867">
        <ele>2282</ele>
        <time>2021-03-21T10:14:02.000Z</time>
      </trkpt>
      <trkpt lat="44.99368" lon="6.02868">
        <ele>2282.1999511719</ele>
        <time>2021-03-21T10:14:03.000Z</time>
      </trkpt>
      <trkpt lat="44.99368" lon="6.02869">
        <ele>2282.3999023438</ele>
        <time>2021-03-21T10:14:04.000Z</time>
      </trkpt>
      <trkpt lat="44.99366" lon="6.0287">
        <ele>2283.1999511719</ele>
        <time>2021-03-21T10:14:05.000Z</time>
      </trkpt>
      <trkpt lat="44.99366" lon="6.0287">
        <ele>2283.6000976562</ele>
        <time>2021-03-21T10:14:06.000Z</time>
      </trkpt>
      <trkpt lat="44.99364" lon="6.02872">
        <ele>2284.6000976562</ele>
        <time>2021-03-21T10:14:07.000Z</time>
      </trkpt>
      <trkpt lat="44.99363" lon="6.02873">
        <ele>2285</ele>
        <time>2021-03-21T10:14:08.000Z</time>
      </trkpt>
      <trkpt lat="44.99362" lon="6.02873">
        <ele>2285.6000976562</ele>
        <time>2021-03-21T10:14:09.000Z</time>
      </trkpt>
      <trkpt lat="44.99361" lon="6.02874">
        <ele>2286.3999023438</ele>
        <time>2021-03-21T10:14:10.000Z</time>
      </trkpt>
      <trkpt lat="44.99361" lon="6.02874">
        <ele>2286.8000488281</ele>
        <time>2021-03-21T10:14:11.000Z</time>
      </trkpt>
      <trkpt lat="44.9936" lon="6.02874">
        <ele>2287</ele>
        <time>2021-03-21T10:14:12.000Z</time>
      </trkpt>
      <trkpt lat="44.99359" lon="6.02875">
        <ele>2287.3999023438</ele>
        <time>2021-03-21T10:14:13.000Z</time>
      </trkpt>
      <trkpt lat="44.99359" lon="6.02875">
        <ele>2287.8000488281</ele>
        <time>2021-03-21T10:14:14.000Z</time>
      </trkpt>
      <trkpt lat="44.99358" lon="6.02876">
        <ele>2288.1999511719</ele>
        <time>2021-03-21T10:14:15.000Z</time>
      </trkpt>
      <trkpt lat="44.99357" lon="6.02876">
        <ele>2288.8000488281</ele>
        <time>2021-03-21T10:14:16.000Z</time>
      </trkpt>
      <trkpt lat="44.99357" lon="6.02877">
        <ele>2289.1999511719</ele>
        <time>2021-03-21T10:14:17.000Z</time>
      </trkpt>
      <trkpt lat="44.99356" lon="6.02877">
        <ele>2289.8000488281</ele>
        <time>2021-03-21T10:14:18.000Z</time>
      </trkpt>
      <trkpt lat="44.99355" lon="6.02878">
        <ele>2290.1999511719</ele>
        <time>2021-03-21T10:14:19.000Z</time>
      </trkpt>
      <trkpt lat="44.99354" lon="6.02878">
        <ele>2290.8000488281</ele>
        <time>2021-03-21T10:14:20.000Z</time>
      </trkpt>
      <trkpt lat="44.99354" lon="6.02879">
        <ele>2291.3999023438</ele>
        <time>2021-03-21T10:14:21.000Z</time>
      </trkpt>
      <trkpt lat="44.99353" lon="6.0288">
        <ele>2291.8000488281</ele>
        <time>2021-03-21T10:14:22.000Z</time>
      </trkpt>
      <trkpt lat="44.99352" lon="6.02879">
        <ele>2292</ele>
        <time>2021-03-21T10:14:23.000Z</time>
      </trkpt>
      <trkpt lat="44.99352" lon="6.0288">
        <ele>2292.3999023438</ele>
        <time>2021-03-21T10:14:24.000Z</time>
      </trkpt>
      <trkpt lat="44.99351" lon="6.0288">
        <ele>2292.8000488281</ele>
        <time>2021-03-21T10:14:25.000Z</time>
      </trkpt>
      <trkpt lat="44.99351" lon="6.0288">
        <ele>2292.8000488281</ele>
        <time>2021-03-21T10:14:26.000Z</time>
      </trkpt>
      <trkpt lat="44.99351" lon="6.0288">
        <ele>2293.1999511719</ele>
        <time>2021-03-21T10:14:27.000Z</time>
      </trkpt>
      <trkpt lat="44.9935" lon="6.0288">
        <ele>2293.3999023438</ele>
        <time>2021-03-21T10:14:28.000Z</time>
      </trkpt>
      <trkpt lat="44.9935" lon="6.0288">
        <ele>2293.6000976562</ele>
        <time>2021-03-21T10:14:29.000Z</time>
      </trkpt>
      <trkpt lat="44.99349" lon="6.02881">
        <ele>2294.1999511719</ele>
        <time>2021-03-21T10:14:30.000Z</time>
      </trkpt>
      <trkpt lat="44.99349" lon="6.02881">
        <ele>2294.1999511719</ele>
        <time>2021-03-21T10:14:31.000Z</time>
      </trkpt>
      <trkpt lat="44.99348" lon="6.02882">
        <ele>2295</ele>
        <time>2021-03-21T10:14:32.000Z</time>
      </trkpt>
      <trkpt lat="44.99347" lon="6.02882">
        <ele>2295.3999023438</ele>
        <time>2021-03-21T10:14:33.000Z</time>
      </trkpt>
      <trkpt lat="44.99346" lon="6.02883">
        <ele>2295.8000488281</ele>
        <time>2021-03-21T10:14:34.000Z</time>
      </trkpt>
      <trkpt lat="44.99346" lon="6.02883">
        <ele>2296</ele>
        <time>2021-03-21T10:14:35.000Z</time>
      </trkpt>
      <trkpt lat="44.99345" lon="6.02883">
        <ele>2296.1999511719</ele>
        <time>2021-03-21T10:14:36.000Z</time>
      </trkpt>
      <trkpt lat="44.99345" lon="6.02884">
        <ele>2296.6000976562</ele>
        <time>2021-03-21T10:14:37.000Z</time>
      </trkpt>
      <trkpt lat="44.99344" lon="6.02883">
        <ele>2296.6000976562</ele>
        <time>2021-03-21T10:14:38.000Z</time>
      </trkpt>
      <trkpt lat="44.99344" lon="6.02884">
        <ele>2297</ele>
        <time>2021-03-21T10:14:39.000Z</time>
      </trkpt>
      <trkpt lat="44.99343" lon="6.02885">
        <ele>2297.1999511719</ele>
        <time>2021-03-21T10:14:40.000Z</time>
      </trkpt>
      <trkpt lat="44.99343" lon="6.02886">
        <ele>2297.6000976562</ele>
        <time>2021-03-21T10:14:41.000Z</time>
      </trkpt>
      <trkpt lat="44.99342" lon="6.02886">
        <ele>2297.8000488281</ele>
        <time>2021-03-21T10:14:42.000Z</time>
      </trkpt>
      <trkpt lat="44.99342" lon="6.02887">
        <ele>2298.1999511719</ele>
        <time>2021-03-21T10:14:43.000Z</time>
      </trkpt>
      <trkpt lat="44.99341" lon="6.02888">
        <ele>2298.6000976562</ele>
        <time>2021-03-21T10:14:44.000Z</time>
      </trkpt>
      <trkpt lat="44.9934" lon="6.02888">
        <ele>2298.8000488281</ele>
        <time>2021-03-21T10:14:45.000Z</time>
      </trkpt>
      <trkpt lat="44.9934" lon="6.02888">
        <ele>2299.1999511719</ele>
        <time>2021-03-21T10:14:46.000Z</time>
      </trkpt>
      <trkpt lat="44.99339" lon="6.02888">
        <ele>2299.3999023438</ele>
        <time>2021-03-21T10:14:47.000Z</time>
      </trkpt>
      <trkpt lat="44.99338" lon="6.02889">
        <ele>2299.8000488281</ele>
        <time>2021-03-21T10:14:48.000Z</time>
      </trkpt>
      <trkpt lat="44.99338" lon="6.02889">
        <ele>2300.1999511719</ele>
        <time>2021-03-21T10:14:49.000Z</time>
      </trkpt>
      <trkpt lat="44.99337" lon="6.0289">
        <ele>2300.3999023438</ele>
        <time>2021-03-21T10:14:50.000Z</time>
      </trkpt>
      <trkpt lat="44.99336" lon="6.0289">
        <ele>2301</ele>
        <time>2021-03-21T10:14:51.000Z</time>
      </trkpt>
      <trkpt lat="44.99336" lon="6.02891">
        <ele>2301.1999511719</ele>
        <time>2021-03-21T10:14:52.000Z</time>
      </trkpt>
      <trkpt lat="44.99335" lon="6.02891">
        <ele>2301.6000976562</ele>
        <time>2021-03-21T10:14:53.000Z</time>
      </trkpt>
      <trkpt lat="44.99335" lon="6.02891">
        <ele>2301.8000488281</ele>
        <time>2021-03-21T10:14:54.000Z</time>
      </trkpt>
      <trkpt lat="44.99334" lon="6.02892">
        <ele>2302.1999511719</ele>
        <time>2021-03-21T10:14:55.000Z</time>
      </trkpt>
      <trkpt lat="44.99334" lon="6.02892">
        <ele>2302.1999511719</ele>
        <time>2021-03-21T10:14:56.000Z</time>
      </trkpt>
      <trkpt lat="44.99333" lon="6.02892">
        <ele>2302.6000976562</ele>
        <time>2021-03-21T10:14:57.000Z</time>
      </trkpt>
      <trkpt lat="44.99333" lon="6.02893">
        <ele>2303</ele>
        <time>2021-03-21T10:14:58.000Z</time>
      </trkpt>
      <trkpt lat="44.99332" lon="6.02894">
        <ele>2303.1999511719</ele>
        <time>2021-03-21T10:14:59.000Z</time>
      </trkpt>
      <trkpt lat="44.99331" lon="6.02894">
        <ele>2303.6000976562</ele>
        <time>2021-03-21T10:15:00.000Z</time>
      </trkpt>
      <trkpt lat="44.99331" lon="6.02895">
        <ele>2304</ele>
        <time>2021-03-21T10:15:01.000Z</time>
      </trkpt>
      <trkpt lat="44.9933" lon="6.02895">
        <ele>2304.1999511719</ele>
        <time>2021-03-21T10:15:02.000Z</time>
      </trkpt>
      <trkpt lat="44.99329" lon="6.02895">
        <ele>2304.6000976562</ele>
        <time>2021-03-21T10:15:03.000Z</time>
      </trkpt>
      <trkpt lat="44.99329" lon="6.02895">
        <ele>2305</ele>
        <time>2021-03-21T10:15:04.000Z</time>
      </trkpt>
      <trkpt lat="44.99328" lon="6.02896">
        <ele>2305.3999023438</ele>
        <time>2021-03-21T10:15:05.000Z</time>
      </trkpt>
      <trkpt lat="44.99327" lon="6.02896">
        <ele>2305.8000488281</ele>
        <time>2021-03-21T10:15:06.000Z</time>
      </trkpt>
      <trkpt lat="44.99326" lon="6.02897">
        <ele>2306.1999511719</ele>
        <time>2021-03-21T10:15:07.000Z</time>
      </trkpt>
      <trkpt lat="44.99326" lon="6.02897">
        <ele>2306.6000976562</ele>
        <time>2021-03-21T10:15:08.000Z</time>
      </trkpt>
      <trkpt lat="44.99325" lon="6.02897">
        <ele>2306.8000488281</ele>
        <time>2021-03-21T10:15:09.000Z</time>
      </trkpt>
      <trkpt lat="44.99325" lon="6.02898">
        <ele>2307</ele>
        <time>2021-03-21T10:15:10.000Z</time>
      </trkpt>
      <trkpt lat="44.99325" lon="6.02898">
        <ele>2307.1999511719</ele>
        <time>2021-03-21T10:15:11.000Z</time>
      </trkpt>
      <trkpt lat="44.99324" lon="6.02899">
        <ele>2307.6000976562</ele>
        <time>2021-03-21T10:15:12.000Z</time>
      </trkpt>
      <trkpt lat="44.99324" lon="6.02899">
        <ele>2307.6000976562</ele>
        <time>2021-03-21T10:15:13.000Z</time>
      </trkpt>
      <trkpt lat="44.99323" lon="6.02899">
        <ele>2308</ele>
        <time>2021-03-21T10:15:14.000Z</time>
      </trkpt>
      <trkpt lat="44.99323" lon="6.029">
        <ele>2308.1999511719</ele>
        <time>2021-03-21T10:15:15.000Z</time>
      </trkpt>
      <trkpt lat="44.99322" lon="6.029">
        <ele>2308.6000976562</ele>
        <time>2021-03-21T10:15:16.000Z</time>
      </trkpt>
      <trkpt lat="44.99321" lon="6.029">
        <ele>2308.8000488281</ele>
        <time>2021-03-21T10:15:17.000Z</time>
      </trkpt>
      <trkpt lat="44.99321" lon="6.029">
        <ele>2309</ele>
        <time>2021-03-21T10:15:18.000Z</time>
      </trkpt>
      <trkpt lat="44.9932" lon="6.02901">
        <ele>2309.3999023438</ele>
        <time>2021-03-21T10:15:19.000Z</time>
      </trkpt>
      <trkpt lat="44.9932" lon="6.02901">
        <ele>2309.6000976562</ele>
        <time>2021-03-21T10:15:20.000Z</time>
      </trkpt>
      <trkpt lat="44.99319" lon="6.02902">
        <ele>2310</ele>
        <time>2021-03-21T10:15:21.000Z</time>
      </trkpt>
      <trkpt lat="44.99319" lon="6.02902">
        <ele>2310.1999511719</ele>
        <time>2021-03-21T10:15:22.000Z</time>
      </trkpt>
      <trkpt lat="44.99318" lon="6.02903">
        <ele>2310.6000976562</ele>
        <time>2021-03-21T10:15:23.000Z</time>
      </trkpt>
      <trkpt lat="44.99317" lon="6.02903">
        <ele>2310.8000488281</ele>
        <time>2021-03-21T10:15:24.000Z</time>
      </trkpt>
      <trkpt lat="44.99317" lon="6.02904">
        <ele>2311.1999511719</ele>
        <time>2021-03-21T10:15:25.000Z</time>
      </trkpt>
      <trkpt lat="44.99316" lon="6.02904">
        <ele>2311.3999023438</ele>
        <time>2021-03-21T10:15:26.000Z</time>
      </trkpt>
      <trkpt lat="44.99316" lon="6.02904">
        <ele>2311.6000976562</ele>
        <time>2021-03-21T10:15:27.000Z</time>
      </trkpt>
      <trkpt lat="44.99315" lon="6.02905">
        <ele>2311.8000488281</ele>
        <time>2021-03-21T10:15:28.000Z</time>
      </trkpt>
      <trkpt lat="44.99314" lon="6.02905">
        <ele>2312</ele>
        <time>2021-03-21T10:15:29.000Z</time>
      </trkpt>
      <trkpt lat="44.99314" lon="6.02906">
        <ele>2312.3999023438</ele>
        <time>2021-03-21T10:15:30.000Z</time>
      </trkpt>
      <trkpt lat="44.99313" lon="6.02906">
        <ele>2312.6000976562</ele>
        <time>2021-03-21T10:15:31.000Z</time>
      </trkpt>
      <trkpt lat="44.99313" lon="6.02906">
        <ele>2312.8000488281</ele>
        <time>2021-03-21T10:15:32.000Z</time>
      </trkpt>
      <trkpt lat="44.99312" lon="6.02907">
        <ele>2313</ele>
        <time>2021-03-21T10:15:33.000Z</time>
      </trkpt>
      <trkpt lat="44.99312" lon="6.02907">
        <ele>2313.1999511719</ele>
        <time>2021-03-21T10:15:34.000Z</time>
      </trkpt>
      <trkpt lat="44.99311" lon="6.02907">
        <ele>2313.6000976562</ele>
        <time>2021-03-21T10:15:35.000Z</time>
      </trkpt>
      <trkpt lat="44.99311" lon="6.02908">
        <ele>2313.8000488281</ele>
        <time>2021-03-21T10:15:36.000Z</time>
      </trkpt>
      <trkpt lat="44.9931" lon="6.02908">
        <ele>2314</ele>
        <time>2021-03-21T10:15:37.000Z</time>
      </trkpt>
      <trkpt lat="44.99309" lon="6.02908">
        <ele>2314.3999023438</ele>
        <time>2021-03-21T10:15:38.000Z</time>
      </trkpt>
      <trkpt lat="44.99309" lon="6.02909">
        <ele>2314.6000976562</ele>
        <time>2021-03-21T10:15:39.000Z</time>
      </trkpt>
      <trkpt lat="44.99308" lon="6.02909">
        <ele>2315</ele>
        <time>2021-03-21T10:15:40.000Z</time>
      </trkpt>
      <trkpt lat="44.99307" lon="6.0291">
        <ele>2315.3999023438</ele>
        <time>2021-03-21T10:15:41.000Z</time>
      </trkpt>
      <trkpt lat="44.99306" lon="6.0291">
        <ele>2315.6000976562</ele>
        <time>2021-03-21T10:15:42.000Z</time>
      </trkpt>
      <trkpt lat="44.99305" lon="6.02911">
        <ele>2316</ele>
        <time>2021-03-21T10:15:43.000Z</time>
      </trkpt>
      <trkpt lat="44.99305" lon="6.02911">
        <ele>2316.3999023438</ele>
        <time>2021-03-21T10:15:44.000Z</time>
      </trkpt>
      <trkpt lat="44.99304" lon="6.02911">
        <ele>2316.6000976562</ele>
        <time>2021-03-21T10:15:45.000Z</time>
      </trkpt>
      <trkpt lat="44.99303" lon="6.02911">
        <ele>2317</ele>
        <time>2021-03-21T10:15:46.000Z</time>
      </trkpt>
      <trkpt lat="44.99302" lon="6.02912">
        <ele>2317.3999023438</ele>
        <time>2021-03-21T10:15:47.000Z</time>
      </trkpt>
      <trkpt lat="44.99301" lon="6.02912">
        <ele>2317.8000488281</ele>
        <time>2021-03-21T10:15:48.000Z</time>
      </trkpt>
      <trkpt lat="44.993" lon="6.02913">
        <ele>2318.1999511719</ele>
        <time>2021-03-21T10:15:49.000Z</time>
      </trkpt>
      <trkpt lat="44.99299" lon="6.02913">
        <ele>2318.6000976562</ele>
        <time>2021-03-21T10:15:50.000Z</time>
      </trkpt>
      <trkpt lat="44.99299" lon="6.02914">
        <ele>2318.8000488281</ele>
        <time>2021-03-21T10:15:51.000Z</time>
      </trkpt>
      <trkpt lat="44.99298" lon="6.02914">
        <ele>2319</ele>
        <time>2021-03-21T10:15:52.000Z</time>
      </trkpt>
      <trkpt lat="44.99297" lon="6.02915">
        <ele>2319.1999511719</ele>
        <time>2021-03-21T10:15:53.000Z</time>
      </trkpt>
      <trkpt lat="44.99296" lon="6.02916">
        <ele>2319.3999023438</ele>
        <time>2021-03-21T10:15:54.000Z</time>
      </trkpt>
      <trkpt lat="44.99295" lon="6.02916">
        <ele>2319.8000488281</ele>
        <time>2021-03-21T10:15:55.000Z</time>
      </trkpt>
      <trkpt lat="44.99295" lon="6.02917">
        <ele>2320</ele>
        <time>2021-03-21T10:15:56.000Z</time>
      </trkpt>
      <trkpt lat="44.99294" lon="6.02917">
        <ele>2320.1999511719</ele>
        <time>2021-03-21T10:15:57.000Z</time>
      </trkpt>
      <trkpt lat="44.99294" lon="6.02917">
        <ele>2320.1999511719</ele>
        <time>2021-03-21T10:15:58.000Z</time>
      </trkpt>
      <trkpt lat="44.99294" lon="6.02918">
        <ele>2320.1999511719</ele>
        <time>2021-03-21T10:15:59.000Z</time>
      </trkpt>
      <trkpt lat="44.99294" lon="6.02919">
        <ele>2320.1999511719</ele>
        <time>2021-03-21T10:16:00.000Z</time>
      </trkpt>
      <trkpt lat="44.99293" lon="6.0292">
        <ele>2320.3999023438</ele>
        <time>2021-03-21T10:16:01.000Z</time>
      </trkpt>
      <trkpt lat="44.99293" lon="6.0292">
        <ele>2320.3999023438</ele>
        <time>2021-03-21T10:16:02.000Z</time>
      </trkpt>
      <trkpt lat="44.99292" lon="6.02921">
        <ele>2320.6000976562</ele>
        <time>2021-03-21T10:16:03.000Z</time>
      </trkpt>
      <trkpt lat="44.99291" lon="6.02922">
        <ele>2320.8000488281</ele>
        <time>2021-03-21T10:16:04.000Z</time>
      </trkpt>
      <trkpt lat="44.9929" lon="6.02923">
        <ele>2320.8000488281</ele>
        <time>2021-03-21T10:16:05.000Z</time>
      </trkpt>
      <trkpt lat="44.99289" lon="6.02923">
        <ele>2320.8000488281</ele>
        <time>2021-03-21T10:16:06.000Z</time>
      </trkpt>
      <trkpt lat="44.99289" lon="6.02924">
        <ele>2320.8000488281</ele>
        <time>2021-03-21T10:16:07.000Z</time>
      </trkpt>
      <trkpt lat="44.99288" lon="6.02924">
        <ele>2321</ele>
        <time>2021-03-21T10:16:08.000Z</time>
      </trkpt>
      <trkpt lat="44.99287" lon="6.02925">
        <ele>2321</ele>
        <time>2021-03-21T10:16:09.000Z</time>
      </trkpt>
      <trkpt lat="44.99286" lon="6.02926">
        <ele>2321</ele>
        <time>2021-03-21T10:16:10.000Z</time>
      </trkpt>
      <trkpt lat="44.99286" lon="6.02926">
        <ele>2321</ele>
        <time>2021-03-21T10:16:11.000Z</time>
      </trkpt>
      <trkpt lat="44.99285" lon="6.02926">
        <ele>2321.1999511719</ele>
        <time>2021-03-21T10:16:12.000Z</time>
      </trkpt>
      <trkpt lat="44.99284" lon="6.02927">
        <ele>2321.3999023438</ele>
        <time>2021-03-21T10:16:13.000Z</time>
      </trkpt>
      <trkpt lat="44.99283" lon="6.02927">
        <ele>2321.6000976562</ele>
        <time>2021-03-21T10:16:14.000Z</time>
      </trkpt>
      <trkpt lat="44.99283" lon="6.02928">
        <ele>2321.8000488281</ele>
        <time>2021-03-21T10:16:15.000Z</time>
      </trkpt>
      <trkpt lat="44.99282" lon="6.02929">
        <ele>2322</ele>
        <time>2021-03-21T10:16:16.000Z</time>
      </trkpt>
      <trkpt lat="44.99281" lon="6.02929">
        <ele>2322.1999511719</ele>
        <time>2021-03-21T10:16:17.000Z</time>
      </trkpt>
      <trkpt lat="44.9928" lon="6.0293">
        <ele>2322.3999023438</ele>
        <time>2021-03-21T10:16:18.000Z</time>
      </trkpt>
      <trkpt lat="44.99279" lon="6.0293">
        <ele>2322.6000976562</ele>
        <time>2021-03-21T10:16:19.000Z</time>
      </trkpt>
      <trkpt lat="44.99278" lon="6.02931">
        <ele>2322.8000488281</ele>
        <time>2021-03-21T10:16:20.000Z</time>
      </trkpt>
      <trkpt lat="44.99278" lon="6.02931">
        <ele>2323</ele>
        <time>2021-03-21T10:16:21.000Z</time>
      </trkpt>
      <trkpt lat="44.99276" lon="6.02932">
        <ele>2323.1999511719</ele>
        <time>2021-03-21T10:16:22.000Z</time>
      </trkpt>
      <trkpt lat="44.99275" lon="6.02933">
        <ele>2323.1999511719</ele>
        <time>2021-03-21T10:16:23.000Z</time>
      </trkpt>
      <trkpt lat="44.99274" lon="6.02933">
        <ele>2323.3999023438</ele>
        <time>2021-03-21T10:16:24.000Z</time>
      </trkpt>
      <trkpt lat="44.99273" lon="6.02934">
        <ele>2323.3999023438</ele>
        <time>2021-03-21T10:16:25.000Z</time>
      </trkpt>
      <trkpt lat="44.99272" lon="6.02935">
        <ele>2323.3999023438</ele>
        <time>2021-03-21T10:16:26.000Z</time>
      </trkpt>
      <trkpt lat="44.99272" lon="6.02935">
        <ele>2323.6000976562</ele>
        <time>2021-03-21T10:16:27.000Z</time>
      </trkpt>
      <trkpt lat="44.99271" lon="6.02936">
        <ele>2323.6000976562</ele>
        <time>2021-03-21T10:16:28.000Z</time>
      </trkpt>
      <trkpt lat="44.9927" lon="6.02937">
        <ele>2323.8000488281</ele>
        <time>2021-03-21T10:16:29.000Z</time>
      </trkpt>
      <trkpt lat="44.99269" lon="6.02937">
        <ele>2323.8000488281</ele>
        <time>2021-03-21T10:16:30.000Z</time>
      </trkpt>
      <trkpt lat="44.99269" lon="6.02938">
        <ele>2324</ele>
        <time>2021-03-21T10:16:31.000Z</time>
      </trkpt>
      <trkpt lat="44.99268" lon="6.02938">
        <ele>2324.1999511719</ele>
        <time>2021-03-21T10:16:32.000Z</time>
      </trkpt>
      <trkpt lat="44.99267" lon="6.02939">
        <ele>2324.6000976562</ele>
        <time>2021-03-21T10:16:33.000Z</time>
      </trkpt>
      <trkpt lat="44.99267" lon="6.0294">
        <ele>2324.6000976562</ele>
        <time>2021-03-21T10:16:34.000Z</time>
      </trkpt>
      <trkpt lat="44.99266" lon="6.0294">
        <ele>2325</ele>
        <time>2021-03-21T10:16:35.000Z</time>
      </trkpt>
      <trkpt lat="44.99265" lon="6.02941">
        <ele>2325.1999511719</ele>
        <time>2021-03-21T10:16:36.000Z</time>
      </trkpt>
      <trkpt lat="44.99264" lon="6.02941">
        <ele>2325.3999023438</ele>
        <time>2021-03-21T10:16:37.000Z</time>
      </trkpt>
      <trkpt lat="44.99264" lon="6.02942">
        <ele>2325.6000976562</ele>
        <time>2021-03-21T10:16:38.000Z</time>
      </trkpt>
      <trkpt lat="44.99263" lon="6.02943">
        <ele>2325.8000488281</ele>
        <time>2021-03-21T10:16:39.000Z</time>
      </trkpt>
      <trkpt lat="44.99263" lon="6.02943">
        <ele>2325.8000488281</ele>
        <time>2021-03-21T10:16:40.000Z</time>
      </trkpt>
      <trkpt lat="44.99262" lon="6.02944">
        <ele>2326</ele>
        <time>2021-03-21T10:16:41.000Z</time>
      </trkpt>
      <trkpt lat="44.99262" lon="6.02944">
        <ele>2326.1999511719</ele>
        <time>2021-03-21T10:16:42.000Z</time>
      </trkpt>
      <trkpt lat="44.99261" lon="6.02944">
        <ele>2326.3999023438</ele>
        <time>2021-03-21T10:16:43.000Z</time>
      </trkpt>
      <trkpt lat="44.9926" lon="6.02945">
        <ele>2326.3999023438</ele>
        <time>2021-03-21T10:16:44.000Z</time>
      </trkpt>
      <trkpt lat="44.99259" lon="6.02945">
        <ele>2326.6000976562</ele>
        <time>2021-03-21T10:16:45.000Z</time>
      </trkpt>
      <trkpt lat="44.99258" lon="6.02946">
        <ele>2326.8000488281</ele>
        <time>2021-03-21T10:16:46.000Z</time>
      </trkpt>
      <trkpt lat="44.99257" lon="6.02946">
        <ele>2327</ele>
        <time>2021-03-21T10:16:47.000Z</time>
      </trkpt>
      <trkpt lat="44.99257" lon="6.02947">
        <ele>2327.1999511719</ele>
        <time>2021-03-21T10:16:48.000Z</time>
      </trkpt>
      <trkpt lat="44.99256" lon="6.02947">
        <ele>2327.3999023438</ele>
        <time>2021-03-21T10:16:49.000Z</time>
      </trkpt>
      <trkpt lat="44.99255" lon="6.02948">
        <ele>2327.6000976562</ele>
        <time>2021-03-21T10:16:50.000Z</time>
      </trkpt>
      <trkpt lat="44.99254" lon="6.02949">
        <ele>2327.8000488281</ele>
        <time>2021-03-21T10:16:51.000Z</time>
      </trkpt>
      <trkpt lat="44.99253" lon="6.0295">
        <ele>2328.1999511719</ele>
        <time>2021-03-21T10:16:52.000Z</time>
      </trkpt>
      <trkpt lat="44.99252" lon="6.0295">
        <ele>2328.6000976562</ele>
        <time>2021-03-21T10:16:53.000Z</time>
      </trkpt>
      <trkpt lat="44.99251" lon="6.02951">
        <ele>2329</ele>
        <time>2021-03-21T10:16:54.000Z</time>
      </trkpt>
      <trkpt lat="44.9925" lon="6.02951">
        <ele>2329.3999023438</ele>
        <time>2021-03-21T10:16:55.000Z</time>
      </trkpt>
      <trkpt lat="44.99249" lon="6.02952">
        <ele>2329.8000488281</ele>
        <time>2021-03-21T10:16:56.000Z</time>
      </trkpt>
      <trkpt lat="44.99248" lon="6.02953">
        <ele>2330.3999023438</ele>
        <time>2021-03-21T10:16:57.000Z</time>
      </trkpt>
      <trkpt lat="44.99248" lon="6.02954">
        <ele>2330.8000488281</ele>
        <time>2021-03-21T10:16:58.000Z</time>
      </trkpt>
      <trkpt lat="44.99247" lon="6.02954">
        <ele>2331</ele>
        <time>2021-03-21T10:16:59.000Z</time>
      </trkpt>
      <trkpt lat="44.99247" lon="6.02954">
        <ele>2331.1999511719</ele>
        <time>2021-03-21T10:17:00.000Z</time>
      </trkpt>
      <trkpt lat="44.99246" lon="6.02955">
        <ele>2331.8000488281</ele>
        <time>2021-03-21T10:17:01.000Z</time>
      </trkpt>
      <trkpt lat="44.99245" lon="6.02956">
        <ele>2332.1999511719</ele>
        <time>2021-03-21T10:17:02.000Z</time>
      </trkpt>
      <trkpt lat="44.99244" lon="6.02957">
        <ele>2332.6000976562</ele>
        <time>2021-03-21T10:17:03.000Z</time>
      </trkpt>
      <trkpt lat="44.99243" lon="6.02957">
        <ele>2332.8000488281</ele>
        <time>2021-03-21T10:17:04.000Z</time>
      </trkpt>
      <trkpt lat="44.99242" lon="6.02958">
        <ele>2333.1999511719</ele>
        <time>2021-03-21T10:17:05.000Z</time>
      </trkpt>
      <trkpt lat="44.99241" lon="6.02959">
        <ele>2333.8000488281</ele>
        <time>2021-03-21T10:17:06.000Z</time>
      </trkpt>
      <trkpt lat="44.99241" lon="6.02959">
        <ele>2334.1999511719</ele>
        <time>2021-03-21T10:17:07.000Z</time>
      </trkpt>
      <trkpt lat="44.9924" lon="6.0296">
        <ele>2334.3999023438</ele>
        <time>2021-03-21T10:17:08.000Z</time>
      </trkpt>
      <trkpt lat="44.99239" lon="6.02961">
        <ele>2334.6000976562</ele>
        <time>2021-03-21T10:17:09.000Z</time>
      </trkpt>
      <trkpt lat="44.99238" lon="6.02962">
        <ele>2335</ele>
        <time>2021-03-21T10:17:10.000Z</time>
      </trkpt>
      <trkpt lat="44.99237" lon="6.02963">
        <ele>2335.3999023438</ele>
        <time>2021-03-21T10:17:11.000Z</time>
      </trkpt>
      <trkpt lat="44.99236" lon="6.02963">
        <ele>2335.8000488281</ele>
        <time>2021-03-21T10:17:12.000Z</time>
      </trkpt>
      <trkpt lat="44.99235" lon="6.02964">
        <ele>2335.8000488281</ele>
        <time>2021-03-21T10:17:13.000Z</time>
      </trkpt>
      <trkpt lat="44.99235" lon="6.02965">
        <ele>2336</ele>
        <time>2021-03-21T10:17:14.000Z</time>
      </trkpt>
      <trkpt lat="44.99234" lon="6.02965">
        <ele>2336.1999511719</ele>
        <time>2021-03-21T10:17:15.000Z</time>
      </trkpt>
      <trkpt lat="44.99233" lon="6.02966">
        <ele>2336.1999511719</ele>
        <time>2021-03-21T10:17:16.000Z</time>
      </trkpt>
      <trkpt lat="44.99232" lon="6.02967">
        <ele>2336.3999023438</ele>
        <time>2021-03-21T10:17:17.000Z</time>
      </trkpt>
      <trkpt lat="44.99231" lon="6.02968">
        <ele>2336.6000976562</ele>
        <time>2021-03-21T10:17:18.000Z</time>
      </trkpt>
      <trkpt lat="44.9923" lon="6.02969">
        <ele>2336.8000488281</ele>
        <time>2021-03-21T10:17:19.000Z</time>
      </trkpt>
      <trkpt lat="44.99229" lon="6.0297">
        <ele>2337</ele>
        <time>2021-03-21T10:17:20.000Z</time>
      </trkpt>
      <trkpt lat="44.99228" lon="6.02971">
        <ele>2337.1999511719</ele>
        <time>2021-03-21T10:17:21.000Z</time>
      </trkpt>
      <trkpt lat="44.99227" lon="6.02971">
        <ele>2337.3999023438</ele>
        <time>2021-03-21T10:17:22.000Z</time>
      </trkpt>
      <trkpt lat="44.99226" lon="6.02972">
        <ele>2337.6000976562</ele>
        <time>2021-03-21T10:17:23.000Z</time>
      </trkpt>
      <trkpt lat="44.99225" lon="6.02972">
        <ele>2337.8000488281</ele>
        <time>2021-03-21T10:17:24.000Z</time>
      </trkpt>
      <trkpt lat="44.99225" lon="6.02972">
        <ele>2337.8000488281</ele>
        <time>2021-03-21T10:17:25.000Z</time>
      </trkpt>
      <trkpt lat="44.99225" lon="6.02972">
        <ele>2338</ele>
        <time>2021-03-21T10:17:26.000Z</time>
      </trkpt>
      <trkpt lat="44.99224" lon="6.02973">
        <ele>2338</ele>
        <time>2021-03-21T10:17:27.000Z</time>
      </trkpt>
      <trkpt lat="44.99223" lon="6.02973">
        <ele>2338.1999511719</ele>
        <time>2021-03-21T10:17:28.000Z</time>
      </trkpt>
      <trkpt lat="44.99223" lon="6.02974">
        <ele>2338.3999023438</ele>
        <time>2021-03-21T10:17:29.000Z</time>
      </trkpt>
      <trkpt lat="44.99222" lon="6.02974">
        <ele>2338.3999023438</ele>
        <time>2021-03-21T10:17:30.000Z</time>
      </trkpt>
      <trkpt lat="44.99222" lon="6.02974">
        <ele>2338.8000488281</ele>
        <time>2021-03-21T10:17:31.000Z</time>
      </trkpt>
      <trkpt lat="44.99221" lon="6.02974">
        <ele>2339</ele>
        <time>2021-03-21T10:17:32.000Z</time>
      </trkpt>
      <trkpt lat="44.99221" lon="6.02975">
        <ele>2339.1999511719</ele>
        <time>2021-03-21T10:17:33.000Z</time>
      </trkpt>
      <trkpt lat="44.9922" lon="6.02975">
        <ele>2339.3999023438</ele>
        <time>2021-03-21T10:17:34.000Z</time>
      </trkpt>
      <trkpt lat="44.9922" lon="6.02976">
        <ele>2339.6000976562</ele>
        <time>2021-03-21T10:17:35.000Z</time>
      </trkpt>
      <trkpt lat="44.99219" lon="6.02976">
        <ele>2340</ele>
        <time>2021-03-21T10:17:36.000Z</time>
      </trkpt>
      <trkpt lat="44.99219" lon="6.02977">
        <ele>2340.1999511719</ele>
        <time>2021-03-21T10:17:37.000Z</time>
      </trkpt>
      <trkpt lat="44.99218" lon="6.02977">
        <ele>2340.6000976562</ele>
        <time>2021-03-21T10:17:38.000Z</time>
      </trkpt>
      <trkpt lat="44.99218" lon="6.02978">
        <ele>2340.8000488281</ele>
        <time>2021-03-21T10:17:39.000Z</time>
      </trkpt>
      <trkpt lat="44.99217" lon="6.02978">
        <ele>2341.1999511719</ele>
        <time>2021-03-21T10:17:40.000Z</time>
      </trkpt>
      <trkpt lat="44.99217" lon="6.02979">
        <ele>2341.3999023438</ele>
        <time>2021-03-21T10:17:41.000Z</time>
      </trkpt>
      <trkpt lat="44.99216" lon="6.02979">
        <ele>2341.8000488281</ele>
        <time>2021-03-21T10:17:42.000Z</time>
      </trkpt>
      <trkpt lat="44.99215" lon="6.02979">
        <ele>2342.1999511719</ele>
        <time>2021-03-21T10:17:43.000Z</time>
      </trkpt>
      <trkpt lat="44.99214" lon="6.02979">
        <ele>2342.3999023438</ele>
        <time>2021-03-21T10:17:44.000Z</time>
      </trkpt>
      <trkpt lat="44.99214" lon="6.02979">
        <ele>2342.8000488281</ele>
        <time>2021-03-21T10:17:45.000Z</time>
      </trkpt>
      <trkpt lat="44.99213" lon="6.02978">
        <ele>2342.8000488281</ele>
        <time>2021-03-21T10:17:46.000Z</time>
      </trkpt>
      <trkpt lat="44.99213" lon="6.02978">
        <ele>2343</ele>
        <time>2021-03-21T10:17:47.000Z</time>
      </trkpt>
      <trkpt lat="44.99212" lon="6.02977">
        <ele>2343.3999023438</ele>
        <time>2021-03-21T10:17:48.000Z</time>
      </trkpt>
      <trkpt lat="44.99211" lon="6.02977">
        <ele>2343.3999023438</ele>
        <time>2021-03-21T10:17:49.000Z</time>
      </trkpt>
      <trkpt lat="44.99211" lon="6.02976">
        <ele>2343.6000976562</ele>
        <time>2021-03-21T10:17:50.000Z</time>
      </trkpt>
      <trkpt lat="44.9921" lon="6.02976">
        <ele>2343.8000488281</ele>
        <time>2021-03-21T10:17:51.000Z</time>
      </trkpt>
      <trkpt lat="44.9921" lon="6.02975">
        <ele>2344</ele>
        <time>2021-03-21T10:17:52.000Z</time>
      </trkpt>
      <trkpt lat="44.9921" lon="6.02974">
        <ele>2344</ele>
        <time>2021-03-21T10:17:53.000Z</time>
      </trkpt>
      <trkpt lat="44.99209" lon="6.02974">
        <ele>2344.1999511719</ele>
        <time>2021-03-21T10:17:54.000Z</time>
      </trkpt>
      <trkpt lat="44.99208" lon="6.02974">
        <ele>2344.3999023438</ele>
        <time>2021-03-21T10:17:55.000Z</time>
      </trkpt>
      <trkpt lat="44.99208" lon="6.02973">
        <ele>2344.6000976562</ele>
        <time>2021-03-21T10:17:56.000Z</time>
      </trkpt>
      <trkpt lat="44.99207" lon="6.02973">
        <ele>2344.8000488281</ele>
        <time>2021-03-21T10:17:57.000Z</time>
      </trkpt>
      <trkpt lat="44.99207" lon="6.02972">
        <ele>2344.8000488281</ele>
        <time>2021-03-21T10:17:58.000Z</time>
      </trkpt>
      <trkpt lat="44.99206" lon="6.02972">
        <ele>2345</ele>
        <time>2021-03-21T10:17:59.000Z</time>
      </trkpt>
      <trkpt lat="44.99206" lon="6.02972">
        <ele>2345</ele>
        <time>2021-03-21T10:18:00.000Z</time>
      </trkpt>
      <trkpt lat="44.99205" lon="6.02971">
        <ele>2345.1999511719</ele>
        <time>2021-03-21T10:18:01.000Z</time>
      </trkpt>
      <trkpt lat="44.99205" lon="6.02971">
        <ele>2345.3999023438</ele>
        <time>2021-03-21T10:18:02.000Z</time>
      </trkpt>
      <trkpt lat="44.99204" lon="6.0297">
        <ele>2345.6000976562</ele>
        <time>2021-03-21T10:18:03.000Z</time>
      </trkpt>
      <trkpt lat="44.99203" lon="6.0297">
        <ele>2345.8000488281</ele>
        <time>2021-03-21T10:18:04.000Z</time>
      </trkpt>
      <trkpt lat="44.99203" lon="6.0297">
        <ele>2346</ele>
        <time>2021-03-21T10:18:05.000Z</time>
      </trkpt>
      <trkpt lat="44.99202" lon="6.0297">
        <ele>2346.1999511719</ele>
        <time>2021-03-21T10:18:06.000Z</time>
      </trkpt>
      <trkpt lat="44.99201" lon="6.0297">
        <ele>2346.3999023438</ele>
        <time>2021-03-21T10:18:07.000Z</time>
      </trkpt>
      <trkpt lat="44.992" lon="6.02969">
        <ele>2346.6000976562</ele>
        <time>2021-03-21T10:18:08.000Z</time>
      </trkpt>
      <trkpt lat="44.992" lon="6.0297">
        <ele>2346.8000488281</ele>
        <time>2021-03-21T10:18:09.000Z</time>
      </trkpt>
      <trkpt lat="44.99199" lon="6.02969">
        <ele>2347</ele>
        <time>2021-03-21T10:18:10.000Z</time>
      </trkpt>
      <trkpt lat="44.99199" lon="6.02969">
        <ele>2347.1999511719</ele>
        <time>2021-03-21T10:18:11.000Z</time>
      </trkpt>
      <trkpt lat="44.99198" lon="6.02969">
        <ele>2347.3999023438</ele>
        <time>2021-03-21T10:18:12.000Z</time>
      </trkpt>
      <trkpt lat="44.99197" lon="6.02969">
        <ele>2347.6000976562</ele>
        <time>2021-03-21T10:18:13.000Z</time>
      </trkpt>
      <trkpt lat="44.99196" lon="6.02969">
        <ele>2348</ele>
        <time>2021-03-21T10:18:14.000Z</time>
      </trkpt>
      <trkpt lat="44.99196" lon="6.02969">
        <ele>2348.1999511719</ele>
        <time>2021-03-21T10:18:15.000Z</time>
      </trkpt>
      <trkpt lat="44.99195" lon="6.0297">
        <ele>2348.3999023438</ele>
        <time>2021-03-21T10:18:16.000Z</time>
      </trkpt>
      <trkpt lat="44.99194" lon="6.02969">
        <ele>2348.6000976562</ele>
        <time>2021-03-21T10:18:17.000Z</time>
      </trkpt>
      <trkpt lat="44.99194" lon="6.02969">
        <ele>2348.8000488281</ele>
        <time>2021-03-21T10:18:18.000Z</time>
      </trkpt>
      <trkpt lat="44.99193" lon="6.02969">
        <ele>2349</ele>
        <time>2021-03-21T10:18:19.000Z</time>
      </trkpt>
      <trkpt lat="44.99193" lon="6.02969">
        <ele>2349</ele>
        <time>2021-03-21T10:18:20.000Z</time>
      </trkpt>
      <trkpt lat="44.99192" lon="6.02969">
        <ele>2349.1999511719</ele>
        <time>2021-03-21T10:18:21.000Z</time>
      </trkpt>
      <trkpt lat="44.99192" lon="6.02969">
        <ele>2349.3999023438</ele>
        <time>2021-03-21T10:18:22.000Z</time>
      </trkpt>
      <trkpt lat="44.99191" lon="6.02968">
        <ele>2349.6000976562</ele>
        <time>2021-03-21T10:18:23.000Z</time>
      </trkpt>
      <trkpt lat="44.99191" lon="6.02968">
        <ele>2349.6000976562</ele>
        <time>2021-03-21T10:18:24.000Z</time>
      </trkpt>
      <trkpt lat="44.9919" lon="6.02968">
        <ele>2349.8000488281</ele>
        <time>2021-03-21T10:18:25.000Z</time>
      </trkpt>
      <trkpt lat="44.99189" lon="6.02968">
        <ele>2350</ele>
        <time>2021-03-21T10:18:26.000Z</time>
      </trkpt>
      <trkpt lat="44.99188" lon="6.02968">
        <ele>2350.3999023438</ele>
        <time>2021-03-21T10:18:27.000Z</time>
      </trkpt>
      <trkpt lat="44.99187" lon="6.02968">
        <ele>2351</ele>
        <time>2021-03-21T10:18:28.000Z</time>
      </trkpt>
      <trkpt lat="44.99187" lon="6.02968">
        <ele>2351.3999023438</ele>
        <time>2021-03-21T10:18:29.000Z</time>
      </trkpt>
      <trkpt lat="44.99186" lon="6.02969">
        <ele>2352</ele>
        <time>2021-03-21T10:18:30.000Z</time>
      </trkpt>
      <trkpt lat="44.99185" lon="6.02969">
        <ele>2352.3999023438</ele>
        <time>2021-03-21T10:18:31.000Z</time>
      </trkpt>
      <trkpt lat="44.99184" lon="6.02969">
        <ele>2352.8000488281</ele>
        <time>2021-03-21T10:18:32.000Z</time>
      </trkpt>
      <trkpt lat="44.99183" lon="6.02969">
        <ele>2353.1999511719</ele>
        <time>2021-03-21T10:18:33.000Z</time>
      </trkpt>
      <trkpt lat="44.99183" lon="6.0297">
        <ele>2353.6000976562</ele>
        <time>2021-03-21T10:18:34.000Z</time>
      </trkpt>
      <trkpt lat="44.99182" lon="6.0297">
        <ele>2353.8000488281</ele>
        <time>2021-03-21T10:18:35.000Z</time>
      </trkpt>
      <trkpt lat="44.99182" lon="6.02968">
        <ele>2353.6000976562</ele>
        <time>2021-03-21T10:18:36.000Z</time>
      </trkpt>
      <trkpt lat="44.99181" lon="6.02969">
        <ele>2354</ele>
        <time>2021-03-21T10:18:37.000Z</time>
      </trkpt>
      <trkpt lat="44.9918" lon="6.02969">
        <ele>2354.3999023438</ele>
        <time>2021-03-21T10:18:38.000Z</time>
      </trkpt>
      <trkpt lat="44.99179" lon="6.02968">
        <ele>2354.6000976562</ele>
        <time>2021-03-21T10:18:39.000Z</time>
      </trkpt>
      <trkpt lat="44.99179" lon="6.02968">
        <ele>2354.6000976562</ele>
        <time>2021-03-21T10:18:40.000Z</time>
      </trkpt>
      <trkpt lat="44.99178" lon="6.02968">
        <ele>2354.6000976562</ele>
        <time>2021-03-21T10:18:41.000Z</time>
      </trkpt>
      <trkpt lat="44.99177" lon="6.02968">
        <ele>2354.8000488281</ele>
        <time>2021-03-21T10:18:42.000Z</time>
      </trkpt>
      <trkpt lat="44.99177" lon="6.02967">
        <ele>2354.6000976562</ele>
        <time>2021-03-21T10:18:43.000Z</time>
      </trkpt>
      <trkpt lat="44.99176" lon="6.02967">
        <ele>2354.6000976562</ele>
        <time>2021-03-21T10:18:44.000Z</time>
      </trkpt>
      <trkpt lat="44.99176" lon="6.02966">
        <ele>2354.3999023438</ele>
        <time>2021-03-21T10:18:45.000Z</time>
      </trkpt>
      <trkpt lat="44.99175" lon="6.02966">
        <ele>2354.6000976562</ele>
        <time>2021-03-21T10:18:46.000Z</time>
      </trkpt>
      <trkpt lat="44.99174" lon="6.02966">
        <ele>2354.8000488281</ele>
        <time>2021-03-21T10:18:47.000Z</time>
      </trkpt>
      <trkpt lat="44.99174" lon="6.02965">
        <ele>2354.8000488281</ele>
        <time>2021-03-21T10:18:48.000Z</time>
      </trkpt>
      <trkpt lat="44.99173" lon="6.02965">
        <ele>2354.8000488281</ele>
        <time>2021-03-21T10:18:49.000Z</time>
      </trkpt>
      <trkpt lat="44.99172" lon="6.02965">
        <ele>2355</ele>
        <time>2021-03-21T10:18:50.000Z</time>
      </trkpt>
      <trkpt lat="44.99171" lon="6.02965">
        <ele>2355</ele>
        <time>2021-03-21T10:18:51.000Z</time>
      </trkpt>
      <trkpt lat="44.99171" lon="6.02965">
        <ele>2355.1999511719</ele>
        <time>2021-03-21T10:18:52.000Z</time>
      </trkpt>
      <trkpt lat="44.9917" lon="6.02964">
        <ele>2355.1999511719</ele>
        <time>2021-03-21T10:18:53.000Z</time>
      </trkpt>
      <trkpt lat="44.99169" lon="6.02965">
        <ele>2355.3999023438</ele>
        <time>2021-03-21T10:18:54.000Z</time>
      </trkpt>
      <trkpt lat="44.99169" lon="6.02964">
        <ele>2355.3999023438</ele>
        <time>2021-03-21T10:18:55.000Z</time>
      </trkpt>
      <trkpt lat="44.99168" lon="6.02964">
        <ele>2355.3999023438</ele>
        <time>2021-03-21T10:18:56.000Z</time>
      </trkpt>
      <trkpt lat="44.99167" lon="6.02964">
        <ele>2355.6000976562</ele>
        <time>2021-03-21T10:18:57.000Z</time>
      </trkpt>
      <trkpt lat="44.99167" lon="6.02964">
        <ele>2355.6000976562</ele>
        <time>2021-03-21T10:18:58.000Z</time>
      </trkpt>
      <trkpt lat="44.99166" lon="6.02964">
        <ele>2355.8000488281</ele>
        <time>2021-03-21T10:18:59.000Z</time>
      </trkpt>
      <trkpt lat="44.99165" lon="6.02964">
        <ele>2356</ele>
        <time>2021-03-21T10:19:00.000Z</time>
      </trkpt>
      <trkpt lat="44.99165" lon="6.02964">
        <ele>2356</ele>
        <time>2021-03-21T10:19:01.000Z</time>
      </trkpt>
      <trkpt lat="44.99164" lon="6.02964">
        <ele>2356</ele>
        <time>2021-03-21T10:19:02.000Z</time>
      </trkpt>
      <trkpt lat="44.99163" lon="6.02963">
        <ele>2356.1999511719</ele>
        <time>2021-03-21T10:19:03.000Z</time>
      </trkpt>
      <trkpt lat="44.99163" lon="6.02963">
        <ele>2356.1999511719</ele>
        <time>2021-03-21T10:19:04.000Z</time>
      </trkpt>
      <trkpt lat="44.99162" lon="6.02963">
        <ele>2356.1999511719</ele>
        <time>2021-03-21T10:19:05.000Z</time>
      </trkpt>
      <trkpt lat="44.99161" lon="6.02963">
        <ele>2356.3999023438</ele>
        <time>2021-03-21T10:19:06.000Z</time>
      </trkpt>
      <trkpt lat="44.99161" lon="6.02963">
        <ele>2356.3999023438</ele>
        <time>2021-03-21T10:19:07.000Z</time>
      </trkpt>
      <trkpt lat="44.9916" lon="6.02963">
        <ele>2356.6000976562</ele>
        <time>2021-03-21T10:19:08.000Z</time>
      </trkpt>
      <trkpt lat="44.99159" lon="6.02963">
        <ele>2356.6000976562</ele>
        <time>2021-03-21T10:19:09.000Z</time>
      </trkpt>
      <trkpt lat="44.99158" lon="6.02963">
        <ele>2356.8000488281</ele>
        <time>2021-03-21T10:19:10.000Z</time>
      </trkpt>
      <trkpt lat="44.99158" lon="6.02963">
        <ele>2357</ele>
        <time>2021-03-21T10:19:11.000Z</time>
      </trkpt>
      <trkpt lat="44.99157" lon="6.02963">
        <ele>2357.1999511719</ele>
        <time>2021-03-21T10:19:12.000Z</time>
      </trkpt>
      <trkpt lat="44.99156" lon="6.02963">
        <ele>2357.1999511719</ele>
        <time>2021-03-21T10:19:13.000Z</time>
      </trkpt>
      <trkpt lat="44.99156" lon="6.02963">
        <ele>2357.3999023438</ele>
        <time>2021-03-21T10:19:14.000Z</time>
      </trkpt>
      <trkpt lat="44.99155" lon="6.02963">
        <ele>2357.3999023438</ele>
        <time>2021-03-21T10:19:15.000Z</time>
      </trkpt>
      <trkpt lat="44.99155" lon="6.02962">
        <ele>2357.3999023438</ele>
        <time>2021-03-21T10:19:16.000Z</time>
      </trkpt>
      <trkpt lat="44.99154" lon="6.02962">
        <ele>2357.6000976562</ele>
        <time>2021-03-21T10:19:17.000Z</time>
      </trkpt>
      <trkpt lat="44.99153" lon="6.02962">
        <ele>2357.8000488281</ele>
        <time>2021-03-21T10:19:18.000Z</time>
      </trkpt>
      <trkpt lat="44.99152" lon="6.02963">
        <ele>2357.8000488281</ele>
        <time>2021-03-21T10:19:19.000Z</time>
      </trkpt>
      <trkpt lat="44.99152" lon="6.02963">
        <ele>2358</ele>
        <time>2021-03-21T10:19:20.000Z</time>
      </trkpt>
      <trkpt lat="44.99151" lon="6.02963">
        <ele>2358</ele>
        <time>2021-03-21T10:19:21.000Z</time>
      </trkpt>
      <trkpt lat="44.9915" lon="6.02963">
        <ele>2358.1999511719</ele>
        <time>2021-03-21T10:19:22.000Z</time>
      </trkpt>
      <trkpt lat="44.9915" lon="6.02963">
        <ele>2358.3999023438</ele>
        <time>2021-03-21T10:19:23.000Z</time>
      </trkpt>
      <trkpt lat="44.99149" lon="6.02964">
        <ele>2358.6000976562</ele>
        <time>2021-03-21T10:19:24.000Z</time>
      </trkpt>
      <trkpt lat="44.99148" lon="6.02964">
        <ele>2358.8000488281</ele>
        <time>2021-03-21T10:19:25.000Z</time>
      </trkpt>
      <trkpt lat="44.99147" lon="6.02965">
        <ele>2359</ele>
        <time>2021-03-21T10:19:26.000Z</time>
      </trkpt>
      <trkpt lat="44.99146" lon="6.02965">
        <ele>2359.1999511719</ele>
        <time>2021-03-21T10:19:27.000Z</time>
      </trkpt>
      <trkpt lat="44.99146" lon="6.02965">
        <ele>2359.1999511719</ele>
        <time>2021-03-21T10:19:28.000Z</time>
      </trkpt>
      <trkpt lat="44.99144" lon="6.02966">
        <ele>2359.6000976562</ele>
        <time>2021-03-21T10:19:29.000Z</time>
      </trkpt>
      <trkpt lat="44.99144" lon="6.02967">
        <ele>2359.8000488281</ele>
        <time>2021-03-21T10:19:30.000Z</time>
      </trkpt>
      <trkpt lat="44.99143" lon="6.02967">
        <ele>2360</ele>
        <time>2021-03-21T10:19:31.000Z</time>
      </trkpt>
      <trkpt lat="44.99142" lon="6.02967">
        <ele>2360.1999511719</ele>
        <time>2021-03-21T10:19:32.000Z</time>
      </trkpt>
      <trkpt lat="44.99141" lon="6.02968">
        <ele>2360.1999511719</ele>
        <time>2021-03-21T10:19:33.000Z</time>
      </trkpt>
      <trkpt lat="44.99141" lon="6.02968">
        <ele>2360.6000976562</ele>
        <time>2021-03-21T10:19:34.000Z</time>
      </trkpt>
      <trkpt lat="44.9914" lon="6.02969">
        <ele>2360.8000488281</ele>
        <time>2021-03-21T10:19:35.000Z</time>
      </trkpt>
      <trkpt lat="44.99139" lon="6.02969">
        <ele>2361</ele>
        <time>2021-03-21T10:19:36.000Z</time>
      </trkpt>
      <trkpt lat="44.99138" lon="6.0297">
        <ele>2361.1999511719</ele>
        <time>2021-03-21T10:19:37.000Z</time>
      </trkpt>
      <trkpt lat="44.99137" lon="6.0297">
        <ele>2361.3999023438</ele>
        <time>2021-03-21T10:19:38.000Z</time>
      </trkpt>
      <trkpt lat="44.99136" lon="6.02971">
        <ele>2361.8000488281</ele>
        <time>2021-03-21T10:19:39.000Z</time>
      </trkpt>
      <trkpt lat="44.99135" lon="6.02971">
        <ele>2362</ele>
        <time>2021-03-21T10:19:40.000Z</time>
      </trkpt>
      <trkpt lat="44.99135" lon="6.02972">
        <ele>2362.1999511719</ele>
        <time>2021-03-21T10:19:41.000Z</time>
      </trkpt>
      <trkpt lat="44.99134" lon="6.02972">
        <ele>2362.3999023438</ele>
        <time>2021-03-21T10:19:42.000Z</time>
      </trkpt>
      <trkpt lat="44.99133" lon="6.02972">
        <ele>2362.6000976562</ele>
        <time>2021-03-21T10:19:43.000Z</time>
      </trkpt>
      <trkpt lat="44.99132" lon="6.02973">
        <ele>2362.8000488281</ele>
        <time>2021-03-21T10:19:44.000Z</time>
      </trkpt>
      <trkpt lat="44.99132" lon="6.02973">
        <ele>2363</ele>
        <time>2021-03-21T10:19:45.000Z</time>
      </trkpt>
      <trkpt lat="44.99131" lon="6.02973">
        <ele>2363.1999511719</ele>
        <time>2021-03-21T10:19:46.000Z</time>
      </trkpt>
      <trkpt lat="44.99131" lon="6.02973">
        <ele>2363.1999511719</ele>
        <time>2021-03-21T10:19:47.000Z</time>
      </trkpt>
      <trkpt lat="44.9913" lon="6.02974">
        <ele>2363.3999023438</ele>
        <time>2021-03-21T10:19:48.000Z</time>
      </trkpt>
      <trkpt lat="44.99129" lon="6.02974">
        <ele>2363.3999023438</ele>
        <time>2021-03-21T10:19:49.000Z</time>
      </trkpt>
      <trkpt lat="44.99128" lon="6.02974">
        <ele>2363.8000488281</ele>
        <time>2021-03-21T10:19:50.000Z</time>
      </trkpt>
      <trkpt lat="44.99128" lon="6.02974">
        <ele>2363.8000488281</ele>
        <time>2021-03-21T10:19:51.000Z</time>
      </trkpt>
      <trkpt lat="44.99127" lon="6.02974">
        <ele>2364</ele>
        <time>2021-03-21T10:19:52.000Z</time>
      </trkpt>
      <trkpt lat="44.99127" lon="6.02974">
        <ele>2364.1999511719</ele>
        <time>2021-03-21T10:19:53.000Z</time>
      </trkpt>
      <trkpt lat="44.99126" lon="6.02974">
        <ele>2364.1999511719</ele>
        <time>2021-03-21T10:19:54.000Z</time>
      </trkpt>
      <trkpt lat="44.99125" lon="6.02975">
        <ele>2364.6000976562</ele>
        <time>2021-03-21T10:19:55.000Z</time>
      </trkpt>
      <trkpt lat="44.99124" lon="6.02976">
        <ele>2364.8000488281</ele>
        <time>2021-03-21T10:19:56.000Z</time>
      </trkpt>
      <trkpt lat="44.99124" lon="6.02976">
        <ele>2365.1999511719</ele>
        <time>2021-03-21T10:19:57.000Z</time>
      </trkpt>
      <trkpt lat="44.99123" lon="6.02977">
        <ele>2365.1999511719</ele>
        <time>2021-03-21T10:19:58.000Z</time>
      </trkpt>
      <trkpt lat="44.99122" lon="6.02977">
        <ele>2365.3999023438</ele>
        <time>2021-03-21T10:19:59.000Z</time>
      </trkpt>
      <trkpt lat="44.99122" lon="6.02977">
        <ele>2365.6000976562</ele>
        <time>2021-03-21T10:20:00.000Z</time>
      </trkpt>
      <trkpt lat="44.99121" lon="6.02977">
        <ele>2365.8000488281</ele>
        <time>2021-03-21T10:20:01.000Z</time>
      </trkpt>
      <trkpt lat="44.9912" lon="6.02978">
        <ele>2366.3999023438</ele>
        <time>2021-03-21T10:20:02.000Z</time>
      </trkpt>
      <trkpt lat="44.99119" lon="6.02978">
        <ele>2366.3999023438</ele>
        <time>2021-03-21T10:20:03.000Z</time>
      </trkpt>
      <trkpt lat="44.99119" lon="6.02979">
        <ele>2366.8000488281</ele>
        <time>2021-03-21T10:20:04.000Z</time>
      </trkpt>
      <trkpt lat="44.99118" lon="6.02979">
        <ele>2367</ele>
        <time>2021-03-21T10:20:05.000Z</time>
      </trkpt>
      <trkpt lat="44.99117" lon="6.0298">
        <ele>2367.1999511719</ele>
        <time>2021-03-21T10:20:06.000Z</time>
      </trkpt>
      <trkpt lat="44.99117" lon="6.0298">
        <ele>2367.6000976562</ele>
        <time>2021-03-21T10:20:07.000Z</time>
      </trkpt>
      <trkpt lat="44.99116" lon="6.0298">
        <ele>2367.8000488281</ele>
        <time>2021-03-21T10:20:08.000Z</time>
      </trkpt>
      <trkpt lat="44.99116" lon="6.02981">
        <ele>2368</ele>
        <time>2021-03-21T10:20:09.000Z</time>
      </trkpt>
      <trkpt lat="44.99115" lon="6.02982">
        <ele>2368.3999023438</ele>
        <time>2021-03-21T10:20:10.000Z</time>
      </trkpt>
      <trkpt lat="44.99114" lon="6.02982">
        <ele>2368.8000488281</ele>
        <time>2021-03-21T10:20:11.000Z</time>
      </trkpt>
      <trkpt lat="44.99113" lon="6.02983">
        <ele>2369.1999511719</ele>
        <time>2021-03-21T10:20:12.000Z</time>
      </trkpt>
      <trkpt lat="44.99113" lon="6.02983">
        <ele>2369.3999023438</ele>
        <time>2021-03-21T10:20:13.000Z</time>
      </trkpt>
      <trkpt lat="44.99112" lon="6.02984">
        <ele>2369.8000488281</ele>
        <time>2021-03-21T10:20:14.000Z</time>
      </trkpt>
      <trkpt lat="44.99111" lon="6.02984">
        <ele>2370</ele>
        <time>2021-03-21T10:20:15.000Z</time>
      </trkpt>
      <trkpt lat="44.99111" lon="6.02985">
        <ele>2370.1999511719</ele>
        <time>2021-03-21T10:20:16.000Z</time>
      </trkpt>
      <trkpt lat="44.99111" lon="6.02985">
        <ele>2370.3999023438</ele>
        <time>2021-03-21T10:20:17.000Z</time>
      </trkpt>
      <trkpt lat="44.9911" lon="6.02986">
        <ele>2370.8000488281</ele>
        <time>2021-03-21T10:20:18.000Z</time>
      </trkpt>
      <trkpt lat="44.99109" lon="6.02986">
        <ele>2371</ele>
        <time>2021-03-21T10:20:19.000Z</time>
      </trkpt>
      <trkpt lat="44.99109" lon="6.02986">
        <ele>2371.1999511719</ele>
        <time>2021-03-21T10:20:20.000Z</time>
      </trkpt>
      <trkpt lat="44.99108" lon="6.02987">
        <ele>2371.6000976562</ele>
        <time>2021-03-21T10:20:21.000Z</time>
      </trkpt>
      <trkpt lat="44.99108" lon="6.02988">
        <ele>2371.8000488281</ele>
        <time>2021-03-21T10:20:22.000Z</time>
      </trkpt>
      <trkpt lat="44.99107" lon="6.02989">
        <ele>2372</ele>
        <time>2021-03-21T10:20:23.000Z</time>
      </trkpt>
      <trkpt lat="44.99107" lon="6.02989">
        <ele>2372.1999511719</ele>
        <time>2021-03-21T10:20:24.000Z</time>
      </trkpt>
      <trkpt lat="44.99106" lon="6.0299">
        <ele>2372.6000976562</ele>
        <time>2021-03-21T10:20:25.000Z</time>
      </trkpt>
      <trkpt lat="44.99105" lon="6.0299">
        <ele>2372.6000976562</ele>
        <time>2021-03-21T10:20:26.000Z</time>
      </trkpt>
      <trkpt lat="44.99105" lon="6.0299">
        <ele>2373</ele>
        <time>2021-03-21T10:20:27.000Z</time>
      </trkpt>
      <trkpt lat="44.99104" lon="6.02991">
        <ele>2373</ele>
        <time>2021-03-21T10:20:28.000Z</time>
      </trkpt>
      <trkpt lat="44.99104" lon="6.02991">
        <ele>2373.3999023438</ele>
        <time>2021-03-21T10:20:29.000Z</time>
      </trkpt>
      <trkpt lat="44.99103" lon="6.02992">
        <ele>2373.6000976562</ele>
        <time>2021-03-21T10:20:30.000Z</time>
      </trkpt>
      <trkpt lat="44.99103" lon="6.02993">
        <ele>2373.6000976562</ele>
        <time>2021-03-21T10:20:31.000Z</time>
      </trkpt>
      <trkpt lat="44.99103" lon="6.02994">
        <ele>2374</ele>
        <time>2021-03-21T10:20:32.000Z</time>
      </trkpt>
      <trkpt lat="44.99102" lon="6.02994">
        <ele>2374.3999023438</ele>
        <time>2021-03-21T10:20:33.000Z</time>
      </trkpt>
      <trkpt lat="44.99102" lon="6.02995">
        <ele>2374.6000976562</ele>
        <time>2021-03-21T10:20:34.000Z</time>
      </trkpt>
      <trkpt lat="44.99102" lon="6.02996">
        <ele>2374.8000488281</ele>
        <time>2021-03-21T10:20:35.000Z</time>
      </trkpt>
      <trkpt lat="44.99102" lon="6.02997">
        <ele>2375</ele>
        <time>2021-03-21T10:20:36.000Z</time>
      </trkpt>
      <trkpt lat="44.99102" lon="6.02997">
        <ele>2375.1999511719</ele>
        <time>2021-03-21T10:20:37.000Z</time>
      </trkpt>
      <trkpt lat="44.99102" lon="6.02998">
        <ele>2375.3999023438</ele>
        <time>2021-03-21T10:20:38.000Z</time>
      </trkpt>
      <trkpt lat="44.99102" lon="6.02999">
        <ele>2375.6000976562</ele>
        <time>2021-03-21T10:20:39.000Z</time>
      </trkpt>
      <trkpt lat="44.99103" lon="6.03">
        <ele>2375.6000976562</ele>
        <time>2021-03-21T10:20:40.000Z</time>
      </trkpt>
      <trkpt lat="44.99103" lon="6.03001">
        <ele>2375.8000488281</ele>
        <time>2021-03-21T10:20:41.000Z</time>
      </trkpt>
      <trkpt lat="44.99103" lon="6.03001">
        <ele>2375.8000488281</ele>
        <time>2021-03-21T10:20:42.000Z</time>
      </trkpt>
      <trkpt lat="44.99103" lon="6.03002">
        <ele>2376.1999511719</ele>
        <time>2021-03-21T10:20:43.000Z</time>
      </trkpt>
      <trkpt lat="44.99103" lon="6.03004">
        <ele>2376.6000976562</ele>
        <time>2021-03-21T10:20:44.000Z</time>
      </trkpt>
      <trkpt lat="44.99103" lon="6.03004">
        <ele>2376.6000976562</ele>
        <time>2021-03-21T10:20:45.000Z</time>
      </trkpt>
      <trkpt lat="44.99102" lon="6.03005">
        <ele>2377</ele>
        <time>2021-03-21T10:20:46.000Z</time>
      </trkpt>
      <trkpt lat="44.99102" lon="6.03006">
        <ele>2377.3999023438</ele>
        <time>2021-03-21T10:20:47.000Z</time>
      </trkpt>
      <trkpt lat="44.99102" lon="6.03007">
        <ele>2377.8000488281</ele>
        <time>2021-03-21T10:20:48.000Z</time>
      </trkpt>
      <trkpt lat="44.99101" lon="6.03008">
        <ele>2378</ele>
        <time>2021-03-21T10:20:49.000Z</time>
      </trkpt>
      <trkpt lat="44.99101" lon="6.03009">
        <ele>2378.3999023438</ele>
        <time>2021-03-21T10:20:50.000Z</time>
      </trkpt>
      <trkpt lat="44.991" lon="6.0301">
        <ele>2379</ele>
        <time>2021-03-21T10:20:51.000Z</time>
      </trkpt>
      <trkpt lat="44.99099" lon="6.03011">
        <ele>2379.3999023438</ele>
        <time>2021-03-21T10:20:52.000Z</time>
      </trkpt>
      <trkpt lat="44.99099" lon="6.03012">
        <ele>2379.8000488281</ele>
        <time>2021-03-21T10:20:53.000Z</time>
      </trkpt>
      <trkpt lat="44.99098" lon="6.03013">
        <ele>2380.1999511719</ele>
        <time>2021-03-21T10:20:54.000Z</time>
      </trkpt>
      <trkpt lat="44.99098" lon="6.03014">
        <ele>2380.6000976562</ele>
        <time>2021-03-21T10:20:55.000Z</time>
      </trkpt>
      <trkpt lat="44.99097" lon="6.03015">
        <ele>2380.8000488281</ele>
        <time>2021-03-21T10:20:56.000Z</time>
      </trkpt>
      <trkpt lat="44.99097" lon="6.03016">
        <ele>2381.1999511719</ele>
        <time>2021-03-21T10:20:57.000Z</time>
      </trkpt>
      <trkpt lat="44.99096" lon="6.03017">
        <ele>2381.6000976562</ele>
        <time>2021-03-21T10:20:58.000Z</time>
      </trkpt>
      <trkpt lat="44.99096" lon="6.03018">
        <ele>2381.8000488281</ele>
        <time>2021-03-21T10:20:59.000Z</time>
      </trkpt>
      <trkpt lat="44.99095" lon="6.03019">
        <ele>2382.3999023438</ele>
        <time>2021-03-21T10:21:00.000Z</time>
      </trkpt>
      <trkpt lat="44.99095" lon="6.0302">
        <ele>2382.6000976562</ele>
        <time>2021-03-21T10:21:01.000Z</time>
      </trkpt>
      <trkpt lat="44.99095" lon="6.03021">
        <ele>2383</ele>
        <time>2021-03-21T10:21:02.000Z</time>
      </trkpt>
      <trkpt lat="44.99094" lon="6.03022">
        <ele>2383.3999023438</ele>
        <time>2021-03-21T10:21:03.000Z</time>
      </trkpt>
      <trkpt lat="44.99094" lon="6.03023">
        <ele>2383.6000976562</ele>
        <time>2021-03-21T10:21:04.000Z</time>
      </trkpt>
      <trkpt lat="44.99094" lon="6.03024">
        <ele>2383.8000488281</ele>
        <time>2021-03-21T10:21:05.000Z</time>
      </trkpt>
      <trkpt lat="44.99094" lon="6.03024">
        <ele>2383.8000488281</ele>
        <time>2021-03-21T10:21:06.000Z</time>
      </trkpt>
      <trkpt lat="44.99094" lon="6.03025">
        <ele>2384</ele>
        <time>2021-03-21T10:21:07.000Z</time>
      </trkpt>
      <trkpt lat="44.99094" lon="6.03026">
        <ele>2384.1999511719</ele>
        <time>2021-03-21T10:21:08.000Z</time>
      </trkpt>
      <trkpt lat="44.99094" lon="6.03027">
        <ele>2384.3999023438</ele>
        <time>2021-03-21T10:21:09.000Z</time>
      </trkpt>
      <trkpt lat="44.99095" lon="6.03028">
        <ele>2384.3999023438</ele>
        <time>2021-03-21T10:21:10.000Z</time>
      </trkpt>
      <trkpt lat="44.99095" lon="6.03029">
        <ele>2384.6000976562</ele>
        <time>2021-03-21T10:21:11.000Z</time>
      </trkpt>
      <trkpt lat="44.99095" lon="6.03029">
        <ele>2384.6000976562</ele>
        <time>2021-03-21T10:21:12.000Z</time>
      </trkpt>
      <trkpt lat="44.99095" lon="6.0303">
        <ele>2384.6000976562</ele>
        <time>2021-03-21T10:21:13.000Z</time>
      </trkpt>
      <trkpt lat="44.99096" lon="6.03031">
        <ele>2384.8000488281</ele>
        <time>2021-03-21T10:21:14.000Z</time>
      </trkpt>
      <trkpt lat="44.99096" lon="6.03031">
        <ele>2384.8000488281</ele>
        <time>2021-03-21T10:21:15.000Z</time>
      </trkpt>
      <trkpt lat="44.99096" lon="6.03032">
        <ele>2385</ele>
        <time>2021-03-21T10:21:16.000Z</time>
      </trkpt>
      <trkpt lat="44.99097" lon="6.03033">
        <ele>2385</ele>
        <time>2021-03-21T10:21:17.000Z</time>
      </trkpt>
      <trkpt lat="44.99097" lon="6.03033">
        <ele>2385</ele>
        <time>2021-03-21T10:21:18.000Z</time>
      </trkpt>
      <trkpt lat="44.99098" lon="6.03034">
        <ele>2385</ele>
        <time>2021-03-21T10:21:19.000Z</time>
      </trkpt>
      <trkpt lat="44.99098" lon="6.03034">
        <ele>2384.8000488281</ele>
        <time>2021-03-21T10:21:20.000Z</time>
      </trkpt>
      <trkpt lat="44.99098" lon="6.03035">
        <ele>2384.8000488281</ele>
        <time>2021-03-21T10:21:21.000Z</time>
      </trkpt>
      <trkpt lat="44.99099" lon="6.03036">
        <ele>2384.8000488281</ele>
        <time>2021-03-21T10:21:22.000Z</time>
      </trkpt>
      <trkpt lat="44.991" lon="6.03037">
        <ele>2384.8000488281</ele>
        <time>2021-03-21T10:21:23.000Z</time>
      </trkpt>
      <trkpt lat="44.991" lon="6.03038">
        <ele>2384.8000488281</ele>
        <time>2021-03-21T10:21:24.000Z</time>
      </trkpt>
      <trkpt lat="44.99101" lon="6.03038">
        <ele>2384.6000976562</ele>
        <time>2021-03-21T10:21:25.000Z</time>
      </trkpt>
      <trkpt lat="44.99101" lon="6.03039">
        <ele>2384.8000488281</ele>
        <time>2021-03-21T10:21:26.000Z</time>
      </trkpt>
      <trkpt lat="44.99101" lon="6.0304">
        <ele>2384.8000488281</ele>
        <time>2021-03-21T10:21:27.000Z</time>
      </trkpt>
      <trkpt lat="44.99102" lon="6.03041">
        <ele>2385</ele>
        <time>2021-03-21T10:21:28.000Z</time>
      </trkpt>
      <trkpt lat="44.99102" lon="6.03042">
        <ele>2385</ele>
        <time>2021-03-21T10:21:29.000Z</time>
      </trkpt>
      <trkpt lat="44.99102" lon="6.03043">
        <ele>2384.8000488281</ele>
        <time>2021-03-21T10:21:30.000Z</time>
      </trkpt>
      <trkpt lat="44.99103" lon="6.03044">
        <ele>2384.8000488281</ele>
        <time>2021-03-21T10:21:31.000Z</time>
      </trkpt>
      <trkpt lat="44.99103" lon="6.03045">
        <ele>2384.8000488281</ele>
        <time>2021-03-21T10:21:32.000Z</time>
      </trkpt>
      <trkpt lat="44.99103" lon="6.03046">
        <ele>2384.8000488281</ele>
        <time>2021-03-21T10:21:33.000Z</time>
      </trkpt>
      <trkpt lat="44.99103" lon="6.03047">
        <ele>2384.8000488281</ele>
        <time>2021-03-21T10:21:34.000Z</time>
      </trkpt>
      <trkpt lat="44.99103" lon="6.03048">
        <ele>2385</ele>
        <time>2021-03-21T10:21:35.000Z</time>
      </trkpt>
      <trkpt lat="44.99103" lon="6.03048">
        <ele>2385</ele>
        <time>2021-03-21T10:21:36.000Z</time>
      </trkpt>
      <trkpt lat="44.99103" lon="6.0305">
        <ele>2385.1999511719</ele>
        <time>2021-03-21T10:21:37.000Z</time>
      </trkpt>
      <trkpt lat="44.99102" lon="6.0305">
        <ele>2385.1999511719</ele>
        <time>2021-03-21T10:21:38.000Z</time>
      </trkpt>
      <trkpt lat="44.99103" lon="6.03052">
        <ele>2385.1999511719</ele>
        <time>2021-03-21T10:21:39.000Z</time>
      </trkpt>
      <trkpt lat="44.99103" lon="6.03052">
        <ele>2385.1999511719</ele>
        <time>2021-03-21T10:21:40.000Z</time>
      </trkpt>
      <trkpt lat="44.99103" lon="6.03053">
        <ele>2385.3999023438</ele>
        <time>2021-03-21T10:21:41.000Z</time>
      </trkpt>
      <trkpt lat="44.99103" lon="6.03054">
        <ele>2385.3999023438</ele>
        <time>2021-03-21T10:21:42.000Z</time>
      </trkpt>
      <trkpt lat="44.99103" lon="6.03055">
        <ele>2385.6000976562</ele>
        <time>2021-03-21T10:21:43.000Z</time>
      </trkpt>
      <trkpt lat="44.99103" lon="6.03056">
        <ele>2385.6000976562</ele>
        <time>2021-03-21T10:21:44.000Z</time>
      </trkpt>
      <trkpt lat="44.99103" lon="6.03057">
        <ele>2385.6000976562</ele>
        <time>2021-03-21T10:21:45.000Z</time>
      </trkpt>
      <trkpt lat="44.99103" lon="6.03058">
        <ele>2385.8000488281</ele>
        <time>2021-03-21T10:21:46.000Z</time>
      </trkpt>
      <trkpt lat="44.99103" lon="6.03059">
        <ele>2385.8000488281</ele>
        <time>2021-03-21T10:21:47.000Z</time>
      </trkpt>
      <trkpt lat="44.99103" lon="6.0306">
        <ele>2385.8000488281</ele>
        <time>2021-03-21T10:21:48.000Z</time>
      </trkpt>
      <trkpt lat="44.99104" lon="6.03061">
        <ele>2385.8000488281</ele>
        <time>2021-03-21T10:21:49.000Z</time>
      </trkpt>
      <trkpt lat="44.99104" lon="6.03062">
        <ele>2386</ele>
        <time>2021-03-21T10:21:50.000Z</time>
      </trkpt>
      <trkpt lat="44.99103" lon="6.03062">
        <ele>2386</ele>
        <time>2021-03-21T10:21:51.000Z</time>
      </trkpt>
      <trkpt lat="44.99103" lon="6.03063">
        <ele>2386.1999511719</ele>
        <time>2021-03-21T10:21:52.000Z</time>
      </trkpt>
      <trkpt lat="44.99104" lon="6.03064">
        <ele>2386.1999511719</ele>
        <time>2021-03-21T10:21:53.000Z</time>
      </trkpt>
      <trkpt lat="44.99103" lon="6.03064">
        <ele>2386.3999023438</ele>
        <time>2021-03-21T10:21:54.000Z</time>
      </trkpt>
      <trkpt lat="44.99103" lon="6.03066">
        <ele>2386.8000488281</ele>
        <time>2021-03-21T10:21:55.000Z</time>
      </trkpt>
      <trkpt lat="44.99103" lon="6.03066">
        <ele>2386.8000488281</ele>
        <time>2021-03-21T10:21:56.000Z</time>
      </trkpt>
      <trkpt lat="44.99102" lon="6.03068">
        <ele>2387.1999511719</ele>
        <time>2021-03-21T10:21:57.000Z</time>
      </trkpt>
      <trkpt lat="44.99102" lon="6.03068">
        <ele>2387.3999023438</ele>
        <time>2021-03-21T10:21:58.000Z</time>
      </trkpt>
      <trkpt lat="44.99102" lon="6.03069">
        <ele>2387.6000976562</ele>
        <time>2021-03-21T10:21:59.000Z</time>
      </trkpt>
      <trkpt lat="44.99101" lon="6.0307">
        <ele>2388</ele>
        <time>2021-03-21T10:22:00.000Z</time>
      </trkpt>
      <trkpt lat="44.99101" lon="6.0307">
        <ele>2388.1999511719</ele>
        <time>2021-03-21T10:22:01.000Z</time>
      </trkpt>
      <trkpt lat="44.991" lon="6.03071">
        <ele>2388.3999023438</ele>
        <time>2021-03-21T10:22:02.000Z</time>
      </trkpt>
      <trkpt lat="44.991" lon="6.03072">
        <ele>2388.6000976562</ele>
        <time>2021-03-21T10:22:03.000Z</time>
      </trkpt>
      <trkpt lat="44.99099" lon="6.03073">
        <ele>2389</ele>
        <time>2021-03-21T10:22:04.000Z</time>
      </trkpt>
      <trkpt lat="44.99099" lon="6.03073">
        <ele>2389.1999511719</ele>
        <time>2021-03-21T10:22:05.000Z</time>
      </trkpt>
      <trkpt lat="44.99098" lon="6.03074">
        <ele>2389.6000976562</ele>
        <time>2021-03-21T10:22:06.000Z</time>
      </trkpt>
      <trkpt lat="44.99098" lon="6.03075">
        <ele>2390</ele>
        <time>2021-03-21T10:22:07.000Z</time>
      </trkpt>
      <trkpt lat="44.99098" lon="6.03075">
        <ele>2390.1999511719</ele>
        <time>2021-03-21T10:22:08.000Z</time>
      </trkpt>
      <trkpt lat="44.99097" lon="6.03077">
        <ele>2390.6000976562</ele>
        <time>2021-03-21T10:22:09.000Z</time>
      </trkpt>
      <trkpt lat="44.99097" lon="6.03077">
        <ele>2390.8000488281</ele>
        <time>2021-03-21T10:22:10.000Z</time>
      </trkpt>
      <trkpt lat="44.99096" lon="6.03079">
        <ele>2391.1999511719</ele>
        <time>2021-03-21T10:22:11.000Z</time>
      </trkpt>
      <trkpt lat="44.99096" lon="6.03079">
        <ele>2391.3999023438</ele>
        <time>2021-03-21T10:22:12.000Z</time>
      </trkpt>
      <trkpt lat="44.99096" lon="6.0308">
        <ele>2391.6000976562</ele>
        <time>2021-03-21T10:22:13.000Z</time>
      </trkpt>
      <trkpt lat="44.99095" lon="6.03081">
        <ele>2391.8000488281</ele>
        <time>2021-03-21T10:22:14.000Z</time>
      </trkpt>
      <trkpt lat="44.99095" lon="6.03081">
        <ele>2392</ele>
        <time>2021-03-21T10:22:15.000Z</time>
      </trkpt>
      <trkpt lat="44.99095" lon="6.03082">
        <ele>2392.1999511719</ele>
        <time>2021-03-21T10:22:16.000Z</time>
      </trkpt>
      <trkpt lat="44.99095" lon="6.03083">
        <ele>2392.3999023438</ele>
        <time>2021-03-21T10:22:17.000Z</time>
      </trkpt>
      <trkpt lat="44.99094" lon="6.03084">
        <ele>2392.6000976562</ele>
        <time>2021-03-21T10:22:18.000Z</time>
      </trkpt>
      <trkpt lat="44.99094" lon="6.03085">
        <ele>2392.8000488281</ele>
        <time>2021-03-21T10:22:19.000Z</time>
      </trkpt>
      <trkpt lat="44.99093" lon="6.03086">
        <ele>2393.1999511719</ele>
        <time>2021-03-21T10:22:20.000Z</time>
      </trkpt>
      <trkpt lat="44.99093" lon="6.03087">
        <ele>2393.3999023438</ele>
        <time>2021-03-21T10:22:21.000Z</time>
      </trkpt>
      <trkpt lat="44.99092" lon="6.03088">
        <ele>2393.6000976562</ele>
        <time>2021-03-21T10:22:22.000Z</time>
      </trkpt>
      <trkpt lat="44.99092" lon="6.03089">
        <ele>2394</ele>
        <time>2021-03-21T10:22:23.000Z</time>
      </trkpt>
      <trkpt lat="44.99091" lon="6.03089">
        <ele>2394.1999511719</ele>
        <time>2021-03-21T10:22:24.000Z</time>
      </trkpt>
      <trkpt lat="44.99091" lon="6.03091">
        <ele>2394.6000976562</ele>
        <time>2021-03-21T10:22:25.000Z</time>
      </trkpt>
      <trkpt lat="44.99091" lon="6.03091">
        <ele>2394.8000488281</ele>
        <time>2021-03-21T10:22:26.000Z</time>
      </trkpt>
      <trkpt lat="44.9909" lon="6.03092">
        <ele>2395.1999511719</ele>
        <time>2021-03-21T10:22:27.000Z</time>
      </trkpt>
      <trkpt lat="44.99089" lon="6.03093">
        <ele>2395.6000976562</ele>
        <time>2021-03-21T10:22:28.000Z</time>
      </trkpt>
      <trkpt lat="44.99089" lon="6.03093">
        <ele>2396</ele>
        <time>2021-03-21T10:22:29.000Z</time>
      </trkpt>
      <trkpt lat="44.99088" lon="6.03094">
        <ele>2396.3999023438</ele>
        <time>2021-03-21T10:22:30.000Z</time>
      </trkpt>
      <trkpt lat="44.99087" lon="6.03095">
        <ele>2396.8000488281</ele>
        <time>2021-03-21T10:22:31.000Z</time>
      </trkpt>
      <trkpt lat="44.99087" lon="6.03096">
        <ele>2397.1999511719</ele>
        <time>2021-03-21T10:22:32.000Z</time>
      </trkpt>
      <trkpt lat="44.99086" lon="6.03096">
        <ele>2397.3999023438</ele>
        <time>2021-03-21T10:22:33.000Z</time>
      </trkpt>
      <trkpt lat="44.99086" lon="6.03097">
        <ele>2397.8000488281</ele>
        <time>2021-03-21T10:22:34.000Z</time>
      </trkpt>
      <trkpt lat="44.99085" lon="6.03098">
        <ele>2398.1999511719</ele>
        <time>2021-03-21T10:22:35.000Z</time>
      </trkpt>
      <trkpt lat="44.99084" lon="6.03098">
        <ele>2398.6000976562</ele>
        <time>2021-03-21T10:22:36.000Z</time>
      </trkpt>
      <trkpt lat="44.99083" lon="6.03099">
        <ele>2398.8000488281</ele>
        <time>2021-03-21T10:22:37.000Z</time>
      </trkpt>
      <trkpt lat="44.99083" lon="6.03099">
        <ele>2399.1999511719</ele>
        <time>2021-03-21T10:22:38.000Z</time>
      </trkpt>
      <trkpt lat="44.99082" lon="6.031">
        <ele>2399.3999023438</ele>
        <time>2021-03-21T10:22:39.000Z</time>
      </trkpt>
      <trkpt lat="44.99082" lon="6.031">
        <ele>2399.6000976562</ele>
        <time>2021-03-21T10:22:40.000Z</time>
      </trkpt>
      <trkpt lat="44.99081" lon="6.03101">
        <ele>2399.8000488281</ele>
        <time>2021-03-21T10:22:41.000Z</time>
      </trkpt>
      <trkpt lat="44.99081" lon="6.03101">
        <ele>2400</ele>
        <time>2021-03-21T10:22:42.000Z</time>
      </trkpt>
      <trkpt lat="44.9908" lon="6.03101">
        <ele>2400.1999511719</ele>
        <time>2021-03-21T10:22:43.000Z</time>
      </trkpt>
      <trkpt lat="44.9908" lon="6.03102">
        <ele>2400.1999511719</ele>
        <time>2021-03-21T10:22:44.000Z</time>
      </trkpt>
      <trkpt lat="44.99079" lon="6.03102">
        <ele>2400.3999023438</ele>
        <time>2021-03-21T10:22:45.000Z</time>
      </trkpt>
      <trkpt lat="44.99079" lon="6.03102">
        <ele>2400.6000976562</ele>
        <time>2021-03-21T10:22:46.000Z</time>
      </trkpt>
      <trkpt lat="44.99079" lon="6.03102">
        <ele>2400.6000976562</ele>
        <time>2021-03-21T10:22:47.000Z</time>
      </trkpt>
      <trkpt lat="44.99079" lon="6.03101">
        <ele>2400.8000488281</ele>
        <time>2021-03-21T10:22:48.000Z</time>
      </trkpt>
      <trkpt lat="44.99079" lon="6.03101">
        <ele>2400.8000488281</ele>
        <time>2021-03-21T10:22:49.000Z</time>
      </trkpt>
      <trkpt lat="44.99079" lon="6.031">
        <ele>2400.8000488281</ele>
        <time>2021-03-21T10:22:50.000Z</time>
      </trkpt>
      <trkpt lat="44.99079" lon="6.03099">
        <ele>2400.8000488281</ele>
        <time>2021-03-21T10:22:51.000Z</time>
      </trkpt>
      <trkpt lat="44.99079" lon="6.03098">
        <ele>2400.8000488281</ele>
        <time>2021-03-21T10:22:52.000Z</time>
      </trkpt>
      <trkpt lat="44.99079" lon="6.03098">
        <ele>2400.8000488281</ele>
        <time>2021-03-21T10:22:53.000Z</time>
      </trkpt>
      <trkpt lat="44.99079" lon="6.03097">
        <ele>2400.6000976562</ele>
        <time>2021-03-21T10:22:54.000Z</time>
      </trkpt>
      <trkpt lat="44.99079" lon="6.03096">
        <ele>2400.3999023438</ele>
        <time>2021-03-21T10:22:55.000Z</time>
      </trkpt>
      <trkpt lat="44.99079" lon="6.03095">
        <ele>2400.1999511719</ele>
        <time>2021-03-21T10:22:56.000Z</time>
      </trkpt>
      <trkpt lat="44.99079" lon="6.03094">
        <ele>2400.1999511719</ele>
        <time>2021-03-21T10:22:57.000Z</time>
      </trkpt>
      <trkpt lat="44.99079" lon="6.03093">
        <ele>2400</ele>
        <time>2021-03-21T10:22:58.000Z</time>
      </trkpt>
      <trkpt lat="44.99079" lon="6.03092">
        <ele>2399.8000488281</ele>
        <time>2021-03-21T10:22:59.000Z</time>
      </trkpt>
      <trkpt lat="44.9908" lon="6.03091">
        <ele>2399.3999023438</ele>
        <time>2021-03-21T10:23:00.000Z</time>
      </trkpt>
      <trkpt lat="44.9908" lon="6.0309">
        <ele>2399.1999511719</ele>
        <time>2021-03-21T10:23:01.000Z</time>
      </trkpt>
      <trkpt lat="44.9908" lon="6.03089">
        <ele>2399.1999511719</ele>
        <time>2021-03-21T10:23:02.000Z</time>
      </trkpt>
      <trkpt lat="44.9908" lon="6.03088">
        <ele>2399</ele>
        <time>2021-03-21T10:23:03.000Z</time>
      </trkpt>
      <trkpt lat="44.9908" lon="6.03087">
        <ele>2399</ele>
        <time>2021-03-21T10:23:04.000Z</time>
      </trkpt>
      <trkpt lat="44.9908" lon="6.03086">
        <ele>2398.8000488281</ele>
        <time>2021-03-21T10:23:05.000Z</time>
      </trkpt>
      <trkpt lat="44.99079" lon="6.03086">
        <ele>2398.8000488281</ele>
        <time>2021-03-21T10:23:06.000Z</time>
      </trkpt>
      <trkpt lat="44.99079" lon="6.03085">
        <ele>2398.6000976562</ele>
        <time>2021-03-21T10:23:07.000Z</time>
      </trkpt>
      <trkpt lat="44.99079" lon="6.03084">
        <ele>2398.6000976562</ele>
        <time>2021-03-21T10:23:08.000Z</time>
      </trkpt>
      <trkpt lat="44.99079" lon="6.03083">
        <ele>2398.6000976562</ele>
        <time>2021-03-21T10:23:09.000Z</time>
      </trkpt>
      <trkpt lat="44.99079" lon="6.03082">
        <ele>2398.6000976562</ele>
        <time>2021-03-21T10:23:10.000Z</time>
      </trkpt>
      <trkpt lat="44.99079" lon="6.03082">
        <ele>2398.6000976562</ele>
        <time>2021-03-21T10:23:11.000Z</time>
      </trkpt>
      <trkpt lat="44.99078" lon="6.03081">
        <ele>2398.6000976562</ele>
        <time>2021-03-21T10:23:12.000Z</time>
      </trkpt>
      <trkpt lat="44.99078" lon="6.0308">
        <ele>2398.6000976562</ele>
        <time>2021-03-21T10:23:13.000Z</time>
      </trkpt>
      <trkpt lat="44.99077" lon="6.0308">
        <ele>2398.8000488281</ele>
        <time>2021-03-21T10:23:14.000Z</time>
      </trkpt>
      <trkpt lat="44.99077" lon="6.03079">
        <ele>2399</ele>
        <time>2021-03-21T10:23:15.000Z</time>
      </trkpt>
      <trkpt lat="44.99076" lon="6.03078">
        <ele>2399</ele>
        <time>2021-03-21T10:23:16.000Z</time>
      </trkpt>
      <trkpt lat="44.99076" lon="6.03077">
        <ele>2399.1999511719</ele>
        <time>2021-03-21T10:23:17.000Z</time>
      </trkpt>
      <trkpt lat="44.99076" lon="6.03076">
        <ele>2399</ele>
        <time>2021-03-21T10:23:18.000Z</time>
      </trkpt>
      <trkpt lat="44.99076" lon="6.03075">
        <ele>2399</ele>
        <time>2021-03-21T10:23:19.000Z</time>
      </trkpt>
      <trkpt lat="44.99075" lon="6.03074">
        <ele>2399</ele>
        <time>2021-03-21T10:23:20.000Z</time>
      </trkpt>
      <trkpt lat="44.99075" lon="6.03074">
        <ele>2399.1999511719</ele>
        <time>2021-03-21T10:23:21.000Z</time>
      </trkpt>
      <trkpt lat="44.99074" lon="6.03073">
        <ele>2399.1999511719</ele>
        <time>2021-03-21T10:23:22.000Z</time>
      </trkpt>
      <trkpt lat="44.99073" lon="6.03072">
        <ele>2399.6000976562</ele>
        <time>2021-03-21T10:23:23.000Z</time>
      </trkpt>
      <trkpt lat="44.99073" lon="6.03072">
        <ele>2399.8000488281</ele>
        <time>2021-03-21T10:23:24.000Z</time>
      </trkpt>
      <trkpt lat="44.99072" lon="6.03071">
        <ele>2400</ele>
        <time>2021-03-21T10:23:25.000Z</time>
      </trkpt>
      <trkpt lat="44.99071" lon="6.03071">
        <ele>2400.1999511719</ele>
        <time>2021-03-21T10:23:26.000Z</time>
      </trkpt>
      <trkpt lat="44.99071" lon="6.0307">
        <ele>2400.1999511719</ele>
        <time>2021-03-21T10:23:27.000Z</time>
      </trkpt>
      <trkpt lat="44.9907" lon="6.03069">
        <ele>2400.3999023438</ele>
        <time>2021-03-21T10:23:28.000Z</time>
      </trkpt>
      <trkpt lat="44.9907" lon="6.03069">
        <ele>2400.3999023438</ele>
        <time>2021-03-21T10:23:29.000Z</time>
      </trkpt>
      <trkpt lat="44.99069" lon="6.03068">
        <ele>2400.3999023438</ele>
        <time>2021-03-21T10:23:30.000Z</time>
      </trkpt>
      <trkpt lat="44.99069" lon="6.03067">
        <ele>2400.6000976562</ele>
        <time>2021-03-21T10:23:31.000Z</time>
      </trkpt>
      <trkpt lat="44.99068" lon="6.03067">
        <ele>2400.3999023438</ele>
        <time>2021-03-21T10:23:32.000Z</time>
      </trkpt>
      <trkpt lat="44.99068" lon="6.03066">
        <ele>2400.3999023438</ele>
        <time>2021-03-21T10:23:33.000Z</time>
      </trkpt>
      <trkpt lat="44.99067" lon="6.03066">
        <ele>2400.3999023438</ele>
        <time>2021-03-21T10:23:34.000Z</time>
      </trkpt>
      <trkpt lat="44.99067" lon="6.03066">
        <ele>2400.3999023438</ele>
        <time>2021-03-21T10:23:35.000Z</time>
      </trkpt>
      <trkpt lat="44.99066" lon="6.03066">
        <ele>2400.3999023438</ele>
        <time>2021-03-21T10:23:36.000Z</time>
      </trkpt>
      <trkpt lat="44.99065" lon="6.03065">
        <ele>2400.3999023438</ele>
        <time>2021-03-21T10:23:37.000Z</time>
      </trkpt>
      <trkpt lat="44.99065" lon="6.03066">
        <ele>2400.6000976562</ele>
        <time>2021-03-21T10:23:38.000Z</time>
      </trkpt>
      <trkpt lat="44.99064" lon="6.03066">
        <ele>2400.8000488281</ele>
        <time>2021-03-21T10:23:39.000Z</time>
      </trkpt>
      <trkpt lat="44.99063" lon="6.03067">
        <ele>2401</ele>
        <time>2021-03-21T10:23:40.000Z</time>
      </trkpt>
      <trkpt lat="44.99062" lon="6.03067">
        <ele>2401.1999511719</ele>
        <time>2021-03-21T10:23:41.000Z</time>
      </trkpt>
      <trkpt lat="44.99062" lon="6.03067">
        <ele>2401.3999023438</ele>
        <time>2021-03-21T10:23:42.000Z</time>
      </trkpt>
      <trkpt lat="44.99061" lon="6.03067">
        <ele>2401.6000976562</ele>
        <time>2021-03-21T10:23:43.000Z</time>
      </trkpt>
      <trkpt lat="44.9906" lon="6.03067">
        <ele>2401.8000488281</ele>
        <time>2021-03-21T10:23:44.000Z</time>
      </trkpt>
      <trkpt lat="44.9906" lon="6.03067">
        <ele>2402</ele>
        <time>2021-03-21T10:23:45.000Z</time>
      </trkpt>
      <trkpt lat="44.99059" lon="6.03066">
        <ele>2402</ele>
        <time>2021-03-21T10:23:46.000Z</time>
      </trkpt>
      <trkpt lat="44.99058" lon="6.03067">
        <ele>2402.1999511719</ele>
        <time>2021-03-21T10:23:47.000Z</time>
      </trkpt>
      <trkpt lat="44.99058" lon="6.03066">
        <ele>2402.1999511719</ele>
        <time>2021-03-21T10:23:48.000Z</time>
      </trkpt>
      <trkpt lat="44.99057" lon="6.03066">
        <ele>2402.1999511719</ele>
        <time>2021-03-21T10:23:49.000Z</time>
      </trkpt>
      <trkpt lat="44.99056" lon="6.03066">
        <ele>2402.3999023438</ele>
        <time>2021-03-21T10:23:50.000Z</time>
      </trkpt>
      <trkpt lat="44.99056" lon="6.03066">
        <ele>2402.6000976562</ele>
        <time>2021-03-21T10:23:51.000Z</time>
      </trkpt>
      <trkpt lat="44.99055" lon="6.03066">
        <ele>2402.8000488281</ele>
        <time>2021-03-21T10:23:52.000Z</time>
      </trkpt>
      <trkpt lat="44.99054" lon="6.03066">
        <ele>2403</ele>
        <time>2021-03-21T10:23:53.000Z</time>
      </trkpt>
      <trkpt lat="44.99054" lon="6.03067">
        <ele>2403.1999511719</ele>
        <time>2021-03-21T10:23:54.000Z</time>
      </trkpt>
      <trkpt lat="44.99053" lon="6.03067">
        <ele>2403.3999023438</ele>
        <time>2021-03-21T10:23:55.000Z</time>
      </trkpt>
      <trkpt lat="44.99053" lon="6.03068">
        <ele>2403.6000976562</ele>
        <time>2021-03-21T10:23:56.000Z</time>
      </trkpt>
      <trkpt lat="44.99052" lon="6.03069">
        <ele>2404.1999511719</ele>
        <time>2021-03-21T10:23:57.000Z</time>
      </trkpt>
      <trkpt lat="44.99052" lon="6.03069">
        <ele>2404.6000976562</ele>
        <time>2021-03-21T10:23:58.000Z</time>
      </trkpt>
      <trkpt lat="44.99051" lon="6.0307">
        <ele>2404.8000488281</ele>
        <time>2021-03-21T10:23:59.000Z</time>
      </trkpt>
      <trkpt lat="44.99051" lon="6.03071">
        <ele>2405</ele>
        <time>2021-03-21T10:24:00.000Z</time>
      </trkpt>
      <trkpt lat="44.99051" lon="6.03073">
        <ele>2405.3999023438</ele>
        <time>2021-03-21T10:24:01.000Z</time>
      </trkpt>
      <trkpt lat="44.99051" lon="6.03074">
        <ele>2405.3999023438</ele>
        <time>2021-03-21T10:24:02.000Z</time>
      </trkpt>
      <trkpt lat="44.99051" lon="6.03075">
        <ele>2405.6000976562</ele>
        <time>2021-03-21T10:24:03.000Z</time>
      </trkpt>
      <trkpt lat="44.99051" lon="6.03076">
        <ele>2405.8000488281</ele>
        <time>2021-03-21T10:24:04.000Z</time>
      </trkpt>
      <trkpt lat="44.9905" lon="6.03077">
        <ele>2406</ele>
        <time>2021-03-21T10:24:05.000Z</time>
      </trkpt>
      <trkpt lat="44.9905" lon="6.03078">
        <ele>2406.1999511719</ele>
        <time>2021-03-21T10:24:06.000Z</time>
      </trkpt>
      <trkpt lat="44.9905" lon="6.03079">
        <ele>2406.3999023438</ele>
        <time>2021-03-21T10:24:07.000Z</time>
      </trkpt>
      <trkpt lat="44.9905" lon="6.0308">
        <ele>2406.6000976562</ele>
        <time>2021-03-21T10:24:08.000Z</time>
      </trkpt>
      <trkpt lat="44.9905" lon="6.03081">
        <ele>2406.8000488281</ele>
        <time>2021-03-21T10:24:09.000Z</time>
      </trkpt>
      <trkpt lat="44.9905" lon="6.03082">
        <ele>2407.1999511719</ele>
        <time>2021-03-21T10:24:10.000Z</time>
      </trkpt>
      <trkpt lat="44.99049" lon="6.03084">
        <ele>2407.6000976562</ele>
        <time>2021-03-21T10:24:11.000Z</time>
      </trkpt>
      <trkpt lat="44.99049" lon="6.03085">
        <ele>2407.8000488281</ele>
        <time>2021-03-21T10:24:12.000Z</time>
      </trkpt>
      <trkpt lat="44.99048" lon="6.03086">
        <ele>2408.3999023438</ele>
        <time>2021-03-21T10:24:13.000Z</time>
      </trkpt>
      <trkpt lat="44.99048" lon="6.03087">
        <ele>2408.8000488281</ele>
        <time>2021-03-21T10:24:14.000Z</time>
      </trkpt>
      <trkpt lat="44.99048" lon="6.03089">
        <ele>2409.1999511719</ele>
        <time>2021-03-21T10:24:15.000Z</time>
      </trkpt>
      <trkpt lat="44.99047" lon="6.0309">
        <ele>2409.6000976562</ele>
        <time>2021-03-21T10:24:16.000Z</time>
      </trkpt>
      <trkpt lat="44.99047" lon="6.03091">
        <ele>2409.8000488281</ele>
        <time>2021-03-21T10:24:17.000Z</time>
      </trkpt>
      <trkpt lat="44.99046" lon="6.03092">
        <ele>2410.1999511719</ele>
        <time>2021-03-21T10:24:18.000Z</time>
      </trkpt>
      <trkpt lat="44.99046" lon="6.03093">
        <ele>2410.6000976562</ele>
        <time>2021-03-21T10:24:19.000Z</time>
      </trkpt>
      <trkpt lat="44.99045" lon="6.03094">
        <ele>2411</ele>
        <time>2021-03-21T10:24:20.000Z</time>
      </trkpt>
      <trkpt lat="44.99045" lon="6.03095">
        <ele>2411.3999023438</ele>
        <time>2021-03-21T10:24:21.000Z</time>
      </trkpt>
      <trkpt lat="44.99044" lon="6.03096">
        <ele>2411.6000976562</ele>
        <time>2021-03-21T10:24:22.000Z</time>
      </trkpt>
      <trkpt lat="44.99043" lon="6.03096">
        <ele>2412</ele>
        <time>2021-03-21T10:24:23.000Z</time>
      </trkpt>
      <trkpt lat="44.99043" lon="6.03097">
        <ele>2412.3999023438</ele>
        <time>2021-03-21T10:24:24.000Z</time>
      </trkpt>
      <trkpt lat="44.99042" lon="6.03097">
        <ele>2412.8000488281</ele>
        <time>2021-03-21T10:24:25.000Z</time>
      </trkpt>
      <trkpt lat="44.99041" lon="6.03098">
        <ele>2413</ele>
        <time>2021-03-21T10:24:26.000Z</time>
      </trkpt>
      <trkpt lat="44.9904" lon="6.03098">
        <ele>2413.1999511719</ele>
        <time>2021-03-21T10:24:27.000Z</time>
      </trkpt>
      <trkpt lat="44.9904" lon="6.03099">
        <ele>2413.3999023438</ele>
        <time>2021-03-21T10:24:28.000Z</time>
      </trkpt>
      <trkpt lat="44.99039" lon="6.03099">
        <ele>2413.6000976562</ele>
        <time>2021-03-21T10:24:29.000Z</time>
      </trkpt>
      <trkpt lat="44.99038" lon="6.03099">
        <ele>2413.6000976562</ele>
        <time>2021-03-21T10:24:30.000Z</time>
      </trkpt>
      <trkpt lat="44.99038" lon="6.03099">
        <ele>2413.8000488281</ele>
        <time>2021-03-21T10:24:31.000Z</time>
      </trkpt>
      <trkpt lat="44.99037" lon="6.03098">
        <ele>2413.8000488281</ele>
        <time>2021-03-21T10:24:32.000Z</time>
      </trkpt>
      <trkpt lat="44.99037" lon="6.03098">
        <ele>2413.8000488281</ele>
        <time>2021-03-21T10:24:33.000Z</time>
      </trkpt>
      <trkpt lat="44.99036" lon="6.03098">
        <ele>2414</ele>
        <time>2021-03-21T10:24:34.000Z</time>
      </trkpt>
      <trkpt lat="44.99036" lon="6.03098">
        <ele>2414.1999511719</ele>
        <time>2021-03-21T10:24:35.000Z</time>
      </trkpt>
      <trkpt lat="44.99035" lon="6.03098">
        <ele>2414.1999511719</ele>
        <time>2021-03-21T10:24:36.000Z</time>
      </trkpt>
      <trkpt lat="44.99034" lon="6.03098">
        <ele>2414.1999511719</ele>
        <time>2021-03-21T10:24:37.000Z</time>
      </trkpt>
      <trkpt lat="44.99034" lon="6.03098">
        <ele>2414.3999023438</ele>
        <time>2021-03-21T10:24:38.000Z</time>
      </trkpt>
      <trkpt lat="44.99034" lon="6.03098">
        <ele>2414.3999023438</ele>
        <time>2021-03-21T10:24:39.000Z</time>
      </trkpt>
      <trkpt lat="44.99033" lon="6.03098">
        <ele>2414.6000976562</ele>
        <time>2021-03-21T10:24:40.000Z</time>
      </trkpt>
      <trkpt lat="44.99032" lon="6.03099">
        <ele>2414.8000488281</ele>
        <time>2021-03-21T10:24:41.000Z</time>
      </trkpt>
      <trkpt lat="44.99031" lon="6.03099">
        <ele>2415</ele>
        <time>2021-03-21T10:24:42.000Z</time>
      </trkpt>
      <trkpt lat="44.99031" lon="6.03099">
        <ele>2415</ele>
        <time>2021-03-21T10:24:43.000Z</time>
      </trkpt>
      <trkpt lat="44.9903" lon="6.03099">
        <ele>2415.1999511719</ele>
        <time>2021-03-21T10:24:44.000Z</time>
      </trkpt>
      <trkpt lat="44.99029" lon="6.03099">
        <ele>2415.3999023438</ele>
        <time>2021-03-21T10:24:45.000Z</time>
      </trkpt>
      <trkpt lat="44.99029" lon="6.03099">
        <ele>2415.3999023438</ele>
        <time>2021-03-21T10:24:46.000Z</time>
      </trkpt>
      <trkpt lat="44.99028" lon="6.031">
        <ele>2415.6000976562</ele>
        <time>2021-03-21T10:24:47.000Z</time>
      </trkpt>
      <trkpt lat="44.99028" lon="6.031">
        <ele>2415.6000976562</ele>
        <time>2021-03-21T10:24:48.000Z</time>
      </trkpt>
      <trkpt lat="44.99027" lon="6.031">
        <ele>2415.8000488281</ele>
        <time>2021-03-21T10:24:49.000Z</time>
      </trkpt>
      <trkpt lat="44.99027" lon="6.031">
        <ele>2415.8000488281</ele>
        <time>2021-03-21T10:24:50.000Z</time>
      </trkpt>
      <trkpt lat="44.99026" lon="6.031">
        <ele>2416</ele>
        <time>2021-03-21T10:24:51.000Z</time>
      </trkpt>
      <trkpt lat="44.99026" lon="6.031">
        <ele>2416</ele>
        <time>2021-03-21T10:24:52.000Z</time>
      </trkpt>
      <trkpt lat="44.99025" lon="6.031">
        <ele>2416.1999511719</ele>
        <time>2021-03-21T10:24:53.000Z</time>
      </trkpt>
      <trkpt lat="44.99024" lon="6.031">
        <ele>2416.3999023438</ele>
        <time>2021-03-21T10:24:54.000Z</time>
      </trkpt>
      <trkpt lat="44.99024" lon="6.03101">
        <ele>2416.6000976562</ele>
        <time>2021-03-21T10:24:55.000Z</time>
      </trkpt>
      <trkpt lat="44.99023" lon="6.03101">
        <ele>2416.8000488281</ele>
        <time>2021-03-21T10:24:56.000Z</time>
      </trkpt>
      <trkpt lat="44.99022" lon="6.03101">
        <ele>2416.8000488281</ele>
        <time>2021-03-21T10:24:57.000Z</time>
      </trkpt>
      <trkpt lat="44.99022" lon="6.03101">
        <ele>2417</ele>
        <time>2021-03-21T10:24:58.000Z</time>
      </trkpt>
      <trkpt lat="44.99021" lon="6.03101">
        <ele>2417</ele>
        <time>2021-03-21T10:24:59.000Z</time>
      </trkpt>
      <trkpt lat="44.9902" lon="6.03101">
        <ele>2417.1999511719</ele>
        <time>2021-03-21T10:25:00.000Z</time>
      </trkpt>
      <trkpt lat="44.9902" lon="6.03101">
        <ele>2417.3999023438</ele>
        <time>2021-03-21T10:25:01.000Z</time>
      </trkpt>
      <trkpt lat="44.99019" lon="6.03101">
        <ele>2417.6000976562</ele>
        <time>2021-03-21T10:25:02.000Z</time>
      </trkpt>
      <trkpt lat="44.99018" lon="6.03101">
        <ele>2417.6000976562</ele>
        <time>2021-03-21T10:25:03.000Z</time>
      </trkpt>
      <trkpt lat="44.99018" lon="6.03102">
        <ele>2417.8000488281</ele>
        <time>2021-03-21T10:25:04.000Z</time>
      </trkpt>
      <trkpt lat="44.99017" lon="6.03101">
        <ele>2417.8000488281</ele>
        <time>2021-03-21T10:25:05.000Z</time>
      </trkpt>
      <trkpt lat="44.99016" lon="6.03101">
        <ele>2418</ele>
        <time>2021-03-21T10:25:06.000Z</time>
      </trkpt>
      <trkpt lat="44.99016" lon="6.03101">
        <ele>2418.1999511719</ele>
        <time>2021-03-21T10:25:07.000Z</time>
      </trkpt>
      <trkpt lat="44.99015" lon="6.03101">
        <ele>2418.1999511719</ele>
        <time>2021-03-21T10:25:08.000Z</time>
      </trkpt>
      <trkpt lat="44.99015" lon="6.03101">
        <ele>2418.3999023438</ele>
        <time>2021-03-21T10:25:09.000Z</time>
      </trkpt>
      <trkpt lat="44.99014" lon="6.03101">
        <ele>2418.6000976562</ele>
        <time>2021-03-21T10:25:10.000Z</time>
      </trkpt>
      <trkpt lat="44.99013" lon="6.03101">
        <ele>2418.8000488281</ele>
        <time>2021-03-21T10:25:11.000Z</time>
      </trkpt>
      <trkpt lat="44.99012" lon="6.03102">
        <ele>2419</ele>
        <time>2021-03-21T10:25:12.000Z</time>
      </trkpt>
      <trkpt lat="44.99012" lon="6.03102">
        <ele>2419</ele>
        <time>2021-03-21T10:25:13.000Z</time>
      </trkpt>
      <trkpt lat="44.99011" lon="6.03102">
        <ele>2419</ele>
        <time>2021-03-21T10:25:14.000Z</time>
      </trkpt>
      <trkpt lat="44.99011" lon="6.03103">
        <ele>2419.1999511719</ele>
        <time>2021-03-21T10:25:15.000Z</time>
      </trkpt>
      <trkpt lat="44.9901" lon="6.03103">
        <ele>2419.1999511719</ele>
        <time>2021-03-21T10:25:16.000Z</time>
      </trkpt>
      <trkpt lat="44.99009" lon="6.03104">
        <ele>2419.3999023438</ele>
        <time>2021-03-21T10:25:17.000Z</time>
      </trkpt>
      <trkpt lat="44.99009" lon="6.03104">
        <ele>2419.6000976562</ele>
        <time>2021-03-21T10:25:18.000Z</time>
      </trkpt>
      <trkpt lat="44.99008" lon="6.03105">
        <ele>2419.8000488281</ele>
        <time>2021-03-21T10:25:19.000Z</time>
      </trkpt>
      <trkpt lat="44.99007" lon="6.03105">
        <ele>2420</ele>
        <time>2021-03-21T10:25:20.000Z</time>
      </trkpt>
      <trkpt lat="44.99006" lon="6.03106">
        <ele>2420.1999511719</ele>
        <time>2021-03-21T10:25:21.000Z</time>
      </trkpt>
      <trkpt lat="44.99005" lon="6.03106">
        <ele>2420.1999511719</ele>
        <time>2021-03-21T10:25:22.000Z</time>
      </trkpt>
      <trkpt lat="44.99004" lon="6.03106">
        <ele>2420.3999023438</ele>
        <time>2021-03-21T10:25:23.000Z</time>
      </trkpt>
      <trkpt lat="44.99004" lon="6.03107">
        <ele>2420.6000976562</ele>
        <time>2021-03-21T10:25:24.000Z</time>
      </trkpt>
      <trkpt lat="44.99003" lon="6.03107">
        <ele>2420.8000488281</ele>
        <time>2021-03-21T10:25:25.000Z</time>
      </trkpt>
      <trkpt lat="44.99002" lon="6.03108">
        <ele>2420.8000488281</ele>
        <time>2021-03-21T10:25:26.000Z</time>
      </trkpt>
      <trkpt lat="44.99001" lon="6.03108">
        <ele>2421</ele>
        <time>2021-03-21T10:25:27.000Z</time>
      </trkpt>
      <trkpt lat="44.99001" lon="6.03109">
        <ele>2421.3999023438</ele>
        <time>2021-03-21T10:25:28.000Z</time>
      </trkpt>
      <trkpt lat="44.99" lon="6.0311">
        <ele>2421.3999023438</ele>
        <time>2021-03-21T10:25:29.000Z</time>
      </trkpt>
      <trkpt lat="44.99" lon="6.03111">
        <ele>2421.6000976562</ele>
        <time>2021-03-21T10:25:30.000Z</time>
      </trkpt>
      <trkpt lat="44.99" lon="6.03111">
        <ele>2421.8000488281</ele>
        <time>2021-03-21T10:25:31.000Z</time>
      </trkpt>
      <trkpt lat="44.99" lon="6.03112">
        <ele>2422</ele>
        <time>2021-03-21T10:25:32.000Z</time>
      </trkpt>
      <trkpt lat="44.99" lon="6.03113">
        <ele>2422.1999511719</ele>
        <time>2021-03-21T10:25:33.000Z</time>
      </trkpt>
      <trkpt lat="44.99" lon="6.03114">
        <ele>2422.3999023438</ele>
        <time>2021-03-21T10:25:34.000Z</time>
      </trkpt>
      <trkpt lat="44.99001" lon="6.03114">
        <ele>2422.6000976562</ele>
        <time>2021-03-21T10:25:35.000Z</time>
      </trkpt>
      <trkpt lat="44.99001" lon="6.03116">
        <ele>2423</ele>
        <time>2021-03-21T10:25:36.000Z</time>
      </trkpt>
      <trkpt lat="44.99001" lon="6.03116">
        <ele>2423.1999511719</ele>
        <time>2021-03-21T10:25:37.000Z</time>
      </trkpt>
      <trkpt lat="44.99001" lon="6.03117">
        <ele>2423.3999023438</ele>
        <time>2021-03-21T10:25:38.000Z</time>
      </trkpt>
      <trkpt lat="44.99001" lon="6.03118">
        <ele>2423.6000976562</ele>
        <time>2021-03-21T10:25:39.000Z</time>
      </trkpt>
      <trkpt lat="44.99001" lon="6.03119">
        <ele>2424</ele>
        <time>2021-03-21T10:25:40.000Z</time>
      </trkpt>
      <trkpt lat="44.99002" lon="6.0312">
        <ele>2424.1999511719</ele>
        <time>2021-03-21T10:25:41.000Z</time>
      </trkpt>
      <trkpt lat="44.99002" lon="6.03121">
        <ele>2424.6000976562</ele>
        <time>2021-03-21T10:25:42.000Z</time>
      </trkpt>
      <trkpt lat="44.99002" lon="6.03122">
        <ele>2424.8000488281</ele>
        <time>2021-03-21T10:25:43.000Z</time>
      </trkpt>
      <trkpt lat="44.99002" lon="6.03123">
        <ele>2425</ele>
        <time>2021-03-21T10:25:44.000Z</time>
      </trkpt>
      <trkpt lat="44.99002" lon="6.03124">
        <ele>2425.3999023438</ele>
        <time>2021-03-21T10:25:45.000Z</time>
      </trkpt>
      <trkpt lat="44.99002" lon="6.03125">
        <ele>2425.8000488281</ele>
        <time>2021-03-21T10:25:46.000Z</time>
      </trkpt>
      <trkpt lat="44.99002" lon="6.03126">
        <ele>2426.1999511719</ele>
        <time>2021-03-21T10:25:47.000Z</time>
      </trkpt>
      <trkpt lat="44.99002" lon="6.03127">
        <ele>2426.1999511719</ele>
        <time>2021-03-21T10:25:48.000Z</time>
      </trkpt>
      <trkpt lat="44.99002" lon="6.03128">
        <ele>2426.3999023438</ele>
        <time>2021-03-21T10:25:49.000Z</time>
      </trkpt>
      <trkpt lat="44.99001" lon="6.03128">
        <ele>2426.6000976562</ele>
        <time>2021-03-21T10:25:50.000Z</time>
      </trkpt>
      <trkpt lat="44.99001" lon="6.0313">
        <ele>2426.8000488281</ele>
        <time>2021-03-21T10:25:51.000Z</time>
      </trkpt>
      <trkpt lat="44.99001" lon="6.03131">
        <ele>2427</ele>
        <time>2021-03-21T10:25:52.000Z</time>
      </trkpt>
      <trkpt lat="44.99" lon="6.03132">
        <ele>2427.1999511719</ele>
        <time>2021-03-21T10:25:53.000Z</time>
      </trkpt>
      <trkpt lat="44.99" lon="6.03133">
        <ele>2427.3999023438</ele>
        <time>2021-03-21T10:25:54.000Z</time>
      </trkpt>
      <trkpt lat="44.99" lon="6.03134">
        <ele>2427.6000976562</ele>
        <time>2021-03-21T10:25:55.000Z</time>
      </trkpt>
      <trkpt lat="44.99" lon="6.03135">
        <ele>2427.8000488281</ele>
        <time>2021-03-21T10:25:56.000Z</time>
      </trkpt>
      <trkpt lat="44.98999" lon="6.03136">
        <ele>2428.1999511719</ele>
        <time>2021-03-21T10:25:57.000Z</time>
      </trkpt>
      <trkpt lat="44.98999" lon="6.03138">
        <ele>2428.1999511719</ele>
        <time>2021-03-21T10:25:58.000Z</time>
      </trkpt>
      <trkpt lat="44.98999" lon="6.03138">
        <ele>2428.3999023438</ele>
        <time>2021-03-21T10:25:59.000Z</time>
      </trkpt>
      <trkpt lat="44.98998" lon="6.0314">
        <ele>2428.8000488281</ele>
        <time>2021-03-21T10:26:00.000Z</time>
      </trkpt>
      <trkpt lat="44.98998" lon="6.0314">
        <ele>2429</ele>
        <time>2021-03-21T10:26:01.000Z</time>
      </trkpt>
      <trkpt lat="44.98998" lon="6.03141">
        <ele>2429.3999023438</ele>
        <time>2021-03-21T10:26:02.000Z</time>
      </trkpt>
      <trkpt lat="44.98998" lon="6.03142">
        <ele>2429.6000976562</ele>
        <time>2021-03-21T10:26:03.000Z</time>
      </trkpt>
      <trkpt lat="44.98997" lon="6.03143">
        <ele>2430.1999511719</ele>
        <time>2021-03-21T10:26:04.000Z</time>
      </trkpt>
      <trkpt lat="44.98997" lon="6.03144">
        <ele>2430.6000976562</ele>
        <time>2021-03-21T10:26:05.000Z</time>
      </trkpt>
      <trkpt lat="44.98996" lon="6.03145">
        <ele>2431</ele>
        <time>2021-03-21T10:26:06.000Z</time>
      </trkpt>
      <trkpt lat="44.98995" lon="6.03145">
        <ele>2431.1999511719</ele>
        <time>2021-03-21T10:26:07.000Z</time>
      </trkpt>
      <trkpt lat="44.98995" lon="6.03146">
        <ele>2431.3999023438</ele>
        <time>2021-03-21T10:26:08.000Z</time>
      </trkpt>
      <trkpt lat="44.98994" lon="6.03146">
        <ele>2431.6000976562</ele>
        <time>2021-03-21T10:26:09.000Z</time>
      </trkpt>
      <trkpt lat="44.98993" lon="6.03146">
        <ele>2431.8000488281</ele>
        <time>2021-03-21T10:26:10.000Z</time>
      </trkpt>
      <trkpt lat="44.98992" lon="6.03146">
        <ele>2432.1999511719</ele>
        <time>2021-03-21T10:26:11.000Z</time>
      </trkpt>
      <trkpt lat="44.98992" lon="6.03146">
        <ele>2432.1999511719</ele>
        <time>2021-03-21T10:26:12.000Z</time>
      </trkpt>
      <trkpt lat="44.98991" lon="6.03146">
        <ele>2432.3999023438</ele>
        <time>2021-03-21T10:26:13.000Z</time>
      </trkpt>
      <trkpt lat="44.98991" lon="6.03146">
        <ele>2432.6000976562</ele>
        <time>2021-03-21T10:26:14.000Z</time>
      </trkpt>
      <trkpt lat="44.9899" lon="6.03146">
        <ele>2432.8000488281</ele>
        <time>2021-03-21T10:26:15.000Z</time>
      </trkpt>
      <trkpt lat="44.98989" lon="6.03146">
        <ele>2433</ele>
        <time>2021-03-21T10:26:16.000Z</time>
      </trkpt>
      <trkpt lat="44.98989" lon="6.03146">
        <ele>2433.1999511719</ele>
        <time>2021-03-21T10:26:17.000Z</time>
      </trkpt>
      <trkpt lat="44.98988" lon="6.03146">
        <ele>2433.3999023438</ele>
        <time>2021-03-21T10:26:18.000Z</time>
      </trkpt>
      <trkpt lat="44.98988" lon="6.03146">
        <ele>2433.6000976562</ele>
        <time>2021-03-21T10:26:19.000Z</time>
      </trkpt>
      <trkpt lat="44.98987" lon="6.03146">
        <ele>2433.6000976562</ele>
        <time>2021-03-21T10:26:20.000Z</time>
      </trkpt>
      <trkpt lat="44.98987" lon="6.03146">
        <ele>2433.8000488281</ele>
        <time>2021-03-21T10:26:21.000Z</time>
      </trkpt>
      <trkpt lat="44.98987" lon="6.03146">
        <ele>2433.8000488281</ele>
        <time>2021-03-21T10:26:22.000Z</time>
      </trkpt>
      <trkpt lat="44.98986" lon="6.03146">
        <ele>2434</ele>
        <time>2021-03-21T10:26:23.000Z</time>
      </trkpt>
      <trkpt lat="44.98985" lon="6.03146">
        <ele>2434.1999511719</ele>
        <time>2021-03-21T10:26:24.000Z</time>
      </trkpt>
      <trkpt lat="44.98984" lon="6.03146">
        <ele>2434.3999023438</ele>
        <time>2021-03-21T10:26:25.000Z</time>
      </trkpt>
      <trkpt lat="44.98984" lon="6.03146">
        <ele>2434.6000976562</ele>
        <time>2021-03-21T10:26:26.000Z</time>
      </trkpt>
      <trkpt lat="44.98983" lon="6.03146">
        <ele>2434.8000488281</ele>
        <time>2021-03-21T10:26:27.000Z</time>
      </trkpt>
      <trkpt lat="44.98983" lon="6.03146">
        <ele>2434.8000488281</ele>
        <time>2021-03-21T10:26:28.000Z</time>
      </trkpt>
      <trkpt lat="44.98983" lon="6.03146">
        <ele>2434.8000488281</ele>
        <time>2021-03-21T10:26:29.000Z</time>
      </trkpt>
      <trkpt lat="44.98982" lon="6.03145">
        <ele>2434.8000488281</ele>
        <time>2021-03-21T10:26:30.000Z</time>
      </trkpt>
      <trkpt lat="44.98982" lon="6.03145">
        <ele>2435</ele>
        <time>2021-03-21T10:26:31.000Z</time>
      </trkpt>
      <trkpt lat="44.98982" lon="6.03145">
        <ele>2435</ele>
        <time>2021-03-21T10:26:32.000Z</time>
      </trkpt>
      <trkpt lat="44.98981" lon="6.03145">
        <ele>2435</ele>
        <time>2021-03-21T10:26:33.000Z</time>
      </trkpt>
      <trkpt lat="44.98981" lon="6.03145">
        <ele>2435.3999023438</ele>
        <time>2021-03-21T10:26:34.000Z</time>
      </trkpt>
      <trkpt lat="44.9898" lon="6.03145">
        <ele>2435.1999511719</ele>
        <time>2021-03-21T10:26:35.000Z</time>
      </trkpt>
      <trkpt lat="44.9898" lon="6.03145">
        <ele>2435.3999023438</ele>
        <time>2021-03-21T10:26:36.000Z</time>
      </trkpt>
      <trkpt lat="44.9898" lon="6.03144">
        <ele>2435.3999023438</ele>
        <time>2021-03-21T10:26:37.000Z</time>
      </trkpt>
      <trkpt lat="44.98979" lon="6.03144">
        <ele>2435.3999023438</ele>
        <time>2021-03-21T10:26:38.000Z</time>
      </trkpt>
      <trkpt lat="44.98979" lon="6.03143">
        <ele>2435.1999511719</ele>
        <time>2021-03-21T10:26:39.000Z</time>
      </trkpt>
      <trkpt lat="44.98979" lon="6.03143">
        <ele>2435.3999023438</ele>
        <time>2021-03-21T10:26:40.000Z</time>
      </trkpt>
      <trkpt lat="44.98978" lon="6.03143">
        <ele>2435.6000976562</ele>
        <time>2021-03-21T10:26:41.000Z</time>
      </trkpt>
      <trkpt lat="44.98978" lon="6.03143">
        <ele>2435.6000976562</ele>
        <time>2021-03-21T10:26:42.000Z</time>
      </trkpt>
      <trkpt lat="44.98977" lon="6.03143">
        <ele>2435.8000488281</ele>
        <time>2021-03-21T10:26:43.000Z</time>
      </trkpt>
      <trkpt lat="44.98977" lon="6.03144">
        <ele>2436.1999511719</ele>
        <time>2021-03-21T10:26:44.000Z</time>
      </trkpt>
      <trkpt lat="44.98976" lon="6.03143">
        <ele>2436.1999511719</ele>
        <time>2021-03-21T10:26:45.000Z</time>
      </trkpt>
      <trkpt lat="44.98976" lon="6.03143">
        <ele>2436.3999023438</ele>
        <time>2021-03-21T10:26:46.000Z</time>
      </trkpt>
      <trkpt lat="44.98975" lon="6.03143">
        <ele>2436.3999023438</ele>
        <time>2021-03-21T10:26:47.000Z</time>
      </trkpt>
      <trkpt lat="44.98975" lon="6.03143">
        <ele>2436.6000976562</ele>
        <time>2021-03-21T10:26:48.000Z</time>
      </trkpt>
      <trkpt lat="44.98974" lon="6.03143">
        <ele>2436.8000488281</ele>
        <time>2021-03-21T10:26:49.000Z</time>
      </trkpt>
      <trkpt lat="44.98974" lon="6.03143">
        <ele>2436.8000488281</ele>
        <time>2021-03-21T10:26:50.000Z</time>
      </trkpt>
      <trkpt lat="44.98973" lon="6.03143">
        <ele>2437</ele>
        <time>2021-03-21T10:26:51.000Z</time>
      </trkpt>
      <trkpt lat="44.98972" lon="6.03143">
        <ele>2437.1999511719</ele>
        <time>2021-03-21T10:26:52.000Z</time>
      </trkpt>
      <trkpt lat="44.98972" lon="6.03143">
        <ele>2437.3999023438</ele>
        <time>2021-03-21T10:26:53.000Z</time>
      </trkpt>
      <trkpt lat="44.98971" lon="6.03143">
        <ele>2437.3999023438</ele>
        <time>2021-03-21T10:26:54.000Z</time>
      </trkpt>
      <trkpt lat="44.98971" lon="6.03143">
        <ele>2437.6000976562</ele>
        <time>2021-03-21T10:26:55.000Z</time>
      </trkpt>
      <trkpt lat="44.9897" lon="6.03143">
        <ele>2437.8000488281</ele>
        <time>2021-03-21T10:26:56.000Z</time>
      </trkpt>
      <trkpt lat="44.98969" lon="6.03143">
        <ele>2438</ele>
        <time>2021-03-21T10:26:57.000Z</time>
      </trkpt>
      <trkpt lat="44.98969" lon="6.03143">
        <ele>2438.1999511719</ele>
        <time>2021-03-21T10:26:58.000Z</time>
      </trkpt>
      <trkpt lat="44.98968" lon="6.03143">
        <ele>2438.3999023438</ele>
        <time>2021-03-21T10:26:59.000Z</time>
      </trkpt>
      <trkpt lat="44.98967" lon="6.03143">
        <ele>2438.6000976562</ele>
        <time>2021-03-21T10:27:00.000Z</time>
      </trkpt>
      <trkpt lat="44.98967" lon="6.03143">
        <ele>2438.6000976562</ele>
        <time>2021-03-21T10:27:01.000Z</time>
      </trkpt>
      <trkpt lat="44.98967" lon="6.03142">
        <ele>2438.8000488281</ele>
        <time>2021-03-21T10:27:02.000Z</time>
      </trkpt>
      <trkpt lat="44.98966" lon="6.03142">
        <ele>2439</ele>
        <time>2021-03-21T10:27:03.000Z</time>
      </trkpt>
      <trkpt lat="44.98965" lon="6.03142">
        <ele>2439</ele>
        <time>2021-03-21T10:27:04.000Z</time>
      </trkpt>
      <trkpt lat="44.98965" lon="6.03142">
        <ele>2439.1999511719</ele>
        <time>2021-03-21T10:27:05.000Z</time>
      </trkpt>
      <trkpt lat="44.98964" lon="6.03142">
        <ele>2439.3999023438</ele>
        <time>2021-03-21T10:27:06.000Z</time>
      </trkpt>
      <trkpt lat="44.98964" lon="6.03142">
        <ele>2439.6000976562</ele>
        <time>2021-03-21T10:27:07.000Z</time>
      </trkpt>
      <trkpt lat="44.98963" lon="6.03143">
        <ele>2439.8000488281</ele>
        <time>2021-03-21T10:27:08.000Z</time>
      </trkpt>
      <trkpt lat="44.98962" lon="6.03143">
        <ele>2440</ele>
        <time>2021-03-21T10:27:09.000Z</time>
      </trkpt>
      <trkpt lat="44.98961" lon="6.03143">
        <ele>2440.3999023438</ele>
        <time>2021-03-21T10:27:10.000Z</time>
      </trkpt>
      <trkpt lat="44.98961" lon="6.03143">
        <ele>2440.6000976562</ele>
        <time>2021-03-21T10:27:11.000Z</time>
      </trkpt>
      <trkpt lat="44.9896" lon="6.03144">
        <ele>2440.8000488281</ele>
        <time>2021-03-21T10:27:12.000Z</time>
      </trkpt>
      <trkpt lat="44.9896" lon="6.03144">
        <ele>2441</ele>
        <time>2021-03-21T10:27:13.000Z</time>
      </trkpt>
      <trkpt lat="44.98959" lon="6.03144">
        <ele>2441.3999023438</ele>
        <time>2021-03-21T10:27:14.000Z</time>
      </trkpt>
      <trkpt lat="44.98958" lon="6.03144">
        <ele>2441.3999023438</ele>
        <time>2021-03-21T10:27:15.000Z</time>
      </trkpt>
      <trkpt lat="44.98958" lon="6.03143">
        <ele>2441.3999023438</ele>
        <time>2021-03-21T10:27:16.000Z</time>
      </trkpt>
      <trkpt lat="44.98957" lon="6.03143">
        <ele>2441.3999023438</ele>
        <time>2021-03-21T10:27:17.000Z</time>
      </trkpt>
      <trkpt lat="44.98957" lon="6.03143">
        <ele>2441.6000976562</ele>
        <time>2021-03-21T10:27:18.000Z</time>
      </trkpt>
      <trkpt lat="44.98956" lon="6.03143">
        <ele>2441.6000976562</ele>
        <time>2021-03-21T10:27:19.000Z</time>
      </trkpt>
      <trkpt lat="44.98956" lon="6.03143">
        <ele>2441.8000488281</ele>
        <time>2021-03-21T10:27:20.000Z</time>
      </trkpt>
      <trkpt lat="44.98956" lon="6.03144">
        <ele>2441.8000488281</ele>
        <time>2021-03-21T10:27:21.000Z</time>
      </trkpt>
      <trkpt lat="44.98956" lon="6.03144">
        <ele>2441.8000488281</ele>
        <time>2021-03-21T10:27:22.000Z</time>
      </trkpt>
      <trkpt lat="44.98956" lon="6.03144">
        <ele>2441.8000488281</ele>
        <time>2021-03-21T10:27:23.000Z</time>
      </trkpt>
      <trkpt lat="44.98955" lon="6.03144">
        <ele>2442</ele>
        <time>2021-03-21T10:27:24.000Z</time>
      </trkpt>
      <trkpt lat="44.98955" lon="6.03144">
        <ele>2442</ele>
        <time>2021-03-21T10:27:25.000Z</time>
      </trkpt>
      <trkpt lat="44.98955" lon="6.03143">
        <ele>2441.8000488281</ele>
        <time>2021-03-21T10:27:26.000Z</time>
      </trkpt>
      <trkpt lat="44.98955" lon="6.03143">
        <ele>2441.8000488281</ele>
        <time>2021-03-21T10:27:27.000Z</time>
      </trkpt>
      <trkpt lat="44.98956" lon="6.03144">
        <ele>2441.8000488281</ele>
        <time>2021-03-21T10:27:28.000Z</time>
      </trkpt>
      <trkpt lat="44.98956" lon="6.03144">
        <ele>2442</ele>
        <time>2021-03-21T10:27:29.000Z</time>
      </trkpt>
      <trkpt lat="44.98956" lon="6.03144">
        <ele>2441.8000488281</ele>
        <time>2021-03-21T10:27:30.000Z</time>
      </trkpt>
      <trkpt lat="44.98956" lon="6.03144">
        <ele>2441.8000488281</ele>
        <time>2021-03-21T10:27:31.000Z</time>
      </trkpt>
      <trkpt lat="44.98957" lon="6.03145">
        <ele>2442</ele>
        <time>2021-03-21T10:27:32.000Z</time>
      </trkpt>
      <trkpt lat="44.98957" lon="6.03146">
        <ele>2442.1999511719</ele>
        <time>2021-03-21T10:27:33.000Z</time>
      </trkpt>
      <trkpt lat="44.98957" lon="6.03147">
        <ele>2442.6000976562</ele>
        <time>2021-03-21T10:27:34.000Z</time>
      </trkpt>
      <trkpt lat="44.98958" lon="6.03148">
        <ele>2442.6000976562</ele>
        <time>2021-03-21T10:27:35.000Z</time>
      </trkpt>
      <trkpt lat="44.98958" lon="6.0315">
        <ele>2443</ele>
        <time>2021-03-21T10:27:36.000Z</time>
      </trkpt>
      <trkpt lat="44.98958" lon="6.0315">
        <ele>2443.1999511719</ele>
        <time>2021-03-21T10:27:37.000Z</time>
      </trkpt>
      <trkpt lat="44.98958" lon="6.03151">
        <ele>2443.3999023438</ele>
        <time>2021-03-21T10:27:38.000Z</time>
      </trkpt>
      <trkpt lat="44.98958" lon="6.03152">
        <ele>2443.6000976562</ele>
        <time>2021-03-21T10:27:39.000Z</time>
      </trkpt>
      <trkpt lat="44.98959" lon="6.03153">
        <ele>2443.6000976562</ele>
        <time>2021-03-21T10:27:40.000Z</time>
      </trkpt>
      <trkpt lat="44.98959" lon="6.03154">
        <ele>2444</ele>
        <time>2021-03-21T10:27:41.000Z</time>
      </trkpt>
      <trkpt lat="44.98959" lon="6.03155">
        <ele>2444</ele>
        <time>2021-03-21T10:27:42.000Z</time>
      </trkpt>
      <trkpt lat="44.98959" lon="6.03156">
        <ele>2444.1999511719</ele>
        <time>2021-03-21T10:27:43.000Z</time>
      </trkpt>
      <trkpt lat="44.98959" lon="6.03157">
        <ele>2444.1999511719</ele>
        <time>2021-03-21T10:27:44.000Z</time>
      </trkpt>
      <trkpt lat="44.98959" lon="6.03158">
        <ele>2444.3999023438</ele>
        <time>2021-03-21T10:27:45.000Z</time>
      </trkpt>
      <trkpt lat="44.98959" lon="6.03159">
        <ele>2444.3999023438</ele>
        <time>2021-03-21T10:27:46.000Z</time>
      </trkpt>
      <trkpt lat="44.98959" lon="6.0316">
        <ele>2444.6000976562</ele>
        <time>2021-03-21T10:27:47.000Z</time>
      </trkpt>
      <trkpt lat="44.98959" lon="6.03161">
        <ele>2444.6000976562</ele>
        <time>2021-03-21T10:27:48.000Z</time>
      </trkpt>
      <trkpt lat="44.98959" lon="6.03162">
        <ele>2444.8000488281</ele>
        <time>2021-03-21T10:27:49.000Z</time>
      </trkpt>
      <trkpt lat="44.98959" lon="6.03163">
        <ele>2444.8000488281</ele>
        <time>2021-03-21T10:27:50.000Z</time>
      </trkpt>
      <trkpt lat="44.98959" lon="6.03164">
        <ele>2444.8000488281</ele>
        <time>2021-03-21T10:27:51.000Z</time>
      </trkpt>
      <trkpt lat="44.98959" lon="6.03165">
        <ele>2445</ele>
        <time>2021-03-21T10:27:52.000Z</time>
      </trkpt>
      <trkpt lat="44.98959" lon="6.03166">
        <ele>2445</ele>
        <time>2021-03-21T10:27:53.000Z</time>
      </trkpt>
      <trkpt lat="44.98959" lon="6.03166">
        <ele>2445.1999511719</ele>
        <time>2021-03-21T10:27:54.000Z</time>
      </trkpt>
      <trkpt lat="44.98959" lon="6.03168">
        <ele>2445.1999511719</ele>
        <time>2021-03-21T10:27:55.000Z</time>
      </trkpt>
      <trkpt lat="44.98959" lon="6.03168">
        <ele>2445.3999023438</ele>
        <time>2021-03-21T10:27:56.000Z</time>
      </trkpt>
      <trkpt lat="44.98959" lon="6.0317">
        <ele>2445.3999023438</ele>
        <time>2021-03-21T10:27:57.000Z</time>
      </trkpt>
      <trkpt lat="44.98959" lon="6.0317">
        <ele>2445.6000976562</ele>
        <time>2021-03-21T10:27:58.000Z</time>
      </trkpt>
      <trkpt lat="44.98959" lon="6.03172">
        <ele>2445.8000488281</ele>
        <time>2021-03-21T10:27:59.000Z</time>
      </trkpt>
      <trkpt lat="44.98959" lon="6.03172">
        <ele>2446</ele>
        <time>2021-03-21T10:28:00.000Z</time>
      </trkpt>
      <trkpt lat="44.98958" lon="6.03173">
        <ele>2446</ele>
        <time>2021-03-21T10:28:01.000Z</time>
      </trkpt>
      <trkpt lat="44.98958" lon="6.03174">
        <ele>2446.1999511719</ele>
        <time>2021-03-21T10:28:02.000Z</time>
      </trkpt>
      <trkpt lat="44.98958" lon="6.03175">
        <ele>2446.3999023438</ele>
        <time>2021-03-21T10:28:03.000Z</time>
      </trkpt>
      <trkpt lat="44.98958" lon="6.03176">
        <ele>2446.6000976562</ele>
        <time>2021-03-21T10:28:04.000Z</time>
      </trkpt>
      <trkpt lat="44.98957" lon="6.03177">
        <ele>2446.8000488281</ele>
        <time>2021-03-21T10:28:05.000Z</time>
      </trkpt>
      <trkpt lat="44.98957" lon="6.03178">
        <ele>2447</ele>
        <time>2021-03-21T10:28:06.000Z</time>
      </trkpt>
      <trkpt lat="44.98956" lon="6.03179">
        <ele>2447.1999511719</ele>
        <time>2021-03-21T10:28:07.000Z</time>
      </trkpt>
      <trkpt lat="44.98955" lon="6.0318">
        <ele>2447.6000976562</ele>
        <time>2021-03-21T10:28:08.000Z</time>
      </trkpt>
      <trkpt lat="44.98955" lon="6.03181">
        <ele>2447.8000488281</ele>
        <time>2021-03-21T10:28:09.000Z</time>
      </trkpt>
      <trkpt lat="44.98954" lon="6.03182">
        <ele>2448</ele>
        <time>2021-03-21T10:28:10.000Z</time>
      </trkpt>
      <trkpt lat="44.98954" lon="6.03183">
        <ele>2448.3999023438</ele>
        <time>2021-03-21T10:28:11.000Z</time>
      </trkpt>
      <trkpt lat="44.98954" lon="6.03184">
        <ele>2448.3999023438</ele>
        <time>2021-03-21T10:28:12.000Z</time>
      </trkpt>
      <trkpt lat="44.98953" lon="6.03185">
        <ele>2448.6000976562</ele>
        <time>2021-03-21T10:28:13.000Z</time>
      </trkpt>
      <trkpt lat="44.98953" lon="6.03185">
        <ele>2448.8000488281</ele>
        <time>2021-03-21T10:28:14.000Z</time>
      </trkpt>
      <trkpt lat="44.98953" lon="6.03186">
        <ele>2448.6000976562</ele>
        <time>2021-03-21T10:28:15.000Z</time>
      </trkpt>
      <trkpt lat="44.98953" lon="6.03186">
        <ele>2448.8000488281</ele>
        <time>2021-03-21T10:28:16.000Z</time>
      </trkpt>
      <trkpt lat="44.98953" lon="6.03186">
        <ele>2448.8000488281</ele>
        <time>2021-03-21T10:28:17.000Z</time>
      </trkpt>
      <trkpt lat="44.98953" lon="6.03186">
        <ele>2448.8000488281</ele>
        <time>2021-03-21T10:28:18.000Z</time>
      </trkpt>
      <trkpt lat="44.98953" lon="6.03187">
        <ele>2448.8000488281</ele>
        <time>2021-03-21T10:28:19.000Z</time>
      </trkpt>
      <trkpt lat="44.98953" lon="6.03187">
        <ele>2448.8000488281</ele>
        <time>2021-03-21T10:28:20.000Z</time>
      </trkpt>
      <trkpt lat="44.98953" lon="6.03187">
        <ele>2448.8000488281</ele>
        <time>2021-03-21T10:28:21.000Z</time>
      </trkpt>
      <trkpt lat="44.98953" lon="6.03187">
        <ele>2448.8000488281</ele>
        <time>2021-03-21T10:28:22.000Z</time>
      </trkpt>
      <trkpt lat="44.98953" lon="6.03188">
        <ele>2448.8000488281</ele>
        <time>2021-03-21T10:28:23.000Z</time>
      </trkpt>
      <trkpt lat="44.98953" lon="6.03188">
        <ele>2449</ele>
        <time>2021-03-21T10:28:24.000Z</time>
      </trkpt>
      <trkpt lat="44.98952" lon="6.03189">
        <ele>2449.1999511719</ele>
        <time>2021-03-21T10:28:25.000Z</time>
      </trkpt>
      <trkpt lat="44.98952" lon="6.0319">
        <ele>2449.3999023438</ele>
        <time>2021-03-21T10:28:26.000Z</time>
      </trkpt>
      <trkpt lat="44.98952" lon="6.0319">
        <ele>2449.6000976562</ele>
        <time>2021-03-21T10:28:27.000Z</time>
      </trkpt>
      <trkpt lat="44.98951" lon="6.03191">
        <ele>2449.8000488281</ele>
        <time>2021-03-21T10:28:28.000Z</time>
      </trkpt>
      <trkpt lat="44.98951" lon="6.03192">
        <ele>2449.8000488281</ele>
        <time>2021-03-21T10:28:29.000Z</time>
      </trkpt>
      <trkpt lat="44.9895" lon="6.03192">
        <ele>2450.1999511719</ele>
        <time>2021-03-21T10:28:30.000Z</time>
      </trkpt>
      <trkpt lat="44.9895" lon="6.03193">
        <ele>2450.1999511719</ele>
        <time>2021-03-21T10:28:31.000Z</time>
      </trkpt>
      <trkpt lat="44.98949" lon="6.03194">
        <ele>2450.3999023438</ele>
        <time>2021-03-21T10:28:32.000Z</time>
      </trkpt>
      <trkpt lat="44.98949" lon="6.03195">
        <ele>2450.8000488281</ele>
        <time>2021-03-21T10:28:33.000Z</time>
      </trkpt>
      <trkpt lat="44.98948" lon="6.03195">
        <ele>2450.8000488281</ele>
        <time>2021-03-21T10:28:34.000Z</time>
      </trkpt>
      <trkpt lat="44.98948" lon="6.03196">
        <ele>2451.1999511719</ele>
        <time>2021-03-21T10:28:35.000Z</time>
      </trkpt>
      <trkpt lat="44.98947" lon="6.03197">
        <ele>2451.1999511719</ele>
        <time>2021-03-21T10:28:36.000Z</time>
      </trkpt>
      <trkpt lat="44.98947" lon="6.03198">
        <ele>2451.3999023438</ele>
        <time>2021-03-21T10:28:37.000Z</time>
      </trkpt>
      <trkpt lat="44.98946" lon="6.03199">
        <ele>2451.8000488281</ele>
        <time>2021-03-21T10:28:38.000Z</time>
      </trkpt>
      <trkpt lat="44.98946" lon="6.03199">
        <ele>2452.1999511719</ele>
        <time>2021-03-21T10:28:39.000Z</time>
      </trkpt>
      <trkpt lat="44.98945" lon="6.032">
        <ele>2452.6000976562</ele>
        <time>2021-03-21T10:28:40.000Z</time>
      </trkpt>
      <trkpt lat="44.98945" lon="6.032">
        <ele>2452.8000488281</ele>
        <time>2021-03-21T10:28:41.000Z</time>
      </trkpt>
      <trkpt lat="44.98944" lon="6.03201">
        <ele>2453.3999023438</ele>
        <time>2021-03-21T10:28:42.000Z</time>
      </trkpt>
      <trkpt lat="44.98944" lon="6.03201">
        <ele>2453.6000976562</ele>
        <time>2021-03-21T10:28:43.000Z</time>
      </trkpt>
      <trkpt lat="44.98943" lon="6.03202">
        <ele>2454</ele>
        <time>2021-03-21T10:28:44.000Z</time>
      </trkpt>
      <trkpt lat="44.98943" lon="6.03202">
        <ele>2454.3999023438</ele>
        <time>2021-03-21T10:28:45.000Z</time>
      </trkpt>
      <trkpt lat="44.98942" lon="6.03203">
        <ele>2454.6000976562</ele>
        <time>2021-03-21T10:28:46.000Z</time>
      </trkpt>
      <trkpt lat="44.98942" lon="6.03204">
        <ele>2455.1999511719</ele>
        <time>2021-03-21T10:28:47.000Z</time>
      </trkpt>
      <trkpt lat="44.98942" lon="6.03204">
        <ele>2455.3999023438</ele>
        <time>2021-03-21T10:28:48.000Z</time>
      </trkpt>
      <trkpt lat="44.98941" lon="6.03205">
        <ele>2456</ele>
        <time>2021-03-21T10:28:49.000Z</time>
      </trkpt>
      <trkpt lat="44.98941" lon="6.03205">
        <ele>2456.1999511719</ele>
        <time>2021-03-21T10:28:50.000Z</time>
      </trkpt>
      <trkpt lat="44.9894" lon="6.03206">
        <ele>2456.6000976562</ele>
        <time>2021-03-21T10:28:51.000Z</time>
      </trkpt>
      <trkpt lat="44.9894" lon="6.03206">
        <ele>2456.8000488281</ele>
        <time>2021-03-21T10:28:52.000Z</time>
      </trkpt>
      <trkpt lat="44.98939" lon="6.03207">
        <ele>2457.1999511719</ele>
        <time>2021-03-21T10:28:53.000Z</time>
      </trkpt>
      <trkpt lat="44.98939" lon="6.03207">
        <ele>2457.3999023438</ele>
        <time>2021-03-21T10:28:54.000Z</time>
      </trkpt>
      <trkpt lat="44.98939" lon="6.03208">
        <ele>2457.8000488281</ele>
        <time>2021-03-21T10:28:55.000Z</time>
      </trkpt>
      <trkpt lat="44.98938" lon="6.03208">
        <ele>2458.1999511719</ele>
        <time>2021-03-21T10:28:56.000Z</time>
      </trkpt>
      <trkpt lat="44.98937" lon="6.03209">
        <ele>2458.6000976562</ele>
        <time>2021-03-21T10:28:57.000Z</time>
      </trkpt>
      <trkpt lat="44.98937" lon="6.03209">
        <ele>2459</ele>
        <time>2021-03-21T10:28:58.000Z</time>
      </trkpt>
      <trkpt lat="44.98937" lon="6.0321">
        <ele>2459</ele>
        <time>2021-03-21T10:28:59.000Z</time>
      </trkpt>
      <trkpt lat="44.98936" lon="6.03211">
        <ele>2459.6000976562</ele>
        <time>2021-03-21T10:29:00.000Z</time>
      </trkpt>
      <trkpt lat="44.98936" lon="6.03211">
        <ele>2459.8000488281</ele>
        <time>2021-03-21T10:29:01.000Z</time>
      </trkpt>
      <trkpt lat="44.98935" lon="6.03212">
        <ele>2460.1999511719</ele>
        <time>2021-03-21T10:29:02.000Z</time>
      </trkpt>
      <trkpt lat="44.98934" lon="6.03212">
        <ele>2460.3999023438</ele>
        <time>2021-03-21T10:29:03.000Z</time>
      </trkpt>
      <trkpt lat="44.98934" lon="6.03213">
        <ele>2460.8000488281</ele>
        <time>2021-03-21T10:29:04.000Z</time>
      </trkpt>
      <trkpt lat="44.98934" lon="6.03213">
        <ele>2460.8000488281</ele>
        <time>2021-03-21T10:29:05.000Z</time>
      </trkpt>
      <trkpt lat="44.98933" lon="6.03214">
        <ele>2461.1999511719</ele>
        <time>2021-03-21T10:29:06.000Z</time>
      </trkpt>
      <trkpt lat="44.98932" lon="6.03214">
        <ele>2461.8000488281</ele>
        <time>2021-03-21T10:29:07.000Z</time>
      </trkpt>
      <trkpt lat="44.98932" lon="6.03215">
        <ele>2462.1999511719</ele>
        <time>2021-03-21T10:29:08.000Z</time>
      </trkpt>
      <trkpt lat="44.98931" lon="6.03215">
        <ele>2462.8000488281</ele>
        <time>2021-03-21T10:29:09.000Z</time>
      </trkpt>
      <trkpt lat="44.98931" lon="6.03216">
        <ele>2463.1999511719</ele>
        <time>2021-03-21T10:29:10.000Z</time>
      </trkpt>
      <trkpt lat="44.9893" lon="6.03216">
        <ele>2463.6000976562</ele>
        <time>2021-03-21T10:29:11.000Z</time>
      </trkpt>
      <trkpt lat="44.9893" lon="6.03217">
        <ele>2463.8000488281</ele>
        <time>2021-03-21T10:29:12.000Z</time>
      </trkpt>
      <trkpt lat="44.98929" lon="6.03217">
        <ele>2464.1999511719</ele>
        <time>2021-03-21T10:29:13.000Z</time>
      </trkpt>
      <trkpt lat="44.98929" lon="6.03218">
        <ele>2464.3999023438</ele>
        <time>2021-03-21T10:29:14.000Z</time>
      </trkpt>
      <trkpt lat="44.98928" lon="6.03219">
        <ele>2464.8000488281</ele>
        <time>2021-03-21T10:29:15.000Z</time>
      </trkpt>
      <trkpt lat="44.98928" lon="6.03219">
        <ele>2465</ele>
        <time>2021-03-21T10:29:16.000Z</time>
      </trkpt>
      <trkpt lat="44.98928" lon="6.0322">
        <ele>2465.3999023438</ele>
        <time>2021-03-21T10:29:17.000Z</time>
      </trkpt>
      <trkpt lat="44.98927" lon="6.0322">
        <ele>2465.8000488281</ele>
        <time>2021-03-21T10:29:18.000Z</time>
      </trkpt>
      <trkpt lat="44.98927" lon="6.0322">
        <ele>2466</ele>
        <time>2021-03-21T10:29:19.000Z</time>
      </trkpt>
      <trkpt lat="44.98926" lon="6.03222">
        <ele>2466.6000976562</ele>
        <time>2021-03-21T10:29:20.000Z</time>
      </trkpt>
      <trkpt lat="44.98926" lon="6.03222">
        <ele>2467</ele>
        <time>2021-03-21T10:29:21.000Z</time>
      </trkpt>
      <trkpt lat="44.98925" lon="6.03223">
        <ele>2467.3999023438</ele>
        <time>2021-03-21T10:29:22.000Z</time>
      </trkpt>
      <trkpt lat="44.98925" lon="6.03224">
        <ele>2467.6000976562</ele>
        <time>2021-03-21T10:29:23.000Z</time>
      </trkpt>
      <trkpt lat="44.98924" lon="6.03225">
        <ele>2468</ele>
        <time>2021-03-21T10:29:24.000Z</time>
      </trkpt>
      <trkpt lat="44.98924" lon="6.03226">
        <ele>2468.1999511719</ele>
        <time>2021-03-21T10:29:25.000Z</time>
      </trkpt>
      <trkpt lat="44.98924" lon="6.03226">
        <ele>2468.3999023438</ele>
        <time>2021-03-21T10:29:26.000Z</time>
      </trkpt>
      <trkpt lat="44.98923" lon="6.03227">
        <ele>2468.8000488281</ele>
        <time>2021-03-21T10:29:27.000Z</time>
      </trkpt>
      <trkpt lat="44.98923" lon="6.03227">
        <ele>2468.8000488281</ele>
        <time>2021-03-21T10:29:28.000Z</time>
      </trkpt>
      <trkpt lat="44.98923" lon="6.03228">
        <ele>2469.1999511719</ele>
        <time>2021-03-21T10:29:29.000Z</time>
      </trkpt>
      <trkpt lat="44.98923" lon="6.03228">
        <ele>2469.3999023438</ele>
        <time>2021-03-21T10:29:30.000Z</time>
      </trkpt>
      <trkpt lat="44.98922" lon="6.03229">
        <ele>2469.8000488281</ele>
        <time>2021-03-21T10:29:31.000Z</time>
      </trkpt>
      <trkpt lat="44.98922" lon="6.03229">
        <ele>2470</ele>
        <time>2021-03-21T10:29:32.000Z</time>
      </trkpt>
      <trkpt lat="44.98921" lon="6.0323">
        <ele>2470.3999023438</ele>
        <time>2021-03-21T10:29:33.000Z</time>
      </trkpt>
      <trkpt lat="44.98921" lon="6.0323">
        <ele>2470.8000488281</ele>
        <time>2021-03-21T10:29:34.000Z</time>
      </trkpt>
      <trkpt lat="44.98921" lon="6.03231">
        <ele>2471</ele>
        <time>2021-03-21T10:29:35.000Z</time>
      </trkpt>
      <trkpt lat="44.9892" lon="6.03231">
        <ele>2471.3999023438</ele>
        <time>2021-03-21T10:29:36.000Z</time>
      </trkpt>
      <trkpt lat="44.9892" lon="6.03232">
        <ele>2471.6000976562</ele>
        <time>2021-03-21T10:29:37.000Z</time>
      </trkpt>
      <trkpt lat="44.98919" lon="6.03232">
        <ele>2472</ele>
        <time>2021-03-21T10:29:38.000Z</time>
      </trkpt>
      <trkpt lat="44.98919" lon="6.03233">
        <ele>2472.1999511719</ele>
        <time>2021-03-21T10:29:39.000Z</time>
      </trkpt>
      <trkpt lat="44.98919" lon="6.03233">
        <ele>2472.3999023438</ele>
        <time>2021-03-21T10:29:40.000Z</time>
      </trkpt>
      <trkpt lat="44.98918" lon="6.03234">
        <ele>2472.8000488281</ele>
        <time>2021-03-21T10:29:41.000Z</time>
      </trkpt>
      <trkpt lat="44.98918" lon="6.03235">
        <ele>2473.1999511719</ele>
        <time>2021-03-21T10:29:42.000Z</time>
      </trkpt>
      <trkpt lat="44.98918" lon="6.03235">
        <ele>2473.3999023438</ele>
        <time>2021-03-21T10:29:43.000Z</time>
      </trkpt>
      <trkpt lat="44.98918" lon="6.03235">
        <ele>2473.6000976562</ele>
        <time>2021-03-21T10:29:44.000Z</time>
      </trkpt>
      <trkpt lat="44.98917" lon="6.03236">
        <ele>2473.8000488281</ele>
        <time>2021-03-21T10:29:45.000Z</time>
      </trkpt>
      <trkpt lat="44.98917" lon="6.03236">
        <ele>2473.8000488281</ele>
        <time>2021-03-21T10:29:46.000Z</time>
      </trkpt>
      <trkpt lat="44.98917" lon="6.03237">
        <ele>2474.1999511719</ele>
        <time>2021-03-21T10:29:47.000Z</time>
      </trkpt>
      <trkpt lat="44.98916" lon="6.03237">
        <ele>2474.3999023438</ele>
        <time>2021-03-21T10:29:48.000Z</time>
      </trkpt>
      <trkpt lat="44.98916" lon="6.03237">
        <ele>2474.8000488281</ele>
        <time>2021-03-21T10:29:49.000Z</time>
      </trkpt>
      <trkpt lat="44.98916" lon="6.03238">
        <ele>2475</ele>
        <time>2021-03-21T10:29:50.000Z</time>
      </trkpt>
      <trkpt lat="44.98915" lon="6.03239">
        <ele>2475.3999023438</ele>
        <time>2021-03-21T10:29:51.000Z</time>
      </trkpt>
      <trkpt lat="44.98915" lon="6.03239">
        <ele>2475.3999023438</ele>
        <time>2021-03-21T10:29:52.000Z</time>
      </trkpt>
      <trkpt lat="44.98915" lon="6.0324">
        <ele>2475.6000976562</ele>
        <time>2021-03-21T10:29:53.000Z</time>
      </trkpt>
      <trkpt lat="44.98915" lon="6.0324">
        <ele>2475.8000488281</ele>
        <time>2021-03-21T10:29:54.000Z</time>
      </trkpt>
      <trkpt lat="44.98915" lon="6.03241">
        <ele>2476</ele>
        <time>2021-03-21T10:29:55.000Z</time>
      </trkpt>
      <trkpt lat="44.98914" lon="6.03241">
        <ele>2476</ele>
        <time>2021-03-21T10:29:56.000Z</time>
      </trkpt>
      <trkpt lat="44.98914" lon="6.03241">
        <ele>2476.1999511719</ele>
        <time>2021-03-21T10:29:57.000Z</time>
      </trkpt>
      <trkpt lat="44.98914" lon="6.03241">
        <ele>2476.1999511719</ele>
        <time>2021-03-21T10:29:58.000Z</time>
      </trkpt>
      <trkpt lat="44.98914" lon="6.03241">
        <ele>2476.1999511719</ele>
        <time>2021-03-21T10:29:59.000Z</time>
      </trkpt>
      <trkpt lat="44.98914" lon="6.03241">
        <ele>2476.3999023438</ele>
        <time>2021-03-21T10:30:00.000Z</time>
      </trkpt>
      <trkpt lat="44.98914" lon="6.03241">
        <ele>2476.3999023438</ele>
        <time>2021-03-21T10:30:01.000Z</time>
      </trkpt>
      <trkpt lat="44.98914" lon="6.03241">
        <ele>2476.3999023438</ele>
        <time>2021-03-21T10:30:02.000Z</time>
      </trkpt>
      <trkpt lat="44.98914" lon="6.03241">
        <ele>2476.3999023438</ele>
        <time>2021-03-21T10:30:03.000Z</time>
      </trkpt>
      <trkpt lat="44.98913" lon="6.03242">
        <ele>2476.6000976562</ele>
        <time>2021-03-21T10:30:04.000Z</time>
      </trkpt>
      <trkpt lat="44.98913" lon="6.03242">
        <ele>2477</ele>
        <time>2021-03-21T10:30:05.000Z</time>
      </trkpt>
      <trkpt lat="44.98912" lon="6.03242">
        <ele>2477.1999511719</ele>
        <time>2021-03-21T10:30:06.000Z</time>
      </trkpt>
      <trkpt lat="44.98912" lon="6.03243">
        <ele>2477.3999023438</ele>
        <time>2021-03-21T10:30:07.000Z</time>
      </trkpt>
      <trkpt lat="44.98911" lon="6.03243">
        <ele>2477.8000488281</ele>
        <time>2021-03-21T10:30:08.000Z</time>
      </trkpt>
      <trkpt lat="44.98911" lon="6.03244">
        <ele>2478</ele>
        <time>2021-03-21T10:30:09.000Z</time>
      </trkpt>
      <trkpt lat="44.98911" lon="6.03244">
        <ele>2478.1999511719</ele>
        <time>2021-03-21T10:30:10.000Z</time>
      </trkpt>
      <trkpt lat="44.9891" lon="6.03245">
        <ele>2478.8000488281</ele>
        <time>2021-03-21T10:30:11.000Z</time>
      </trkpt>
      <trkpt lat="44.98909" lon="6.03245">
        <ele>2479</ele>
        <time>2021-03-21T10:30:12.000Z</time>
      </trkpt>
      <trkpt lat="44.98909" lon="6.03246">
        <ele>2479.3999023438</ele>
        <time>2021-03-21T10:30:13.000Z</time>
      </trkpt>
      <trkpt lat="44.98909" lon="6.03246">
        <ele>2479.6000976562</ele>
        <time>2021-03-21T10:30:14.000Z</time>
      </trkpt>
      <trkpt lat="44.98908" lon="6.03247">
        <ele>2480</ele>
        <time>2021-03-21T10:30:15.000Z</time>
      </trkpt>
      <trkpt lat="44.98908" lon="6.03247">
        <ele>2480.3999023438</ele>
        <time>2021-03-21T10:30:16.000Z</time>
      </trkpt>
      <trkpt lat="44.98908" lon="6.03248">
        <ele>2480.3999023438</ele>
        <time>2021-03-21T10:30:17.000Z</time>
      </trkpt>
      <trkpt lat="44.98907" lon="6.03248">
        <ele>2480.8000488281</ele>
        <time>2021-03-21T10:30:18.000Z</time>
      </trkpt>
      <trkpt lat="44.98907" lon="6.03249">
        <ele>2481.1999511719</ele>
        <time>2021-03-21T10:30:19.000Z</time>
      </trkpt>
      <trkpt lat="44.98906" lon="6.03249">
        <ele>2481.6000976562</ele>
        <time>2021-03-21T10:30:20.000Z</time>
      </trkpt>
      <trkpt lat="44.98906" lon="6.0325">
        <ele>2482</ele>
        <time>2021-03-21T10:30:21.000Z</time>
      </trkpt>
      <trkpt lat="44.98906" lon="6.03251">
        <ele>2482.1999511719</ele>
        <time>2021-03-21T10:30:22.000Z</time>
      </trkpt>
      <trkpt lat="44.98905" lon="6.03252">
        <ele>2482.6000976562</ele>
        <time>2021-03-21T10:30:23.000Z</time>
      </trkpt>
      <trkpt lat="44.98905" lon="6.03252">
        <ele>2482.6000976562</ele>
        <time>2021-03-21T10:30:24.000Z</time>
      </trkpt>
      <trkpt lat="44.98905" lon="6.03253">
        <ele>2483</ele>
        <time>2021-03-21T10:30:25.000Z</time>
      </trkpt>
      <trkpt lat="44.98905" lon="6.03254">
        <ele>2483.3999023438</ele>
        <time>2021-03-21T10:30:26.000Z</time>
      </trkpt>
      <trkpt lat="44.98904" lon="6.03254">
        <ele>2483.6000976562</ele>
        <time>2021-03-21T10:30:27.000Z</time>
      </trkpt>
      <trkpt lat="44.98904" lon="6.03255">
        <ele>2484.1999511719</ele>
        <time>2021-03-21T10:30:28.000Z</time>
      </trkpt>
      <trkpt lat="44.98904" lon="6.03255">
        <ele>2484.1999511719</ele>
        <time>2021-03-21T10:30:29.000Z</time>
      </trkpt>
      <trkpt lat="44.98903" lon="6.03256">
        <ele>2485</ele>
        <time>2021-03-21T10:30:30.000Z</time>
      </trkpt>
      <trkpt lat="44.98903" lon="6.03257">
        <ele>2485.1999511719</ele>
        <time>2021-03-21T10:30:31.000Z</time>
      </trkpt>
      <trkpt lat="44.98902" lon="6.03258">
        <ele>2485.8000488281</ele>
        <time>2021-03-21T10:30:32.000Z</time>
      </trkpt>
      <trkpt lat="44.98901" lon="6.03258">
        <ele>2486</ele>
        <time>2021-03-21T10:30:33.000Z</time>
      </trkpt>
      <trkpt lat="44.98901" lon="6.03259">
        <ele>2486.3999023438</ele>
        <time>2021-03-21T10:30:34.000Z</time>
      </trkpt>
      <trkpt lat="44.98901" lon="6.03259">
        <ele>2486.3999023438</ele>
        <time>2021-03-21T10:30:35.000Z</time>
      </trkpt>
      <trkpt lat="44.989" lon="6.03259">
        <ele>2486.6000976562</ele>
        <time>2021-03-21T10:30:36.000Z</time>
      </trkpt>
      <trkpt lat="44.989" lon="6.0326">
        <ele>2487</ele>
        <time>2021-03-21T10:30:37.000Z</time>
      </trkpt>
      <trkpt lat="44.98899" lon="6.0326">
        <ele>2487.1999511719</ele>
        <time>2021-03-21T10:30:38.000Z</time>
      </trkpt>
      <trkpt lat="44.98899" lon="6.03261">
        <ele>2487.8000488281</ele>
        <time>2021-03-21T10:30:39.000Z</time>
      </trkpt>
      <trkpt lat="44.98898" lon="6.03262">
        <ele>2487.8000488281</ele>
        <time>2021-03-21T10:30:40.000Z</time>
      </trkpt>
      <trkpt lat="44.98898" lon="6.03262">
        <ele>2488.1999511719</ele>
        <time>2021-03-21T10:30:41.000Z</time>
      </trkpt>
      <trkpt lat="44.98897" lon="6.03263">
        <ele>2488.3999023438</ele>
        <time>2021-03-21T10:30:42.000Z</time>
      </trkpt>
      <trkpt lat="44.98897" lon="6.03263">
        <ele>2488.6000976562</ele>
        <time>2021-03-21T10:30:43.000Z</time>
      </trkpt>
      <trkpt lat="44.98896" lon="6.03264">
        <ele>2489</ele>
        <time>2021-03-21T10:30:44.000Z</time>
      </trkpt>
      <trkpt lat="44.98896" lon="6.03265">
        <ele>2489.1999511719</ele>
        <time>2021-03-21T10:30:45.000Z</time>
      </trkpt>
      <trkpt lat="44.98896" lon="6.03265">
        <ele>2489.3999023438</ele>
        <time>2021-03-21T10:30:46.000Z</time>
      </trkpt>
      <trkpt lat="44.98895" lon="6.03266">
        <ele>2489.6000976562</ele>
        <time>2021-03-21T10:30:47.000Z</time>
      </trkpt>
      <trkpt lat="44.98894" lon="6.03267">
        <ele>2490</ele>
        <time>2021-03-21T10:30:48.000Z</time>
      </trkpt>
      <trkpt lat="44.98894" lon="6.03267">
        <ele>2490</ele>
        <time>2021-03-21T10:30:49.000Z</time>
      </trkpt>
      <trkpt lat="44.98893" lon="6.03268">
        <ele>2490.1999511719</ele>
        <time>2021-03-21T10:30:50.000Z</time>
      </trkpt>
      <trkpt lat="44.98893" lon="6.03268">
        <ele>2490.1999511719</ele>
        <time>2021-03-21T10:30:51.000Z</time>
      </trkpt>
      <trkpt lat="44.98893" lon="6.03269">
        <ele>2490.3999023438</ele>
        <time>2021-03-21T10:30:52.000Z</time>
      </trkpt>
      <trkpt lat="44.98892" lon="6.03269">
        <ele>2490.6000976562</ele>
        <time>2021-03-21T10:30:53.000Z</time>
      </trkpt>
      <trkpt lat="44.98892" lon="6.03269">
        <ele>2490.6000976562</ele>
        <time>2021-03-21T10:30:54.000Z</time>
      </trkpt>
      <trkpt lat="44.98892" lon="6.0327">
        <ele>2490.8000488281</ele>
        <time>2021-03-21T10:30:55.000Z</time>
      </trkpt>
      <trkpt lat="44.98891" lon="6.0327">
        <ele>2490.8000488281</ele>
        <time>2021-03-21T10:30:56.000Z</time>
      </trkpt>
      <trkpt lat="44.98891" lon="6.0327">
        <ele>2491</ele>
        <time>2021-03-21T10:30:57.000Z</time>
      </trkpt>
      <trkpt lat="44.98891" lon="6.03271">
        <ele>2491</ele>
        <time>2021-03-21T10:30:58.000Z</time>
      </trkpt>
      <trkpt lat="44.9889" lon="6.03271">
        <ele>2491.1999511719</ele>
        <time>2021-03-21T10:30:59.000Z</time>
      </trkpt>
      <trkpt lat="44.9889" lon="6.03271">
        <ele>2491.3999023438</ele>
        <time>2021-03-21T10:31:00.000Z</time>
      </trkpt>
      <trkpt lat="44.98889" lon="6.03271">
        <ele>2491.6000976562</ele>
        <time>2021-03-21T10:31:01.000Z</time>
      </trkpt>
      <trkpt lat="44.98889" lon="6.03271">
        <ele>2491.8000488281</ele>
        <time>2021-03-21T10:31:02.000Z</time>
      </trkpt>
      <trkpt lat="44.98888" lon="6.03271">
        <ele>2492</ele>
        <time>2021-03-21T10:31:03.000Z</time>
      </trkpt>
      <trkpt lat="44.98887" lon="6.03271">
        <ele>2492.1999511719</ele>
        <time>2021-03-21T10:31:04.000Z</time>
      </trkpt>
      <trkpt lat="44.98887" lon="6.03271">
        <ele>2492.3999023438</ele>
        <time>2021-03-21T10:31:05.000Z</time>
      </trkpt>
      <trkpt lat="44.98887" lon="6.0327">
        <ele>2492.6000976562</ele>
        <time>2021-03-21T10:31:06.000Z</time>
      </trkpt>
      <trkpt lat="44.98886" lon="6.0327">
        <ele>2492.6000976562</ele>
        <time>2021-03-21T10:31:07.000Z</time>
      </trkpt>
      <trkpt lat="44.98886" lon="6.0327">
        <ele>2492.8000488281</ele>
        <time>2021-03-21T10:31:08.000Z</time>
      </trkpt>
      <trkpt lat="44.98885" lon="6.0327">
        <ele>2493</ele>
        <time>2021-03-21T10:31:09.000Z</time>
      </trkpt>
      <trkpt lat="44.98885" lon="6.03269">
        <ele>2493.1999511719</ele>
        <time>2021-03-21T10:31:10.000Z</time>
      </trkpt>
      <trkpt lat="44.98885" lon="6.03269">
        <ele>2493.1999511719</ele>
        <time>2021-03-21T10:31:11.000Z</time>
      </trkpt>
      <trkpt lat="44.98884" lon="6.03269">
        <ele>2493.3999023438</ele>
        <time>2021-03-21T10:31:12.000Z</time>
      </trkpt>
      <trkpt lat="44.98884" lon="6.03268">
        <ele>2493.6000976562</ele>
        <time>2021-03-21T10:31:13.000Z</time>
      </trkpt>
      <trkpt lat="44.98884" lon="6.03268">
        <ele>2493.6000976562</ele>
        <time>2021-03-21T10:31:14.000Z</time>
      </trkpt>
      <trkpt lat="44.98883" lon="6.03268">
        <ele>2493.8000488281</ele>
        <time>2021-03-21T10:31:15.000Z</time>
      </trkpt>
      <trkpt lat="44.98883" lon="6.03268">
        <ele>2494</ele>
        <time>2021-03-21T10:31:16.000Z</time>
      </trkpt>
      <trkpt lat="44.98882" lon="6.03267">
        <ele>2494.1999511719</ele>
        <time>2021-03-21T10:31:17.000Z</time>
      </trkpt>
      <trkpt lat="44.98882" lon="6.03267">
        <ele>2494.3999023438</ele>
        <time>2021-03-21T10:31:18.000Z</time>
      </trkpt>
      <trkpt lat="44.98882" lon="6.03266">
        <ele>2494.3999023438</ele>
        <time>2021-03-21T10:31:19.000Z</time>
      </trkpt>
      <trkpt lat="44.98881" lon="6.03266">
        <ele>2494.6000976562</ele>
        <time>2021-03-21T10:31:20.000Z</time>
      </trkpt>
      <trkpt lat="44.9888" lon="6.03266">
        <ele>2495</ele>
        <time>2021-03-21T10:31:21.000Z</time>
      </trkpt>
      <trkpt lat="44.9888" lon="6.03266">
        <ele>2495.1999511719</ele>
        <time>2021-03-21T10:31:22.000Z</time>
      </trkpt>
      <trkpt lat="44.98879" lon="6.03266">
        <ele>2495.3999023438</ele>
        <time>2021-03-21T10:31:23.000Z</time>
      </trkpt>
      <trkpt lat="44.98879" lon="6.03265">
        <ele>2495.6000976562</ele>
        <time>2021-03-21T10:31:24.000Z</time>
      </trkpt>
      <trkpt lat="44.98878" lon="6.03265">
        <ele>2495.6000976562</ele>
        <time>2021-03-21T10:31:25.000Z</time>
      </trkpt>
      <trkpt lat="44.98878" lon="6.03265">
        <ele>2495.8000488281</ele>
        <time>2021-03-21T10:31:26.000Z</time>
      </trkpt>
      <trkpt lat="44.98877" lon="6.03265">
        <ele>2496</ele>
        <time>2021-03-21T10:31:27.000Z</time>
      </trkpt>
      <trkpt lat="44.98877" lon="6.03266">
        <ele>2496.1999511719</ele>
        <time>2021-03-21T10:31:28.000Z</time>
      </trkpt>
      <trkpt lat="44.98876" lon="6.03266">
        <ele>2496.6000976562</ele>
        <time>2021-03-21T10:31:29.000Z</time>
      </trkpt>
      <trkpt lat="44.98875" lon="6.03266">
        <ele>2496.8000488281</ele>
        <time>2021-03-21T10:31:30.000Z</time>
      </trkpt>
      <trkpt lat="44.98874" lon="6.03266">
        <ele>2497.1999511719</ele>
        <time>2021-03-21T10:31:31.000Z</time>
      </trkpt>
      <trkpt lat="44.98874" lon="6.03266">
        <ele>2497.3999023438</ele>
        <time>2021-03-21T10:31:32.000Z</time>
      </trkpt>
      <trkpt lat="44.98873" lon="6.03266">
        <ele>2497.6000976562</ele>
        <time>2021-03-21T10:31:33.000Z</time>
      </trkpt>
      <trkpt lat="44.98873" lon="6.03266">
        <ele>2497.6000976562</ele>
        <time>2021-03-21T10:31:34.000Z</time>
      </trkpt>
      <trkpt lat="44.98872" lon="6.03266">
        <ele>2497.8000488281</ele>
        <time>2021-03-21T10:31:35.000Z</time>
      </trkpt>
      <trkpt lat="44.98871" lon="6.03266">
        <ele>2498</ele>
        <time>2021-03-21T10:31:36.000Z</time>
      </trkpt>
      <trkpt lat="44.98871" lon="6.03265">
        <ele>2498.1999511719</ele>
        <time>2021-03-21T10:31:37.000Z</time>
      </trkpt>
      <trkpt lat="44.9887" lon="6.03266">
        <ele>2498.1999511719</ele>
        <time>2021-03-21T10:31:38.000Z</time>
      </trkpt>
      <trkpt lat="44.98869" lon="6.03266">
        <ele>2498.3999023438</ele>
        <time>2021-03-21T10:31:39.000Z</time>
      </trkpt>
      <trkpt lat="44.98868" lon="6.03266">
        <ele>2498.8000488281</ele>
        <time>2021-03-21T10:31:40.000Z</time>
      </trkpt>
      <trkpt lat="44.98868" lon="6.03265">
        <ele>2498.8000488281</ele>
        <time>2021-03-21T10:31:41.000Z</time>
      </trkpt>
      <trkpt lat="44.98867" lon="6.03265">
        <ele>2499.1999511719</ele>
        <time>2021-03-21T10:31:42.000Z</time>
      </trkpt>
      <trkpt lat="44.98866" lon="6.03265">
        <ele>2499.1999511719</ele>
        <time>2021-03-21T10:31:43.000Z</time>
      </trkpt>
      <trkpt lat="44.98866" lon="6.03265">
        <ele>2499.1999511719</ele>
        <time>2021-03-21T10:31:44.000Z</time>
      </trkpt>
      <trkpt lat="44.98865" lon="6.03264">
        <ele>2499.3999023438</ele>
        <time>2021-03-21T10:31:45.000Z</time>
      </trkpt>
      <trkpt lat="44.98864" lon="6.03264">
        <ele>2499.3999023438</ele>
        <time>2021-03-21T10:31:46.000Z</time>
      </trkpt>
      <trkpt lat="44.98864" lon="6.03264">
        <ele>2499.3999023438</ele>
        <time>2021-03-21T10:31:47.000Z</time>
      </trkpt>
      <trkpt lat="44.98864" lon="6.03263">
        <ele>2499.1999511719</ele>
        <time>2021-03-21T10:31:48.000Z</time>
      </trkpt>
      <trkpt lat="44.98863" lon="6.03263">
        <ele>2499.3999023438</ele>
        <time>2021-03-21T10:31:49.000Z</time>
      </trkpt>
      <trkpt lat="44.98863" lon="6.03263">
        <ele>2499.3999023438</ele>
        <time>2021-03-21T10:31:50.000Z</time>
      </trkpt>
      <trkpt lat="44.98862" lon="6.03263">
        <ele>2499.6000976562</ele>
        <time>2021-03-21T10:31:51.000Z</time>
      </trkpt>
      <trkpt lat="44.98861" lon="6.03262">
        <ele>2499.8000488281</ele>
        <time>2021-03-21T10:31:52.000Z</time>
      </trkpt>
      <trkpt lat="44.9886" lon="6.03262">
        <ele>2499.8000488281</ele>
        <time>2021-03-21T10:31:53.000Z</time>
      </trkpt>
      <trkpt lat="44.9886" lon="6.03262">
        <ele>2499.8000488281</ele>
        <time>2021-03-21T10:31:54.000Z</time>
      </trkpt>
      <trkpt lat="44.98859" lon="6.03261">
        <ele>2499.8000488281</ele>
        <time>2021-03-21T10:31:55.000Z</time>
      </trkpt>
      <trkpt lat="44.98859" lon="6.03261">
        <ele>2500</ele>
        <time>2021-03-21T10:31:56.000Z</time>
      </trkpt>
      <trkpt lat="44.98858" lon="6.03261">
        <ele>2500.1999511719</ele>
        <time>2021-03-21T10:31:57.000Z</time>
      </trkpt>
      <trkpt lat="44.98857" lon="6.03261">
        <ele>2500.1999511719</ele>
        <time>2021-03-21T10:31:58.000Z</time>
      </trkpt>
      <trkpt lat="44.98857" lon="6.03261">
        <ele>2500.3999023438</ele>
        <time>2021-03-21T10:31:59.000Z</time>
      </trkpt>
      <trkpt lat="44.98856" lon="6.03261">
        <ele>2500.6000976562</ele>
        <time>2021-03-21T10:32:00.000Z</time>
      </trkpt>
      <trkpt lat="44.98855" lon="6.0326">
        <ele>2500.6000976562</ele>
        <time>2021-03-21T10:32:01.000Z</time>
      </trkpt>
      <trkpt lat="44.98854" lon="6.0326">
        <ele>2500.6000976562</ele>
        <time>2021-03-21T10:32:02.000Z</time>
      </trkpt>
      <trkpt lat="44.98854" lon="6.0326">
        <ele>2500.8000488281</ele>
        <time>2021-03-21T10:32:03.000Z</time>
      </trkpt>
      <trkpt lat="44.98853" lon="6.03259">
        <ele>2500.8000488281</ele>
        <time>2021-03-21T10:32:04.000Z</time>
      </trkpt>
      <trkpt lat="44.98853" lon="6.03259">
        <ele>2500.8000488281</ele>
        <time>2021-03-21T10:32:05.000Z</time>
      </trkpt>
      <trkpt lat="44.98852" lon="6.03258">
        <ele>2500.8000488281</ele>
        <time>2021-03-21T10:32:06.000Z</time>
      </trkpt>
      <trkpt lat="44.98851" lon="6.03258">
        <ele>2500.8000488281</ele>
        <time>2021-03-21T10:32:07.000Z</time>
      </trkpt>
      <trkpt lat="44.98851" lon="6.03258">
        <ele>2500.8000488281</ele>
        <time>2021-03-21T10:32:08.000Z</time>
      </trkpt>
      <trkpt lat="44.9885" lon="6.03258">
        <ele>2501</ele>
        <time>2021-03-21T10:32:09.000Z</time>
      </trkpt>
      <trkpt lat="44.9885" lon="6.03257">
        <ele>2500.8000488281</ele>
        <time>2021-03-21T10:32:10.000Z</time>
      </trkpt>
      <trkpt lat="44.98849" lon="6.03256">
        <ele>2501</ele>
        <time>2021-03-21T10:32:11.000Z</time>
      </trkpt>
      <trkpt lat="44.98849" lon="6.03256">
        <ele>2501</ele>
        <time>2021-03-21T10:32:12.000Z</time>
      </trkpt>
      <trkpt lat="44.98848" lon="6.03256">
        <ele>2501.1999511719</ele>
        <time>2021-03-21T10:32:13.000Z</time>
      </trkpt>
      <trkpt lat="44.98847" lon="6.03255">
        <ele>2501.1999511719</ele>
        <time>2021-03-21T10:32:14.000Z</time>
      </trkpt>
      <trkpt lat="44.98847" lon="6.03255">
        <ele>2501.1999511719</ele>
        <time>2021-03-21T10:32:15.000Z</time>
      </trkpt>
      <trkpt lat="44.98846" lon="6.03255">
        <ele>2501.3999023438</ele>
        <time>2021-03-21T10:32:16.000Z</time>
      </trkpt>
      <trkpt lat="44.98846" lon="6.03255">
        <ele>2501.3999023438</ele>
        <time>2021-03-21T10:32:17.000Z</time>
      </trkpt>
      <trkpt lat="44.98845" lon="6.03255">
        <ele>2501.6000976562</ele>
        <time>2021-03-21T10:32:18.000Z</time>
      </trkpt>
      <trkpt lat="44.98845" lon="6.03256">
        <ele>2501.8000488281</ele>
        <time>2021-03-21T10:32:19.000Z</time>
      </trkpt>
      <trkpt lat="44.98844" lon="6.03256">
        <ele>2502</ele>
        <time>2021-03-21T10:32:20.000Z</time>
      </trkpt>
      <trkpt lat="44.98843" lon="6.03255">
        <ele>2502</ele>
        <time>2021-03-21T10:32:21.000Z</time>
      </trkpt>
      <trkpt lat="44.98842" lon="6.03255">
        <ele>2502</ele>
        <time>2021-03-21T10:32:22.000Z</time>
      </trkpt>
      <trkpt lat="44.98842" lon="6.03255">
        <ele>2502.1999511719</ele>
        <time>2021-03-21T10:32:23.000Z</time>
      </trkpt>
      <trkpt lat="44.98841" lon="6.03255">
        <ele>2502.1999511719</ele>
        <time>2021-03-21T10:32:24.000Z</time>
      </trkpt>
      <trkpt lat="44.9884" lon="6.03255">
        <ele>2502.3999023438</ele>
        <time>2021-03-21T10:32:25.000Z</time>
      </trkpt>
      <trkpt lat="44.9884" lon="6.03255">
        <ele>2502.3999023438</ele>
        <time>2021-03-21T10:32:26.000Z</time>
      </trkpt>
      <trkpt lat="44.98839" lon="6.03255">
        <ele>2502.6000976562</ele>
        <time>2021-03-21T10:32:27.000Z</time>
      </trkpt>
      <trkpt lat="44.98838" lon="6.03254">
        <ele>2502.3999023438</ele>
        <time>2021-03-21T10:32:28.000Z</time>
      </trkpt>
      <trkpt lat="44.98838" lon="6.03253">
        <ele>2502.1999511719</ele>
        <time>2021-03-21T10:32:29.000Z</time>
      </trkpt>
      <trkpt lat="44.98838" lon="6.03253">
        <ele>2502.1999511719</ele>
        <time>2021-03-21T10:32:30.000Z</time>
      </trkpt>
      <trkpt lat="44.98837" lon="6.03253">
        <ele>2502.3999023438</ele>
        <time>2021-03-21T10:32:31.000Z</time>
      </trkpt>
      <trkpt lat="44.98836" lon="6.03253">
        <ele>2502.3999023438</ele>
        <time>2021-03-21T10:32:32.000Z</time>
      </trkpt>
      <trkpt lat="44.98836" lon="6.03252">
        <ele>2502.3999023438</ele>
        <time>2021-03-21T10:32:33.000Z</time>
      </trkpt>
      <trkpt lat="44.98835" lon="6.03252">
        <ele>2502.6000976562</ele>
        <time>2021-03-21T10:32:34.000Z</time>
      </trkpt>
      <trkpt lat="44.98834" lon="6.03252">
        <ele>2502.6000976562</ele>
        <time>2021-03-21T10:32:35.000Z</time>
      </trkpt>
      <trkpt lat="44.98834" lon="6.03253">
        <ele>2503</ele>
        <time>2021-03-21T10:32:36.000Z</time>
      </trkpt>
      <trkpt lat="44.98834" lon="6.03252">
        <ele>2502.8000488281</ele>
        <time>2021-03-21T10:32:37.000Z</time>
      </trkpt>
      <trkpt lat="44.98833" lon="6.03253">
        <ele>2503</ele>
        <time>2021-03-21T10:32:38.000Z</time>
      </trkpt>
      <trkpt lat="44.98832" lon="6.03253">
        <ele>2503.1999511719</ele>
        <time>2021-03-21T10:32:39.000Z</time>
      </trkpt>
      <trkpt lat="44.98832" lon="6.03254">
        <ele>2503.6000976562</ele>
        <time>2021-03-21T10:32:40.000Z</time>
      </trkpt>
      <trkpt lat="44.98832" lon="6.03255">
        <ele>2503.8000488281</ele>
        <time>2021-03-21T10:32:41.000Z</time>
      </trkpt>
      <trkpt lat="44.98831" lon="6.03256">
        <ele>2504.1999511719</ele>
        <time>2021-03-21T10:32:42.000Z</time>
      </trkpt>
      <trkpt lat="44.98831" lon="6.03257">
        <ele>2504.6000976562</ele>
        <time>2021-03-21T10:32:43.000Z</time>
      </trkpt>
      <trkpt lat="44.98832" lon="6.03258">
        <ele>2504.6000976562</ele>
        <time>2021-03-21T10:32:44.000Z</time>
      </trkpt>
      <trkpt lat="44.98831" lon="6.03258">
        <ele>2504.8000488281</ele>
        <time>2021-03-21T10:32:45.000Z</time>
      </trkpt>
      <trkpt lat="44.98831" lon="6.03258">
        <ele>2504.8000488281</ele>
        <time>2021-03-21T10:32:46.000Z</time>
      </trkpt>
      <trkpt lat="44.98832" lon="6.03258">
        <ele>2504.8000488281</ele>
        <time>2021-03-21T10:32:47.000Z</time>
      </trkpt>
      <trkpt lat="44.98831" lon="6.03258">
        <ele>2504.8000488281</ele>
        <time>2021-03-21T10:32:48.000Z</time>
      </trkpt>
      <trkpt lat="44.98831" lon="6.03258">
        <ele>2504.8000488281</ele>
        <time>2021-03-21T10:32:49.000Z</time>
      </trkpt>
      <trkpt lat="44.98831" lon="6.03258">
        <ele>2505</ele>
        <time>2021-03-21T10:32:50.000Z</time>
      </trkpt>
      <trkpt lat="44.98831" lon="6.03258">
        <ele>2504.8000488281</ele>
        <time>2021-03-21T10:32:51.000Z</time>
      </trkpt>
      <trkpt lat="44.98831" lon="6.03258">
        <ele>2505</ele>
        <time>2021-03-21T10:32:52.000Z</time>
      </trkpt>
      <trkpt lat="44.98832" lon="6.03258">
        <ele>2505</ele>
        <time>2021-03-21T10:32:53.000Z</time>
      </trkpt>
      <trkpt lat="44.98832" lon="6.03258">
        <ele>2504.8000488281</ele>
        <time>2021-03-21T10:32:54.000Z</time>
      </trkpt>
      <trkpt lat="44.98832" lon="6.03259">
        <ele>2505</ele>
        <time>2021-03-21T10:32:55.000Z</time>
      </trkpt>
      <trkpt lat="44.98832" lon="6.03259">
        <ele>2505</ele>
        <time>2021-03-21T10:32:56.000Z</time>
      </trkpt>
      <trkpt lat="44.98832" lon="6.03259">
        <ele>2505</ele>
        <time>2021-03-21T10:32:57.000Z</time>
      </trkpt>
      <trkpt lat="44.98832" lon="6.03259">
        <ele>2505.1999511719</ele>
        <time>2021-03-21T10:32:58.000Z</time>
      </trkpt>
      <trkpt lat="44.98832" lon="6.0326">
        <ele>2505.1999511719</ele>
        <time>2021-03-21T10:32:59.000Z</time>
      </trkpt>
      <trkpt lat="44.98832" lon="6.0326">
        <ele>2505.1999511719</ele>
        <time>2021-03-21T10:33:00.000Z</time>
      </trkpt>
      <trkpt lat="44.98832" lon="6.0326">
        <ele>2505.1999511719</ele>
        <time>2021-03-21T10:33:01.000Z</time>
      </trkpt>
      <trkpt lat="44.98833" lon="6.0326">
        <ele>2505.1999511719</ele>
        <time>2021-03-21T10:33:02.000Z</time>
      </trkpt>
      <trkpt lat="44.98833" lon="6.0326">
        <ele>2505.1999511719</ele>
        <time>2021-03-21T10:33:03.000Z</time>
      </trkpt>
      <trkpt lat="44.98833" lon="6.0326">
        <ele>2505.1999511719</ele>
        <time>2021-03-21T10:33:04.000Z</time>
      </trkpt>
      <trkpt lat="44.98833" lon="6.0326">
        <ele>2505.1999511719</ele>
        <time>2021-03-21T10:33:05.000Z</time>
      </trkpt>
      <trkpt lat="44.98833" lon="6.0326">
        <ele>2505.1999511719</ele>
        <time>2021-03-21T10:33:06.000Z</time>
      </trkpt>
      <trkpt lat="44.98833" lon="6.0326">
        <ele>2505</ele>
        <time>2021-03-21T10:33:07.000Z</time>
      </trkpt>
      <trkpt lat="44.98833" lon="6.0326">
        <ele>2505</ele>
        <time>2021-03-21T10:33:08.000Z</time>
      </trkpt>
      <trkpt lat="44.98833" lon="6.0326">
        <ele>2505.1999511719</ele>
        <time>2021-03-21T10:33:09.000Z</time>
      </trkpt>
      <trkpt lat="44.98833" lon="6.03259">
        <ele>2505</ele>
        <time>2021-03-21T10:33:10.000Z</time>
      </trkpt>
      <trkpt lat="44.98833" lon="6.0326">
        <ele>2505</ele>
        <time>2021-03-21T10:33:11.000Z</time>
      </trkpt>
      <trkpt lat="44.98833" lon="6.0326">
        <ele>2505.1999511719</ele>
        <time>2021-03-21T10:33:12.000Z</time>
      </trkpt>
      <trkpt lat="44.98833" lon="6.03261">
        <ele>2505.3999023438</ele>
        <time>2021-03-21T10:33:13.000Z</time>
      </trkpt>
      <trkpt lat="44.98833" lon="6.03262">
        <ele>2505.6000976562</ele>
        <time>2021-03-21T10:33:14.000Z</time>
      </trkpt>
      <trkpt lat="44.98833" lon="6.03263">
        <ele>2506</ele>
        <time>2021-03-21T10:33:15.000Z</time>
      </trkpt>
      <trkpt lat="44.98833" lon="6.03264">
        <ele>2506.3999023438</ele>
        <time>2021-03-21T10:33:16.000Z</time>
      </trkpt>
      <trkpt lat="44.98833" lon="6.03265">
        <ele>2506.6000976562</ele>
        <time>2021-03-21T10:33:17.000Z</time>
      </trkpt>
      <trkpt lat="44.98833" lon="6.03266">
        <ele>2506.6000976562</ele>
        <time>2021-03-21T10:33:18.000Z</time>
      </trkpt>
      <trkpt lat="44.98833" lon="6.03267">
        <ele>2506.8000488281</ele>
        <time>2021-03-21T10:33:19.000Z</time>
      </trkpt>
      <trkpt lat="44.98833" lon="6.03268">
        <ele>2507</ele>
        <time>2021-03-21T10:33:20.000Z</time>
      </trkpt>
      <trkpt lat="44.98833" lon="6.03269">
        <ele>2507</ele>
        <time>2021-03-21T10:33:21.000Z</time>
      </trkpt>
      <trkpt lat="44.98834" lon="6.0327">
        <ele>2507.1999511719</ele>
        <time>2021-03-21T10:33:22.000Z</time>
      </trkpt>
      <trkpt lat="44.98834" lon="6.03271">
        <ele>2507.1999511719</ele>
        <time>2021-03-21T10:33:23.000Z</time>
      </trkpt>
      <trkpt lat="44.98834" lon="6.03272">
        <ele>2507.3999023438</ele>
        <time>2021-03-21T10:33:24.000Z</time>
      </trkpt>
      <trkpt lat="44.98835" lon="6.03273">
        <ele>2507.3999023438</ele>
        <time>2021-03-21T10:33:25.000Z</time>
      </trkpt>
      <trkpt lat="44.98835" lon="6.03274">
        <ele>2507.3999023438</ele>
        <time>2021-03-21T10:33:26.000Z</time>
      </trkpt>
      <trkpt lat="44.98835" lon="6.03276">
        <ele>2507.6000976562</ele>
        <time>2021-03-21T10:33:27.000Z</time>
      </trkpt>
      <trkpt lat="44.98836" lon="6.03276">
        <ele>2507.6000976562</ele>
        <time>2021-03-21T10:33:28.000Z</time>
      </trkpt>
      <trkpt lat="44.98837" lon="6.03277">
        <ele>2507.6000976562</ele>
        <time>2021-03-21T10:33:29.000Z</time>
      </trkpt>
      <trkpt lat="44.98837" lon="6.03278">
        <ele>2507.6000976562</ele>
        <time>2021-03-21T10:33:30.000Z</time>
      </trkpt>
      <trkpt lat="44.98838" lon="6.03279">
        <ele>2507.8000488281</ele>
        <time>2021-03-21T10:33:31.000Z</time>
      </trkpt>
      <trkpt lat="44.98838" lon="6.0328">
        <ele>2507.8000488281</ele>
        <time>2021-03-21T10:33:32.000Z</time>
      </trkpt>
      <trkpt lat="44.98838" lon="6.03281">
        <ele>2507.8000488281</ele>
        <time>2021-03-21T10:33:33.000Z</time>
      </trkpt>
      <trkpt lat="44.98838" lon="6.03282">
        <ele>2508</ele>
        <time>2021-03-21T10:33:34.000Z</time>
      </trkpt>
      <trkpt lat="44.98839" lon="6.03283">
        <ele>2508</ele>
        <time>2021-03-21T10:33:35.000Z</time>
      </trkpt>
      <trkpt lat="44.98839" lon="6.03283">
        <ele>2508.1999511719</ele>
        <time>2021-03-21T10:33:36.000Z</time>
      </trkpt>
      <trkpt lat="44.9884" lon="6.03285">
        <ele>2508.1999511719</ele>
        <time>2021-03-21T10:33:37.000Z</time>
      </trkpt>
      <trkpt lat="44.9884" lon="6.03285">
        <ele>2508.1999511719</ele>
        <time>2021-03-21T10:33:38.000Z</time>
      </trkpt>
      <trkpt lat="44.9884" lon="6.03286">
        <ele>2508.1999511719</ele>
        <time>2021-03-21T10:33:39.000Z</time>
      </trkpt>
      <trkpt lat="44.98841" lon="6.03288">
        <ele>2508.3999023438</ele>
        <time>2021-03-21T10:33:40.000Z</time>
      </trkpt>
      <trkpt lat="44.98841" lon="6.03288">
        <ele>2508.3999023438</ele>
        <time>2021-03-21T10:33:41.000Z</time>
      </trkpt>
      <trkpt lat="44.98842" lon="6.0329">
        <ele>2508.6000976562</ele>
        <time>2021-03-21T10:33:42.000Z</time>
      </trkpt>
      <trkpt lat="44.98842" lon="6.03291">
        <ele>2508.6000976562</ele>
        <time>2021-03-21T10:33:43.000Z</time>
      </trkpt>
      <trkpt lat="44.98842" lon="6.03292">
        <ele>2508.8000488281</ele>
        <time>2021-03-21T10:33:44.000Z</time>
      </trkpt>
      <trkpt lat="44.98842" lon="6.03293">
        <ele>2508.8000488281</ele>
        <time>2021-03-21T10:33:45.000Z</time>
      </trkpt>
      <trkpt lat="44.98842" lon="6.03294">
        <ele>2509</ele>
        <time>2021-03-21T10:33:46.000Z</time>
      </trkpt>
      <trkpt lat="44.98843" lon="6.03295">
        <ele>2509</ele>
        <time>2021-03-21T10:33:47.000Z</time>
      </trkpt>
      <trkpt lat="44.98843" lon="6.03296">
        <ele>2509</ele>
        <time>2021-03-21T10:33:48.000Z</time>
      </trkpt>
      <trkpt lat="44.98843" lon="6.03297">
        <ele>2509.1999511719</ele>
        <time>2021-03-21T10:33:49.000Z</time>
      </trkpt>
      <trkpt lat="44.98843" lon="6.03299">
        <ele>2509.1999511719</ele>
        <time>2021-03-21T10:33:50.000Z</time>
      </trkpt>
      <trkpt lat="44.98843" lon="6.033">
        <ele>2509.1999511719</ele>
        <time>2021-03-21T10:33:51.000Z</time>
      </trkpt>
      <trkpt lat="44.98842" lon="6.03301">
        <ele>2509.3999023438</ele>
        <time>2021-03-21T10:33:52.000Z</time>
      </trkpt>
      <trkpt lat="44.98842" lon="6.03302">
        <ele>2509.3999023438</ele>
        <time>2021-03-21T10:33:53.000Z</time>
      </trkpt>
      <trkpt lat="44.98842" lon="6.03303">
        <ele>2509.6000976562</ele>
        <time>2021-03-21T10:33:54.000Z</time>
      </trkpt>
      <trkpt lat="44.98842" lon="6.03304">
        <ele>2509.6000976562</ele>
        <time>2021-03-21T10:33:55.000Z</time>
      </trkpt>
      <trkpt lat="44.98843" lon="6.03305">
        <ele>2509.6000976562</ele>
        <time>2021-03-21T10:33:56.000Z</time>
      </trkpt>
      <trkpt lat="44.98843" lon="6.03306">
        <ele>2509.8000488281</ele>
        <time>2021-03-21T10:33:57.000Z</time>
      </trkpt>
      <trkpt lat="44.98843" lon="6.03307">
        <ele>2509.8000488281</ele>
        <time>2021-03-21T10:33:58.000Z</time>
      </trkpt>
      <trkpt lat="44.98843" lon="6.03308">
        <ele>2509.8000488281</ele>
        <time>2021-03-21T10:33:59.000Z</time>
      </trkpt>
      <trkpt lat="44.98843" lon="6.03309">
        <ele>2510</ele>
        <time>2021-03-21T10:34:00.000Z</time>
      </trkpt>
      <trkpt lat="44.98843" lon="6.0331">
        <ele>2510</ele>
        <time>2021-03-21T10:34:01.000Z</time>
      </trkpt>
      <trkpt lat="44.98843" lon="6.03311">
        <ele>2510</ele>
        <time>2021-03-21T10:34:02.000Z</time>
      </trkpt>
      <trkpt lat="44.98842" lon="6.03311">
        <ele>2510.1999511719</ele>
        <time>2021-03-21T10:34:03.000Z</time>
      </trkpt>
      <trkpt lat="44.98842" lon="6.03313">
        <ele>2510.3999023438</ele>
        <time>2021-03-21T10:34:04.000Z</time>
      </trkpt>
      <trkpt lat="44.98842" lon="6.03313">
        <ele>2510.3999023438</ele>
        <time>2021-03-21T10:34:05.000Z</time>
      </trkpt>
      <trkpt lat="44.98842" lon="6.03314">
        <ele>2510.3999023438</ele>
        <time>2021-03-21T10:34:06.000Z</time>
      </trkpt>
      <trkpt lat="44.98842" lon="6.03315">
        <ele>2510.3999023438</ele>
        <time>2021-03-21T10:34:07.000Z</time>
      </trkpt>
      <trkpt lat="44.98842" lon="6.03316">
        <ele>2510.6000976562</ele>
        <time>2021-03-21T10:34:08.000Z</time>
      </trkpt>
      <trkpt lat="44.98842" lon="6.03317">
        <ele>2511</ele>
        <time>2021-03-21T10:34:09.000Z</time>
      </trkpt>
      <trkpt lat="44.98842" lon="6.03318">
        <ele>2511.1999511719</ele>
        <time>2021-03-21T10:34:10.000Z</time>
      </trkpt>
      <trkpt lat="44.98842" lon="6.0332">
        <ele>2511.6000976562</ele>
        <time>2021-03-21T10:34:11.000Z</time>
      </trkpt>
      <trkpt lat="44.98841" lon="6.03321">
        <ele>2511.8000488281</ele>
        <time>2021-03-21T10:34:12.000Z</time>
      </trkpt>
      <trkpt lat="44.98841" lon="6.03322">
        <ele>2512</ele>
        <time>2021-03-21T10:34:13.000Z</time>
      </trkpt>
      <trkpt lat="44.98841" lon="6.03323">
        <ele>2512.1999511719</ele>
        <time>2021-03-21T10:34:14.000Z</time>
      </trkpt>
      <trkpt lat="44.98841" lon="6.03323">
        <ele>2512.1999511719</ele>
        <time>2021-03-21T10:34:15.000Z</time>
      </trkpt>
      <trkpt lat="44.9884" lon="6.03324">
        <ele>2512.3999023438</ele>
        <time>2021-03-21T10:34:16.000Z</time>
      </trkpt>
      <trkpt lat="44.9884" lon="6.03325">
        <ele>2512.8000488281</ele>
        <time>2021-03-21T10:34:17.000Z</time>
      </trkpt>
      <trkpt lat="44.98839" lon="6.03326">
        <ele>2512.8000488281</ele>
        <time>2021-03-21T10:34:18.000Z</time>
      </trkpt>
      <trkpt lat="44.98839" lon="6.03326">
        <ele>2513</ele>
        <time>2021-03-21T10:34:19.000Z</time>
      </trkpt>
      <trkpt lat="44.98839" lon="6.03327">
        <ele>2513</ele>
        <time>2021-03-21T10:34:20.000Z</time>
      </trkpt>
      <trkpt lat="44.98839" lon="6.03327">
        <ele>2513</ele>
        <time>2021-03-21T10:34:21.000Z</time>
      </trkpt>
      <trkpt lat="44.98839" lon="6.03327">
        <ele>2513</ele>
        <time>2021-03-21T10:34:22.000Z</time>
      </trkpt>
      <trkpt lat="44.9884" lon="6.03327">
        <ele>2512.8000488281</ele>
        <time>2021-03-21T10:34:23.000Z</time>
      </trkpt>
      <trkpt lat="44.9884" lon="6.03327">
        <ele>2512.8000488281</ele>
        <time>2021-03-21T10:34:24.000Z</time>
      </trkpt>
      <trkpt lat="44.9884" lon="6.03327">
        <ele>2512.6000976562</ele>
        <time>2021-03-21T10:34:25.000Z</time>
      </trkpt>
      <trkpt lat="44.9884" lon="6.03327">
        <ele>2512.8000488281</ele>
        <time>2021-03-21T10:34:26.000Z</time>
      </trkpt>
      <trkpt lat="44.9884" lon="6.03327">
        <ele>2512.6000976562</ele>
        <time>2021-03-21T10:34:27.000Z</time>
      </trkpt>
      <trkpt lat="44.9884" lon="6.03327">
        <ele>2512.6000976562</ele>
        <time>2021-03-21T10:34:28.000Z</time>
      </trkpt>
      <trkpt lat="44.98841" lon="6.03327">
        <ele>2512.6000976562</ele>
        <time>2021-03-21T10:34:29.000Z</time>
      </trkpt>
      <trkpt lat="44.98841" lon="6.03327">
        <ele>2512.6000976562</ele>
        <time>2021-03-21T10:34:30.000Z</time>
      </trkpt>
      <trkpt lat="44.98841" lon="6.03327">
        <ele>2512.6000976562</ele>
        <time>2021-03-21T10:34:31.000Z</time>
      </trkpt>
      <trkpt lat="44.98841" lon="6.03327">
        <ele>2512.3999023438</ele>
        <time>2021-03-21T10:34:32.000Z</time>
      </trkpt>
      <trkpt lat="44.98841" lon="6.03327">
        <ele>2512.3999023438</ele>
        <time>2021-03-21T10:34:33.000Z</time>
      </trkpt>
      <trkpt lat="44.98841" lon="6.03327">
        <ele>2512.3999023438</ele>
        <time>2021-03-21T10:34:34.000Z</time>
      </trkpt>
      <trkpt lat="44.98841" lon="6.03327">
        <ele>2512.3999023438</ele>
        <time>2021-03-21T10:34:35.000Z</time>
      </trkpt>
      <trkpt lat="44.98841" lon="6.03328">
        <ele>2512.3999023438</ele>
        <time>2021-03-21T10:34:36.000Z</time>
      </trkpt>
      <trkpt lat="44.98841" lon="6.03329">
        <ele>2512.3999023438</ele>
        <time>2021-03-21T10:34:37.000Z</time>
      </trkpt>
      <trkpt lat="44.98841" lon="6.0333">
        <ele>2512.6000976562</ele>
        <time>2021-03-21T10:34:38.000Z</time>
      </trkpt>
      <trkpt lat="44.98841" lon="6.03331">
        <ele>2512.8000488281</ele>
        <time>2021-03-21T10:34:39.000Z</time>
      </trkpt>
      <trkpt lat="44.98841" lon="6.03332">
        <ele>2512.8000488281</ele>
        <time>2021-03-21T10:34:40.000Z</time>
      </trkpt>
      <trkpt lat="44.9884" lon="6.03333">
        <ele>2513.1999511719</ele>
        <time>2021-03-21T10:34:41.000Z</time>
      </trkpt>
      <trkpt lat="44.9884" lon="6.03334">
        <ele>2513.1999511719</ele>
        <time>2021-03-21T10:34:42.000Z</time>
      </trkpt>
      <trkpt lat="44.9884" lon="6.03335">
        <ele>2513.3999023438</ele>
        <time>2021-03-21T10:34:43.000Z</time>
      </trkpt>
      <trkpt lat="44.98839" lon="6.03337">
        <ele>2513.6000976562</ele>
        <time>2021-03-21T10:34:44.000Z</time>
      </trkpt>
      <trkpt lat="44.98839" lon="6.03337">
        <ele>2513.8000488281</ele>
        <time>2021-03-21T10:34:45.000Z</time>
      </trkpt>
      <trkpt lat="44.98839" lon="6.03338">
        <ele>2513.8000488281</ele>
        <time>2021-03-21T10:34:46.000Z</time>
      </trkpt>
      <trkpt lat="44.98838" lon="6.0334">
        <ele>2514.1999511719</ele>
        <time>2021-03-21T10:34:47.000Z</time>
      </trkpt>
      <trkpt lat="44.98838" lon="6.0334">
        <ele>2514.1999511719</ele>
        <time>2021-03-21T10:34:48.000Z</time>
      </trkpt>
      <trkpt lat="44.98838" lon="6.03341">
        <ele>2514.3999023438</ele>
        <time>2021-03-21T10:34:49.000Z</time>
      </trkpt>
      <trkpt lat="44.98837" lon="6.03342">
        <ele>2514.8000488281</ele>
        <time>2021-03-21T10:34:50.000Z</time>
      </trkpt>
      <trkpt lat="44.98837" lon="6.03343">
        <ele>2515</ele>
        <time>2021-03-21T10:34:51.000Z</time>
      </trkpt>
      <trkpt lat="44.98836" lon="6.03345">
        <ele>2515.1999511719</ele>
        <time>2021-03-21T10:34:52.000Z</time>
      </trkpt>
      <trkpt lat="44.98836" lon="6.03346">
        <ele>2515.3999023438</ele>
        <time>2021-03-21T10:34:53.000Z</time>
      </trkpt>
      <trkpt lat="44.98836" lon="6.03347">
        <ele>2515.6000976562</ele>
        <time>2021-03-21T10:34:54.000Z</time>
      </trkpt>
      <trkpt lat="44.98835" lon="6.03348">
        <ele>2515.8000488281</ele>
        <time>2021-03-21T10:34:55.000Z</time>
      </trkpt>
      <trkpt lat="44.98835" lon="6.03349">
        <ele>2515.8000488281</ele>
        <time>2021-03-21T10:34:56.000Z</time>
      </trkpt>
      <trkpt lat="44.98835" lon="6.03349">
        <ele>2516</ele>
        <time>2021-03-21T10:34:57.000Z</time>
      </trkpt>
      <trkpt lat="44.98835" lon="6.03351">
        <ele>2516.1999511719</ele>
        <time>2021-03-21T10:34:58.000Z</time>
      </trkpt>
      <trkpt lat="44.98834" lon="6.03352">
        <ele>2516.1999511719</ele>
        <time>2021-03-21T10:34:59.000Z</time>
      </trkpt>
      <trkpt lat="44.98834" lon="6.03353">
        <ele>2516.3999023438</ele>
        <time>2021-03-21T10:35:00.000Z</time>
      </trkpt>
      <trkpt lat="44.98834" lon="6.03354">
        <ele>2516.3999023438</ele>
        <time>2021-03-21T10:35:01.000Z</time>
      </trkpt>
      <trkpt lat="44.98834" lon="6.03355">
        <ele>2516.6000976562</ele>
        <time>2021-03-21T10:35:02.000Z</time>
      </trkpt>
      <trkpt lat="44.98833" lon="6.03356">
        <ele>2516.6000976562</ele>
        <time>2021-03-21T10:35:03.000Z</time>
      </trkpt>
      <trkpt lat="44.98833" lon="6.03357">
        <ele>2516.8000488281</ele>
        <time>2021-03-21T10:35:04.000Z</time>
      </trkpt>
      <trkpt lat="44.98833" lon="6.03358">
        <ele>2516.8000488281</ele>
        <time>2021-03-21T10:35:05.000Z</time>
      </trkpt>
      <trkpt lat="44.98833" lon="6.03359">
        <ele>2516.8000488281</ele>
        <time>2021-03-21T10:35:06.000Z</time>
      </trkpt>
      <trkpt lat="44.98833" lon="6.0336">
        <ele>2517</ele>
        <time>2021-03-21T10:35:07.000Z</time>
      </trkpt>
      <trkpt lat="44.98833" lon="6.03361">
        <ele>2517</ele>
        <time>2021-03-21T10:35:08.000Z</time>
      </trkpt>
      <trkpt lat="44.98833" lon="6.03362">
        <ele>2517.1999511719</ele>
        <time>2021-03-21T10:35:09.000Z</time>
      </trkpt>
      <trkpt lat="44.98832" lon="6.03363">
        <ele>2517.1999511719</ele>
        <time>2021-03-21T10:35:10.000Z</time>
      </trkpt>
      <trkpt lat="44.98832" lon="6.03364">
        <ele>2517.3999023438</ele>
        <time>2021-03-21T10:35:11.000Z</time>
      </trkpt>
      <trkpt lat="44.98831" lon="6.03365">
        <ele>2517.6000976562</ele>
        <time>2021-03-21T10:35:12.000Z</time>
      </trkpt>
      <trkpt lat="44.98832" lon="6.03365">
        <ele>2517.6000976562</ele>
        <time>2021-03-21T10:35:13.000Z</time>
      </trkpt>
      <trkpt lat="44.98831" lon="6.03366">
        <ele>2517.8000488281</ele>
        <time>2021-03-21T10:35:14.000Z</time>
      </trkpt>
      <trkpt lat="44.98831" lon="6.03367">
        <ele>2517.8000488281</ele>
        <time>2021-03-21T10:35:15.000Z</time>
      </trkpt>
      <trkpt lat="44.98831" lon="6.03368">
        <ele>2517.8000488281</ele>
        <time>2021-03-21T10:35:16.000Z</time>
      </trkpt>
      <trkpt lat="44.9883" lon="6.03369">
        <ele>2518.1999511719</ele>
        <time>2021-03-21T10:35:17.000Z</time>
      </trkpt>
      <trkpt lat="44.9883" lon="6.0337">
        <ele>2518.1999511719</ele>
        <time>2021-03-21T10:35:18.000Z</time>
      </trkpt>
      <trkpt lat="44.9883" lon="6.03371">
        <ele>2518.3999023438</ele>
        <time>2021-03-21T10:35:19.000Z</time>
      </trkpt>
      <trkpt lat="44.98829" lon="6.03372">
        <ele>2518.6000976562</ele>
        <time>2021-03-21T10:35:20.000Z</time>
      </trkpt>
      <trkpt lat="44.98829" lon="6.03373">
        <ele>2518.6000976562</ele>
        <time>2021-03-21T10:35:21.000Z</time>
      </trkpt>
      <trkpt lat="44.98829" lon="6.03374">
        <ele>2518.8000488281</ele>
        <time>2021-03-21T10:35:22.000Z</time>
      </trkpt>
      <trkpt lat="44.98828" lon="6.03375">
        <ele>2519</ele>
        <time>2021-03-21T10:35:23.000Z</time>
      </trkpt>
      <trkpt lat="44.98828" lon="6.03375">
        <ele>2519</ele>
        <time>2021-03-21T10:35:24.000Z</time>
      </trkpt>
      <trkpt lat="44.98828" lon="6.03376">
        <ele>2519.1999511719</ele>
        <time>2021-03-21T10:35:25.000Z</time>
      </trkpt>
      <trkpt lat="44.98828" lon="6.03377">
        <ele>2519.3999023438</ele>
        <time>2021-03-21T10:35:26.000Z</time>
      </trkpt>
      <trkpt lat="44.98828" lon="6.03378">
        <ele>2519.6000976562</ele>
        <time>2021-03-21T10:35:27.000Z</time>
      </trkpt>
      <trkpt lat="44.98827" lon="6.03379">
        <ele>2519.8000488281</ele>
        <time>2021-03-21T10:35:28.000Z</time>
      </trkpt>
      <trkpt lat="44.98827" lon="6.0338">
        <ele>2520</ele>
        <time>2021-03-21T10:35:29.000Z</time>
      </trkpt>
      <trkpt lat="44.98827" lon="6.03381">
        <ele>2520.1999511719</ele>
        <time>2021-03-21T10:35:30.000Z</time>
      </trkpt>
      <trkpt lat="44.98827" lon="6.03382">
        <ele>2520.1999511719</ele>
        <time>2021-03-21T10:35:31.000Z</time>
      </trkpt>
      <trkpt lat="44.98826" lon="6.03382">
        <ele>2520.3999023438</ele>
        <time>2021-03-21T10:35:32.000Z</time>
      </trkpt>
      <trkpt lat="44.98826" lon="6.03383">
        <ele>2520.6000976562</ele>
        <time>2021-03-21T10:35:33.000Z</time>
      </trkpt>
      <trkpt lat="44.98826" lon="6.03384">
        <ele>2520.6000976562</ele>
        <time>2021-03-21T10:35:34.000Z</time>
      </trkpt>
      <trkpt lat="44.98826" lon="6.03385">
        <ele>2520.8000488281</ele>
        <time>2021-03-21T10:35:35.000Z</time>
      </trkpt>
      <trkpt lat="44.98826" lon="6.03386">
        <ele>2520.8000488281</ele>
        <time>2021-03-21T10:35:36.000Z</time>
      </trkpt>
      <trkpt lat="44.98825" lon="6.03386">
        <ele>2521</ele>
        <time>2021-03-21T10:35:37.000Z</time>
      </trkpt>
      <trkpt lat="44.98825" lon="6.03387">
        <ele>2521.1999511719</ele>
        <time>2021-03-21T10:35:38.000Z</time>
      </trkpt>
      <trkpt lat="44.98825" lon="6.03388">
        <ele>2521.3999023438</ele>
        <time>2021-03-21T10:35:39.000Z</time>
      </trkpt>
      <trkpt lat="44.98824" lon="6.03389">
        <ele>2521.6000976562</ele>
        <time>2021-03-21T10:35:40.000Z</time>
      </trkpt>
      <trkpt lat="44.98824" lon="6.0339">
        <ele>2521.6000976562</ele>
        <time>2021-03-21T10:35:41.000Z</time>
      </trkpt>
      <trkpt lat="44.98824" lon="6.03391">
        <ele>2521.8000488281</ele>
        <time>2021-03-21T10:35:42.000Z</time>
      </trkpt>
      <trkpt lat="44.98823" lon="6.03392">
        <ele>2522</ele>
        <time>2021-03-21T10:35:43.000Z</time>
      </trkpt>
      <trkpt lat="44.98823" lon="6.03393">
        <ele>2522.1999511719</ele>
        <time>2021-03-21T10:35:44.000Z</time>
      </trkpt>
      <trkpt lat="44.98822" lon="6.03395">
        <ele>2522.3999023438</ele>
        <time>2021-03-21T10:35:45.000Z</time>
      </trkpt>
      <trkpt lat="44.98822" lon="6.03395">
        <ele>2522.6000976562</ele>
        <time>2021-03-21T10:35:46.000Z</time>
      </trkpt>
      <trkpt lat="44.98821" lon="6.03396">
        <ele>2522.8000488281</ele>
        <time>2021-03-21T10:35:47.000Z</time>
      </trkpt>
      <trkpt lat="44.98821" lon="6.03398">
        <ele>2523</ele>
        <time>2021-03-21T10:35:48.000Z</time>
      </trkpt>
      <trkpt lat="44.98821" lon="6.03398">
        <ele>2523.1999511719</ele>
        <time>2021-03-21T10:35:49.000Z</time>
      </trkpt>
      <trkpt lat="44.9882" lon="6.034">
        <ele>2523.3999023438</ele>
        <time>2021-03-21T10:35:50.000Z</time>
      </trkpt>
      <trkpt lat="44.9882" lon="6.034">
        <ele>2523.3999023438</ele>
        <time>2021-03-21T10:35:51.000Z</time>
      </trkpt>
      <trkpt lat="44.9882" lon="6.03401">
        <ele>2523.6000976562</ele>
        <time>2021-03-21T10:35:52.000Z</time>
      </trkpt>
      <trkpt lat="44.9882" lon="6.03402">
        <ele>2523.6000976562</ele>
        <time>2021-03-21T10:35:53.000Z</time>
      </trkpt>
      <trkpt lat="44.9882" lon="6.03403">
        <ele>2523.8000488281</ele>
        <time>2021-03-21T10:35:54.000Z</time>
      </trkpt>
      <trkpt lat="44.9882" lon="6.03404">
        <ele>2523.8000488281</ele>
        <time>2021-03-21T10:35:55.000Z</time>
      </trkpt>
      <trkpt lat="44.9882" lon="6.03405">
        <ele>2523.8000488281</ele>
        <time>2021-03-21T10:35:56.000Z</time>
      </trkpt>
      <trkpt lat="44.9882" lon="6.03406">
        <ele>2523.8000488281</ele>
        <time>2021-03-21T10:35:57.000Z</time>
      </trkpt>
      <trkpt lat="44.9882" lon="6.03406">
        <ele>2523.8000488281</ele>
        <time>2021-03-21T10:35:58.000Z</time>
      </trkpt>
      <trkpt lat="44.9882" lon="6.03408">
        <ele>2523.8000488281</ele>
        <time>2021-03-21T10:35:59.000Z</time>
      </trkpt>
      <trkpt lat="44.9882" lon="6.03408">
        <ele>2523.8000488281</ele>
        <time>2021-03-21T10:36:00.000Z</time>
      </trkpt>
      <trkpt lat="44.9882" lon="6.03409">
        <ele>2523.8000488281</ele>
        <time>2021-03-21T10:36:01.000Z</time>
      </trkpt>
      <trkpt lat="44.9882" lon="6.03411">
        <ele>2523.8000488281</ele>
        <time>2021-03-21T10:36:02.000Z</time>
      </trkpt>
      <trkpt lat="44.98819" lon="6.03412">
        <ele>2524</ele>
        <time>2021-03-21T10:36:03.000Z</time>
      </trkpt>
      <trkpt lat="44.98819" lon="6.03413">
        <ele>2524</ele>
        <time>2021-03-21T10:36:04.000Z</time>
      </trkpt>
      <trkpt lat="44.98819" lon="6.03414">
        <ele>2524</ele>
        <time>2021-03-21T10:36:05.000Z</time>
      </trkpt>
      <trkpt lat="44.98819" lon="6.03416">
        <ele>2524.1999511719</ele>
        <time>2021-03-21T10:36:06.000Z</time>
      </trkpt>
      <trkpt lat="44.98818" lon="6.03417">
        <ele>2524.1999511719</ele>
        <time>2021-03-21T10:36:07.000Z</time>
      </trkpt>
      <trkpt lat="44.98818" lon="6.03417">
        <ele>2524.3999023438</ele>
        <time>2021-03-21T10:36:08.000Z</time>
      </trkpt>
      <trkpt lat="44.98818" lon="6.03419">
        <ele>2524.3999023438</ele>
        <time>2021-03-21T10:36:09.000Z</time>
      </trkpt>
      <trkpt lat="44.98818" lon="6.03419">
        <ele>2524.3999023438</ele>
        <time>2021-03-21T10:36:10.000Z</time>
      </trkpt>
      <trkpt lat="44.98817" lon="6.0342">
        <ele>2524.6000976562</ele>
        <time>2021-03-21T10:36:11.000Z</time>
      </trkpt>
      <trkpt lat="44.98818" lon="6.03421">
        <ele>2524.3999023438</ele>
        <time>2021-03-21T10:36:12.000Z</time>
      </trkpt>
      <trkpt lat="44.98817" lon="6.03422">
        <ele>2524.6000976562</ele>
        <time>2021-03-21T10:36:13.000Z</time>
      </trkpt>
      <trkpt lat="44.98817" lon="6.03423">
        <ele>2524.6000976562</ele>
        <time>2021-03-21T10:36:14.000Z</time>
      </trkpt>
      <trkpt lat="44.98817" lon="6.03424">
        <ele>2524.6000976562</ele>
        <time>2021-03-21T10:36:15.000Z</time>
      </trkpt>
      <trkpt lat="44.98817" lon="6.03425">
        <ele>2524.6000976562</ele>
        <time>2021-03-21T10:36:16.000Z</time>
      </trkpt>
      <trkpt lat="44.98817" lon="6.03425">
        <ele>2524.6000976562</ele>
        <time>2021-03-21T10:36:17.000Z</time>
      </trkpt>
      <trkpt lat="44.98816" lon="6.03427">
        <ele>2524.8000488281</ele>
        <time>2021-03-21T10:36:18.000Z</time>
      </trkpt>
      <trkpt lat="44.98816" lon="6.03427">
        <ele>2524.8000488281</ele>
        <time>2021-03-21T10:36:19.000Z</time>
      </trkpt>
      <trkpt lat="44.98816" lon="6.03428">
        <ele>2525</ele>
        <time>2021-03-21T10:36:20.000Z</time>
      </trkpt>
      <trkpt lat="44.98816" lon="6.0343">
        <ele>2525</ele>
        <time>2021-03-21T10:36:21.000Z</time>
      </trkpt>
      <trkpt lat="44.98816" lon="6.03431">
        <ele>2525</ele>
        <time>2021-03-21T10:36:22.000Z</time>
      </trkpt>
      <trkpt lat="44.98816" lon="6.03432">
        <ele>2525</ele>
        <time>2021-03-21T10:36:23.000Z</time>
      </trkpt>
      <trkpt lat="44.98816" lon="6.03433">
        <ele>2525</ele>
        <time>2021-03-21T10:36:24.000Z</time>
      </trkpt>
      <trkpt lat="44.98815" lon="6.03434">
        <ele>2525.1999511719</ele>
        <time>2021-03-21T10:36:25.000Z</time>
      </trkpt>
      <trkpt lat="44.98815" lon="6.03435">
        <ele>2525.3999023438</ele>
        <time>2021-03-21T10:36:26.000Z</time>
      </trkpt>
      <trkpt lat="44.98815" lon="6.03436">
        <ele>2525.3999023438</ele>
        <time>2021-03-21T10:36:27.000Z</time>
      </trkpt>
      <trkpt lat="44.98814" lon="6.03437">
        <ele>2525.6000976562</ele>
        <time>2021-03-21T10:36:28.000Z</time>
      </trkpt>
      <trkpt lat="44.98814" lon="6.03437">
        <ele>2525.6000976562</ele>
        <time>2021-03-21T10:36:29.000Z</time>
      </trkpt>
      <trkpt lat="44.98813" lon="6.03438">
        <ele>2526</ele>
        <time>2021-03-21T10:36:30.000Z</time>
      </trkpt>
      <trkpt lat="44.98813" lon="6.03439">
        <ele>2526</ele>
        <time>2021-03-21T10:36:31.000Z</time>
      </trkpt>
      <trkpt lat="44.98812" lon="6.03439">
        <ele>2526.1999511719</ele>
        <time>2021-03-21T10:36:32.000Z</time>
      </trkpt>
      <trkpt lat="44.98811" lon="6.03439">
        <ele>2526.3999023438</ele>
        <time>2021-03-21T10:36:33.000Z</time>
      </trkpt>
      <trkpt lat="44.98811" lon="6.03439">
        <ele>2526.6000976562</ele>
        <time>2021-03-21T10:36:34.000Z</time>
      </trkpt>
      <trkpt lat="44.9881" lon="6.03439">
        <ele>2527</ele>
        <time>2021-03-21T10:36:35.000Z</time>
      </trkpt>
      <trkpt lat="44.9881" lon="6.03438">
        <ele>2527</ele>
        <time>2021-03-21T10:36:36.000Z</time>
      </trkpt>
      <trkpt lat="44.98809" lon="6.03438">
        <ele>2527.1999511719</ele>
        <time>2021-03-21T10:36:37.000Z</time>
      </trkpt>
      <trkpt lat="44.98808" lon="6.03437">
        <ele>2527.3999023438</ele>
        <time>2021-03-21T10:36:38.000Z</time>
      </trkpt>
      <trkpt lat="44.98807" lon="6.03436">
        <ele>2527.8000488281</ele>
        <time>2021-03-21T10:36:39.000Z</time>
      </trkpt>
      <trkpt lat="44.98806" lon="6.03436">
        <ele>2528</ele>
        <time>2021-03-21T10:36:40.000Z</time>
      </trkpt>
      <trkpt lat="44.98805" lon="6.03436">
        <ele>2528.1999511719</ele>
        <time>2021-03-21T10:36:41.000Z</time>
      </trkpt>
      <trkpt lat="44.98804" lon="6.03436">
        <ele>2528.6000976562</ele>
        <time>2021-03-21T10:36:42.000Z</time>
      </trkpt>
      <trkpt lat="44.98803" lon="6.03436">
        <ele>2528.8000488281</ele>
        <time>2021-03-21T10:36:43.000Z</time>
      </trkpt>
      <trkpt lat="44.98802" lon="6.03436">
        <ele>2529</ele>
        <time>2021-03-21T10:36:44.000Z</time>
      </trkpt>
      <trkpt lat="44.98801" lon="6.03436">
        <ele>2529.3999023438</ele>
        <time>2021-03-21T10:36:45.000Z</time>
      </trkpt>
      <trkpt lat="44.988" lon="6.03436">
        <ele>2529.6000976562</ele>
        <time>2021-03-21T10:36:46.000Z</time>
      </trkpt>
      <trkpt lat="44.98799" lon="6.03436">
        <ele>2529.8000488281</ele>
        <time>2021-03-21T10:36:47.000Z</time>
      </trkpt>
      <trkpt lat="44.98799" lon="6.03436">
        <ele>2530</ele>
        <time>2021-03-21T10:36:48.000Z</time>
      </trkpt>
      <trkpt lat="44.98798" lon="6.03437">
        <ele>2530.1999511719</ele>
        <time>2021-03-21T10:36:49.000Z</time>
      </trkpt>
      <trkpt lat="44.98797" lon="6.03437">
        <ele>2530.6000976562</ele>
        <time>2021-03-21T10:36:50.000Z</time>
      </trkpt>
      <trkpt lat="44.98796" lon="6.03437">
        <ele>2530.8000488281</ele>
        <time>2021-03-21T10:36:51.000Z</time>
      </trkpt>
      <trkpt lat="44.98795" lon="6.03438">
        <ele>2531</ele>
        <time>2021-03-21T10:36:52.000Z</time>
      </trkpt>
      <trkpt lat="44.98795" lon="6.03438">
        <ele>2531.1999511719</ele>
        <time>2021-03-21T10:36:53.000Z</time>
      </trkpt>
      <trkpt lat="44.98793" lon="6.03439">
        <ele>2531.3999023438</ele>
        <time>2021-03-21T10:36:54.000Z</time>
      </trkpt>
      <trkpt lat="44.98792" lon="6.0344">
        <ele>2531.8000488281</ele>
        <time>2021-03-21T10:36:55.000Z</time>
      </trkpt>
      <trkpt lat="44.98791" lon="6.0344">
        <ele>2532</ele>
        <time>2021-03-21T10:36:56.000Z</time>
      </trkpt>
      <trkpt lat="44.9879" lon="6.03441">
        <ele>2532.6000976562</ele>
        <time>2021-03-21T10:36:57.000Z</time>
      </trkpt>
      <trkpt lat="44.9879" lon="6.03441">
        <ele>2532.8000488281</ele>
        <time>2021-03-21T10:36:58.000Z</time>
      </trkpt>
      <trkpt lat="44.98788" lon="6.03442">
        <ele>2533.3999023438</ele>
        <time>2021-03-21T10:36:59.000Z</time>
      </trkpt>
      <trkpt lat="44.98788" lon="6.03443">
        <ele>2533.8000488281</ele>
        <time>2021-03-21T10:37:00.000Z</time>
      </trkpt>
      <trkpt lat="44.98787" lon="6.03443">
        <ele>2534.1999511719</ele>
        <time>2021-03-21T10:37:01.000Z</time>
      </trkpt>
      <trkpt lat="44.98786" lon="6.03444">
        <ele>2534.6000976562</ele>
        <time>2021-03-21T10:37:02.000Z</time>
      </trkpt>
      <trkpt lat="44.98786" lon="6.03445">
        <ele>2534.8000488281</ele>
        <time>2021-03-21T10:37:03.000Z</time>
      </trkpt>
      <trkpt lat="44.98785" lon="6.03445">
        <ele>2535</ele>
        <time>2021-03-21T10:37:04.000Z</time>
      </trkpt>
      <trkpt lat="44.98785" lon="6.03445">
        <ele>2535.1999511719</ele>
        <time>2021-03-21T10:37:05.000Z</time>
      </trkpt>
      <trkpt lat="44.98784" lon="6.03446">
        <ele>2535.6000976562</ele>
        <time>2021-03-21T10:37:06.000Z</time>
      </trkpt>
      <trkpt lat="44.98784" lon="6.03447">
        <ele>2536</ele>
        <time>2021-03-21T10:37:07.000Z</time>
      </trkpt>
      <trkpt lat="44.98783" lon="6.03448">
        <ele>2536.1999511719</ele>
        <time>2021-03-21T10:37:08.000Z</time>
      </trkpt>
      <trkpt lat="44.98782" lon="6.03448">
        <ele>2536.8000488281</ele>
        <time>2021-03-21T10:37:09.000Z</time>
      </trkpt>
      <trkpt lat="44.98782" lon="6.03448">
        <ele>2536.8000488281</ele>
        <time>2021-03-21T10:37:10.000Z</time>
      </trkpt>
      <trkpt lat="44.98781" lon="6.0345">
        <ele>2537.3999023438</ele>
        <time>2021-03-21T10:37:11.000Z</time>
      </trkpt>
      <trkpt lat="44.9878" lon="6.0345">
        <ele>2537.6000976562</ele>
        <time>2021-03-21T10:37:12.000Z</time>
      </trkpt>
      <trkpt lat="44.9878" lon="6.03451">
        <ele>2538</ele>
        <time>2021-03-21T10:37:13.000Z</time>
      </trkpt>
      <trkpt lat="44.9878" lon="6.03452">
        <ele>2538.1999511719</ele>
        <time>2021-03-21T10:37:14.000Z</time>
      </trkpt>
      <trkpt lat="44.98779" lon="6.03452">
        <ele>2538.3999023438</ele>
        <time>2021-03-21T10:37:15.000Z</time>
      </trkpt>
      <trkpt lat="44.98778" lon="6.03454">
        <ele>2538.8000488281</ele>
        <time>2021-03-21T10:37:16.000Z</time>
      </trkpt>
      <trkpt lat="44.98778" lon="6.03454">
        <ele>2538.8000488281</ele>
        <time>2021-03-21T10:37:17.000Z</time>
      </trkpt>
      <trkpt lat="44.98777" lon="6.03455">
        <ele>2539.3999023438</ele>
        <time>2021-03-21T10:37:18.000Z</time>
      </trkpt>
      <trkpt lat="44.98777" lon="6.03456">
        <ele>2539.3999023438</ele>
        <time>2021-03-21T10:37:19.000Z</time>
      </trkpt>
      <trkpt lat="44.98777" lon="6.03457">
        <ele>2539.8000488281</ele>
        <time>2021-03-21T10:37:20.000Z</time>
      </trkpt>
      <trkpt lat="44.98777" lon="6.03457">
        <ele>2539.8000488281</ele>
        <time>2021-03-21T10:37:21.000Z</time>
      </trkpt>
      <trkpt lat="44.98776" lon="6.03458">
        <ele>2540</ele>
        <time>2021-03-21T10:37:22.000Z</time>
      </trkpt>
      <trkpt lat="44.98776" lon="6.03459">
        <ele>2540</ele>
        <time>2021-03-21T10:37:23.000Z</time>
      </trkpt>
      <trkpt lat="44.98776" lon="6.03459">
        <ele>2540.1999511719</ele>
        <time>2021-03-21T10:37:24.000Z</time>
      </trkpt>
      <trkpt lat="44.98776" lon="6.0346">
        <ele>2540.6000976562</ele>
        <time>2021-03-21T10:37:25.000Z</time>
      </trkpt>
      <trkpt lat="44.98776" lon="6.03461">
        <ele>2540.6000976562</ele>
        <time>2021-03-21T10:37:26.000Z</time>
      </trkpt>
      <trkpt lat="44.98775" lon="6.03462">
        <ele>2541</ele>
        <time>2021-03-21T10:37:27.000Z</time>
      </trkpt>
      <trkpt lat="44.98775" lon="6.03462">
        <ele>2541.1999511719</ele>
        <time>2021-03-21T10:37:28.000Z</time>
      </trkpt>
      <trkpt lat="44.98774" lon="6.03463">
        <ele>2541.6000976562</ele>
        <time>2021-03-21T10:37:29.000Z</time>
      </trkpt>
      <trkpt lat="44.98774" lon="6.03464">
        <ele>2541.8000488281</ele>
        <time>2021-03-21T10:37:30.000Z</time>
      </trkpt>
      <trkpt lat="44.98773" lon="6.03465">
        <ele>2542.1999511719</ele>
        <time>2021-03-21T10:37:31.000Z</time>
      </trkpt>
      <trkpt lat="44.98773" lon="6.03466">
        <ele>2542.6000976562</ele>
        <time>2021-03-21T10:37:32.000Z</time>
      </trkpt>
      <trkpt lat="44.98772" lon="6.03466">
        <ele>2542.8000488281</ele>
        <time>2021-03-21T10:37:33.000Z</time>
      </trkpt>
      <trkpt lat="44.98771" lon="6.03467">
        <ele>2543.3999023438</ele>
        <time>2021-03-21T10:37:34.000Z</time>
      </trkpt>
      <trkpt lat="44.98771" lon="6.03467">
        <ele>2543.6000976562</ele>
        <time>2021-03-21T10:37:35.000Z</time>
      </trkpt>
      <trkpt lat="44.9877" lon="6.03469">
        <ele>2544.1999511719</ele>
        <time>2021-03-21T10:37:36.000Z</time>
      </trkpt>
      <trkpt lat="44.9877" lon="6.03469">
        <ele>2544.3999023438</ele>
        <time>2021-03-21T10:37:37.000Z</time>
      </trkpt>
      <trkpt lat="44.9877" lon="6.0347">
        <ele>2545</ele>
        <time>2021-03-21T10:37:38.000Z</time>
      </trkpt>
      <trkpt lat="44.9877" lon="6.03471">
        <ele>2545.1999511719</ele>
        <time>2021-03-21T10:37:39.000Z</time>
      </trkpt>
      <trkpt lat="44.98769" lon="6.03472">
        <ele>2545.8000488281</ele>
        <time>2021-03-21T10:37:40.000Z</time>
      </trkpt>
      <trkpt lat="44.98769" lon="6.03473">
        <ele>2546.1999511719</ele>
        <time>2021-03-21T10:37:41.000Z</time>
      </trkpt>
      <trkpt lat="44.98768" lon="6.03474">
        <ele>2546.6000976562</ele>
        <time>2021-03-21T10:37:42.000Z</time>
      </trkpt>
      <trkpt lat="44.98768" lon="6.03474">
        <ele>2546.8000488281</ele>
        <time>2021-03-21T10:37:43.000Z</time>
      </trkpt>
      <trkpt lat="44.98768" lon="6.03475">
        <ele>2547</ele>
        <time>2021-03-21T10:37:44.000Z</time>
      </trkpt>
      <trkpt lat="44.98767" lon="6.03476">
        <ele>2547.6000976562</ele>
        <time>2021-03-21T10:37:45.000Z</time>
      </trkpt>
      <trkpt lat="44.98767" lon="6.03476">
        <ele>2547.8000488281</ele>
        <time>2021-03-21T10:37:46.000Z</time>
      </trkpt>
      <trkpt lat="44.98767" lon="6.03477">
        <ele>2548.3999023438</ele>
        <time>2021-03-21T10:37:47.000Z</time>
      </trkpt>
      <trkpt lat="44.98767" lon="6.03478">
        <ele>2548.3999023438</ele>
        <time>2021-03-21T10:37:48.000Z</time>
      </trkpt>
      <trkpt lat="44.98766" lon="6.03479">
        <ele>2548.8000488281</ele>
        <time>2021-03-21T10:37:49.000Z</time>
      </trkpt>
      <trkpt lat="44.98766" lon="6.03479">
        <ele>2549</ele>
        <time>2021-03-21T10:37:50.000Z</time>
      </trkpt>
      <trkpt lat="44.98766" lon="6.0348">
        <ele>2549.6000976562</ele>
        <time>2021-03-21T10:37:51.000Z</time>
      </trkpt>
      <trkpt lat="44.98766" lon="6.03481">
        <ele>2549.6000976562</ele>
        <time>2021-03-21T10:37:52.000Z</time>
      </trkpt>
      <trkpt lat="44.98765" lon="6.03482">
        <ele>2549.8000488281</ele>
        <time>2021-03-21T10:37:53.000Z</time>
      </trkpt>
      <trkpt lat="44.98765" lon="6.03483">
        <ele>2550.1999511719</ele>
        <time>2021-03-21T10:37:54.000Z</time>
      </trkpt>
      <trkpt lat="44.98765" lon="6.03483">
        <ele>2550.1999511719</ele>
        <time>2021-03-21T10:37:55.000Z</time>
      </trkpt>
      <trkpt lat="44.98764" lon="6.03484">
        <ele>2550.8000488281</ele>
        <time>2021-03-21T10:37:56.000Z</time>
      </trkpt>
      <trkpt lat="44.98764" lon="6.03484">
        <ele>2551</ele>
        <time>2021-03-21T10:37:57.000Z</time>
      </trkpt>
      <trkpt lat="44.98764" lon="6.03485">
        <ele>2551.1999511719</ele>
        <time>2021-03-21T10:37:58.000Z</time>
      </trkpt>
      <trkpt lat="44.98764" lon="6.03486">
        <ele>2551.3999023438</ele>
        <time>2021-03-21T10:37:59.000Z</time>
      </trkpt>
      <trkpt lat="44.98764" lon="6.03487">
        <ele>2551.8000488281</ele>
        <time>2021-03-21T10:38:00.000Z</time>
      </trkpt>
      <trkpt lat="44.98764" lon="6.03487">
        <ele>2552</ele>
        <time>2021-03-21T10:38:01.000Z</time>
      </trkpt>
      <trkpt lat="44.98763" lon="6.03489">
        <ele>2552.3999023438</ele>
        <time>2021-03-21T10:38:02.000Z</time>
      </trkpt>
      <trkpt lat="44.98763" lon="6.03489">
        <ele>2552.6000976562</ele>
        <time>2021-03-21T10:38:03.000Z</time>
      </trkpt>
      <trkpt lat="44.98763" lon="6.0349">
        <ele>2552.8000488281</ele>
        <time>2021-03-21T10:38:04.000Z</time>
      </trkpt>
      <trkpt lat="44.98763" lon="6.03491">
        <ele>2553.1999511719</ele>
        <time>2021-03-21T10:38:05.000Z</time>
      </trkpt>
      <trkpt lat="44.98762" lon="6.03491">
        <ele>2553.3999023438</ele>
        <time>2021-03-21T10:38:06.000Z</time>
      </trkpt>
      <trkpt lat="44.98762" lon="6.03493">
        <ele>2554</ele>
        <time>2021-03-21T10:38:07.000Z</time>
      </trkpt>
      <trkpt lat="44.98762" lon="6.03493">
        <ele>2554.1999511719</ele>
        <time>2021-03-21T10:38:08.000Z</time>
      </trkpt>
      <trkpt lat="44.98761" lon="6.03494">
        <ele>2554.6000976562</ele>
        <time>2021-03-21T10:38:09.000Z</time>
      </trkpt>
      <trkpt lat="44.98761" lon="6.03495">
        <ele>2554.8000488281</ele>
        <time>2021-03-21T10:38:10.000Z</time>
      </trkpt>
      <trkpt lat="44.9876" lon="6.03496">
        <ele>2555.3999023438</ele>
        <time>2021-03-21T10:38:11.000Z</time>
      </trkpt>
      <trkpt lat="44.9876" lon="6.03496">
        <ele>2555.3999023438</ele>
        <time>2021-03-21T10:38:12.000Z</time>
      </trkpt>
      <trkpt lat="44.9876" lon="6.03497">
        <ele>2555.8000488281</ele>
        <time>2021-03-21T10:38:13.000Z</time>
      </trkpt>
      <trkpt lat="44.9876" lon="6.03498">
        <ele>2556</ele>
        <time>2021-03-21T10:38:14.000Z</time>
      </trkpt>
      <trkpt lat="44.98759" lon="6.03499">
        <ele>2556.6000976562</ele>
        <time>2021-03-21T10:38:15.000Z</time>
      </trkpt>
      <trkpt lat="44.98759" lon="6.03499">
        <ele>2556.6000976562</ele>
        <time>2021-03-21T10:38:16.000Z</time>
      </trkpt>
      <trkpt lat="44.98759" lon="6.035">
        <ele>2557</ele>
        <time>2021-03-21T10:38:17.000Z</time>
      </trkpt>
      <trkpt lat="44.98759" lon="6.03501">
        <ele>2557.1999511719</ele>
        <time>2021-03-21T10:38:18.000Z</time>
      </trkpt>
      <trkpt lat="44.98758" lon="6.03502">
        <ele>2557.3999023438</ele>
        <time>2021-03-21T10:38:19.000Z</time>
      </trkpt>
      <trkpt lat="44.98758" lon="6.03502">
        <ele>2557.8000488281</ele>
        <time>2021-03-21T10:38:20.000Z</time>
      </trkpt>
      <trkpt lat="44.98758" lon="6.03503">
        <ele>2558</ele>
        <time>2021-03-21T10:38:21.000Z</time>
      </trkpt>
      <trkpt lat="44.98757" lon="6.03504">
        <ele>2558.3999023438</ele>
        <time>2021-03-21T10:38:22.000Z</time>
      </trkpt>
      <trkpt lat="44.98757" lon="6.03504">
        <ele>2558.6000976562</ele>
        <time>2021-03-21T10:38:23.000Z</time>
      </trkpt>
      <trkpt lat="44.98757" lon="6.03505">
        <ele>2559</ele>
        <time>2021-03-21T10:38:24.000Z</time>
      </trkpt>
      <trkpt lat="44.98757" lon="6.03505">
        <ele>2559.1999511719</ele>
        <time>2021-03-21T10:38:25.000Z</time>
      </trkpt>
      <trkpt lat="44.98756" lon="6.03507">
        <ele>2559.8000488281</ele>
        <time>2021-03-21T10:38:26.000Z</time>
      </trkpt>
      <trkpt lat="44.98756" lon="6.03507">
        <ele>2560</ele>
        <time>2021-03-21T10:38:27.000Z</time>
      </trkpt>
      <trkpt lat="44.98755" lon="6.03508">
        <ele>2560.3999023438</ele>
        <time>2021-03-21T10:38:28.000Z</time>
      </trkpt>
      <trkpt lat="44.98755" lon="6.03508">
        <ele>2560.8000488281</ele>
        <time>2021-03-21T10:38:29.000Z</time>
      </trkpt>
      <trkpt lat="44.98754" lon="6.03509">
        <ele>2561.1999511719</ele>
        <time>2021-03-21T10:38:30.000Z</time>
      </trkpt>
      <trkpt lat="44.98754" lon="6.0351">
        <ele>2561.3999023438</ele>
        <time>2021-03-21T10:38:31.000Z</time>
      </trkpt>
      <trkpt lat="44.98754" lon="6.0351">
        <ele>2561.8000488281</ele>
        <time>2021-03-21T10:38:32.000Z</time>
      </trkpt>
      <trkpt lat="44.98753" lon="6.03511">
        <ele>2562.1999511719</ele>
        <time>2021-03-21T10:38:33.000Z</time>
      </trkpt>
      <trkpt lat="44.98753" lon="6.03511">
        <ele>2562.6000976562</ele>
        <time>2021-03-21T10:38:34.000Z</time>
      </trkpt>
      <trkpt lat="44.98752" lon="6.03512">
        <ele>2563</ele>
        <time>2021-03-21T10:38:35.000Z</time>
      </trkpt>
      <trkpt lat="44.98752" lon="6.03512">
        <ele>2563.1999511719</ele>
        <time>2021-03-21T10:38:36.000Z</time>
      </trkpt>
      <trkpt lat="44.98751" lon="6.03513">
        <ele>2563.8000488281</ele>
        <time>2021-03-21T10:38:37.000Z</time>
      </trkpt>
      <trkpt lat="44.98751" lon="6.03514">
        <ele>2564</ele>
        <time>2021-03-21T10:38:38.000Z</time>
      </trkpt>
      <trkpt lat="44.98751" lon="6.03514">
        <ele>2564.3999023438</ele>
        <time>2021-03-21T10:38:39.000Z</time>
      </trkpt>
      <trkpt lat="44.9875" lon="6.03515">
        <ele>2564.6000976562</ele>
        <time>2021-03-21T10:38:40.000Z</time>
      </trkpt>
      <trkpt lat="44.9875" lon="6.03516">
        <ele>2564.8000488281</ele>
        <time>2021-03-21T10:38:41.000Z</time>
      </trkpt>
      <trkpt lat="44.9875" lon="6.03516">
        <ele>2564.8000488281</ele>
        <time>2021-03-21T10:38:42.000Z</time>
      </trkpt>
      <trkpt lat="44.9875" lon="6.03517">
        <ele>2565</ele>
        <time>2021-03-21T10:38:43.000Z</time>
      </trkpt>
      <trkpt lat="44.98749" lon="6.03517">
        <ele>2565.1999511719</ele>
        <time>2021-03-21T10:38:44.000Z</time>
      </trkpt>
      <trkpt lat="44.98749" lon="6.03518">
        <ele>2565.1999511719</ele>
        <time>2021-03-21T10:38:45.000Z</time>
      </trkpt>
      <trkpt lat="44.98748" lon="6.03519">
        <ele>2565.6000976562</ele>
        <time>2021-03-21T10:38:46.000Z</time>
      </trkpt>
      <trkpt lat="44.98748" lon="6.03519">
        <ele>2565.6000976562</ele>
        <time>2021-03-21T10:38:47.000Z</time>
      </trkpt>
      <trkpt lat="44.98748" lon="6.0352">
        <ele>2566</ele>
        <time>2021-03-21T10:38:48.000Z</time>
      </trkpt>
      <trkpt lat="44.98747" lon="6.03521">
        <ele>2566.1999511719</ele>
        <time>2021-03-21T10:38:49.000Z</time>
      </trkpt>
      <trkpt lat="44.98747" lon="6.03521">
        <ele>2566.3999023438</ele>
        <time>2021-03-21T10:38:50.000Z</time>
      </trkpt>
      <trkpt lat="44.98747" lon="6.03522">
        <ele>2566.3999023438</ele>
        <time>2021-03-21T10:38:51.000Z</time>
      </trkpt>
      <trkpt lat="44.98746" lon="6.03523">
        <ele>2566.6000976562</ele>
        <time>2021-03-21T10:38:52.000Z</time>
      </trkpt>
      <trkpt lat="44.98746" lon="6.03523">
        <ele>2566.8000488281</ele>
        <time>2021-03-21T10:38:53.000Z</time>
      </trkpt>
      <trkpt lat="44.98746" lon="6.03524">
        <ele>2566.8000488281</ele>
        <time>2021-03-21T10:38:54.000Z</time>
      </trkpt>
      <trkpt lat="44.98745" lon="6.03525">
        <ele>2567.1999511719</ele>
        <time>2021-03-21T10:38:55.000Z</time>
      </trkpt>
      <trkpt lat="44.98745" lon="6.03525">
        <ele>2567.1999511719</ele>
        <time>2021-03-21T10:38:56.000Z</time>
      </trkpt>
      <trkpt lat="44.98745" lon="6.03526">
        <ele>2567.3999023438</ele>
        <time>2021-03-21T10:38:57.000Z</time>
      </trkpt>
      <trkpt lat="44.98745" lon="6.03526">
        <ele>2567.3999023438</ele>
        <time>2021-03-21T10:38:58.000Z</time>
      </trkpt>
      <trkpt lat="44.98745" lon="6.03527">
        <ele>2567.3999023438</ele>
        <time>2021-03-21T10:38:59.000Z</time>
      </trkpt>
      <trkpt lat="44.98745" lon="6.03528">
        <ele>2567.3999023438</ele>
        <time>2021-03-21T10:39:00.000Z</time>
      </trkpt>
      <trkpt lat="44.98744" lon="6.03529">
        <ele>2567.6000976562</ele>
        <time>2021-03-21T10:39:01.000Z</time>
      </trkpt>
      <trkpt lat="44.98744" lon="6.03529">
        <ele>2567.6000976562</ele>
        <time>2021-03-21T10:39:02.000Z</time>
      </trkpt>
      <trkpt lat="44.98744" lon="6.0353">
        <ele>2567.6000976562</ele>
        <time>2021-03-21T10:39:03.000Z</time>
      </trkpt>
      <trkpt lat="44.98744" lon="6.0353">
        <ele>2567.6000976562</ele>
        <time>2021-03-21T10:39:04.000Z</time>
      </trkpt>
      <trkpt lat="44.98744" lon="6.03531">
        <ele>2567.8000488281</ele>
        <time>2021-03-21T10:39:05.000Z</time>
      </trkpt>
      <trkpt lat="44.98743" lon="6.03532">
        <ele>2567.8000488281</ele>
        <time>2021-03-21T10:39:06.000Z</time>
      </trkpt>
      <trkpt lat="44.98743" lon="6.03533">
        <ele>2568</ele>
        <time>2021-03-21T10:39:07.000Z</time>
      </trkpt>
      <trkpt lat="44.98743" lon="6.03533">
        <ele>2568</ele>
        <time>2021-03-21T10:39:08.000Z</time>
      </trkpt>
      <trkpt lat="44.98743" lon="6.03535">
        <ele>2568.1999511719</ele>
        <time>2021-03-21T10:39:09.000Z</time>
      </trkpt>
      <trkpt lat="44.98743" lon="6.03535">
        <ele>2568.1999511719</ele>
        <time>2021-03-21T10:39:10.000Z</time>
      </trkpt>
      <trkpt lat="44.98743" lon="6.03536">
        <ele>2568</ele>
        <time>2021-03-21T10:39:11.000Z</time>
      </trkpt>
      <trkpt lat="44.98743" lon="6.03536">
        <ele>2568</ele>
        <time>2021-03-21T10:39:12.000Z</time>
      </trkpt>
      <trkpt lat="44.98742" lon="6.03538">
        <ele>2568.3999023438</ele>
        <time>2021-03-21T10:39:13.000Z</time>
      </trkpt>
      <trkpt lat="44.98742" lon="6.03538">
        <ele>2568.1999511719</ele>
        <time>2021-03-21T10:39:14.000Z</time>
      </trkpt>
      <trkpt lat="44.98742" lon="6.03539">
        <ele>2568.3999023438</ele>
        <time>2021-03-21T10:39:15.000Z</time>
      </trkpt>
      <trkpt lat="44.98742" lon="6.0354">
        <ele>2568.1999511719</ele>
        <time>2021-03-21T10:39:16.000Z</time>
      </trkpt>
      <trkpt lat="44.98742" lon="6.03541">
        <ele>2568</ele>
        <time>2021-03-21T10:39:17.000Z</time>
      </trkpt>
      <trkpt lat="44.98742" lon="6.03541">
        <ele>2568</ele>
        <time>2021-03-21T10:39:18.000Z</time>
      </trkpt>
      <trkpt lat="44.98742" lon="6.03542">
        <ele>2568.1999511719</ele>
        <time>2021-03-21T10:39:19.000Z</time>
      </trkpt>
      <trkpt lat="44.98742" lon="6.03543">
        <ele>2568</ele>
        <time>2021-03-21T10:39:20.000Z</time>
      </trkpt>
      <trkpt lat="44.98742" lon="6.03543">
        <ele>2568.1999511719</ele>
        <time>2021-03-21T10:39:21.000Z</time>
      </trkpt>
      <trkpt lat="44.98741" lon="6.03544">
        <ele>2568.1999511719</ele>
        <time>2021-03-21T10:39:22.000Z</time>
      </trkpt>
      <trkpt lat="44.98741" lon="6.03545">
        <ele>2568.1999511719</ele>
        <time>2021-03-21T10:39:23.000Z</time>
      </trkpt>
      <trkpt lat="44.98741" lon="6.03545">
        <ele>2568.6000976562</ele>
        <time>2021-03-21T10:39:24.000Z</time>
      </trkpt>
      <trkpt lat="44.98741" lon="6.03545">
        <ele>2568.8000488281</ele>
        <time>2021-03-21T10:39:25.000Z</time>
      </trkpt>
      <trkpt lat="44.9874" lon="6.03545">
        <ele>2569</ele>
        <time>2021-03-21T10:39:26.000Z</time>
      </trkpt>
      <trkpt lat="44.98741" lon="6.03545">
        <ele>2568.8000488281</ele>
        <time>2021-03-21T10:39:27.000Z</time>
      </trkpt>
      <trkpt lat="44.98741" lon="6.03545">
        <ele>2568.8000488281</ele>
        <time>2021-03-21T10:39:28.000Z</time>
      </trkpt>
      <trkpt lat="44.98741" lon="6.03545">
        <ele>2568.6000976562</ele>
        <time>2021-03-21T10:39:29.000Z</time>
      </trkpt>
      <trkpt lat="44.98741" lon="6.03544">
        <ele>2568.8000488281</ele>
        <time>2021-03-21T10:39:30.000Z</time>
      </trkpt>
      <trkpt lat="44.9874" lon="6.03544">
        <ele>2569.1999511719</ele>
        <time>2021-03-21T10:39:31.000Z</time>
      </trkpt>
      <trkpt lat="44.9874" lon="6.03543">
        <ele>2569.3999023438</ele>
        <time>2021-03-21T10:39:32.000Z</time>
      </trkpt>
      <trkpt lat="44.9874" lon="6.03544">
        <ele>2569.3999023438</ele>
        <time>2021-03-21T10:39:33.000Z</time>
      </trkpt>
      <trkpt lat="44.9874" lon="6.03544">
        <ele>2569.1999511719</ele>
        <time>2021-03-21T10:39:34.000Z</time>
      </trkpt>
      <trkpt lat="44.98739" lon="6.03544">
        <ele>2569.6000976562</ele>
        <time>2021-03-21T10:39:35.000Z</time>
      </trkpt>
      <trkpt lat="44.9874" lon="6.03544">
        <ele>2569.1999511719</ele>
        <time>2021-03-21T10:39:36.000Z</time>
      </trkpt>
      <trkpt lat="44.9874" lon="6.03545">
        <ele>2569</ele>
        <time>2021-03-21T10:39:37.000Z</time>
      </trkpt>
      <trkpt lat="44.9874" lon="6.03545">
        <ele>2569</ele>
        <time>2021-03-21T10:39:38.000Z</time>
      </trkpt>
      <trkpt lat="44.98741" lon="6.03545">
        <ele>2568.8000488281</ele>
        <time>2021-03-21T10:39:39.000Z</time>
      </trkpt>
      <trkpt lat="44.98741" lon="6.03545">
        <ele>2568.8000488281</ele>
        <time>2021-03-21T10:39:40.000Z</time>
      </trkpt>
      <trkpt lat="44.98741" lon="6.03545">
        <ele>2568.6000976562</ele>
        <time>2021-03-21T10:39:41.000Z</time>
      </trkpt>
      <trkpt lat="44.98741" lon="6.03545">
        <ele>2568.6000976562</ele>
        <time>2021-03-21T10:39:42.000Z</time>
      </trkpt>
      <trkpt lat="44.98741" lon="6.03545">
        <ele>2568.3999023438</ele>
        <time>2021-03-21T10:39:43.000Z</time>
      </trkpt>
      <trkpt lat="44.98741" lon="6.03545">
        <ele>2568.1999511719</ele>
        <time>2021-03-21T10:39:44.000Z</time>
      </trkpt>
      <trkpt lat="44.98742" lon="6.03546">
        <ele>2568.1999511719</ele>
        <time>2021-03-21T10:39:45.000Z</time>
      </trkpt>
      <trkpt lat="44.98741" lon="6.03546">
        <ele>2568.1999511719</ele>
        <time>2021-03-21T10:39:46.000Z</time>
      </trkpt>
      <trkpt lat="44.98741" lon="6.03546">
        <ele>2568.1999511719</ele>
        <time>2021-03-21T10:39:47.000Z</time>
      </trkpt>
      <trkpt lat="44.98742" lon="6.03546">
        <ele>2568.1999511719</ele>
        <time>2021-03-21T10:39:48.000Z</time>
      </trkpt>
      <trkpt lat="44.98742" lon="6.03546">
        <ele>2567.8000488281</ele>
        <time>2021-03-21T10:39:49.000Z</time>
      </trkpt>
      <trkpt lat="44.98742" lon="6.03546">
        <ele>2567.8000488281</ele>
        <time>2021-03-21T10:39:50.000Z</time>
      </trkpt>
      <trkpt lat="44.98742" lon="6.03546">
        <ele>2567.8000488281</ele>
        <time>2021-03-21T10:39:51.000Z</time>
      </trkpt>
      <trkpt lat="44.98742" lon="6.03547">
        <ele>2568</ele>
        <time>2021-03-21T10:39:52.000Z</time>
      </trkpt>
      <trkpt lat="44.98742" lon="6.03546">
        <ele>2567.8000488281</ele>
        <time>2021-03-21T10:39:53.000Z</time>
      </trkpt>
      <trkpt lat="44.98742" lon="6.03547">
        <ele>2567.6000976562</ele>
        <time>2021-03-21T10:39:54.000Z</time>
      </trkpt>
      <trkpt lat="44.98742" lon="6.03547">
        <ele>2567.8000488281</ele>
        <time>2021-03-21T10:39:55.000Z</time>
      </trkpt>
      <trkpt lat="44.98742" lon="6.03547">
        <ele>2567.8000488281</ele>
        <time>2021-03-21T10:39:56.000Z</time>
      </trkpt>
      <trkpt lat="44.98742" lon="6.03546">
        <ele>2568</ele>
        <time>2021-03-21T10:39:57.000Z</time>
      </trkpt>
      <trkpt lat="44.98742" lon="6.03546">
        <ele>2568.1999511719</ele>
        <time>2021-03-21T10:39:58.000Z</time>
      </trkpt>
      <trkpt lat="44.98742" lon="6.03546">
        <ele>2568</ele>
        <time>2021-03-21T10:39:59.000Z</time>
      </trkpt>
      <trkpt lat="44.98742" lon="6.03546">
        <ele>2567.8000488281</ele>
        <time>2021-03-21T10:40:00.000Z</time>
      </trkpt>
      <trkpt lat="44.98742" lon="6.03546">
        <ele>2567.8000488281</ele>
        <time>2021-03-21T10:40:01.000Z</time>
      </trkpt>
      <trkpt lat="44.98742" lon="6.03546">
        <ele>2568</ele>
        <time>2021-03-21T10:40:02.000Z</time>
      </trkpt>
      <trkpt lat="44.98742" lon="6.03546">
        <ele>2567.8000488281</ele>
        <time>2021-03-21T10:40:03.000Z</time>
      </trkpt>
      <trkpt lat="44.98743" lon="6.03546">
        <ele>2567.6000976562</ele>
        <time>2021-03-21T10:40:04.000Z</time>
      </trkpt>
      <trkpt lat="44.98743" lon="6.03545">
        <ele>2567.3999023438</ele>
        <time>2021-03-21T10:40:05.000Z</time>
      </trkpt>
      <trkpt lat="44.98743" lon="6.03545">
        <ele>2567.1999511719</ele>
        <time>2021-03-21T10:40:06.000Z</time>
      </trkpt>
      <trkpt lat="44.98743" lon="6.03545">
        <ele>2567</ele>
        <time>2021-03-21T10:40:07.000Z</time>
      </trkpt>
      <trkpt lat="44.98744" lon="6.03545">
        <ele>2566.8000488281</ele>
        <time>2021-03-21T10:40:08.000Z</time>
      </trkpt>
      <trkpt lat="44.98744" lon="6.03545">
        <ele>2566.6000976562</ele>
        <time>2021-03-21T10:40:09.000Z</time>
      </trkpt>
      <trkpt lat="44.98744" lon="6.03545">
        <ele>2566.3999023438</ele>
        <time>2021-03-21T10:40:10.000Z</time>
      </trkpt>
      <trkpt lat="44.98745" lon="6.03545">
        <ele>2566.1999511719</ele>
        <time>2021-03-21T10:40:11.000Z</time>
      </trkpt>
      <trkpt lat="44.98745" lon="6.03545">
        <ele>2566.1999511719</ele>
        <time>2021-03-21T10:40:12.000Z</time>
      </trkpt>
      <trkpt lat="44.98745" lon="6.03545">
        <ele>2566</ele>
        <time>2021-03-21T10:40:13.000Z</time>
      </trkpt>
      <trkpt lat="44.98745" lon="6.03545">
        <ele>2566</ele>
        <time>2021-03-21T10:40:14.000Z</time>
      </trkpt>
      <trkpt lat="44.98745" lon="6.03545">
        <ele>2566</ele>
        <time>2021-03-21T10:40:15.000Z</time>
      </trkpt>
      <trkpt lat="44.98745" lon="6.03545">
        <ele>2566.1999511719</ele>
        <time>2021-03-21T10:40:16.000Z</time>
      </trkpt>
      <trkpt lat="44.98745" lon="6.03545">
        <ele>2566.1999511719</ele>
        <time>2021-03-21T10:40:17.000Z</time>
      </trkpt>
      <trkpt lat="44.98745" lon="6.03545">
        <ele>2566.1999511719</ele>
        <time>2021-03-21T10:40:18.000Z</time>
      </trkpt>
      <trkpt lat="44.98745" lon="6.03545">
        <ele>2566.1999511719</ele>
        <time>2021-03-21T10:40:19.000Z</time>
      </trkpt>
      <trkpt lat="44.98745" lon="6.03545">
        <ele>2566</ele>
        <time>2021-03-21T10:40:20.000Z</time>
      </trkpt>
      <trkpt lat="44.98745" lon="6.03545">
        <ele>2565.8000488281</ele>
        <time>2021-03-21T10:40:21.000Z</time>
      </trkpt>
      <trkpt lat="44.98745" lon="6.03545">
        <ele>2565.8000488281</ele>
        <time>2021-03-21T10:40:22.000Z</time>
      </trkpt>
      <trkpt lat="44.98746" lon="6.03545">
        <ele>2565.6000976562</ele>
        <time>2021-03-21T10:40:23.000Z</time>
      </trkpt>
      <trkpt lat="44.98746" lon="6.03545">
        <ele>2565.6000976562</ele>
        <time>2021-03-21T10:40:24.000Z</time>
      </trkpt>
      <trkpt lat="44.98746" lon="6.03545">
        <ele>2565.1999511719</ele>
        <time>2021-03-21T10:40:25.000Z</time>
      </trkpt>
      <trkpt lat="44.98746" lon="6.03545">
        <ele>2565.3999023438</ele>
        <time>2021-03-21T10:40:26.000Z</time>
      </trkpt>
      <trkpt lat="44.98746" lon="6.03545">
        <ele>2565.1999511719</ele>
        <time>2021-03-21T10:40:27.000Z</time>
      </trkpt>
      <trkpt lat="44.98746" lon="6.03545">
        <ele>2565.1999511719</ele>
        <time>2021-03-21T10:40:28.000Z</time>
      </trkpt>
      <trkpt lat="44.98746" lon="6.03545">
        <ele>2565.1999511719</ele>
        <time>2021-03-21T10:40:29.000Z</time>
      </trkpt>
      <trkpt lat="44.98746" lon="6.03545">
        <ele>2565.3999023438</ele>
        <time>2021-03-21T10:40:30.000Z</time>
      </trkpt>
      <trkpt lat="44.98746" lon="6.03545">
        <ele>2565.6000976562</ele>
        <time>2021-03-21T10:40:31.000Z</time>
      </trkpt>
      <trkpt lat="44.98746" lon="6.03545">
        <ele>2565.3999023438</ele>
        <time>2021-03-21T10:40:32.000Z</time>
      </trkpt>
      <trkpt lat="44.98746" lon="6.03545">
        <ele>2565.3999023438</ele>
        <time>2021-03-21T10:40:33.000Z</time>
      </trkpt>
      <trkpt lat="44.98747" lon="6.03545">
        <ele>2564.8000488281</ele>
        <time>2021-03-21T10:40:34.000Z</time>
      </trkpt>
      <trkpt lat="44.98747" lon="6.03545">
        <ele>2564.6000976562</ele>
        <time>2021-03-21T10:40:35.000Z</time>
      </trkpt>
      <trkpt lat="44.98747" lon="6.03544">
        <ele>2564.3999023438</ele>
        <time>2021-03-21T10:40:36.000Z</time>
      </trkpt>
      <trkpt lat="44.98748" lon="6.03543">
        <ele>2564</ele>
        <time>2021-03-21T10:40:37.000Z</time>
      </trkpt>
      <trkpt lat="44.98748" lon="6.03544">
        <ele>2564.1999511719</ele>
        <time>2021-03-21T10:40:38.000Z</time>
      </trkpt>
      <trkpt lat="44.98748" lon="6.03544">
        <ele>2564.1999511719</ele>
        <time>2021-03-21T10:40:39.000Z</time>
      </trkpt>
      <trkpt lat="44.98748" lon="6.03544">
        <ele>2564.1999511719</ele>
        <time>2021-03-21T10:40:40.000Z</time>
      </trkpt>
      <trkpt lat="44.98748" lon="6.03544">
        <ele>2564.1999511719</ele>
        <time>2021-03-21T10:40:41.000Z</time>
      </trkpt>
      <trkpt lat="44.98748" lon="6.03544">
        <ele>2564.3999023438</ele>
        <time>2021-03-21T10:40:42.000Z</time>
      </trkpt>
      <trkpt lat="44.98747" lon="6.03543">
        <ele>2564.6000976562</ele>
        <time>2021-03-21T10:40:43.000Z</time>
      </trkpt>
      <trkpt lat="44.98747" lon="6.03543">
        <ele>2564.3999023438</ele>
        <time>2021-03-21T10:40:44.000Z</time>
      </trkpt>
      <trkpt lat="44.98747" lon="6.03543">
        <ele>2564.6000976562</ele>
        <time>2021-03-21T10:40:45.000Z</time>
      </trkpt>
      <trkpt lat="44.98747" lon="6.03543">
        <ele>2564.6000976562</ele>
        <time>2021-03-21T10:40:46.000Z</time>
      </trkpt>
      <trkpt lat="44.98748" lon="6.03543">
        <ele>2564.3999023438</ele>
        <time>2021-03-21T10:40:47.000Z</time>
      </trkpt>
      <trkpt lat="44.98748" lon="6.03543">
        <ele>2564.1999511719</ele>
        <time>2021-03-21T10:40:48.000Z</time>
      </trkpt>
      <trkpt lat="44.98747" lon="6.03544">
        <ele>2564.3999023438</ele>
        <time>2021-03-21T10:40:49.000Z</time>
      </trkpt>
      <trkpt lat="44.98747" lon="6.03544">
        <ele>2564.6000976562</ele>
        <time>2021-03-21T10:40:50.000Z</time>
      </trkpt>
      <trkpt lat="44.98747" lon="6.03544">
        <ele>2564.6000976562</ele>
        <time>2021-03-21T10:40:51.000Z</time>
      </trkpt>
      <trkpt lat="44.98747" lon="6.03544">
        <ele>2564.6000976562</ele>
        <time>2021-03-21T10:40:52.000Z</time>
      </trkpt>
      <trkpt lat="44.98747" lon="6.03544">
        <ele>2564.3999023438</ele>
        <time>2021-03-21T10:40:53.000Z</time>
      </trkpt>
      <trkpt lat="44.98747" lon="6.03544">
        <ele>2564.6000976562</ele>
        <time>2021-03-21T10:40:54.000Z</time>
      </trkpt>
      <trkpt lat="44.98747" lon="6.03544">
        <ele>2564.6000976562</ele>
        <time>2021-03-21T10:40:55.000Z</time>
      </trkpt>
      <trkpt lat="44.98747" lon="6.03543">
        <ele>2564.8000488281</ele>
        <time>2021-03-21T10:40:56.000Z</time>
      </trkpt>
      <trkpt lat="44.98747" lon="6.03543">
        <ele>2564.8000488281</ele>
        <time>2021-03-21T10:40:57.000Z</time>
      </trkpt>
      <trkpt lat="44.98747" lon="6.03543">
        <ele>2564.8000488281</ele>
        <time>2021-03-21T10:40:58.000Z</time>
      </trkpt>
      <trkpt lat="44.98747" lon="6.03543">
        <ele>2564.8000488281</ele>
        <time>2021-03-21T10:40:59.000Z</time>
      </trkpt>
      <trkpt lat="44.98747" lon="6.03543">
        <ele>2564.8000488281</ele>
        <time>2021-03-21T10:41:00.000Z</time>
      </trkpt>
      <trkpt lat="44.98747" lon="6.03543">
        <ele>2565</ele>
        <time>2021-03-21T10:41:01.000Z</time>
      </trkpt>
      <trkpt lat="44.98747" lon="6.03543">
        <ele>2565</ele>
        <time>2021-03-21T10:41:02.000Z</time>
      </trkpt>
      <trkpt lat="44.98747" lon="6.03543">
        <ele>2565</ele>
        <time>2021-03-21T10:41:03.000Z</time>
      </trkpt>
      <trkpt lat="44.98747" lon="6.03543">
        <ele>2564.8000488281</ele>
        <time>2021-03-21T10:41:04.000Z</time>
      </trkpt>
      <trkpt lat="44.98747" lon="6.03543">
        <ele>2564.8000488281</ele>
        <time>2021-03-21T10:41:05.000Z</time>
      </trkpt>
      <trkpt lat="44.98747" lon="6.03543">
        <ele>2564.8000488281</ele>
        <time>2021-03-21T10:41:06.000Z</time>
      </trkpt>
      <trkpt lat="44.98747" lon="6.03543">
        <ele>2565</ele>
        <time>2021-03-21T10:41:07.000Z</time>
      </trkpt>
      <trkpt lat="44.98747" lon="6.03543">
        <ele>2565</ele>
        <time>2021-03-21T10:41:08.000Z</time>
      </trkpt>
      <trkpt lat="44.98746" lon="6.03543">
        <ele>2565.1999511719</ele>
        <time>2021-03-21T10:41:09.000Z</time>
      </trkpt>
      <trkpt lat="44.98746" lon="6.03543">
        <ele>2565.6000976562</ele>
        <time>2021-03-21T10:41:10.000Z</time>
      </trkpt>
      <trkpt lat="44.98746" lon="6.03544">
        <ele>2565.6000976562</ele>
        <time>2021-03-21T10:41:11.000Z</time>
      </trkpt>
      <trkpt lat="44.98745" lon="6.03544">
        <ele>2565.8000488281</ele>
        <time>2021-03-21T10:41:12.000Z</time>
      </trkpt>
      <trkpt lat="44.98745" lon="6.03544">
        <ele>2566</ele>
        <time>2021-03-21T10:41:13.000Z</time>
      </trkpt>
      <trkpt lat="44.98745" lon="6.03544">
        <ele>2565.8000488281</ele>
        <time>2021-03-21T10:41:14.000Z</time>
      </trkpt>
      <trkpt lat="44.98745" lon="6.03544">
        <ele>2565.8000488281</ele>
        <time>2021-03-21T10:41:15.000Z</time>
      </trkpt>
      <trkpt lat="44.98746" lon="6.03544">
        <ele>2565.6000976562</ele>
        <time>2021-03-21T10:41:16.000Z</time>
      </trkpt>
      <trkpt lat="44.98746" lon="6.03544">
        <ele>2565.6000976562</ele>
        <time>2021-03-21T10:41:17.000Z</time>
      </trkpt>
      <trkpt lat="44.98746" lon="6.03544">
        <ele>2565.3999023438</ele>
        <time>2021-03-21T10:41:18.000Z</time>
      </trkpt>
      <trkpt lat="44.98746" lon="6.03544">
        <ele>2565.1999511719</ele>
        <time>2021-03-21T10:41:19.000Z</time>
      </trkpt>
      <trkpt lat="44.98746" lon="6.03544">
        <ele>2565.3999023438</ele>
        <time>2021-03-21T10:41:20.000Z</time>
      </trkpt>
      <trkpt lat="44.98746" lon="6.03544">
        <ele>2565.1999511719</ele>
        <time>2021-03-21T10:41:21.000Z</time>
      </trkpt>
      <trkpt lat="44.98746" lon="6.03544">
        <ele>2565.1999511719</ele>
        <time>2021-03-21T10:41:22.000Z</time>
      </trkpt>
      <trkpt lat="44.98746" lon="6.03544">
        <ele>2565.1999511719</ele>
        <time>2021-03-21T10:41:23.000Z</time>
      </trkpt>
      <trkpt lat="44.98746" lon="6.03544">
        <ele>2565</ele>
        <time>2021-03-21T10:41:24.000Z</time>
      </trkpt>
      <trkpt lat="44.98746" lon="6.03544">
        <ele>2565</ele>
        <time>2021-03-21T10:41:25.000Z</time>
      </trkpt>
      <trkpt lat="44.98746" lon="6.03544">
        <ele>2565.3999023438</ele>
        <time>2021-03-21T10:41:26.000Z</time>
      </trkpt>
      <trkpt lat="44.98746" lon="6.03545">
        <ele>2565.1999511719</ele>
        <time>2021-03-21T10:41:27.000Z</time>
      </trkpt>
      <trkpt lat="44.98746" lon="6.03544">
        <ele>2565.1999511719</ele>
        <time>2021-03-21T10:41:28.000Z</time>
      </trkpt>
      <trkpt lat="44.98746" lon="6.03544">
        <ele>2565.1999511719</ele>
        <time>2021-03-21T10:41:29.000Z</time>
      </trkpt>
      <trkpt lat="44.98746" lon="6.03544">
        <ele>2565.1999511719</ele>
        <time>2021-03-21T10:41:30.000Z</time>
      </trkpt>
      <trkpt lat="44.98746" lon="6.03544">
        <ele>2565.1999511719</ele>
        <time>2021-03-21T10:41:31.000Z</time>
      </trkpt>
      <trkpt lat="44.98746" lon="6.03544">
        <ele>2565.1999511719</ele>
        <time>2021-03-21T10:41:32.000Z</time>
      </trkpt>
      <trkpt lat="44.98746" lon="6.03544">
        <ele>2565.1999511719</ele>
        <time>2021-03-21T10:41:33.000Z</time>
      </trkpt>
      <trkpt lat="44.98746" lon="6.03544">
        <ele>2565.1999511719</ele>
        <time>2021-03-21T10:41:34.000Z</time>
      </trkpt>
      <trkpt lat="44.98746" lon="6.03544">
        <ele>2565.1999511719</ele>
        <time>2021-03-21T10:41:35.000Z</time>
      </trkpt>
      <trkpt lat="44.98746" lon="6.03544">
        <ele>2565.1999511719</ele>
        <time>2021-03-21T10:41:36.000Z</time>
      </trkpt>
      <trkpt lat="44.98746" lon="6.03544">
        <ele>2565.3999023438</ele>
        <time>2021-03-21T10:41:37.000Z</time>
      </trkpt>
      <trkpt lat="44.98746" lon="6.03544">
        <ele>2565.3999023438</ele>
        <time>2021-03-21T10:41:38.000Z</time>
      </trkpt>
      <trkpt lat="44.98746" lon="6.03544">
        <ele>2565.3999023438</ele>
        <time>2021-03-21T10:41:39.000Z</time>
      </trkpt>
      <trkpt lat="44.98746" lon="6.03544">
        <ele>2565.6000976562</ele>
        <time>2021-03-21T10:41:40.000Z</time>
      </trkpt>
      <trkpt lat="44.98746" lon="6.03544">
        <ele>2565.6000976562</ele>
        <time>2021-03-21T10:41:41.000Z</time>
      </trkpt>
      <trkpt lat="44.98746" lon="6.03545">
        <ele>2565.3999023438</ele>
        <time>2021-03-21T10:41:42.000Z</time>
      </trkpt>
      <trkpt lat="44.98745" lon="6.03545">
        <ele>2565.8000488281</ele>
        <time>2021-03-21T10:41:43.000Z</time>
      </trkpt>
      <trkpt lat="44.98745" lon="6.03545">
        <ele>2565.8000488281</ele>
        <time>2021-03-21T10:41:44.000Z</time>
      </trkpt>
      <trkpt lat="44.98745" lon="6.03545">
        <ele>2565.8000488281</ele>
        <time>2021-03-21T10:41:45.000Z</time>
      </trkpt>
      <trkpt lat="44.98745" lon="6.03545">
        <ele>2565.8000488281</ele>
        <time>2021-03-21T10:41:46.000Z</time>
      </trkpt>
      <trkpt lat="44.98745" lon="6.03545">
        <ele>2565.6000976562</ele>
        <time>2021-03-21T10:41:47.000Z</time>
      </trkpt>
      <trkpt lat="44.98746" lon="6.03545">
        <ele>2565.6000976562</ele>
        <time>2021-03-21T10:41:48.000Z</time>
      </trkpt>
      <trkpt lat="44.98746" lon="6.03545">
        <ele>2565.6000976562</ele>
        <time>2021-03-21T10:41:49.000Z</time>
      </trkpt>
      <trkpt lat="44.98746" lon="6.03545">
        <ele>2565.6000976562</ele>
        <time>2021-03-21T10:41:50.000Z</time>
      </trkpt>
      <trkpt lat="44.98746" lon="6.03545">
        <ele>2565.6000976562</ele>
        <time>2021-03-21T10:41:51.000Z</time>
      </trkpt>
      <trkpt lat="44.98746" lon="6.03545">
        <ele>2565.3999023438</ele>
        <time>2021-03-21T10:41:52.000Z</time>
      </trkpt>
      <trkpt lat="44.98746" lon="6.03545">
        <ele>2565.1999511719</ele>
        <time>2021-03-21T10:41:53.000Z</time>
      </trkpt>
      <trkpt lat="44.98746" lon="6.03545">
        <ele>2565.1999511719</ele>
        <time>2021-03-21T10:41:54.000Z</time>
      </trkpt>
      <trkpt lat="44.98746" lon="6.03545">
        <ele>2565</ele>
        <time>2021-03-21T10:41:55.000Z</time>
      </trkpt>
      <trkpt lat="44.98746" lon="6.03545">
        <ele>2565</ele>
        <time>2021-03-21T10:41:56.000Z</time>
      </trkpt>
      <trkpt lat="44.98746" lon="6.03545">
        <ele>2565</ele>
        <time>2021-03-21T10:41:57.000Z</time>
      </trkpt>
      <trkpt lat="44.98747" lon="6.03545">
        <ele>2565</ele>
        <time>2021-03-21T10:41:58.000Z</time>
      </trkpt>
      <trkpt lat="44.98747" lon="6.03545">
        <ele>2565</ele>
        <time>2021-03-21T10:41:59.000Z</time>
      </trkpt>
      <trkpt lat="44.98747" lon="6.03545">
        <ele>2564.8000488281</ele>
        <time>2021-03-21T10:42:00.000Z</time>
      </trkpt>
      <trkpt lat="44.98747" lon="6.03544">
        <ele>2564.8000488281</ele>
        <time>2021-03-21T10:42:01.000Z</time>
      </trkpt>
      <trkpt lat="44.98747" lon="6.03544">
        <ele>2564.8000488281</ele>
        <time>2021-03-21T10:42:02.000Z</time>
      </trkpt>
      <trkpt lat="44.98747" lon="6.03544">
        <ele>2564.6000976562</ele>
        <time>2021-03-21T10:42:03.000Z</time>
      </trkpt>
      <trkpt lat="44.98747" lon="6.03544">
        <ele>2564.6000976562</ele>
        <time>2021-03-21T10:42:04.000Z</time>
      </trkpt>
      <trkpt lat="44.98747" lon="6.03544">
        <ele>2564.6000976562</ele>
        <time>2021-03-21T10:42:05.000Z</time>
      </trkpt>
      <trkpt lat="44.98747" lon="6.03545">
        <ele>2564.6000976562</ele>
        <time>2021-03-21T10:42:06.000Z</time>
      </trkpt>
      <trkpt lat="44.98747" lon="6.03545">
        <ele>2564.6000976562</ele>
        <time>2021-03-21T10:42:07.000Z</time>
      </trkpt>
      <trkpt lat="44.98747" lon="6.03545">
        <ele>2564.8000488281</ele>
        <time>2021-03-21T10:42:08.000Z</time>
      </trkpt>
      <trkpt lat="44.98747" lon="6.03545">
        <ele>2564.8000488281</ele>
        <time>2021-03-21T10:42:09.000Z</time>
      </trkpt>
      <trkpt lat="44.98747" lon="6.03544">
        <ele>2564.3999023438</ele>
        <time>2021-03-21T10:42:10.000Z</time>
      </trkpt>
      <trkpt lat="44.98747" lon="6.03544">
        <ele>2564.6000976562</ele>
        <time>2021-03-21T10:42:11.000Z</time>
      </trkpt>
      <trkpt lat="44.98747" lon="6.03544">
        <ele>2564.8000488281</ele>
        <time>2021-03-21T10:42:12.000Z</time>
      </trkpt>
      <trkpt lat="44.98747" lon="6.03544">
        <ele>2565</ele>
        <time>2021-03-21T10:42:13.000Z</time>
      </trkpt>
      <trkpt lat="44.98746" lon="6.03544">
        <ele>2565</ele>
        <time>2021-03-21T10:42:14.000Z</time>
      </trkpt>
      <trkpt lat="44.98746" lon="6.03544">
        <ele>2565.1999511719</ele>
        <time>2021-03-21T10:42:15.000Z</time>
      </trkpt>
      <trkpt lat="44.98746" lon="6.03544">
        <ele>2565.1999511719</ele>
        <time>2021-03-21T10:42:16.000Z</time>
      </trkpt>
      <trkpt lat="44.98746" lon="6.03544">
        <ele>2565.1999511719</ele>
        <time>2021-03-21T10:42:17.000Z</time>
      </trkpt>
      <trkpt lat="44.98746" lon="6.03544">
        <ele>2565.1999511719</ele>
        <time>2021-03-21T10:42:18.000Z</time>
      </trkpt>
      <trkpt lat="44.98746" lon="6.03544">
        <ele>2565</ele>
        <time>2021-03-21T10:42:19.000Z</time>
      </trkpt>
      <trkpt lat="44.98746" lon="6.03544">
        <ele>2565.1999511719</ele>
        <time>2021-03-21T10:42:20.000Z</time>
      </trkpt>
      <trkpt lat="44.98746" lon="6.03544">
        <ele>2565.3999023438</ele>
        <time>2021-03-21T10:42:21.000Z</time>
      </trkpt>
      <trkpt lat="44.98746" lon="6.03544">
        <ele>2565.1999511719</ele>
        <time>2021-03-21T10:42:22.000Z</time>
      </trkpt>
      <trkpt lat="44.98746" lon="6.03544">
        <ele>2565</ele>
        <time>2021-03-21T10:42:23.000Z</time>
      </trkpt>
      <trkpt lat="44.98746" lon="6.03544">
        <ele>2565</ele>
        <time>2021-03-21T10:42:24.000Z</time>
      </trkpt>
      <trkpt lat="44.98747" lon="6.03544">
        <ele>2564.8000488281</ele>
        <time>2021-03-21T10:42:25.000Z</time>
      </trkpt>
      <trkpt lat="44.98747" lon="6.03544">
        <ele>2564.6000976562</ele>
        <time>2021-03-21T10:42:26.000Z</time>
      </trkpt>
      <trkpt lat="44.98747" lon="6.03544">
        <ele>2564.6000976562</ele>
        <time>2021-03-21T10:42:27.000Z</time>
      </trkpt>
      <trkpt lat="44.98747" lon="6.03544">
        <ele>2564.6000976562</ele>
        <time>2021-03-21T10:42:28.000Z</time>
      </trkpt>
      <trkpt lat="44.98747" lon="6.03544">
        <ele>2564.6000976562</ele>
        <time>2021-03-21T10:42:29.000Z</time>
      </trkpt>
      <trkpt lat="44.98747" lon="6.03544">
        <ele>2564.3999023438</ele>
        <time>2021-03-21T10:42:30.000Z</time>
      </trkpt>
      <trkpt lat="44.98747" lon="6.03544">
        <ele>2564.3999023438</ele>
        <time>2021-03-21T10:42:31.000Z</time>
      </trkpt>
      <trkpt lat="44.98748" lon="6.03544">
        <ele>2564.3999023438</ele>
        <time>2021-03-21T10:42:32.000Z</time>
      </trkpt>
      <trkpt lat="44.98748" lon="6.03544">
        <ele>2564.3999023438</ele>
        <time>2021-03-21T10:42:33.000Z</time>
      </trkpt>
      <trkpt lat="44.98748" lon="6.03544">
        <ele>2564.1999511719</ele>
        <time>2021-03-21T10:42:34.000Z</time>
      </trkpt>
      <trkpt lat="44.98748" lon="6.03544">
        <ele>2564.3999023438</ele>
        <time>2021-03-21T10:42:35.000Z</time>
      </trkpt>
      <trkpt lat="44.98747" lon="6.03544">
        <ele>2564.3999023438</ele>
        <time>2021-03-21T10:42:36.000Z</time>
      </trkpt>
      <trkpt lat="44.98747" lon="6.03544">
        <ele>2564.6000976562</ele>
        <time>2021-03-21T10:42:37.000Z</time>
      </trkpt>
      <trkpt lat="44.98747" lon="6.03544">
        <ele>2564.6000976562</ele>
        <time>2021-03-21T10:42:38.000Z</time>
      </trkpt>
      <trkpt lat="44.98747" lon="6.03544">
        <ele>2564.8000488281</ele>
        <time>2021-03-21T10:42:39.000Z</time>
      </trkpt>
      <trkpt lat="44.98747" lon="6.03544">
        <ele>2565</ele>
        <time>2021-03-21T10:42:40.000Z</time>
      </trkpt>
      <trkpt lat="44.98746" lon="6.03544">
        <ele>2565</ele>
        <time>2021-03-21T10:42:41.000Z</time>
      </trkpt>
      <trkpt lat="44.98746" lon="6.03544">
        <ele>2565.3999023438</ele>
        <time>2021-03-21T10:42:42.000Z</time>
      </trkpt>
      <trkpt lat="44.98746" lon="6.03545">
        <ele>2565.6000976562</ele>
        <time>2021-03-21T10:42:43.000Z</time>
      </trkpt>
      <trkpt lat="44.98745" lon="6.03545">
        <ele>2565.6000976562</ele>
        <time>2021-03-21T10:42:44.000Z</time>
      </trkpt>
      <trkpt lat="44.98746" lon="6.03544">
        <ele>2565.6000976562</ele>
        <time>2021-03-21T10:42:45.000Z</time>
      </trkpt>
      <trkpt lat="44.98746" lon="6.03544">
        <ele>2565.3999023438</ele>
        <time>2021-03-21T10:42:46.000Z</time>
      </trkpt>
      <trkpt lat="44.98746" lon="6.03544">
        <ele>2565.1999511719</ele>
        <time>2021-03-21T10:42:47.000Z</time>
      </trkpt>
      <trkpt lat="44.98746" lon="6.03544">
        <ele>2565.1999511719</ele>
        <time>2021-03-21T10:42:48.000Z</time>
      </trkpt>
      <trkpt lat="44.98747" lon="6.03544">
        <ele>2564.8000488281</ele>
        <time>2021-03-21T10:42:49.000Z</time>
      </trkpt>
      <trkpt lat="44.98747" lon="6.03544">
        <ele>2564.8000488281</ele>
        <time>2021-03-21T10:42:50.000Z</time>
      </trkpt>
      <trkpt lat="44.98747" lon="6.03544">
        <ele>2564.8000488281</ele>
        <time>2021-03-21T10:42:51.000Z</time>
      </trkpt>
      <trkpt lat="44.98747" lon="6.03544">
        <ele>2564.3999023438</ele>
        <time>2021-03-21T10:42:52.000Z</time>
      </trkpt>
      <trkpt lat="44.98748" lon="6.03544">
        <ele>2564.1999511719</ele>
        <time>2021-03-21T10:42:53.000Z</time>
      </trkpt>
      <trkpt lat="44.98748" lon="6.03544">
        <ele>2564.1999511719</ele>
        <time>2021-03-21T10:42:54.000Z</time>
      </trkpt>
      <trkpt lat="44.98748" lon="6.03544">
        <ele>2564.1999511719</ele>
        <time>2021-03-21T10:42:55.000Z</time>
      </trkpt>
      <trkpt lat="44.98748" lon="6.03544">
        <ele>2564</ele>
        <time>2021-03-21T10:42:56.000Z</time>
      </trkpt>
      <trkpt lat="44.98748" lon="6.03544">
        <ele>2563.8000488281</ele>
        <time>2021-03-21T10:42:57.000Z</time>
      </trkpt>
      <trkpt lat="44.98749" lon="6.03544">
        <ele>2563.6000976562</ele>
        <time>2021-03-21T10:42:58.000Z</time>
      </trkpt>
      <trkpt lat="44.98749" lon="6.03544">
        <ele>2563.6000976562</ele>
        <time>2021-03-21T10:42:59.000Z</time>
      </trkpt>
      <trkpt lat="44.98748" lon="6.03544">
        <ele>2563.8000488281</ele>
        <time>2021-03-21T10:43:00.000Z</time>
      </trkpt>
      <trkpt lat="44.98748" lon="6.03544">
        <ele>2563.8000488281</ele>
        <time>2021-03-21T10:43:01.000Z</time>
      </trkpt>
      <trkpt lat="44.98748" lon="6.03544">
        <ele>2564</ele>
        <time>2021-03-21T10:43:02.000Z</time>
      </trkpt>
      <trkpt lat="44.98748" lon="6.03544">
        <ele>2564</ele>
        <time>2021-03-21T10:43:03.000Z</time>
      </trkpt>
      <trkpt lat="44.98748" lon="6.03544">
        <ele>2563.8000488281</ele>
        <time>2021-03-21T10:43:04.000Z</time>
      </trkpt>
      <trkpt lat="44.98749" lon="6.03544">
        <ele>2563.6000976562</ele>
        <time>2021-03-21T10:43:05.000Z</time>
      </trkpt>
      <trkpt lat="44.98749" lon="6.03544">
        <ele>2563.3999023438</ele>
        <time>2021-03-21T10:43:06.000Z</time>
      </trkpt>
      <trkpt lat="44.98748" lon="6.03545">
        <ele>2564.1999511719</ele>
        <time>2021-03-21T10:43:07.000Z</time>
      </trkpt>
      <trkpt lat="44.98748" lon="6.03545">
        <ele>2564.1999511719</ele>
        <time>2021-03-21T10:43:08.000Z</time>
      </trkpt>
      <trkpt lat="44.98748" lon="6.03545">
        <ele>2563.8000488281</ele>
        <time>2021-03-21T10:43:09.000Z</time>
      </trkpt>
      <trkpt lat="44.98749" lon="6.03544">
        <ele>2563.6000976562</ele>
        <time>2021-03-21T10:43:10.000Z</time>
      </trkpt>
      <trkpt lat="44.98749" lon="6.03544">
        <ele>2563.6000976562</ele>
        <time>2021-03-21T10:43:11.000Z</time>
      </trkpt>
      <trkpt lat="44.98749" lon="6.03544">
        <ele>2563.6000976562</ele>
        <time>2021-03-21T10:43:12.000Z</time>
      </trkpt>
      <trkpt lat="44.98748" lon="6.03544">
        <ele>2563.8000488281</ele>
        <time>2021-03-21T10:43:13.000Z</time>
      </trkpt>
      <trkpt lat="44.98748" lon="6.03544">
        <ele>2564</ele>
        <time>2021-03-21T10:43:14.000Z</time>
      </trkpt>
      <trkpt lat="44.98748" lon="6.03544">
        <ele>2564</ele>
        <time>2021-03-21T10:43:15.000Z</time>
      </trkpt>
      <trkpt lat="44.98748" lon="6.03544">
        <ele>2564</ele>
        <time>2021-03-21T10:43:16.000Z</time>
      </trkpt>
      <trkpt lat="44.98748" lon="6.03544">
        <ele>2564</ele>
        <time>2021-03-21T10:43:17.000Z</time>
      </trkpt>
      <trkpt lat="44.98748" lon="6.03544">
        <ele>2564</ele>
        <time>2021-03-21T10:43:18.000Z</time>
      </trkpt>
      <trkpt lat="44.98748" lon="6.03543">
        <ele>2564.1999511719</ele>
        <time>2021-03-21T10:43:19.000Z</time>
      </trkpt>
      <trkpt lat="44.98748" lon="6.03544">
        <ele>2564.3999023438</ele>
        <time>2021-03-21T10:43:20.000Z</time>
      </trkpt>
      <trkpt lat="44.98748" lon="6.03543">
        <ele>2564.1999511719</ele>
        <time>2021-03-21T10:43:21.000Z</time>
      </trkpt>
      <trkpt lat="44.98748" lon="6.03543">
        <ele>2564</ele>
        <time>2021-03-21T10:43:22.000Z</time>
      </trkpt>
      <trkpt lat="44.98748" lon="6.03543">
        <ele>2564</ele>
        <time>2021-03-21T10:43:23.000Z</time>
      </trkpt>
      <trkpt lat="44.98749" lon="6.03543">
        <ele>2563.8000488281</ele>
        <time>2021-03-21T10:43:24.000Z</time>
      </trkpt>
      <trkpt lat="44.98749" lon="6.03543">
        <ele>2563.8000488281</ele>
        <time>2021-03-21T10:43:25.000Z</time>
      </trkpt>
      <trkpt lat="44.98749" lon="6.03542">
        <ele>2563.8000488281</ele>
        <time>2021-03-21T10:43:26.000Z</time>
      </trkpt>
      <trkpt lat="44.98749" lon="6.03542">
        <ele>2563.8000488281</ele>
        <time>2021-03-21T10:43:27.000Z</time>
      </trkpt>
      <trkpt lat="44.98748" lon="6.03542">
        <ele>2563.8000488281</ele>
        <time>2021-03-21T10:43:28.000Z</time>
      </trkpt>
      <trkpt lat="44.98748" lon="6.03542">
        <ele>2563.8000488281</ele>
        <time>2021-03-21T10:43:29.000Z</time>
      </trkpt>
      <trkpt lat="44.98749" lon="6.03542">
        <ele>2563.8000488281</ele>
        <time>2021-03-21T10:43:30.000Z</time>
      </trkpt>
      <trkpt lat="44.98749" lon="6.03542">
        <ele>2563.6000976562</ele>
        <time>2021-03-21T10:43:31.000Z</time>
      </trkpt>
      <trkpt lat="44.98749" lon="6.03541">
        <ele>2563.6000976562</ele>
        <time>2021-03-21T10:43:32.000Z</time>
      </trkpt>
      <trkpt lat="44.98749" lon="6.03541">
        <ele>2563.6000976562</ele>
        <time>2021-03-21T10:43:33.000Z</time>
      </trkpt>
      <trkpt lat="44.98749" lon="6.03541">
        <ele>2563.6000976562</ele>
        <time>2021-03-21T10:43:34.000Z</time>
      </trkpt>
      <trkpt lat="44.98749" lon="6.03542">
        <ele>2563.8000488281</ele>
        <time>2021-03-21T10:43:35.000Z</time>
      </trkpt>
      <trkpt lat="44.98749" lon="6.03542">
        <ele>2563.8000488281</ele>
        <time>2021-03-21T10:43:36.000Z</time>
      </trkpt>
      <trkpt lat="44.98748" lon="6.03542">
        <ele>2564.1999511719</ele>
        <time>2021-03-21T10:43:37.000Z</time>
      </trkpt>
      <trkpt lat="44.98748" lon="6.03542">
        <ele>2564.1999511719</ele>
        <time>2021-03-21T10:43:38.000Z</time>
      </trkpt>
      <trkpt lat="44.98748" lon="6.03542">
        <ele>2564.3999023438</ele>
        <time>2021-03-21T10:43:39.000Z</time>
      </trkpt>
      <trkpt lat="44.98748" lon="6.03542">
        <ele>2564.3999023438</ele>
        <time>2021-03-21T10:43:40.000Z</time>
      </trkpt>
      <trkpt lat="44.98748" lon="6.03542">
        <ele>2564.3999023438</ele>
        <time>2021-03-21T10:43:41.000Z</time>
      </trkpt>
      <trkpt lat="44.98748" lon="6.03542">
        <ele>2564.3999023438</ele>
        <time>2021-03-21T10:43:42.000Z</time>
      </trkpt>
      <trkpt lat="44.98748" lon="6.03542">
        <ele>2564.3999023438</ele>
        <time>2021-03-21T10:43:43.000Z</time>
      </trkpt>
      <trkpt lat="44.98748" lon="6.03542">
        <ele>2564</ele>
        <time>2021-03-21T10:43:44.000Z</time>
      </trkpt>
      <trkpt lat="44.98748" lon="6.03542">
        <ele>2564</ele>
        <time>2021-03-21T10:43:45.000Z</time>
      </trkpt>
      <trkpt lat="44.98748" lon="6.03542">
        <ele>2564.1999511719</ele>
        <time>2021-03-21T10:43:46.000Z</time>
      </trkpt>
      <trkpt lat="44.98748" lon="6.03542">
        <ele>2564.1999511719</ele>
        <time>2021-03-21T10:43:47.000Z</time>
      </trkpt>
      <trkpt lat="44.98748" lon="6.03542">
        <ele>2564.1999511719</ele>
        <time>2021-03-21T10:43:48.000Z</time>
      </trkpt>
      <trkpt lat="44.98748" lon="6.03542">
        <ele>2564.1999511719</ele>
        <time>2021-03-21T10:43:49.000Z</time>
      </trkpt>
      <trkpt lat="44.98747" lon="6.03543">
        <ele>2564.3999023438</ele>
        <time>2021-03-21T10:43:50.000Z</time>
      </trkpt>
      <trkpt lat="44.98747" lon="6.03543">
        <ele>2564.6000976562</ele>
        <time>2021-03-21T10:43:51.000Z</time>
      </trkpt>
      <trkpt lat="44.98747" lon="6.03543">
        <ele>2564.8000488281</ele>
        <time>2021-03-21T10:43:52.000Z</time>
      </trkpt>
      <trkpt lat="44.98747" lon="6.03543">
        <ele>2564.6000976562</ele>
        <time>2021-03-21T10:43:53.000Z</time>
      </trkpt>
      <trkpt lat="44.98748" lon="6.03543">
        <ele>2564.3999023438</ele>
        <time>2021-03-21T10:43:54.000Z</time>
      </trkpt>
      <trkpt lat="44.98748" lon="6.03543">
        <ele>2564.3999023438</ele>
        <time>2021-03-21T10:43:55.000Z</time>
      </trkpt>
      <trkpt lat="44.98748" lon="6.03543">
        <ele>2564.3999023438</ele>
        <time>2021-03-21T10:43:56.000Z</time>
      </trkpt>
      <trkpt lat="44.98748" lon="6.03543">
        <ele>2564.1999511719</ele>
        <time>2021-03-21T10:43:57.000Z</time>
      </trkpt>
      <trkpt lat="44.98748" lon="6.03543">
        <ele>2564.1999511719</ele>
        <time>2021-03-21T10:43:58.000Z</time>
      </trkpt>
      <trkpt lat="44.98747" lon="6.03543">
        <ele>2564.6000976562</ele>
        <time>2021-03-21T10:43:59.000Z</time>
      </trkpt>
      <trkpt lat="44.98747" lon="6.03543">
        <ele>2564.6000976562</ele>
        <time>2021-03-21T10:44:00.000Z</time>
      </trkpt>
      <trkpt lat="44.98747" lon="6.03543">
        <ele>2564.6000976562</ele>
        <time>2021-03-21T10:44:01.000Z</time>
      </trkpt>
      <trkpt lat="44.98747" lon="6.03543">
        <ele>2564.6000976562</ele>
        <time>2021-03-21T10:44:02.000Z</time>
      </trkpt>
      <trkpt lat="44.98748" lon="6.03543">
        <ele>2564.3999023438</ele>
        <time>2021-03-21T10:44:03.000Z</time>
      </trkpt>
      <trkpt lat="44.98747" lon="6.03543">
        <ele>2564.6000976562</ele>
        <time>2021-03-21T10:44:04.000Z</time>
      </trkpt>
      <trkpt lat="44.98747" lon="6.03543">
        <ele>2564.6000976562</ele>
        <time>2021-03-21T10:44:05.000Z</time>
      </trkpt>
      <trkpt lat="44.98747" lon="6.03543">
        <ele>2564.3999023438</ele>
        <time>2021-03-21T10:44:06.000Z</time>
      </trkpt>
      <trkpt lat="44.98747" lon="6.03543">
        <ele>2564.3999023438</ele>
        <time>2021-03-21T10:44:07.000Z</time>
      </trkpt>
      <trkpt lat="44.98747" lon="6.03543">
        <ele>2564.8000488281</ele>
        <time>2021-03-21T10:44:08.000Z</time>
      </trkpt>
      <trkpt lat="44.98747" lon="6.03543">
        <ele>2564.8000488281</ele>
        <time>2021-03-21T10:44:09.000Z</time>
      </trkpt>
      <trkpt lat="44.98746" lon="6.03542">
        <ele>2565.3999023438</ele>
        <time>2021-03-21T10:44:10.000Z</time>
      </trkpt>
      <trkpt lat="44.98746" lon="6.03542">
        <ele>2565.3999023438</ele>
        <time>2021-03-21T10:44:11.000Z</time>
      </trkpt>
      <trkpt lat="44.98746" lon="6.03541">
        <ele>2565.6000976562</ele>
        <time>2021-03-21T10:44:12.000Z</time>
      </trkpt>
      <trkpt lat="44.98745" lon="6.03541">
        <ele>2566</ele>
        <time>2021-03-21T10:44:13.000Z</time>
      </trkpt>
      <trkpt lat="44.98745" lon="6.03541">
        <ele>2566.1999511719</ele>
        <time>2021-03-21T10:44:14.000Z</time>
      </trkpt>
      <trkpt lat="44.98744" lon="6.0354">
        <ele>2566.6000976562</ele>
        <time>2021-03-21T10:44:15.000Z</time>
      </trkpt>
      <trkpt lat="44.98744" lon="6.0354">
        <ele>2567</ele>
        <time>2021-03-21T10:44:16.000Z</time>
      </trkpt>
      <trkpt lat="44.98743" lon="6.03539">
        <ele>2567.3999023438</ele>
        <time>2021-03-21T10:44:17.000Z</time>
      </trkpt>
      <trkpt lat="44.98742" lon="6.03539">
        <ele>2568.1999511719</ele>
        <time>2021-03-21T10:44:18.000Z</time>
      </trkpt>
      <trkpt lat="44.98742" lon="6.03538">
        <ele>2568.1999511719</ele>
        <time>2021-03-21T10:44:19.000Z</time>
      </trkpt>
      <trkpt lat="44.98741" lon="6.03538">
        <ele>2569</ele>
        <time>2021-03-21T10:44:20.000Z</time>
      </trkpt>
      <trkpt lat="44.9874" lon="6.03538">
        <ele>2569.3999023438</ele>
        <time>2021-03-21T10:44:21.000Z</time>
      </trkpt>
      <trkpt lat="44.9874" lon="6.03537">
        <ele>2569.8000488281</ele>
        <time>2021-03-21T10:44:22.000Z</time>
      </trkpt>
      <trkpt lat="44.98739" lon="6.03537">
        <ele>2570.3999023438</ele>
        <time>2021-03-21T10:44:23.000Z</time>
      </trkpt>
      <trkpt lat="44.98738" lon="6.03537">
        <ele>2570.8000488281</ele>
        <time>2021-03-21T10:44:24.000Z</time>
      </trkpt>
      <trkpt lat="44.98737" lon="6.03537">
        <ele>2571.8000488281</ele>
        <time>2021-03-21T10:44:25.000Z</time>
      </trkpt>
      <trkpt lat="44.98736" lon="6.03537">
        <ele>2572.3999023438</ele>
        <time>2021-03-21T10:44:26.000Z</time>
      </trkpt>
      <trkpt lat="44.98735" lon="6.03536">
        <ele>2572.8000488281</ele>
        <time>2021-03-21T10:44:27.000Z</time>
      </trkpt>
      <trkpt lat="44.98734" lon="6.03536">
        <ele>2573.1999511719</ele>
        <time>2021-03-21T10:44:28.000Z</time>
      </trkpt>
      <trkpt lat="44.98734" lon="6.03535">
        <ele>2573.3999023438</ele>
        <time>2021-03-21T10:44:29.000Z</time>
      </trkpt>
      <trkpt lat="44.98733" lon="6.03536">
        <ele>2573.8000488281</ele>
        <time>2021-03-21T10:44:30.000Z</time>
      </trkpt>
      <trkpt lat="44.98732" lon="6.03535">
        <ele>2574</ele>
        <time>2021-03-21T10:44:31.000Z</time>
      </trkpt>
      <trkpt lat="44.98731" lon="6.03535">
        <ele>2574.3999023438</ele>
        <time>2021-03-21T10:44:32.000Z</time>
      </trkpt>
      <trkpt lat="44.98731" lon="6.03535">
        <ele>2574.8000488281</ele>
        <time>2021-03-21T10:44:33.000Z</time>
      </trkpt>
      <trkpt lat="44.9873" lon="6.03534">
        <ele>2575</ele>
        <time>2021-03-21T10:44:34.000Z</time>
      </trkpt>
      <trkpt lat="44.98729" lon="6.03534">
        <ele>2575.3999023438</ele>
        <time>2021-03-21T10:44:35.000Z</time>
      </trkpt>
      <trkpt lat="44.98729" lon="6.03534">
        <ele>2575.3999023438</ele>
        <time>2021-03-21T10:44:36.000Z</time>
      </trkpt>
      <trkpt lat="44.98729" lon="6.03534">
        <ele>2575.6000976562</ele>
        <time>2021-03-21T10:44:37.000Z</time>
      </trkpt>
      <trkpt lat="44.98729" lon="6.03534">
        <ele>2575.6000976562</ele>
        <time>2021-03-21T10:44:38.000Z</time>
      </trkpt>
      <trkpt lat="44.98728" lon="6.03534">
        <ele>2576</ele>
        <time>2021-03-21T10:44:39.000Z</time>
      </trkpt>
      <trkpt lat="44.98728" lon="6.03534">
        <ele>2576</ele>
        <time>2021-03-21T10:44:40.000Z</time>
      </trkpt>
      <trkpt lat="44.98727" lon="6.03534">
        <ele>2576.3999023438</ele>
        <time>2021-03-21T10:44:41.000Z</time>
      </trkpt>
      <trkpt lat="44.98727" lon="6.03533">
        <ele>2576.3999023438</ele>
        <time>2021-03-21T10:44:42.000Z</time>
      </trkpt>
      <trkpt lat="44.98726" lon="6.03533">
        <ele>2576.8000488281</ele>
        <time>2021-03-21T10:44:43.000Z</time>
      </trkpt>
      <trkpt lat="44.98726" lon="6.03533">
        <ele>2577</ele>
        <time>2021-03-21T10:44:44.000Z</time>
      </trkpt>
      <trkpt lat="44.98726" lon="6.03533">
        <ele>2577.1999511719</ele>
        <time>2021-03-21T10:44:45.000Z</time>
      </trkpt>
      <trkpt lat="44.98725" lon="6.03533">
        <ele>2577.3999023438</ele>
        <time>2021-03-21T10:44:46.000Z</time>
      </trkpt>
      <trkpt lat="44.98725" lon="6.03533">
        <ele>2577.6000976562</ele>
        <time>2021-03-21T10:44:47.000Z</time>
      </trkpt>
      <trkpt lat="44.98724" lon="6.03533">
        <ele>2578.1999511719</ele>
        <time>2021-03-21T10:44:48.000Z</time>
      </trkpt>
      <trkpt lat="44.98724" lon="6.03533">
        <ele>2578.3999023438</ele>
        <time>2021-03-21T10:44:49.000Z</time>
      </trkpt>
      <trkpt lat="44.98723" lon="6.03532">
        <ele>2579</ele>
        <time>2021-03-21T10:44:50.000Z</time>
      </trkpt>
      <trkpt lat="44.98722" lon="6.03532">
        <ele>2579</ele>
        <time>2021-03-21T10:44:51.000Z</time>
      </trkpt>
      <trkpt lat="44.98722" lon="6.03532">
        <ele>2579.3999023438</ele>
        <time>2021-03-21T10:44:52.000Z</time>
      </trkpt>
      <trkpt lat="44.98721" lon="6.03532">
        <ele>2579.8000488281</ele>
        <time>2021-03-21T10:44:53.000Z</time>
      </trkpt>
      <trkpt lat="44.9872" lon="6.03532">
        <ele>2580.1999511719</ele>
        <time>2021-03-21T10:44:54.000Z</time>
      </trkpt>
      <trkpt lat="44.9872" lon="6.03532">
        <ele>2580.6000976562</ele>
        <time>2021-03-21T10:44:55.000Z</time>
      </trkpt>
      <trkpt lat="44.9872" lon="6.03531">
        <ele>2580.6000976562</ele>
        <time>2021-03-21T10:44:56.000Z</time>
      </trkpt>
      <trkpt lat="44.98719" lon="6.03531">
        <ele>2581.3999023438</ele>
        <time>2021-03-21T10:44:57.000Z</time>
      </trkpt>
      <trkpt lat="44.98718" lon="6.03531">
        <ele>2581.6000976562</ele>
        <time>2021-03-21T10:44:58.000Z</time>
      </trkpt>
      <trkpt lat="44.98717" lon="6.03531">
        <ele>2582</ele>
        <time>2021-03-21T10:44:59.000Z</time>
      </trkpt>
      <trkpt lat="44.98717" lon="6.03531">
        <ele>2582</ele>
        <time>2021-03-21T10:45:00.000Z</time>
      </trkpt>
      <trkpt lat="44.98717" lon="6.03531">
        <ele>2582.6000976562</ele>
        <time>2021-03-21T10:45:01.000Z</time>
      </trkpt>
      <trkpt lat="44.98716" lon="6.03531">
        <ele>2582.8000488281</ele>
        <time>2021-03-21T10:45:02.000Z</time>
      </trkpt>
      <trkpt lat="44.98716" lon="6.0353">
        <ele>2582.6000976562</ele>
        <time>2021-03-21T10:45:03.000Z</time>
      </trkpt>
      <trkpt lat="44.98716" lon="6.0353">
        <ele>2583</ele>
        <time>2021-03-21T10:45:04.000Z</time>
      </trkpt>
      <trkpt lat="44.98715" lon="6.03529">
        <ele>2583</ele>
        <time>2021-03-21T10:45:05.000Z</time>
      </trkpt>
      <trkpt lat="44.98715" lon="6.03529">
        <ele>2583.3999023438</ele>
        <time>2021-03-21T10:45:06.000Z</time>
      </trkpt>
      <trkpt lat="44.98715" lon="6.03529">
        <ele>2583.3999023438</ele>
        <time>2021-03-21T10:45:07.000Z</time>
      </trkpt>
      <trkpt lat="44.98714" lon="6.03529">
        <ele>2583.6000976562</ele>
        <time>2021-03-21T10:45:08.000Z</time>
      </trkpt>
      <trkpt lat="44.98715" lon="6.03528">
        <ele>2583.3999023438</ele>
        <time>2021-03-21T10:45:09.000Z</time>
      </trkpt>
      <trkpt lat="44.98715" lon="6.03528">
        <ele>2583.1999511719</ele>
        <time>2021-03-21T10:45:10.000Z</time>
      </trkpt>
      <trkpt lat="44.98715" lon="6.03528">
        <ele>2583.1999511719</ele>
        <time>2021-03-21T10:45:11.000Z</time>
      </trkpt>
      <trkpt lat="44.98715" lon="6.03528">
        <ele>2583.1999511719</ele>
        <time>2021-03-21T10:45:12.000Z</time>
      </trkpt>
      <trkpt lat="44.98715" lon="6.03528">
        <ele>2583.1999511719</ele>
        <time>2021-03-21T10:45:13.000Z</time>
      </trkpt>
      <trkpt lat="44.98715" lon="6.03527">
        <ele>2583</ele>
        <time>2021-03-21T10:45:14.000Z</time>
      </trkpt>
      <trkpt lat="44.98715" lon="6.03527">
        <ele>2583</ele>
        <time>2021-03-21T10:45:15.000Z</time>
      </trkpt>
      <trkpt lat="44.98715" lon="6.03527">
        <ele>2583</ele>
        <time>2021-03-21T10:45:16.000Z</time>
      </trkpt>
      <trkpt lat="44.98715" lon="6.03528">
        <ele>2583</ele>
        <time>2021-03-21T10:45:17.000Z</time>
      </trkpt>
      <trkpt lat="44.98715" lon="6.03527">
        <ele>2583.1999511719</ele>
        <time>2021-03-21T10:45:18.000Z</time>
      </trkpt>
      <trkpt lat="44.98715" lon="6.03527">
        <ele>2583.3999023438</ele>
        <time>2021-03-21T10:45:19.000Z</time>
      </trkpt>
      <trkpt lat="44.98714" lon="6.03527">
        <ele>2583.8000488281</ele>
        <time>2021-03-21T10:45:20.000Z</time>
      </trkpt>
      <trkpt lat="44.98714" lon="6.03527">
        <ele>2583.8000488281</ele>
        <time>2021-03-21T10:45:21.000Z</time>
      </trkpt>
      <trkpt lat="44.98713" lon="6.03526">
        <ele>2584.1999511719</ele>
        <time>2021-03-21T10:45:22.000Z</time>
      </trkpt>
      <trkpt lat="44.98713" lon="6.03525">
        <ele>2584.1999511719</ele>
        <time>2021-03-21T10:45:23.000Z</time>
      </trkpt>
      <trkpt lat="44.98712" lon="6.03525">
        <ele>2584.6000976562</ele>
        <time>2021-03-21T10:45:24.000Z</time>
      </trkpt>
      <trkpt lat="44.98711" lon="6.03524">
        <ele>2585</ele>
        <time>2021-03-21T10:45:25.000Z</time>
      </trkpt>
      <trkpt lat="44.98711" lon="6.03524">
        <ele>2585.1999511719</ele>
        <time>2021-03-21T10:45:26.000Z</time>
      </trkpt>
      <trkpt lat="44.9871" lon="6.03524">
        <ele>2585.8000488281</ele>
        <time>2021-03-21T10:45:27.000Z</time>
      </trkpt>
      <trkpt lat="44.9871" lon="6.03523">
        <ele>2586</ele>
        <time>2021-03-21T10:45:28.000Z</time>
      </trkpt>
      <trkpt lat="44.98709" lon="6.03523">
        <ele>2586.6000976562</ele>
        <time>2021-03-21T10:45:29.000Z</time>
      </trkpt>
      <trkpt lat="44.98709" lon="6.03523">
        <ele>2586.3999023438</ele>
        <time>2021-03-21T10:45:30.000Z</time>
      </trkpt>
      <trkpt lat="44.98708" lon="6.03522">
        <ele>2587</ele>
        <time>2021-03-21T10:45:31.000Z</time>
      </trkpt>
      <trkpt lat="44.98707" lon="6.03522">
        <ele>2587</ele>
        <time>2021-03-21T10:45:32.000Z</time>
      </trkpt>
      <trkpt lat="44.98707" lon="6.03522">
        <ele>2587.3999023438</ele>
        <time>2021-03-21T10:45:33.000Z</time>
      </trkpt>
      <trkpt lat="44.98706" lon="6.03522">
        <ele>2587.6000976562</ele>
        <time>2021-03-21T10:45:34.000Z</time>
      </trkpt>
      <trkpt lat="44.98705" lon="6.03521">
        <ele>2587.8000488281</ele>
        <time>2021-03-21T10:45:35.000Z</time>
      </trkpt>
      <trkpt lat="44.98704" lon="6.03521">
        <ele>2588</ele>
        <time>2021-03-21T10:45:36.000Z</time>
      </trkpt>
      <trkpt lat="44.98704" lon="6.03521">
        <ele>2588.1999511719</ele>
        <time>2021-03-21T10:45:37.000Z</time>
      </trkpt>
      <trkpt lat="44.98704" lon="6.0352">
        <ele>2588.3999023438</ele>
        <time>2021-03-21T10:45:38.000Z</time>
      </trkpt>
      <trkpt lat="44.98703" lon="6.0352">
        <ele>2588.3999023438</ele>
        <time>2021-03-21T10:45:39.000Z</time>
      </trkpt>
      <trkpt lat="44.98703" lon="6.03519">
        <ele>2588.6000976562</ele>
        <time>2021-03-21T10:45:40.000Z</time>
      </trkpt>
      <trkpt lat="44.98703" lon="6.03519">
        <ele>2588.6000976562</ele>
        <time>2021-03-21T10:45:41.000Z</time>
      </trkpt>
      <trkpt lat="44.98702" lon="6.03518">
        <ele>2588.6000976562</ele>
        <time>2021-03-21T10:45:42.000Z</time>
      </trkpt>
      <trkpt lat="44.98702" lon="6.03518">
        <ele>2588.6000976562</ele>
        <time>2021-03-21T10:45:43.000Z</time>
      </trkpt>
      <trkpt lat="44.98702" lon="6.03517">
        <ele>2588.8000488281</ele>
        <time>2021-03-21T10:45:44.000Z</time>
      </trkpt>
      <trkpt lat="44.98701" lon="6.03517">
        <ele>2589</ele>
        <time>2021-03-21T10:45:45.000Z</time>
      </trkpt>
      <trkpt lat="44.98701" lon="6.03516">
        <ele>2589</ele>
        <time>2021-03-21T10:45:46.000Z</time>
      </trkpt>
      <trkpt lat="44.98701" lon="6.03516">
        <ele>2589</ele>
        <time>2021-03-21T10:45:47.000Z</time>
      </trkpt>
      <trkpt lat="44.98701" lon="6.03515">
        <ele>2589</ele>
        <time>2021-03-21T10:45:48.000Z</time>
      </trkpt>
      <trkpt lat="44.987" lon="6.03515">
        <ele>2589.1999511719</ele>
        <time>2021-03-21T10:45:49.000Z</time>
      </trkpt>
      <trkpt lat="44.987" lon="6.03514">
        <ele>2589</ele>
        <time>2021-03-21T10:45:50.000Z</time>
      </trkpt>
      <trkpt lat="44.987" lon="6.03514">
        <ele>2589.1999511719</ele>
        <time>2021-03-21T10:45:51.000Z</time>
      </trkpt>
      <trkpt lat="44.98699" lon="6.03513">
        <ele>2589.1999511719</ele>
        <time>2021-03-21T10:45:52.000Z</time>
      </trkpt>
      <trkpt lat="44.98699" lon="6.03513">
        <ele>2589.3999023438</ele>
        <time>2021-03-21T10:45:53.000Z</time>
      </trkpt>
      <trkpt lat="44.98698" lon="6.03512">
        <ele>2589.3999023438</ele>
        <time>2021-03-21T10:45:54.000Z</time>
      </trkpt>
      <trkpt lat="44.98698" lon="6.03511">
        <ele>2589.3999023438</ele>
        <time>2021-03-21T10:45:55.000Z</time>
      </trkpt>
      <trkpt lat="44.98698" lon="6.03511">
        <ele>2589.6000976562</ele>
        <time>2021-03-21T10:45:56.000Z</time>
      </trkpt>
      <trkpt lat="44.98697" lon="6.0351">
        <ele>2589.8000488281</ele>
        <time>2021-03-21T10:45:57.000Z</time>
      </trkpt>
      <trkpt lat="44.98696" lon="6.0351">
        <ele>2589.8000488281</ele>
        <time>2021-03-21T10:45:58.000Z</time>
      </trkpt>
      <trkpt lat="44.98696" lon="6.03509">
        <ele>2589.8000488281</ele>
        <time>2021-03-21T10:45:59.000Z</time>
      </trkpt>
      <trkpt lat="44.98696" lon="6.03508">
        <ele>2590</ele>
        <time>2021-03-21T10:46:00.000Z</time>
      </trkpt>
      <trkpt lat="44.98696" lon="6.03507">
        <ele>2589.8000488281</ele>
        <time>2021-03-21T10:46:01.000Z</time>
      </trkpt>
      <trkpt lat="44.98695" lon="6.03507">
        <ele>2590</ele>
        <time>2021-03-21T10:46:02.000Z</time>
      </trkpt>
      <trkpt lat="44.98695" lon="6.03506">
        <ele>2589.8000488281</ele>
        <time>2021-03-21T10:46:03.000Z</time>
      </trkpt>
      <trkpt lat="44.98694" lon="6.03505">
        <ele>2590</ele>
        <time>2021-03-21T10:46:04.000Z</time>
      </trkpt>
      <trkpt lat="44.98694" lon="6.03505">
        <ele>2590</ele>
        <time>2021-03-21T10:46:05.000Z</time>
      </trkpt>
      <trkpt lat="44.98693" lon="6.03504">
        <ele>2590.1999511719</ele>
        <time>2021-03-21T10:46:06.000Z</time>
      </trkpt>
      <trkpt lat="44.98693" lon="6.03503">
        <ele>2590.3999023438</ele>
        <time>2021-03-21T10:46:07.000Z</time>
      </trkpt>
      <trkpt lat="44.98693" lon="6.03502">
        <ele>2590.1999511719</ele>
        <time>2021-03-21T10:46:08.000Z</time>
      </trkpt>
      <trkpt lat="44.98692" lon="6.03502">
        <ele>2590.3999023438</ele>
        <time>2021-03-21T10:46:09.000Z</time>
      </trkpt>
      <trkpt lat="44.98692" lon="6.03501">
        <ele>2590.1999511719</ele>
        <time>2021-03-21T10:46:10.000Z</time>
      </trkpt>
      <trkpt lat="44.98692" lon="6.035">
        <ele>2590.1999511719</ele>
        <time>2021-03-21T10:46:11.000Z</time>
      </trkpt>
      <trkpt lat="44.98692" lon="6.03499">
        <ele>2590</ele>
        <time>2021-03-21T10:46:12.000Z</time>
      </trkpt>
      <trkpt lat="44.98691" lon="6.03499">
        <ele>2590.1999511719</ele>
        <time>2021-03-21T10:46:13.000Z</time>
      </trkpt>
      <trkpt lat="44.98691" lon="6.03498">
        <ele>2590</ele>
        <time>2021-03-21T10:46:14.000Z</time>
      </trkpt>
      <trkpt lat="44.98691" lon="6.03497">
        <ele>2590.1999511719</ele>
        <time>2021-03-21T10:46:15.000Z</time>
      </trkpt>
      <trkpt lat="44.98691" lon="6.03497">
        <ele>2590.1999511719</ele>
        <time>2021-03-21T10:46:16.000Z</time>
      </trkpt>
      <trkpt lat="44.9869" lon="6.03496">
        <ele>2590.3999023438</ele>
        <time>2021-03-21T10:46:17.000Z</time>
      </trkpt>
      <trkpt lat="44.9869" lon="6.03496">
        <ele>2590.3999023438</ele>
        <time>2021-03-21T10:46:18.000Z</time>
      </trkpt>
      <trkpt lat="44.98689" lon="6.03495">
        <ele>2590.6000976562</ele>
        <time>2021-03-21T10:46:19.000Z</time>
      </trkpt>
      <trkpt lat="44.98689" lon="6.03494">
        <ele>2590.3999023438</ele>
        <time>2021-03-21T10:46:20.000Z</time>
      </trkpt>
      <trkpt lat="44.98689" lon="6.03494">
        <ele>2590.6000976562</ele>
        <time>2021-03-21T10:46:21.000Z</time>
      </trkpt>
      <trkpt lat="44.98688" lon="6.03493">
        <ele>2590.6000976562</ele>
        <time>2021-03-21T10:46:22.000Z</time>
      </trkpt>
      <trkpt lat="44.98688" lon="6.03492">
        <ele>2590.6000976562</ele>
        <time>2021-03-21T10:46:23.000Z</time>
      </trkpt>
      <trkpt lat="44.98687" lon="6.03492">
        <ele>2590.8000488281</ele>
        <time>2021-03-21T10:46:24.000Z</time>
      </trkpt>
      <trkpt lat="44.98687" lon="6.03491">
        <ele>2590.8000488281</ele>
        <time>2021-03-21T10:46:25.000Z</time>
      </trkpt>
      <trkpt lat="44.98686" lon="6.03491">
        <ele>2591</ele>
        <time>2021-03-21T10:46:26.000Z</time>
      </trkpt>
      <trkpt lat="44.98686" lon="6.0349">
        <ele>2591</ele>
        <time>2021-03-21T10:46:27.000Z</time>
      </trkpt>
      <trkpt lat="44.98685" lon="6.0349">
        <ele>2591.3999023438</ele>
        <time>2021-03-21T10:46:28.000Z</time>
      </trkpt>
      <trkpt lat="44.98685" lon="6.0349">
        <ele>2591.3999023438</ele>
        <time>2021-03-21T10:46:29.000Z</time>
      </trkpt>
      <trkpt lat="44.98684" lon="6.03489">
        <ele>2591.6000976562</ele>
        <time>2021-03-21T10:46:30.000Z</time>
      </trkpt>
      <trkpt lat="44.98684" lon="6.03489">
        <ele>2591.6000976562</ele>
        <time>2021-03-21T10:46:31.000Z</time>
      </trkpt>
      <trkpt lat="44.98683" lon="6.03489">
        <ele>2591.8000488281</ele>
        <time>2021-03-21T10:46:32.000Z</time>
      </trkpt>
      <trkpt lat="44.98684" lon="6.03488">
        <ele>2591.8000488281</ele>
        <time>2021-03-21T10:46:33.000Z</time>
      </trkpt>
      <trkpt lat="44.98683" lon="6.03488">
        <ele>2592</ele>
        <time>2021-03-21T10:46:34.000Z</time>
      </trkpt>
      <trkpt lat="44.98682" lon="6.03487">
        <ele>2592</ele>
        <time>2021-03-21T10:46:35.000Z</time>
      </trkpt>
      <trkpt lat="44.98682" lon="6.03487">
        <ele>2592.1999511719</ele>
        <time>2021-03-21T10:46:36.000Z</time>
      </trkpt>
      <trkpt lat="44.98682" lon="6.03487">
        <ele>2592.3999023438</ele>
        <time>2021-03-21T10:46:37.000Z</time>
      </trkpt>
      <trkpt lat="44.98681" lon="6.03486">
        <ele>2592.6000976562</ele>
        <time>2021-03-21T10:46:38.000Z</time>
      </trkpt>
      <trkpt lat="44.98681" lon="6.03486">
        <ele>2592.6000976562</ele>
        <time>2021-03-21T10:46:39.000Z</time>
      </trkpt>
      <trkpt lat="44.98681" lon="6.03485">
        <ele>2592.6000976562</ele>
        <time>2021-03-21T10:46:40.000Z</time>
      </trkpt>
      <trkpt lat="44.9868" lon="6.03485">
        <ele>2593</ele>
        <time>2021-03-21T10:46:41.000Z</time>
      </trkpt>
      <trkpt lat="44.9868" lon="6.03485">
        <ele>2593.1999511719</ele>
        <time>2021-03-21T10:46:42.000Z</time>
      </trkpt>
      <trkpt lat="44.98679" lon="6.03485">
        <ele>2593.3999023438</ele>
        <time>2021-03-21T10:46:43.000Z</time>
      </trkpt>
      <trkpt lat="44.98678" lon="6.03485">
        <ele>2593.8000488281</ele>
        <time>2021-03-21T10:46:44.000Z</time>
      </trkpt>
      <trkpt lat="44.98678" lon="6.03484">
        <ele>2594</ele>
        <time>2021-03-21T10:46:45.000Z</time>
      </trkpt>
      <trkpt lat="44.98677" lon="6.03484">
        <ele>2594.1999511719</ele>
        <time>2021-03-21T10:46:46.000Z</time>
      </trkpt>
      <trkpt lat="44.98677" lon="6.03484">
        <ele>2594.1999511719</ele>
        <time>2021-03-21T10:46:47.000Z</time>
      </trkpt>
      <trkpt lat="44.98676" lon="6.03484">
        <ele>2594.6000976562</ele>
        <time>2021-03-21T10:46:48.000Z</time>
      </trkpt>
      <trkpt lat="44.98676" lon="6.03483">
        <ele>2594.6000976562</ele>
        <time>2021-03-21T10:46:49.000Z</time>
      </trkpt>
      <trkpt lat="44.98675" lon="6.03483">
        <ele>2595</ele>
        <time>2021-03-21T10:46:50.000Z</time>
      </trkpt>
      <trkpt lat="44.98675" lon="6.03483">
        <ele>2595</ele>
        <time>2021-03-21T10:46:51.000Z</time>
      </trkpt>
      <trkpt lat="44.98675" lon="6.03483">
        <ele>2595.3999023438</ele>
        <time>2021-03-21T10:46:52.000Z</time>
      </trkpt>
      <trkpt lat="44.98675" lon="6.03483">
        <ele>2595.3999023438</ele>
        <time>2021-03-21T10:46:53.000Z</time>
      </trkpt>
      <trkpt lat="44.98673" lon="6.03483">
        <ele>2596</ele>
        <time>2021-03-21T10:46:54.000Z</time>
      </trkpt>
      <trkpt lat="44.98673" lon="6.03484">
        <ele>2596.1999511719</ele>
        <time>2021-03-21T10:46:55.000Z</time>
      </trkpt>
      <trkpt lat="44.98672" lon="6.03484">
        <ele>2596.6000976562</ele>
        <time>2021-03-21T10:46:56.000Z</time>
      </trkpt>
      <trkpt lat="44.98672" lon="6.03484">
        <ele>2597</ele>
        <time>2021-03-21T10:46:57.000Z</time>
      </trkpt>
      <trkpt lat="44.98671" lon="6.03484">
        <ele>2597.1999511719</ele>
        <time>2021-03-21T10:46:58.000Z</time>
      </trkpt>
      <trkpt lat="44.98671" lon="6.03484">
        <ele>2597.6000976562</ele>
        <time>2021-03-21T10:46:59.000Z</time>
      </trkpt>
      <trkpt lat="44.9867" lon="6.03484">
        <ele>2597.8000488281</ele>
        <time>2021-03-21T10:47:00.000Z</time>
      </trkpt>
      <trkpt lat="44.98669" lon="6.03484">
        <ele>2598.1999511719</ele>
        <time>2021-03-21T10:47:01.000Z</time>
      </trkpt>
      <trkpt lat="44.98669" lon="6.03483">
        <ele>2598.1999511719</ele>
        <time>2021-03-21T10:47:02.000Z</time>
      </trkpt>
      <trkpt lat="44.98668" lon="6.03483">
        <ele>2598.3999023438</ele>
        <time>2021-03-21T10:47:03.000Z</time>
      </trkpt>
      <trkpt lat="44.98668" lon="6.03483">
        <ele>2598.6000976562</ele>
        <time>2021-03-21T10:47:04.000Z</time>
      </trkpt>
      <trkpt lat="44.98668" lon="6.03483">
        <ele>2598.8000488281</ele>
        <time>2021-03-21T10:47:05.000Z</time>
      </trkpt>
      <trkpt lat="44.98667" lon="6.03483">
        <ele>2599</ele>
        <time>2021-03-21T10:47:06.000Z</time>
      </trkpt>
      <trkpt lat="44.98667" lon="6.03483">
        <ele>2599.3999023438</ele>
        <time>2021-03-21T10:47:07.000Z</time>
      </trkpt>
      <trkpt lat="44.98667" lon="6.03483">
        <ele>2599.3999023438</ele>
        <time>2021-03-21T10:47:08.000Z</time>
      </trkpt>
      <trkpt lat="44.98666" lon="6.03482">
        <ele>2599.6000976562</ele>
        <time>2021-03-21T10:47:09.000Z</time>
      </trkpt>
      <trkpt lat="44.98665" lon="6.03482">
        <ele>2600</ele>
        <time>2021-03-21T10:47:10.000Z</time>
      </trkpt>
      <trkpt lat="44.98665" lon="6.03482">
        <ele>2600.3999023438</ele>
        <time>2021-03-21T10:47:11.000Z</time>
      </trkpt>
      <trkpt lat="44.98664" lon="6.03483">
        <ele>2600.6000976562</ele>
        <time>2021-03-21T10:47:12.000Z</time>
      </trkpt>
      <trkpt lat="44.98664" lon="6.03483">
        <ele>2600.8000488281</ele>
        <time>2021-03-21T10:47:13.000Z</time>
      </trkpt>
      <trkpt lat="44.98663" lon="6.03483">
        <ele>2601.1999511719</ele>
        <time>2021-03-21T10:47:14.000Z</time>
      </trkpt>
      <trkpt lat="44.98663" lon="6.03483">
        <ele>2601.3999023438</ele>
        <time>2021-03-21T10:47:15.000Z</time>
      </trkpt>
      <trkpt lat="44.98662" lon="6.03483">
        <ele>2601.8000488281</ele>
        <time>2021-03-21T10:47:16.000Z</time>
      </trkpt>
      <trkpt lat="44.98661" lon="6.03483">
        <ele>2602</ele>
        <time>2021-03-21T10:47:17.000Z</time>
      </trkpt>
      <trkpt lat="44.9866" lon="6.03483">
        <ele>2602.6000976562</ele>
        <time>2021-03-21T10:47:18.000Z</time>
      </trkpt>
      <trkpt lat="44.9866" lon="6.03484">
        <ele>2602.8000488281</ele>
        <time>2021-03-21T10:47:19.000Z</time>
      </trkpt>
      <trkpt lat="44.98659" lon="6.03484">
        <ele>2603.1999511719</ele>
        <time>2021-03-21T10:47:20.000Z</time>
      </trkpt>
      <trkpt lat="44.98659" lon="6.03484">
        <ele>2603</ele>
        <time>2021-03-21T10:47:21.000Z</time>
      </trkpt>
      <trkpt lat="44.98659" lon="6.03483">
        <ele>2603.3999023438</ele>
        <time>2021-03-21T10:47:22.000Z</time>
      </trkpt>
      <trkpt lat="44.98658" lon="6.03483">
        <ele>2603.6000976562</ele>
        <time>2021-03-21T10:47:23.000Z</time>
      </trkpt>
      <trkpt lat="44.98658" lon="6.03484">
        <ele>2604</ele>
        <time>2021-03-21T10:47:24.000Z</time>
      </trkpt>
      <trkpt lat="44.98658" lon="6.03483">
        <ele>2604</ele>
        <time>2021-03-21T10:47:25.000Z</time>
      </trkpt>
      <trkpt lat="44.98657" lon="6.03484">
        <ele>2604.3999023438</ele>
        <time>2021-03-21T10:47:26.000Z</time>
      </trkpt>
      <trkpt lat="44.98657" lon="6.03484">
        <ele>2604.6000976562</ele>
        <time>2021-03-21T10:47:27.000Z</time>
      </trkpt>
      <trkpt lat="44.98656" lon="6.03483">
        <ele>2604.8000488281</ele>
        <time>2021-03-21T10:47:28.000Z</time>
      </trkpt>
      <trkpt lat="44.98656" lon="6.03483">
        <ele>2605</ele>
        <time>2021-03-21T10:47:29.000Z</time>
      </trkpt>
      <trkpt lat="44.98656" lon="6.03483">
        <ele>2605</ele>
        <time>2021-03-21T10:47:30.000Z</time>
      </trkpt>
      <trkpt lat="44.98655" lon="6.03484">
        <ele>2605.1999511719</ele>
        <time>2021-03-21T10:47:31.000Z</time>
      </trkpt>
      <trkpt lat="44.98655" lon="6.03484">
        <ele>2605.1999511719</ele>
        <time>2021-03-21T10:47:32.000Z</time>
      </trkpt>
      <trkpt lat="44.98655" lon="6.03485">
        <ele>2605.3999023438</ele>
        <time>2021-03-21T10:47:33.000Z</time>
      </trkpt>
      <trkpt lat="44.98655" lon="6.03485">
        <ele>2605.6000976562</ele>
        <time>2021-03-21T10:47:34.000Z</time>
      </trkpt>
      <trkpt lat="44.98655" lon="6.03486">
        <ele>2605.6000976562</ele>
        <time>2021-03-21T10:47:35.000Z</time>
      </trkpt>
      <trkpt lat="44.98655" lon="6.03486">
        <ele>2605.8000488281</ele>
        <time>2021-03-21T10:47:36.000Z</time>
      </trkpt>
      <trkpt lat="44.98654" lon="6.03487">
        <ele>2606.1999511719</ele>
        <time>2021-03-21T10:47:37.000Z</time>
      </trkpt>
      <trkpt lat="44.98654" lon="6.03488">
        <ele>2606.1999511719</ele>
        <time>2021-03-21T10:47:38.000Z</time>
      </trkpt>
      <trkpt lat="44.98654" lon="6.03488">
        <ele>2606.6000976562</ele>
        <time>2021-03-21T10:47:39.000Z</time>
      </trkpt>
      <trkpt lat="44.98654" lon="6.03489">
        <ele>2606.6000976562</ele>
        <time>2021-03-21T10:47:40.000Z</time>
      </trkpt>
      <trkpt lat="44.98653" lon="6.0349">
        <ele>2606.8000488281</ele>
        <time>2021-03-21T10:47:41.000Z</time>
      </trkpt>
      <trkpt lat="44.98654" lon="6.0349">
        <ele>2606.8000488281</ele>
        <time>2021-03-21T10:47:42.000Z</time>
      </trkpt>
      <trkpt lat="44.98653" lon="6.03491">
        <ele>2607</ele>
        <time>2021-03-21T10:47:43.000Z</time>
      </trkpt>
      <trkpt lat="44.98653" lon="6.03491">
        <ele>2607</ele>
        <time>2021-03-21T10:47:44.000Z</time>
      </trkpt>
      <trkpt lat="44.98653" lon="6.03492">
        <ele>2607.1999511719</ele>
        <time>2021-03-21T10:47:45.000Z</time>
      </trkpt>
      <trkpt lat="44.98653" lon="6.03493">
        <ele>2607.1999511719</ele>
        <time>2021-03-21T10:47:46.000Z</time>
      </trkpt>
      <trkpt lat="44.98653" lon="6.03493">
        <ele>2607.3999023438</ele>
        <time>2021-03-21T10:47:47.000Z</time>
      </trkpt>
      <trkpt lat="44.98653" lon="6.03494">
        <ele>2607.1999511719</ele>
        <time>2021-03-21T10:47:48.000Z</time>
      </trkpt>
      <trkpt lat="44.98653" lon="6.03495">
        <ele>2607.3999023438</ele>
        <time>2021-03-21T10:47:49.000Z</time>
      </trkpt>
      <trkpt lat="44.98653" lon="6.03495">
        <ele>2607.3999023438</ele>
        <time>2021-03-21T10:47:50.000Z</time>
      </trkpt>
      <trkpt lat="44.98653" lon="6.03496">
        <ele>2607.6000976562</ele>
        <time>2021-03-21T10:47:51.000Z</time>
      </trkpt>
      <trkpt lat="44.98653" lon="6.03497">
        <ele>2607.6000976562</ele>
        <time>2021-03-21T10:47:52.000Z</time>
      </trkpt>
      <trkpt lat="44.98653" lon="6.03497">
        <ele>2607.8000488281</ele>
        <time>2021-03-21T10:47:53.000Z</time>
      </trkpt>
      <trkpt lat="44.98653" lon="6.03498">
        <ele>2608</ele>
        <time>2021-03-21T10:47:54.000Z</time>
      </trkpt>
      <trkpt lat="44.98653" lon="6.03499">
        <ele>2607.8000488281</ele>
        <time>2021-03-21T10:47:55.000Z</time>
      </trkpt>
      <trkpt lat="44.98653" lon="6.03499">
        <ele>2608</ele>
        <time>2021-03-21T10:47:56.000Z</time>
      </trkpt>
      <trkpt lat="44.98653" lon="6.035">
        <ele>2608</ele>
        <time>2021-03-21T10:47:57.000Z</time>
      </trkpt>
      <trkpt lat="44.98653" lon="6.03501">
        <ele>2608.3999023438</ele>
        <time>2021-03-21T10:47:58.000Z</time>
      </trkpt>
      <trkpt lat="44.98653" lon="6.03501">
        <ele>2608.3999023438</ele>
        <time>2021-03-21T10:47:59.000Z</time>
      </trkpt>
      <trkpt lat="44.98653" lon="6.03502">
        <ele>2608.6000976562</ele>
        <time>2021-03-21T10:48:00.000Z</time>
      </trkpt>
      <trkpt lat="44.98653" lon="6.03503">
        <ele>2608.6000976562</ele>
        <time>2021-03-21T10:48:01.000Z</time>
      </trkpt>
      <trkpt lat="44.98653" lon="6.03504">
        <ele>2608.8000488281</ele>
        <time>2021-03-21T10:48:02.000Z</time>
      </trkpt>
      <trkpt lat="44.98652" lon="6.03504">
        <ele>2608.8000488281</ele>
        <time>2021-03-21T10:48:03.000Z</time>
      </trkpt>
      <trkpt lat="44.98652" lon="6.03505">
        <ele>2609</ele>
        <time>2021-03-21T10:48:04.000Z</time>
      </trkpt>
      <trkpt lat="44.98652" lon="6.03506">
        <ele>2609.3999023438</ele>
        <time>2021-03-21T10:48:05.000Z</time>
      </trkpt>
      <trkpt lat="44.98652" lon="6.03506">
        <ele>2609.3999023438</ele>
        <time>2021-03-21T10:48:06.000Z</time>
      </trkpt>
      <trkpt lat="44.98652" lon="6.03507">
        <ele>2609.6000976562</ele>
        <time>2021-03-21T10:48:07.000Z</time>
      </trkpt>
      <trkpt lat="44.98651" lon="6.03508">
        <ele>2609.8000488281</ele>
        <time>2021-03-21T10:48:08.000Z</time>
      </trkpt>
      <trkpt lat="44.98651" lon="6.03508">
        <ele>2610</ele>
        <time>2021-03-21T10:48:09.000Z</time>
      </trkpt>
      <trkpt lat="44.98651" lon="6.03509">
        <ele>2609.8000488281</ele>
        <time>2021-03-21T10:48:10.000Z</time>
      </trkpt>
      <trkpt lat="44.98651" lon="6.03509">
        <ele>2610.1999511719</ele>
        <time>2021-03-21T10:48:11.000Z</time>
      </trkpt>
      <trkpt lat="44.98651" lon="6.0351">
        <ele>2610.1999511719</ele>
        <time>2021-03-21T10:48:12.000Z</time>
      </trkpt>
      <trkpt lat="44.98651" lon="6.03511">
        <ele>2610.3999023438</ele>
        <time>2021-03-21T10:48:13.000Z</time>
      </trkpt>
      <trkpt lat="44.98651" lon="6.03511">
        <ele>2610.3999023438</ele>
        <time>2021-03-21T10:48:14.000Z</time>
      </trkpt>
      <trkpt lat="44.98651" lon="6.03512">
        <ele>2610.3999023438</ele>
        <time>2021-03-21T10:48:15.000Z</time>
      </trkpt>
      <trkpt lat="44.98651" lon="6.03512">
        <ele>2610.3999023438</ele>
        <time>2021-03-21T10:48:16.000Z</time>
      </trkpt>
      <trkpt lat="44.98651" lon="6.03513">
        <ele>2610.3999023438</ele>
        <time>2021-03-21T10:48:17.000Z</time>
      </trkpt>
      <trkpt lat="44.98651" lon="6.03514">
        <ele>2610.3999023438</ele>
        <time>2021-03-21T10:48:18.000Z</time>
      </trkpt>
      <trkpt lat="44.98652" lon="6.03514">
        <ele>2610.3999023438</ele>
        <time>2021-03-21T10:48:19.000Z</time>
      </trkpt>
      <trkpt lat="44.98651" lon="6.03515">
        <ele>2610.6000976562</ele>
        <time>2021-03-21T10:48:20.000Z</time>
      </trkpt>
      <trkpt lat="44.98652" lon="6.03515">
        <ele>2610.6000976562</ele>
        <time>2021-03-21T10:48:21.000Z</time>
      </trkpt>
      <trkpt lat="44.98651" lon="6.03516">
        <ele>2611.1999511719</ele>
        <time>2021-03-21T10:48:22.000Z</time>
      </trkpt>
      <trkpt lat="44.98651" lon="6.03517">
        <ele>2611.3999023438</ele>
        <time>2021-03-21T10:48:23.000Z</time>
      </trkpt>
      <trkpt lat="44.9865" lon="6.03518">
        <ele>2611.6000976562</ele>
        <time>2021-03-21T10:48:24.000Z</time>
      </trkpt>
      <trkpt lat="44.9865" lon="6.03518">
        <ele>2611.6000976562</ele>
        <time>2021-03-21T10:48:25.000Z</time>
      </trkpt>
      <trkpt lat="44.9865" lon="6.03518">
        <ele>2612.1999511719</ele>
        <time>2021-03-21T10:48:26.000Z</time>
      </trkpt>
      <trkpt lat="44.9865" lon="6.03518">
        <ele>2612.3999023438</ele>
        <time>2021-03-21T10:48:27.000Z</time>
      </trkpt>
      <trkpt lat="44.98649" lon="6.03518">
        <ele>2612.6000976562</ele>
        <time>2021-03-21T10:48:28.000Z</time>
      </trkpt>
      <trkpt lat="44.98649" lon="6.03518">
        <ele>2612.3999023438</ele>
        <time>2021-03-21T10:48:29.000Z</time>
      </trkpt>
      <trkpt lat="44.98649" lon="6.03518">
        <ele>2612.6000976562</ele>
        <time>2021-03-21T10:48:30.000Z</time>
      </trkpt>
      <trkpt lat="44.98649" lon="6.03518">
        <ele>2612.6000976562</ele>
        <time>2021-03-21T10:48:31.000Z</time>
      </trkpt>
      <trkpt lat="44.98649" lon="6.03518">
        <ele>2612.8000488281</ele>
        <time>2021-03-21T10:48:32.000Z</time>
      </trkpt>
      <trkpt lat="44.98648" lon="6.03518">
        <ele>2613</ele>
        <time>2021-03-21T10:48:33.000Z</time>
      </trkpt>
      <trkpt lat="44.98648" lon="6.03517">
        <ele>2613.1999511719</ele>
        <time>2021-03-21T10:48:34.000Z</time>
      </trkpt>
      <trkpt lat="44.98647" lon="6.03517">
        <ele>2613.3999023438</ele>
        <time>2021-03-21T10:48:35.000Z</time>
      </trkpt>
      <trkpt lat="44.98647" lon="6.03517">
        <ele>2613.3999023438</ele>
        <time>2021-03-21T10:48:36.000Z</time>
      </trkpt>
      <trkpt lat="44.98646" lon="6.03517">
        <ele>2613.8000488281</ele>
        <time>2021-03-21T10:48:37.000Z</time>
      </trkpt>
      <trkpt lat="44.98646" lon="6.03516">
        <ele>2613.8000488281</ele>
        <time>2021-03-21T10:48:38.000Z</time>
      </trkpt>
      <trkpt lat="44.98645" lon="6.03516">
        <ele>2614.6000976562</ele>
        <time>2021-03-21T10:48:39.000Z</time>
      </trkpt>
      <trkpt lat="44.98644" lon="6.03516">
        <ele>2614.8000488281</ele>
        <time>2021-03-21T10:48:40.000Z</time>
      </trkpt>
      <trkpt lat="44.98643" lon="6.03516">
        <ele>2615</ele>
        <time>2021-03-21T10:48:41.000Z</time>
      </trkpt>
      <trkpt lat="44.98643" lon="6.03516">
        <ele>2615.1999511719</ele>
        <time>2021-03-21T10:48:42.000Z</time>
      </trkpt>
      <trkpt lat="44.98642" lon="6.03516">
        <ele>2615.6000976562</ele>
        <time>2021-03-21T10:48:43.000Z</time>
      </trkpt>
      <trkpt lat="44.98641" lon="6.03516">
        <ele>2616</ele>
        <time>2021-03-21T10:48:44.000Z</time>
      </trkpt>
      <trkpt lat="44.98641" lon="6.03516">
        <ele>2616.1999511719</ele>
        <time>2021-03-21T10:48:45.000Z</time>
      </trkpt>
      <trkpt lat="44.9864" lon="6.03516">
        <ele>2616.6000976562</ele>
        <time>2021-03-21T10:48:46.000Z</time>
      </trkpt>
      <trkpt lat="44.9864" lon="6.03515">
        <ele>2616.6000976562</ele>
        <time>2021-03-21T10:48:47.000Z</time>
      </trkpt>
      <trkpt lat="44.9864" lon="6.03515">
        <ele>2617</ele>
        <time>2021-03-21T10:48:48.000Z</time>
      </trkpt>
      <trkpt lat="44.98639" lon="6.03514">
        <ele>2617</ele>
        <time>2021-03-21T10:48:49.000Z</time>
      </trkpt>
      <trkpt lat="44.98639" lon="6.03514">
        <ele>2617.3999023438</ele>
        <time>2021-03-21T10:48:50.000Z</time>
      </trkpt>
      <trkpt lat="44.98639" lon="6.03514">
        <ele>2617.1999511719</ele>
        <time>2021-03-21T10:48:51.000Z</time>
      </trkpt>
      <trkpt lat="44.98638" lon="6.03513">
        <ele>2617.6000976562</ele>
        <time>2021-03-21T10:48:52.000Z</time>
      </trkpt>
      <trkpt lat="44.98638" lon="6.03513">
        <ele>2617.6000976562</ele>
        <time>2021-03-21T10:48:53.000Z</time>
      </trkpt>
      <trkpt lat="44.98637" lon="6.03513">
        <ele>2617.8000488281</ele>
        <time>2021-03-21T10:48:54.000Z</time>
      </trkpt>
      <trkpt lat="44.98638" lon="6.03512">
        <ele>2617.6000976562</ele>
        <time>2021-03-21T10:48:55.000Z</time>
      </trkpt>
      <trkpt lat="44.98637" lon="6.03512">
        <ele>2618</ele>
        <time>2021-03-21T10:48:56.000Z</time>
      </trkpt>
      <trkpt lat="44.98637" lon="6.03512">
        <ele>2618.1999511719</ele>
        <time>2021-03-21T10:48:57.000Z</time>
      </trkpt>
      <trkpt lat="44.98636" lon="6.03512">
        <ele>2618.8000488281</ele>
        <time>2021-03-21T10:48:58.000Z</time>
      </trkpt>
      <trkpt lat="44.98636" lon="6.03512">
        <ele>2618.8000488281</ele>
        <time>2021-03-21T10:48:59.000Z</time>
      </trkpt>
      <trkpt lat="44.98635" lon="6.03512">
        <ele>2619</ele>
        <time>2021-03-21T10:49:00.000Z</time>
      </trkpt>
      <trkpt lat="44.98635" lon="6.03512">
        <ele>2619</ele>
        <time>2021-03-21T10:49:01.000Z</time>
      </trkpt>
      <trkpt lat="44.98634" lon="6.03511">
        <ele>2619.3999023438</ele>
        <time>2021-03-21T10:49:02.000Z</time>
      </trkpt>
      <trkpt lat="44.98634" lon="6.03511">
        <ele>2619.3999023438</ele>
        <time>2021-03-21T10:49:03.000Z</time>
      </trkpt>
      <trkpt lat="44.98634" lon="6.03512">
        <ele>2619.8000488281</ele>
        <time>2021-03-21T10:49:04.000Z</time>
      </trkpt>
      <trkpt lat="44.98634" lon="6.03512">
        <ele>2619.8000488281</ele>
        <time>2021-03-21T10:49:05.000Z</time>
      </trkpt>
      <trkpt lat="44.98634" lon="6.03511">
        <ele>2619.6000976562</ele>
        <time>2021-03-21T10:49:06.000Z</time>
      </trkpt>
      <trkpt lat="44.98634" lon="6.03511">
        <ele>2619.3999023438</ele>
        <time>2021-03-21T10:49:07.000Z</time>
      </trkpt>
      <trkpt lat="44.98634" lon="6.03511">
        <ele>2619.6000976562</ele>
        <time>2021-03-21T10:49:08.000Z</time>
      </trkpt>
      <trkpt lat="44.98634" lon="6.03511">
        <ele>2619.3999023438</ele>
        <time>2021-03-21T10:49:09.000Z</time>
      </trkpt>
      <trkpt lat="44.98634" lon="6.03511">
        <ele>2619.3999023438</ele>
        <time>2021-03-21T10:49:10.000Z</time>
      </trkpt>
      <trkpt lat="44.98634" lon="6.03511">
        <ele>2619.3999023438</ele>
        <time>2021-03-21T10:49:11.000Z</time>
      </trkpt>
      <trkpt lat="44.98634" lon="6.03511">
        <ele>2619.3999023438</ele>
        <time>2021-03-21T10:49:12.000Z</time>
      </trkpt>
      <trkpt lat="44.98634" lon="6.03512">
        <ele>2619.6000976562</ele>
        <time>2021-03-21T10:49:13.000Z</time>
      </trkpt>
      <trkpt lat="44.98634" lon="6.03513">
        <ele>2619.6000976562</ele>
        <time>2021-03-21T10:49:14.000Z</time>
      </trkpt>
      <trkpt lat="44.98634" lon="6.03514">
        <ele>2619.8000488281</ele>
        <time>2021-03-21T10:49:15.000Z</time>
      </trkpt>
      <trkpt lat="44.98634" lon="6.03514">
        <ele>2619.8000488281</ele>
        <time>2021-03-21T10:49:16.000Z</time>
      </trkpt>
      <trkpt lat="44.98634" lon="6.03515">
        <ele>2620</ele>
        <time>2021-03-21T10:49:17.000Z</time>
      </trkpt>
      <trkpt lat="44.98634" lon="6.03515">
        <ele>2620</ele>
        <time>2021-03-21T10:49:18.000Z</time>
      </trkpt>
      <trkpt lat="44.98634" lon="6.03517">
        <ele>2620.3999023438</ele>
        <time>2021-03-21T10:49:19.000Z</time>
      </trkpt>
      <trkpt lat="44.98634" lon="6.03517">
        <ele>2620.6000976562</ele>
        <time>2021-03-21T10:49:20.000Z</time>
      </trkpt>
      <trkpt lat="44.98633" lon="6.03518">
        <ele>2620.8000488281</ele>
        <time>2021-03-21T10:49:21.000Z</time>
      </trkpt>
      <trkpt lat="44.98633" lon="6.03518">
        <ele>2621</ele>
        <time>2021-03-21T10:49:22.000Z</time>
      </trkpt>
      <trkpt lat="44.98633" lon="6.03519">
        <ele>2621.3999023438</ele>
        <time>2021-03-21T10:49:23.000Z</time>
      </trkpt>
      <trkpt lat="44.98633" lon="6.0352">
        <ele>2621.6000976562</ele>
        <time>2021-03-21T10:49:24.000Z</time>
      </trkpt>
      <trkpt lat="44.98633" lon="6.03521">
        <ele>2621.8000488281</ele>
        <time>2021-03-21T10:49:25.000Z</time>
      </trkpt>
      <trkpt lat="44.98633" lon="6.03521">
        <ele>2622</ele>
        <time>2021-03-21T10:49:26.000Z</time>
      </trkpt>
      <trkpt lat="44.98633" lon="6.03522">
        <ele>2622</ele>
        <time>2021-03-21T10:49:27.000Z</time>
      </trkpt>
      <trkpt lat="44.98633" lon="6.03523">
        <ele>2622.3999023438</ele>
        <time>2021-03-21T10:49:28.000Z</time>
      </trkpt>
      <trkpt lat="44.98633" lon="6.03523">
        <ele>2622.3999023438</ele>
        <time>2021-03-21T10:49:29.000Z</time>
      </trkpt>
      <trkpt lat="44.98632" lon="6.03524">
        <ele>2622.8000488281</ele>
        <time>2021-03-21T10:49:30.000Z</time>
      </trkpt>
      <trkpt lat="44.98632" lon="6.03525">
        <ele>2622.8000488281</ele>
        <time>2021-03-21T10:49:31.000Z</time>
      </trkpt>
      <trkpt lat="44.98632" lon="6.03526">
        <ele>2623.1999511719</ele>
        <time>2021-03-21T10:49:32.000Z</time>
      </trkpt>
      <trkpt lat="44.98632" lon="6.03527">
        <ele>2623.1999511719</ele>
        <time>2021-03-21T10:49:33.000Z</time>
      </trkpt>
      <trkpt lat="44.98632" lon="6.03528">
        <ele>2623.6000976562</ele>
        <time>2021-03-21T10:49:34.000Z</time>
      </trkpt>
      <trkpt lat="44.98631" lon="6.03529">
        <ele>2623.8000488281</ele>
        <time>2021-03-21T10:49:35.000Z</time>
      </trkpt>
      <trkpt lat="44.98631" lon="6.0353">
        <ele>2624.3999023438</ele>
        <time>2021-03-21T10:49:36.000Z</time>
      </trkpt>
      <trkpt lat="44.9863" lon="6.0353">
        <ele>2624.3999023438</ele>
        <time>2021-03-21T10:49:37.000Z</time>
      </trkpt>
      <trkpt lat="44.9863" lon="6.03531">
        <ele>2624.8000488281</ele>
        <time>2021-03-21T10:49:38.000Z</time>
      </trkpt>
      <trkpt lat="44.9863" lon="6.03532">
        <ele>2625</ele>
        <time>2021-03-21T10:49:39.000Z</time>
      </trkpt>
      <trkpt lat="44.9863" lon="6.03532">
        <ele>2625</ele>
        <time>2021-03-21T10:49:40.000Z</time>
      </trkpt>
      <trkpt lat="44.9863" lon="6.03533">
        <ele>2625.1999511719</ele>
        <time>2021-03-21T10:49:41.000Z</time>
      </trkpt>
      <trkpt lat="44.98629" lon="6.03533">
        <ele>2625.6000976562</ele>
        <time>2021-03-21T10:49:42.000Z</time>
      </trkpt>
      <trkpt lat="44.98629" lon="6.03534">
        <ele>2625.8000488281</ele>
        <time>2021-03-21T10:49:43.000Z</time>
      </trkpt>
      <trkpt lat="44.98629" lon="6.03535">
        <ele>2626</ele>
        <time>2021-03-21T10:49:44.000Z</time>
      </trkpt>
      <trkpt lat="44.98628" lon="6.03535">
        <ele>2626.1999511719</ele>
        <time>2021-03-21T10:49:45.000Z</time>
      </trkpt>
      <trkpt lat="44.98628" lon="6.03536">
        <ele>2626.3999023438</ele>
        <time>2021-03-21T10:49:46.000Z</time>
      </trkpt>
      <trkpt lat="44.98628" lon="6.03537">
        <ele>2626.8000488281</ele>
        <time>2021-03-21T10:49:47.000Z</time>
      </trkpt>
      <trkpt lat="44.98627" lon="6.03538">
        <ele>2627</ele>
        <time>2021-03-21T10:49:48.000Z</time>
      </trkpt>
      <trkpt lat="44.98627" lon="6.03538">
        <ele>2627.1999511719</ele>
        <time>2021-03-21T10:49:49.000Z</time>
      </trkpt>
      <trkpt lat="44.98627" lon="6.03539">
        <ele>2627.6000976562</ele>
        <time>2021-03-21T10:49:50.000Z</time>
      </trkpt>
      <trkpt lat="44.98626" lon="6.0354">
        <ele>2627.8000488281</ele>
        <time>2021-03-21T10:49:51.000Z</time>
      </trkpt>
      <trkpt lat="44.98626" lon="6.03541">
        <ele>2628.1999511719</ele>
        <time>2021-03-21T10:49:52.000Z</time>
      </trkpt>
      <trkpt lat="44.98626" lon="6.03541">
        <ele>2628.3999023438</ele>
        <time>2021-03-21T10:49:53.000Z</time>
      </trkpt>
      <trkpt lat="44.98625" lon="6.03542">
        <ele>2628.6000976562</ele>
        <time>2021-03-21T10:49:54.000Z</time>
      </trkpt>
      <trkpt lat="44.98625" lon="6.03543">
        <ele>2629</ele>
        <time>2021-03-21T10:49:55.000Z</time>
      </trkpt>
      <trkpt lat="44.98624" lon="6.03544">
        <ele>2629.3999023438</ele>
        <time>2021-03-21T10:49:56.000Z</time>
      </trkpt>
      <trkpt lat="44.98624" lon="6.03544">
        <ele>2629.8000488281</ele>
        <time>2021-03-21T10:49:57.000Z</time>
      </trkpt>
      <trkpt lat="44.98624" lon="6.03545">
        <ele>2629.8000488281</ele>
        <time>2021-03-21T10:49:58.000Z</time>
      </trkpt>
      <trkpt lat="44.98623" lon="6.03545">
        <ele>2630.1999511719</ele>
        <time>2021-03-21T10:49:59.000Z</time>
      </trkpt>
      <trkpt lat="44.98623" lon="6.03546">
        <ele>2630.3999023438</ele>
        <time>2021-03-21T10:50:00.000Z</time>
      </trkpt>
      <trkpt lat="44.98622" lon="6.03546">
        <ele>2631</ele>
        <time>2021-03-21T10:50:01.000Z</time>
      </trkpt>
      <trkpt lat="44.98622" lon="6.03546">
        <ele>2631</ele>
        <time>2021-03-21T10:50:02.000Z</time>
      </trkpt>
      <trkpt lat="44.98621" lon="6.03547">
        <ele>2631.6000976562</ele>
        <time>2021-03-21T10:50:03.000Z</time>
      </trkpt>
      <trkpt lat="44.98621" lon="6.03546">
        <ele>2631.6000976562</ele>
        <time>2021-03-21T10:50:04.000Z</time>
      </trkpt>
      <trkpt lat="44.9862" lon="6.03546">
        <ele>2631.8000488281</ele>
        <time>2021-03-21T10:50:05.000Z</time>
      </trkpt>
      <trkpt lat="44.9862" lon="6.03545">
        <ele>2631.8000488281</ele>
        <time>2021-03-21T10:50:06.000Z</time>
      </trkpt>
      <trkpt lat="44.98619" lon="6.03545">
        <ele>2632</ele>
        <time>2021-03-21T10:50:07.000Z</time>
      </trkpt>
      <trkpt lat="44.98619" lon="6.03544">
        <ele>2631.8000488281</ele>
        <time>2021-03-21T10:50:08.000Z</time>
      </trkpt>
      <trkpt lat="44.98618" lon="6.03544">
        <ele>2632</ele>
        <time>2021-03-21T10:50:09.000Z</time>
      </trkpt>
      <trkpt lat="44.98618" lon="6.03543">
        <ele>2632</ele>
        <time>2021-03-21T10:50:10.000Z</time>
      </trkpt>
      <trkpt lat="44.98618" lon="6.03543">
        <ele>2632</ele>
        <time>2021-03-21T10:50:11.000Z</time>
      </trkpt>
      <trkpt lat="44.98618" lon="6.03542">
        <ele>2631.8000488281</ele>
        <time>2021-03-21T10:50:12.000Z</time>
      </trkpt>
      <trkpt lat="44.98616" lon="6.03541">
        <ele>2632.3999023438</ele>
        <time>2021-03-21T10:50:13.000Z</time>
      </trkpt>
      <trkpt lat="44.98616" lon="6.0354">
        <ele>2632.1999511719</ele>
        <time>2021-03-21T10:50:14.000Z</time>
      </trkpt>
      <trkpt lat="44.98615" lon="6.0354">
        <ele>2632.6000976562</ele>
        <time>2021-03-21T10:50:15.000Z</time>
      </trkpt>
      <trkpt lat="44.98615" lon="6.03539">
        <ele>2632.6000976562</ele>
        <time>2021-03-21T10:50:16.000Z</time>
      </trkpt>
      <trkpt lat="44.98614" lon="6.03539">
        <ele>2633</ele>
        <time>2021-03-21T10:50:17.000Z</time>
      </trkpt>
      <trkpt lat="44.98614" lon="6.03538">
        <ele>2633</ele>
        <time>2021-03-21T10:50:18.000Z</time>
      </trkpt>
      <trkpt lat="44.98613" lon="6.03538">
        <ele>2633.3999023438</ele>
        <time>2021-03-21T10:50:19.000Z</time>
      </trkpt>
      <trkpt lat="44.98613" lon="6.03537">
        <ele>2633.3999023438</ele>
        <time>2021-03-21T10:50:20.000Z</time>
      </trkpt>
      <trkpt lat="44.98612" lon="6.03536">
        <ele>2633.6000976562</ele>
        <time>2021-03-21T10:50:21.000Z</time>
      </trkpt>
      <trkpt lat="44.98612" lon="6.03536">
        <ele>2633.6000976562</ele>
        <time>2021-03-21T10:50:22.000Z</time>
      </trkpt>
      <trkpt lat="44.98611" lon="6.03535">
        <ele>2634</ele>
        <time>2021-03-21T10:50:23.000Z</time>
      </trkpt>
      <trkpt lat="44.98611" lon="6.03535">
        <ele>2634</ele>
        <time>2021-03-21T10:50:24.000Z</time>
      </trkpt>
      <trkpt lat="44.9861" lon="6.03534">
        <ele>2634</ele>
        <time>2021-03-21T10:50:25.000Z</time>
      </trkpt>
      <trkpt lat="44.9861" lon="6.03534">
        <ele>2634.1999511719</ele>
        <time>2021-03-21T10:50:26.000Z</time>
      </trkpt>
      <trkpt lat="44.98609" lon="6.03533">
        <ele>2634.1999511719</ele>
        <time>2021-03-21T10:50:27.000Z</time>
      </trkpt>
      <trkpt lat="44.98609" lon="6.03533">
        <ele>2634.3999023438</ele>
        <time>2021-03-21T10:50:28.000Z</time>
      </trkpt>
      <trkpt lat="44.98608" lon="6.03533">
        <ele>2634.6000976562</ele>
        <time>2021-03-21T10:50:29.000Z</time>
      </trkpt>
      <trkpt lat="44.98608" lon="6.03533">
        <ele>2634.8000488281</ele>
        <time>2021-03-21T10:50:30.000Z</time>
      </trkpt>
      <trkpt lat="44.98607" lon="6.03532">
        <ele>2634.8000488281</ele>
        <time>2021-03-21T10:50:31.000Z</time>
      </trkpt>
      <trkpt lat="44.98607" lon="6.03532">
        <ele>2635.1999511719</ele>
        <time>2021-03-21T10:50:32.000Z</time>
      </trkpt>
      <trkpt lat="44.98606" lon="6.03531">
        <ele>2635.1999511719</ele>
        <time>2021-03-21T10:50:33.000Z</time>
      </trkpt>
      <trkpt lat="44.98606" lon="6.03531">
        <ele>2635.3999023438</ele>
        <time>2021-03-21T10:50:34.000Z</time>
      </trkpt>
      <trkpt lat="44.98606" lon="6.03531">
        <ele>2635.3999023438</ele>
        <time>2021-03-21T10:50:35.000Z</time>
      </trkpt>
      <trkpt lat="44.98605" lon="6.0353">
        <ele>2635.6000976562</ele>
        <time>2021-03-21T10:50:36.000Z</time>
      </trkpt>
      <trkpt lat="44.98605" lon="6.03529">
        <ele>2635.6000976562</ele>
        <time>2021-03-21T10:50:37.000Z</time>
      </trkpt>
      <trkpt lat="44.98604" lon="6.03529">
        <ele>2635.8000488281</ele>
        <time>2021-03-21T10:50:38.000Z</time>
      </trkpt>
      <trkpt lat="44.98605" lon="6.03529">
        <ele>2635.6000976562</ele>
        <time>2021-03-21T10:50:39.000Z</time>
      </trkpt>
      <trkpt lat="44.98604" lon="6.0353">
        <ele>2636.1999511719</ele>
        <time>2021-03-21T10:50:40.000Z</time>
      </trkpt>
      <trkpt lat="44.98604" lon="6.0353">
        <ele>2636</ele>
        <time>2021-03-21T10:50:41.000Z</time>
      </trkpt>
      <trkpt lat="44.98604" lon="6.0353">
        <ele>2636</ele>
        <time>2021-03-21T10:50:42.000Z</time>
      </trkpt>
      <trkpt lat="44.98604" lon="6.0353">
        <ele>2636</ele>
        <time>2021-03-21T10:50:43.000Z</time>
      </trkpt>
      <trkpt lat="44.98604" lon="6.0353">
        <ele>2636.1999511719</ele>
        <time>2021-03-21T10:50:44.000Z</time>
      </trkpt>
      <trkpt lat="44.98604" lon="6.0353">
        <ele>2636.1999511719</ele>
        <time>2021-03-21T10:50:45.000Z</time>
      </trkpt>
      <trkpt lat="44.98604" lon="6.0353">
        <ele>2636.1999511719</ele>
        <time>2021-03-21T10:50:46.000Z</time>
      </trkpt>
      <trkpt lat="44.98604" lon="6.0353">
        <ele>2636.1999511719</ele>
        <time>2021-03-21T10:50:47.000Z</time>
      </trkpt>
      <trkpt lat="44.98604" lon="6.0353">
        <ele>2636</ele>
        <time>2021-03-21T10:50:48.000Z</time>
      </trkpt>
      <trkpt lat="44.98604" lon="6.0353">
        <ele>2636</ele>
        <time>2021-03-21T10:50:49.000Z</time>
      </trkpt>
      <trkpt lat="44.98604" lon="6.03529">
        <ele>2635.8000488281</ele>
        <time>2021-03-21T10:50:50.000Z</time>
      </trkpt>
      <trkpt lat="44.98605" lon="6.03529">
        <ele>2635.8000488281</ele>
        <time>2021-03-21T10:50:51.000Z</time>
      </trkpt>
      <trkpt lat="44.98605" lon="6.03529">
        <ele>2635.6000976562</ele>
        <time>2021-03-21T10:50:52.000Z</time>
      </trkpt>
      <trkpt lat="44.98605" lon="6.03529">
        <ele>2635.6000976562</ele>
        <time>2021-03-21T10:50:53.000Z</time>
      </trkpt>
      <trkpt lat="44.98605" lon="6.0353">
        <ele>2635.6000976562</ele>
        <time>2021-03-21T10:50:54.000Z</time>
      </trkpt>
      <trkpt lat="44.98605" lon="6.0353">
        <ele>2635.6000976562</ele>
        <time>2021-03-21T10:50:55.000Z</time>
      </trkpt>
      <trkpt lat="44.98605" lon="6.03531">
        <ele>2636</ele>
        <time>2021-03-21T10:50:56.000Z</time>
      </trkpt>
      <trkpt lat="44.98605" lon="6.03531">
        <ele>2636</ele>
        <time>2021-03-21T10:50:57.000Z</time>
      </trkpt>
      <trkpt lat="44.98604" lon="6.03533">
        <ele>2636.6000976562</ele>
        <time>2021-03-21T10:50:58.000Z</time>
      </trkpt>
      <trkpt lat="44.98604" lon="6.03533">
        <ele>2636.8000488281</ele>
        <time>2021-03-21T10:50:59.000Z</time>
      </trkpt>
      <trkpt lat="44.98603" lon="6.03534">
        <ele>2637.1999511719</ele>
        <time>2021-03-21T10:51:00.000Z</time>
      </trkpt>
      <trkpt lat="44.98602" lon="6.03535">
        <ele>2637.6000976562</ele>
        <time>2021-03-21T10:51:01.000Z</time>
      </trkpt>
      <trkpt lat="44.98602" lon="6.03536">
        <ele>2637.8000488281</ele>
        <time>2021-03-21T10:51:02.000Z</time>
      </trkpt>
      <trkpt lat="44.98602" lon="6.03537">
        <ele>2638.1999511719</ele>
        <time>2021-03-21T10:51:03.000Z</time>
      </trkpt>
      <trkpt lat="44.98601" lon="6.03538">
        <ele>2638.3999023438</ele>
        <time>2021-03-21T10:51:04.000Z</time>
      </trkpt>
      <trkpt lat="44.98601" lon="6.03539">
        <ele>2638.8000488281</ele>
        <time>2021-03-21T10:51:05.000Z</time>
      </trkpt>
      <trkpt lat="44.98601" lon="6.03539">
        <ele>2639</ele>
        <time>2021-03-21T10:51:06.000Z</time>
      </trkpt>
      <trkpt lat="44.986" lon="6.0354">
        <ele>2639.3999023438</ele>
        <time>2021-03-21T10:51:07.000Z</time>
      </trkpt>
      <trkpt lat="44.98599" lon="6.03541">
        <ele>2639.6000976562</ele>
        <time>2021-03-21T10:51:08.000Z</time>
      </trkpt>
      <trkpt lat="44.98599" lon="6.03542">
        <ele>2640.1999511719</ele>
        <time>2021-03-21T10:51:09.000Z</time>
      </trkpt>
      <trkpt lat="44.98598" lon="6.03543">
        <ele>2640.3999023438</ele>
        <time>2021-03-21T10:51:10.000Z</time>
      </trkpt>
      <trkpt lat="44.98598" lon="6.03544">
        <ele>2640.8000488281</ele>
        <time>2021-03-21T10:51:11.000Z</time>
      </trkpt>
      <trkpt lat="44.98597" lon="6.03545">
        <ele>2641</ele>
        <time>2021-03-21T10:51:12.000Z</time>
      </trkpt>
      <trkpt lat="44.98597" lon="6.03545">
        <ele>2641.3999023438</ele>
        <time>2021-03-21T10:51:13.000Z</time>
      </trkpt>
      <trkpt lat="44.98597" lon="6.03546">
        <ele>2641.6000976562</ele>
        <time>2021-03-21T10:51:14.000Z</time>
      </trkpt>
      <trkpt lat="44.98596" lon="6.03547">
        <ele>2642</ele>
        <time>2021-03-21T10:51:15.000Z</time>
      </trkpt>
      <trkpt lat="44.98596" lon="6.03548">
        <ele>2642.3999023438</ele>
        <time>2021-03-21T10:51:16.000Z</time>
      </trkpt>
      <trkpt lat="44.98595" lon="6.03549">
        <ele>2642.6000976562</ele>
        <time>2021-03-21T10:51:17.000Z</time>
      </trkpt>
      <trkpt lat="44.98594" lon="6.03549">
        <ele>2643.1999511719</ele>
        <time>2021-03-21T10:51:18.000Z</time>
      </trkpt>
      <trkpt lat="44.98594" lon="6.0355">
        <ele>2643.3999023438</ele>
        <time>2021-03-21T10:51:19.000Z</time>
      </trkpt>
      <trkpt lat="44.98593" lon="6.03551">
        <ele>2644</ele>
        <time>2021-03-21T10:51:20.000Z</time>
      </trkpt>
      <trkpt lat="44.98593" lon="6.03551">
        <ele>2644.1999511719</ele>
        <time>2021-03-21T10:51:21.000Z</time>
      </trkpt>
      <trkpt lat="44.98592" lon="6.03551">
        <ele>2644.6000976562</ele>
        <time>2021-03-21T10:51:22.000Z</time>
      </trkpt>
      <trkpt lat="44.98592" lon="6.03552">
        <ele>2644.8000488281</ele>
        <time>2021-03-21T10:51:23.000Z</time>
      </trkpt>
      <trkpt lat="44.98591" lon="6.03551">
        <ele>2645.1999511719</ele>
        <time>2021-03-21T10:51:24.000Z</time>
      </trkpt>
      <trkpt lat="44.98591" lon="6.03551">
        <ele>2645.3999023438</ele>
        <time>2021-03-21T10:51:25.000Z</time>
      </trkpt>
      <trkpt lat="44.9859" lon="6.03551">
        <ele>2645.6000976562</ele>
        <time>2021-03-21T10:51:26.000Z</time>
      </trkpt>
      <trkpt lat="44.98589" lon="6.0355">
        <ele>2646</ele>
        <time>2021-03-21T10:51:27.000Z</time>
      </trkpt>
      <trkpt lat="44.98589" lon="6.03549">
        <ele>2645.8000488281</ele>
        <time>2021-03-21T10:51:28.000Z</time>
      </trkpt>
      <trkpt lat="44.98588" lon="6.03548">
        <ele>2646.1999511719</ele>
        <time>2021-03-21T10:51:29.000Z</time>
      </trkpt>
      <trkpt lat="44.98588" lon="6.03547">
        <ele>2646</ele>
        <time>2021-03-21T10:51:30.000Z</time>
      </trkpt>
      <trkpt lat="44.98588" lon="6.03547">
        <ele>2646.1999511719</ele>
        <time>2021-03-21T10:51:31.000Z</time>
      </trkpt>
      <trkpt lat="44.98587" lon="6.03546">
        <ele>2646.1999511719</ele>
        <time>2021-03-21T10:51:32.000Z</time>
      </trkpt>
      <trkpt lat="44.98587" lon="6.03545">
        <ele>2646.3999023438</ele>
        <time>2021-03-21T10:51:33.000Z</time>
      </trkpt>
      <trkpt lat="44.98586" lon="6.03544">
        <ele>2646.3999023438</ele>
        <time>2021-03-21T10:51:34.000Z</time>
      </trkpt>
      <trkpt lat="44.98586" lon="6.03544">
        <ele>2646.8000488281</ele>
        <time>2021-03-21T10:51:35.000Z</time>
      </trkpt>
      <trkpt lat="44.98585" lon="6.03543">
        <ele>2646.8000488281</ele>
        <time>2021-03-21T10:51:36.000Z</time>
      </trkpt>
      <trkpt lat="44.98585" lon="6.03542">
        <ele>2646.6000976562</ele>
        <time>2021-03-21T10:51:37.000Z</time>
      </trkpt>
      <trkpt lat="44.98585" lon="6.03541">
        <ele>2646.8000488281</ele>
        <time>2021-03-21T10:51:38.000Z</time>
      </trkpt>
      <trkpt lat="44.98585" lon="6.0354">
        <ele>2646.8000488281</ele>
        <time>2021-03-21T10:51:39.000Z</time>
      </trkpt>
      <trkpt lat="44.98584" lon="6.0354">
        <ele>2647</ele>
        <time>2021-03-21T10:51:40.000Z</time>
      </trkpt>
      <trkpt lat="44.98584" lon="6.03539">
        <ele>2647</ele>
        <time>2021-03-21T10:51:41.000Z</time>
      </trkpt>
      <trkpt lat="44.98583" lon="6.03538">
        <ele>2647.1999511719</ele>
        <time>2021-03-21T10:51:42.000Z</time>
      </trkpt>
      <trkpt lat="44.98583" lon="6.03537">
        <ele>2647</ele>
        <time>2021-03-21T10:51:43.000Z</time>
      </trkpt>
      <trkpt lat="44.98583" lon="6.03536">
        <ele>2646.8000488281</ele>
        <time>2021-03-21T10:51:44.000Z</time>
      </trkpt>
      <trkpt lat="44.98583" lon="6.03535">
        <ele>2646.6000976562</ele>
        <time>2021-03-21T10:51:45.000Z</time>
      </trkpt>
      <trkpt lat="44.98584" lon="6.03533">
        <ele>2646</ele>
        <time>2021-03-21T10:51:46.000Z</time>
      </trkpt>
      <trkpt lat="44.98584" lon="6.03532">
        <ele>2645.8000488281</ele>
        <time>2021-03-21T10:51:47.000Z</time>
      </trkpt>
      <trkpt lat="44.98584" lon="6.03531">
        <ele>2645.3999023438</ele>
        <time>2021-03-21T10:51:48.000Z</time>
      </trkpt>
      <trkpt lat="44.98585" lon="6.0353">
        <ele>2644.8000488281</ele>
        <time>2021-03-21T10:51:49.000Z</time>
      </trkpt>
      <trkpt lat="44.98585" lon="6.03529">
        <ele>2644.3999023438</ele>
        <time>2021-03-21T10:51:50.000Z</time>
      </trkpt>
      <trkpt lat="44.98586" lon="6.03528">
        <ele>2644.1999511719</ele>
        <time>2021-03-21T10:51:51.000Z</time>
      </trkpt>
      <trkpt lat="44.98586" lon="6.03527">
        <ele>2643.8000488281</ele>
        <time>2021-03-21T10:51:52.000Z</time>
      </trkpt>
      <trkpt lat="44.98586" lon="6.03525">
        <ele>2643.3999023438</ele>
        <time>2021-03-21T10:51:53.000Z</time>
      </trkpt>
      <trkpt lat="44.98587" lon="6.03524">
        <ele>2643</ele>
        <time>2021-03-21T10:51:54.000Z</time>
      </trkpt>
      <trkpt lat="44.98587" lon="6.03523">
        <ele>2642.8000488281</ele>
        <time>2021-03-21T10:51:55.000Z</time>
      </trkpt>
      <trkpt lat="44.98587" lon="6.03522">
        <ele>2642.6000976562</ele>
        <time>2021-03-21T10:51:56.000Z</time>
      </trkpt>
      <trkpt lat="44.98588" lon="6.03521">
        <ele>2642.1999511719</ele>
        <time>2021-03-21T10:51:57.000Z</time>
      </trkpt>
      <trkpt lat="44.98588" lon="6.0352">
        <ele>2642</ele>
        <time>2021-03-21T10:51:58.000Z</time>
      </trkpt>
      <trkpt lat="44.98588" lon="6.03519">
        <ele>2641.8000488281</ele>
        <time>2021-03-21T10:51:59.000Z</time>
      </trkpt>
      <trkpt lat="44.98588" lon="6.03519">
        <ele>2641.8000488281</ele>
        <time>2021-03-21T10:52:00.000Z</time>
      </trkpt>
      <trkpt lat="44.98588" lon="6.03518">
        <ele>2641.6000976562</ele>
        <time>2021-03-21T10:52:01.000Z</time>
      </trkpt>
      <trkpt lat="44.98587" lon="6.03517">
        <ele>2641.6000976562</ele>
        <time>2021-03-21T10:52:02.000Z</time>
      </trkpt>
      <trkpt lat="44.98588" lon="6.03516">
        <ele>2641.6000976562</ele>
        <time>2021-03-21T10:52:03.000Z</time>
      </trkpt>
      <trkpt lat="44.98588" lon="6.03515">
        <ele>2641.3999023438</ele>
        <time>2021-03-21T10:52:04.000Z</time>
      </trkpt>
      <trkpt lat="44.98587" lon="6.03514">
        <ele>2641.6000976562</ele>
        <time>2021-03-21T10:52:05.000Z</time>
      </trkpt>
      <trkpt lat="44.98588" lon="6.03513">
        <ele>2641.1999511719</ele>
        <time>2021-03-21T10:52:06.000Z</time>
      </trkpt>
      <trkpt lat="44.98587" lon="6.03512">
        <ele>2641.3999023438</ele>
        <time>2021-03-21T10:52:07.000Z</time>
      </trkpt>
      <trkpt lat="44.98587" lon="6.03511">
        <ele>2641.3999023438</ele>
        <time>2021-03-21T10:52:08.000Z</time>
      </trkpt>
      <trkpt lat="44.98586" lon="6.0351">
        <ele>2641.8000488281</ele>
        <time>2021-03-21T10:52:09.000Z</time>
      </trkpt>
      <trkpt lat="44.98586" lon="6.03509">
        <ele>2642</ele>
        <time>2021-03-21T10:52:10.000Z</time>
      </trkpt>
      <trkpt lat="44.98585" lon="6.03508">
        <ele>2642.1999511719</ele>
        <time>2021-03-21T10:52:11.000Z</time>
      </trkpt>
      <trkpt lat="44.98585" lon="6.03508">
        <ele>2642.3999023438</ele>
        <time>2021-03-21T10:52:12.000Z</time>
      </trkpt>
      <trkpt lat="44.98585" lon="6.03507">
        <ele>2642.3999023438</ele>
        <time>2021-03-21T10:52:13.000Z</time>
      </trkpt>
      <trkpt lat="44.98584" lon="6.03507">
        <ele>2642.6000976562</ele>
        <time>2021-03-21T10:52:14.000Z</time>
      </trkpt>
      <trkpt lat="44.98584" lon="6.03506">
        <ele>2642.8000488281</ele>
        <time>2021-03-21T10:52:15.000Z</time>
      </trkpt>
      <trkpt lat="44.98584" lon="6.03505">
        <ele>2642.8000488281</ele>
        <time>2021-03-21T10:52:16.000Z</time>
      </trkpt>
      <trkpt lat="44.98584" lon="6.03504">
        <ele>2642.8000488281</ele>
        <time>2021-03-21T10:52:17.000Z</time>
      </trkpt>
      <trkpt lat="44.98583" lon="6.03503">
        <ele>2643</ele>
        <time>2021-03-21T10:52:18.000Z</time>
      </trkpt>
      <trkpt lat="44.98583" lon="6.03503">
        <ele>2643.1999511719</ele>
        <time>2021-03-21T10:52:19.000Z</time>
      </trkpt>
      <trkpt lat="44.98581" lon="6.03504">
        <ele>2643.8000488281</ele>
        <time>2021-03-21T10:52:20.000Z</time>
      </trkpt>
      <trkpt lat="44.98581" lon="6.03504">
        <ele>2644</ele>
        <time>2021-03-21T10:52:21.000Z</time>
      </trkpt>
      <trkpt lat="44.98581" lon="6.03504">
        <ele>2644.1999511719</ele>
        <time>2021-03-21T10:52:22.000Z</time>
      </trkpt>
      <trkpt lat="44.98581" lon="6.03505">
        <ele>2644.1999511719</ele>
        <time>2021-03-21T10:52:23.000Z</time>
      </trkpt>
      <trkpt lat="44.9858" lon="6.03505">
        <ele>2644.3999023438</ele>
        <time>2021-03-21T10:52:24.000Z</time>
      </trkpt>
      <trkpt lat="44.9858" lon="6.03506">
        <ele>2644.6000976562</ele>
        <time>2021-03-21T10:52:25.000Z</time>
      </trkpt>
      <trkpt lat="44.9858" lon="6.03506">
        <ele>2644.6000976562</ele>
        <time>2021-03-21T10:52:26.000Z</time>
      </trkpt>
      <trkpt lat="44.98579" lon="6.03507">
        <ele>2645</ele>
        <time>2021-03-21T10:52:27.000Z</time>
      </trkpt>
      <trkpt lat="44.98579" lon="6.03508">
        <ele>2645.1999511719</ele>
        <time>2021-03-21T10:52:28.000Z</time>
      </trkpt>
      <trkpt lat="44.98579" lon="6.03508">
        <ele>2645.3999023438</ele>
        <time>2021-03-21T10:52:29.000Z</time>
      </trkpt>
      <trkpt lat="44.98578" lon="6.03509">
        <ele>2645.6000976562</ele>
        <time>2021-03-21T10:52:30.000Z</time>
      </trkpt>
      <trkpt lat="44.98578" lon="6.03509">
        <ele>2645.6000976562</ele>
        <time>2021-03-21T10:52:31.000Z</time>
      </trkpt>
      <trkpt lat="44.98578" lon="6.03509">
        <ele>2645.6000976562</ele>
        <time>2021-03-21T10:52:32.000Z</time>
      </trkpt>
      <trkpt lat="44.98578" lon="6.03509">
        <ele>2645.6000976562</ele>
        <time>2021-03-21T10:52:33.000Z</time>
      </trkpt>
      <trkpt lat="44.98578" lon="6.0351">
        <ele>2645.6000976562</ele>
        <time>2021-03-21T10:52:34.000Z</time>
      </trkpt>
      <trkpt lat="44.98578" lon="6.0351">
        <ele>2645.6000976562</ele>
        <time>2021-03-21T10:52:35.000Z</time>
      </trkpt>
      <trkpt lat="44.98578" lon="6.0351">
        <ele>2645.8000488281</ele>
        <time>2021-03-21T10:52:36.000Z</time>
      </trkpt>
      <trkpt lat="44.98577" lon="6.03511">
        <ele>2646</ele>
        <time>2021-03-21T10:52:37.000Z</time>
      </trkpt>
      <trkpt lat="44.98577" lon="6.03511">
        <ele>2646.1999511719</ele>
        <time>2021-03-21T10:52:38.000Z</time>
      </trkpt>
      <trkpt lat="44.98576" lon="6.03512">
        <ele>2646.6000976562</ele>
        <time>2021-03-21T10:52:39.000Z</time>
      </trkpt>
      <trkpt lat="44.98576" lon="6.03513">
        <ele>2646.8000488281</ele>
        <time>2021-03-21T10:52:40.000Z</time>
      </trkpt>
      <trkpt lat="44.98575" lon="6.03513">
        <ele>2647.1999511719</ele>
        <time>2021-03-21T10:52:41.000Z</time>
      </trkpt>
      <trkpt lat="44.98575" lon="6.03513">
        <ele>2647.3999023438</ele>
        <time>2021-03-21T10:52:42.000Z</time>
      </trkpt>
      <trkpt lat="44.98574" lon="6.03513">
        <ele>2647.6000976562</ele>
        <time>2021-03-21T10:52:43.000Z</time>
      </trkpt>
      <trkpt lat="44.98574" lon="6.03513">
        <ele>2647.8000488281</ele>
        <time>2021-03-21T10:52:44.000Z</time>
      </trkpt>
      <trkpt lat="44.98573" lon="6.03514">
        <ele>2648</ele>
        <time>2021-03-21T10:52:45.000Z</time>
      </trkpt>
      <trkpt lat="44.98572" lon="6.03514">
        <ele>2648.6000976562</ele>
        <time>2021-03-21T10:52:46.000Z</time>
      </trkpt>
      <trkpt lat="44.98572" lon="6.03514">
        <ele>2648.8000488281</ele>
        <time>2021-03-21T10:52:47.000Z</time>
      </trkpt>
      <trkpt lat="44.98571" lon="6.03514">
        <ele>2649</ele>
        <time>2021-03-21T10:52:48.000Z</time>
      </trkpt>
      <trkpt lat="44.98571" lon="6.03513">
        <ele>2649.1999511719</ele>
        <time>2021-03-21T10:52:49.000Z</time>
      </trkpt>
      <trkpt lat="44.9857" lon="6.03513">
        <ele>2649.6000976562</ele>
        <time>2021-03-21T10:52:50.000Z</time>
      </trkpt>
      <trkpt lat="44.98569" lon="6.03512">
        <ele>2649.8000488281</ele>
        <time>2021-03-21T10:52:51.000Z</time>
      </trkpt>
      <trkpt lat="44.98569" lon="6.03512">
        <ele>2650</ele>
        <time>2021-03-21T10:52:52.000Z</time>
      </trkpt>
      <trkpt lat="44.98569" lon="6.03511">
        <ele>2650.1999511719</ele>
        <time>2021-03-21T10:52:53.000Z</time>
      </trkpt>
      <trkpt lat="44.98568" lon="6.0351">
        <ele>2650.3999023438</ele>
        <time>2021-03-21T10:52:54.000Z</time>
      </trkpt>
      <trkpt lat="44.98568" lon="6.03509">
        <ele>2650.3999023438</ele>
        <time>2021-03-21T10:52:55.000Z</time>
      </trkpt>
      <trkpt lat="44.98567" lon="6.03508">
        <ele>2650.6000976562</ele>
        <time>2021-03-21T10:52:56.000Z</time>
      </trkpt>
      <trkpt lat="44.98567" lon="6.03508">
        <ele>2650.8000488281</ele>
        <time>2021-03-21T10:52:57.000Z</time>
      </trkpt>
      <trkpt lat="44.98567" lon="6.03508">
        <ele>2651</ele>
        <time>2021-03-21T10:52:58.000Z</time>
      </trkpt>
      <trkpt lat="44.98566" lon="6.03508">
        <ele>2651.1999511719</ele>
        <time>2021-03-21T10:52:59.000Z</time>
      </trkpt>
      <trkpt lat="44.98566" lon="6.03508">
        <ele>2651.1999511719</ele>
        <time>2021-03-21T10:53:00.000Z</time>
      </trkpt>
      <trkpt lat="44.98566" lon="6.03508">
        <ele>2651.1999511719</ele>
        <time>2021-03-21T10:53:01.000Z</time>
      </trkpt>
      <trkpt lat="44.98566" lon="6.03508">
        <ele>2651</ele>
        <time>2021-03-21T10:53:02.000Z</time>
      </trkpt>
      <trkpt lat="44.98566" lon="6.03508">
        <ele>2651.1999511719</ele>
        <time>2021-03-21T10:53:03.000Z</time>
      </trkpt>
      <trkpt lat="44.98566" lon="6.03509">
        <ele>2651.1999511719</ele>
        <time>2021-03-21T10:53:04.000Z</time>
      </trkpt>
      <trkpt lat="44.98566" lon="6.03509">
        <ele>2651.1999511719</ele>
        <time>2021-03-21T10:53:05.000Z</time>
      </trkpt>
      <trkpt lat="44.98566" lon="6.03509">
        <ele>2651.3999023438</ele>
        <time>2021-03-21T10:53:06.000Z</time>
      </trkpt>
      <trkpt lat="44.98566" lon="6.0351">
        <ele>2651.1999511719</ele>
        <time>2021-03-21T10:53:07.000Z</time>
      </trkpt>
      <trkpt lat="44.98566" lon="6.03511">
        <ele>2651.3999023438</ele>
        <time>2021-03-21T10:53:08.000Z</time>
      </trkpt>
      <trkpt lat="44.98566" lon="6.03511">
        <ele>2651.3999023438</ele>
        <time>2021-03-21T10:53:09.000Z</time>
      </trkpt>
      <trkpt lat="44.98566" lon="6.03512">
        <ele>2651.6000976562</ele>
        <time>2021-03-21T10:53:10.000Z</time>
      </trkpt>
      <trkpt lat="44.98566" lon="6.03512">
        <ele>2651.6000976562</ele>
        <time>2021-03-21T10:53:11.000Z</time>
      </trkpt>
      <trkpt lat="44.98565" lon="6.03513">
        <ele>2651.8000488281</ele>
        <time>2021-03-21T10:53:12.000Z</time>
      </trkpt>
      <trkpt lat="44.98565" lon="6.03513">
        <ele>2652</ele>
        <time>2021-03-21T10:53:13.000Z</time>
      </trkpt>
      <trkpt lat="44.98565" lon="6.03514">
        <ele>2652.1999511719</ele>
        <time>2021-03-21T10:53:14.000Z</time>
      </trkpt>
      <trkpt lat="44.98564" lon="6.03515">
        <ele>2652.6000976562</ele>
        <time>2021-03-21T10:53:15.000Z</time>
      </trkpt>
      <trkpt lat="44.98563" lon="6.03515">
        <ele>2653</ele>
        <time>2021-03-21T10:53:16.000Z</time>
      </trkpt>
      <trkpt lat="44.98563" lon="6.03516">
        <ele>2653.3999023438</ele>
        <time>2021-03-21T10:53:17.000Z</time>
      </trkpt>
      <trkpt lat="44.98562" lon="6.03516">
        <ele>2653.6000976562</ele>
        <time>2021-03-21T10:53:18.000Z</time>
      </trkpt>
      <trkpt lat="44.98562" lon="6.03517">
        <ele>2654</ele>
        <time>2021-03-21T10:53:19.000Z</time>
      </trkpt>
      <trkpt lat="44.98561" lon="6.03517">
        <ele>2654.3999023438</ele>
        <time>2021-03-21T10:53:20.000Z</time>
      </trkpt>
      <trkpt lat="44.9856" lon="6.03518">
        <ele>2655</ele>
        <time>2021-03-21T10:53:21.000Z</time>
      </trkpt>
      <trkpt lat="44.9856" lon="6.03518">
        <ele>2655</ele>
        <time>2021-03-21T10:53:22.000Z</time>
      </trkpt>
      <trkpt lat="44.9856" lon="6.03518">
        <ele>2655.3999023438</ele>
        <time>2021-03-21T10:53:23.000Z</time>
      </trkpt>
      <trkpt lat="44.98559" lon="6.03517">
        <ele>2655.3999023438</ele>
        <time>2021-03-21T10:53:24.000Z</time>
      </trkpt>
      <trkpt lat="44.98559" lon="6.03517">
        <ele>2655.6000976562</ele>
        <time>2021-03-21T10:53:25.000Z</time>
      </trkpt>
      <trkpt lat="44.98559" lon="6.03518">
        <ele>2655.8000488281</ele>
        <time>2021-03-21T10:53:26.000Z</time>
      </trkpt>
      <trkpt lat="44.98558" lon="6.03518">
        <ele>2655.8000488281</ele>
        <time>2021-03-21T10:53:27.000Z</time>
      </trkpt>
      <trkpt lat="44.98559" lon="6.03517">
        <ele>2655.6000976562</ele>
        <time>2021-03-21T10:53:28.000Z</time>
      </trkpt>
      <trkpt lat="44.98559" lon="6.03517">
        <ele>2655.3999023438</ele>
        <time>2021-03-21T10:53:29.000Z</time>
      </trkpt>
      <trkpt lat="44.98559" lon="6.03517">
        <ele>2655.1999511719</ele>
        <time>2021-03-21T10:53:30.000Z</time>
      </trkpt>
      <trkpt lat="44.98559" lon="6.03516">
        <ele>2655.1999511719</ele>
        <time>2021-03-21T10:53:31.000Z</time>
      </trkpt>
      <trkpt lat="44.98559" lon="6.03516">
        <ele>2655.1999511719</ele>
        <time>2021-03-21T10:53:32.000Z</time>
      </trkpt>
      <trkpt lat="44.98559" lon="6.03516">
        <ele>2655.1999511719</ele>
        <time>2021-03-21T10:53:33.000Z</time>
      </trkpt>
      <trkpt lat="44.98559" lon="6.03515">
        <ele>2655.1999511719</ele>
        <time>2021-03-21T10:53:34.000Z</time>
      </trkpt>
      <trkpt lat="44.98559" lon="6.03514">
        <ele>2655</ele>
        <time>2021-03-21T10:53:35.000Z</time>
      </trkpt>
      <trkpt lat="44.98558" lon="6.03514">
        <ele>2655.3999023438</ele>
        <time>2021-03-21T10:53:36.000Z</time>
      </trkpt>
      <trkpt lat="44.98558" lon="6.03513">
        <ele>2655.3999023438</ele>
        <time>2021-03-21T10:53:37.000Z</time>
      </trkpt>
      <trkpt lat="44.98558" lon="6.03512">
        <ele>2655.6000976562</ele>
        <time>2021-03-21T10:53:38.000Z</time>
      </trkpt>
      <trkpt lat="44.98558" lon="6.03512">
        <ele>2655.6000976562</ele>
        <time>2021-03-21T10:53:39.000Z</time>
      </trkpt>
      <trkpt lat="44.98557" lon="6.03511">
        <ele>2655.8000488281</ele>
        <time>2021-03-21T10:53:40.000Z</time>
      </trkpt>
      <trkpt lat="44.98557" lon="6.0351">
        <ele>2655.8000488281</ele>
        <time>2021-03-21T10:53:41.000Z</time>
      </trkpt>
      <trkpt lat="44.98557" lon="6.03509">
        <ele>2655.8000488281</ele>
        <time>2021-03-21T10:53:42.000Z</time>
      </trkpt>
      <trkpt lat="44.98557" lon="6.03508">
        <ele>2656</ele>
        <time>2021-03-21T10:53:43.000Z</time>
      </trkpt>
      <trkpt lat="44.98556" lon="6.03507">
        <ele>2656.1999511719</ele>
        <time>2021-03-21T10:53:44.000Z</time>
      </trkpt>
      <trkpt lat="44.98556" lon="6.03506">
        <ele>2656.1999511719</ele>
        <time>2021-03-21T10:53:45.000Z</time>
      </trkpt>
      <trkpt lat="44.98556" lon="6.03505">
        <ele>2656.1999511719</ele>
        <time>2021-03-21T10:53:46.000Z</time>
      </trkpt>
      <trkpt lat="44.98555" lon="6.03505">
        <ele>2656.6000976562</ele>
        <time>2021-03-21T10:53:47.000Z</time>
      </trkpt>
      <trkpt lat="44.98555" lon="6.03504">
        <ele>2656.6000976562</ele>
        <time>2021-03-21T10:53:48.000Z</time>
      </trkpt>
      <trkpt lat="44.98555" lon="6.03504">
        <ele>2657</ele>
        <time>2021-03-21T10:53:49.000Z</time>
      </trkpt>
      <trkpt lat="44.98555" lon="6.03504">
        <ele>2656.8000488281</ele>
        <time>2021-03-21T10:53:50.000Z</time>
      </trkpt>
      <trkpt lat="44.98555" lon="6.03503">
        <ele>2656.8000488281</ele>
        <time>2021-03-21T10:53:51.000Z</time>
      </trkpt>
      <trkpt lat="44.98556" lon="6.03503">
        <ele>2656.3999023438</ele>
        <time>2021-03-21T10:53:52.000Z</time>
      </trkpt>
      <trkpt lat="44.98555" lon="6.03504">
        <ele>2656.6000976562</ele>
        <time>2021-03-21T10:53:53.000Z</time>
      </trkpt>
      <trkpt lat="44.98556" lon="6.03504">
        <ele>2656.3999023438</ele>
        <time>2021-03-21T10:53:54.000Z</time>
      </trkpt>
      <trkpt lat="44.98556" lon="6.03504">
        <ele>2656.1999511719</ele>
        <time>2021-03-21T10:53:55.000Z</time>
      </trkpt>
      <trkpt lat="44.98556" lon="6.03504">
        <ele>2656</ele>
        <time>2021-03-21T10:53:56.000Z</time>
      </trkpt>
      <trkpt lat="44.98557" lon="6.03505">
        <ele>2656</ele>
        <time>2021-03-21T10:53:57.000Z</time>
      </trkpt>
      <trkpt lat="44.98557" lon="6.03506">
        <ele>2656</ele>
        <time>2021-03-21T10:53:58.000Z</time>
      </trkpt>
      <trkpt lat="44.98556" lon="6.03507">
        <ele>2656.1999511719</ele>
        <time>2021-03-21T10:53:59.000Z</time>
      </trkpt>
      <trkpt lat="44.98556" lon="6.03508">
        <ele>2656.1999511719</ele>
        <time>2021-03-21T10:54:00.000Z</time>
      </trkpt>
      <trkpt lat="44.98556" lon="6.03509">
        <ele>2656.3999023438</ele>
        <time>2021-03-21T10:54:01.000Z</time>
      </trkpt>
      <trkpt lat="44.98556" lon="6.0351">
        <ele>2656.3999023438</ele>
        <time>2021-03-21T10:54:02.000Z</time>
      </trkpt>
      <trkpt lat="44.98556" lon="6.03511">
        <ele>2656.6000976562</ele>
        <time>2021-03-21T10:54:03.000Z</time>
      </trkpt>
      <trkpt lat="44.98555" lon="6.03511">
        <ele>2656.8000488281</ele>
        <time>2021-03-21T10:54:04.000Z</time>
      </trkpt>
      <trkpt lat="44.98555" lon="6.03512">
        <ele>2657.1999511719</ele>
        <time>2021-03-21T10:54:05.000Z</time>
      </trkpt>
      <trkpt lat="44.98555" lon="6.03513">
        <ele>2657.1999511719</ele>
        <time>2021-03-21T10:54:06.000Z</time>
      </trkpt>
      <trkpt lat="44.98554" lon="6.03513">
        <ele>2657.3999023438</ele>
        <time>2021-03-21T10:54:07.000Z</time>
      </trkpt>
      <trkpt lat="44.98554" lon="6.03514">
        <ele>2657.3999023438</ele>
        <time>2021-03-21T10:54:08.000Z</time>
      </trkpt>
      <trkpt lat="44.98554" lon="6.03514">
        <ele>2657.8000488281</ele>
        <time>2021-03-21T10:54:09.000Z</time>
      </trkpt>
      <trkpt lat="44.98553" lon="6.03515">
        <ele>2658</ele>
        <time>2021-03-21T10:54:10.000Z</time>
      </trkpt>
      <trkpt lat="44.98553" lon="6.03515">
        <ele>2658.1999511719</ele>
        <time>2021-03-21T10:54:11.000Z</time>
      </trkpt>
      <trkpt lat="44.98552" lon="6.03516">
        <ele>2658.6000976562</ele>
        <time>2021-03-21T10:54:12.000Z</time>
      </trkpt>
      <trkpt lat="44.98552" lon="6.03516">
        <ele>2658.8000488281</ele>
        <time>2021-03-21T10:54:13.000Z</time>
      </trkpt>
      <trkpt lat="44.98551" lon="6.03517">
        <ele>2659.6000976562</ele>
        <time>2021-03-21T10:54:14.000Z</time>
      </trkpt>
      <trkpt lat="44.98551" lon="6.03517">
        <ele>2659.8000488281</ele>
        <time>2021-03-21T10:54:15.000Z</time>
      </trkpt>
      <trkpt lat="44.9855" lon="6.03518">
        <ele>2660.1999511719</ele>
        <time>2021-03-21T10:54:16.000Z</time>
      </trkpt>
      <trkpt lat="44.9855" lon="6.03518">
        <ele>2660.3999023438</ele>
        <time>2021-03-21T10:54:17.000Z</time>
      </trkpt>
      <trkpt lat="44.98549" lon="6.03518">
        <ele>2661</ele>
        <time>2021-03-21T10:54:18.000Z</time>
      </trkpt>
      <trkpt lat="44.98548" lon="6.03519">
        <ele>2661.1999511719</ele>
        <time>2021-03-21T10:54:19.000Z</time>
      </trkpt>
      <trkpt lat="44.98548" lon="6.03519">
        <ele>2661.3999023438</ele>
        <time>2021-03-21T10:54:20.000Z</time>
      </trkpt>
      <trkpt lat="44.98547" lon="6.0352">
        <ele>2661.8000488281</ele>
        <time>2021-03-21T10:54:21.000Z</time>
      </trkpt>
      <trkpt lat="44.98547" lon="6.0352">
        <ele>2661.8000488281</ele>
        <time>2021-03-21T10:54:22.000Z</time>
      </trkpt>
      <trkpt lat="44.98546" lon="6.0352">
        <ele>2662.3999023438</ele>
        <time>2021-03-21T10:54:23.000Z</time>
      </trkpt>
      <trkpt lat="44.98546" lon="6.0352">
        <ele>2662.3999023438</ele>
        <time>2021-03-21T10:54:24.000Z</time>
      </trkpt>
      <trkpt lat="44.98546" lon="6.0352">
        <ele>2662.8000488281</ele>
        <time>2021-03-21T10:54:25.000Z</time>
      </trkpt>
      <trkpt lat="44.98545" lon="6.0352">
        <ele>2662.8000488281</ele>
        <time>2021-03-21T10:54:26.000Z</time>
      </trkpt>
      <trkpt lat="44.98544" lon="6.0352">
        <ele>2663.3999023438</ele>
        <time>2021-03-21T10:54:27.000Z</time>
      </trkpt>
      <trkpt lat="44.98544" lon="6.0352">
        <ele>2663.6000976562</ele>
        <time>2021-03-21T10:54:28.000Z</time>
      </trkpt>
      <trkpt lat="44.98544" lon="6.0352">
        <ele>2663.6000976562</ele>
        <time>2021-03-21T10:54:29.000Z</time>
      </trkpt>
      <trkpt lat="44.98544" lon="6.0352">
        <ele>2663.6000976562</ele>
        <time>2021-03-21T10:54:30.000Z</time>
      </trkpt>
      <trkpt lat="44.98544" lon="6.0352">
        <ele>2663.6000976562</ele>
        <time>2021-03-21T10:54:31.000Z</time>
      </trkpt>
      <trkpt lat="44.98544" lon="6.0352">
        <ele>2663.6000976562</ele>
        <time>2021-03-21T10:54:32.000Z</time>
      </trkpt>
      <trkpt lat="44.98544" lon="6.0352">
        <ele>2663.3999023438</ele>
        <time>2021-03-21T10:54:33.000Z</time>
      </trkpt>
      <trkpt lat="44.98544" lon="6.0352">
        <ele>2663.3999023438</ele>
        <time>2021-03-21T10:54:34.000Z</time>
      </trkpt>
      <trkpt lat="44.98544" lon="6.0352">
        <ele>2663.3999023438</ele>
        <time>2021-03-21T10:54:35.000Z</time>
      </trkpt>
      <trkpt lat="44.98544" lon="6.03519">
        <ele>2663.1999511719</ele>
        <time>2021-03-21T10:54:36.000Z</time>
      </trkpt>
      <trkpt lat="44.98544" lon="6.03518">
        <ele>2663.1999511719</ele>
        <time>2021-03-21T10:54:37.000Z</time>
      </trkpt>
      <trkpt lat="44.98544" lon="6.03517">
        <ele>2663</ele>
        <time>2021-03-21T10:54:38.000Z</time>
      </trkpt>
      <trkpt lat="44.98544" lon="6.03516">
        <ele>2662.8000488281</ele>
        <time>2021-03-21T10:54:39.000Z</time>
      </trkpt>
      <trkpt lat="44.98544" lon="6.03514">
        <ele>2662.6000976562</ele>
        <time>2021-03-21T10:54:40.000Z</time>
      </trkpt>
      <trkpt lat="44.98544" lon="6.03513">
        <ele>2662.6000976562</ele>
        <time>2021-03-21T10:54:41.000Z</time>
      </trkpt>
      <trkpt lat="44.98544" lon="6.03512">
        <ele>2662.6000976562</ele>
        <time>2021-03-21T10:54:42.000Z</time>
      </trkpt>
      <trkpt lat="44.98544" lon="6.03511">
        <ele>2662.6000976562</ele>
        <time>2021-03-21T10:54:43.000Z</time>
      </trkpt>
      <trkpt lat="44.98544" lon="6.0351">
        <ele>2662.6000976562</ele>
        <time>2021-03-21T10:54:44.000Z</time>
      </trkpt>
      <trkpt lat="44.98543" lon="6.03509">
        <ele>2662.8000488281</ele>
        <time>2021-03-21T10:54:45.000Z</time>
      </trkpt>
      <trkpt lat="44.98544" lon="6.03508">
        <ele>2662.6000976562</ele>
        <time>2021-03-21T10:54:46.000Z</time>
      </trkpt>
      <trkpt lat="44.98544" lon="6.03507">
        <ele>2662.6000976562</ele>
        <time>2021-03-21T10:54:47.000Z</time>
      </trkpt>
      <trkpt lat="44.98543" lon="6.03506">
        <ele>2662.6000976562</ele>
        <time>2021-03-21T10:54:48.000Z</time>
      </trkpt>
      <trkpt lat="44.98544" lon="6.03505">
        <ele>2662.6000976562</ele>
        <time>2021-03-21T10:54:49.000Z</time>
      </trkpt>
      <trkpt lat="44.98543" lon="6.03504">
        <ele>2662.6000976562</ele>
        <time>2021-03-21T10:54:50.000Z</time>
      </trkpt>
      <trkpt lat="44.98543" lon="6.03503">
        <ele>2662.6000976562</ele>
        <time>2021-03-21T10:54:51.000Z</time>
      </trkpt>
      <trkpt lat="44.98543" lon="6.03503">
        <ele>2662.6000976562</ele>
        <time>2021-03-21T10:54:52.000Z</time>
      </trkpt>
      <trkpt lat="44.98543" lon="6.03502">
        <ele>2662.3999023438</ele>
        <time>2021-03-21T10:54:53.000Z</time>
      </trkpt>
      <trkpt lat="44.98543" lon="6.03501">
        <ele>2662.6000976562</ele>
        <time>2021-03-21T10:54:54.000Z</time>
      </trkpt>
      <trkpt lat="44.98543" lon="6.035">
        <ele>2662.3999023438</ele>
        <time>2021-03-21T10:54:55.000Z</time>
      </trkpt>
      <trkpt lat="44.98544" lon="6.03499">
        <ele>2662.1999511719</ele>
        <time>2021-03-21T10:54:56.000Z</time>
      </trkpt>
      <trkpt lat="44.98544" lon="6.03498">
        <ele>2662.1999511719</ele>
        <time>2021-03-21T10:54:57.000Z</time>
      </trkpt>
      <trkpt lat="44.98543" lon="6.03497">
        <ele>2662.3999023438</ele>
        <time>2021-03-21T10:54:58.000Z</time>
      </trkpt>
      <trkpt lat="44.98543" lon="6.03496">
        <ele>2662.1999511719</ele>
        <time>2021-03-21T10:54:59.000Z</time>
      </trkpt>
      <trkpt lat="44.98543" lon="6.03495">
        <ele>2662.3999023438</ele>
        <time>2021-03-21T10:55:00.000Z</time>
      </trkpt>
      <trkpt lat="44.98543" lon="6.03495">
        <ele>2662.3999023438</ele>
        <time>2021-03-21T10:55:01.000Z</time>
      </trkpt>
      <trkpt lat="44.98543" lon="6.03494">
        <ele>2662.6000976562</ele>
        <time>2021-03-21T10:55:02.000Z</time>
      </trkpt>
      <trkpt lat="44.98542" lon="6.03493">
        <ele>2662.8000488281</ele>
        <time>2021-03-21T10:55:03.000Z</time>
      </trkpt>
      <trkpt lat="44.98542" lon="6.03493">
        <ele>2662.8000488281</ele>
        <time>2021-03-21T10:55:04.000Z</time>
      </trkpt>
      <trkpt lat="44.98541" lon="6.03492">
        <ele>2663.1999511719</ele>
        <time>2021-03-21T10:55:05.000Z</time>
      </trkpt>
      <trkpt lat="44.98541" lon="6.03492">
        <ele>2663.1999511719</ele>
        <time>2021-03-21T10:55:06.000Z</time>
      </trkpt>
      <trkpt lat="44.98541" lon="6.03491">
        <ele>2663.1999511719</ele>
        <time>2021-03-21T10:55:07.000Z</time>
      </trkpt>
      <trkpt lat="44.98541" lon="6.0349">
        <ele>2663.3999023438</ele>
        <time>2021-03-21T10:55:08.000Z</time>
      </trkpt>
      <trkpt lat="44.9854" lon="6.03489">
        <ele>2663.6000976562</ele>
        <time>2021-03-21T10:55:09.000Z</time>
      </trkpt>
      <trkpt lat="44.9854" lon="6.03488">
        <ele>2663.6000976562</ele>
        <time>2021-03-21T10:55:10.000Z</time>
      </trkpt>
      <trkpt lat="44.98539" lon="6.03488">
        <ele>2663.8000488281</ele>
        <time>2021-03-21T10:55:11.000Z</time>
      </trkpt>
      <trkpt lat="44.98539" lon="6.03487">
        <ele>2664</ele>
        <time>2021-03-21T10:55:12.000Z</time>
      </trkpt>
      <trkpt lat="44.98538" lon="6.03486">
        <ele>2664</ele>
        <time>2021-03-21T10:55:13.000Z</time>
      </trkpt>
      <trkpt lat="44.98538" lon="6.03486">
        <ele>2664.1999511719</ele>
        <time>2021-03-21T10:55:14.000Z</time>
      </trkpt>
      <trkpt lat="44.98538" lon="6.03485">
        <ele>2664.1999511719</ele>
        <time>2021-03-21T10:55:15.000Z</time>
      </trkpt>
      <trkpt lat="44.98537" lon="6.03485">
        <ele>2664.3999023438</ele>
        <time>2021-03-21T10:55:16.000Z</time>
      </trkpt>
      <trkpt lat="44.98537" lon="6.03485">
        <ele>2664.3999023438</ele>
        <time>2021-03-21T10:55:17.000Z</time>
      </trkpt>
      <trkpt lat="44.98536" lon="6.03484">
        <ele>2664.6000976562</ele>
        <time>2021-03-21T10:55:18.000Z</time>
      </trkpt>
      <trkpt lat="44.98536" lon="6.03484">
        <ele>2664.6000976562</ele>
        <time>2021-03-21T10:55:19.000Z</time>
      </trkpt>
      <trkpt lat="44.98536" lon="6.03484">
        <ele>2664.6000976562</ele>
        <time>2021-03-21T10:55:20.000Z</time>
      </trkpt>
      <trkpt lat="44.98536" lon="6.03484">
        <ele>2664.8000488281</ele>
        <time>2021-03-21T10:55:21.000Z</time>
      </trkpt>
      <trkpt lat="44.98536" lon="6.03485">
        <ele>2664.8000488281</ele>
        <time>2021-03-21T10:55:22.000Z</time>
      </trkpt>
      <trkpt lat="44.98535" lon="6.03485">
        <ele>2665</ele>
        <time>2021-03-21T10:55:23.000Z</time>
      </trkpt>
      <trkpt lat="44.98535" lon="6.03486">
        <ele>2665</ele>
        <time>2021-03-21T10:55:24.000Z</time>
      </trkpt>
      <trkpt lat="44.98535" lon="6.03487">
        <ele>2665.1999511719</ele>
        <time>2021-03-21T10:55:25.000Z</time>
      </trkpt>
      <trkpt lat="44.98535" lon="6.03487">
        <ele>2665.3999023438</ele>
        <time>2021-03-21T10:55:26.000Z</time>
      </trkpt>
      <trkpt lat="44.98534" lon="6.03488">
        <ele>2665.6000976562</ele>
        <time>2021-03-21T10:55:27.000Z</time>
      </trkpt>
      <trkpt lat="44.98534" lon="6.03489">
        <ele>2665.6000976562</ele>
        <time>2021-03-21T10:55:28.000Z</time>
      </trkpt>
      <trkpt lat="44.98534" lon="6.0349">
        <ele>2665.8000488281</ele>
        <time>2021-03-21T10:55:29.000Z</time>
      </trkpt>
      <trkpt lat="44.98534" lon="6.03491">
        <ele>2666</ele>
        <time>2021-03-21T10:55:30.000Z</time>
      </trkpt>
      <trkpt lat="44.98533" lon="6.03492">
        <ele>2666.1999511719</ele>
        <time>2021-03-21T10:55:31.000Z</time>
      </trkpt>
      <trkpt lat="44.98533" lon="6.03492">
        <ele>2666.3999023438</ele>
        <time>2021-03-21T10:55:32.000Z</time>
      </trkpt>
      <trkpt lat="44.98532" lon="6.03493">
        <ele>2666.6000976562</ele>
        <time>2021-03-21T10:55:33.000Z</time>
      </trkpt>
      <trkpt lat="44.9853" lon="6.03494">
        <ele>2667.1999511719</ele>
        <time>2021-03-21T10:55:34.000Z</time>
      </trkpt>
      <trkpt lat="44.9853" lon="6.03495">
        <ele>2667.3999023438</ele>
        <time>2021-03-21T10:55:35.000Z</time>
      </trkpt>
      <trkpt lat="44.9853" lon="6.03495">
        <ele>2667.6000976562</ele>
        <time>2021-03-21T10:55:36.000Z</time>
      </trkpt>
      <trkpt lat="44.98529" lon="6.03496">
        <ele>2667.6000976562</ele>
        <time>2021-03-21T10:55:37.000Z</time>
      </trkpt>
      <trkpt lat="44.98529" lon="6.03496">
        <ele>2667.8000488281</ele>
        <time>2021-03-21T10:55:38.000Z</time>
      </trkpt>
      <trkpt lat="44.98529" lon="6.03497">
        <ele>2667.8000488281</ele>
        <time>2021-03-21T10:55:39.000Z</time>
      </trkpt>
      <trkpt lat="44.98528" lon="6.03497">
        <ele>2668</ele>
        <time>2021-03-21T10:55:40.000Z</time>
      </trkpt>
      <trkpt lat="44.98528" lon="6.03498">
        <ele>2668.1999511719</ele>
        <time>2021-03-21T10:55:41.000Z</time>
      </trkpt>
      <trkpt lat="44.98527" lon="6.03498">
        <ele>2668.3999023438</ele>
        <time>2021-03-21T10:55:42.000Z</time>
      </trkpt>
      <trkpt lat="44.98527" lon="6.03499">
        <ele>2668.6000976562</ele>
        <time>2021-03-21T10:55:43.000Z</time>
      </trkpt>
      <trkpt lat="44.98527" lon="6.03499">
        <ele>2668.8000488281</ele>
        <time>2021-03-21T10:55:44.000Z</time>
      </trkpt>
      <trkpt lat="44.98526" lon="6.03501">
        <ele>2669</ele>
        <time>2021-03-21T10:55:45.000Z</time>
      </trkpt>
      <trkpt lat="44.98526" lon="6.03501">
        <ele>2669</ele>
        <time>2021-03-21T10:55:46.000Z</time>
      </trkpt>
      <trkpt lat="44.98526" lon="6.03501">
        <ele>2669.1999511719</ele>
        <time>2021-03-21T10:55:47.000Z</time>
      </trkpt>
      <trkpt lat="44.98526" lon="6.03502">
        <ele>2669</ele>
        <time>2021-03-21T10:55:48.000Z</time>
      </trkpt>
      <trkpt lat="44.98526" lon="6.03502">
        <ele>2669</ele>
        <time>2021-03-21T10:55:49.000Z</time>
      </trkpt>
      <trkpt lat="44.98526" lon="6.03502">
        <ele>2669</ele>
        <time>2021-03-21T10:55:50.000Z</time>
      </trkpt>
      <trkpt lat="44.98527" lon="6.03502">
        <ele>2668.8000488281</ele>
        <time>2021-03-21T10:55:51.000Z</time>
      </trkpt>
      <trkpt lat="44.98527" lon="6.03502">
        <ele>2668.8000488281</ele>
        <time>2021-03-21T10:55:52.000Z</time>
      </trkpt>
      <trkpt lat="44.98527" lon="6.03502">
        <ele>2668.8000488281</ele>
        <time>2021-03-21T10:55:53.000Z</time>
      </trkpt>
      <trkpt lat="44.98527" lon="6.03502">
        <ele>2668.6000976562</ele>
        <time>2021-03-21T10:55:54.000Z</time>
      </trkpt>
      <trkpt lat="44.98527" lon="6.03502">
        <ele>2668.8000488281</ele>
        <time>2021-03-21T10:55:55.000Z</time>
      </trkpt>
      <trkpt lat="44.98527" lon="6.03502">
        <ele>2668.6000976562</ele>
        <time>2021-03-21T10:55:56.000Z</time>
      </trkpt>
      <trkpt lat="44.98527" lon="6.03502">
        <ele>2668.6000976562</ele>
        <time>2021-03-21T10:55:57.000Z</time>
      </trkpt>
      <trkpt lat="44.98528" lon="6.03502">
        <ele>2668.3999023438</ele>
        <time>2021-03-21T10:55:58.000Z</time>
      </trkpt>
      <trkpt lat="44.98527" lon="6.03502">
        <ele>2668.6000976562</ele>
        <time>2021-03-21T10:55:59.000Z</time>
      </trkpt>
      <trkpt lat="44.98527" lon="6.03502">
        <ele>2668.6000976562</ele>
        <time>2021-03-21T10:56:00.000Z</time>
      </trkpt>
      <trkpt lat="44.98527" lon="6.03502">
        <ele>2668.6000976562</ele>
        <time>2021-03-21T10:56:01.000Z</time>
      </trkpt>
      <trkpt lat="44.98526" lon="6.03502">
        <ele>2669</ele>
        <time>2021-03-21T10:56:02.000Z</time>
      </trkpt>
      <trkpt lat="44.98526" lon="6.03503">
        <ele>2669.1999511719</ele>
        <time>2021-03-21T10:56:03.000Z</time>
      </trkpt>
      <trkpt lat="44.98525" lon="6.03503">
        <ele>2669.3999023438</ele>
        <time>2021-03-21T10:56:04.000Z</time>
      </trkpt>
      <trkpt lat="44.98524" lon="6.03504">
        <ele>2669.6000976562</ele>
        <time>2021-03-21T10:56:05.000Z</time>
      </trkpt>
      <trkpt lat="44.98524" lon="6.03505">
        <ele>2669.8000488281</ele>
        <time>2021-03-21T10:56:06.000Z</time>
      </trkpt>
      <trkpt lat="44.98523" lon="6.03506">
        <ele>2670.1999511719</ele>
        <time>2021-03-21T10:56:07.000Z</time>
      </trkpt>
      <trkpt lat="44.98523" lon="6.03506">
        <ele>2670.3999023438</ele>
        <time>2021-03-21T10:56:08.000Z</time>
      </trkpt>
      <trkpt lat="44.98522" lon="6.03507">
        <ele>2670.6000976562</ele>
        <time>2021-03-21T10:56:09.000Z</time>
      </trkpt>
      <trkpt lat="44.98521" lon="6.03508">
        <ele>2671</ele>
        <time>2021-03-21T10:56:10.000Z</time>
      </trkpt>
      <trkpt lat="44.98521" lon="6.03508">
        <ele>2671.1999511719</ele>
        <time>2021-03-21T10:56:11.000Z</time>
      </trkpt>
      <trkpt lat="44.9852" lon="6.03509">
        <ele>2671.3999023438</ele>
        <time>2021-03-21T10:56:12.000Z</time>
      </trkpt>
      <trkpt lat="44.9852" lon="6.0351">
        <ele>2671.6000976562</ele>
        <time>2021-03-21T10:56:13.000Z</time>
      </trkpt>
      <trkpt lat="44.98519" lon="6.0351">
        <ele>2671.8000488281</ele>
        <time>2021-03-21T10:56:14.000Z</time>
      </trkpt>
      <trkpt lat="44.98519" lon="6.03511">
        <ele>2672</ele>
        <time>2021-03-21T10:56:15.000Z</time>
      </trkpt>
      <trkpt lat="44.98518" lon="6.03511">
        <ele>2672.1999511719</ele>
        <time>2021-03-21T10:56:16.000Z</time>
      </trkpt>
      <trkpt lat="44.98517" lon="6.03512">
        <ele>2672.6000976562</ele>
        <time>2021-03-21T10:56:17.000Z</time>
      </trkpt>
      <trkpt lat="44.98517" lon="6.03512">
        <ele>2672.6000976562</ele>
        <time>2021-03-21T10:56:18.000Z</time>
      </trkpt>
      <trkpt lat="44.98517" lon="6.03512">
        <ele>2672.8000488281</ele>
        <time>2021-03-21T10:56:19.000Z</time>
      </trkpt>
      <trkpt lat="44.98516" lon="6.03513">
        <ele>2673</ele>
        <time>2021-03-21T10:56:20.000Z</time>
      </trkpt>
      <trkpt lat="44.98516" lon="6.03514">
        <ele>2673</ele>
        <time>2021-03-21T10:56:21.000Z</time>
      </trkpt>
      <trkpt lat="44.98515" lon="6.03514">
        <ele>2673.3999023438</ele>
        <time>2021-03-21T10:56:22.000Z</time>
      </trkpt>
      <trkpt lat="44.98515" lon="6.03514">
        <ele>2673.3999023438</ele>
        <time>2021-03-21T10:56:23.000Z</time>
      </trkpt>
      <trkpt lat="44.98514" lon="6.03515">
        <ele>2673.8000488281</ele>
        <time>2021-03-21T10:56:24.000Z</time>
      </trkpt>
      <trkpt lat="44.98514" lon="6.03515">
        <ele>2673.8000488281</ele>
        <time>2021-03-21T10:56:25.000Z</time>
      </trkpt>
      <trkpt lat="44.98513" lon="6.03516">
        <ele>2674.1999511719</ele>
        <time>2021-03-21T10:56:26.000Z</time>
      </trkpt>
      <trkpt lat="44.98512" lon="6.03516">
        <ele>2674.6000976562</ele>
        <time>2021-03-21T10:56:27.000Z</time>
      </trkpt>
      <trkpt lat="44.98512" lon="6.03516">
        <ele>2675</ele>
        <time>2021-03-21T10:56:28.000Z</time>
      </trkpt>
      <trkpt lat="44.98511" lon="6.03516">
        <ele>2675.3999023438</ele>
        <time>2021-03-21T10:56:29.000Z</time>
      </trkpt>
      <trkpt lat="44.98511" lon="6.03517">
        <ele>2675.6000976562</ele>
        <time>2021-03-21T10:56:30.000Z</time>
      </trkpt>
      <trkpt lat="44.9851" lon="6.03517">
        <ele>2676</ele>
        <time>2021-03-21T10:56:31.000Z</time>
      </trkpt>
      <trkpt lat="44.9851" lon="6.03517">
        <ele>2676.1999511719</ele>
        <time>2021-03-21T10:56:32.000Z</time>
      </trkpt>
      <trkpt lat="44.98509" lon="6.03517">
        <ele>2676.6000976562</ele>
        <time>2021-03-21T10:56:33.000Z</time>
      </trkpt>
      <trkpt lat="44.98509" lon="6.03518">
        <ele>2676.8000488281</ele>
        <time>2021-03-21T10:56:34.000Z</time>
      </trkpt>
      <trkpt lat="44.98508" lon="6.03518">
        <ele>2677.1999511719</ele>
        <time>2021-03-21T10:56:35.000Z</time>
      </trkpt>
      <trkpt lat="44.98508" lon="6.03518">
        <ele>2677.3999023438</ele>
        <time>2021-03-21T10:56:36.000Z</time>
      </trkpt>
      <trkpt lat="44.98507" lon="6.03518">
        <ele>2677.6000976562</ele>
        <time>2021-03-21T10:56:37.000Z</time>
      </trkpt>
      <trkpt lat="44.98507" lon="6.03519">
        <ele>2677.8000488281</ele>
        <time>2021-03-21T10:56:38.000Z</time>
      </trkpt>
      <trkpt lat="44.98507" lon="6.03519">
        <ele>2678</ele>
        <time>2021-03-21T10:56:39.000Z</time>
      </trkpt>
      <trkpt lat="44.98506" lon="6.03519">
        <ele>2678.1999511719</ele>
        <time>2021-03-21T10:56:40.000Z</time>
      </trkpt>
      <trkpt lat="44.98506" lon="6.03519">
        <ele>2678.3999023438</ele>
        <time>2021-03-21T10:56:41.000Z</time>
      </trkpt>
      <trkpt lat="44.98505" lon="6.03519">
        <ele>2678.8000488281</ele>
        <time>2021-03-21T10:56:42.000Z</time>
      </trkpt>
      <trkpt lat="44.98505" lon="6.0352">
        <ele>2679</ele>
        <time>2021-03-21T10:56:43.000Z</time>
      </trkpt>
      <trkpt lat="44.98504" lon="6.0352">
        <ele>2679.3999023438</ele>
        <time>2021-03-21T10:56:44.000Z</time>
      </trkpt>
      <trkpt lat="44.98504" lon="6.0352">
        <ele>2679.6000976562</ele>
        <time>2021-03-21T10:56:45.000Z</time>
      </trkpt>
      <trkpt lat="44.98503" lon="6.03521">
        <ele>2680</ele>
        <time>2021-03-21T10:56:46.000Z</time>
      </trkpt>
      <trkpt lat="44.98503" lon="6.03521">
        <ele>2680.1999511719</ele>
        <time>2021-03-21T10:56:47.000Z</time>
      </trkpt>
      <trkpt lat="44.98502" lon="6.03522">
        <ele>2680.6000976562</ele>
        <time>2021-03-21T10:56:48.000Z</time>
      </trkpt>
      <trkpt lat="44.98502" lon="6.03522">
        <ele>2681</ele>
        <time>2021-03-21T10:56:49.000Z</time>
      </trkpt>
      <trkpt lat="44.98502" lon="6.03523">
        <ele>2681</ele>
        <time>2021-03-21T10:56:50.000Z</time>
      </trkpt>
      <trkpt lat="44.98502" lon="6.03523">
        <ele>2680.8000488281</ele>
        <time>2021-03-21T10:56:51.000Z</time>
      </trkpt>
      <trkpt lat="44.98502" lon="6.03523">
        <ele>2680.8000488281</ele>
        <time>2021-03-21T10:56:52.000Z</time>
      </trkpt>
      <trkpt lat="44.98502" lon="6.03523">
        <ele>2681</ele>
        <time>2021-03-21T10:56:53.000Z</time>
      </trkpt>
      <trkpt lat="44.98502" lon="6.03523">
        <ele>2681</ele>
        <time>2021-03-21T10:56:54.000Z</time>
      </trkpt>
      <trkpt lat="44.98502" lon="6.03523">
        <ele>2681</ele>
        <time>2021-03-21T10:56:55.000Z</time>
      </trkpt>
      <trkpt lat="44.98501" lon="6.03523">
        <ele>2681.1999511719</ele>
        <time>2021-03-21T10:56:56.000Z</time>
      </trkpt>
      <trkpt lat="44.98501" lon="6.03524">
        <ele>2681.3999023438</ele>
        <time>2021-03-21T10:56:57.000Z</time>
      </trkpt>
      <trkpt lat="44.985" lon="6.03524">
        <ele>2681.8000488281</ele>
        <time>2021-03-21T10:56:58.000Z</time>
      </trkpt>
      <trkpt lat="44.985" lon="6.03524">
        <ele>2682</ele>
        <time>2021-03-21T10:56:59.000Z</time>
      </trkpt>
      <trkpt lat="44.98499" lon="6.03525">
        <ele>2682.6000976562</ele>
        <time>2021-03-21T10:57:00.000Z</time>
      </trkpt>
      <trkpt lat="44.98499" lon="6.03525">
        <ele>2682.8000488281</ele>
        <time>2021-03-21T10:57:01.000Z</time>
      </trkpt>
      <trkpt lat="44.98498" lon="6.03526">
        <ele>2683.1999511719</ele>
        <time>2021-03-21T10:57:02.000Z</time>
      </trkpt>
      <trkpt lat="44.98497" lon="6.03526">
        <ele>2683.8000488281</ele>
        <time>2021-03-21T10:57:03.000Z</time>
      </trkpt>
      <trkpt lat="44.98496" lon="6.03526">
        <ele>2684</ele>
        <time>2021-03-21T10:57:04.000Z</time>
      </trkpt>
      <trkpt lat="44.98496" lon="6.03526">
        <ele>2684.3999023438</ele>
        <time>2021-03-21T10:57:05.000Z</time>
      </trkpt>
      <trkpt lat="44.98495" lon="6.03526">
        <ele>2684.6000976562</ele>
        <time>2021-03-21T10:57:06.000Z</time>
      </trkpt>
      <trkpt lat="44.98495" lon="6.03526">
        <ele>2685</ele>
        <time>2021-03-21T10:57:07.000Z</time>
      </trkpt>
      <trkpt lat="44.98494" lon="6.03527">
        <ele>2685.3999023438</ele>
        <time>2021-03-21T10:57:08.000Z</time>
      </trkpt>
      <trkpt lat="44.98493" lon="6.03527">
        <ele>2686.1999511719</ele>
        <time>2021-03-21T10:57:09.000Z</time>
      </trkpt>
      <trkpt lat="44.98492" lon="6.03528">
        <ele>2686.6000976562</ele>
        <time>2021-03-21T10:57:10.000Z</time>
      </trkpt>
      <trkpt lat="44.98491" lon="6.03529">
        <ele>2687</ele>
        <time>2021-03-21T10:57:11.000Z</time>
      </trkpt>
      <trkpt lat="44.9849" lon="6.03529">
        <ele>2687.6000976562</ele>
        <time>2021-03-21T10:57:12.000Z</time>
      </trkpt>
      <trkpt lat="44.9849" lon="6.03529">
        <ele>2687.8000488281</ele>
        <time>2021-03-21T10:57:13.000Z</time>
      </trkpt>
      <trkpt lat="44.98489" lon="6.0353">
        <ele>2688.3999023438</ele>
        <time>2021-03-21T10:57:14.000Z</time>
      </trkpt>
      <trkpt lat="44.98488" lon="6.0353">
        <ele>2688.8000488281</ele>
        <time>2021-03-21T10:57:15.000Z</time>
      </trkpt>
      <trkpt lat="44.98487" lon="6.0353">
        <ele>2689.1999511719</ele>
        <time>2021-03-21T10:57:16.000Z</time>
      </trkpt>
      <trkpt lat="44.98486" lon="6.03531">
        <ele>2689.8000488281</ele>
        <time>2021-03-21T10:57:17.000Z</time>
      </trkpt>
      <trkpt lat="44.98486" lon="6.03531">
        <ele>2690.1999511719</ele>
        <time>2021-03-21T10:57:18.000Z</time>
      </trkpt>
      <trkpt lat="44.98485" lon="6.03531">
        <ele>2690.8000488281</ele>
        <time>2021-03-21T10:57:19.000Z</time>
      </trkpt>
      <trkpt lat="44.98484" lon="6.03531">
        <ele>2691.1999511719</ele>
        <time>2021-03-21T10:57:20.000Z</time>
      </trkpt>
      <trkpt lat="44.98483" lon="6.03531">
        <ele>2692</ele>
        <time>2021-03-21T10:57:21.000Z</time>
      </trkpt>
      <trkpt lat="44.98483" lon="6.03531">
        <ele>2692.1999511719</ele>
        <time>2021-03-21T10:57:22.000Z</time>
      </trkpt>
      <trkpt lat="44.98482" lon="6.03532">
        <ele>2693</ele>
        <time>2021-03-21T10:57:23.000Z</time>
      </trkpt>
      <trkpt lat="44.98482" lon="6.03532">
        <ele>2693.6000976562</ele>
        <time>2021-03-21T10:57:24.000Z</time>
      </trkpt>
      <trkpt lat="44.98481" lon="6.03532">
        <ele>2694.1999511719</ele>
        <time>2021-03-21T10:57:25.000Z</time>
      </trkpt>
      <trkpt lat="44.9848" lon="6.03533">
        <ele>2694.8000488281</ele>
        <time>2021-03-21T10:57:26.000Z</time>
      </trkpt>
      <trkpt lat="44.98479" lon="6.03533">
        <ele>2695.3999023438</ele>
        <time>2021-03-21T10:57:27.000Z</time>
      </trkpt>
      <trkpt lat="44.98479" lon="6.03533">
        <ele>2696.1999511719</ele>
        <time>2021-03-21T10:57:28.000Z</time>
      </trkpt>
      <trkpt lat="44.98479" lon="6.03533">
        <ele>2696.1999511719</ele>
        <time>2021-03-21T10:57:29.000Z</time>
      </trkpt>
      <trkpt lat="44.98478" lon="6.03533">
        <ele>2697</ele>
        <time>2021-03-21T10:57:30.000Z</time>
      </trkpt>
      <trkpt lat="44.98477" lon="6.03533">
        <ele>2697.1999511719</ele>
        <time>2021-03-21T10:57:31.000Z</time>
      </trkpt>
      <trkpt lat="44.98477" lon="6.03533">
        <ele>2698</ele>
        <time>2021-03-21T10:57:32.000Z</time>
      </trkpt>
      <trkpt lat="44.98476" lon="6.03534">
        <ele>2698.1999511719</ele>
        <time>2021-03-21T10:57:33.000Z</time>
      </trkpt>
      <trkpt lat="44.98475" lon="6.03534">
        <ele>2698.8000488281</ele>
        <time>2021-03-21T10:57:34.000Z</time>
      </trkpt>
      <trkpt lat="44.98475" lon="6.03534">
        <ele>2699</ele>
        <time>2021-03-21T10:57:35.000Z</time>
      </trkpt>
      <trkpt lat="44.98474" lon="6.03534">
        <ele>2699.6000976562</ele>
        <time>2021-03-21T10:57:36.000Z</time>
      </trkpt>
      <trkpt lat="44.98473" lon="6.03534">
        <ele>2700</ele>
        <time>2021-03-21T10:57:37.000Z</time>
      </trkpt>
      <trkpt lat="44.98472" lon="6.03534">
        <ele>2700.6000976562</ele>
        <time>2021-03-21T10:57:38.000Z</time>
      </trkpt>
      <trkpt lat="44.98471" lon="6.03534">
        <ele>2701.1999511719</ele>
        <time>2021-03-21T10:57:39.000Z</time>
      </trkpt>
      <trkpt lat="44.98471" lon="6.03534">
        <ele>2701.6000976562</ele>
        <time>2021-03-21T10:57:40.000Z</time>
      </trkpt>
      <trkpt lat="44.9847" lon="6.03534">
        <ele>2702.3999023438</ele>
        <time>2021-03-21T10:57:41.000Z</time>
      </trkpt>
      <trkpt lat="44.9847" lon="6.03534">
        <ele>2702.6000976562</ele>
        <time>2021-03-21T10:57:42.000Z</time>
      </trkpt>
      <trkpt lat="44.98468" lon="6.03533">
        <ele>2703.1999511719</ele>
        <time>2021-03-21T10:57:43.000Z</time>
      </trkpt>
      <trkpt lat="44.98468" lon="6.03533">
        <ele>2703.3999023438</ele>
        <time>2021-03-21T10:57:44.000Z</time>
      </trkpt>
      <trkpt lat="44.98467" lon="6.03533">
        <ele>2704.1999511719</ele>
        <time>2021-03-21T10:57:45.000Z</time>
      </trkpt>
      <trkpt lat="44.98467" lon="6.03533">
        <ele>2704.3999023438</ele>
        <time>2021-03-21T10:57:46.000Z</time>
      </trkpt>
      <trkpt lat="44.98466" lon="6.03533">
        <ele>2705</ele>
        <time>2021-03-21T10:57:47.000Z</time>
      </trkpt>
      <trkpt lat="44.98465" lon="6.03533">
        <ele>2705.3999023438</ele>
        <time>2021-03-21T10:57:48.000Z</time>
      </trkpt>
      <trkpt lat="44.98465" lon="6.03533">
        <ele>2705.6000976562</ele>
        <time>2021-03-21T10:57:49.000Z</time>
      </trkpt>
      <trkpt lat="44.98464" lon="6.03533">
        <ele>2706.3999023438</ele>
        <time>2021-03-21T10:57:50.000Z</time>
      </trkpt>
      <trkpt lat="44.98463" lon="6.03532">
        <ele>2706.8000488281</ele>
        <time>2021-03-21T10:57:51.000Z</time>
      </trkpt>
      <trkpt lat="44.98462" lon="6.03532">
        <ele>2707.6000976562</ele>
        <time>2021-03-21T10:57:52.000Z</time>
      </trkpt>
      <trkpt lat="44.98461" lon="6.03531">
        <ele>2708</ele>
        <time>2021-03-21T10:57:53.000Z</time>
      </trkpt>
      <trkpt lat="44.9846" lon="6.03531">
        <ele>2708.8000488281</ele>
        <time>2021-03-21T10:57:54.000Z</time>
      </trkpt>
      <trkpt lat="44.9846" lon="6.03531">
        <ele>2708.8000488281</ele>
        <time>2021-03-21T10:57:55.000Z</time>
      </trkpt>
      <trkpt lat="44.98459" lon="6.03531">
        <ele>2709.6000976562</ele>
        <time>2021-03-21T10:57:56.000Z</time>
      </trkpt>
      <trkpt lat="44.98459" lon="6.03531">
        <ele>2709.8000488281</ele>
        <time>2021-03-21T10:57:57.000Z</time>
      </trkpt>
      <trkpt lat="44.98458" lon="6.03531">
        <ele>2710.3999023438</ele>
        <time>2021-03-21T10:57:58.000Z</time>
      </trkpt>
      <trkpt lat="44.98457" lon="6.0353">
        <ele>2710.6000976562</ele>
        <time>2021-03-21T10:57:59.000Z</time>
      </trkpt>
      <trkpt lat="44.98457" lon="6.0353">
        <ele>2711</ele>
        <time>2021-03-21T10:58:00.000Z</time>
      </trkpt>
      <trkpt lat="44.98456" lon="6.03529">
        <ele>2711.3999023438</ele>
        <time>2021-03-21T10:58:01.000Z</time>
      </trkpt>
      <trkpt lat="44.98456" lon="6.03528">
        <ele>2711.6000976562</ele>
        <time>2021-03-21T10:58:02.000Z</time>
      </trkpt>
      <trkpt lat="44.98455" lon="6.03527">
        <ele>2712</ele>
        <time>2021-03-21T10:58:03.000Z</time>
      </trkpt>
      <trkpt lat="44.98455" lon="6.03527">
        <ele>2712.1999511719</ele>
        <time>2021-03-21T10:58:04.000Z</time>
      </trkpt>
      <trkpt lat="44.98454" lon="6.03526">
        <ele>2712.6000976562</ele>
        <time>2021-03-21T10:58:05.000Z</time>
      </trkpt>
      <trkpt lat="44.98454" lon="6.03525">
        <ele>2712.8000488281</ele>
        <time>2021-03-21T10:58:06.000Z</time>
      </trkpt>
      <trkpt lat="44.98453" lon="6.03525">
        <ele>2713.1999511719</ele>
        <time>2021-03-21T10:58:07.000Z</time>
      </trkpt>
      <trkpt lat="44.98453" lon="6.03524">
        <ele>2713.3999023438</ele>
        <time>2021-03-21T10:58:08.000Z</time>
      </trkpt>
      <trkpt lat="44.98452" lon="6.03523">
        <ele>2713.8000488281</ele>
        <time>2021-03-21T10:58:09.000Z</time>
      </trkpt>
      <trkpt lat="44.98452" lon="6.03523">
        <ele>2714</ele>
        <time>2021-03-21T10:58:10.000Z</time>
      </trkpt>
      <trkpt lat="44.98451" lon="6.03522">
        <ele>2714.3999023438</ele>
        <time>2021-03-21T10:58:11.000Z</time>
      </trkpt>
      <trkpt lat="44.98451" lon="6.03522">
        <ele>2714.6000976562</ele>
        <time>2021-03-21T10:58:12.000Z</time>
      </trkpt>
      <trkpt lat="44.98451" lon="6.03521">
        <ele>2714.8000488281</ele>
        <time>2021-03-21T10:58:13.000Z</time>
      </trkpt>
      <trkpt lat="44.9845" lon="6.0352">
        <ele>2715</ele>
        <time>2021-03-21T10:58:14.000Z</time>
      </trkpt>
      <trkpt lat="44.9845" lon="6.03519">
        <ele>2715.1999511719</ele>
        <time>2021-03-21T10:58:15.000Z</time>
      </trkpt>
      <trkpt lat="44.98449" lon="6.03519">
        <ele>2715.6000976562</ele>
        <time>2021-03-21T10:58:16.000Z</time>
      </trkpt>
      <trkpt lat="44.98449" lon="6.03518">
        <ele>2715.8000488281</ele>
        <time>2021-03-21T10:58:17.000Z</time>
      </trkpt>
      <trkpt lat="44.98449" lon="6.03517">
        <ele>2716.1999511719</ele>
        <time>2021-03-21T10:58:18.000Z</time>
      </trkpt>
      <trkpt lat="44.98448" lon="6.03516">
        <ele>2716.1999511719</ele>
        <time>2021-03-21T10:58:19.000Z</time>
      </trkpt>
      <trkpt lat="44.98448" lon="6.03516">
        <ele>2716.3999023438</ele>
        <time>2021-03-21T10:58:20.000Z</time>
      </trkpt>
      <trkpt lat="44.98448" lon="6.03516">
        <ele>2716.6000976562</ele>
        <time>2021-03-21T10:58:21.000Z</time>
      </trkpt>
      <trkpt lat="44.98447" lon="6.03516">
        <ele>2717</ele>
        <time>2021-03-21T10:58:22.000Z</time>
      </trkpt>
      <trkpt lat="44.98447" lon="6.03516">
        <ele>2717.1999511719</ele>
        <time>2021-03-21T10:58:23.000Z</time>
      </trkpt>
      <trkpt lat="44.98446" lon="6.03516">
        <ele>2717.6000976562</ele>
        <time>2021-03-21T10:58:24.000Z</time>
      </trkpt>
      <trkpt lat="44.98445" lon="6.03516">
        <ele>2717.8000488281</ele>
        <time>2021-03-21T10:58:25.000Z</time>
      </trkpt>
      <trkpt lat="44.98445" lon="6.03516">
        <ele>2717.8000488281</ele>
        <time>2021-03-21T10:58:26.000Z</time>
      </trkpt>
      <trkpt lat="44.98445" lon="6.03516">
        <ele>2717.8000488281</ele>
        <time>2021-03-21T10:58:27.000Z</time>
      </trkpt>
      <trkpt lat="44.98445" lon="6.03517">
        <ele>2717.8000488281</ele>
        <time>2021-03-21T10:58:28.000Z</time>
      </trkpt>
      <trkpt lat="44.98445" lon="6.03516">
        <ele>2717.8000488281</ele>
        <time>2021-03-21T10:58:29.000Z</time>
      </trkpt>
      <trkpt lat="44.98445" lon="6.03517">
        <ele>2717.6000976562</ele>
        <time>2021-03-21T10:58:30.000Z</time>
      </trkpt>
      <trkpt lat="44.98445" lon="6.03517">
        <ele>2717.6000976562</ele>
        <time>2021-03-21T10:58:31.000Z</time>
      </trkpt>
      <trkpt lat="44.98446" lon="6.03518">
        <ele>2717.3999023438</ele>
        <time>2021-03-21T10:58:32.000Z</time>
      </trkpt>
      <trkpt lat="44.98446" lon="6.03518">
        <ele>2717.3999023438</ele>
        <time>2021-03-21T10:58:33.000Z</time>
      </trkpt>
      <trkpt lat="44.98446" lon="6.03518">
        <ele>2717.3999023438</ele>
        <time>2021-03-21T10:58:34.000Z</time>
      </trkpt>
      <trkpt lat="44.98446" lon="6.03518">
        <ele>2717.1999511719</ele>
        <time>2021-03-21T10:58:35.000Z</time>
      </trkpt>
      <trkpt lat="44.98446" lon="6.03518">
        <ele>2717.1999511719</ele>
        <time>2021-03-21T10:58:36.000Z</time>
      </trkpt>
      <trkpt lat="44.98446" lon="6.03518">
        <ele>2717.1999511719</ele>
        <time>2021-03-21T10:58:37.000Z</time>
      </trkpt>
      <trkpt lat="44.98446" lon="6.03518">
        <ele>2717.1999511719</ele>
        <time>2021-03-21T10:58:38.000Z</time>
      </trkpt>
      <trkpt lat="44.98446" lon="6.03519">
        <ele>2717.1999511719</ele>
        <time>2021-03-21T10:58:39.000Z</time>
      </trkpt>
      <trkpt lat="44.98446" lon="6.03519">
        <ele>2717.1999511719</ele>
        <time>2021-03-21T10:58:40.000Z</time>
      </trkpt>
      <trkpt lat="44.98446" lon="6.03519">
        <ele>2717.1999511719</ele>
        <time>2021-03-21T10:58:41.000Z</time>
      </trkpt>
      <trkpt lat="44.98445" lon="6.0352">
        <ele>2717.3999023438</ele>
        <time>2021-03-21T10:58:42.000Z</time>
      </trkpt>
      <trkpt lat="44.98445" lon="6.0352">
        <ele>2717.3999023438</ele>
        <time>2021-03-21T10:58:43.000Z</time>
      </trkpt>
      <trkpt lat="44.98445" lon="6.0352">
        <ele>2717.3999023438</ele>
        <time>2021-03-21T10:58:44.000Z</time>
      </trkpt>
      <trkpt lat="44.98446" lon="6.0352">
        <ele>2717.1999511719</ele>
        <time>2021-03-21T10:58:45.000Z</time>
      </trkpt>
      <trkpt lat="44.98446" lon="6.0352">
        <ele>2717.1999511719</ele>
        <time>2021-03-21T10:58:46.000Z</time>
      </trkpt>
      <trkpt lat="44.98446" lon="6.03519">
        <ele>2717.1999511719</ele>
        <time>2021-03-21T10:58:47.000Z</time>
      </trkpt>
      <trkpt lat="44.98446" lon="6.03519">
        <ele>2717.1999511719</ele>
        <time>2021-03-21T10:58:48.000Z</time>
      </trkpt>
      <trkpt lat="44.98446" lon="6.03519">
        <ele>2717</ele>
        <time>2021-03-21T10:58:49.000Z</time>
      </trkpt>
      <trkpt lat="44.98446" lon="6.03519">
        <ele>2717</ele>
        <time>2021-03-21T10:58:50.000Z</time>
      </trkpt>
      <trkpt lat="44.98446" lon="6.03519">
        <ele>2717</ele>
        <time>2021-03-21T10:58:51.000Z</time>
      </trkpt>
      <trkpt lat="44.98446" lon="6.03519">
        <ele>2717</ele>
        <time>2021-03-21T10:58:52.000Z</time>
      </trkpt>
      <trkpt lat="44.98447" lon="6.03519">
        <ele>2716.8000488281</ele>
        <time>2021-03-21T10:58:53.000Z</time>
      </trkpt>
      <trkpt lat="44.98447" lon="6.03519">
        <ele>2716.8000488281</ele>
        <time>2021-03-21T10:58:54.000Z</time>
      </trkpt>
      <trkpt lat="44.98447" lon="6.03519">
        <ele>2716.8000488281</ele>
        <time>2021-03-21T10:58:55.000Z</time>
      </trkpt>
      <trkpt lat="44.98447" lon="6.03519">
        <ele>2716.8000488281</ele>
        <time>2021-03-21T10:58:56.000Z</time>
      </trkpt>
      <trkpt lat="44.98447" lon="6.03519">
        <ele>2716.8000488281</ele>
        <time>2021-03-21T10:58:57.000Z</time>
      </trkpt>
      <trkpt lat="44.98447" lon="6.03519">
        <ele>2716.6000976562</ele>
        <time>2021-03-21T10:58:58.000Z</time>
      </trkpt>
      <trkpt lat="44.98447" lon="6.0352">
        <ele>2716.6000976562</ele>
        <time>2021-03-21T10:58:59.000Z</time>
      </trkpt>
      <trkpt lat="44.98447" lon="6.0352">
        <ele>2716.3999023438</ele>
        <time>2021-03-21T10:59:00.000Z</time>
      </trkpt>
      <trkpt lat="44.98448" lon="6.03519">
        <ele>2716.3999023438</ele>
        <time>2021-03-21T10:59:01.000Z</time>
      </trkpt>
      <trkpt lat="44.98448" lon="6.03519">
        <ele>2716.1999511719</ele>
        <time>2021-03-21T10:59:02.000Z</time>
      </trkpt>
      <trkpt lat="44.98448" lon="6.03519">
        <ele>2716</ele>
        <time>2021-03-21T10:59:03.000Z</time>
      </trkpt>
      <trkpt lat="44.98448" lon="6.03519">
        <ele>2716</ele>
        <time>2021-03-21T10:59:04.000Z</time>
      </trkpt>
      <trkpt lat="44.98448" lon="6.03519">
        <ele>2716.1999511719</ele>
        <time>2021-03-21T10:59:05.000Z</time>
      </trkpt>
      <trkpt lat="44.98448" lon="6.03519">
        <ele>2716</ele>
        <time>2021-03-21T10:59:06.000Z</time>
      </trkpt>
      <trkpt lat="44.98449" lon="6.0352">
        <ele>2715.8000488281</ele>
        <time>2021-03-21T10:59:07.000Z</time>
      </trkpt>
      <trkpt lat="44.98449" lon="6.0352">
        <ele>2715.8000488281</ele>
        <time>2021-03-21T10:59:08.000Z</time>
      </trkpt>
      <trkpt lat="44.98449" lon="6.0352">
        <ele>2715.8000488281</ele>
        <time>2021-03-21T10:59:09.000Z</time>
      </trkpt>
      <trkpt lat="44.98449" lon="6.03519">
        <ele>2715.8000488281</ele>
        <time>2021-03-21T10:59:10.000Z</time>
      </trkpt>
      <trkpt lat="44.98449" lon="6.03519">
        <ele>2715.8000488281</ele>
        <time>2021-03-21T10:59:11.000Z</time>
      </trkpt>
      <trkpt lat="44.98449" lon="6.03519">
        <ele>2715.6000976562</ele>
        <time>2021-03-21T10:59:12.000Z</time>
      </trkpt>
      <trkpt lat="44.9845" lon="6.03519">
        <ele>2715.3999023438</ele>
        <time>2021-03-21T10:59:13.000Z</time>
      </trkpt>
      <trkpt lat="44.9845" lon="6.03519">
        <ele>2715.3999023438</ele>
        <time>2021-03-21T10:59:14.000Z</time>
      </trkpt>
      <trkpt lat="44.9845" lon="6.03518">
        <ele>2715.3999023438</ele>
        <time>2021-03-21T10:59:15.000Z</time>
      </trkpt>
      <trkpt lat="44.9845" lon="6.03518">
        <ele>2715.6000976562</ele>
        <time>2021-03-21T10:59:16.000Z</time>
      </trkpt>
      <trkpt lat="44.9845" lon="6.03518">
        <ele>2715.6000976562</ele>
        <time>2021-03-21T10:59:17.000Z</time>
      </trkpt>
      <trkpt lat="44.9845" lon="6.03518">
        <ele>2715.6000976562</ele>
        <time>2021-03-21T10:59:18.000Z</time>
      </trkpt>
      <trkpt lat="44.9845" lon="6.03518">
        <ele>2715.6000976562</ele>
        <time>2021-03-21T10:59:19.000Z</time>
      </trkpt>
      <trkpt lat="44.9845" lon="6.03518">
        <ele>2715.6000976562</ele>
        <time>2021-03-21T10:59:20.000Z</time>
      </trkpt>
      <trkpt lat="44.9845" lon="6.03518">
        <ele>2715.3999023438</ele>
        <time>2021-03-21T10:59:21.000Z</time>
      </trkpt>
      <trkpt lat="44.9845" lon="6.03518">
        <ele>2715.1999511719</ele>
        <time>2021-03-21T10:59:22.000Z</time>
      </trkpt>
      <trkpt lat="44.9845" lon="6.03518">
        <ele>2715.1999511719</ele>
        <time>2021-03-21T10:59:23.000Z</time>
      </trkpt>
      <trkpt lat="44.98451" lon="6.03518">
        <ele>2715</ele>
        <time>2021-03-21T10:59:24.000Z</time>
      </trkpt>
      <trkpt lat="44.98451" lon="6.03519">
        <ele>2715</ele>
        <time>2021-03-21T10:59:25.000Z</time>
      </trkpt>
      <trkpt lat="44.98451" lon="6.03519">
        <ele>2715</ele>
        <time>2021-03-21T10:59:26.000Z</time>
      </trkpt>
      <trkpt lat="44.98451" lon="6.03519">
        <ele>2715</ele>
        <time>2021-03-21T10:59:27.000Z</time>
      </trkpt>
      <trkpt lat="44.98451" lon="6.03519">
        <ele>2715</ele>
        <time>2021-03-21T10:59:28.000Z</time>
      </trkpt>
      <trkpt lat="44.98451" lon="6.03519">
        <ele>2715</ele>
        <time>2021-03-21T10:59:29.000Z</time>
      </trkpt>
      <trkpt lat="44.98451" lon="6.03519">
        <ele>2715</ele>
        <time>2021-03-21T10:59:30.000Z</time>
      </trkpt>
      <trkpt lat="44.98451" lon="6.03519">
        <ele>2715</ele>
        <time>2021-03-21T10:59:31.000Z</time>
      </trkpt>
      <trkpt lat="44.98451" lon="6.03519">
        <ele>2715</ele>
        <time>2021-03-21T10:59:32.000Z</time>
      </trkpt>
      <trkpt lat="44.9845" lon="6.03519">
        <ele>2715</ele>
        <time>2021-03-21T10:59:33.000Z</time>
      </trkpt>
      <trkpt lat="44.9845" lon="6.03519">
        <ele>2715</ele>
        <time>2021-03-21T10:59:34.000Z</time>
      </trkpt>
      <trkpt lat="44.9845" lon="6.03519">
        <ele>2715</ele>
        <time>2021-03-21T10:59:35.000Z</time>
      </trkpt>
      <trkpt lat="44.9845" lon="6.03519">
        <ele>2715</ele>
        <time>2021-03-21T10:59:36.000Z</time>
      </trkpt>
      <trkpt lat="44.9845" lon="6.03519">
        <ele>2715.1999511719</ele>
        <time>2021-03-21T10:59:37.000Z</time>
      </trkpt>
      <trkpt lat="44.9845" lon="6.03519">
        <ele>2715.1999511719</ele>
        <time>2021-03-21T10:59:38.000Z</time>
      </trkpt>
      <trkpt lat="44.98451" lon="6.03519">
        <ele>2715</ele>
        <time>2021-03-21T10:59:39.000Z</time>
      </trkpt>
      <trkpt lat="44.9845" lon="6.03519">
        <ele>2715.1999511719</ele>
        <time>2021-03-21T10:59:40.000Z</time>
      </trkpt>
      <trkpt lat="44.98451" lon="6.03519">
        <ele>2715</ele>
        <time>2021-03-21T10:59:41.000Z</time>
      </trkpt>
      <trkpt lat="44.98451" lon="6.03519">
        <ele>2715</ele>
        <time>2021-03-21T10:59:42.000Z</time>
      </trkpt>
      <trkpt lat="44.9845" lon="6.03519">
        <ele>2715</ele>
        <time>2021-03-21T10:59:43.000Z</time>
      </trkpt>
      <trkpt lat="44.9845" lon="6.03519">
        <ele>2715</ele>
        <time>2021-03-21T10:59:44.000Z</time>
      </trkpt>
      <trkpt lat="44.9845" lon="6.03519">
        <ele>2715</ele>
        <time>2021-03-21T10:59:45.000Z</time>
      </trkpt>
      <trkpt lat="44.98451" lon="6.0352">
        <ele>2715</ele>
        <time>2021-03-21T10:59:46.000Z</time>
      </trkpt>
      <trkpt lat="44.98451" lon="6.0352">
        <ele>2715</ele>
        <time>2021-03-21T10:59:47.000Z</time>
      </trkpt>
      <trkpt lat="44.98451" lon="6.03519">
        <ele>2715</ele>
        <time>2021-03-21T10:59:48.000Z</time>
      </trkpt>
      <trkpt lat="44.98451" lon="6.03519">
        <ele>2715</ele>
        <time>2021-03-21T10:59:49.000Z</time>
      </trkpt>
      <trkpt lat="44.9845" lon="6.03519">
        <ele>2715</ele>
        <time>2021-03-21T10:59:50.000Z</time>
      </trkpt>
      <trkpt lat="44.9845" lon="6.03519">
        <ele>2715</ele>
        <time>2021-03-21T10:59:51.000Z</time>
      </trkpt>
      <trkpt lat="44.9845" lon="6.03518">
        <ele>2715.1999511719</ele>
        <time>2021-03-21T10:59:52.000Z</time>
      </trkpt>
      <trkpt lat="44.9845" lon="6.03518">
        <ele>2715.1999511719</ele>
        <time>2021-03-21T10:59:53.000Z</time>
      </trkpt>
      <trkpt lat="44.9845" lon="6.03518">
        <ele>2715.3999023438</ele>
        <time>2021-03-21T10:59:54.000Z</time>
      </trkpt>
      <trkpt lat="44.9845" lon="6.03517">
        <ele>2715.3999023438</ele>
        <time>2021-03-21T10:59:55.000Z</time>
      </trkpt>
      <trkpt lat="44.9845" lon="6.03517">
        <ele>2715.6000976562</ele>
        <time>2021-03-21T10:59:56.000Z</time>
      </trkpt>
      <trkpt lat="44.9845" lon="6.03517">
        <ele>2715.6000976562</ele>
        <time>2021-03-21T10:59:57.000Z</time>
      </trkpt>
      <trkpt lat="44.9845" lon="6.03517">
        <ele>2715.6000976562</ele>
        <time>2021-03-21T10:59:58.000Z</time>
      </trkpt>
      <trkpt lat="44.98449" lon="6.03517">
        <ele>2715.8000488281</ele>
        <time>2021-03-21T10:59:59.000Z</time>
      </trkpt>
      <trkpt lat="44.98449" lon="6.03518">
        <ele>2715.8000488281</ele>
        <time>2021-03-21T11:00:00.000Z</time>
      </trkpt>
      <trkpt lat="44.98449" lon="6.03518">
        <ele>2716</ele>
        <time>2021-03-21T11:00:01.000Z</time>
      </trkpt>
      <trkpt lat="44.98448" lon="6.03519">
        <ele>2716.1999511719</ele>
        <time>2021-03-21T11:00:02.000Z</time>
      </trkpt>
      <trkpt lat="44.98447" lon="6.03519">
        <ele>2716.6000976562</ele>
        <time>2021-03-21T11:00:03.000Z</time>
      </trkpt>
      <trkpt lat="44.98447" lon="6.0352">
        <ele>2716.8000488281</ele>
        <time>2021-03-21T11:00:04.000Z</time>
      </trkpt>
      <trkpt lat="44.98446" lon="6.03521">
        <ele>2717.1999511719</ele>
        <time>2021-03-21T11:00:05.000Z</time>
      </trkpt>
      <trkpt lat="44.98445" lon="6.03521">
        <ele>2717.3999023438</ele>
        <time>2021-03-21T11:00:06.000Z</time>
      </trkpt>
      <trkpt lat="44.98444" lon="6.03522">
        <ele>2717.6000976562</ele>
        <time>2021-03-21T11:00:07.000Z</time>
      </trkpt>
      <trkpt lat="44.98444" lon="6.03523">
        <ele>2717.8000488281</ele>
        <time>2021-03-21T11:00:08.000Z</time>
      </trkpt>
      <trkpt lat="44.98443" lon="6.03524">
        <ele>2718.1999511719</ele>
        <time>2021-03-21T11:00:09.000Z</time>
      </trkpt>
      <trkpt lat="44.98442" lon="6.03525">
        <ele>2718.1999511719</ele>
        <time>2021-03-21T11:00:10.000Z</time>
      </trkpt>
      <trkpt lat="44.98441" lon="6.03526">
        <ele>2718.3999023438</ele>
        <time>2021-03-21T11:00:11.000Z</time>
      </trkpt>
      <trkpt lat="44.98441" lon="6.03527">
        <ele>2719.1999511719</ele>
        <time>2021-03-21T11:00:12.000Z</time>
      </trkpt>
      <trkpt lat="44.9844" lon="6.03528">
        <ele>2719.6000976562</ele>
        <time>2021-03-21T11:00:13.000Z</time>
      </trkpt>
      <trkpt lat="44.98439" lon="6.03529">
        <ele>2720.6000976562</ele>
        <time>2021-03-21T11:00:14.000Z</time>
      </trkpt>
      <trkpt lat="44.98439" lon="6.03529">
        <ele>2721.1999511719</ele>
        <time>2021-03-21T11:00:15.000Z</time>
      </trkpt>
      <trkpt lat="44.98438" lon="6.0353">
        <ele>2721.8000488281</ele>
        <time>2021-03-21T11:00:16.000Z</time>
      </trkpt>
      <trkpt lat="44.98437" lon="6.03531">
        <ele>2722.6000976562</ele>
        <time>2021-03-21T11:00:17.000Z</time>
      </trkpt>
      <trkpt lat="44.98437" lon="6.03532">
        <ele>2722.6000976562</ele>
        <time>2021-03-21T11:00:18.000Z</time>
      </trkpt>
      <trkpt lat="44.98437" lon="6.03533">
        <ele>2723.1999511719</ele>
        <time>2021-03-21T11:00:19.000Z</time>
      </trkpt>
      <trkpt lat="44.98436" lon="6.03533">
        <ele>2723.8000488281</ele>
        <time>2021-03-21T11:00:20.000Z</time>
      </trkpt>
      <trkpt lat="44.98436" lon="6.03534">
        <ele>2724</ele>
        <time>2021-03-21T11:00:21.000Z</time>
      </trkpt>
      <trkpt lat="44.98436" lon="6.03535">
        <ele>2724.3999023438</ele>
        <time>2021-03-21T11:00:22.000Z</time>
      </trkpt>
      <trkpt lat="44.98435" lon="6.03535">
        <ele>2724.6000976562</ele>
        <time>2021-03-21T11:00:23.000Z</time>
      </trkpt>
      <trkpt lat="44.98435" lon="6.03535">
        <ele>2724.8000488281</ele>
        <time>2021-03-21T11:00:24.000Z</time>
      </trkpt>
      <trkpt lat="44.98435" lon="6.03536">
        <ele>2725.3999023438</ele>
        <time>2021-03-21T11:00:25.000Z</time>
      </trkpt>
      <trkpt lat="44.98435" lon="6.03537">
        <ele>2725.3999023438</ele>
        <time>2021-03-21T11:00:26.000Z</time>
      </trkpt>
      <trkpt lat="44.98434" lon="6.03537">
        <ele>2726</ele>
        <time>2021-03-21T11:00:27.000Z</time>
      </trkpt>
      <trkpt lat="44.98434" lon="6.03537">
        <ele>2726</ele>
        <time>2021-03-21T11:00:28.000Z</time>
      </trkpt>
      <trkpt lat="44.98434" lon="6.03537">
        <ele>2726.3999023438</ele>
        <time>2021-03-21T11:00:29.000Z</time>
      </trkpt>
      <trkpt lat="44.98434" lon="6.03537">
        <ele>2726.3999023438</ele>
        <time>2021-03-21T11:00:30.000Z</time>
      </trkpt>
      <trkpt lat="44.98433" lon="6.03536">
        <ele>2726.6000976562</ele>
        <time>2021-03-21T11:00:31.000Z</time>
      </trkpt>
      <trkpt lat="44.98433" lon="6.03536">
        <ele>2726.8000488281</ele>
        <time>2021-03-21T11:00:32.000Z</time>
      </trkpt>
      <trkpt lat="44.98432" lon="6.03535">
        <ele>2727</ele>
        <time>2021-03-21T11:00:33.000Z</time>
      </trkpt>
      <trkpt lat="44.98432" lon="6.03533">
        <ele>2727.1999511719</ele>
        <time>2021-03-21T11:00:34.000Z</time>
      </trkpt>
      <trkpt lat="44.98431" lon="6.03532">
        <ele>2727.3999023438</ele>
        <time>2021-03-21T11:00:35.000Z</time>
      </trkpt>
      <trkpt lat="44.98431" lon="6.03532">
        <ele>2727.3999023438</ele>
        <time>2021-03-21T11:00:36.000Z</time>
      </trkpt>
      <trkpt lat="44.9843" lon="6.0353">
        <ele>2727.8000488281</ele>
        <time>2021-03-21T11:00:37.000Z</time>
      </trkpt>
      <trkpt lat="44.9843" lon="6.03529">
        <ele>2727.8000488281</ele>
        <time>2021-03-21T11:00:38.000Z</time>
      </trkpt>
      <trkpt lat="44.98429" lon="6.03528">
        <ele>2728.1999511719</ele>
        <time>2021-03-21T11:00:39.000Z</time>
      </trkpt>
      <trkpt lat="44.98429" lon="6.03527">
        <ele>2728.3999023438</ele>
        <time>2021-03-21T11:00:40.000Z</time>
      </trkpt>
      <trkpt lat="44.98428" lon="6.03527">
        <ele>2728.3999023438</ele>
        <time>2021-03-21T11:00:41.000Z</time>
      </trkpt>
      <trkpt lat="44.98428" lon="6.03526">
        <ele>2728.8000488281</ele>
        <time>2021-03-21T11:00:42.000Z</time>
      </trkpt>
      <trkpt lat="44.98427" lon="6.03525">
        <ele>2728.6000976562</ele>
        <time>2021-03-21T11:00:43.000Z</time>
      </trkpt>
      <trkpt lat="44.98427" lon="6.03524">
        <ele>2728.8000488281</ele>
        <time>2021-03-21T11:00:44.000Z</time>
      </trkpt>
      <trkpt lat="44.98427" lon="6.03524">
        <ele>2729</ele>
        <time>2021-03-21T11:00:45.000Z</time>
      </trkpt>
      <trkpt lat="44.98426" lon="6.03523">
        <ele>2729</ele>
        <time>2021-03-21T11:00:46.000Z</time>
      </trkpt>
      <trkpt lat="44.98426" lon="6.03522">
        <ele>2729</ele>
        <time>2021-03-21T11:00:47.000Z</time>
      </trkpt>
      <trkpt lat="44.98426" lon="6.03522">
        <ele>2729</ele>
        <time>2021-03-21T11:00:48.000Z</time>
      </trkpt>
      <trkpt lat="44.98426" lon="6.03522">
        <ele>2729</ele>
        <time>2021-03-21T11:00:49.000Z</time>
      </trkpt>
      <trkpt lat="44.98426" lon="6.03522">
        <ele>2728.8000488281</ele>
        <time>2021-03-21T11:00:50.000Z</time>
      </trkpt>
      <trkpt lat="44.98427" lon="6.03522">
        <ele>2728.6000976562</ele>
        <time>2021-03-21T11:00:51.000Z</time>
      </trkpt>
      <trkpt lat="44.98427" lon="6.03522">
        <ele>2728.3999023438</ele>
        <time>2021-03-21T11:00:52.000Z</time>
      </trkpt>
      <trkpt lat="44.98427" lon="6.03521">
        <ele>2728.1999511719</ele>
        <time>2021-03-21T11:00:53.000Z</time>
      </trkpt>
      <trkpt lat="44.98427" lon="6.03521">
        <ele>2728</ele>
        <time>2021-03-21T11:00:54.000Z</time>
      </trkpt>
      <trkpt lat="44.98427" lon="6.03521">
        <ele>2728</ele>
        <time>2021-03-21T11:00:55.000Z</time>
      </trkpt>
      <trkpt lat="44.98427" lon="6.0352">
        <ele>2728</ele>
        <time>2021-03-21T11:00:56.000Z</time>
      </trkpt>
      <trkpt lat="44.98427" lon="6.03519">
        <ele>2727.8000488281</ele>
        <time>2021-03-21T11:00:57.000Z</time>
      </trkpt>
      <trkpt lat="44.98427" lon="6.03518">
        <ele>2727.8000488281</ele>
        <time>2021-03-21T11:00:58.000Z</time>
      </trkpt>
      <trkpt lat="44.98427" lon="6.03517">
        <ele>2727.8000488281</ele>
        <time>2021-03-21T11:00:59.000Z</time>
      </trkpt>
      <trkpt lat="44.98426" lon="6.03516">
        <ele>2727.8000488281</ele>
        <time>2021-03-21T11:01:00.000Z</time>
      </trkpt>
      <trkpt lat="44.98426" lon="6.03515">
        <ele>2727.8000488281</ele>
        <time>2021-03-21T11:01:01.000Z</time>
      </trkpt>
      <trkpt lat="44.98426" lon="6.03514">
        <ele>2727.8000488281</ele>
        <time>2021-03-21T11:01:02.000Z</time>
      </trkpt>
      <trkpt lat="44.98425" lon="6.03513">
        <ele>2728</ele>
        <time>2021-03-21T11:01:03.000Z</time>
      </trkpt>
      <trkpt lat="44.98425" lon="6.03512">
        <ele>2727.8000488281</ele>
        <time>2021-03-21T11:01:04.000Z</time>
      </trkpt>
      <trkpt lat="44.98424" lon="6.03511">
        <ele>2727.6000976562</ele>
        <time>2021-03-21T11:01:05.000Z</time>
      </trkpt>
      <trkpt lat="44.98424" lon="6.0351">
        <ele>2727.8000488281</ele>
        <time>2021-03-21T11:01:06.000Z</time>
      </trkpt>
      <trkpt lat="44.98423" lon="6.03509">
        <ele>2727.8000488281</ele>
        <time>2021-03-21T11:01:07.000Z</time>
      </trkpt>
      <trkpt lat="44.98423" lon="6.03508">
        <ele>2727.8000488281</ele>
        <time>2021-03-21T11:01:08.000Z</time>
      </trkpt>
      <trkpt lat="44.98423" lon="6.03507">
        <ele>2727.6000976562</ele>
        <time>2021-03-21T11:01:09.000Z</time>
      </trkpt>
      <trkpt lat="44.98423" lon="6.03506">
        <ele>2727.8000488281</ele>
        <time>2021-03-21T11:01:10.000Z</time>
      </trkpt>
      <trkpt lat="44.98422" lon="6.03505">
        <ele>2727.8000488281</ele>
        <time>2021-03-21T11:01:11.000Z</time>
      </trkpt>
      <trkpt lat="44.98421" lon="6.03504">
        <ele>2728.1999511719</ele>
        <time>2021-03-21T11:01:12.000Z</time>
      </trkpt>
      <trkpt lat="44.98421" lon="6.03504">
        <ele>2728.1999511719</ele>
        <time>2021-03-21T11:01:13.000Z</time>
      </trkpt>
      <trkpt lat="44.98421" lon="6.03503">
        <ele>2728.3999023438</ele>
        <time>2021-03-21T11:01:14.000Z</time>
      </trkpt>
      <trkpt lat="44.9842" lon="6.03502">
        <ele>2728.3999023438</ele>
        <time>2021-03-21T11:01:15.000Z</time>
      </trkpt>
      <trkpt lat="44.9842" lon="6.03501">
        <ele>2728.1999511719</ele>
        <time>2021-03-21T11:01:16.000Z</time>
      </trkpt>
      <trkpt lat="44.9842" lon="6.035">
        <ele>2728.3999023438</ele>
        <time>2021-03-21T11:01:17.000Z</time>
      </trkpt>
      <trkpt lat="44.9842" lon="6.035">
        <ele>2728.1999511719</ele>
        <time>2021-03-21T11:01:18.000Z</time>
      </trkpt>
      <trkpt lat="44.98419" lon="6.03499">
        <ele>2728.3999023438</ele>
        <time>2021-03-21T11:01:19.000Z</time>
      </trkpt>
      <trkpt lat="44.98419" lon="6.03498">
        <ele>2728.3999023438</ele>
        <time>2021-03-21T11:01:20.000Z</time>
      </trkpt>
      <trkpt lat="44.98419" lon="6.03497">
        <ele>2728.3999023438</ele>
        <time>2021-03-21T11:01:21.000Z</time>
      </trkpt>
      <trkpt lat="44.98419" lon="6.03497">
        <ele>2728.3999023438</ele>
        <time>2021-03-21T11:01:22.000Z</time>
      </trkpt>
      <trkpt lat="44.98418" lon="6.03496">
        <ele>2728.3999023438</ele>
        <time>2021-03-21T11:01:23.000Z</time>
      </trkpt>
      <trkpt lat="44.98418" lon="6.03496">
        <ele>2728.3999023438</ele>
        <time>2021-03-21T11:01:24.000Z</time>
      </trkpt>
      <trkpt lat="44.98419" lon="6.03495">
        <ele>2728</ele>
        <time>2021-03-21T11:01:25.000Z</time>
      </trkpt>
      <trkpt lat="44.98418" lon="6.03494">
        <ele>2728.1999511719</ele>
        <time>2021-03-21T11:01:26.000Z</time>
      </trkpt>
      <trkpt lat="44.98418" lon="6.03493">
        <ele>2728</ele>
        <time>2021-03-21T11:01:27.000Z</time>
      </trkpt>
      <trkpt lat="44.98418" lon="6.03492">
        <ele>2728</ele>
        <time>2021-03-21T11:01:28.000Z</time>
      </trkpt>
      <trkpt lat="44.98418" lon="6.03492">
        <ele>2727.8000488281</ele>
        <time>2021-03-21T11:01:29.000Z</time>
      </trkpt>
      <trkpt lat="44.98418" lon="6.03491">
        <ele>2727.8000488281</ele>
        <time>2021-03-21T11:01:30.000Z</time>
      </trkpt>
      <trkpt lat="44.98417" lon="6.03491">
        <ele>2728</ele>
        <time>2021-03-21T11:01:31.000Z</time>
      </trkpt>
      <trkpt lat="44.98417" lon="6.0349">
        <ele>2728.1999511719</ele>
        <time>2021-03-21T11:01:32.000Z</time>
      </trkpt>
      <trkpt lat="44.98417" lon="6.03489">
        <ele>2728</ele>
        <time>2021-03-21T11:01:33.000Z</time>
      </trkpt>
      <trkpt lat="44.98417" lon="6.03488">
        <ele>2727.8000488281</ele>
        <time>2021-03-21T11:01:34.000Z</time>
      </trkpt>
      <trkpt lat="44.98417" lon="6.03488">
        <ele>2728</ele>
        <time>2021-03-21T11:01:35.000Z</time>
      </trkpt>
      <trkpt lat="44.98417" lon="6.03487">
        <ele>2727.8000488281</ele>
        <time>2021-03-21T11:01:36.000Z</time>
      </trkpt>
      <trkpt lat="44.98417" lon="6.03487">
        <ele>2727.8000488281</ele>
        <time>2021-03-21T11:01:37.000Z</time>
      </trkpt>
      <trkpt lat="44.98417" lon="6.03486">
        <ele>2727.8000488281</ele>
        <time>2021-03-21T11:01:38.000Z</time>
      </trkpt>
      <trkpt lat="44.98416" lon="6.03485">
        <ele>2727.8000488281</ele>
        <time>2021-03-21T11:01:39.000Z</time>
      </trkpt>
      <trkpt lat="44.98417" lon="6.03485">
        <ele>2727.6000976562</ele>
        <time>2021-03-21T11:01:40.000Z</time>
      </trkpt>
      <trkpt lat="44.98416" lon="6.03484">
        <ele>2727.8000488281</ele>
        <time>2021-03-21T11:01:41.000Z</time>
      </trkpt>
      <trkpt lat="44.98416" lon="6.03483">
        <ele>2728</ele>
        <time>2021-03-21T11:01:42.000Z</time>
      </trkpt>
      <trkpt lat="44.98416" lon="6.03482">
        <ele>2728</ele>
        <time>2021-03-21T11:01:43.000Z</time>
      </trkpt>
      <trkpt lat="44.98416" lon="6.03481">
        <ele>2728</ele>
        <time>2021-03-21T11:01:44.000Z</time>
      </trkpt>
      <trkpt lat="44.98415" lon="6.0348">
        <ele>2728.3999023438</ele>
        <time>2021-03-21T11:01:45.000Z</time>
      </trkpt>
      <trkpt lat="44.98415" lon="6.03479">
        <ele>2728.3999023438</ele>
        <time>2021-03-21T11:01:46.000Z</time>
      </trkpt>
      <trkpt lat="44.98414" lon="6.03478">
        <ele>2728.8000488281</ele>
        <time>2021-03-21T11:01:47.000Z</time>
      </trkpt>
      <trkpt lat="44.98413" lon="6.03478">
        <ele>2729</ele>
        <time>2021-03-21T11:01:48.000Z</time>
      </trkpt>
      <trkpt lat="44.98413" lon="6.03477">
        <ele>2729</ele>
        <time>2021-03-21T11:01:49.000Z</time>
      </trkpt>
      <trkpt lat="44.98413" lon="6.03476">
        <ele>2729.1999511719</ele>
        <time>2021-03-21T11:01:50.000Z</time>
      </trkpt>
      <trkpt lat="44.98413" lon="6.03475">
        <ele>2729.3999023438</ele>
        <time>2021-03-21T11:01:51.000Z</time>
      </trkpt>
      <trkpt lat="44.98412" lon="6.03474">
        <ele>2729.6000976562</ele>
        <time>2021-03-21T11:01:52.000Z</time>
      </trkpt>
      <trkpt lat="44.98412" lon="6.03474">
        <ele>2729.3999023438</ele>
        <time>2021-03-21T11:01:53.000Z</time>
      </trkpt>
      <trkpt lat="44.98412" lon="6.03473">
        <ele>2729.6000976562</ele>
        <time>2021-03-21T11:01:54.000Z</time>
      </trkpt>
      <trkpt lat="44.98412" lon="6.03472">
        <ele>2729.3999023438</ele>
        <time>2021-03-21T11:01:55.000Z</time>
      </trkpt>
      <trkpt lat="44.98411" lon="6.03472">
        <ele>2729.6000976562</ele>
        <time>2021-03-21T11:01:56.000Z</time>
      </trkpt>
      <trkpt lat="44.98412" lon="6.03471">
        <ele>2729.6000976562</ele>
        <time>2021-03-21T11:01:57.000Z</time>
      </trkpt>
      <trkpt lat="44.98411" lon="6.0347">
        <ele>2729.6000976562</ele>
        <time>2021-03-21T11:01:58.000Z</time>
      </trkpt>
      <trkpt lat="44.98411" lon="6.03469">
        <ele>2729.6000976562</ele>
        <time>2021-03-21T11:01:59.000Z</time>
      </trkpt>
      <trkpt lat="44.98411" lon="6.03468">
        <ele>2729.6000976562</ele>
        <time>2021-03-21T11:02:00.000Z</time>
      </trkpt>
      <trkpt lat="44.98411" lon="6.03468">
        <ele>2729.8000488281</ele>
        <time>2021-03-21T11:02:01.000Z</time>
      </trkpt>
      <trkpt lat="44.9841" lon="6.03467">
        <ele>2730</ele>
        <time>2021-03-21T11:02:02.000Z</time>
      </trkpt>
      <trkpt lat="44.9841" lon="6.03466">
        <ele>2730.1999511719</ele>
        <time>2021-03-21T11:02:03.000Z</time>
      </trkpt>
      <trkpt lat="44.9841" lon="6.03465">
        <ele>2730.3999023438</ele>
        <time>2021-03-21T11:02:04.000Z</time>
      </trkpt>
      <trkpt lat="44.98409" lon="6.03464">
        <ele>2730.6000976562</ele>
        <time>2021-03-21T11:02:05.000Z</time>
      </trkpt>
      <trkpt lat="44.9841" lon="6.03463">
        <ele>2730.1999511719</ele>
        <time>2021-03-21T11:02:06.000Z</time>
      </trkpt>
      <trkpt lat="44.9841" lon="6.03462">
        <ele>2730.3999023438</ele>
        <time>2021-03-21T11:02:07.000Z</time>
      </trkpt>
      <trkpt lat="44.9841" lon="6.03462">
        <ele>2730.3999023438</ele>
        <time>2021-03-21T11:02:08.000Z</time>
      </trkpt>
      <trkpt lat="44.98409" lon="6.03461">
        <ele>2730.6000976562</ele>
        <time>2021-03-21T11:02:09.000Z</time>
      </trkpt>
      <trkpt lat="44.9841" lon="6.0346">
        <ele>2730.6000976562</ele>
        <time>2021-03-21T11:02:10.000Z</time>
      </trkpt>
      <trkpt lat="44.9841" lon="6.03459">
        <ele>2730.6000976562</ele>
        <time>2021-03-21T11:02:11.000Z</time>
      </trkpt>
      <trkpt lat="44.9841" lon="6.03459">
        <ele>2730.3999023438</ele>
        <time>2021-03-21T11:02:12.000Z</time>
      </trkpt>
      <trkpt lat="44.98409" lon="6.03458">
        <ele>2730.3999023438</ele>
        <time>2021-03-21T11:02:13.000Z</time>
      </trkpt>
      <trkpt lat="44.98409" lon="6.03457">
        <ele>2730.6000976562</ele>
        <time>2021-03-21T11:02:14.000Z</time>
      </trkpt>
      <trkpt lat="44.98409" lon="6.03456">
        <ele>2730.3999023438</ele>
        <time>2021-03-21T11:02:15.000Z</time>
      </trkpt>
      <trkpt lat="44.98409" lon="6.03456">
        <ele>2730.6000976562</ele>
        <time>2021-03-21T11:02:16.000Z</time>
      </trkpt>
      <trkpt lat="44.98409" lon="6.03455">
        <ele>2730.3999023438</ele>
        <time>2021-03-21T11:02:17.000Z</time>
      </trkpt>
      <trkpt lat="44.98409" lon="6.03454">
        <ele>2730.6000976562</ele>
        <time>2021-03-21T11:02:18.000Z</time>
      </trkpt>
      <trkpt lat="44.98409" lon="6.03453">
        <ele>2730.3999023438</ele>
        <time>2021-03-21T11:02:19.000Z</time>
      </trkpt>
      <trkpt lat="44.98408" lon="6.03452">
        <ele>2730.3999023438</ele>
        <time>2021-03-21T11:02:20.000Z</time>
      </trkpt>
      <trkpt lat="44.98408" lon="6.03451">
        <ele>2730.3999023438</ele>
        <time>2021-03-21T11:02:21.000Z</time>
      </trkpt>
      <trkpt lat="44.98408" lon="6.0345">
        <ele>2730.3999023438</ele>
        <time>2021-03-21T11:02:22.000Z</time>
      </trkpt>
      <trkpt lat="44.98408" lon="6.03449">
        <ele>2730.1999511719</ele>
        <time>2021-03-21T11:02:23.000Z</time>
      </trkpt>
      <trkpt lat="44.98408" lon="6.0345">
        <ele>2730.1999511719</ele>
        <time>2021-03-21T11:02:24.000Z</time>
      </trkpt>
      <trkpt lat="44.98408" lon="6.0345">
        <ele>2730.1999511719</ele>
        <time>2021-03-21T11:02:25.000Z</time>
      </trkpt>
      <trkpt lat="44.98408" lon="6.0345">
        <ele>2730.1999511719</ele>
        <time>2021-03-21T11:02:26.000Z</time>
      </trkpt>
      <trkpt lat="44.98408" lon="6.0345">
        <ele>2730.1999511719</ele>
        <time>2021-03-21T11:02:27.000Z</time>
      </trkpt>
      <trkpt lat="44.98408" lon="6.0345">
        <ele>2730.1999511719</ele>
        <time>2021-03-21T11:02:28.000Z</time>
      </trkpt>
      <trkpt lat="44.98408" lon="6.0345">
        <ele>2730.3999023438</ele>
        <time>2021-03-21T11:02:29.000Z</time>
      </trkpt>
      <trkpt lat="44.98408" lon="6.0345">
        <ele>2730.1999511719</ele>
        <time>2021-03-21T11:02:30.000Z</time>
      </trkpt>
      <trkpt lat="44.98408" lon="6.03449">
        <ele>2730.1999511719</ele>
        <time>2021-03-21T11:02:31.000Z</time>
      </trkpt>
      <trkpt lat="44.98408" lon="6.03449">
        <ele>2730</ele>
        <time>2021-03-21T11:02:32.000Z</time>
      </trkpt>
      <trkpt lat="44.98408" lon="6.03447">
        <ele>2730.1999511719</ele>
        <time>2021-03-21T11:02:33.000Z</time>
      </trkpt>
      <trkpt lat="44.98409" lon="6.03446">
        <ele>2729.6000976562</ele>
        <time>2021-03-21T11:02:34.000Z</time>
      </trkpt>
      <trkpt lat="44.98408" lon="6.03445">
        <ele>2729.8000488281</ele>
        <time>2021-03-21T11:02:35.000Z</time>
      </trkpt>
      <trkpt lat="44.98408" lon="6.03444">
        <ele>2729.6000976562</ele>
        <time>2021-03-21T11:02:36.000Z</time>
      </trkpt>
      <trkpt lat="44.98408" lon="6.03443">
        <ele>2729.6000976562</ele>
        <time>2021-03-21T11:02:37.000Z</time>
      </trkpt>
      <trkpt lat="44.98408" lon="6.03442">
        <ele>2729.6000976562</ele>
        <time>2021-03-21T11:02:38.000Z</time>
      </trkpt>
      <trkpt lat="44.98408" lon="6.03441">
        <ele>2729.3999023438</ele>
        <time>2021-03-21T11:02:39.000Z</time>
      </trkpt>
      <trkpt lat="44.98408" lon="6.0344">
        <ele>2729.1999511719</ele>
        <time>2021-03-21T11:02:40.000Z</time>
      </trkpt>
      <trkpt lat="44.98408" lon="6.0344">
        <ele>2729.1999511719</ele>
        <time>2021-03-21T11:02:41.000Z</time>
      </trkpt>
      <trkpt lat="44.98408" lon="6.03439">
        <ele>2729.1999511719</ele>
        <time>2021-03-21T11:02:42.000Z</time>
      </trkpt>
      <trkpt lat="44.98408" lon="6.03437">
        <ele>2729</ele>
        <time>2021-03-21T11:02:43.000Z</time>
      </trkpt>
      <trkpt lat="44.98408" lon="6.03436">
        <ele>2729</ele>
        <time>2021-03-21T11:02:44.000Z</time>
      </trkpt>
      <trkpt lat="44.98407" lon="6.03436">
        <ele>2729.3999023438</ele>
        <time>2021-03-21T11:02:45.000Z</time>
      </trkpt>
      <trkpt lat="44.98407" lon="6.03435">
        <ele>2729.3999023438</ele>
        <time>2021-03-21T11:02:46.000Z</time>
      </trkpt>
      <trkpt lat="44.98406" lon="6.03435">
        <ele>2729.6000976562</ele>
        <time>2021-03-21T11:02:47.000Z</time>
      </trkpt>
      <trkpt lat="44.98406" lon="6.03435">
        <ele>2729.8000488281</ele>
        <time>2021-03-21T11:02:48.000Z</time>
      </trkpt>
      <trkpt lat="44.98405" lon="6.03435">
        <ele>2730</ele>
        <time>2021-03-21T11:02:49.000Z</time>
      </trkpt>
      <trkpt lat="44.98405" lon="6.03436">
        <ele>2730.1999511719</ele>
        <time>2021-03-21T11:02:50.000Z</time>
      </trkpt>
      <trkpt lat="44.98405" lon="6.03436">
        <ele>2730.3999023438</ele>
        <time>2021-03-21T11:02:51.000Z</time>
      </trkpt>
      <trkpt lat="44.98404" lon="6.03437">
        <ele>2730.8000488281</ele>
        <time>2021-03-21T11:02:52.000Z</time>
      </trkpt>
      <trkpt lat="44.98404" lon="6.03438">
        <ele>2731</ele>
        <time>2021-03-21T11:02:53.000Z</time>
      </trkpt>
      <trkpt lat="44.98403" lon="6.03439">
        <ele>2731.3999023438</ele>
        <time>2021-03-21T11:02:54.000Z</time>
      </trkpt>
      <trkpt lat="44.98403" lon="6.03439">
        <ele>2731.3999023438</ele>
        <time>2021-03-21T11:02:55.000Z</time>
      </trkpt>
      <trkpt lat="44.98403" lon="6.0344">
        <ele>2731.8000488281</ele>
        <time>2021-03-21T11:02:56.000Z</time>
      </trkpt>
      <trkpt lat="44.98402" lon="6.0344">
        <ele>2731.8000488281</ele>
        <time>2021-03-21T11:02:57.000Z</time>
      </trkpt>
      <trkpt lat="44.98402" lon="6.03441">
        <ele>2732</ele>
        <time>2021-03-21T11:02:58.000Z</time>
      </trkpt>
      <trkpt lat="44.98402" lon="6.03441">
        <ele>2732.1999511719</ele>
        <time>2021-03-21T11:02:59.000Z</time>
      </trkpt>
      <trkpt lat="44.98401" lon="6.03442">
        <ele>2733</ele>
        <time>2021-03-21T11:03:00.000Z</time>
      </trkpt>
      <trkpt lat="44.984" lon="6.03442">
        <ele>2733</ele>
        <time>2021-03-21T11:03:01.000Z</time>
      </trkpt>
      <trkpt lat="44.98399" lon="6.03442">
        <ele>2733.3999023438</ele>
        <time>2021-03-21T11:03:02.000Z</time>
      </trkpt>
      <trkpt lat="44.98399" lon="6.03442">
        <ele>2733.3999023438</ele>
        <time>2021-03-21T11:03:03.000Z</time>
      </trkpt>
      <trkpt lat="44.98398" lon="6.03441">
        <ele>2733.8000488281</ele>
        <time>2021-03-21T11:03:04.000Z</time>
      </trkpt>
      <trkpt lat="44.98398" lon="6.03441">
        <ele>2734</ele>
        <time>2021-03-21T11:03:05.000Z</time>
      </trkpt>
      <trkpt lat="44.98397" lon="6.03441">
        <ele>2734.1999511719</ele>
        <time>2021-03-21T11:03:06.000Z</time>
      </trkpt>
      <trkpt lat="44.98397" lon="6.0344">
        <ele>2734.3999023438</ele>
        <time>2021-03-21T11:03:07.000Z</time>
      </trkpt>
      <trkpt lat="44.98396" lon="6.0344">
        <ele>2734.6000976562</ele>
        <time>2021-03-21T11:03:08.000Z</time>
      </trkpt>
      <trkpt lat="44.98396" lon="6.03439">
        <ele>2734.8000488281</ele>
        <time>2021-03-21T11:03:09.000Z</time>
      </trkpt>
      <trkpt lat="44.98396" lon="6.03438">
        <ele>2734.6000976562</ele>
        <time>2021-03-21T11:03:10.000Z</time>
      </trkpt>
      <trkpt lat="44.98395" lon="6.03438">
        <ele>2735</ele>
        <time>2021-03-21T11:03:11.000Z</time>
      </trkpt>
      <trkpt lat="44.98395" lon="6.03437">
        <ele>2735</ele>
        <time>2021-03-21T11:03:12.000Z</time>
      </trkpt>
      <trkpt lat="44.98394" lon="6.03436">
        <ele>2735.1999511719</ele>
        <time>2021-03-21T11:03:13.000Z</time>
      </trkpt>
      <trkpt lat="44.98394" lon="6.03435">
        <ele>2735</ele>
        <time>2021-03-21T11:03:14.000Z</time>
      </trkpt>
      <trkpt lat="44.98394" lon="6.03434">
        <ele>2735.1999511719</ele>
        <time>2021-03-21T11:03:15.000Z</time>
      </trkpt>
      <trkpt lat="44.98393" lon="6.03434">
        <ele>2735.1999511719</ele>
        <time>2021-03-21T11:03:16.000Z</time>
      </trkpt>
      <trkpt lat="44.98393" lon="6.03433">
        <ele>2735.1999511719</ele>
        <time>2021-03-21T11:03:17.000Z</time>
      </trkpt>
      <trkpt lat="44.98392" lon="6.03432">
        <ele>2735.6000976562</ele>
        <time>2021-03-21T11:03:18.000Z</time>
      </trkpt>
      <trkpt lat="44.98392" lon="6.03432">
        <ele>2735.3999023438</ele>
        <time>2021-03-21T11:03:19.000Z</time>
      </trkpt>
      <trkpt lat="44.98391" lon="6.03431">
        <ele>2735.8000488281</ele>
        <time>2021-03-21T11:03:20.000Z</time>
      </trkpt>
      <trkpt lat="44.98391" lon="6.0343">
        <ele>2736</ele>
        <time>2021-03-21T11:03:21.000Z</time>
      </trkpt>
      <trkpt lat="44.98391" lon="6.03429">
        <ele>2736.3999023438</ele>
        <time>2021-03-21T11:03:22.000Z</time>
      </trkpt>
      <trkpt lat="44.98391" lon="6.03429">
        <ele>2736.3999023438</ele>
        <time>2021-03-21T11:03:23.000Z</time>
      </trkpt>
      <trkpt lat="44.9839" lon="6.03428">
        <ele>2736.8000488281</ele>
        <time>2021-03-21T11:03:24.000Z</time>
      </trkpt>
      <trkpt lat="44.9839" lon="6.03428">
        <ele>2737</ele>
        <time>2021-03-21T11:03:25.000Z</time>
      </trkpt>
      <trkpt lat="44.98389" lon="6.03426">
        <ele>2737.3999023438</ele>
        <time>2021-03-21T11:03:26.000Z</time>
      </trkpt>
      <trkpt lat="44.98388" lon="6.03426">
        <ele>2737.8000488281</ele>
        <time>2021-03-21T11:03:27.000Z</time>
      </trkpt>
      <trkpt lat="44.98388" lon="6.03425">
        <ele>2738</ele>
        <time>2021-03-21T11:03:28.000Z</time>
      </trkpt>
      <trkpt lat="44.98387" lon="6.03424">
        <ele>2738.1999511719</ele>
        <time>2021-03-21T11:03:29.000Z</time>
      </trkpt>
      <trkpt lat="44.98387" lon="6.03423">
        <ele>2738.6000976562</ele>
        <time>2021-03-21T11:03:30.000Z</time>
      </trkpt>
      <trkpt lat="44.98387" lon="6.03422">
        <ele>2738.8000488281</ele>
        <time>2021-03-21T11:03:31.000Z</time>
      </trkpt>
      <trkpt lat="44.98387" lon="6.03421">
        <ele>2739</ele>
        <time>2021-03-21T11:03:32.000Z</time>
      </trkpt>
      <trkpt lat="44.98386" lon="6.0342">
        <ele>2739.3999023438</ele>
        <time>2021-03-21T11:03:33.000Z</time>
      </trkpt>
      <trkpt lat="44.98386" lon="6.0342">
        <ele>2739.3999023438</ele>
        <time>2021-03-21T11:03:34.000Z</time>
      </trkpt>
      <trkpt lat="44.98385" lon="6.03418">
        <ele>2739.8000488281</ele>
        <time>2021-03-21T11:03:35.000Z</time>
      </trkpt>
      <trkpt lat="44.98385" lon="6.03418">
        <ele>2740</ele>
        <time>2021-03-21T11:03:36.000Z</time>
      </trkpt>
      <trkpt lat="44.98385" lon="6.03417">
        <ele>2740.1999511719</ele>
        <time>2021-03-21T11:03:37.000Z</time>
      </trkpt>
      <trkpt lat="44.98384" lon="6.03417">
        <ele>2740.3999023438</ele>
        <time>2021-03-21T11:03:38.000Z</time>
      </trkpt>
      <trkpt lat="44.98384" lon="6.03416">
        <ele>2740.8000488281</ele>
        <time>2021-03-21T11:03:39.000Z</time>
      </trkpt>
      <trkpt lat="44.98383" lon="6.03416">
        <ele>2741</ele>
        <time>2021-03-21T11:03:40.000Z</time>
      </trkpt>
      <trkpt lat="44.98383" lon="6.03415">
        <ele>2741.1999511719</ele>
        <time>2021-03-21T11:03:41.000Z</time>
      </trkpt>
      <trkpt lat="44.98382" lon="6.03414">
        <ele>2741.3999023438</ele>
        <time>2021-03-21T11:03:42.000Z</time>
      </trkpt>
      <trkpt lat="44.98382" lon="6.03414">
        <ele>2741.8000488281</ele>
        <time>2021-03-21T11:03:43.000Z</time>
      </trkpt>
      <trkpt lat="44.98382" lon="6.03413">
        <ele>2742</ele>
        <time>2021-03-21T11:03:44.000Z</time>
      </trkpt>
      <trkpt lat="44.98381" lon="6.03413">
        <ele>2742</ele>
        <time>2021-03-21T11:03:45.000Z</time>
      </trkpt>
      <trkpt lat="44.98381" lon="6.03412">
        <ele>2742.3999023438</ele>
        <time>2021-03-21T11:03:46.000Z</time>
      </trkpt>
      <trkpt lat="44.98381" lon="6.03412">
        <ele>2742.3999023438</ele>
        <time>2021-03-21T11:03:47.000Z</time>
      </trkpt>
      <trkpt lat="44.9838" lon="6.03411">
        <ele>2742.8000488281</ele>
        <time>2021-03-21T11:03:48.000Z</time>
      </trkpt>
      <trkpt lat="44.9838" lon="6.03411">
        <ele>2743</ele>
        <time>2021-03-21T11:03:49.000Z</time>
      </trkpt>
      <trkpt lat="44.98379" lon="6.0341">
        <ele>2743.3999023438</ele>
        <time>2021-03-21T11:03:50.000Z</time>
      </trkpt>
      <trkpt lat="44.98379" lon="6.03409">
        <ele>2743.6000976562</ele>
        <time>2021-03-21T11:03:51.000Z</time>
      </trkpt>
      <trkpt lat="44.98379" lon="6.03408">
        <ele>2743.6000976562</ele>
        <time>2021-03-21T11:03:52.000Z</time>
      </trkpt>
      <trkpt lat="44.98379" lon="6.03408">
        <ele>2743.8000488281</ele>
        <time>2021-03-21T11:03:53.000Z</time>
      </trkpt>
      <trkpt lat="44.98378" lon="6.03407">
        <ele>2744</ele>
        <time>2021-03-21T11:03:54.000Z</time>
      </trkpt>
      <trkpt lat="44.98378" lon="6.03406">
        <ele>2744.1999511719</ele>
        <time>2021-03-21T11:03:55.000Z</time>
      </trkpt>
      <trkpt lat="44.98378" lon="6.03406">
        <ele>2744.3999023438</ele>
        <time>2021-03-21T11:03:56.000Z</time>
      </trkpt>
      <trkpt lat="44.98377" lon="6.03405">
        <ele>2744.6000976562</ele>
        <time>2021-03-21T11:03:57.000Z</time>
      </trkpt>
      <trkpt lat="44.98377" lon="6.03405">
        <ele>2744.6000976562</ele>
        <time>2021-03-21T11:03:58.000Z</time>
      </trkpt>
      <trkpt lat="44.98377" lon="6.03404">
        <ele>2745</ele>
        <time>2021-03-21T11:03:59.000Z</time>
      </trkpt>
      <trkpt lat="44.98376" lon="6.03404">
        <ele>2745.1999511719</ele>
        <time>2021-03-21T11:04:00.000Z</time>
      </trkpt>
      <trkpt lat="44.98376" lon="6.03403">
        <ele>2745.3999023438</ele>
        <time>2021-03-21T11:04:01.000Z</time>
      </trkpt>
      <trkpt lat="44.98376" lon="6.03403">
        <ele>2745.3999023438</ele>
        <time>2021-03-21T11:04:02.000Z</time>
      </trkpt>
      <trkpt lat="44.98376" lon="6.03402">
        <ele>2745.6000976562</ele>
        <time>2021-03-21T11:04:03.000Z</time>
      </trkpt>
      <trkpt lat="44.98376" lon="6.03401">
        <ele>2745.6000976562</ele>
        <time>2021-03-21T11:04:04.000Z</time>
      </trkpt>
      <trkpt lat="44.98376" lon="6.03401">
        <ele>2746</ele>
        <time>2021-03-21T11:04:05.000Z</time>
      </trkpt>
      <trkpt lat="44.98376" lon="6.034">
        <ele>2746</ele>
        <time>2021-03-21T11:04:06.000Z</time>
      </trkpt>
      <trkpt lat="44.98375" lon="6.034">
        <ele>2746.3999023438</ele>
        <time>2021-03-21T11:04:07.000Z</time>
      </trkpt>
      <trkpt lat="44.98375" lon="6.03399">
        <ele>2746.6000976562</ele>
        <time>2021-03-21T11:04:08.000Z</time>
      </trkpt>
      <trkpt lat="44.98375" lon="6.03398">
        <ele>2746.8000488281</ele>
        <time>2021-03-21T11:04:09.000Z</time>
      </trkpt>
      <trkpt lat="44.98374" lon="6.03398">
        <ele>2747.1999511719</ele>
        <time>2021-03-21T11:04:10.000Z</time>
      </trkpt>
      <trkpt lat="44.98374" lon="6.03397">
        <ele>2747.6000976562</ele>
        <time>2021-03-21T11:04:11.000Z</time>
      </trkpt>
      <trkpt lat="44.98374" lon="6.03397">
        <ele>2748</ele>
        <time>2021-03-21T11:04:12.000Z</time>
      </trkpt>
      <trkpt lat="44.98374" lon="6.03397">
        <ele>2748</ele>
        <time>2021-03-21T11:04:13.000Z</time>
      </trkpt>
      <trkpt lat="44.98373" lon="6.03397">
        <ele>2748.3999023438</ele>
        <time>2021-03-21T11:04:14.000Z</time>
      </trkpt>
      <trkpt lat="44.98373" lon="6.03397">
        <ele>2748.1999511719</ele>
        <time>2021-03-21T11:04:15.000Z</time>
      </trkpt>
      <trkpt lat="44.98373" lon="6.03397">
        <ele>2748.1999511719</ele>
        <time>2021-03-21T11:04:16.000Z</time>
      </trkpt>
      <trkpt lat="44.98373" lon="6.03397">
        <ele>2748.3999023438</ele>
        <time>2021-03-21T11:04:17.000Z</time>
      </trkpt>
      <trkpt lat="44.98373" lon="6.03398">
        <ele>2748.3999023438</ele>
        <time>2021-03-21T11:04:18.000Z</time>
      </trkpt>
      <trkpt lat="44.98373" lon="6.03399">
        <ele>2748.1999511719</ele>
        <time>2021-03-21T11:04:19.000Z</time>
      </trkpt>
      <trkpt lat="44.98373" lon="6.034">
        <ele>2748</ele>
        <time>2021-03-21T11:04:20.000Z</time>
      </trkpt>
      <trkpt lat="44.98373" lon="6.034">
        <ele>2748</ele>
        <time>2021-03-21T11:04:21.000Z</time>
      </trkpt>
      <trkpt lat="44.98373" lon="6.03402">
        <ele>2747.8000488281</ele>
        <time>2021-03-21T11:04:22.000Z</time>
      </trkpt>
      <trkpt lat="44.98373" lon="6.03402">
        <ele>2747.6000976562</ele>
        <time>2021-03-21T11:04:23.000Z</time>
      </trkpt>
      <trkpt lat="44.98373" lon="6.03403">
        <ele>2747.1999511719</ele>
        <time>2021-03-21T11:04:24.000Z</time>
      </trkpt>
      <trkpt lat="44.98373" lon="6.03404">
        <ele>2747.1999511719</ele>
        <time>2021-03-21T11:04:25.000Z</time>
      </trkpt>
      <trkpt lat="44.98372" lon="6.03405">
        <ele>2747.1999511719</ele>
        <time>2021-03-21T11:04:26.000Z</time>
      </trkpt>
      <trkpt lat="44.98372" lon="6.03406">
        <ele>2747</ele>
        <time>2021-03-21T11:04:27.000Z</time>
      </trkpt>
      <trkpt lat="44.98372" lon="6.03407">
        <ele>2747</ele>
        <time>2021-03-21T11:04:28.000Z</time>
      </trkpt>
      <trkpt lat="44.98372" lon="6.03408">
        <ele>2747.1999511719</ele>
        <time>2021-03-21T11:04:29.000Z</time>
      </trkpt>
      <trkpt lat="44.98372" lon="6.03409">
        <ele>2747</ele>
        <time>2021-03-21T11:04:30.000Z</time>
      </trkpt>
      <trkpt lat="44.98371" lon="6.0341">
        <ele>2747.3999023438</ele>
        <time>2021-03-21T11:04:31.000Z</time>
      </trkpt>
      <trkpt lat="44.98371" lon="6.03411">
        <ele>2747.1999511719</ele>
        <time>2021-03-21T11:04:32.000Z</time>
      </trkpt>
      <trkpt lat="44.98371" lon="6.03412">
        <ele>2747.1999511719</ele>
        <time>2021-03-21T11:04:33.000Z</time>
      </trkpt>
      <trkpt lat="44.98371" lon="6.03413">
        <ele>2747</ele>
        <time>2021-03-21T11:04:34.000Z</time>
      </trkpt>
      <trkpt lat="44.98371" lon="6.03414">
        <ele>2747</ele>
        <time>2021-03-21T11:04:35.000Z</time>
      </trkpt>
      <trkpt lat="44.98371" lon="6.03415">
        <ele>2747</ele>
        <time>2021-03-21T11:04:36.000Z</time>
      </trkpt>
      <trkpt lat="44.98371" lon="6.03416">
        <ele>2746.8000488281</ele>
        <time>2021-03-21T11:04:37.000Z</time>
      </trkpt>
      <trkpt lat="44.98371" lon="6.03417">
        <ele>2746.6000976562</ele>
        <time>2021-03-21T11:04:38.000Z</time>
      </trkpt>
      <trkpt lat="44.98371" lon="6.03418">
        <ele>2746.6000976562</ele>
        <time>2021-03-21T11:04:39.000Z</time>
      </trkpt>
      <trkpt lat="44.98371" lon="6.03419">
        <ele>2746.6000976562</ele>
        <time>2021-03-21T11:04:40.000Z</time>
      </trkpt>
      <trkpt lat="44.98371" lon="6.0342">
        <ele>2746.3999023438</ele>
        <time>2021-03-21T11:04:41.000Z</time>
      </trkpt>
      <trkpt lat="44.98371" lon="6.03421">
        <ele>2746.3999023438</ele>
        <time>2021-03-21T11:04:42.000Z</time>
      </trkpt>
      <trkpt lat="44.98371" lon="6.03422">
        <ele>2746.1999511719</ele>
        <time>2021-03-21T11:04:43.000Z</time>
      </trkpt>
      <trkpt lat="44.98371" lon="6.03423">
        <ele>2746.1999511719</ele>
        <time>2021-03-21T11:04:44.000Z</time>
      </trkpt>
      <trkpt lat="44.98371" lon="6.03424">
        <ele>2746.1999511719</ele>
        <time>2021-03-21T11:04:45.000Z</time>
      </trkpt>
      <trkpt lat="44.9837" lon="6.03425">
        <ele>2746.3999023438</ele>
        <time>2021-03-21T11:04:46.000Z</time>
      </trkpt>
      <trkpt lat="44.9837" lon="6.03426">
        <ele>2746.1999511719</ele>
        <time>2021-03-21T11:04:47.000Z</time>
      </trkpt>
      <trkpt lat="44.9837" lon="6.03427">
        <ele>2746.3999023438</ele>
        <time>2021-03-21T11:04:48.000Z</time>
      </trkpt>
      <trkpt lat="44.9837" lon="6.03428">
        <ele>2746.3999023438</ele>
        <time>2021-03-21T11:04:49.000Z</time>
      </trkpt>
      <trkpt lat="44.9837" lon="6.03429">
        <ele>2746.8000488281</ele>
        <time>2021-03-21T11:04:50.000Z</time>
      </trkpt>
      <trkpt lat="44.9837" lon="6.0343">
        <ele>2746.8000488281</ele>
        <time>2021-03-21T11:04:51.000Z</time>
      </trkpt>
      <trkpt lat="44.98369" lon="6.03431">
        <ele>2747.1999511719</ele>
        <time>2021-03-21T11:04:52.000Z</time>
      </trkpt>
      <trkpt lat="44.98369" lon="6.03431">
        <ele>2747.6000976562</ele>
        <time>2021-03-21T11:04:53.000Z</time>
      </trkpt>
      <trkpt lat="44.98368" lon="6.03432">
        <ele>2748.1999511719</ele>
        <time>2021-03-21T11:04:54.000Z</time>
      </trkpt>
      <trkpt lat="44.98368" lon="6.03433">
        <ele>2748.6000976562</ele>
        <time>2021-03-21T11:04:55.000Z</time>
      </trkpt>
      <trkpt lat="44.98368" lon="6.03434">
        <ele>2748.8000488281</ele>
        <time>2021-03-21T11:04:56.000Z</time>
      </trkpt>
      <trkpt lat="44.98368" lon="6.03435">
        <ele>2749</ele>
        <time>2021-03-21T11:04:57.000Z</time>
      </trkpt>
      <trkpt lat="44.98367" lon="6.03435">
        <ele>2749.6000976562</ele>
        <time>2021-03-21T11:04:58.000Z</time>
      </trkpt>
      <trkpt lat="44.98367" lon="6.03436">
        <ele>2750</ele>
        <time>2021-03-21T11:04:59.000Z</time>
      </trkpt>
      <trkpt lat="44.98367" lon="6.03437">
        <ele>2750.3999023438</ele>
        <time>2021-03-21T11:05:00.000Z</time>
      </trkpt>
      <trkpt lat="44.98367" lon="6.03438">
        <ele>2750.6000976562</ele>
        <time>2021-03-21T11:05:01.000Z</time>
      </trkpt>
      <trkpt lat="44.98366" lon="6.03438">
        <ele>2750.8000488281</ele>
        <time>2021-03-21T11:05:02.000Z</time>
      </trkpt>
      <trkpt lat="44.98366" lon="6.03439">
        <ele>2751.3999023438</ele>
        <time>2021-03-21T11:05:03.000Z</time>
      </trkpt>
      <trkpt lat="44.98366" lon="6.0344">
        <ele>2751.6000976562</ele>
        <time>2021-03-21T11:05:04.000Z</time>
      </trkpt>
      <trkpt lat="44.98365" lon="6.03441">
        <ele>2752</ele>
        <time>2021-03-21T11:05:05.000Z</time>
      </trkpt>
      <trkpt lat="44.98365" lon="6.03441">
        <ele>2752.1999511719</ele>
        <time>2021-03-21T11:05:06.000Z</time>
      </trkpt>
      <trkpt lat="44.98365" lon="6.03441">
        <ele>2752.1999511719</ele>
        <time>2021-03-21T11:05:07.000Z</time>
      </trkpt>
      <trkpt lat="44.98365" lon="6.03441">
        <ele>2752.3999023438</ele>
        <time>2021-03-21T11:05:08.000Z</time>
      </trkpt>
      <trkpt lat="44.98365" lon="6.03441">
        <ele>2752.6000976562</ele>
        <time>2021-03-21T11:05:09.000Z</time>
      </trkpt>
      <trkpt lat="44.98365" lon="6.03441">
        <ele>2752.6000976562</ele>
        <time>2021-03-21T11:05:10.000Z</time>
      </trkpt>
      <trkpt lat="44.98364" lon="6.0344">
        <ele>2752.8000488281</ele>
        <time>2021-03-21T11:05:11.000Z</time>
      </trkpt>
      <trkpt lat="44.98364" lon="6.03439">
        <ele>2753</ele>
        <time>2021-03-21T11:05:12.000Z</time>
      </trkpt>
      <trkpt lat="44.98363" lon="6.03438">
        <ele>2753.1999511719</ele>
        <time>2021-03-21T11:05:13.000Z</time>
      </trkpt>
      <trkpt lat="44.98363" lon="6.03437">
        <ele>2753.3999023438</ele>
        <time>2021-03-21T11:05:14.000Z</time>
      </trkpt>
      <trkpt lat="44.98362" lon="6.03436">
        <ele>2753.6000976562</ele>
        <time>2021-03-21T11:05:15.000Z</time>
      </trkpt>
      <trkpt lat="44.98362" lon="6.03435">
        <ele>2753.8000488281</ele>
        <time>2021-03-21T11:05:16.000Z</time>
      </trkpt>
      <trkpt lat="44.98362" lon="6.03435">
        <ele>2754</ele>
        <time>2021-03-21T11:05:17.000Z</time>
      </trkpt>
      <trkpt lat="44.98362" lon="6.03434">
        <ele>2754.1999511719</ele>
        <time>2021-03-21T11:05:18.000Z</time>
      </trkpt>
      <trkpt lat="44.98361" lon="6.03433">
        <ele>2754.1999511719</ele>
        <time>2021-03-21T11:05:19.000Z</time>
      </trkpt>
      <trkpt lat="44.98361" lon="6.03432">
        <ele>2754.6000976562</ele>
        <time>2021-03-21T11:05:20.000Z</time>
      </trkpt>
      <trkpt lat="44.98361" lon="6.03431">
        <ele>2754.3999023438</ele>
        <time>2021-03-21T11:05:21.000Z</time>
      </trkpt>
      <trkpt lat="44.9836" lon="6.0343">
        <ele>2754.8000488281</ele>
        <time>2021-03-21T11:05:22.000Z</time>
      </trkpt>
      <trkpt lat="44.9836" lon="6.03429">
        <ele>2754.6000976562</ele>
        <time>2021-03-21T11:05:23.000Z</time>
      </trkpt>
      <trkpt lat="44.9836" lon="6.03428">
        <ele>2755</ele>
        <time>2021-03-21T11:05:24.000Z</time>
      </trkpt>
      <trkpt lat="44.9836" lon="6.03428">
        <ele>2755</ele>
        <time>2021-03-21T11:05:25.000Z</time>
      </trkpt>
      <trkpt lat="44.98359" lon="6.03427">
        <ele>2755.3999023438</ele>
        <time>2021-03-21T11:05:26.000Z</time>
      </trkpt>
      <trkpt lat="44.98359" lon="6.03426">
        <ele>2755.6000976562</ele>
        <time>2021-03-21T11:05:27.000Z</time>
      </trkpt>
      <trkpt lat="44.98358" lon="6.03425">
        <ele>2755.8000488281</ele>
        <time>2021-03-21T11:05:28.000Z</time>
      </trkpt>
      <trkpt lat="44.98358" lon="6.03424">
        <ele>2756</ele>
        <time>2021-03-21T11:05:29.000Z</time>
      </trkpt>
      <trkpt lat="44.98357" lon="6.03423">
        <ele>2756.1999511719</ele>
        <time>2021-03-21T11:05:30.000Z</time>
      </trkpt>
      <trkpt lat="44.98357" lon="6.03423">
        <ele>2756.6000976562</ele>
        <time>2021-03-21T11:05:31.000Z</time>
      </trkpt>
      <trkpt lat="44.98357" lon="6.03422">
        <ele>2756.8000488281</ele>
        <time>2021-03-21T11:05:32.000Z</time>
      </trkpt>
      <trkpt lat="44.98356" lon="6.03421">
        <ele>2757.1999511719</ele>
        <time>2021-03-21T11:05:33.000Z</time>
      </trkpt>
      <trkpt lat="44.98356" lon="6.0342">
        <ele>2757.1999511719</ele>
        <time>2021-03-21T11:05:34.000Z</time>
      </trkpt>
      <trkpt lat="44.98355" lon="6.0342">
        <ele>2757.8000488281</ele>
        <time>2021-03-21T11:05:35.000Z</time>
      </trkpt>
      <trkpt lat="44.98355" lon="6.0342">
        <ele>2758</ele>
        <time>2021-03-21T11:05:36.000Z</time>
      </trkpt>
      <trkpt lat="44.98354" lon="6.03419">
        <ele>2758.6000976562</ele>
        <time>2021-03-21T11:05:37.000Z</time>
      </trkpt>
      <trkpt lat="44.98354" lon="6.03419">
        <ele>2758.6000976562</ele>
        <time>2021-03-21T11:05:38.000Z</time>
      </trkpt>
      <trkpt lat="44.98354" lon="6.03418">
        <ele>2759</ele>
        <time>2021-03-21T11:05:39.000Z</time>
      </trkpt>
      <trkpt lat="44.98353" lon="6.03418">
        <ele>2759.1999511719</ele>
        <time>2021-03-21T11:05:40.000Z</time>
      </trkpt>
      <trkpt lat="44.98353" lon="6.03418">
        <ele>2759.8000488281</ele>
        <time>2021-03-21T11:05:41.000Z</time>
      </trkpt>
      <trkpt lat="44.98352" lon="6.03418">
        <ele>2760.1999511719</ele>
        <time>2021-03-21T11:05:42.000Z</time>
      </trkpt>
      <trkpt lat="44.98352" lon="6.03417">
        <ele>2760.1999511719</ele>
        <time>2021-03-21T11:05:43.000Z</time>
      </trkpt>
      <trkpt lat="44.98351" lon="6.03417">
        <ele>2760.6000976562</ele>
        <time>2021-03-21T11:05:44.000Z</time>
      </trkpt>
      <trkpt lat="44.98351" lon="6.03416">
        <ele>2761</ele>
        <time>2021-03-21T11:05:45.000Z</time>
      </trkpt>
      <trkpt lat="44.9835" lon="6.03416">
        <ele>2761.3999023438</ele>
        <time>2021-03-21T11:05:46.000Z</time>
      </trkpt>
      <trkpt lat="44.9835" lon="6.03416">
        <ele>2761.6000976562</ele>
        <time>2021-03-21T11:05:47.000Z</time>
      </trkpt>
      <trkpt lat="44.9835" lon="6.03416">
        <ele>2762</ele>
        <time>2021-03-21T11:05:48.000Z</time>
      </trkpt>
      <trkpt lat="44.9835" lon="6.03416">
        <ele>2762</ele>
        <time>2021-03-21T11:05:49.000Z</time>
      </trkpt>
      <trkpt lat="44.98349" lon="6.03416">
        <ele>2762.1999511719</ele>
        <time>2021-03-21T11:05:50.000Z</time>
      </trkpt>
      <trkpt lat="44.98349" lon="6.03417">
        <ele>2762.3999023438</ele>
        <time>2021-03-21T11:05:51.000Z</time>
      </trkpt>
      <trkpt lat="44.98349" lon="6.03418">
        <ele>2762.3999023438</ele>
        <time>2021-03-21T11:05:52.000Z</time>
      </trkpt>
      <trkpt lat="44.98349" lon="6.03419">
        <ele>2762.3999023438</ele>
        <time>2021-03-21T11:05:53.000Z</time>
      </trkpt>
      <trkpt lat="44.98349" lon="6.0342">
        <ele>2762.8000488281</ele>
        <time>2021-03-21T11:05:54.000Z</time>
      </trkpt>
      <trkpt lat="44.98349" lon="6.03421">
        <ele>2762.6000976562</ele>
        <time>2021-03-21T11:05:55.000Z</time>
      </trkpt>
      <trkpt lat="44.98349" lon="6.03422">
        <ele>2763</ele>
        <time>2021-03-21T11:05:56.000Z</time>
      </trkpt>
      <trkpt lat="44.98349" lon="6.03423">
        <ele>2763.1999511719</ele>
        <time>2021-03-21T11:05:57.000Z</time>
      </trkpt>
      <trkpt lat="44.98349" lon="6.03424">
        <ele>2763.1999511719</ele>
        <time>2021-03-21T11:05:58.000Z</time>
      </trkpt>
      <trkpt lat="44.98349" lon="6.03425">
        <ele>2763.3999023438</ele>
        <time>2021-03-21T11:05:59.000Z</time>
      </trkpt>
      <trkpt lat="44.98349" lon="6.03426">
        <ele>2763.6000976562</ele>
        <time>2021-03-21T11:06:00.000Z</time>
      </trkpt>
      <trkpt lat="44.98349" lon="6.03427">
        <ele>2763.8000488281</ele>
        <time>2021-03-21T11:06:01.000Z</time>
      </trkpt>
      <trkpt lat="44.98349" lon="6.03428">
        <ele>2764</ele>
        <time>2021-03-21T11:06:02.000Z</time>
      </trkpt>
      <trkpt lat="44.98349" lon="6.03429">
        <ele>2764.1999511719</ele>
        <time>2021-03-21T11:06:03.000Z</time>
      </trkpt>
      <trkpt lat="44.98348" lon="6.0343">
        <ele>2764.6000976562</ele>
        <time>2021-03-21T11:06:04.000Z</time>
      </trkpt>
      <trkpt lat="44.98348" lon="6.03431">
        <ele>2764.8000488281</ele>
        <time>2021-03-21T11:06:05.000Z</time>
      </trkpt>
      <trkpt lat="44.98348" lon="6.03432">
        <ele>2765</ele>
        <time>2021-03-21T11:06:06.000Z</time>
      </trkpt>
      <trkpt lat="44.98348" lon="6.03433">
        <ele>2765</ele>
        <time>2021-03-21T11:06:07.000Z</time>
      </trkpt>
      <trkpt lat="44.98348" lon="6.03434">
        <ele>2764.8000488281</ele>
        <time>2021-03-21T11:06:08.000Z</time>
      </trkpt>
      <trkpt lat="44.98349" lon="6.03435">
        <ele>2764.8000488281</ele>
        <time>2021-03-21T11:06:09.000Z</time>
      </trkpt>
      <trkpt lat="44.98349" lon="6.03436">
        <ele>2764.8000488281</ele>
        <time>2021-03-21T11:06:10.000Z</time>
      </trkpt>
      <trkpt lat="44.98349" lon="6.03437">
        <ele>2764.6000976562</ele>
        <time>2021-03-21T11:06:11.000Z</time>
      </trkpt>
      <trkpt lat="44.98349" lon="6.03437">
        <ele>2764.1999511719</ele>
        <time>2021-03-21T11:06:12.000Z</time>
      </trkpt>
      <trkpt lat="44.98349" lon="6.03438">
        <ele>2764</ele>
        <time>2021-03-21T11:06:13.000Z</time>
      </trkpt>
      <trkpt lat="44.9835" lon="6.03439">
        <ele>2764</ele>
        <time>2021-03-21T11:06:14.000Z</time>
      </trkpt>
      <trkpt lat="44.9835" lon="6.0344">
        <ele>2763.8000488281</ele>
        <time>2021-03-21T11:06:15.000Z</time>
      </trkpt>
      <trkpt lat="44.9835" lon="6.03441">
        <ele>2763.8000488281</ele>
        <time>2021-03-21T11:06:16.000Z</time>
      </trkpt>
      <trkpt lat="44.9835" lon="6.03442">
        <ele>2763.8000488281</ele>
        <time>2021-03-21T11:06:17.000Z</time>
      </trkpt>
      <trkpt lat="44.98349" lon="6.03443">
        <ele>2763.8000488281</ele>
        <time>2021-03-21T11:06:18.000Z</time>
      </trkpt>
      <trkpt lat="44.98349" lon="6.03443">
        <ele>2764</ele>
        <time>2021-03-21T11:06:19.000Z</time>
      </trkpt>
      <trkpt lat="44.98349" lon="6.03444">
        <ele>2764</ele>
        <time>2021-03-21T11:06:20.000Z</time>
      </trkpt>
      <trkpt lat="44.98349" lon="6.03445">
        <ele>2764</ele>
        <time>2021-03-21T11:06:21.000Z</time>
      </trkpt>
      <trkpt lat="44.98349" lon="6.03446">
        <ele>2764</ele>
        <time>2021-03-21T11:06:22.000Z</time>
      </trkpt>
      <trkpt lat="44.98349" lon="6.03447">
        <ele>2764</ele>
        <time>2021-03-21T11:06:23.000Z</time>
      </trkpt>
      <trkpt lat="44.98349" lon="6.03447">
        <ele>2763.8000488281</ele>
        <time>2021-03-21T11:06:24.000Z</time>
      </trkpt>
      <trkpt lat="44.98349" lon="6.03448">
        <ele>2763.8000488281</ele>
        <time>2021-03-21T11:06:25.000Z</time>
      </trkpt>
      <trkpt lat="44.98349" lon="6.03449">
        <ele>2764</ele>
        <time>2021-03-21T11:06:26.000Z</time>
      </trkpt>
      <trkpt lat="44.98349" lon="6.0345">
        <ele>2764.1999511719</ele>
        <time>2021-03-21T11:06:27.000Z</time>
      </trkpt>
      <trkpt lat="44.98348" lon="6.03451">
        <ele>2764.1999511719</ele>
        <time>2021-03-21T11:06:28.000Z</time>
      </trkpt>
      <trkpt lat="44.98348" lon="6.03451">
        <ele>2764.3999023438</ele>
        <time>2021-03-21T11:06:29.000Z</time>
      </trkpt>
      <trkpt lat="44.98348" lon="6.03452">
        <ele>2764.3999023438</ele>
        <time>2021-03-21T11:06:30.000Z</time>
      </trkpt>
      <trkpt lat="44.98348" lon="6.03452">
        <ele>2764.3999023438</ele>
        <time>2021-03-21T11:06:31.000Z</time>
      </trkpt>
      <trkpt lat="44.98348" lon="6.03452">
        <ele>2764.6000976562</ele>
        <time>2021-03-21T11:06:32.000Z</time>
      </trkpt>
      <trkpt lat="44.98348" lon="6.03452">
        <ele>2764.6000976562</ele>
        <time>2021-03-21T11:06:33.000Z</time>
      </trkpt>
      <trkpt lat="44.98348" lon="6.03452">
        <ele>2764.6000976562</ele>
        <time>2021-03-21T11:06:34.000Z</time>
      </trkpt>
      <trkpt lat="44.98348" lon="6.03453">
        <ele>2764.6000976562</ele>
        <time>2021-03-21T11:06:35.000Z</time>
      </trkpt>
      <trkpt lat="44.98348" lon="6.03453">
        <ele>2764.6000976562</ele>
        <time>2021-03-21T11:06:36.000Z</time>
      </trkpt>
      <trkpt lat="44.98348" lon="6.03453">
        <ele>2764.8000488281</ele>
        <time>2021-03-21T11:06:37.000Z</time>
      </trkpt>
      <trkpt lat="44.98347" lon="6.03453">
        <ele>2764.8000488281</ele>
        <time>2021-03-21T11:06:38.000Z</time>
      </trkpt>
      <trkpt lat="44.98347" lon="6.03453">
        <ele>2765</ele>
        <time>2021-03-21T11:06:39.000Z</time>
      </trkpt>
      <trkpt lat="44.98347" lon="6.03452">
        <ele>2765.3999023438</ele>
        <time>2021-03-21T11:06:40.000Z</time>
      </trkpt>
      <trkpt lat="44.98347" lon="6.03452">
        <ele>2765.6000976562</ele>
        <time>2021-03-21T11:06:41.000Z</time>
      </trkpt>
      <trkpt lat="44.98346" lon="6.03451">
        <ele>2766.1999511719</ele>
        <time>2021-03-21T11:06:42.000Z</time>
      </trkpt>
      <trkpt lat="44.98346" lon="6.0345">
        <ele>2766.6000976562</ele>
        <time>2021-03-21T11:06:43.000Z</time>
      </trkpt>
      <trkpt lat="44.98345" lon="6.0345">
        <ele>2767.6000976562</ele>
        <time>2021-03-21T11:06:44.000Z</time>
      </trkpt>
      <trkpt lat="44.98344" lon="6.03449">
        <ele>2768</ele>
        <time>2021-03-21T11:06:45.000Z</time>
      </trkpt>
      <trkpt lat="44.98344" lon="6.03448">
        <ele>2768.8000488281</ele>
        <time>2021-03-21T11:06:46.000Z</time>
      </trkpt>
      <trkpt lat="44.98343" lon="6.03447">
        <ele>2769.3999023438</ele>
        <time>2021-03-21T11:06:47.000Z</time>
      </trkpt>
      <trkpt lat="44.98343" lon="6.03446">
        <ele>2769.8000488281</ele>
        <time>2021-03-21T11:06:48.000Z</time>
      </trkpt>
      <trkpt lat="44.98342" lon="6.03445">
        <ele>2770.6000976562</ele>
        <time>2021-03-21T11:06:49.000Z</time>
      </trkpt>
      <trkpt lat="44.98342" lon="6.03444">
        <ele>2770.8000488281</ele>
        <time>2021-03-21T11:06:50.000Z</time>
      </trkpt>
      <trkpt lat="44.98341" lon="6.03443">
        <ele>2771.3999023438</ele>
        <time>2021-03-21T11:06:51.000Z</time>
      </trkpt>
      <trkpt lat="44.98341" lon="6.03442">
        <ele>2771.6000976562</ele>
        <time>2021-03-21T11:06:52.000Z</time>
      </trkpt>
      <trkpt lat="44.9834" lon="6.03442">
        <ele>2772.6000976562</ele>
        <time>2021-03-21T11:06:53.000Z</time>
      </trkpt>
      <trkpt lat="44.9834" lon="6.03441">
        <ele>2772.8000488281</ele>
        <time>2021-03-21T11:06:54.000Z</time>
      </trkpt>
      <trkpt lat="44.98339" lon="6.0344">
        <ele>2773.6000976562</ele>
        <time>2021-03-21T11:06:55.000Z</time>
      </trkpt>
      <trkpt lat="44.98338" lon="6.0344">
        <ele>2774.3999023438</ele>
        <time>2021-03-21T11:06:56.000Z</time>
      </trkpt>
      <trkpt lat="44.98338" lon="6.03439">
        <ele>2775</ele>
        <time>2021-03-21T11:06:57.000Z</time>
      </trkpt>
      <trkpt lat="44.98337" lon="6.03439">
        <ele>2775.6000976562</ele>
        <time>2021-03-21T11:06:58.000Z</time>
      </trkpt>
      <trkpt lat="44.98337" lon="6.03438">
        <ele>2775.8000488281</ele>
        <time>2021-03-21T11:06:59.000Z</time>
      </trkpt>
      <trkpt lat="44.98336" lon="6.03438">
        <ele>2776.8000488281</ele>
        <time>2021-03-21T11:07:00.000Z</time>
      </trkpt>
      <trkpt lat="44.98336" lon="6.03437">
        <ele>2776.8000488281</ele>
        <time>2021-03-21T11:07:01.000Z</time>
      </trkpt>
      <trkpt lat="44.98336" lon="6.03437">
        <ele>2777.6000976562</ele>
        <time>2021-03-21T11:07:02.000Z</time>
      </trkpt>
      <trkpt lat="44.98335" lon="6.03436">
        <ele>2778</ele>
        <time>2021-03-21T11:07:03.000Z</time>
      </trkpt>
      <trkpt lat="44.98334" lon="6.03435">
        <ele>2778.8000488281</ele>
        <time>2021-03-21T11:07:04.000Z</time>
      </trkpt>
      <trkpt lat="44.98334" lon="6.03435">
        <ele>2779.3999023438</ele>
        <time>2021-03-21T11:07:05.000Z</time>
      </trkpt>
      <trkpt lat="44.98333" lon="6.03434">
        <ele>2779.8000488281</ele>
        <time>2021-03-21T11:07:06.000Z</time>
      </trkpt>
      <trkpt lat="44.98333" lon="6.03434">
        <ele>2780.6000976562</ele>
        <time>2021-03-21T11:07:07.000Z</time>
      </trkpt>
      <trkpt lat="44.98332" lon="6.03434">
        <ele>2780.8000488281</ele>
        <time>2021-03-21T11:07:08.000Z</time>
      </trkpt>
      <trkpt lat="44.98332" lon="6.03433">
        <ele>2781.6000976562</ele>
        <time>2021-03-21T11:07:09.000Z</time>
      </trkpt>
      <trkpt lat="44.98332" lon="6.03433">
        <ele>2781.8000488281</ele>
        <time>2021-03-21T11:07:10.000Z</time>
      </trkpt>
      <trkpt lat="44.98331" lon="6.03432">
        <ele>2782.6000976562</ele>
        <time>2021-03-21T11:07:11.000Z</time>
      </trkpt>
      <trkpt lat="44.98331" lon="6.03432">
        <ele>2782.8000488281</ele>
        <time>2021-03-21T11:07:12.000Z</time>
      </trkpt>
      <trkpt lat="44.9833" lon="6.03432">
        <ele>2783.6000976562</ele>
        <time>2021-03-21T11:07:13.000Z</time>
      </trkpt>
      <trkpt lat="44.98329" lon="6.03432">
        <ele>2784.3999023438</ele>
        <time>2021-03-21T11:07:14.000Z</time>
      </trkpt>
      <trkpt lat="44.98329" lon="6.03432">
        <ele>2784.6000976562</ele>
        <time>2021-03-21T11:07:15.000Z</time>
      </trkpt>
      <trkpt lat="44.98328" lon="6.03431">
        <ele>2785.1999511719</ele>
        <time>2021-03-21T11:07:16.000Z</time>
      </trkpt>
      <trkpt lat="44.98328" lon="6.03431">
        <ele>2785.6000976562</ele>
        <time>2021-03-21T11:07:17.000Z</time>
      </trkpt>
      <trkpt lat="44.98328" lon="6.03432">
        <ele>2786</ele>
        <time>2021-03-21T11:07:18.000Z</time>
      </trkpt>
      <trkpt lat="44.98328" lon="6.03431">
        <ele>2785.8000488281</ele>
        <time>2021-03-21T11:07:19.000Z</time>
      </trkpt>
      <trkpt lat="44.98328" lon="6.03431">
        <ele>2785.3999023438</ele>
        <time>2021-03-21T11:07:20.000Z</time>
      </trkpt>
      <trkpt lat="44.98328" lon="6.03431">
        <ele>2785.6000976562</ele>
        <time>2021-03-21T11:07:21.000Z</time>
      </trkpt>
      <trkpt lat="44.98328" lon="6.03431">
        <ele>2785.1999511719</ele>
        <time>2021-03-21T11:07:22.000Z</time>
      </trkpt>
      <trkpt lat="44.98328" lon="6.03432">
        <ele>2785.1999511719</ele>
        <time>2021-03-21T11:07:23.000Z</time>
      </trkpt>
      <trkpt lat="44.98329" lon="6.03432">
        <ele>2785</ele>
        <time>2021-03-21T11:07:24.000Z</time>
      </trkpt>
      <trkpt lat="44.98328" lon="6.03432">
        <ele>2785.1999511719</ele>
        <time>2021-03-21T11:07:25.000Z</time>
      </trkpt>
      <trkpt lat="44.98329" lon="6.03432">
        <ele>2785</ele>
        <time>2021-03-21T11:07:26.000Z</time>
      </trkpt>
      <trkpt lat="44.98329" lon="6.03432">
        <ele>2785</ele>
        <time>2021-03-21T11:07:27.000Z</time>
      </trkpt>
      <trkpt lat="44.98329" lon="6.03431">
        <ele>2785</ele>
        <time>2021-03-21T11:07:28.000Z</time>
      </trkpt>
      <trkpt lat="44.98329" lon="6.03431">
        <ele>2784.8000488281</ele>
        <time>2021-03-21T11:07:29.000Z</time>
      </trkpt>
      <trkpt lat="44.98329" lon="6.03431">
        <ele>2784.8000488281</ele>
        <time>2021-03-21T11:07:30.000Z</time>
      </trkpt>
      <trkpt lat="44.98329" lon="6.03431">
        <ele>2785</ele>
        <time>2021-03-21T11:07:31.000Z</time>
      </trkpt>
      <trkpt lat="44.98329" lon="6.03431">
        <ele>2785</ele>
        <time>2021-03-21T11:07:32.000Z</time>
      </trkpt>
      <trkpt lat="44.98329" lon="6.03431">
        <ele>2785</ele>
        <time>2021-03-21T11:07:33.000Z</time>
      </trkpt>
      <trkpt lat="44.98329" lon="6.03431">
        <ele>2785</ele>
        <time>2021-03-21T11:07:34.000Z</time>
      </trkpt>
      <trkpt lat="44.98329" lon="6.03431">
        <ele>2784.8000488281</ele>
        <time>2021-03-21T11:07:35.000Z</time>
      </trkpt>
      <trkpt lat="44.98329" lon="6.03431">
        <ele>2784.8000488281</ele>
        <time>2021-03-21T11:07:36.000Z</time>
      </trkpt>
      <trkpt lat="44.98329" lon="6.03431">
        <ele>2784.6000976562</ele>
        <time>2021-03-21T11:07:37.000Z</time>
      </trkpt>
      <trkpt lat="44.98329" lon="6.03431">
        <ele>2784.3999023438</ele>
        <time>2021-03-21T11:07:38.000Z</time>
      </trkpt>
      <trkpt lat="44.98329" lon="6.03431">
        <ele>2784.3999023438</ele>
        <time>2021-03-21T11:07:39.000Z</time>
      </trkpt>
      <trkpt lat="44.98329" lon="6.03431">
        <ele>2784.6000976562</ele>
        <time>2021-03-21T11:07:40.000Z</time>
      </trkpt>
      <trkpt lat="44.98329" lon="6.03432">
        <ele>2784.6000976562</ele>
        <time>2021-03-21T11:07:41.000Z</time>
      </trkpt>
      <trkpt lat="44.98329" lon="6.03432">
        <ele>2784.8000488281</ele>
        <time>2021-03-21T11:07:42.000Z</time>
      </trkpt>
      <trkpt lat="44.98329" lon="6.03433">
        <ele>2784.8000488281</ele>
        <time>2021-03-21T11:07:43.000Z</time>
      </trkpt>
      <trkpt lat="44.98329" lon="6.03433">
        <ele>2784.6000976562</ele>
        <time>2021-03-21T11:07:44.000Z</time>
      </trkpt>
      <trkpt lat="44.98329" lon="6.03434">
        <ele>2784.6000976562</ele>
        <time>2021-03-21T11:07:45.000Z</time>
      </trkpt>
      <trkpt lat="44.98329" lon="6.03435">
        <ele>2784.8000488281</ele>
        <time>2021-03-21T11:07:46.000Z</time>
      </trkpt>
      <trkpt lat="44.98329" lon="6.03436">
        <ele>2784.6000976562</ele>
        <time>2021-03-21T11:07:47.000Z</time>
      </trkpt>
      <trkpt lat="44.98329" lon="6.03436">
        <ele>2784.6000976562</ele>
        <time>2021-03-21T11:07:48.000Z</time>
      </trkpt>
      <trkpt lat="44.98329" lon="6.03437">
        <ele>2784.3999023438</ele>
        <time>2021-03-21T11:07:49.000Z</time>
      </trkpt>
      <trkpt lat="44.98329" lon="6.03439">
        <ele>2784</ele>
        <time>2021-03-21T11:07:50.000Z</time>
      </trkpt>
      <trkpt lat="44.98329" lon="6.03439">
        <ele>2784</ele>
        <time>2021-03-21T11:07:51.000Z</time>
      </trkpt>
      <trkpt lat="44.98329" lon="6.0344">
        <ele>2784</ele>
        <time>2021-03-21T11:07:52.000Z</time>
      </trkpt>
      <trkpt lat="44.9833" lon="6.03441">
        <ele>2783.3999023438</ele>
        <time>2021-03-21T11:07:53.000Z</time>
      </trkpt>
      <trkpt lat="44.9833" lon="6.03442">
        <ele>2783</ele>
        <time>2021-03-21T11:07:54.000Z</time>
      </trkpt>
      <trkpt lat="44.9833" lon="6.03443">
        <ele>2783.3999023438</ele>
        <time>2021-03-21T11:07:55.000Z</time>
      </trkpt>
      <trkpt lat="44.9833" lon="6.03444">
        <ele>2783.3999023438</ele>
        <time>2021-03-21T11:07:56.000Z</time>
      </trkpt>
      <trkpt lat="44.9833" lon="6.03445">
        <ele>2783.8000488281</ele>
        <time>2021-03-21T11:07:57.000Z</time>
      </trkpt>
      <trkpt lat="44.9833" lon="6.03445">
        <ele>2784</ele>
        <time>2021-03-21T11:07:58.000Z</time>
      </trkpt>
      <trkpt lat="44.9833" lon="6.03446">
        <ele>2784.1999511719</ele>
        <time>2021-03-21T11:07:59.000Z</time>
      </trkpt>
      <trkpt lat="44.9833" lon="6.03447">
        <ele>2784</ele>
        <time>2021-03-21T11:08:00.000Z</time>
      </trkpt>
      <trkpt lat="44.98331" lon="6.03447">
        <ele>2783.8000488281</ele>
        <time>2021-03-21T11:08:01.000Z</time>
      </trkpt>
      <trkpt lat="44.98331" lon="6.03447">
        <ele>2783.6000976562</ele>
        <time>2021-03-21T11:08:02.000Z</time>
      </trkpt>
      <trkpt lat="44.98331" lon="6.03448">
        <ele>2783.8000488281</ele>
        <time>2021-03-21T11:08:03.000Z</time>
      </trkpt>
      <trkpt lat="44.98331" lon="6.03449">
        <ele>2783.8000488281</ele>
        <time>2021-03-21T11:08:04.000Z</time>
      </trkpt>
      <trkpt lat="44.98331" lon="6.03449">
        <ele>2784.3999023438</ele>
        <time>2021-03-21T11:08:05.000Z</time>
      </trkpt>
      <trkpt lat="44.98331" lon="6.0345">
        <ele>2784.1999511719</ele>
        <time>2021-03-21T11:08:06.000Z</time>
      </trkpt>
      <trkpt lat="44.9833" lon="6.0345">
        <ele>2784.8000488281</ele>
        <time>2021-03-21T11:08:07.000Z</time>
      </trkpt>
      <trkpt lat="44.98329" lon="6.0345">
        <ele>2786.1999511719</ele>
        <time>2021-03-21T11:08:08.000Z</time>
      </trkpt>
      <trkpt lat="44.98329" lon="6.0345">
        <ele>2786.1999511719</ele>
        <time>2021-03-21T11:08:09.000Z</time>
      </trkpt>
      <trkpt lat="44.98329" lon="6.0345">
        <ele>2786.3999023438</ele>
        <time>2021-03-21T11:08:10.000Z</time>
      </trkpt>
      <trkpt lat="44.98329" lon="6.0345">
        <ele>2786.6000976562</ele>
        <time>2021-03-21T11:08:11.000Z</time>
      </trkpt>
      <trkpt lat="44.98328" lon="6.03449">
        <ele>2787.3999023438</ele>
        <time>2021-03-21T11:08:12.000Z</time>
      </trkpt>
      <trkpt lat="44.98328" lon="6.03449">
        <ele>2787.6000976562</ele>
        <time>2021-03-21T11:08:13.000Z</time>
      </trkpt>
      <trkpt lat="44.98328" lon="6.03448">
        <ele>2788.1999511719</ele>
        <time>2021-03-21T11:08:14.000Z</time>
      </trkpt>
      <trkpt lat="44.98327" lon="6.03448">
        <ele>2788.6000976562</ele>
        <time>2021-03-21T11:08:15.000Z</time>
      </trkpt>
      <trkpt lat="44.98327" lon="6.03447">
        <ele>2789.1999511719</ele>
        <time>2021-03-21T11:08:16.000Z</time>
      </trkpt>
      <trkpt lat="44.98326" lon="6.03447">
        <ele>2789.8000488281</ele>
        <time>2021-03-21T11:08:17.000Z</time>
      </trkpt>
      <trkpt lat="44.98326" lon="6.03446">
        <ele>2789.6000976562</ele>
        <time>2021-03-21T11:08:18.000Z</time>
      </trkpt>
      <trkpt lat="44.98325" lon="6.03445">
        <ele>2790.8000488281</ele>
        <time>2021-03-21T11:08:19.000Z</time>
      </trkpt>
      <trkpt lat="44.98325" lon="6.03445">
        <ele>2791</ele>
        <time>2021-03-21T11:08:20.000Z</time>
      </trkpt>
      <trkpt lat="44.98324" lon="6.03444">
        <ele>2791.8000488281</ele>
        <time>2021-03-21T11:08:21.000Z</time>
      </trkpt>
      <trkpt lat="44.98323" lon="6.03444">
        <ele>2792.6000976562</ele>
        <time>2021-03-21T11:08:22.000Z</time>
      </trkpt>
      <trkpt lat="44.98323" lon="6.03443">
        <ele>2793.1999511719</ele>
        <time>2021-03-21T11:08:23.000Z</time>
      </trkpt>
      <trkpt lat="44.98322" lon="6.03443">
        <ele>2793.8000488281</ele>
        <time>2021-03-21T11:08:24.000Z</time>
      </trkpt>
      <trkpt lat="44.98322" lon="6.03442">
        <ele>2794</ele>
        <time>2021-03-21T11:08:25.000Z</time>
      </trkpt>
      <trkpt lat="44.98321" lon="6.03442">
        <ele>2795</ele>
        <time>2021-03-21T11:08:26.000Z</time>
      </trkpt>
      <trkpt lat="44.98321" lon="6.03441">
        <ele>2794.8000488281</ele>
        <time>2021-03-21T11:08:27.000Z</time>
      </trkpt>
      <trkpt lat="44.98321" lon="6.03441">
        <ele>2795.6000976562</ele>
        <time>2021-03-21T11:08:28.000Z</time>
      </trkpt>
      <trkpt lat="44.9832" lon="6.03441">
        <ele>2795.6000976562</ele>
        <time>2021-03-21T11:08:29.000Z</time>
      </trkpt>
      <trkpt lat="44.9832" lon="6.0344">
        <ele>2796</ele>
        <time>2021-03-21T11:08:30.000Z</time>
      </trkpt>
      <trkpt lat="44.9832" lon="6.03439">
        <ele>2796</ele>
        <time>2021-03-21T11:08:31.000Z</time>
      </trkpt>
      <trkpt lat="44.98319" lon="6.03439">
        <ele>2796.6000976562</ele>
        <time>2021-03-21T11:08:32.000Z</time>
      </trkpt>
      <trkpt lat="44.98319" lon="6.03438">
        <ele>2796.8000488281</ele>
        <time>2021-03-21T11:08:33.000Z</time>
      </trkpt>
      <trkpt lat="44.98318" lon="6.03438">
        <ele>2797.3999023438</ele>
        <time>2021-03-21T11:08:34.000Z</time>
      </trkpt>
      <trkpt lat="44.98318" lon="6.03437">
        <ele>2797.6000976562</ele>
        <time>2021-03-21T11:08:35.000Z</time>
      </trkpt>
      <trkpt lat="44.98317" lon="6.03437">
        <ele>2798.1999511719</ele>
        <time>2021-03-21T11:08:36.000Z</time>
      </trkpt>
      <trkpt lat="44.98317" lon="6.03436">
        <ele>2798.3999023438</ele>
        <time>2021-03-21T11:08:37.000Z</time>
      </trkpt>
      <trkpt lat="44.98316" lon="6.03437">
        <ele>2799</ele>
        <time>2021-03-21T11:08:38.000Z</time>
      </trkpt>
      <trkpt lat="44.98316" lon="6.03436">
        <ele>2799.6000976562</ele>
        <time>2021-03-21T11:08:39.000Z</time>
      </trkpt>
      <trkpt lat="44.98315" lon="6.03436">
        <ele>2800</ele>
        <time>2021-03-21T11:08:40.000Z</time>
      </trkpt>
      <trkpt lat="44.98315" lon="6.03436">
        <ele>2800.1999511719</ele>
        <time>2021-03-21T11:08:41.000Z</time>
      </trkpt>
      <trkpt lat="44.98314" lon="6.03436">
        <ele>2800.3999023438</ele>
        <time>2021-03-21T11:08:42.000Z</time>
      </trkpt>
      <trkpt lat="44.98314" lon="6.03436">
        <ele>2800.3999023438</ele>
        <time>2021-03-21T11:08:43.000Z</time>
      </trkpt>
      <trkpt lat="44.98314" lon="6.03436">
        <ele>2800.6000976562</ele>
        <time>2021-03-21T11:08:44.000Z</time>
      </trkpt>
      <trkpt lat="44.98314" lon="6.03436">
        <ele>2800.6000976562</ele>
        <time>2021-03-21T11:08:45.000Z</time>
      </trkpt>
      <trkpt lat="44.98314" lon="6.03437">
        <ele>2800.8000488281</ele>
        <time>2021-03-21T11:08:46.000Z</time>
      </trkpt>
      <trkpt lat="44.98314" lon="6.03437">
        <ele>2801</ele>
        <time>2021-03-21T11:08:47.000Z</time>
      </trkpt>
      <trkpt lat="44.98314" lon="6.03437">
        <ele>2801</ele>
        <time>2021-03-21T11:08:48.000Z</time>
      </trkpt>
      <trkpt lat="44.98314" lon="6.03437">
        <ele>2801.1999511719</ele>
        <time>2021-03-21T11:08:49.000Z</time>
      </trkpt>
      <trkpt lat="44.98314" lon="6.03438">
        <ele>2801.3999023438</ele>
        <time>2021-03-21T11:08:50.000Z</time>
      </trkpt>
      <trkpt lat="44.98314" lon="6.03438">
        <ele>2801.8000488281</ele>
        <time>2021-03-21T11:08:51.000Z</time>
      </trkpt>
      <trkpt lat="44.98314" lon="6.03439">
        <ele>2802</ele>
        <time>2021-03-21T11:08:52.000Z</time>
      </trkpt>
      <trkpt lat="44.98314" lon="6.03439">
        <ele>2802</ele>
        <time>2021-03-21T11:08:53.000Z</time>
      </trkpt>
      <trkpt lat="44.98314" lon="6.03439">
        <ele>2802</ele>
        <time>2021-03-21T11:08:54.000Z</time>
      </trkpt>
      <trkpt lat="44.98314" lon="6.03439">
        <ele>2802</ele>
        <time>2021-03-21T11:08:55.000Z</time>
      </trkpt>
      <trkpt lat="44.98313" lon="6.03439">
        <ele>2802.1999511719</ele>
        <time>2021-03-21T11:08:56.000Z</time>
      </trkpt>
      <trkpt lat="44.98312" lon="6.03439">
        <ele>2803</ele>
        <time>2021-03-21T11:08:57.000Z</time>
      </trkpt>
      <trkpt lat="44.98312" lon="6.03439">
        <ele>2803.6000976562</ele>
        <time>2021-03-21T11:08:58.000Z</time>
      </trkpt>
      <trkpt lat="44.98312" lon="6.03438">
        <ele>2803.6000976562</ele>
        <time>2021-03-21T11:08:59.000Z</time>
      </trkpt>
      <trkpt lat="44.98311" lon="6.03438">
        <ele>2804</ele>
        <time>2021-03-21T11:09:00.000Z</time>
      </trkpt>
      <trkpt lat="44.98311" lon="6.03437">
        <ele>2804</ele>
        <time>2021-03-21T11:09:01.000Z</time>
      </trkpt>
      <trkpt lat="44.9831" lon="6.03437">
        <ele>2804.3999023438</ele>
        <time>2021-03-21T11:09:02.000Z</time>
      </trkpt>
      <trkpt lat="44.9831" lon="6.03436">
        <ele>2804.8000488281</ele>
        <time>2021-03-21T11:09:03.000Z</time>
      </trkpt>
      <trkpt lat="44.98309" lon="6.03435">
        <ele>2804.8000488281</ele>
        <time>2021-03-21T11:09:04.000Z</time>
      </trkpt>
      <trkpt lat="44.98309" lon="6.03435">
        <ele>2805</ele>
        <time>2021-03-21T11:09:05.000Z</time>
      </trkpt>
      <trkpt lat="44.98308" lon="6.03434">
        <ele>2805.1999511719</ele>
        <time>2021-03-21T11:09:06.000Z</time>
      </trkpt>
      <trkpt lat="44.98308" lon="6.03433">
        <ele>2805.3999023438</ele>
        <time>2021-03-21T11:09:07.000Z</time>
      </trkpt>
      <trkpt lat="44.98308" lon="6.03432">
        <ele>2805.3999023438</ele>
        <time>2021-03-21T11:09:08.000Z</time>
      </trkpt>
      <trkpt lat="44.98307" lon="6.03431">
        <ele>2806</ele>
        <time>2021-03-21T11:09:09.000Z</time>
      </trkpt>
      <trkpt lat="44.98306" lon="6.03431">
        <ele>2806.3999023438</ele>
        <time>2021-03-21T11:09:10.000Z</time>
      </trkpt>
      <trkpt lat="44.98305" lon="6.0343">
        <ele>2806.8000488281</ele>
        <time>2021-03-21T11:09:11.000Z</time>
      </trkpt>
      <trkpt lat="44.98305" lon="6.03429">
        <ele>2807.3999023438</ele>
        <time>2021-03-21T11:09:12.000Z</time>
      </trkpt>
      <trkpt lat="44.98304" lon="6.03428">
        <ele>2807.8000488281</ele>
        <time>2021-03-21T11:09:13.000Z</time>
      </trkpt>
      <trkpt lat="44.98303" lon="6.03428">
        <ele>2808.3999023438</ele>
        <time>2021-03-21T11:09:14.000Z</time>
      </trkpt>
      <trkpt lat="44.98303" lon="6.03428">
        <ele>2808.8000488281</ele>
        <time>2021-03-21T11:09:15.000Z</time>
      </trkpt>
      <trkpt lat="44.98302" lon="6.03428">
        <ele>2809.3999023438</ele>
        <time>2021-03-21T11:09:16.000Z</time>
      </trkpt>
      <trkpt lat="44.98302" lon="6.03427">
        <ele>2809.8000488281</ele>
        <time>2021-03-21T11:09:17.000Z</time>
      </trkpt>
      <trkpt lat="44.98301" lon="6.03427">
        <ele>2810.1999511719</ele>
        <time>2021-03-21T11:09:18.000Z</time>
      </trkpt>
      <trkpt lat="44.98301" lon="6.03427">
        <ele>2810.6000976562</ele>
        <time>2021-03-21T11:09:19.000Z</time>
      </trkpt>
      <trkpt lat="44.98301" lon="6.03426">
        <ele>2810.8000488281</ele>
        <time>2021-03-21T11:09:20.000Z</time>
      </trkpt>
      <trkpt lat="44.983" lon="6.03426">
        <ele>2811.3999023438</ele>
        <time>2021-03-21T11:09:21.000Z</time>
      </trkpt>
      <trkpt lat="44.98299" lon="6.03426">
        <ele>2811.6000976562</ele>
        <time>2021-03-21T11:09:22.000Z</time>
      </trkpt>
      <trkpt lat="44.98298" lon="6.03426">
        <ele>2812.6000976562</ele>
        <time>2021-03-21T11:09:23.000Z</time>
      </trkpt>
      <trkpt lat="44.98298" lon="6.03426">
        <ele>2813</ele>
        <time>2021-03-21T11:09:24.000Z</time>
      </trkpt>
      <trkpt lat="44.98297" lon="6.03425">
        <ele>2813.6000976562</ele>
        <time>2021-03-21T11:09:25.000Z</time>
      </trkpt>
      <trkpt lat="44.98297" lon="6.03425">
        <ele>2814</ele>
        <time>2021-03-21T11:09:26.000Z</time>
      </trkpt>
      <trkpt lat="44.98296" lon="6.03425">
        <ele>2814.3999023438</ele>
        <time>2021-03-21T11:09:27.000Z</time>
      </trkpt>
      <trkpt lat="44.98295" lon="6.03425">
        <ele>2815.1999511719</ele>
        <time>2021-03-21T11:09:28.000Z</time>
      </trkpt>
      <trkpt lat="44.98295" lon="6.03425">
        <ele>2815.3999023438</ele>
        <time>2021-03-21T11:09:29.000Z</time>
      </trkpt>
      <trkpt lat="44.98294" lon="6.03425">
        <ele>2816.6000976562</ele>
        <time>2021-03-21T11:09:30.000Z</time>
      </trkpt>
      <trkpt lat="44.98293" lon="6.03424">
        <ele>2816.6000976562</ele>
        <time>2021-03-21T11:09:31.000Z</time>
      </trkpt>
      <trkpt lat="44.98293" lon="6.03424">
        <ele>2817.3999023438</ele>
        <time>2021-03-21T11:09:32.000Z</time>
      </trkpt>
      <trkpt lat="44.98292" lon="6.03424">
        <ele>2817.6000976562</ele>
        <time>2021-03-21T11:09:33.000Z</time>
      </trkpt>
      <trkpt lat="44.98292" lon="6.03423">
        <ele>2818</ele>
        <time>2021-03-21T11:09:34.000Z</time>
      </trkpt>
      <trkpt lat="44.98291" lon="6.03423">
        <ele>2818.3999023438</ele>
        <time>2021-03-21T11:09:35.000Z</time>
      </trkpt>
      <trkpt lat="44.98291" lon="6.03422">
        <ele>2818.6000976562</ele>
        <time>2021-03-21T11:09:36.000Z</time>
      </trkpt>
      <trkpt lat="44.9829" lon="6.03422">
        <ele>2818.8000488281</ele>
        <time>2021-03-21T11:09:37.000Z</time>
      </trkpt>
      <trkpt lat="44.9829" lon="6.03421">
        <ele>2818.8000488281</ele>
        <time>2021-03-21T11:09:38.000Z</time>
      </trkpt>
      <trkpt lat="44.98289" lon="6.0342">
        <ele>2819.1999511719</ele>
        <time>2021-03-21T11:09:39.000Z</time>
      </trkpt>
      <trkpt lat="44.98288" lon="6.0342">
        <ele>2819.1999511719</ele>
        <time>2021-03-21T11:09:40.000Z</time>
      </trkpt>
      <trkpt lat="44.98288" lon="6.0342">
        <ele>2819.3999023438</ele>
        <time>2021-03-21T11:09:41.000Z</time>
      </trkpt>
      <trkpt lat="44.98288" lon="6.0342">
        <ele>2819.3999023438</ele>
        <time>2021-03-21T11:09:42.000Z</time>
      </trkpt>
      <trkpt lat="44.98287" lon="6.0342">
        <ele>2819.6000976562</ele>
        <time>2021-03-21T11:09:43.000Z</time>
      </trkpt>
      <trkpt lat="44.98287" lon="6.0342">
        <ele>2819.6000976562</ele>
        <time>2021-03-21T11:09:44.000Z</time>
      </trkpt>
      <trkpt lat="44.98288" lon="6.0342">
        <ele>2819.6000976562</ele>
        <time>2021-03-21T11:09:45.000Z</time>
      </trkpt>
      <trkpt lat="44.98288" lon="6.0342">
        <ele>2819.6000976562</ele>
        <time>2021-03-21T11:09:46.000Z</time>
      </trkpt>
      <trkpt lat="44.98287" lon="6.0342">
        <ele>2819.6000976562</ele>
        <time>2021-03-21T11:09:47.000Z</time>
      </trkpt>
      <trkpt lat="44.98287" lon="6.03421">
        <ele>2819.8000488281</ele>
        <time>2021-03-21T11:09:48.000Z</time>
      </trkpt>
      <trkpt lat="44.98287" lon="6.03421">
        <ele>2819.8000488281</ele>
        <time>2021-03-21T11:09:49.000Z</time>
      </trkpt>
      <trkpt lat="44.98288" lon="6.03421">
        <ele>2819.6000976562</ele>
        <time>2021-03-21T11:09:50.000Z</time>
      </trkpt>
      <trkpt lat="44.98288" lon="6.03421">
        <ele>2819.8000488281</ele>
        <time>2021-03-21T11:09:51.000Z</time>
      </trkpt>
      <trkpt lat="44.98287" lon="6.03421">
        <ele>2820</ele>
        <time>2021-03-21T11:09:52.000Z</time>
      </trkpt>
      <trkpt lat="44.98286" lon="6.03421">
        <ele>2820.1999511719</ele>
        <time>2021-03-21T11:09:53.000Z</time>
      </trkpt>
      <trkpt lat="44.98285" lon="6.0342">
        <ele>2820.6000976562</ele>
        <time>2021-03-21T11:09:54.000Z</time>
      </trkpt>
      <trkpt lat="44.98285" lon="6.0342">
        <ele>2820.6000976562</ele>
        <time>2021-03-21T11:09:55.000Z</time>
      </trkpt>
      <trkpt lat="44.98285" lon="6.03419">
        <ele>2820.6000976562</ele>
        <time>2021-03-21T11:09:56.000Z</time>
      </trkpt>
      <trkpt lat="44.98284" lon="6.03418">
        <ele>2820.6000976562</ele>
        <time>2021-03-21T11:09:57.000Z</time>
      </trkpt>
      <trkpt lat="44.98284" lon="6.03418">
        <ele>2820.8000488281</ele>
        <time>2021-03-21T11:09:58.000Z</time>
      </trkpt>
      <trkpt lat="44.98282" lon="6.03418">
        <ele>2821.3999023438</ele>
        <time>2021-03-21T11:09:59.000Z</time>
      </trkpt>
      <trkpt lat="44.98282" lon="6.03418">
        <ele>2821.6000976562</ele>
        <time>2021-03-21T11:10:00.000Z</time>
      </trkpt>
      <trkpt lat="44.98281" lon="6.03417">
        <ele>2821.8000488281</ele>
        <time>2021-03-21T11:10:01.000Z</time>
      </trkpt>
      <trkpt lat="44.98281" lon="6.03417">
        <ele>2822</ele>
        <time>2021-03-21T11:10:02.000Z</time>
      </trkpt>
      <trkpt lat="44.9828" lon="6.03416">
        <ele>2822</ele>
        <time>2021-03-21T11:10:03.000Z</time>
      </trkpt>
      <trkpt lat="44.98279" lon="6.03415">
        <ele>2822.1999511719</ele>
        <time>2021-03-21T11:10:04.000Z</time>
      </trkpt>
      <trkpt lat="44.98279" lon="6.03415">
        <ele>2822.1999511719</ele>
        <time>2021-03-21T11:10:05.000Z</time>
      </trkpt>
      <trkpt lat="44.98278" lon="6.03415">
        <ele>2822.6000976562</ele>
        <time>2021-03-21T11:10:06.000Z</time>
      </trkpt>
      <trkpt lat="44.98278" lon="6.03414">
        <ele>2822.8000488281</ele>
        <time>2021-03-21T11:10:07.000Z</time>
      </trkpt>
      <trkpt lat="44.98277" lon="6.03414">
        <ele>2823.1999511719</ele>
        <time>2021-03-21T11:10:08.000Z</time>
      </trkpt>
      <trkpt lat="44.98276" lon="6.03414">
        <ele>2823.3999023438</ele>
        <time>2021-03-21T11:10:09.000Z</time>
      </trkpt>
      <trkpt lat="44.98275" lon="6.03413">
        <ele>2823.6000976562</ele>
        <time>2021-03-21T11:10:10.000Z</time>
      </trkpt>
      <trkpt lat="44.98275" lon="6.03413">
        <ele>2823.8000488281</ele>
        <time>2021-03-21T11:10:11.000Z</time>
      </trkpt>
      <trkpt lat="44.98274" lon="6.03412">
        <ele>2823.8000488281</ele>
        <time>2021-03-21T11:10:12.000Z</time>
      </trkpt>
      <trkpt lat="44.98273" lon="6.03411">
        <ele>2824</ele>
        <time>2021-03-21T11:10:13.000Z</time>
      </trkpt>
      <trkpt lat="44.98273" lon="6.03411">
        <ele>2824.1999511719</ele>
        <time>2021-03-21T11:10:14.000Z</time>
      </trkpt>
      <trkpt lat="44.98272" lon="6.03411">
        <ele>2824.6000976562</ele>
        <time>2021-03-21T11:10:15.000Z</time>
      </trkpt>
      <trkpt lat="44.98272" lon="6.0341">
        <ele>2824.6000976562</ele>
        <time>2021-03-21T11:10:16.000Z</time>
      </trkpt>
      <trkpt lat="44.98271" lon="6.0341">
        <ele>2824.8000488281</ele>
        <time>2021-03-21T11:10:17.000Z</time>
      </trkpt>
      <trkpt lat="44.98271" lon="6.0341">
        <ele>2825</ele>
        <time>2021-03-21T11:10:18.000Z</time>
      </trkpt>
      <trkpt lat="44.9827" lon="6.03409">
        <ele>2825.3999023438</ele>
        <time>2021-03-21T11:10:19.000Z</time>
      </trkpt>
      <trkpt lat="44.98269" lon="6.03409">
        <ele>2825.3999023438</ele>
        <time>2021-03-21T11:10:20.000Z</time>
      </trkpt>
      <trkpt lat="44.98269" lon="6.03408">
        <ele>2825.6000976562</ele>
        <time>2021-03-21T11:10:21.000Z</time>
      </trkpt>
      <trkpt lat="44.98268" lon="6.03408">
        <ele>2825.8000488281</ele>
        <time>2021-03-21T11:10:22.000Z</time>
      </trkpt>
      <trkpt lat="44.98267" lon="6.03407">
        <ele>2826</ele>
        <time>2021-03-21T11:10:23.000Z</time>
      </trkpt>
      <trkpt lat="44.98267" lon="6.03407">
        <ele>2826</ele>
        <time>2021-03-21T11:10:24.000Z</time>
      </trkpt>
      <trkpt lat="44.98266" lon="6.03406">
        <ele>2826.1999511719</ele>
        <time>2021-03-21T11:10:25.000Z</time>
      </trkpt>
      <trkpt lat="44.98266" lon="6.03405">
        <ele>2826.3999023438</ele>
        <time>2021-03-21T11:10:26.000Z</time>
      </trkpt>
      <trkpt lat="44.98265" lon="6.03405">
        <ele>2826.6000976562</ele>
        <time>2021-03-21T11:10:27.000Z</time>
      </trkpt>
      <trkpt lat="44.98264" lon="6.03404">
        <ele>2826.8000488281</ele>
        <time>2021-03-21T11:10:28.000Z</time>
      </trkpt>
      <trkpt lat="44.98264" lon="6.03404">
        <ele>2826.8000488281</ele>
        <time>2021-03-21T11:10:29.000Z</time>
      </trkpt>
      <trkpt lat="44.98263" lon="6.03403">
        <ele>2827.1999511719</ele>
        <time>2021-03-21T11:10:30.000Z</time>
      </trkpt>
      <trkpt lat="44.98263" lon="6.03403">
        <ele>2827.1999511719</ele>
        <time>2021-03-21T11:10:31.000Z</time>
      </trkpt>
      <trkpt lat="44.98262" lon="6.03403">
        <ele>2827.6000976562</ele>
        <time>2021-03-21T11:10:32.000Z</time>
      </trkpt>
      <trkpt lat="44.98262" lon="6.03402">
        <ele>2827.8000488281</ele>
        <time>2021-03-21T11:10:33.000Z</time>
      </trkpt>
      <trkpt lat="44.98262" lon="6.03402">
        <ele>2828</ele>
        <time>2021-03-21T11:10:34.000Z</time>
      </trkpt>
      <trkpt lat="44.98261" lon="6.03401">
        <ele>2828</ele>
        <time>2021-03-21T11:10:35.000Z</time>
      </trkpt>
      <trkpt lat="44.98261" lon="6.03401">
        <ele>2828.1999511719</ele>
        <time>2021-03-21T11:10:36.000Z</time>
      </trkpt>
      <trkpt lat="44.98261" lon="6.03401">
        <ele>2828.1999511719</ele>
        <time>2021-03-21T11:10:37.000Z</time>
      </trkpt>
      <trkpt lat="44.98261" lon="6.03401">
        <ele>2828.3999023438</ele>
        <time>2021-03-21T11:10:38.000Z</time>
      </trkpt>
      <trkpt lat="44.98261" lon="6.034">
        <ele>2828.1999511719</ele>
        <time>2021-03-21T11:10:39.000Z</time>
      </trkpt>
      <trkpt lat="44.98261" lon="6.034">
        <ele>2828.1999511719</ele>
        <time>2021-03-21T11:10:40.000Z</time>
      </trkpt>
      <trkpt lat="44.98262" lon="6.034">
        <ele>2828</ele>
        <time>2021-03-21T11:10:41.000Z</time>
      </trkpt>
      <trkpt lat="44.98261" lon="6.03399">
        <ele>2828.1999511719</ele>
        <time>2021-03-21T11:10:42.000Z</time>
      </trkpt>
      <trkpt lat="44.98261" lon="6.03398">
        <ele>2828.1999511719</ele>
        <time>2021-03-21T11:10:43.000Z</time>
      </trkpt>
      <trkpt lat="44.98261" lon="6.03398">
        <ele>2828.6000976562</ele>
        <time>2021-03-21T11:10:44.000Z</time>
      </trkpt>
      <trkpt lat="44.98261" lon="6.03397">
        <ele>2828.6000976562</ele>
        <time>2021-03-21T11:10:45.000Z</time>
      </trkpt>
      <trkpt lat="44.9826" lon="6.03396">
        <ele>2828.8000488281</ele>
        <time>2021-03-21T11:10:46.000Z</time>
      </trkpt>
      <trkpt lat="44.9826" lon="6.03395">
        <ele>2829</ele>
        <time>2021-03-21T11:10:47.000Z</time>
      </trkpt>
      <trkpt lat="44.9826" lon="6.03394">
        <ele>2829.1999511719</ele>
        <time>2021-03-21T11:10:48.000Z</time>
      </trkpt>
      <trkpt lat="44.98259" lon="6.03393">
        <ele>2829.3999023438</ele>
        <time>2021-03-21T11:10:49.000Z</time>
      </trkpt>
      <trkpt lat="44.98259" lon="6.03393">
        <ele>2829.3999023438</ele>
        <time>2021-03-21T11:10:50.000Z</time>
      </trkpt>
      <trkpt lat="44.98258" lon="6.03392">
        <ele>2829.8000488281</ele>
        <time>2021-03-21T11:10:51.000Z</time>
      </trkpt>
      <trkpt lat="44.98258" lon="6.03392">
        <ele>2830</ele>
        <time>2021-03-21T11:10:52.000Z</time>
      </trkpt>
      <trkpt lat="44.98258" lon="6.03391">
        <ele>2830.1999511719</ele>
        <time>2021-03-21T11:10:53.000Z</time>
      </trkpt>
      <trkpt lat="44.98257" lon="6.03391">
        <ele>2830.3999023438</ele>
        <time>2021-03-21T11:10:54.000Z</time>
      </trkpt>
      <trkpt lat="44.98257" lon="6.0339">
        <ele>2830.3999023438</ele>
        <time>2021-03-21T11:10:55.000Z</time>
      </trkpt>
      <trkpt lat="44.98257" lon="6.03389">
        <ele>2830.6000976562</ele>
        <time>2021-03-21T11:10:56.000Z</time>
      </trkpt>
      <trkpt lat="44.98257" lon="6.03388">
        <ele>2830.8000488281</ele>
        <time>2021-03-21T11:10:57.000Z</time>
      </trkpt>
      <trkpt lat="44.98256" lon="6.03388">
        <ele>2830.8000488281</ele>
        <time>2021-03-21T11:10:58.000Z</time>
      </trkpt>
      <trkpt lat="44.98257" lon="6.03387">
        <ele>2830.8000488281</ele>
        <time>2021-03-21T11:10:59.000Z</time>
      </trkpt>
      <trkpt lat="44.98256" lon="6.03387">
        <ele>2831</ele>
        <time>2021-03-21T11:11:00.000Z</time>
      </trkpt>
      <trkpt lat="44.98256" lon="6.03387">
        <ele>2831</ele>
        <time>2021-03-21T11:11:01.000Z</time>
      </trkpt>
      <trkpt lat="44.98256" lon="6.03386">
        <ele>2831.3999023438</ele>
        <time>2021-03-21T11:11:02.000Z</time>
      </trkpt>
      <trkpt lat="44.98255" lon="6.03385">
        <ele>2831.3999023438</ele>
        <time>2021-03-21T11:11:03.000Z</time>
      </trkpt>
      <trkpt lat="44.98255" lon="6.03385">
        <ele>2831.8000488281</ele>
        <time>2021-03-21T11:11:04.000Z</time>
      </trkpt>
      <trkpt lat="44.98254" lon="6.03384">
        <ele>2832</ele>
        <time>2021-03-21T11:11:05.000Z</time>
      </trkpt>
      <trkpt lat="44.98254" lon="6.03383">
        <ele>2832.1999511719</ele>
        <time>2021-03-21T11:11:06.000Z</time>
      </trkpt>
      <trkpt lat="44.98254" lon="6.03382">
        <ele>2832.3999023438</ele>
        <time>2021-03-21T11:11:07.000Z</time>
      </trkpt>
      <trkpt lat="44.98253" lon="6.03382">
        <ele>2832.3999023438</ele>
        <time>2021-03-21T11:11:08.000Z</time>
      </trkpt>
      <trkpt lat="44.98253" lon="6.03381">
        <ele>2832.6000976562</ele>
        <time>2021-03-21T11:11:09.000Z</time>
      </trkpt>
      <trkpt lat="44.98253" lon="6.03381">
        <ele>2832.6000976562</ele>
        <time>2021-03-21T11:11:10.000Z</time>
      </trkpt>
      <trkpt lat="44.98253" lon="6.0338">
        <ele>2832.8000488281</ele>
        <time>2021-03-21T11:11:11.000Z</time>
      </trkpt>
      <trkpt lat="44.98253" lon="6.0338">
        <ele>2832.8000488281</ele>
        <time>2021-03-21T11:11:12.000Z</time>
      </trkpt>
      <trkpt lat="44.98253" lon="6.03379">
        <ele>2832.8000488281</ele>
        <time>2021-03-21T11:11:13.000Z</time>
      </trkpt>
      <trkpt lat="44.98253" lon="6.03379">
        <ele>2832.6000976562</ele>
        <time>2021-03-21T11:11:14.000Z</time>
      </trkpt>
      <trkpt lat="44.98253" lon="6.03378">
        <ele>2832.6000976562</ele>
        <time>2021-03-21T11:11:15.000Z</time>
      </trkpt>
      <trkpt lat="44.98253" lon="6.03378">
        <ele>2832.6000976562</ele>
        <time>2021-03-21T11:11:16.000Z</time>
      </trkpt>
      <trkpt lat="44.98253" lon="6.03377">
        <ele>2832.6000976562</ele>
        <time>2021-03-21T11:11:17.000Z</time>
      </trkpt>
      <trkpt lat="44.98253" lon="6.03377">
        <ele>2832.6000976562</ele>
        <time>2021-03-21T11:11:18.000Z</time>
      </trkpt>
      <trkpt lat="44.98252" lon="6.03376">
        <ele>2833.1999511719</ele>
        <time>2021-03-21T11:11:19.000Z</time>
      </trkpt>
      <trkpt lat="44.98253" lon="6.03375">
        <ele>2833</ele>
        <time>2021-03-21T11:11:20.000Z</time>
      </trkpt>
      <trkpt lat="44.98253" lon="6.03375">
        <ele>2833</ele>
        <time>2021-03-21T11:11:21.000Z</time>
      </trkpt>
      <trkpt lat="44.98253" lon="6.03375">
        <ele>2832.8000488281</ele>
        <time>2021-03-21T11:11:22.000Z</time>
      </trkpt>
      <trkpt lat="44.98253" lon="6.03374">
        <ele>2832.8000488281</ele>
        <time>2021-03-21T11:11:23.000Z</time>
      </trkpt>
      <trkpt lat="44.98253" lon="6.03374">
        <ele>2832.6000976562</ele>
        <time>2021-03-21T11:11:24.000Z</time>
      </trkpt>
      <trkpt lat="44.98253" lon="6.03373">
        <ele>2832.8000488281</ele>
        <time>2021-03-21T11:11:25.000Z</time>
      </trkpt>
      <trkpt lat="44.98253" lon="6.03372">
        <ele>2832.6000976562</ele>
        <time>2021-03-21T11:11:26.000Z</time>
      </trkpt>
      <trkpt lat="44.98253" lon="6.03371">
        <ele>2832.3999023438</ele>
        <time>2021-03-21T11:11:27.000Z</time>
      </trkpt>
      <trkpt lat="44.98253" lon="6.03371">
        <ele>2832.3999023438</ele>
        <time>2021-03-21T11:11:28.000Z</time>
      </trkpt>
      <trkpt lat="44.98254" lon="6.03371">
        <ele>2832.1999511719</ele>
        <time>2021-03-21T11:11:29.000Z</time>
      </trkpt>
      <trkpt lat="44.98254" lon="6.03369">
        <ele>2832</ele>
        <time>2021-03-21T11:11:30.000Z</time>
      </trkpt>
      <trkpt lat="44.98255" lon="6.03369">
        <ele>2831.6000976562</ele>
        <time>2021-03-21T11:11:31.000Z</time>
      </trkpt>
      <trkpt lat="44.98255" lon="6.03368">
        <ele>2831.6000976562</ele>
        <time>2021-03-21T11:11:32.000Z</time>
      </trkpt>
      <trkpt lat="44.98255" lon="6.03367">
        <ele>2831.3999023438</ele>
        <time>2021-03-21T11:11:33.000Z</time>
      </trkpt>
      <trkpt lat="44.98255" lon="6.03366">
        <ele>2831.6000976562</ele>
        <time>2021-03-21T11:11:34.000Z</time>
      </trkpt>
      <trkpt lat="44.98255" lon="6.03365">
        <ele>2831.8000488281</ele>
        <time>2021-03-21T11:11:35.000Z</time>
      </trkpt>
      <trkpt lat="44.98255" lon="6.03364">
        <ele>2832</ele>
        <time>2021-03-21T11:11:36.000Z</time>
      </trkpt>
      <trkpt lat="44.98255" lon="6.03363">
        <ele>2832</ele>
        <time>2021-03-21T11:11:37.000Z</time>
      </trkpt>
      <trkpt lat="44.98255" lon="6.03362">
        <ele>2832.3999023438</ele>
        <time>2021-03-21T11:11:38.000Z</time>
      </trkpt>
      <trkpt lat="44.98255" lon="6.03362">
        <ele>2832.6000976562</ele>
        <time>2021-03-21T11:11:39.000Z</time>
      </trkpt>
      <trkpt lat="44.98255" lon="6.03361">
        <ele>2832.6000976562</ele>
        <time>2021-03-21T11:11:40.000Z</time>
      </trkpt>
      <trkpt lat="44.98255" lon="6.03361">
        <ele>2832.6000976562</ele>
        <time>2021-03-21T11:11:41.000Z</time>
      </trkpt>
      <trkpt lat="44.98255" lon="6.03361">
        <ele>2832.6000976562</ele>
        <time>2021-03-21T11:11:42.000Z</time>
      </trkpt>
      <trkpt lat="44.98255" lon="6.03361">
        <ele>2832.6000976562</ele>
        <time>2021-03-21T11:11:43.000Z</time>
      </trkpt>
      <trkpt lat="44.98255" lon="6.03361">
        <ele>2832.3999023438</ele>
        <time>2021-03-21T11:11:44.000Z</time>
      </trkpt>
      <trkpt lat="44.98255" lon="6.03361">
        <ele>2832.3999023438</ele>
        <time>2021-03-21T11:11:45.000Z</time>
      </trkpt>
      <trkpt lat="44.98256" lon="6.0336">
        <ele>2832.3999023438</ele>
        <time>2021-03-21T11:11:46.000Z</time>
      </trkpt>
      <trkpt lat="44.98256" lon="6.03359">
        <ele>2832.6000976562</ele>
        <time>2021-03-21T11:11:47.000Z</time>
      </trkpt>
      <trkpt lat="44.98256" lon="6.03359">
        <ele>2832.8000488281</ele>
        <time>2021-03-21T11:11:48.000Z</time>
      </trkpt>
      <trkpt lat="44.98256" lon="6.03357">
        <ele>2833</ele>
        <time>2021-03-21T11:11:49.000Z</time>
      </trkpt>
      <trkpt lat="44.98256" lon="6.03357">
        <ele>2833</ele>
        <time>2021-03-21T11:11:50.000Z</time>
      </trkpt>
      <trkpt lat="44.98257" lon="6.03356">
        <ele>2833</ele>
        <time>2021-03-21T11:11:51.000Z</time>
      </trkpt>
      <trkpt lat="44.98257" lon="6.03355">
        <ele>2833.1999511719</ele>
        <time>2021-03-21T11:11:52.000Z</time>
      </trkpt>
      <trkpt lat="44.98256" lon="6.03354">
        <ele>2833.6000976562</ele>
        <time>2021-03-21T11:11:53.000Z</time>
      </trkpt>
      <trkpt lat="44.98256" lon="6.03353">
        <ele>2833.8000488281</ele>
        <time>2021-03-21T11:11:54.000Z</time>
      </trkpt>
      <trkpt lat="44.98256" lon="6.03352">
        <ele>2834</ele>
        <time>2021-03-21T11:11:55.000Z</time>
      </trkpt>
      <trkpt lat="44.98256" lon="6.03351">
        <ele>2834.1999511719</ele>
        <time>2021-03-21T11:11:56.000Z</time>
      </trkpt>
      <trkpt lat="44.98256" lon="6.0335">
        <ele>2834.3999023438</ele>
        <time>2021-03-21T11:11:57.000Z</time>
      </trkpt>
      <trkpt lat="44.98255" lon="6.03349">
        <ele>2834.8000488281</ele>
        <time>2021-03-21T11:11:58.000Z</time>
      </trkpt>
      <trkpt lat="44.98255" lon="6.03348">
        <ele>2834.8000488281</ele>
        <time>2021-03-21T11:11:59.000Z</time>
      </trkpt>
      <trkpt lat="44.98254" lon="6.03348">
        <ele>2835.1999511719</ele>
        <time>2021-03-21T11:12:00.000Z</time>
      </trkpt>
      <trkpt lat="44.98253" lon="6.03347">
        <ele>2835.3999023438</ele>
        <time>2021-03-21T11:12:01.000Z</time>
      </trkpt>
      <trkpt lat="44.98253" lon="6.03347">
        <ele>2835.3999023438</ele>
        <time>2021-03-21T11:12:02.000Z</time>
      </trkpt>
      <trkpt lat="44.98252" lon="6.03347">
        <ele>2835.6000976562</ele>
        <time>2021-03-21T11:12:03.000Z</time>
      </trkpt>
      <trkpt lat="44.98252" lon="6.03347">
        <ele>2835.8000488281</ele>
        <time>2021-03-21T11:12:04.000Z</time>
      </trkpt>
      <trkpt lat="44.98251" lon="6.03346">
        <ele>2836</ele>
        <time>2021-03-21T11:12:05.000Z</time>
      </trkpt>
      <trkpt lat="44.9825" lon="6.03346">
        <ele>2836.1999511719</ele>
        <time>2021-03-21T11:12:06.000Z</time>
      </trkpt>
      <trkpt lat="44.9825" lon="6.03346">
        <ele>2836.3999023438</ele>
        <time>2021-03-21T11:12:07.000Z</time>
      </trkpt>
      <trkpt lat="44.98249" lon="6.03345">
        <ele>2836.3999023438</ele>
        <time>2021-03-21T11:12:08.000Z</time>
      </trkpt>
      <trkpt lat="44.98248" lon="6.03345">
        <ele>2836.8000488281</ele>
        <time>2021-03-21T11:12:09.000Z</time>
      </trkpt>
      <trkpt lat="44.98248" lon="6.03345">
        <ele>2836.8000488281</ele>
        <time>2021-03-21T11:12:10.000Z</time>
      </trkpt>
      <trkpt lat="44.98248" lon="6.03344">
        <ele>2837</ele>
        <time>2021-03-21T11:12:11.000Z</time>
      </trkpt>
      <trkpt lat="44.98247" lon="6.03343">
        <ele>2837.1999511719</ele>
        <time>2021-03-21T11:12:12.000Z</time>
      </trkpt>
      <trkpt lat="44.98247" lon="6.03343">
        <ele>2837.3999023438</ele>
        <time>2021-03-21T11:12:13.000Z</time>
      </trkpt>
      <trkpt lat="44.98247" lon="6.03343">
        <ele>2837.3999023438</ele>
        <time>2021-03-21T11:12:14.000Z</time>
      </trkpt>
      <trkpt lat="44.98246" lon="6.03342">
        <ele>2837.6000976562</ele>
        <time>2021-03-21T11:12:15.000Z</time>
      </trkpt>
      <trkpt lat="44.98246" lon="6.03342">
        <ele>2837.8000488281</ele>
        <time>2021-03-21T11:12:16.000Z</time>
      </trkpt>
      <trkpt lat="44.98245" lon="6.03342">
        <ele>2837.8000488281</ele>
        <time>2021-03-21T11:12:17.000Z</time>
      </trkpt>
      <trkpt lat="44.98245" lon="6.03342">
        <ele>2837.8000488281</ele>
        <time>2021-03-21T11:12:18.000Z</time>
      </trkpt>
      <trkpt lat="44.98245" lon="6.03342">
        <ele>2838</ele>
        <time>2021-03-21T11:12:19.000Z</time>
      </trkpt>
      <trkpt lat="44.98245" lon="6.03342">
        <ele>2838</ele>
        <time>2021-03-21T11:12:20.000Z</time>
      </trkpt>
      <trkpt lat="44.98245" lon="6.03342">
        <ele>2837.8000488281</ele>
        <time>2021-03-21T11:12:21.000Z</time>
      </trkpt>
      <trkpt lat="44.98245" lon="6.03342">
        <ele>2838</ele>
        <time>2021-03-21T11:12:22.000Z</time>
      </trkpt>
      <trkpt lat="44.98245" lon="6.03342">
        <ele>2838</ele>
        <time>2021-03-21T11:12:23.000Z</time>
      </trkpt>
      <trkpt lat="44.98244" lon="6.03343">
        <ele>2838</ele>
        <time>2021-03-21T11:12:24.000Z</time>
      </trkpt>
      <trkpt lat="44.98244" lon="6.03343">
        <ele>2838</ele>
        <time>2021-03-21T11:12:25.000Z</time>
      </trkpt>
      <trkpt lat="44.98244" lon="6.03343">
        <ele>2838</ele>
        <time>2021-03-21T11:12:26.000Z</time>
      </trkpt>
      <trkpt lat="44.98244" lon="6.03343">
        <ele>2837.8000488281</ele>
        <time>2021-03-21T11:12:27.000Z</time>
      </trkpt>
      <trkpt lat="44.98244" lon="6.03343">
        <ele>2837.8000488281</ele>
        <time>2021-03-21T11:12:28.000Z</time>
      </trkpt>
      <trkpt lat="44.98244" lon="6.03343">
        <ele>2838</ele>
        <time>2021-03-21T11:12:29.000Z</time>
      </trkpt>
      <trkpt lat="44.98244" lon="6.03343">
        <ele>2838</ele>
        <time>2021-03-21T11:12:30.000Z</time>
      </trkpt>
      <trkpt lat="44.98244" lon="6.03342">
        <ele>2838.1999511719</ele>
        <time>2021-03-21T11:12:31.000Z</time>
      </trkpt>
      <trkpt lat="44.98243" lon="6.03341">
        <ele>2838.3999023438</ele>
        <time>2021-03-21T11:12:32.000Z</time>
      </trkpt>
      <trkpt lat="44.98243" lon="6.03341">
        <ele>2838.6000976562</ele>
        <time>2021-03-21T11:12:33.000Z</time>
      </trkpt>
      <trkpt lat="44.98241" lon="6.0334">
        <ele>2839</ele>
        <time>2021-03-21T11:12:34.000Z</time>
      </trkpt>
      <trkpt lat="44.98241" lon="6.03339">
        <ele>2839.1999511719</ele>
        <time>2021-03-21T11:12:35.000Z</time>
      </trkpt>
      <trkpt lat="44.9824" lon="6.03339">
        <ele>2839.6000976562</ele>
        <time>2021-03-21T11:12:36.000Z</time>
      </trkpt>
      <trkpt lat="44.98239" lon="6.03338">
        <ele>2839.8000488281</ele>
        <time>2021-03-21T11:12:37.000Z</time>
      </trkpt>
      <trkpt lat="44.98239" lon="6.03338">
        <ele>2839.8000488281</ele>
        <time>2021-03-21T11:12:38.000Z</time>
      </trkpt>
      <trkpt lat="44.98238" lon="6.03337">
        <ele>2840.1999511719</ele>
        <time>2021-03-21T11:12:39.000Z</time>
      </trkpt>
      <trkpt lat="44.98237" lon="6.03336">
        <ele>2840.3999023438</ele>
        <time>2021-03-21T11:12:40.000Z</time>
      </trkpt>
      <trkpt lat="44.98237" lon="6.03335">
        <ele>2840.6000976562</ele>
        <time>2021-03-21T11:12:41.000Z</time>
      </trkpt>
      <trkpt lat="44.98237" lon="6.03335">
        <ele>2840.8000488281</ele>
        <time>2021-03-21T11:12:42.000Z</time>
      </trkpt>
      <trkpt lat="44.98236" lon="6.03334">
        <ele>2841</ele>
        <time>2021-03-21T11:12:43.000Z</time>
      </trkpt>
      <trkpt lat="44.98235" lon="6.03333">
        <ele>2841.3999023438</ele>
        <time>2021-03-21T11:12:44.000Z</time>
      </trkpt>
      <trkpt lat="44.98235" lon="6.03333">
        <ele>2841.6000976562</ele>
        <time>2021-03-21T11:12:45.000Z</time>
      </trkpt>
      <trkpt lat="44.98234" lon="6.03331">
        <ele>2842.1999511719</ele>
        <time>2021-03-21T11:12:46.000Z</time>
      </trkpt>
      <trkpt lat="44.98234" lon="6.03331">
        <ele>2842.3999023438</ele>
        <time>2021-03-21T11:12:47.000Z</time>
      </trkpt>
      <trkpt lat="44.98233" lon="6.0333">
        <ele>2843</ele>
        <time>2021-03-21T11:12:48.000Z</time>
      </trkpt>
      <trkpt lat="44.98233" lon="6.03329">
        <ele>2843.3999023438</ele>
        <time>2021-03-21T11:12:49.000Z</time>
      </trkpt>
      <trkpt lat="44.98232" lon="6.03328">
        <ele>2843.6000976562</ele>
        <time>2021-03-21T11:12:50.000Z</time>
      </trkpt>
      <trkpt lat="44.98232" lon="6.03327">
        <ele>2844</ele>
        <time>2021-03-21T11:12:51.000Z</time>
      </trkpt>
      <trkpt lat="44.98232" lon="6.03326">
        <ele>2844.1999511719</ele>
        <time>2021-03-21T11:12:52.000Z</time>
      </trkpt>
      <trkpt lat="44.98231" lon="6.03325">
        <ele>2844.3999023438</ele>
        <time>2021-03-21T11:12:53.000Z</time>
      </trkpt>
      <trkpt lat="44.98231" lon="6.03325">
        <ele>2844.6000976562</ele>
        <time>2021-03-21T11:12:54.000Z</time>
      </trkpt>
      <trkpt lat="44.98231" lon="6.03324">
        <ele>2845</ele>
        <time>2021-03-21T11:12:55.000Z</time>
      </trkpt>
      <trkpt lat="44.9823" lon="6.03323">
        <ele>2845.3999023438</ele>
        <time>2021-03-21T11:12:56.000Z</time>
      </trkpt>
      <trkpt lat="44.9823" lon="6.03322">
        <ele>2845.8000488281</ele>
        <time>2021-03-21T11:12:57.000Z</time>
      </trkpt>
      <trkpt lat="44.98229" lon="6.03321">
        <ele>2846</ele>
        <time>2021-03-21T11:12:58.000Z</time>
      </trkpt>
      <trkpt lat="44.98229" lon="6.0332">
        <ele>2846.3999023438</ele>
        <time>2021-03-21T11:12:59.000Z</time>
      </trkpt>
      <trkpt lat="44.98229" lon="6.03318">
        <ele>2847</ele>
        <time>2021-03-21T11:13:01.000Z</time>
      </trkpt>
      <trkpt lat="44.98229" lon="6.03317">
        <ele>2847.3999023438</ele>
        <time>2021-03-21T11:13:02.000Z</time>
      </trkpt>
      <trkpt lat="44.98228" lon="6.03317">
        <ele>2847.8000488281</ele>
        <time>2021-03-21T11:13:03.000Z</time>
      </trkpt>
      <trkpt lat="44.98228" lon="6.03316">
        <ele>2848.1999511719</ele>
        <time>2021-03-21T11:13:04.000Z</time>
      </trkpt>
      <trkpt lat="44.98228" lon="6.03315">
        <ele>2848.6000976562</ele>
        <time>2021-03-21T11:13:05.000Z</time>
      </trkpt>
      <trkpt lat="44.98228" lon="6.03314">
        <ele>2848.8000488281</ele>
        <time>2021-03-21T11:13:06.000Z</time>
      </trkpt>
      <trkpt lat="44.98228" lon="6.03313">
        <ele>2849</ele>
        <time>2021-03-21T11:13:07.000Z</time>
      </trkpt>
      <trkpt lat="44.98227" lon="6.03312">
        <ele>2849.6000976562</ele>
        <time>2021-03-21T11:13:08.000Z</time>
      </trkpt>
      <trkpt lat="44.98227" lon="6.03312">
        <ele>2849.6000976562</ele>
        <time>2021-03-21T11:13:09.000Z</time>
      </trkpt>
      <trkpt lat="44.98227" lon="6.03311">
        <ele>2850</ele>
        <time>2021-03-21T11:13:10.000Z</time>
      </trkpt>
      <trkpt lat="44.98227" lon="6.0331">
        <ele>2850.3999023438</ele>
        <time>2021-03-21T11:13:11.000Z</time>
      </trkpt>
      <trkpt lat="44.98226" lon="6.0331">
        <ele>2850.6000976562</ele>
        <time>2021-03-21T11:13:12.000Z</time>
      </trkpt>
      <trkpt lat="44.98226" lon="6.03309">
        <ele>2851</ele>
        <time>2021-03-21T11:13:13.000Z</time>
      </trkpt>
      <trkpt lat="44.98226" lon="6.03307">
        <ele>2851.1999511719</ele>
        <time>2021-03-21T11:13:14.000Z</time>
      </trkpt>
      <trkpt lat="44.98226" lon="6.03306">
        <ele>2851.3999023438</ele>
        <time>2021-03-21T11:13:15.000Z</time>
      </trkpt>
      <trkpt lat="44.98225" lon="6.03305">
        <ele>2852.3999023438</ele>
        <time>2021-03-21T11:13:16.000Z</time>
      </trkpt>
      <trkpt lat="44.98225" lon="6.03304">
        <ele>2852.3999023438</ele>
        <time>2021-03-21T11:13:17.000Z</time>
      </trkpt>
      <trkpt lat="44.98225" lon="6.03303">
        <ele>2853</ele>
        <time>2021-03-21T11:13:18.000Z</time>
      </trkpt>
      <trkpt lat="44.98224" lon="6.03302">
        <ele>2853.8000488281</ele>
        <time>2021-03-21T11:13:19.000Z</time>
      </trkpt>
      <trkpt lat="44.98224" lon="6.03302">
        <ele>2853.8000488281</ele>
        <time>2021-03-21T11:13:20.000Z</time>
      </trkpt>
      <trkpt lat="44.98224" lon="6.03301">
        <ele>2854.1999511719</ele>
        <time>2021-03-21T11:13:21.000Z</time>
      </trkpt>
      <trkpt lat="44.98224" lon="6.033">
        <ele>2854.1999511719</ele>
        <time>2021-03-21T11:13:22.000Z</time>
      </trkpt>
      <trkpt lat="44.98224" lon="6.03299">
        <ele>2854.3999023438</ele>
        <time>2021-03-21T11:13:23.000Z</time>
      </trkpt>
      <trkpt lat="44.98223" lon="6.03298">
        <ele>2855</ele>
        <time>2021-03-21T11:13:24.000Z</time>
      </trkpt>
      <trkpt lat="44.98223" lon="6.03297">
        <ele>2855</ele>
        <time>2021-03-21T11:13:25.000Z</time>
      </trkpt>
      <trkpt lat="44.98223" lon="6.03297">
        <ele>2855.1999511719</ele>
        <time>2021-03-21T11:13:26.000Z</time>
      </trkpt>
      <trkpt lat="44.98223" lon="6.03295">
        <ele>2855.8000488281</ele>
        <time>2021-03-21T11:13:27.000Z</time>
      </trkpt>
      <trkpt lat="44.98223" lon="6.03294">
        <ele>2856</ele>
        <time>2021-03-21T11:13:28.000Z</time>
      </trkpt>
      <trkpt lat="44.98223" lon="6.03293">
        <ele>2856.1999511719</ele>
        <time>2021-03-21T11:13:29.000Z</time>
      </trkpt>
      <trkpt lat="44.98222" lon="6.03292">
        <ele>2856.8000488281</ele>
        <time>2021-03-21T11:13:30.000Z</time>
      </trkpt>
      <trkpt lat="44.98222" lon="6.03291">
        <ele>2857</ele>
        <time>2021-03-21T11:13:31.000Z</time>
      </trkpt>
      <trkpt lat="44.98223" lon="6.0329">
        <ele>2857.1999511719</ele>
        <time>2021-03-21T11:13:32.000Z</time>
      </trkpt>
      <trkpt lat="44.98222" lon="6.03289">
        <ele>2857.8000488281</ele>
        <time>2021-03-21T11:13:33.000Z</time>
      </trkpt>
      <trkpt lat="44.98222" lon="6.03288">
        <ele>2858.1999511719</ele>
        <time>2021-03-21T11:13:34.000Z</time>
      </trkpt>
      <trkpt lat="44.98222" lon="6.03288">
        <ele>2858.1999511719</ele>
        <time>2021-03-21T11:13:35.000Z</time>
      </trkpt>
      <trkpt lat="44.98222" lon="6.03287">
        <ele>2858.6000976562</ele>
        <time>2021-03-21T11:13:36.000Z</time>
      </trkpt>
      <trkpt lat="44.98222" lon="6.03286">
        <ele>2858.6000976562</ele>
        <time>2021-03-21T11:13:37.000Z</time>
      </trkpt>
      <trkpt lat="44.98222" lon="6.03286">
        <ele>2858.8000488281</ele>
        <time>2021-03-21T11:13:38.000Z</time>
      </trkpt>
      <trkpt lat="44.98222" lon="6.03285">
        <ele>2859.1999511719</ele>
        <time>2021-03-21T11:13:39.000Z</time>
      </trkpt>
      <trkpt lat="44.98222" lon="6.03285">
        <ele>2859</ele>
        <time>2021-03-21T11:13:40.000Z</time>
      </trkpt>
      <trkpt lat="44.98222" lon="6.03284">
        <ele>2859.6000976562</ele>
        <time>2021-03-21T11:13:41.000Z</time>
      </trkpt>
      <trkpt lat="44.98222" lon="6.03283">
        <ele>2859.6000976562</ele>
        <time>2021-03-21T11:13:42.000Z</time>
      </trkpt>
      <trkpt lat="44.98222" lon="6.03282">
        <ele>2860</ele>
        <time>2021-03-21T11:13:43.000Z</time>
      </trkpt>
      <trkpt lat="44.98221" lon="6.03281">
        <ele>2860.6000976562</ele>
        <time>2021-03-21T11:13:44.000Z</time>
      </trkpt>
      <trkpt lat="44.98221" lon="6.0328">
        <ele>2861</ele>
        <time>2021-03-21T11:13:45.000Z</time>
      </trkpt>
      <trkpt lat="44.98221" lon="6.0328">
        <ele>2861.1999511719</ele>
        <time>2021-03-21T11:13:46.000Z</time>
      </trkpt>
      <trkpt lat="44.98221" lon="6.03279">
        <ele>2861.8000488281</ele>
        <time>2021-03-21T11:13:47.000Z</time>
      </trkpt>
      <trkpt lat="44.98221" lon="6.03278">
        <ele>2862</ele>
        <time>2021-03-21T11:13:48.000Z</time>
      </trkpt>
      <trkpt lat="44.98221" lon="6.03277">
        <ele>2862.1999511719</ele>
        <time>2021-03-21T11:13:49.000Z</time>
      </trkpt>
      <trkpt lat="44.9822" lon="6.03276">
        <ele>2862.1999511719</ele>
        <time>2021-03-21T11:13:50.000Z</time>
      </trkpt>
      <trkpt lat="44.9822" lon="6.03275">
        <ele>2862.3999023438</ele>
        <time>2021-03-21T11:13:51.000Z</time>
      </trkpt>
      <trkpt lat="44.9822" lon="6.03274">
        <ele>2862.6000976562</ele>
        <time>2021-03-21T11:13:52.000Z</time>
      </trkpt>
      <trkpt lat="44.9822" lon="6.03274">
        <ele>2862.3999023438</ele>
        <time>2021-03-21T11:13:53.000Z</time>
      </trkpt>
      <trkpt lat="44.9822" lon="6.03273">
        <ele>2862.8000488281</ele>
        <time>2021-03-21T11:13:54.000Z</time>
      </trkpt>
      <trkpt lat="44.9822" lon="6.03272">
        <ele>2863</ele>
        <time>2021-03-21T11:13:55.000Z</time>
      </trkpt>
      <trkpt lat="44.98219" lon="6.03271">
        <ele>2863.1999511719</ele>
        <time>2021-03-21T11:13:56.000Z</time>
      </trkpt>
      <trkpt lat="44.98219" lon="6.03271">
        <ele>2863.6000976562</ele>
        <time>2021-03-21T11:13:57.000Z</time>
      </trkpt>
      <trkpt lat="44.98219" lon="6.0327">
        <ele>2863.8000488281</ele>
        <time>2021-03-21T11:13:58.000Z</time>
      </trkpt>
      <trkpt lat="44.98219" lon="6.03269">
        <ele>2864</ele>
        <time>2021-03-21T11:13:59.000Z</time>
      </trkpt>
      <trkpt lat="44.98219" lon="6.03268">
        <ele>2864</ele>
        <time>2021-03-21T11:14:00.000Z</time>
      </trkpt>
      <trkpt lat="44.98218" lon="6.03268">
        <ele>2864.1999511719</ele>
        <time>2021-03-21T11:14:01.000Z</time>
      </trkpt>
      <trkpt lat="44.98218" lon="6.03267">
        <ele>2864.3999023438</ele>
        <time>2021-03-21T11:14:02.000Z</time>
      </trkpt>
      <trkpt lat="44.98218" lon="6.03266">
        <ele>2864.6000976562</ele>
        <time>2021-03-21T11:14:03.000Z</time>
      </trkpt>
      <trkpt lat="44.98218" lon="6.03265">
        <ele>2864.8000488281</ele>
        <time>2021-03-21T11:14:04.000Z</time>
      </trkpt>
      <trkpt lat="44.98217" lon="6.03265">
        <ele>2865.1999511719</ele>
        <time>2021-03-21T11:14:05.000Z</time>
      </trkpt>
      <trkpt lat="44.98217" lon="6.03264">
        <ele>2865.3999023438</ele>
        <time>2021-03-21T11:14:06.000Z</time>
      </trkpt>
      <trkpt lat="44.98217" lon="6.03263">
        <ele>2865.6000976562</ele>
        <time>2021-03-21T11:14:07.000Z</time>
      </trkpt>
      <trkpt lat="44.98216" lon="6.03263">
        <ele>2865.8000488281</ele>
        <time>2021-03-21T11:14:08.000Z</time>
      </trkpt>
      <trkpt lat="44.98216" lon="6.03261">
        <ele>2866.3999023438</ele>
        <time>2021-03-21T11:14:09.000Z</time>
      </trkpt>
      <trkpt lat="44.98216" lon="6.0326">
        <ele>2866.3999023438</ele>
        <time>2021-03-21T11:14:10.000Z</time>
      </trkpt>
      <trkpt lat="44.98215" lon="6.0326">
        <ele>2866.8000488281</ele>
        <time>2021-03-21T11:14:11.000Z</time>
      </trkpt>
      <trkpt lat="44.98215" lon="6.03259">
        <ele>2867</ele>
        <time>2021-03-21T11:14:12.000Z</time>
      </trkpt>
      <trkpt lat="44.98215" lon="6.03258">
        <ele>2867.1999511719</ele>
        <time>2021-03-21T11:14:13.000Z</time>
      </trkpt>
      <trkpt lat="44.98214" lon="6.03257">
        <ele>2867.3999023438</ele>
        <time>2021-03-21T11:14:14.000Z</time>
      </trkpt>
      <trkpt lat="44.98214" lon="6.03256">
        <ele>2867.6000976562</ele>
        <time>2021-03-21T11:14:15.000Z</time>
      </trkpt>
      <trkpt lat="44.98214" lon="6.03255">
        <ele>2867.8000488281</ele>
        <time>2021-03-21T11:14:16.000Z</time>
      </trkpt>
      <trkpt lat="44.98214" lon="6.03255">
        <ele>2868</ele>
        <time>2021-03-21T11:14:17.000Z</time>
      </trkpt>
      <trkpt lat="44.98213" lon="6.03254">
        <ele>2868.1999511719</ele>
        <time>2021-03-21T11:14:18.000Z</time>
      </trkpt>
      <trkpt lat="44.98213" lon="6.03253">
        <ele>2868.8000488281</ele>
        <time>2021-03-21T11:14:19.000Z</time>
      </trkpt>
      <trkpt lat="44.98213" lon="6.03253">
        <ele>2868.6000976562</ele>
        <time>2021-03-21T11:14:20.000Z</time>
      </trkpt>
      <trkpt lat="44.98212" lon="6.03252">
        <ele>2869</ele>
        <time>2021-03-21T11:14:21.000Z</time>
      </trkpt>
      <trkpt lat="44.98212" lon="6.03251">
        <ele>2869</ele>
        <time>2021-03-21T11:14:22.000Z</time>
      </trkpt>
      <trkpt lat="44.98212" lon="6.03251">
        <ele>2869.1999511719</ele>
        <time>2021-03-21T11:14:23.000Z</time>
      </trkpt>
      <trkpt lat="44.98212" lon="6.0325">
        <ele>2869.1999511719</ele>
        <time>2021-03-21T11:14:24.000Z</time>
      </trkpt>
      <trkpt lat="44.98211" lon="6.0325">
        <ele>2869.6000976562</ele>
        <time>2021-03-21T11:14:25.000Z</time>
      </trkpt>
      <trkpt lat="44.98211" lon="6.0325">
        <ele>2869.8000488281</ele>
        <time>2021-03-21T11:14:26.000Z</time>
      </trkpt>
      <trkpt lat="44.98211" lon="6.0325">
        <ele>2870.1999511719</ele>
        <time>2021-03-21T11:14:27.000Z</time>
      </trkpt>
      <trkpt lat="44.9821" lon="6.0325">
        <ele>2870.3999023438</ele>
        <time>2021-03-21T11:14:28.000Z</time>
      </trkpt>
      <trkpt lat="44.9821" lon="6.0325">
        <ele>2870.3999023438</ele>
        <time>2021-03-21T11:14:29.000Z</time>
      </trkpt>
      <trkpt lat="44.9821" lon="6.03251">
        <ele>2870.6000976562</ele>
        <time>2021-03-21T11:14:30.000Z</time>
      </trkpt>
      <trkpt lat="44.9821" lon="6.0325">
        <ele>2870.6000976562</ele>
        <time>2021-03-21T11:14:31.000Z</time>
      </trkpt>
      <trkpt lat="44.9821" lon="6.03251">
        <ele>2870.6000976562</ele>
        <time>2021-03-21T11:14:32.000Z</time>
      </trkpt>
      <trkpt lat="44.9821" lon="6.03251">
        <ele>2870.8000488281</ele>
        <time>2021-03-21T11:14:33.000Z</time>
      </trkpt>
      <trkpt lat="44.9821" lon="6.0325">
        <ele>2870.8000488281</ele>
        <time>2021-03-21T11:14:34.000Z</time>
      </trkpt>
      <trkpt lat="44.98209" lon="6.03249">
        <ele>2871.3999023438</ele>
        <time>2021-03-21T11:14:35.000Z</time>
      </trkpt>
      <trkpt lat="44.98209" lon="6.03249">
        <ele>2871.8000488281</ele>
        <time>2021-03-21T11:14:36.000Z</time>
      </trkpt>
      <trkpt lat="44.98208" lon="6.03248">
        <ele>2872.3999023438</ele>
        <time>2021-03-21T11:14:37.000Z</time>
      </trkpt>
      <trkpt lat="44.98207" lon="6.03247">
        <ele>2872.6000976562</ele>
        <time>2021-03-21T11:14:38.000Z</time>
      </trkpt>
      <trkpt lat="44.98207" lon="6.03246">
        <ele>2872.8000488281</ele>
        <time>2021-03-21T11:14:39.000Z</time>
      </trkpt>
      <trkpt lat="44.98206" lon="6.03245">
        <ele>2873</ele>
        <time>2021-03-21T11:14:40.000Z</time>
      </trkpt>
      <trkpt lat="44.98206" lon="6.03244">
        <ele>2873</ele>
        <time>2021-03-21T11:14:41.000Z</time>
      </trkpt>
      <trkpt lat="44.98206" lon="6.03243">
        <ele>2873.1999511719</ele>
        <time>2021-03-21T11:14:42.000Z</time>
      </trkpt>
      <trkpt lat="44.98206" lon="6.03242">
        <ele>2873</ele>
        <time>2021-03-21T11:14:43.000Z</time>
      </trkpt>
      <trkpt lat="44.98206" lon="6.03241">
        <ele>2873.1999511719</ele>
        <time>2021-03-21T11:14:44.000Z</time>
      </trkpt>
      <trkpt lat="44.98206" lon="6.0324">
        <ele>2873</ele>
        <time>2021-03-21T11:14:45.000Z</time>
      </trkpt>
      <trkpt lat="44.98206" lon="6.03239">
        <ele>2873.1999511719</ele>
        <time>2021-03-21T11:14:46.000Z</time>
      </trkpt>
      <trkpt lat="44.98206" lon="6.03239">
        <ele>2873</ele>
        <time>2021-03-21T11:14:47.000Z</time>
      </trkpt>
      <trkpt lat="44.98205" lon="6.03237">
        <ele>2873.1999511719</ele>
        <time>2021-03-21T11:14:48.000Z</time>
      </trkpt>
      <trkpt lat="44.98205" lon="6.03237">
        <ele>2873.1999511719</ele>
        <time>2021-03-21T11:14:49.000Z</time>
      </trkpt>
      <trkpt lat="44.98205" lon="6.03236">
        <ele>2873.1999511719</ele>
        <time>2021-03-21T11:14:50.000Z</time>
      </trkpt>
      <trkpt lat="44.98205" lon="6.03235">
        <ele>2873.3999023438</ele>
        <time>2021-03-21T11:14:51.000Z</time>
      </trkpt>
      <trkpt lat="44.98205" lon="6.03234">
        <ele>2873.3999023438</ele>
        <time>2021-03-21T11:14:52.000Z</time>
      </trkpt>
      <trkpt lat="44.98205" lon="6.03233">
        <ele>2873.3999023438</ele>
        <time>2021-03-21T11:14:53.000Z</time>
      </trkpt>
      <trkpt lat="44.98205" lon="6.03232">
        <ele>2873.1999511719</ele>
        <time>2021-03-21T11:14:54.000Z</time>
      </trkpt>
      <trkpt lat="44.98205" lon="6.03231">
        <ele>2873.3999023438</ele>
        <time>2021-03-21T11:14:55.000Z</time>
      </trkpt>
      <trkpt lat="44.98205" lon="6.03231">
        <ele>2873</ele>
        <time>2021-03-21T11:14:56.000Z</time>
      </trkpt>
      <trkpt lat="44.98205" lon="6.0323">
        <ele>2873.1999511719</ele>
        <time>2021-03-21T11:14:57.000Z</time>
      </trkpt>
      <trkpt lat="44.98205" lon="6.03229">
        <ele>2873</ele>
        <time>2021-03-21T11:14:58.000Z</time>
      </trkpt>
      <trkpt lat="44.98205" lon="6.03228">
        <ele>2873.1999511719</ele>
        <time>2021-03-21T11:14:59.000Z</time>
      </trkpt>
      <trkpt lat="44.98205" lon="6.03228">
        <ele>2873</ele>
        <time>2021-03-21T11:15:00.000Z</time>
      </trkpt>
      <trkpt lat="44.98205" lon="6.03227">
        <ele>2873</ele>
        <time>2021-03-21T11:15:01.000Z</time>
      </trkpt>
      <trkpt lat="44.98205" lon="6.03227">
        <ele>2873</ele>
        <time>2021-03-21T11:15:02.000Z</time>
      </trkpt>
      <trkpt lat="44.98205" lon="6.03227">
        <ele>2872.8000488281</ele>
        <time>2021-03-21T11:15:03.000Z</time>
      </trkpt>
      <trkpt lat="44.98205" lon="6.03226">
        <ele>2873</ele>
        <time>2021-03-21T11:15:04.000Z</time>
      </trkpt>
      <trkpt lat="44.98205" lon="6.03226">
        <ele>2873</ele>
        <time>2021-03-21T11:15:05.000Z</time>
      </trkpt>
      <trkpt lat="44.98205" lon="6.03225">
        <ele>2873</ele>
        <time>2021-03-21T11:15:06.000Z</time>
      </trkpt>
      <trkpt lat="44.98205" lon="6.03224">
        <ele>2872.8000488281</ele>
        <time>2021-03-21T11:15:07.000Z</time>
      </trkpt>
      <trkpt lat="44.98205" lon="6.03223">
        <ele>2873</ele>
        <time>2021-03-21T11:15:08.000Z</time>
      </trkpt>
      <trkpt lat="44.98205" lon="6.03223">
        <ele>2873</ele>
        <time>2021-03-21T11:15:09.000Z</time>
      </trkpt>
      <trkpt lat="44.98204" lon="6.03222">
        <ele>2873.1999511719</ele>
        <time>2021-03-21T11:15:10.000Z</time>
      </trkpt>
      <trkpt lat="44.98205" lon="6.03221">
        <ele>2873</ele>
        <time>2021-03-21T11:15:11.000Z</time>
      </trkpt>
      <trkpt lat="44.98205" lon="6.0322">
        <ele>2873</ele>
        <time>2021-03-21T11:15:12.000Z</time>
      </trkpt>
      <trkpt lat="44.98204" lon="6.0322">
        <ele>2873.1999511719</ele>
        <time>2021-03-21T11:15:13.000Z</time>
      </trkpt>
      <trkpt lat="44.98204" lon="6.03219">
        <ele>2873.1999511719</ele>
        <time>2021-03-21T11:15:14.000Z</time>
      </trkpt>
      <trkpt lat="44.98205" lon="6.03219">
        <ele>2873</ele>
        <time>2021-03-21T11:15:15.000Z</time>
      </trkpt>
      <trkpt lat="44.98204" lon="6.03218">
        <ele>2873</ele>
        <time>2021-03-21T11:15:16.000Z</time>
      </trkpt>
      <trkpt lat="44.98205" lon="6.03217">
        <ele>2872.8000488281</ele>
        <time>2021-03-21T11:15:17.000Z</time>
      </trkpt>
      <trkpt lat="44.98205" lon="6.03217">
        <ele>2873</ele>
        <time>2021-03-21T11:15:18.000Z</time>
      </trkpt>
      <trkpt lat="44.98204" lon="6.03216">
        <ele>2873</ele>
        <time>2021-03-21T11:15:19.000Z</time>
      </trkpt>
      <trkpt lat="44.98204" lon="6.03215">
        <ele>2873</ele>
        <time>2021-03-21T11:15:20.000Z</time>
      </trkpt>
      <trkpt lat="44.98204" lon="6.03214">
        <ele>2873</ele>
        <time>2021-03-21T11:15:21.000Z</time>
      </trkpt>
      <trkpt lat="44.98204" lon="6.03213">
        <ele>2873.1999511719</ele>
        <time>2021-03-21T11:15:22.000Z</time>
      </trkpt>
      <trkpt lat="44.98204" lon="6.03213">
        <ele>2873.3999023438</ele>
        <time>2021-03-21T11:15:23.000Z</time>
      </trkpt>
      <trkpt lat="44.98204" lon="6.03212">
        <ele>2873.1999511719</ele>
        <time>2021-03-21T11:15:24.000Z</time>
      </trkpt>
      <trkpt lat="44.98203" lon="6.03211">
        <ele>2873.3999023438</ele>
        <time>2021-03-21T11:15:25.000Z</time>
      </trkpt>
      <trkpt lat="44.98204" lon="6.0321">
        <ele>2873.1999511719</ele>
        <time>2021-03-21T11:15:26.000Z</time>
      </trkpt>
      <trkpt lat="44.98203" lon="6.03209">
        <ele>2873.1999511719</ele>
        <time>2021-03-21T11:15:27.000Z</time>
      </trkpt>
      <trkpt lat="44.98204" lon="6.03209">
        <ele>2873.1999511719</ele>
        <time>2021-03-21T11:15:28.000Z</time>
      </trkpt>
      <trkpt lat="44.98204" lon="6.03208">
        <ele>2873.3999023438</ele>
        <time>2021-03-21T11:15:29.000Z</time>
      </trkpt>
      <trkpt lat="44.98203" lon="6.03208">
        <ele>2873.6000976562</ele>
        <time>2021-03-21T11:15:30.000Z</time>
      </trkpt>
      <trkpt lat="44.98203" lon="6.03208">
        <ele>2873.6000976562</ele>
        <time>2021-03-21T11:15:31.000Z</time>
      </trkpt>
      <trkpt lat="44.98203" lon="6.03208">
        <ele>2873.6000976562</ele>
        <time>2021-03-21T11:15:32.000Z</time>
      </trkpt>
      <trkpt lat="44.98203" lon="6.03208">
        <ele>2873.6000976562</ele>
        <time>2021-03-21T11:15:33.000Z</time>
      </trkpt>
      <trkpt lat="44.98203" lon="6.03208">
        <ele>2873.8000488281</ele>
        <time>2021-03-21T11:15:34.000Z</time>
      </trkpt>
      <trkpt lat="44.98203" lon="6.03209">
        <ele>2873.6000976562</ele>
        <time>2021-03-21T11:15:35.000Z</time>
      </trkpt>
      <trkpt lat="44.98203" lon="6.03209">
        <ele>2873.3999023438</ele>
        <time>2021-03-21T11:15:36.000Z</time>
      </trkpt>
      <trkpt lat="44.98204" lon="6.03209">
        <ele>2873.1999511719</ele>
        <time>2021-03-21T11:15:37.000Z</time>
      </trkpt>
      <trkpt lat="44.98204" lon="6.0321">
        <ele>2873</ele>
        <time>2021-03-21T11:15:38.000Z</time>
      </trkpt>
      <trkpt lat="44.98204" lon="6.0321">
        <ele>2872.8000488281</ele>
        <time>2021-03-21T11:15:39.000Z</time>
      </trkpt>
      <trkpt lat="44.98204" lon="6.0321">
        <ele>2872.8000488281</ele>
        <time>2021-03-21T11:15:40.000Z</time>
      </trkpt>
      <trkpt lat="44.98205" lon="6.0321">
        <ele>2872.6000976562</ele>
        <time>2021-03-21T11:15:41.000Z</time>
      </trkpt>
      <trkpt lat="44.98205" lon="6.03211">
        <ele>2872.6000976562</ele>
        <time>2021-03-21T11:15:42.000Z</time>
      </trkpt>
      <trkpt lat="44.98205" lon="6.03211">
        <ele>2872.6000976562</ele>
        <time>2021-03-21T11:15:43.000Z</time>
      </trkpt>
      <trkpt lat="44.98205" lon="6.03211">
        <ele>2872.3999023438</ele>
        <time>2021-03-21T11:15:44.000Z</time>
      </trkpt>
      <trkpt lat="44.98205" lon="6.03211">
        <ele>2872.3999023438</ele>
        <time>2021-03-21T11:15:45.000Z</time>
      </trkpt>
      <trkpt lat="44.98206" lon="6.03212">
        <ele>2872</ele>
        <time>2021-03-21T11:15:46.000Z</time>
      </trkpt>
      <trkpt lat="44.98206" lon="6.03212">
        <ele>2871.8000488281</ele>
        <time>2021-03-21T11:15:47.000Z</time>
      </trkpt>
      <trkpt lat="44.98207" lon="6.03213">
        <ele>2871.6000976562</ele>
        <time>2021-03-21T11:15:48.000Z</time>
      </trkpt>
      <trkpt lat="44.98207" lon="6.03213">
        <ele>2871.6000976562</ele>
        <time>2021-03-21T11:15:49.000Z</time>
      </trkpt>
      <trkpt lat="44.98207" lon="6.03214">
        <ele>2871.3999023438</ele>
        <time>2021-03-21T11:15:50.000Z</time>
      </trkpt>
      <trkpt lat="44.98208" lon="6.03214">
        <ele>2871.1999511719</ele>
        <time>2021-03-21T11:15:51.000Z</time>
      </trkpt>
      <trkpt lat="44.98208" lon="6.03214">
        <ele>2871.1999511719</ele>
        <time>2021-03-21T11:15:52.000Z</time>
      </trkpt>
      <trkpt lat="44.98207" lon="6.03214">
        <ele>2871.3999023438</ele>
        <time>2021-03-21T11:15:53.000Z</time>
      </trkpt>
      <trkpt lat="44.98208" lon="6.03213">
        <ele>2871.1999511719</ele>
        <time>2021-03-21T11:15:54.000Z</time>
      </trkpt>
      <trkpt lat="44.98208" lon="6.03213">
        <ele>2871.1999511719</ele>
        <time>2021-03-21T11:15:55.000Z</time>
      </trkpt>
      <trkpt lat="44.98208" lon="6.03212">
        <ele>2871</ele>
        <time>2021-03-21T11:15:56.000Z</time>
      </trkpt>
      <trkpt lat="44.98208" lon="6.03212">
        <ele>2871</ele>
        <time>2021-03-21T11:15:57.000Z</time>
      </trkpt>
      <trkpt lat="44.98208" lon="6.03212">
        <ele>2871</ele>
        <time>2021-03-21T11:15:58.000Z</time>
      </trkpt>
      <trkpt lat="44.98208" lon="6.03211">
        <ele>2870.8000488281</ele>
        <time>2021-03-21T11:15:59.000Z</time>
      </trkpt>
      <trkpt lat="44.98208" lon="6.03211">
        <ele>2871</ele>
        <time>2021-03-21T11:16:00.000Z</time>
      </trkpt>
      <trkpt lat="44.98208" lon="6.03211">
        <ele>2871</ele>
        <time>2021-03-21T11:16:01.000Z</time>
      </trkpt>
      <trkpt lat="44.98207" lon="6.03209">
        <ele>2871.3999023438</ele>
        <time>2021-03-21T11:16:02.000Z</time>
      </trkpt>
      <trkpt lat="44.98207" lon="6.03209">
        <ele>2871.3999023438</ele>
        <time>2021-03-21T11:16:03.000Z</time>
      </trkpt>
      <trkpt lat="44.98207" lon="6.03207">
        <ele>2871.8000488281</ele>
        <time>2021-03-21T11:16:04.000Z</time>
      </trkpt>
      <trkpt lat="44.98207" lon="6.03206">
        <ele>2872.1999511719</ele>
        <time>2021-03-21T11:16:05.000Z</time>
      </trkpt>
      <trkpt lat="44.98207" lon="6.03205">
        <ele>2872.6000976562</ele>
        <time>2021-03-21T11:16:06.000Z</time>
      </trkpt>
      <trkpt lat="44.98206" lon="6.03204">
        <ele>2873</ele>
        <time>2021-03-21T11:16:07.000Z</time>
      </trkpt>
      <trkpt lat="44.98206" lon="6.03203">
        <ele>2873.3999023438</ele>
        <time>2021-03-21T11:16:08.000Z</time>
      </trkpt>
      <trkpt lat="44.98207" lon="6.03202">
        <ele>2873.6000976562</ele>
        <time>2021-03-21T11:16:09.000Z</time>
      </trkpt>
      <trkpt lat="44.98207" lon="6.03201">
        <ele>2873.8000488281</ele>
        <time>2021-03-21T11:16:10.000Z</time>
      </trkpt>
      <trkpt lat="44.98207" lon="6.03201">
        <ele>2874</ele>
        <time>2021-03-21T11:16:11.000Z</time>
      </trkpt>
      <trkpt lat="44.98207" lon="6.032">
        <ele>2874.1999511719</ele>
        <time>2021-03-21T11:16:12.000Z</time>
      </trkpt>
      <trkpt lat="44.98207" lon="6.03199">
        <ele>2874.6000976562</ele>
        <time>2021-03-21T11:16:13.000Z</time>
      </trkpt>
      <trkpt lat="44.98207" lon="6.03198">
        <ele>2874.8000488281</ele>
        <time>2021-03-21T11:16:14.000Z</time>
      </trkpt>
      <trkpt lat="44.98207" lon="6.03197">
        <ele>2875</ele>
        <time>2021-03-21T11:16:15.000Z</time>
      </trkpt>
      <trkpt lat="44.98208" lon="6.03196">
        <ele>2875</ele>
        <time>2021-03-21T11:16:16.000Z</time>
      </trkpt>
      <trkpt lat="44.98208" lon="6.03195">
        <ele>2875</ele>
        <time>2021-03-21T11:16:17.000Z</time>
      </trkpt>
      <trkpt lat="44.98208" lon="6.03195">
        <ele>2875</ele>
        <time>2021-03-21T11:16:18.000Z</time>
      </trkpt>
      <trkpt lat="44.98208" lon="6.03194">
        <ele>2875.1999511719</ele>
        <time>2021-03-21T11:16:19.000Z</time>
      </trkpt>
      <trkpt lat="44.98209" lon="6.03193">
        <ele>2875.3999023438</ele>
        <time>2021-03-21T11:16:20.000Z</time>
      </trkpt>
      <trkpt lat="44.98209" lon="6.03191">
        <ele>2875.8000488281</ele>
        <time>2021-03-21T11:16:21.000Z</time>
      </trkpt>
      <trkpt lat="44.98209" lon="6.0319">
        <ele>2876</ele>
        <time>2021-03-21T11:16:22.000Z</time>
      </trkpt>
      <trkpt lat="44.98209" lon="6.0319">
        <ele>2876.1999511719</ele>
        <time>2021-03-21T11:16:23.000Z</time>
      </trkpt>
      <trkpt lat="44.98209" lon="6.03189">
        <ele>2876.3999023438</ele>
        <time>2021-03-21T11:16:24.000Z</time>
      </trkpt>
      <trkpt lat="44.98209" lon="6.03188">
        <ele>2876.3999023438</ele>
        <time>2021-03-21T11:16:25.000Z</time>
      </trkpt>
      <trkpt lat="44.98209" lon="6.03187">
        <ele>2876.6000976562</ele>
        <time>2021-03-21T11:16:26.000Z</time>
      </trkpt>
      <trkpt lat="44.9821" lon="6.03186">
        <ele>2876.8000488281</ele>
        <time>2021-03-21T11:16:27.000Z</time>
      </trkpt>
      <trkpt lat="44.9821" lon="6.03185">
        <ele>2877</ele>
        <time>2021-03-21T11:16:28.000Z</time>
      </trkpt>
      <trkpt lat="44.9821" lon="6.03183">
        <ele>2877.1999511719</ele>
        <time>2021-03-21T11:16:29.000Z</time>
      </trkpt>
      <trkpt lat="44.98211" lon="6.03182">
        <ele>2877.3999023438</ele>
        <time>2021-03-21T11:16:30.000Z</time>
      </trkpt>
      <trkpt lat="44.98211" lon="6.03181">
        <ele>2877.6000976562</ele>
        <time>2021-03-21T11:16:31.000Z</time>
      </trkpt>
      <trkpt lat="44.98211" lon="6.03179">
        <ele>2877.8000488281</ele>
        <time>2021-03-21T11:16:32.000Z</time>
      </trkpt>
      <trkpt lat="44.98212" lon="6.03179">
        <ele>2877.6000976562</ele>
        <time>2021-03-21T11:16:33.000Z</time>
      </trkpt>
      <trkpt lat="44.98212" lon="6.03178">
        <ele>2877.8000488281</ele>
        <time>2021-03-21T11:16:34.000Z</time>
      </trkpt>
      <trkpt lat="44.98212" lon="6.03177">
        <ele>2877.8000488281</ele>
        <time>2021-03-21T11:16:35.000Z</time>
      </trkpt>
      <trkpt lat="44.98213" lon="6.03176">
        <ele>2878</ele>
        <time>2021-03-21T11:16:36.000Z</time>
      </trkpt>
      <trkpt lat="44.98213" lon="6.03175">
        <ele>2878.1999511719</ele>
        <time>2021-03-21T11:16:37.000Z</time>
      </trkpt>
      <trkpt lat="44.98213" lon="6.03173">
        <ele>2878.6000976562</ele>
        <time>2021-03-21T11:16:38.000Z</time>
      </trkpt>
      <trkpt lat="44.98213" lon="6.03172">
        <ele>2878.6000976562</ele>
        <time>2021-03-21T11:16:39.000Z</time>
      </trkpt>
      <trkpt lat="44.98214" lon="6.03171">
        <ele>2878.6000976562</ele>
        <time>2021-03-21T11:16:40.000Z</time>
      </trkpt>
      <trkpt lat="44.98214" lon="6.0317">
        <ele>2878.8000488281</ele>
        <time>2021-03-21T11:16:41.000Z</time>
      </trkpt>
      <trkpt lat="44.98214" lon="6.03169">
        <ele>2878.8000488281</ele>
        <time>2021-03-21T11:16:42.000Z</time>
      </trkpt>
      <trkpt lat="44.98214" lon="6.03168">
        <ele>2879.1999511719</ele>
        <time>2021-03-21T11:16:43.000Z</time>
      </trkpt>
      <trkpt lat="44.98215" lon="6.03167">
        <ele>2879</ele>
        <time>2021-03-21T11:16:44.000Z</time>
      </trkpt>
      <trkpt lat="44.98216" lon="6.03166">
        <ele>2878.6000976562</ele>
        <time>2021-03-21T11:16:45.000Z</time>
      </trkpt>
      <trkpt lat="44.98216" lon="6.03165">
        <ele>2878.8000488281</ele>
        <time>2021-03-21T11:16:46.000Z</time>
      </trkpt>
      <trkpt lat="44.98217" lon="6.03164">
        <ele>2879</ele>
        <time>2021-03-21T11:16:47.000Z</time>
      </trkpt>
      <trkpt lat="44.98216" lon="6.03163">
        <ele>2879.6000976562</ele>
        <time>2021-03-21T11:16:48.000Z</time>
      </trkpt>
      <trkpt lat="44.98217" lon="6.03163">
        <ele>2879.1999511719</ele>
        <time>2021-03-21T11:16:49.000Z</time>
      </trkpt>
      <trkpt lat="44.98217" lon="6.03162">
        <ele>2879.6000976562</ele>
        <time>2021-03-21T11:16:50.000Z</time>
      </trkpt>
      <trkpt lat="44.98217" lon="6.03162">
        <ele>2879.6000976562</ele>
        <time>2021-03-21T11:16:51.000Z</time>
      </trkpt>
      <trkpt lat="44.98217" lon="6.03161">
        <ele>2880</ele>
        <time>2021-03-21T11:16:52.000Z</time>
      </trkpt>
      <trkpt lat="44.98217" lon="6.0316">
        <ele>2880.1999511719</ele>
        <time>2021-03-21T11:16:53.000Z</time>
      </trkpt>
      <trkpt lat="44.98217" lon="6.03159">
        <ele>2880.3999023438</ele>
        <time>2021-03-21T11:16:54.000Z</time>
      </trkpt>
      <trkpt lat="44.98218" lon="6.03159">
        <ele>2880.3999023438</ele>
        <time>2021-03-21T11:16:55.000Z</time>
      </trkpt>
      <trkpt lat="44.98218" lon="6.03157">
        <ele>2880.8000488281</ele>
        <time>2021-03-21T11:16:56.000Z</time>
      </trkpt>
      <trkpt lat="44.98218" lon="6.03157">
        <ele>2880.8000488281</ele>
        <time>2021-03-21T11:16:57.000Z</time>
      </trkpt>
      <trkpt lat="44.98219" lon="6.03156">
        <ele>2880.8000488281</ele>
        <time>2021-03-21T11:16:58.000Z</time>
      </trkpt>
      <trkpt lat="44.98219" lon="6.03155">
        <ele>2880.8000488281</ele>
        <time>2021-03-21T11:16:59.000Z</time>
      </trkpt>
      <trkpt lat="44.98219" lon="6.03155">
        <ele>2881.1999511719</ele>
        <time>2021-03-21T11:17:00.000Z</time>
      </trkpt>
      <trkpt lat="44.98219" lon="6.03153">
        <ele>2881.6000976562</ele>
        <time>2021-03-21T11:17:01.000Z</time>
      </trkpt>
      <trkpt lat="44.98218" lon="6.03152">
        <ele>2882.3999023438</ele>
        <time>2021-03-21T11:17:02.000Z</time>
      </trkpt>
      <trkpt lat="44.98217" lon="6.03152">
        <ele>2882.6000976562</ele>
        <time>2021-03-21T11:17:03.000Z</time>
      </trkpt>
      <trkpt lat="44.98216" lon="6.03151">
        <ele>2883.1999511719</ele>
        <time>2021-03-21T11:17:04.000Z</time>
      </trkpt>
      <trkpt lat="44.98216" lon="6.0315">
        <ele>2883.6000976562</ele>
        <time>2021-03-21T11:17:05.000Z</time>
      </trkpt>
      <trkpt lat="44.98216" lon="6.03149">
        <ele>2883.8000488281</ele>
        <time>2021-03-21T11:17:06.000Z</time>
      </trkpt>
      <trkpt lat="44.98215" lon="6.03149">
        <ele>2884.1999511719</ele>
        <time>2021-03-21T11:17:07.000Z</time>
      </trkpt>
      <trkpt lat="44.98215" lon="6.03148">
        <ele>2884.3999023438</ele>
        <time>2021-03-21T11:17:08.000Z</time>
      </trkpt>
      <trkpt lat="44.98214" lon="6.03148">
        <ele>2884.8000488281</ele>
        <time>2021-03-21T11:17:09.000Z</time>
      </trkpt>
      <trkpt lat="44.98214" lon="6.03148">
        <ele>2884.8000488281</ele>
        <time>2021-03-21T11:17:10.000Z</time>
      </trkpt>
      <trkpt lat="44.98215" lon="6.03149">
        <ele>2884.1999511719</ele>
        <time>2021-03-21T11:17:11.000Z</time>
      </trkpt>
      <trkpt lat="44.98215" lon="6.03149">
        <ele>2884</ele>
        <time>2021-03-21T11:17:12.000Z</time>
      </trkpt>
      <trkpt lat="44.98215" lon="6.03149">
        <ele>2884.1999511719</ele>
        <time>2021-03-21T11:17:13.000Z</time>
      </trkpt>
      <trkpt lat="44.98215" lon="6.03149">
        <ele>2884.3999023438</ele>
        <time>2021-03-21T11:17:14.000Z</time>
      </trkpt>
      <trkpt lat="44.98214" lon="6.03149">
        <ele>2884.6000976562</ele>
        <time>2021-03-21T11:17:15.000Z</time>
      </trkpt>
      <trkpt lat="44.98214" lon="6.03149">
        <ele>2884.8000488281</ele>
        <time>2021-03-21T11:17:16.000Z</time>
      </trkpt>
      <trkpt lat="44.98214" lon="6.0315">
        <ele>2884.8000488281</ele>
        <time>2021-03-21T11:17:17.000Z</time>
      </trkpt>
      <trkpt lat="44.98213" lon="6.0315">
        <ele>2885</ele>
        <time>2021-03-21T11:17:18.000Z</time>
      </trkpt>
      <trkpt lat="44.98213" lon="6.03151">
        <ele>2885.1999511719</ele>
        <time>2021-03-21T11:17:19.000Z</time>
      </trkpt>
      <trkpt lat="44.98212" lon="6.03151">
        <ele>2885.3999023438</ele>
        <time>2021-03-21T11:17:20.000Z</time>
      </trkpt>
      <trkpt lat="44.98212" lon="6.03151">
        <ele>2885.6000976562</ele>
        <time>2021-03-21T11:17:21.000Z</time>
      </trkpt>
      <trkpt lat="44.98211" lon="6.03151">
        <ele>2885.8000488281</ele>
        <time>2021-03-21T11:17:22.000Z</time>
      </trkpt>
      <trkpt lat="44.9821" lon="6.03152">
        <ele>2886.1999511719</ele>
        <time>2021-03-21T11:17:23.000Z</time>
      </trkpt>
      <trkpt lat="44.98209" lon="6.03152">
        <ele>2886.3999023438</ele>
        <time>2021-03-21T11:17:24.000Z</time>
      </trkpt>
      <trkpt lat="44.98209" lon="6.03152">
        <ele>2886.8000488281</ele>
        <time>2021-03-21T11:17:25.000Z</time>
      </trkpt>
      <trkpt lat="44.98208" lon="6.03153">
        <ele>2887</ele>
        <time>2021-03-21T11:17:26.000Z</time>
      </trkpt>
      <trkpt lat="44.98208" lon="6.03153">
        <ele>2887.1999511719</ele>
        <time>2021-03-21T11:17:27.000Z</time>
      </trkpt>
      <trkpt lat="44.98207" lon="6.03153">
        <ele>2887.6000976562</ele>
        <time>2021-03-21T11:17:28.000Z</time>
      </trkpt>
      <trkpt lat="44.98206" lon="6.03154">
        <ele>2887.6000976562</ele>
        <time>2021-03-21T11:17:29.000Z</time>
      </trkpt>
      <trkpt lat="44.98206" lon="6.03154">
        <ele>2888</ele>
        <time>2021-03-21T11:17:30.000Z</time>
      </trkpt>
      <trkpt lat="44.98205" lon="6.03154">
        <ele>2888.1999511719</ele>
        <time>2021-03-21T11:17:31.000Z</time>
      </trkpt>
      <trkpt lat="44.98204" lon="6.03155">
        <ele>2888.6000976562</ele>
        <time>2021-03-21T11:17:32.000Z</time>
      </trkpt>
      <trkpt lat="44.98203" lon="6.03155">
        <ele>2889</ele>
        <time>2021-03-21T11:17:33.000Z</time>
      </trkpt>
      <trkpt lat="44.98203" lon="6.03155">
        <ele>2889</ele>
        <time>2021-03-21T11:17:34.000Z</time>
      </trkpt>
      <trkpt lat="44.98202" lon="6.03155">
        <ele>2889.3999023438</ele>
        <time>2021-03-21T11:17:35.000Z</time>
      </trkpt>
      <trkpt lat="44.98201" lon="6.03155">
        <ele>2889.6000976562</ele>
        <time>2021-03-21T11:17:36.000Z</time>
      </trkpt>
      <trkpt lat="44.982" lon="6.03155">
        <ele>2890</ele>
        <time>2021-03-21T11:17:37.000Z</time>
      </trkpt>
      <trkpt lat="44.982" lon="6.03155">
        <ele>2890.3999023438</ele>
        <time>2021-03-21T11:17:38.000Z</time>
      </trkpt>
      <trkpt lat="44.98199" lon="6.03156">
        <ele>2890.3999023438</ele>
        <time>2021-03-21T11:17:39.000Z</time>
      </trkpt>
      <trkpt lat="44.98198" lon="6.03156">
        <ele>2890.8000488281</ele>
        <time>2021-03-21T11:17:40.000Z</time>
      </trkpt>
      <trkpt lat="44.98198" lon="6.03156">
        <ele>2891</ele>
        <time>2021-03-21T11:17:41.000Z</time>
      </trkpt>
      <trkpt lat="44.98197" lon="6.03156">
        <ele>2891.3999023438</ele>
        <time>2021-03-21T11:17:42.000Z</time>
      </trkpt>
      <trkpt lat="44.98196" lon="6.03156">
        <ele>2891.8000488281</ele>
        <time>2021-03-21T11:17:43.000Z</time>
      </trkpt>
      <trkpt lat="44.98196" lon="6.03156">
        <ele>2891.8000488281</ele>
        <time>2021-03-21T11:17:44.000Z</time>
      </trkpt>
      <trkpt lat="44.98195" lon="6.03157">
        <ele>2892</ele>
        <time>2021-03-21T11:17:45.000Z</time>
      </trkpt>
      <trkpt lat="44.98195" lon="6.03157">
        <ele>2892.1999511719</ele>
        <time>2021-03-21T11:17:46.000Z</time>
      </trkpt>
      <trkpt lat="44.98194" lon="6.03157">
        <ele>2892.3999023438</ele>
        <time>2021-03-21T11:17:47.000Z</time>
      </trkpt>
      <trkpt lat="44.98194" lon="6.03158">
        <ele>2892.3999023438</ele>
        <time>2021-03-21T11:17:48.000Z</time>
      </trkpt>
      <trkpt lat="44.98193" lon="6.03157">
        <ele>2892.8000488281</ele>
        <time>2021-03-21T11:17:49.000Z</time>
      </trkpt>
      <trkpt lat="44.98193" lon="6.03158">
        <ele>2893</ele>
        <time>2021-03-21T11:17:50.000Z</time>
      </trkpt>
      <trkpt lat="44.98192" lon="6.03158">
        <ele>2893</ele>
        <time>2021-03-21T11:17:51.000Z</time>
      </trkpt>
      <trkpt lat="44.98191" lon="6.03159">
        <ele>2893.1999511719</ele>
        <time>2021-03-21T11:17:52.000Z</time>
      </trkpt>
      <trkpt lat="44.98191" lon="6.03159">
        <ele>2893.3999023438</ele>
        <time>2021-03-21T11:17:53.000Z</time>
      </trkpt>
      <trkpt lat="44.9819" lon="6.0316">
        <ele>2893.6000976562</ele>
        <time>2021-03-21T11:17:54.000Z</time>
      </trkpt>
      <trkpt lat="44.9819" lon="6.0316">
        <ele>2893.3999023438</ele>
        <time>2021-03-21T11:17:55.000Z</time>
      </trkpt>
      <trkpt lat="44.98189" lon="6.03161">
        <ele>2893.8000488281</ele>
        <time>2021-03-21T11:17:56.000Z</time>
      </trkpt>
      <trkpt lat="44.98188" lon="6.03161">
        <ele>2894</ele>
        <time>2021-03-21T11:17:57.000Z</time>
      </trkpt>
      <trkpt lat="44.98188" lon="6.03162">
        <ele>2894.1999511719</ele>
        <time>2021-03-21T11:17:58.000Z</time>
      </trkpt>
      <trkpt lat="44.98187" lon="6.03162">
        <ele>2894.3999023438</ele>
        <time>2021-03-21T11:17:59.000Z</time>
      </trkpt>
      <trkpt lat="44.98187" lon="6.03162">
        <ele>2894.3999023438</ele>
        <time>2021-03-21T11:18:00.000Z</time>
      </trkpt>
      <trkpt lat="44.98186" lon="6.03162">
        <ele>2894.6000976562</ele>
        <time>2021-03-21T11:18:01.000Z</time>
      </trkpt>
      <trkpt lat="44.98185" lon="6.03163">
        <ele>2894.6000976562</ele>
        <time>2021-03-21T11:18:02.000Z</time>
      </trkpt>
      <trkpt lat="44.98185" lon="6.03163">
        <ele>2894.8000488281</ele>
        <time>2021-03-21T11:18:03.000Z</time>
      </trkpt>
      <trkpt lat="44.98184" lon="6.03164">
        <ele>2895</ele>
        <time>2021-03-21T11:18:04.000Z</time>
      </trkpt>
      <trkpt lat="44.98184" lon="6.03165">
        <ele>2895</ele>
        <time>2021-03-21T11:18:05.000Z</time>
      </trkpt>
      <trkpt lat="44.98183" lon="6.03165">
        <ele>2895</ele>
        <time>2021-03-21T11:18:06.000Z</time>
      </trkpt>
      <trkpt lat="44.98183" lon="6.03167">
        <ele>2894.8000488281</ele>
        <time>2021-03-21T11:18:07.000Z</time>
      </trkpt>
      <trkpt lat="44.98182" lon="6.03168">
        <ele>2894.6000976562</ele>
        <time>2021-03-21T11:18:08.000Z</time>
      </trkpt>
      <trkpt lat="44.98182" lon="6.03169">
        <ele>2894.3999023438</ele>
        <time>2021-03-21T11:18:09.000Z</time>
      </trkpt>
      <trkpt lat="44.98181" lon="6.0317">
        <ele>2894.6000976562</ele>
        <time>2021-03-21T11:18:10.000Z</time>
      </trkpt>
      <trkpt lat="44.9818" lon="6.0317">
        <ele>2894.6000976562</ele>
        <time>2021-03-21T11:18:11.000Z</time>
      </trkpt>
      <trkpt lat="44.9818" lon="6.0317">
        <ele>2894.8000488281</ele>
        <time>2021-03-21T11:18:12.000Z</time>
      </trkpt>
      <trkpt lat="44.98179" lon="6.03171">
        <ele>2895</ele>
        <time>2021-03-21T11:18:13.000Z</time>
      </trkpt>
      <trkpt lat="44.98179" lon="6.03172">
        <ele>2895.1999511719</ele>
        <time>2021-03-21T11:18:14.000Z</time>
      </trkpt>
      <trkpt lat="44.98178" lon="6.03172">
        <ele>2895.3999023438</ele>
        <time>2021-03-21T11:18:15.000Z</time>
      </trkpt>
      <trkpt lat="44.98177" lon="6.03174">
        <ele>2895.3999023438</ele>
        <time>2021-03-21T11:18:16.000Z</time>
      </trkpt>
      <trkpt lat="44.98177" lon="6.03175">
        <ele>2895.6000976562</ele>
        <time>2021-03-21T11:18:17.000Z</time>
      </trkpt>
      <trkpt lat="44.98176" lon="6.03176">
        <ele>2895.6000976562</ele>
        <time>2021-03-21T11:18:18.000Z</time>
      </trkpt>
      <trkpt lat="44.98176" lon="6.03178">
        <ele>2895</ele>
        <time>2021-03-21T11:18:19.000Z</time>
      </trkpt>
      <trkpt lat="44.98175" lon="6.03181">
        <ele>2894.3999023438</ele>
        <time>2021-03-21T11:18:20.000Z</time>
      </trkpt>
      <trkpt lat="44.98174" lon="6.03183">
        <ele>2894</ele>
        <time>2021-03-21T11:18:21.000Z</time>
      </trkpt>
      <trkpt lat="44.98174" lon="6.03185">
        <ele>2893.6000976562</ele>
        <time>2021-03-21T11:18:22.000Z</time>
      </trkpt>
      <trkpt lat="44.98173" lon="6.03187">
        <ele>2893.6000976562</ele>
        <time>2021-03-21T11:18:23.000Z</time>
      </trkpt>
      <trkpt lat="44.98173" lon="6.03189">
        <ele>2893.3999023438</ele>
        <time>2021-03-21T11:18:24.000Z</time>
      </trkpt>
      <trkpt lat="44.98172" lon="6.03191">
        <ele>2893.1999511719</ele>
        <time>2021-03-21T11:18:25.000Z</time>
      </trkpt>
      <trkpt lat="44.98172" lon="6.03192">
        <ele>2893</ele>
        <time>2021-03-21T11:18:26.000Z</time>
      </trkpt>
      <trkpt lat="44.98172" lon="6.03194">
        <ele>2892.8000488281</ele>
        <time>2021-03-21T11:18:27.000Z</time>
      </trkpt>
      <trkpt lat="44.98171" lon="6.03195">
        <ele>2892.8000488281</ele>
        <time>2021-03-21T11:18:28.000Z</time>
      </trkpt>
      <trkpt lat="44.98171" lon="6.03197">
        <ele>2892.6000976562</ele>
        <time>2021-03-21T11:18:29.000Z</time>
      </trkpt>
      <trkpt lat="44.98171" lon="6.03198">
        <ele>2892.6000976562</ele>
        <time>2021-03-21T11:18:30.000Z</time>
      </trkpt>
      <trkpt lat="44.98171" lon="6.032">
        <ele>2892.1999511719</ele>
        <time>2021-03-21T11:18:31.000Z</time>
      </trkpt>
      <trkpt lat="44.9817" lon="6.03201">
        <ele>2892</ele>
        <time>2021-03-21T11:18:32.000Z</time>
      </trkpt>
      <trkpt lat="44.98169" lon="6.03202">
        <ele>2892</ele>
        <time>2021-03-21T11:18:33.000Z</time>
      </trkpt>
      <trkpt lat="44.98169" lon="6.03203">
        <ele>2891.8000488281</ele>
        <time>2021-03-21T11:18:34.000Z</time>
      </trkpt>
      <trkpt lat="44.98168" lon="6.03204">
        <ele>2891.6000976562</ele>
        <time>2021-03-21T11:18:35.000Z</time>
      </trkpt>
      <trkpt lat="44.98168" lon="6.03206">
        <ele>2891.3999023438</ele>
        <time>2021-03-21T11:18:36.000Z</time>
      </trkpt>
      <trkpt lat="44.98168" lon="6.03207">
        <ele>2891</ele>
        <time>2021-03-21T11:18:37.000Z</time>
      </trkpt>
      <trkpt lat="44.98168" lon="6.03208">
        <ele>2890.8000488281</ele>
        <time>2021-03-21T11:18:38.000Z</time>
      </trkpt>
      <trkpt lat="44.98167" lon="6.0321">
        <ele>2890.6000976562</ele>
        <time>2021-03-21T11:18:39.000Z</time>
      </trkpt>
      <trkpt lat="44.98167" lon="6.03211">
        <ele>2890.6000976562</ele>
        <time>2021-03-21T11:18:40.000Z</time>
      </trkpt>
      <trkpt lat="44.98167" lon="6.03212">
        <ele>2890.8000488281</ele>
        <time>2021-03-21T11:18:41.000Z</time>
      </trkpt>
      <trkpt lat="44.98166" lon="6.03213">
        <ele>2891</ele>
        <time>2021-03-21T11:18:42.000Z</time>
      </trkpt>
      <trkpt lat="44.98166" lon="6.03214">
        <ele>2891.1999511719</ele>
        <time>2021-03-21T11:18:43.000Z</time>
      </trkpt>
      <trkpt lat="44.98166" lon="6.03215">
        <ele>2891.1999511719</ele>
        <time>2021-03-21T11:18:44.000Z</time>
      </trkpt>
      <trkpt lat="44.98165" lon="6.03216">
        <ele>2891.3999023438</ele>
        <time>2021-03-21T11:18:45.000Z</time>
      </trkpt>
      <trkpt lat="44.98165" lon="6.03217">
        <ele>2891.3999023438</ele>
        <time>2021-03-21T11:18:46.000Z</time>
      </trkpt>
      <trkpt lat="44.98165" lon="6.03218">
        <ele>2891.3999023438</ele>
        <time>2021-03-21T11:18:47.000Z</time>
      </trkpt>
      <trkpt lat="44.98165" lon="6.03219">
        <ele>2891.6000976562</ele>
        <time>2021-03-21T11:18:48.000Z</time>
      </trkpt>
      <trkpt lat="44.98165" lon="6.0322">
        <ele>2891.8000488281</ele>
        <time>2021-03-21T11:18:49.000Z</time>
      </trkpt>
      <trkpt lat="44.98164" lon="6.03221">
        <ele>2892</ele>
        <time>2021-03-21T11:18:50.000Z</time>
      </trkpt>
      <trkpt lat="44.98165" lon="6.03222">
        <ele>2891.6000976562</ele>
        <time>2021-03-21T11:18:51.000Z</time>
      </trkpt>
      <trkpt lat="44.98164" lon="6.03223">
        <ele>2891.6000976562</ele>
        <time>2021-03-21T11:18:52.000Z</time>
      </trkpt>
      <trkpt lat="44.98164" lon="6.03224">
        <ele>2891.3999023438</ele>
        <time>2021-03-21T11:18:53.000Z</time>
      </trkpt>
      <trkpt lat="44.98163" lon="6.03225">
        <ele>2891.3999023438</ele>
        <time>2021-03-21T11:18:54.000Z</time>
      </trkpt>
      <trkpt lat="44.98163" lon="6.03226">
        <ele>2891.3999023438</ele>
        <time>2021-03-21T11:18:55.000Z</time>
      </trkpt>
      <trkpt lat="44.98162" lon="6.03227">
        <ele>2891.3999023438</ele>
        <time>2021-03-21T11:18:56.000Z</time>
      </trkpt>
      <trkpt lat="44.98162" lon="6.03228">
        <ele>2891.3999023438</ele>
        <time>2021-03-21T11:18:57.000Z</time>
      </trkpt>
      <trkpt lat="44.98161" lon="6.03229">
        <ele>2891.1999511719</ele>
        <time>2021-03-21T11:18:58.000Z</time>
      </trkpt>
      <trkpt lat="44.98161" lon="6.0323">
        <ele>2891.1999511719</ele>
        <time>2021-03-21T11:18:59.000Z</time>
      </trkpt>
      <trkpt lat="44.98161" lon="6.03231">
        <ele>2891</ele>
        <time>2021-03-21T11:19:00.000Z</time>
      </trkpt>
      <trkpt lat="44.9816" lon="6.03232">
        <ele>2891</ele>
        <time>2021-03-21T11:19:01.000Z</time>
      </trkpt>
      <trkpt lat="44.9816" lon="6.03233">
        <ele>2890.8000488281</ele>
        <time>2021-03-21T11:19:02.000Z</time>
      </trkpt>
      <trkpt lat="44.9816" lon="6.03233">
        <ele>2890.8000488281</ele>
        <time>2021-03-21T11:19:03.000Z</time>
      </trkpt>
      <trkpt lat="44.9816" lon="6.03234">
        <ele>2890.6000976562</ele>
        <time>2021-03-21T11:19:04.000Z</time>
      </trkpt>
      <trkpt lat="44.9816" lon="6.03234">
        <ele>2890.6000976562</ele>
        <time>2021-03-21T11:19:05.000Z</time>
      </trkpt>
      <trkpt lat="44.9816" lon="6.03235">
        <ele>2890.6000976562</ele>
        <time>2021-03-21T11:19:06.000Z</time>
      </trkpt>
      <trkpt lat="44.9816" lon="6.03235">
        <ele>2890.3999023438</ele>
        <time>2021-03-21T11:19:07.000Z</time>
      </trkpt>
      <trkpt lat="44.9816" lon="6.03235">
        <ele>2890.3999023438</ele>
        <time>2021-03-21T11:19:08.000Z</time>
      </trkpt>
      <trkpt lat="44.9816" lon="6.03236">
        <ele>2890.1999511719</ele>
        <time>2021-03-21T11:19:09.000Z</time>
      </trkpt>
      <trkpt lat="44.9816" lon="6.03236">
        <ele>2890.3999023438</ele>
        <time>2021-03-21T11:19:10.000Z</time>
      </trkpt>
      <trkpt lat="44.9816" lon="6.03236">
        <ele>2890.1999511719</ele>
        <time>2021-03-21T11:19:11.000Z</time>
      </trkpt>
      <trkpt lat="44.9816" lon="6.03236">
        <ele>2890.1999511719</ele>
        <time>2021-03-21T11:19:12.000Z</time>
      </trkpt>
      <trkpt lat="44.9816" lon="6.03236">
        <ele>2890.1999511719</ele>
        <time>2021-03-21T11:19:13.000Z</time>
      </trkpt>
      <trkpt lat="44.9816" lon="6.03236">
        <ele>2890.1999511719</ele>
        <time>2021-03-21T11:19:14.000Z</time>
      </trkpt>
      <trkpt lat="44.9816" lon="6.03236">
        <ele>2890.3999023438</ele>
        <time>2021-03-21T11:19:15.000Z</time>
      </trkpt>
      <trkpt lat="44.9816" lon="6.03236">
        <ele>2890.3999023438</ele>
        <time>2021-03-21T11:19:16.000Z</time>
      </trkpt>
      <trkpt lat="44.98159" lon="6.03237">
        <ele>2890.3999023438</ele>
        <time>2021-03-21T11:19:17.000Z</time>
      </trkpt>
      <trkpt lat="44.98159" lon="6.03237">
        <ele>2890.3999023438</ele>
        <time>2021-03-21T11:19:18.000Z</time>
      </trkpt>
      <trkpt lat="44.98159" lon="6.03238">
        <ele>2890.3999023438</ele>
        <time>2021-03-21T11:19:19.000Z</time>
      </trkpt>
      <trkpt lat="44.98158" lon="6.03239">
        <ele>2890.3999023438</ele>
        <time>2021-03-21T11:19:20.000Z</time>
      </trkpt>
      <trkpt lat="44.98158" lon="6.0324">
        <ele>2890.3999023438</ele>
        <time>2021-03-21T11:19:21.000Z</time>
      </trkpt>
      <trkpt lat="44.98157" lon="6.03241">
        <ele>2890.6000976562</ele>
        <time>2021-03-21T11:19:22.000Z</time>
      </trkpt>
      <trkpt lat="44.98157" lon="6.03242">
        <ele>2890.6000976562</ele>
        <time>2021-03-21T11:19:23.000Z</time>
      </trkpt>
      <trkpt lat="44.98156" lon="6.03243">
        <ele>2890.8000488281</ele>
        <time>2021-03-21T11:19:24.000Z</time>
      </trkpt>
      <trkpt lat="44.98156" lon="6.03244">
        <ele>2891</ele>
        <time>2021-03-21T11:19:25.000Z</time>
      </trkpt>
      <trkpt lat="44.98156" lon="6.03244">
        <ele>2891</ele>
        <time>2021-03-21T11:19:26.000Z</time>
      </trkpt>
      <trkpt lat="44.98155" lon="6.03245">
        <ele>2891.1999511719</ele>
        <time>2021-03-21T11:19:27.000Z</time>
      </trkpt>
      <trkpt lat="44.98155" lon="6.03247">
        <ele>2891.3999023438</ele>
        <time>2021-03-21T11:19:28.000Z</time>
      </trkpt>
      <trkpt lat="44.98155" lon="6.03247">
        <ele>2891.3999023438</ele>
        <time>2021-03-21T11:19:29.000Z</time>
      </trkpt>
      <trkpt lat="44.98155" lon="6.03248">
        <ele>2891.3999023438</ele>
        <time>2021-03-21T11:19:30.000Z</time>
      </trkpt>
      <trkpt lat="44.98154" lon="6.03249">
        <ele>2891.8000488281</ele>
        <time>2021-03-21T11:19:31.000Z</time>
      </trkpt>
      <trkpt lat="44.98154" lon="6.0325">
        <ele>2891.8000488281</ele>
        <time>2021-03-21T11:19:32.000Z</time>
      </trkpt>
      <trkpt lat="44.98154" lon="6.03251">
        <ele>2892</ele>
        <time>2021-03-21T11:19:33.000Z</time>
      </trkpt>
      <trkpt lat="44.98154" lon="6.03251">
        <ele>2892</ele>
        <time>2021-03-21T11:19:34.000Z</time>
      </trkpt>
      <trkpt lat="44.98153" lon="6.03252">
        <ele>2892.1999511719</ele>
        <time>2021-03-21T11:19:35.000Z</time>
      </trkpt>
      <trkpt lat="44.98153" lon="6.03253">
        <ele>2892.1999511719</ele>
        <time>2021-03-21T11:19:36.000Z</time>
      </trkpt>
      <trkpt lat="44.98153" lon="6.03254">
        <ele>2892.3999023438</ele>
        <time>2021-03-21T11:19:37.000Z</time>
      </trkpt>
      <trkpt lat="44.98153" lon="6.03255">
        <ele>2892.6000976562</ele>
        <time>2021-03-21T11:19:38.000Z</time>
      </trkpt>
      <trkpt lat="44.98153" lon="6.03255">
        <ele>2892.6000976562</ele>
        <time>2021-03-21T11:19:39.000Z</time>
      </trkpt>
      <trkpt lat="44.98152" lon="6.03256">
        <ele>2892.8000488281</ele>
        <time>2021-03-21T11:19:40.000Z</time>
      </trkpt>
      <trkpt lat="44.98152" lon="6.03257">
        <ele>2892.8000488281</ele>
        <time>2021-03-21T11:19:41.000Z</time>
      </trkpt>
      <trkpt lat="44.98151" lon="6.03257">
        <ele>2892.8000488281</ele>
        <time>2021-03-21T11:19:42.000Z</time>
      </trkpt>
      <trkpt lat="44.98151" lon="6.03258">
        <ele>2893</ele>
        <time>2021-03-21T11:19:43.000Z</time>
      </trkpt>
      <trkpt lat="44.98151" lon="6.03259">
        <ele>2893</ele>
        <time>2021-03-21T11:19:44.000Z</time>
      </trkpt>
      <trkpt lat="44.98151" lon="6.0326">
        <ele>2893</ele>
        <time>2021-03-21T11:19:45.000Z</time>
      </trkpt>
      <trkpt lat="44.98151" lon="6.03261">
        <ele>2893.1999511719</ele>
        <time>2021-03-21T11:19:46.000Z</time>
      </trkpt>
      <trkpt lat="44.9815" lon="6.03261">
        <ele>2893.1999511719</ele>
        <time>2021-03-21T11:19:47.000Z</time>
      </trkpt>
      <trkpt lat="44.9815" lon="6.03262">
        <ele>2893.1999511719</ele>
        <time>2021-03-21T11:19:48.000Z</time>
      </trkpt>
      <trkpt lat="44.9815" lon="6.03263">
        <ele>2893.3999023438</ele>
        <time>2021-03-21T11:19:49.000Z</time>
      </trkpt>
      <trkpt lat="44.9815" lon="6.03264">
        <ele>2893.3999023438</ele>
        <time>2021-03-21T11:19:50.000Z</time>
      </trkpt>
      <trkpt lat="44.9815" lon="6.03265">
        <ele>2893.3999023438</ele>
        <time>2021-03-21T11:19:51.000Z</time>
      </trkpt>
      <trkpt lat="44.9815" lon="6.03265">
        <ele>2893.3999023438</ele>
        <time>2021-03-21T11:19:52.000Z</time>
      </trkpt>
      <trkpt lat="44.9815" lon="6.03266">
        <ele>2893.1999511719</ele>
        <time>2021-03-21T11:19:53.000Z</time>
      </trkpt>
      <trkpt lat="44.98149" lon="6.03267">
        <ele>2893.1999511719</ele>
        <time>2021-03-21T11:19:54.000Z</time>
      </trkpt>
      <trkpt lat="44.98149" lon="6.03267">
        <ele>2893.1999511719</ele>
        <time>2021-03-21T11:19:55.000Z</time>
      </trkpt>
      <trkpt lat="44.98149" lon="6.03268">
        <ele>2893.1999511719</ele>
        <time>2021-03-21T11:19:56.000Z</time>
      </trkpt>
      <trkpt lat="44.98149" lon="6.03269">
        <ele>2893</ele>
        <time>2021-03-21T11:19:57.000Z</time>
      </trkpt>
      <trkpt lat="44.98149" lon="6.03269">
        <ele>2893</ele>
        <time>2021-03-21T11:19:58.000Z</time>
      </trkpt>
      <trkpt lat="44.98148" lon="6.03271">
        <ele>2893</ele>
        <time>2021-03-21T11:19:59.000Z</time>
      </trkpt>
      <trkpt lat="44.98148" lon="6.03271">
        <ele>2893</ele>
        <time>2021-03-21T11:20:00.000Z</time>
      </trkpt>
      <trkpt lat="44.98148" lon="6.03272">
        <ele>2893</ele>
        <time>2021-03-21T11:20:01.000Z</time>
      </trkpt>
      <trkpt lat="44.98147" lon="6.03273">
        <ele>2892.8000488281</ele>
        <time>2021-03-21T11:20:02.000Z</time>
      </trkpt>
      <trkpt lat="44.98147" lon="6.03274">
        <ele>2892.8000488281</ele>
        <time>2021-03-21T11:20:03.000Z</time>
      </trkpt>
      <trkpt lat="44.98147" lon="6.03275">
        <ele>2892.8000488281</ele>
        <time>2021-03-21T11:20:04.000Z</time>
      </trkpt>
      <trkpt lat="44.98147" lon="6.03275">
        <ele>2892.6000976562</ele>
        <time>2021-03-21T11:20:05.000Z</time>
      </trkpt>
      <trkpt lat="44.98146" lon="6.03276">
        <ele>2892.6000976562</ele>
        <time>2021-03-21T11:20:06.000Z</time>
      </trkpt>
      <trkpt lat="44.98146" lon="6.03277">
        <ele>2892.6000976562</ele>
        <time>2021-03-21T11:20:07.000Z</time>
      </trkpt>
      <trkpt lat="44.98146" lon="6.03277">
        <ele>2892.6000976562</ele>
        <time>2021-03-21T11:20:08.000Z</time>
      </trkpt>
      <trkpt lat="44.98147" lon="6.03277">
        <ele>2892.6000976562</ele>
        <time>2021-03-21T11:20:09.000Z</time>
      </trkpt>
      <trkpt lat="44.98147" lon="6.03277">
        <ele>2892.3999023438</ele>
        <time>2021-03-21T11:20:10.000Z</time>
      </trkpt>
      <trkpt lat="44.98147" lon="6.03277">
        <ele>2892.3999023438</ele>
        <time>2021-03-21T11:20:11.000Z</time>
      </trkpt>
      <trkpt lat="44.98147" lon="6.03277">
        <ele>2892.3999023438</ele>
        <time>2021-03-21T11:20:12.000Z</time>
      </trkpt>
      <trkpt lat="44.98147" lon="6.03277">
        <ele>2892.3999023438</ele>
        <time>2021-03-21T11:20:13.000Z</time>
      </trkpt>
      <trkpt lat="44.98147" lon="6.03278">
        <ele>2892.3999023438</ele>
        <time>2021-03-21T11:20:14.000Z</time>
      </trkpt>
      <trkpt lat="44.98147" lon="6.03278">
        <ele>2892.3999023438</ele>
        <time>2021-03-21T11:20:15.000Z</time>
      </trkpt>
      <trkpt lat="44.98147" lon="6.03279">
        <ele>2892.1999511719</ele>
        <time>2021-03-21T11:20:16.000Z</time>
      </trkpt>
      <trkpt lat="44.98147" lon="6.0328">
        <ele>2892.1999511719</ele>
        <time>2021-03-21T11:20:17.000Z</time>
      </trkpt>
      <trkpt lat="44.98147" lon="6.03281">
        <ele>2892</ele>
        <time>2021-03-21T11:20:18.000Z</time>
      </trkpt>
      <trkpt lat="44.98146" lon="6.03281">
        <ele>2892.1999511719</ele>
        <time>2021-03-21T11:20:19.000Z</time>
      </trkpt>
      <trkpt lat="44.98146" lon="6.03282">
        <ele>2892</ele>
        <time>2021-03-21T11:20:20.000Z</time>
      </trkpt>
      <trkpt lat="44.98146" lon="6.03283">
        <ele>2892</ele>
        <time>2021-03-21T11:20:21.000Z</time>
      </trkpt>
      <trkpt lat="44.98145" lon="6.03283">
        <ele>2892</ele>
        <time>2021-03-21T11:20:22.000Z</time>
      </trkpt>
      <trkpt lat="44.98145" lon="6.03284">
        <ele>2892</ele>
        <time>2021-03-21T11:20:23.000Z</time>
      </trkpt>
      <trkpt lat="44.98145" lon="6.03285">
        <ele>2891.8000488281</ele>
        <time>2021-03-21T11:20:24.000Z</time>
      </trkpt>
      <trkpt lat="44.98145" lon="6.03286">
        <ele>2891.8000488281</ele>
        <time>2021-03-21T11:20:25.000Z</time>
      </trkpt>
      <trkpt lat="44.98145" lon="6.03286">
        <ele>2891.8000488281</ele>
        <time>2021-03-21T11:20:26.000Z</time>
      </trkpt>
      <trkpt lat="44.98145" lon="6.03287">
        <ele>2891.8000488281</ele>
        <time>2021-03-21T11:20:27.000Z</time>
      </trkpt>
      <trkpt lat="44.98145" lon="6.03288">
        <ele>2891.8000488281</ele>
        <time>2021-03-21T11:20:28.000Z</time>
      </trkpt>
      <trkpt lat="44.98145" lon="6.03289">
        <ele>2891.6000976562</ele>
        <time>2021-03-21T11:20:29.000Z</time>
      </trkpt>
      <trkpt lat="44.98144" lon="6.03289">
        <ele>2891.8000488281</ele>
        <time>2021-03-21T11:20:30.000Z</time>
      </trkpt>
      <trkpt lat="44.98144" lon="6.0329">
        <ele>2891.6000976562</ele>
        <time>2021-03-21T11:20:31.000Z</time>
      </trkpt>
      <trkpt lat="44.98145" lon="6.03291">
        <ele>2891.3999023438</ele>
        <time>2021-03-21T11:20:32.000Z</time>
      </trkpt>
      <trkpt lat="44.98145" lon="6.03292">
        <ele>2891.3999023438</ele>
        <time>2021-03-21T11:20:33.000Z</time>
      </trkpt>
      <trkpt lat="44.98144" lon="6.03292">
        <ele>2891.3999023438</ele>
        <time>2021-03-21T11:20:34.000Z</time>
      </trkpt>
      <trkpt lat="44.98144" lon="6.03293">
        <ele>2891.3999023438</ele>
        <time>2021-03-21T11:20:35.000Z</time>
      </trkpt>
      <trkpt lat="44.98144" lon="6.03294">
        <ele>2891.1999511719</ele>
        <time>2021-03-21T11:20:36.000Z</time>
      </trkpt>
      <trkpt lat="44.98143" lon="6.03295">
        <ele>2891.1999511719</ele>
        <time>2021-03-21T11:20:37.000Z</time>
      </trkpt>
      <trkpt lat="44.98143" lon="6.03295">
        <ele>2891</ele>
        <time>2021-03-21T11:20:38.000Z</time>
      </trkpt>
      <trkpt lat="44.98143" lon="6.03296">
        <ele>2891</ele>
        <time>2021-03-21T11:20:39.000Z</time>
      </trkpt>
      <trkpt lat="44.98142" lon="6.03297">
        <ele>2890.8000488281</ele>
        <time>2021-03-21T11:20:40.000Z</time>
      </trkpt>
      <trkpt lat="44.98142" lon="6.03298">
        <ele>2890.8000488281</ele>
        <time>2021-03-21T11:20:41.000Z</time>
      </trkpt>
      <trkpt lat="44.98141" lon="6.03299">
        <ele>2890.6000976562</ele>
        <time>2021-03-21T11:20:42.000Z</time>
      </trkpt>
      <trkpt lat="44.98141" lon="6.03299">
        <ele>2890.6000976562</ele>
        <time>2021-03-21T11:20:43.000Z</time>
      </trkpt>
      <trkpt lat="44.98141" lon="6.033">
        <ele>2890.3999023438</ele>
        <time>2021-03-21T11:20:44.000Z</time>
      </trkpt>
      <trkpt lat="44.98141" lon="6.03301">
        <ele>2890.3999023438</ele>
        <time>2021-03-21T11:20:45.000Z</time>
      </trkpt>
      <trkpt lat="44.98141" lon="6.03302">
        <ele>2890.1999511719</ele>
        <time>2021-03-21T11:20:46.000Z</time>
      </trkpt>
      <trkpt lat="44.98141" lon="6.03302">
        <ele>2890</ele>
        <time>2021-03-21T11:20:47.000Z</time>
      </trkpt>
      <trkpt lat="44.9814" lon="6.03303">
        <ele>2889.8000488281</ele>
        <time>2021-03-21T11:20:48.000Z</time>
      </trkpt>
      <trkpt lat="44.9814" lon="6.03304">
        <ele>2889.8000488281</ele>
        <time>2021-03-21T11:20:49.000Z</time>
      </trkpt>
      <trkpt lat="44.9814" lon="6.03305">
        <ele>2889.6000976562</ele>
        <time>2021-03-21T11:20:50.000Z</time>
      </trkpt>
      <trkpt lat="44.9814" lon="6.03306">
        <ele>2889.6000976562</ele>
        <time>2021-03-21T11:20:51.000Z</time>
      </trkpt>
      <trkpt lat="44.98139" lon="6.03306">
        <ele>2889.3999023438</ele>
        <time>2021-03-21T11:20:52.000Z</time>
      </trkpt>
      <trkpt lat="44.98139" lon="6.03307">
        <ele>2889.3999023438</ele>
        <time>2021-03-21T11:20:53.000Z</time>
      </trkpt>
      <trkpt lat="44.98138" lon="6.03308">
        <ele>2889.1999511719</ele>
        <time>2021-03-21T11:20:54.000Z</time>
      </trkpt>
      <trkpt lat="44.98138" lon="6.03308">
        <ele>2889</ele>
        <time>2021-03-21T11:20:55.000Z</time>
      </trkpt>
      <trkpt lat="44.98138" lon="6.03309">
        <ele>2888.8000488281</ele>
        <time>2021-03-21T11:20:56.000Z</time>
      </trkpt>
      <trkpt lat="44.98138" lon="6.03309">
        <ele>2888.8000488281</ele>
        <time>2021-03-21T11:20:57.000Z</time>
      </trkpt>
      <trkpt lat="44.98138" lon="6.0331">
        <ele>2888.6000976562</ele>
        <time>2021-03-21T11:20:58.000Z</time>
      </trkpt>
      <trkpt lat="44.98138" lon="6.0331">
        <ele>2888.3999023438</ele>
        <time>2021-03-21T11:20:59.000Z</time>
      </trkpt>
      <trkpt lat="44.98138" lon="6.03311">
        <ele>2888.3999023438</ele>
        <time>2021-03-21T11:21:00.000Z</time>
      </trkpt>
      <trkpt lat="44.98138" lon="6.03311">
        <ele>2888.3999023438</ele>
        <time>2021-03-21T11:21:01.000Z</time>
      </trkpt>
      <trkpt lat="44.98138" lon="6.03311">
        <ele>2888.3999023438</ele>
        <time>2021-03-21T11:21:02.000Z</time>
      </trkpt>
      <trkpt lat="44.98138" lon="6.03311">
        <ele>2888.3999023438</ele>
        <time>2021-03-21T11:21:03.000Z</time>
      </trkpt>
      <trkpt lat="44.98138" lon="6.03311">
        <ele>2888.3999023438</ele>
        <time>2021-03-21T11:21:04.000Z</time>
      </trkpt>
      <trkpt lat="44.98138" lon="6.03311">
        <ele>2888.3999023438</ele>
        <time>2021-03-21T11:21:05.000Z</time>
      </trkpt>
      <trkpt lat="44.98138" lon="6.03311">
        <ele>2888.3999023438</ele>
        <time>2021-03-21T11:21:06.000Z</time>
      </trkpt>
      <trkpt lat="44.98138" lon="6.03311">
        <ele>2888.1999511719</ele>
        <time>2021-03-21T11:21:07.000Z</time>
      </trkpt>
      <trkpt lat="44.98138" lon="6.03311">
        <ele>2888.1999511719</ele>
        <time>2021-03-21T11:21:08.000Z</time>
      </trkpt>
      <trkpt lat="44.98138" lon="6.03311">
        <ele>2888.1999511719</ele>
        <time>2021-03-21T11:21:09.000Z</time>
      </trkpt>
      <trkpt lat="44.98138" lon="6.03311">
        <ele>2888.1999511719</ele>
        <time>2021-03-21T11:21:10.000Z</time>
      </trkpt>
      <trkpt lat="44.98138" lon="6.03311">
        <ele>2888.3999023438</ele>
        <time>2021-03-21T11:21:11.000Z</time>
      </trkpt>
      <trkpt lat="44.98138" lon="6.03311">
        <ele>2888.1999511719</ele>
        <time>2021-03-21T11:21:12.000Z</time>
      </trkpt>
      <trkpt lat="44.98138" lon="6.03311">
        <ele>2888.1999511719</ele>
        <time>2021-03-21T11:21:13.000Z</time>
      </trkpt>
      <trkpt lat="44.98138" lon="6.03311">
        <ele>2888.1999511719</ele>
        <time>2021-03-21T11:21:14.000Z</time>
      </trkpt>
      <trkpt lat="44.98138" lon="6.03311">
        <ele>2888.1999511719</ele>
        <time>2021-03-21T11:21:15.000Z</time>
      </trkpt>
      <trkpt lat="44.98138" lon="6.03312">
        <ele>2888</ele>
        <time>2021-03-21T11:21:16.000Z</time>
      </trkpt>
      <trkpt lat="44.98138" lon="6.03313">
        <ele>2887.8000488281</ele>
        <time>2021-03-21T11:21:17.000Z</time>
      </trkpt>
      <trkpt lat="44.98137" lon="6.03313">
        <ele>2887.8000488281</ele>
        <time>2021-03-21T11:21:18.000Z</time>
      </trkpt>
      <trkpt lat="44.98137" lon="6.03314">
        <ele>2887.3999023438</ele>
        <time>2021-03-21T11:21:19.000Z</time>
      </trkpt>
      <trkpt lat="44.98137" lon="6.03315">
        <ele>2887.1999511719</ele>
        <time>2021-03-21T11:21:20.000Z</time>
      </trkpt>
      <trkpt lat="44.98136" lon="6.03316">
        <ele>2887</ele>
        <time>2021-03-21T11:21:21.000Z</time>
      </trkpt>
      <trkpt lat="44.98136" lon="6.03317">
        <ele>2886.8000488281</ele>
        <time>2021-03-21T11:21:22.000Z</time>
      </trkpt>
      <trkpt lat="44.98136" lon="6.03317">
        <ele>2886.8000488281</ele>
        <time>2021-03-21T11:21:23.000Z</time>
      </trkpt>
      <trkpt lat="44.98136" lon="6.03318">
        <ele>2886.3999023438</ele>
        <time>2021-03-21T11:21:24.000Z</time>
      </trkpt>
      <trkpt lat="44.98135" lon="6.03319">
        <ele>2886.3999023438</ele>
        <time>2021-03-21T11:21:25.000Z</time>
      </trkpt>
      <trkpt lat="44.98135" lon="6.0332">
        <ele>2886.1999511719</ele>
        <time>2021-03-21T11:21:26.000Z</time>
      </trkpt>
      <trkpt lat="44.98135" lon="6.0332">
        <ele>2886</ele>
        <time>2021-03-21T11:21:27.000Z</time>
      </trkpt>
      <trkpt lat="44.98134" lon="6.03321">
        <ele>2885.8000488281</ele>
        <time>2021-03-21T11:21:28.000Z</time>
      </trkpt>
      <trkpt lat="44.98134" lon="6.03321">
        <ele>2885.8000488281</ele>
        <time>2021-03-21T11:21:29.000Z</time>
      </trkpt>
      <trkpt lat="44.98134" lon="6.03321">
        <ele>2885.8000488281</ele>
        <time>2021-03-21T11:21:30.000Z</time>
      </trkpt>
      <trkpt lat="44.98133" lon="6.03322">
        <ele>2885.8000488281</ele>
        <time>2021-03-21T11:21:31.000Z</time>
      </trkpt>
      <trkpt lat="44.98133" lon="6.03322">
        <ele>2885.8000488281</ele>
        <time>2021-03-21T11:21:32.000Z</time>
      </trkpt>
      <trkpt lat="44.98133" lon="6.03321">
        <ele>2885.8000488281</ele>
        <time>2021-03-21T11:21:33.000Z</time>
      </trkpt>
      <trkpt lat="44.98133" lon="6.03321">
        <ele>2886</ele>
        <time>2021-03-21T11:21:34.000Z</time>
      </trkpt>
      <trkpt lat="44.98132" lon="6.03321">
        <ele>2886</ele>
        <time>2021-03-21T11:21:35.000Z</time>
      </trkpt>
      <trkpt lat="44.98132" lon="6.03321">
        <ele>2886.1999511719</ele>
        <time>2021-03-21T11:21:36.000Z</time>
      </trkpt>
      <trkpt lat="44.98131" lon="6.0332">
        <ele>2886.1999511719</ele>
        <time>2021-03-21T11:21:37.000Z</time>
      </trkpt>
      <trkpt lat="44.98131" lon="6.0332">
        <ele>2886.3999023438</ele>
        <time>2021-03-21T11:21:38.000Z</time>
      </trkpt>
      <trkpt lat="44.9813" lon="6.0332">
        <ele>2886.6000976562</ele>
        <time>2021-03-21T11:21:39.000Z</time>
      </trkpt>
      <trkpt lat="44.9813" lon="6.03319">
        <ele>2886.8000488281</ele>
        <time>2021-03-21T11:21:40.000Z</time>
      </trkpt>
      <trkpt lat="44.9813" lon="6.03319">
        <ele>2886.8000488281</ele>
        <time>2021-03-21T11:21:41.000Z</time>
      </trkpt>
      <trkpt lat="44.98129" lon="6.03318">
        <ele>2887.1999511719</ele>
        <time>2021-03-21T11:21:42.000Z</time>
      </trkpt>
      <trkpt lat="44.98129" lon="6.03318">
        <ele>2887.1999511719</ele>
        <time>2021-03-21T11:21:43.000Z</time>
      </trkpt>
      <trkpt lat="44.98128" lon="6.03317">
        <ele>2887.6000976562</ele>
        <time>2021-03-21T11:21:44.000Z</time>
      </trkpt>
      <trkpt lat="44.98128" lon="6.03317">
        <ele>2887.8000488281</ele>
        <time>2021-03-21T11:21:45.000Z</time>
      </trkpt>
      <trkpt lat="44.98127" lon="6.03316">
        <ele>2887.8000488281</ele>
        <time>2021-03-21T11:21:46.000Z</time>
      </trkpt>
      <trkpt lat="44.98127" lon="6.03316">
        <ele>2888</ele>
        <time>2021-03-21T11:21:47.000Z</time>
      </trkpt>
      <trkpt lat="44.98126" lon="6.03315">
        <ele>2888.1999511719</ele>
        <time>2021-03-21T11:21:48.000Z</time>
      </trkpt>
      <trkpt lat="44.98126" lon="6.03315">
        <ele>2888.3999023438</ele>
        <time>2021-03-21T11:21:49.000Z</time>
      </trkpt>
      <trkpt lat="44.98125" lon="6.03315">
        <ele>2888.6000976562</ele>
        <time>2021-03-21T11:21:50.000Z</time>
      </trkpt>
      <trkpt lat="44.98125" lon="6.03314">
        <ele>2888.8000488281</ele>
        <time>2021-03-21T11:21:51.000Z</time>
      </trkpt>
      <trkpt lat="44.98124" lon="6.03314">
        <ele>2888.8000488281</ele>
        <time>2021-03-21T11:21:52.000Z</time>
      </trkpt>
      <trkpt lat="44.98123" lon="6.03313">
        <ele>2888.8000488281</ele>
        <time>2021-03-21T11:21:53.000Z</time>
      </trkpt>
      <trkpt lat="44.98123" lon="6.03313">
        <ele>2888.8000488281</ele>
        <time>2021-03-21T11:21:54.000Z</time>
      </trkpt>
      <trkpt lat="44.98123" lon="6.03313">
        <ele>2888.8000488281</ele>
        <time>2021-03-21T11:21:55.000Z</time>
      </trkpt>
      <trkpt lat="44.98122" lon="6.03313">
        <ele>2888.8000488281</ele>
        <time>2021-03-21T11:21:56.000Z</time>
      </trkpt>
      <trkpt lat="44.98122" lon="6.03313">
        <ele>2888.8000488281</ele>
        <time>2021-03-21T11:21:57.000Z</time>
      </trkpt>
      <trkpt lat="44.98121" lon="6.03313">
        <ele>2888.8000488281</ele>
        <time>2021-03-21T11:21:58.000Z</time>
      </trkpt>
      <trkpt lat="44.98121" lon="6.03312">
        <ele>2888.8000488281</ele>
        <time>2021-03-21T11:21:59.000Z</time>
      </trkpt>
      <trkpt lat="44.9812" lon="6.03312">
        <ele>2888.8000488281</ele>
        <time>2021-03-21T11:22:00.000Z</time>
      </trkpt>
      <trkpt lat="44.9812" lon="6.03311">
        <ele>2889</ele>
        <time>2021-03-21T11:22:01.000Z</time>
      </trkpt>
      <trkpt lat="44.9812" lon="6.03311">
        <ele>2889</ele>
        <time>2021-03-21T11:22:02.000Z</time>
      </trkpt>
      <trkpt lat="44.98119" lon="6.03311">
        <ele>2889</ele>
        <time>2021-03-21T11:22:03.000Z</time>
      </trkpt>
      <trkpt lat="44.98119" lon="6.03311">
        <ele>2889</ele>
        <time>2021-03-21T11:22:04.000Z</time>
      </trkpt>
      <trkpt lat="44.98119" lon="6.0331">
        <ele>2889.1999511719</ele>
        <time>2021-03-21T11:22:05.000Z</time>
      </trkpt>
      <trkpt lat="44.98119" lon="6.0331">
        <ele>2889.1999511719</ele>
        <time>2021-03-21T11:22:06.000Z</time>
      </trkpt>
      <trkpt lat="44.98119" lon="6.03311">
        <ele>2889</ele>
        <time>2021-03-21T11:22:07.000Z</time>
      </trkpt>
      <trkpt lat="44.98119" lon="6.03311">
        <ele>2889</ele>
        <time>2021-03-21T11:22:08.000Z</time>
      </trkpt>
      <trkpt lat="44.98119" lon="6.0331">
        <ele>2889</ele>
        <time>2021-03-21T11:22:09.000Z</time>
      </trkpt>
      <trkpt lat="44.98119" lon="6.0331">
        <ele>2889.1999511719</ele>
        <time>2021-03-21T11:22:10.000Z</time>
      </trkpt>
      <trkpt lat="44.98119" lon="6.0331">
        <ele>2889.1999511719</ele>
        <time>2021-03-21T11:22:11.000Z</time>
      </trkpt>
      <trkpt lat="44.98119" lon="6.0331">
        <ele>2889.1999511719</ele>
        <time>2021-03-21T11:22:12.000Z</time>
      </trkpt>
      <trkpt lat="44.98118" lon="6.03309">
        <ele>2889.3999023438</ele>
        <time>2021-03-21T11:22:13.000Z</time>
      </trkpt>
      <trkpt lat="44.98117" lon="6.03308">
        <ele>2889.3999023438</ele>
        <time>2021-03-21T11:22:14.000Z</time>
      </trkpt>
      <trkpt lat="44.98117" lon="6.03308">
        <ele>2889.3999023438</ele>
        <time>2021-03-21T11:22:15.000Z</time>
      </trkpt>
      <trkpt lat="44.98117" lon="6.03308">
        <ele>2889.6000976562</ele>
        <time>2021-03-21T11:22:16.000Z</time>
      </trkpt>
      <trkpt lat="44.98117" lon="6.03308">
        <ele>2889.3999023438</ele>
        <time>2021-03-21T11:22:17.000Z</time>
      </trkpt>
      <trkpt lat="44.98118" lon="6.03308">
        <ele>2889.6000976562</ele>
        <time>2021-03-21T11:22:18.000Z</time>
      </trkpt>
      <trkpt lat="44.98118" lon="6.03308">
        <ele>2889.3999023438</ele>
        <time>2021-03-21T11:22:19.000Z</time>
      </trkpt>
      <trkpt lat="44.98118" lon="6.03308">
        <ele>2889.3999023438</ele>
        <time>2021-03-21T11:22:20.000Z</time>
      </trkpt>
      <trkpt lat="44.98118" lon="6.03309">
        <ele>2889.3999023438</ele>
        <time>2021-03-21T11:22:21.000Z</time>
      </trkpt>
      <trkpt lat="44.98118" lon="6.03309">
        <ele>2889.1999511719</ele>
        <time>2021-03-21T11:22:22.000Z</time>
      </trkpt>
      <trkpt lat="44.98118" lon="6.03309">
        <ele>2889.1999511719</ele>
        <time>2021-03-21T11:22:23.000Z</time>
      </trkpt>
      <trkpt lat="44.98118" lon="6.03309">
        <ele>2889.1999511719</ele>
        <time>2021-03-21T11:22:24.000Z</time>
      </trkpt>
      <trkpt lat="44.98118" lon="6.03309">
        <ele>2889.1999511719</ele>
        <time>2021-03-21T11:22:25.000Z</time>
      </trkpt>
      <trkpt lat="44.98118" lon="6.03309">
        <ele>2889.1999511719</ele>
        <time>2021-03-21T11:22:26.000Z</time>
      </trkpt>
      <trkpt lat="44.98118" lon="6.0331">
        <ele>2889.1999511719</ele>
        <time>2021-03-21T11:22:27.000Z</time>
      </trkpt>
      <trkpt lat="44.98118" lon="6.0331">
        <ele>2889.1999511719</ele>
        <time>2021-03-21T11:22:28.000Z</time>
      </trkpt>
      <trkpt lat="44.98118" lon="6.0331">
        <ele>2889</ele>
        <time>2021-03-21T11:22:29.000Z</time>
      </trkpt>
      <trkpt lat="44.98118" lon="6.0331">
        <ele>2889</ele>
        <time>2021-03-21T11:22:30.000Z</time>
      </trkpt>
      <trkpt lat="44.98118" lon="6.03311">
        <ele>2888.8000488281</ele>
        <time>2021-03-21T11:22:31.000Z</time>
      </trkpt>
      <trkpt lat="44.98118" lon="6.03311">
        <ele>2888.8000488281</ele>
        <time>2021-03-21T11:22:32.000Z</time>
      </trkpt>
      <trkpt lat="44.98119" lon="6.03312">
        <ele>2888.6000976562</ele>
        <time>2021-03-21T11:22:33.000Z</time>
      </trkpt>
      <trkpt lat="44.98119" lon="6.03312">
        <ele>2888.3999023438</ele>
        <time>2021-03-21T11:22:34.000Z</time>
      </trkpt>
      <trkpt lat="44.98119" lon="6.03313">
        <ele>2888.3999023438</ele>
        <time>2021-03-21T11:22:35.000Z</time>
      </trkpt>
      <trkpt lat="44.98119" lon="6.03314">
        <ele>2888.1999511719</ele>
        <time>2021-03-21T11:22:36.000Z</time>
      </trkpt>
      <trkpt lat="44.98119" lon="6.03314">
        <ele>2888</ele>
        <time>2021-03-21T11:22:37.000Z</time>
      </trkpt>
      <trkpt lat="44.9812" lon="6.03315">
        <ele>2887.8000488281</ele>
        <time>2021-03-21T11:22:38.000Z</time>
      </trkpt>
      <trkpt lat="44.98121" lon="6.03316">
        <ele>2887.6000976562</ele>
        <time>2021-03-21T11:22:39.000Z</time>
      </trkpt>
      <trkpt lat="44.98121" lon="6.03317">
        <ele>2887.6000976562</ele>
        <time>2021-03-21T11:22:40.000Z</time>
      </trkpt>
      <trkpt lat="44.98121" lon="6.03318">
        <ele>2887.3999023438</ele>
        <time>2021-03-21T11:22:41.000Z</time>
      </trkpt>
      <trkpt lat="44.98121" lon="6.03319">
        <ele>2887</ele>
        <time>2021-03-21T11:22:42.000Z</time>
      </trkpt>
      <trkpt lat="44.98121" lon="6.03319">
        <ele>2886.8000488281</ele>
        <time>2021-03-21T11:22:43.000Z</time>
      </trkpt>
      <trkpt lat="44.98121" lon="6.0332">
        <ele>2886.6000976562</ele>
        <time>2021-03-21T11:22:44.000Z</time>
      </trkpt>
      <trkpt lat="44.98121" lon="6.0332">
        <ele>2886.3999023438</ele>
        <time>2021-03-21T11:22:45.000Z</time>
      </trkpt>
      <trkpt lat="44.98121" lon="6.03321">
        <ele>2886.1999511719</ele>
        <time>2021-03-21T11:22:46.000Z</time>
      </trkpt>
      <trkpt lat="44.9812" lon="6.03321">
        <ele>2886</ele>
        <time>2021-03-21T11:22:47.000Z</time>
      </trkpt>
      <trkpt lat="44.9812" lon="6.03322">
        <ele>2885.8000488281</ele>
        <time>2021-03-21T11:22:48.000Z</time>
      </trkpt>
      <trkpt lat="44.9812" lon="6.03322">
        <ele>2885.8000488281</ele>
        <time>2021-03-21T11:22:49.000Z</time>
      </trkpt>
      <trkpt lat="44.9812" lon="6.03321">
        <ele>2886</ele>
        <time>2021-03-21T11:22:50.000Z</time>
      </trkpt>
      <trkpt lat="44.9812" lon="6.03321">
        <ele>2886</ele>
        <time>2021-03-21T11:22:51.000Z</time>
      </trkpt>
      <trkpt lat="44.9812" lon="6.03321">
        <ele>2886</ele>
        <time>2021-03-21T11:22:52.000Z</time>
      </trkpt>
      <trkpt lat="44.9812" lon="6.03321">
        <ele>2886</ele>
        <time>2021-03-21T11:22:53.000Z</time>
      </trkpt>
      <trkpt lat="44.9812" lon="6.03321">
        <ele>2886</ele>
        <time>2021-03-21T11:22:54.000Z</time>
      </trkpt>
      <trkpt lat="44.9812" lon="6.03321">
        <ele>2886</ele>
        <time>2021-03-21T11:22:55.000Z</time>
      </trkpt>
      <trkpt lat="44.9812" lon="6.03321">
        <ele>2886</ele>
        <time>2021-03-21T11:22:56.000Z</time>
      </trkpt>
      <trkpt lat="44.9812" lon="6.03321">
        <ele>2885.8000488281</ele>
        <time>2021-03-21T11:22:57.000Z</time>
      </trkpt>
      <trkpt lat="44.9812" lon="6.03322">
        <ele>2885.8000488281</ele>
        <time>2021-03-21T11:22:58.000Z</time>
      </trkpt>
      <trkpt lat="44.9812" lon="6.03322">
        <ele>2885.8000488281</ele>
        <time>2021-03-21T11:22:59.000Z</time>
      </trkpt>
      <trkpt lat="44.9812" lon="6.03322">
        <ele>2885.6000976562</ele>
        <time>2021-03-21T11:23:00.000Z</time>
      </trkpt>
      <trkpt lat="44.9812" lon="6.03322">
        <ele>2885.6000976562</ele>
        <time>2021-03-21T11:23:01.000Z</time>
      </trkpt>
      <trkpt lat="44.9812" lon="6.03323">
        <ele>2885.3999023438</ele>
        <time>2021-03-21T11:23:02.000Z</time>
      </trkpt>
      <trkpt lat="44.9812" lon="6.03322">
        <ele>2885.6000976562</ele>
        <time>2021-03-21T11:23:03.000Z</time>
      </trkpt>
      <trkpt lat="44.9812" lon="6.03322">
        <ele>2885.8000488281</ele>
        <time>2021-03-21T11:23:04.000Z</time>
      </trkpt>
      <trkpt lat="44.9812" lon="6.03322">
        <ele>2885.8000488281</ele>
        <time>2021-03-21T11:23:05.000Z</time>
      </trkpt>
      <trkpt lat="44.98121" lon="6.03322">
        <ele>2886</ele>
        <time>2021-03-21T11:23:06.000Z</time>
      </trkpt>
      <trkpt lat="44.98121" lon="6.03321">
        <ele>2886</ele>
        <time>2021-03-21T11:23:07.000Z</time>
      </trkpt>
      <trkpt lat="44.98121" lon="6.03321">
        <ele>2886.1999511719</ele>
        <time>2021-03-21T11:23:08.000Z</time>
      </trkpt>
      <trkpt lat="44.98121" lon="6.03321">
        <ele>2886.1999511719</ele>
        <time>2021-03-21T11:23:09.000Z</time>
      </trkpt>
      <trkpt lat="44.98122" lon="6.03321">
        <ele>2886.1999511719</ele>
        <time>2021-03-21T11:23:10.000Z</time>
      </trkpt>
      <trkpt lat="44.98121" lon="6.03321">
        <ele>2886.1999511719</ele>
        <time>2021-03-21T11:23:11.000Z</time>
      </trkpt>
      <trkpt lat="44.98121" lon="6.03321">
        <ele>2886.1999511719</ele>
        <time>2021-03-21T11:23:12.000Z</time>
      </trkpt>
      <trkpt lat="44.98122" lon="6.03321">
        <ele>2886.3999023438</ele>
        <time>2021-03-21T11:23:13.000Z</time>
      </trkpt>
      <trkpt lat="44.98122" lon="6.03321">
        <ele>2886.3999023438</ele>
        <time>2021-03-21T11:23:14.000Z</time>
      </trkpt>
      <trkpt lat="44.98122" lon="6.03321">
        <ele>2886.3999023438</ele>
        <time>2021-03-21T11:23:15.000Z</time>
      </trkpt>
      <trkpt lat="44.98122" lon="6.03321">
        <ele>2886.3999023438</ele>
        <time>2021-03-21T11:23:16.000Z</time>
      </trkpt>
      <trkpt lat="44.98123" lon="6.03321">
        <ele>2886.3999023438</ele>
        <time>2021-03-21T11:23:17.000Z</time>
      </trkpt>
      <trkpt lat="44.98123" lon="6.03322">
        <ele>2886.3999023438</ele>
        <time>2021-03-21T11:23:18.000Z</time>
      </trkpt>
      <trkpt lat="44.98123" lon="6.03322">
        <ele>2886.1999511719</ele>
        <time>2021-03-21T11:23:19.000Z</time>
      </trkpt>
      <trkpt lat="44.98122" lon="6.03322">
        <ele>2886</ele>
        <time>2021-03-21T11:23:20.000Z</time>
      </trkpt>
      <trkpt lat="44.98122" lon="6.03322">
        <ele>2886</ele>
        <time>2021-03-21T11:23:21.000Z</time>
      </trkpt>
      <trkpt lat="44.98122" lon="6.03322">
        <ele>2886</ele>
        <time>2021-03-21T11:23:22.000Z</time>
      </trkpt>
      <trkpt lat="44.98122" lon="6.03322">
        <ele>2886</ele>
        <time>2021-03-21T11:23:23.000Z</time>
      </trkpt>
      <trkpt lat="44.98122" lon="6.03322">
        <ele>2886</ele>
        <time>2021-03-21T11:23:24.000Z</time>
      </trkpt>
      <trkpt lat="44.98122" lon="6.03323">
        <ele>2885.8000488281</ele>
        <time>2021-03-21T11:23:25.000Z</time>
      </trkpt>
      <trkpt lat="44.98122" lon="6.03323">
        <ele>2886</ele>
        <time>2021-03-21T11:23:26.000Z</time>
      </trkpt>
      <trkpt lat="44.98122" lon="6.03323">
        <ele>2885.8000488281</ele>
        <time>2021-03-21T11:23:27.000Z</time>
      </trkpt>
      <trkpt lat="44.98122" lon="6.03323">
        <ele>2885.8000488281</ele>
        <time>2021-03-21T11:23:28.000Z</time>
      </trkpt>
      <trkpt lat="44.98122" lon="6.03323">
        <ele>2885.8000488281</ele>
        <time>2021-03-21T11:23:29.000Z</time>
      </trkpt>
      <trkpt lat="44.98122" lon="6.03323">
        <ele>2885.6000976562</ele>
        <time>2021-03-21T11:23:30.000Z</time>
      </trkpt>
      <trkpt lat="44.98122" lon="6.03323">
        <ele>2885.6000976562</ele>
        <time>2021-03-21T11:23:31.000Z</time>
      </trkpt>
      <trkpt lat="44.98122" lon="6.03323">
        <ele>2885.6000976562</ele>
        <time>2021-03-21T11:23:32.000Z</time>
      </trkpt>
      <trkpt lat="44.98122" lon="6.03324">
        <ele>2885.3999023438</ele>
        <time>2021-03-21T11:23:33.000Z</time>
      </trkpt>
      <trkpt lat="44.98122" lon="6.03324">
        <ele>2885.3999023438</ele>
        <time>2021-03-21T11:23:34.000Z</time>
      </trkpt>
      <trkpt lat="44.98122" lon="6.03323">
        <ele>2885.6000976562</ele>
        <time>2021-03-21T11:23:35.000Z</time>
      </trkpt>
      <trkpt lat="44.98122" lon="6.03323">
        <ele>2885.6000976562</ele>
        <time>2021-03-21T11:23:36.000Z</time>
      </trkpt>
      <trkpt lat="44.98122" lon="6.03323">
        <ele>2885.6000976562</ele>
        <time>2021-03-21T11:23:37.000Z</time>
      </trkpt>
      <trkpt lat="44.98122" lon="6.03323">
        <ele>2885.8000488281</ele>
        <time>2021-03-21T11:23:38.000Z</time>
      </trkpt>
      <trkpt lat="44.98122" lon="6.03323">
        <ele>2885.8000488281</ele>
        <time>2021-03-21T11:23:39.000Z</time>
      </trkpt>
      <trkpt lat="44.98122" lon="6.03323">
        <ele>2885.6000976562</ele>
        <time>2021-03-21T11:23:40.000Z</time>
      </trkpt>
      <trkpt lat="44.98122" lon="6.03323">
        <ele>2885.6000976562</ele>
        <time>2021-03-21T11:23:41.000Z</time>
      </trkpt>
      <trkpt lat="44.98122" lon="6.03323">
        <ele>2885.6000976562</ele>
        <time>2021-03-21T11:23:42.000Z</time>
      </trkpt>
      <trkpt lat="44.98122" lon="6.03323">
        <ele>2885.8000488281</ele>
        <time>2021-03-21T11:23:43.000Z</time>
      </trkpt>
      <trkpt lat="44.98122" lon="6.03323">
        <ele>2885.8000488281</ele>
        <time>2021-03-21T11:23:44.000Z</time>
      </trkpt>
      <trkpt lat="44.98122" lon="6.03322">
        <ele>2885.8000488281</ele>
        <time>2021-03-21T11:23:45.000Z</time>
      </trkpt>
      <trkpt lat="44.98122" lon="6.03323">
        <ele>2885.8000488281</ele>
        <time>2021-03-21T11:23:46.000Z</time>
      </trkpt>
      <trkpt lat="44.98122" lon="6.03323">
        <ele>2885.8000488281</ele>
        <time>2021-03-21T11:23:47.000Z</time>
      </trkpt>
      <trkpt lat="44.98122" lon="6.03323">
        <ele>2885.8000488281</ele>
        <time>2021-03-21T11:23:48.000Z</time>
      </trkpt>
      <trkpt lat="44.98122" lon="6.03323">
        <ele>2885.6000976562</ele>
        <time>2021-03-21T11:23:49.000Z</time>
      </trkpt>
      <trkpt lat="44.98122" lon="6.03323">
        <ele>2885.6000976562</ele>
        <time>2021-03-21T11:23:50.000Z</time>
      </trkpt>
      <trkpt lat="44.98122" lon="6.03323">
        <ele>2885.8000488281</ele>
        <time>2021-03-21T11:23:51.000Z</time>
      </trkpt>
      <trkpt lat="44.98122" lon="6.03323">
        <ele>2885.8000488281</ele>
        <time>2021-03-21T11:23:52.000Z</time>
      </trkpt>
      <trkpt lat="44.98122" lon="6.03322">
        <ele>2886</ele>
        <time>2021-03-21T11:23:53.000Z</time>
      </trkpt>
      <trkpt lat="44.98122" lon="6.03322">
        <ele>2885.8000488281</ele>
        <time>2021-03-21T11:23:54.000Z</time>
      </trkpt>
      <trkpt lat="44.98122" lon="6.03323">
        <ele>2885.8000488281</ele>
        <time>2021-03-21T11:23:55.000Z</time>
      </trkpt>
      <trkpt lat="44.98122" lon="6.03323">
        <ele>2885.8000488281</ele>
        <time>2021-03-21T11:23:56.000Z</time>
      </trkpt>
      <trkpt lat="44.98122" lon="6.03323">
        <ele>2885.8000488281</ele>
        <time>2021-03-21T11:23:57.000Z</time>
      </trkpt>
      <trkpt lat="44.98122" lon="6.03323">
        <ele>2885.8000488281</ele>
        <time>2021-03-21T11:23:58.000Z</time>
      </trkpt>
      <trkpt lat="44.98122" lon="6.03323">
        <ele>2885.8000488281</ele>
        <time>2021-03-21T11:23:59.000Z</time>
      </trkpt>
      <trkpt lat="44.98122" lon="6.03322">
        <ele>2885.8000488281</ele>
        <time>2021-03-21T11:24:00.000Z</time>
      </trkpt>
      <trkpt lat="44.98122" lon="6.03322">
        <ele>2886</ele>
        <time>2021-03-21T11:24:01.000Z</time>
      </trkpt>
      <trkpt lat="44.98122" lon="6.03322">
        <ele>2886</ele>
        <time>2021-03-21T11:24:02.000Z</time>
      </trkpt>
      <trkpt lat="44.98122" lon="6.03322">
        <ele>2886</ele>
        <time>2021-03-21T11:24:03.000Z</time>
      </trkpt>
      <trkpt lat="44.98122" lon="6.03322">
        <ele>2886.1999511719</ele>
        <time>2021-03-21T11:24:04.000Z</time>
      </trkpt>
      <trkpt lat="44.98122" lon="6.03322">
        <ele>2886.1999511719</ele>
        <time>2021-03-21T11:24:05.000Z</time>
      </trkpt>
      <trkpt lat="44.98122" lon="6.03322">
        <ele>2886</ele>
        <time>2021-03-21T11:24:06.000Z</time>
      </trkpt>
      <trkpt lat="44.98122" lon="6.03322">
        <ele>2886</ele>
        <time>2021-03-21T11:24:07.000Z</time>
      </trkpt>
      <trkpt lat="44.98122" lon="6.03322">
        <ele>2886</ele>
        <time>2021-03-21T11:24:08.000Z</time>
      </trkpt>
      <trkpt lat="44.98122" lon="6.03323">
        <ele>2885.8000488281</ele>
        <time>2021-03-21T11:24:09.000Z</time>
      </trkpt>
      <trkpt lat="44.98122" lon="6.03323">
        <ele>2885.8000488281</ele>
        <time>2021-03-21T11:24:10.000Z</time>
      </trkpt>
      <trkpt lat="44.98122" lon="6.03323">
        <ele>2885.8000488281</ele>
        <time>2021-03-21T11:24:11.000Z</time>
      </trkpt>
      <trkpt lat="44.98122" lon="6.03323">
        <ele>2885.6000976562</ele>
        <time>2021-03-21T11:24:12.000Z</time>
      </trkpt>
      <trkpt lat="44.98122" lon="6.03323">
        <ele>2885.6000976562</ele>
        <time>2021-03-21T11:24:13.000Z</time>
      </trkpt>
      <trkpt lat="44.98122" lon="6.03323">
        <ele>2885.8000488281</ele>
        <time>2021-03-21T11:24:14.000Z</time>
      </trkpt>
      <trkpt lat="44.98121" lon="6.03323">
        <ele>2885.8000488281</ele>
        <time>2021-03-21T11:24:15.000Z</time>
      </trkpt>
      <trkpt lat="44.98121" lon="6.03323">
        <ele>2885.8000488281</ele>
        <time>2021-03-21T11:24:16.000Z</time>
      </trkpt>
      <trkpt lat="44.98121" lon="6.03323">
        <ele>2885.6000976562</ele>
        <time>2021-03-21T11:24:17.000Z</time>
      </trkpt>
      <trkpt lat="44.98121" lon="6.03322">
        <ele>2885.6000976562</ele>
        <time>2021-03-21T11:24:18.000Z</time>
      </trkpt>
      <trkpt lat="44.98121" lon="6.03322">
        <ele>2885.8000488281</ele>
        <time>2021-03-21T11:24:19.000Z</time>
      </trkpt>
      <trkpt lat="44.98121" lon="6.03323">
        <ele>2885.6000976562</ele>
        <time>2021-03-21T11:24:20.000Z</time>
      </trkpt>
      <trkpt lat="44.98121" lon="6.03323">
        <ele>2885.6000976562</ele>
        <time>2021-03-21T11:24:21.000Z</time>
      </trkpt>
      <trkpt lat="44.98122" lon="6.03323">
        <ele>2885.6000976562</ele>
        <time>2021-03-21T11:24:22.000Z</time>
      </trkpt>
      <trkpt lat="44.98122" lon="6.03323">
        <ele>2885.8000488281</ele>
        <time>2021-03-21T11:24:23.000Z</time>
      </trkpt>
      <trkpt lat="44.98122" lon="6.03323">
        <ele>2885.8000488281</ele>
        <time>2021-03-21T11:24:24.000Z</time>
      </trkpt>
      <trkpt lat="44.98122" lon="6.03323">
        <ele>2885.8000488281</ele>
        <time>2021-03-21T11:24:25.000Z</time>
      </trkpt>
      <trkpt lat="44.98122" lon="6.03323">
        <ele>2885.6000976562</ele>
        <time>2021-03-21T11:24:26.000Z</time>
      </trkpt>
      <trkpt lat="44.98122" lon="6.03323">
        <ele>2885.6000976562</ele>
        <time>2021-03-21T11:24:27.000Z</time>
      </trkpt>
      <trkpt lat="44.98122" lon="6.03324">
        <ele>2885.3999023438</ele>
        <time>2021-03-21T11:24:28.000Z</time>
      </trkpt>
      <trkpt lat="44.98122" lon="6.03324">
        <ele>2885.6000976562</ele>
        <time>2021-03-21T11:24:29.000Z</time>
      </trkpt>
      <trkpt lat="44.98122" lon="6.03324">
        <ele>2885.3999023438</ele>
        <time>2021-03-21T11:24:30.000Z</time>
      </trkpt>
      <trkpt lat="44.98122" lon="6.03324">
        <ele>2885.6000976562</ele>
        <time>2021-03-21T11:24:31.000Z</time>
      </trkpt>
      <trkpt lat="44.98122" lon="6.03324">
        <ele>2885.6000976562</ele>
        <time>2021-03-21T11:24:32.000Z</time>
      </trkpt>
      <trkpt lat="44.98122" lon="6.03323">
        <ele>2885.6000976562</ele>
        <time>2021-03-21T11:24:33.000Z</time>
      </trkpt>
      <trkpt lat="44.98122" lon="6.03323">
        <ele>2885.6000976562</ele>
        <time>2021-03-21T11:24:34.000Z</time>
      </trkpt>
      <trkpt lat="44.98122" lon="6.03323">
        <ele>2885.6000976562</ele>
        <time>2021-03-21T11:24:35.000Z</time>
      </trkpt>
      <trkpt lat="44.98122" lon="6.03323">
        <ele>2885.6000976562</ele>
        <time>2021-03-21T11:24:36.000Z</time>
      </trkpt>
      <trkpt lat="44.98122" lon="6.03324">
        <ele>2885.6000976562</ele>
        <time>2021-03-21T11:24:37.000Z</time>
      </trkpt>
      <trkpt lat="44.98122" lon="6.03324">
        <ele>2885.6000976562</ele>
        <time>2021-03-21T11:24:38.000Z</time>
      </trkpt>
      <trkpt lat="44.98122" lon="6.03324">
        <ele>2885.3999023438</ele>
        <time>2021-03-21T11:24:39.000Z</time>
      </trkpt>
      <trkpt lat="44.98123" lon="6.03324">
        <ele>2885.3999023438</ele>
        <time>2021-03-21T11:24:40.000Z</time>
      </trkpt>
      <trkpt lat="44.98123" lon="6.03324">
        <ele>2885.3999023438</ele>
        <time>2021-03-21T11:24:41.000Z</time>
      </trkpt>
      <trkpt lat="44.98123" lon="6.03324">
        <ele>2885.6000976562</ele>
        <time>2021-03-21T11:24:42.000Z</time>
      </trkpt>
      <trkpt lat="44.98123" lon="6.03324">
        <ele>2885.6000976562</ele>
        <time>2021-03-21T11:24:43.000Z</time>
      </trkpt>
      <trkpt lat="44.98123" lon="6.03324">
        <ele>2885.6000976562</ele>
        <time>2021-03-21T11:24:44.000Z</time>
      </trkpt>
      <trkpt lat="44.98123" lon="6.03324">
        <ele>2885.6000976562</ele>
        <time>2021-03-21T11:24:45.000Z</time>
      </trkpt>
      <trkpt lat="44.98122" lon="6.03323">
        <ele>2885.6000976562</ele>
        <time>2021-03-21T11:24:46.000Z</time>
      </trkpt>
      <trkpt lat="44.98122" lon="6.03323">
        <ele>2885.6000976562</ele>
        <time>2021-03-21T11:24:47.000Z</time>
      </trkpt>
      <trkpt lat="44.98122" lon="6.03323">
        <ele>2885.6000976562</ele>
        <time>2021-03-21T11:24:48.000Z</time>
      </trkpt>
      <trkpt lat="44.98122" lon="6.03323">
        <ele>2885.6000976562</ele>
        <time>2021-03-21T11:24:49.000Z</time>
      </trkpt>
      <trkpt lat="44.98122" lon="6.03323">
        <ele>2885.8000488281</ele>
        <time>2021-03-21T11:24:50.000Z</time>
      </trkpt>
      <trkpt lat="44.98122" lon="6.03323">
        <ele>2885.8000488281</ele>
        <time>2021-03-21T11:24:51.000Z</time>
      </trkpt>
      <trkpt lat="44.98123" lon="6.03323">
        <ele>2885.8000488281</ele>
        <time>2021-03-21T11:24:52.000Z</time>
      </trkpt>
      <trkpt lat="44.98123" lon="6.03323">
        <ele>2885.8000488281</ele>
        <time>2021-03-21T11:24:53.000Z</time>
      </trkpt>
      <trkpt lat="44.98123" lon="6.03323">
        <ele>2885.8000488281</ele>
        <time>2021-03-21T11:24:54.000Z</time>
      </trkpt>
      <trkpt lat="44.98123" lon="6.03323">
        <ele>2885.6000976562</ele>
        <time>2021-03-21T11:24:55.000Z</time>
      </trkpt>
      <trkpt lat="44.98123" lon="6.03323">
        <ele>2885.6000976562</ele>
        <time>2021-03-21T11:24:56.000Z</time>
      </trkpt>
      <trkpt lat="44.98123" lon="6.03324">
        <ele>2885.6000976562</ele>
        <time>2021-03-21T11:24:57.000Z</time>
      </trkpt>
      <trkpt lat="44.98123" lon="6.03323">
        <ele>2885.8000488281</ele>
        <time>2021-03-21T11:24:58.000Z</time>
      </trkpt>
      <trkpt lat="44.98123" lon="6.03323">
        <ele>2885.6000976562</ele>
        <time>2021-03-21T11:24:59.000Z</time>
      </trkpt>
      <trkpt lat="44.98123" lon="6.03324">
        <ele>2885.6000976562</ele>
        <time>2021-03-21T11:25:00.000Z</time>
      </trkpt>
      <trkpt lat="44.98123" lon="6.03324">
        <ele>2885.6000976562</ele>
        <time>2021-03-21T11:25:01.000Z</time>
      </trkpt>
      <trkpt lat="44.98123" lon="6.03324">
        <ele>2885.6000976562</ele>
        <time>2021-03-21T11:25:02.000Z</time>
      </trkpt>
      <trkpt lat="44.98123" lon="6.03324">
        <ele>2885.6000976562</ele>
        <time>2021-03-21T11:25:03.000Z</time>
      </trkpt>
      <trkpt lat="44.98123" lon="6.03324">
        <ele>2885.8000488281</ele>
        <time>2021-03-21T11:25:04.000Z</time>
      </trkpt>
      <trkpt lat="44.98123" lon="6.03324">
        <ele>2885.6000976562</ele>
        <time>2021-03-21T11:25:05.000Z</time>
      </trkpt>
      <trkpt lat="44.98123" lon="6.03324">
        <ele>2885.6000976562</ele>
        <time>2021-03-21T11:25:06.000Z</time>
      </trkpt>
      <trkpt lat="44.98123" lon="6.03324">
        <ele>2885.6000976562</ele>
        <time>2021-03-21T11:25:07.000Z</time>
      </trkpt>
      <trkpt lat="44.98123" lon="6.03323">
        <ele>2885.6000976562</ele>
        <time>2021-03-21T11:25:08.000Z</time>
      </trkpt>
      <trkpt lat="44.98123" lon="6.03324">
        <ele>2885.6000976562</ele>
        <time>2021-03-21T11:25:09.000Z</time>
      </trkpt>
      <trkpt lat="44.98123" lon="6.03323">
        <ele>2885.8000488281</ele>
        <time>2021-03-21T11:25:10.000Z</time>
      </trkpt>
      <trkpt lat="44.98123" lon="6.03323">
        <ele>2885.8000488281</ele>
        <time>2021-03-21T11:25:11.000Z</time>
      </trkpt>
      <trkpt lat="44.98123" lon="6.03323">
        <ele>2885.8000488281</ele>
        <time>2021-03-21T11:25:12.000Z</time>
      </trkpt>
      <trkpt lat="44.98123" lon="6.03323">
        <ele>2885.8000488281</ele>
        <time>2021-03-21T11:25:13.000Z</time>
      </trkpt>
      <trkpt lat="44.98123" lon="6.03323">
        <ele>2885.8000488281</ele>
        <time>2021-03-21T11:25:14.000Z</time>
      </trkpt>
      <trkpt lat="44.98123" lon="6.03323">
        <ele>2885.8000488281</ele>
        <time>2021-03-21T11:25:15.000Z</time>
      </trkpt>
      <trkpt lat="44.98123" lon="6.03323">
        <ele>2885.8000488281</ele>
        <time>2021-03-21T11:25:16.000Z</time>
      </trkpt>
      <trkpt lat="44.98123" lon="6.03323">
        <ele>2885.8000488281</ele>
        <time>2021-03-21T11:25:17.000Z</time>
      </trkpt>
      <trkpt lat="44.98123" lon="6.03323">
        <ele>2885.8000488281</ele>
        <time>2021-03-21T11:25:18.000Z</time>
      </trkpt>
      <trkpt lat="44.98123" lon="6.03323">
        <ele>2885.8000488281</ele>
        <time>2021-03-21T11:25:19.000Z</time>
      </trkpt>
      <trkpt lat="44.98123" lon="6.03323">
        <ele>2885.8000488281</ele>
        <time>2021-03-21T11:25:20.000Z</time>
      </trkpt>
      <trkpt lat="44.98123" lon="6.03323">
        <ele>2885.8000488281</ele>
        <time>2021-03-21T11:25:21.000Z</time>
      </trkpt>
      <trkpt lat="44.98123" lon="6.03323">
        <ele>2885.8000488281</ele>
        <time>2021-03-21T11:25:22.000Z</time>
      </trkpt>
      <trkpt lat="44.98123" lon="6.03323">
        <ele>2885.8000488281</ele>
        <time>2021-03-21T11:25:23.000Z</time>
      </trkpt>
      <trkpt lat="44.98123" lon="6.03323">
        <ele>2885.8000488281</ele>
        <time>2021-03-21T11:25:24.000Z</time>
      </trkpt>
      <trkpt lat="44.98123" lon="6.03323">
        <ele>2885.6000976562</ele>
        <time>2021-03-21T11:25:25.000Z</time>
      </trkpt>
      <trkpt lat="44.98123" lon="6.03323">
        <ele>2885.6000976562</ele>
        <time>2021-03-21T11:25:26.000Z</time>
      </trkpt>
      <trkpt lat="44.98122" lon="6.03323">
        <ele>2885.6000976562</ele>
        <time>2021-03-21T11:25:27.000Z</time>
      </trkpt>
      <trkpt lat="44.98122" lon="6.03323">
        <ele>2885.6000976562</ele>
        <time>2021-03-21T11:25:28.000Z</time>
      </trkpt>
      <trkpt lat="44.98122" lon="6.03324">
        <ele>2885.6000976562</ele>
        <time>2021-03-21T11:25:29.000Z</time>
      </trkpt>
      <trkpt lat="44.98122" lon="6.03324">
        <ele>2885.6000976562</ele>
        <time>2021-03-21T11:25:30.000Z</time>
      </trkpt>
      <trkpt lat="44.98122" lon="6.03324">
        <ele>2885.6000976562</ele>
        <time>2021-03-21T11:25:31.000Z</time>
      </trkpt>
      <trkpt lat="44.98122" lon="6.03324">
        <ele>2885.6000976562</ele>
        <time>2021-03-21T11:25:32.000Z</time>
      </trkpt>
      <trkpt lat="44.98122" lon="6.03324">
        <ele>2885.6000976562</ele>
        <time>2021-03-21T11:25:33.000Z</time>
      </trkpt>
      <trkpt lat="44.98122" lon="6.03323">
        <ele>2885.6000976562</ele>
        <time>2021-03-21T11:25:34.000Z</time>
      </trkpt>
      <trkpt lat="44.98122" lon="6.03323">
        <ele>2885.6000976562</ele>
        <time>2021-03-21T11:25:35.000Z</time>
      </trkpt>
      <trkpt lat="44.98122" lon="6.03323">
        <ele>2885.6000976562</ele>
        <time>2021-03-21T11:25:36.000Z</time>
      </trkpt>
      <trkpt lat="44.98122" lon="6.03324">
        <ele>2885.6000976562</ele>
        <time>2021-03-21T11:25:37.000Z</time>
      </trkpt>
      <trkpt lat="44.98122" lon="6.03324">
        <ele>2885.6000976562</ele>
        <time>2021-03-21T11:25:38.000Z</time>
      </trkpt>
      <trkpt lat="44.98122" lon="6.03324">
        <ele>2885.6000976562</ele>
        <time>2021-03-21T11:25:39.000Z</time>
      </trkpt>
      <trkpt lat="44.98122" lon="6.03324">
        <ele>2885.6000976562</ele>
        <time>2021-03-21T11:25:40.000Z</time>
      </trkpt>
      <trkpt lat="44.98122" lon="6.03324">
        <ele>2885.6000976562</ele>
        <time>2021-03-21T11:25:41.000Z</time>
      </trkpt>
      <trkpt lat="44.98122" lon="6.03324">
        <ele>2885.6000976562</ele>
        <time>2021-03-21T11:25:42.000Z</time>
      </trkpt>
      <trkpt lat="44.98122" lon="6.03323">
        <ele>2885.6000976562</ele>
        <time>2021-03-21T11:25:43.000Z</time>
      </trkpt>
      <trkpt lat="44.98122" lon="6.03323">
        <ele>2885.6000976562</ele>
        <time>2021-03-21T11:25:44.000Z</time>
      </trkpt>
      <trkpt lat="44.98122" lon="6.03323">
        <ele>2885.8000488281</ele>
        <time>2021-03-21T11:25:45.000Z</time>
      </trkpt>
      <trkpt lat="44.98122" lon="6.03323">
        <ele>2885.8000488281</ele>
        <time>2021-03-21T11:25:46.000Z</time>
      </trkpt>
      <trkpt lat="44.98122" lon="6.03323">
        <ele>2885.8000488281</ele>
        <time>2021-03-21T11:25:47.000Z</time>
      </trkpt>
      <trkpt lat="44.98122" lon="6.03323">
        <ele>2885.6000976562</ele>
        <time>2021-03-21T11:25:48.000Z</time>
      </trkpt>
      <trkpt lat="44.98122" lon="6.03323">
        <ele>2885.6000976562</ele>
        <time>2021-03-21T11:25:49.000Z</time>
      </trkpt>
      <trkpt lat="44.98122" lon="6.03323">
        <ele>2885.6000976562</ele>
        <time>2021-03-21T11:25:50.000Z</time>
      </trkpt>
      <trkpt lat="44.98122" lon="6.03323">
        <ele>2885.8000488281</ele>
        <time>2021-03-21T11:25:51.000Z</time>
      </trkpt>
      <trkpt lat="44.98122" lon="6.03323">
        <ele>2885.8000488281</ele>
        <time>2021-03-21T11:25:52.000Z</time>
      </trkpt>
      <trkpt lat="44.98122" lon="6.03323">
        <ele>2885.6000976562</ele>
        <time>2021-03-21T11:25:53.000Z</time>
      </trkpt>
      <trkpt lat="44.98122" lon="6.03323">
        <ele>2885.6000976562</ele>
        <time>2021-03-21T11:25:54.000Z</time>
      </trkpt>
      <trkpt lat="44.98122" lon="6.03323">
        <ele>2885.6000976562</ele>
        <time>2021-03-21T11:25:55.000Z</time>
      </trkpt>
      <trkpt lat="44.98122" lon="6.03323">
        <ele>2885.6000976562</ele>
        <time>2021-03-21T11:25:56.000Z</time>
      </trkpt>
      <trkpt lat="44.98122" lon="6.03323">
        <ele>2885.6000976562</ele>
        <time>2021-03-21T11:25:57.000Z</time>
      </trkpt>
      <trkpt lat="44.98122" lon="6.03323">
        <ele>2885.6000976562</ele>
        <time>2021-03-21T11:25:58.000Z</time>
      </trkpt>
      <trkpt lat="44.98122" lon="6.03324">
        <ele>2885.6000976562</ele>
        <time>2021-03-21T11:25:59.000Z</time>
      </trkpt>
      <trkpt lat="44.98122" lon="6.03324">
        <ele>2885.6000976562</ele>
        <time>2021-03-21T11:26:00.000Z</time>
      </trkpt>
      <trkpt lat="44.98122" lon="6.03324">
        <ele>2885.6000976562</ele>
        <time>2021-03-21T11:26:01.000Z</time>
      </trkpt>
      <trkpt lat="44.98122" lon="6.03324">
        <ele>2885.6000976562</ele>
        <time>2021-03-21T11:26:02.000Z</time>
      </trkpt>
      <trkpt lat="44.98122" lon="6.03324">
        <ele>2885.6000976562</ele>
        <time>2021-03-21T11:26:03.000Z</time>
      </trkpt>
      <trkpt lat="44.98123" lon="6.03323">
        <ele>2885.8000488281</ele>
        <time>2021-03-21T11:26:04.000Z</time>
      </trkpt>
      <trkpt lat="44.98122" lon="6.03323">
        <ele>2885.8000488281</ele>
        <time>2021-03-21T11:26:05.000Z</time>
      </trkpt>
      <trkpt lat="44.98122" lon="6.03323">
        <ele>2885.8000488281</ele>
        <time>2021-03-21T11:26:06.000Z</time>
      </trkpt>
      <trkpt lat="44.98122" lon="6.03323">
        <ele>2885.8000488281</ele>
        <time>2021-03-21T11:26:07.000Z</time>
      </trkpt>
      <trkpt lat="44.98122" lon="6.03323">
        <ele>2885.8000488281</ele>
        <time>2021-03-21T11:26:08.000Z</time>
      </trkpt>
      <trkpt lat="44.98122" lon="6.03323">
        <ele>2885.8000488281</ele>
        <time>2021-03-21T11:26:09.000Z</time>
      </trkpt>
      <trkpt lat="44.98122" lon="6.03323">
        <ele>2885.8000488281</ele>
        <time>2021-03-21T11:26:10.000Z</time>
      </trkpt>
      <trkpt lat="44.98122" lon="6.03323">
        <ele>2885.8000488281</ele>
        <time>2021-03-21T11:26:11.000Z</time>
      </trkpt>
      <trkpt lat="44.98122" lon="6.03323">
        <ele>2885.8000488281</ele>
        <time>2021-03-21T11:26:12.000Z</time>
      </trkpt>
      <trkpt lat="44.98122" lon="6.03323">
        <ele>2885.8000488281</ele>
        <time>2021-03-21T11:26:13.000Z</time>
      </trkpt>
      <trkpt lat="44.98122" lon="6.03323">
        <ele>2885.8000488281</ele>
        <time>2021-03-21T11:26:14.000Z</time>
      </trkpt>
      <trkpt lat="44.98122" lon="6.03323">
        <ele>2885.6000976562</ele>
        <time>2021-03-21T11:26:15.000Z</time>
      </trkpt>
      <trkpt lat="44.98122" lon="6.03323">
        <ele>2885.8000488281</ele>
        <time>2021-03-21T11:26:16.000Z</time>
      </trkpt>
      <trkpt lat="44.98122" lon="6.03323">
        <ele>2885.8000488281</ele>
        <time>2021-03-21T11:26:17.000Z</time>
      </trkpt>
      <trkpt lat="44.98122" lon="6.03323">
        <ele>2885.8000488281</ele>
        <time>2021-03-21T11:26:18.000Z</time>
      </trkpt>
      <trkpt lat="44.98122" lon="6.03323">
        <ele>2885.8000488281</ele>
        <time>2021-03-21T11:26:19.000Z</time>
      </trkpt>
      <trkpt lat="44.98122" lon="6.03323">
        <ele>2885.6000976562</ele>
        <time>2021-03-21T11:26:20.000Z</time>
      </trkpt>
      <trkpt lat="44.98122" lon="6.03323">
        <ele>2885.8000488281</ele>
        <time>2021-03-21T11:26:21.000Z</time>
      </trkpt>
      <trkpt lat="44.98122" lon="6.03323">
        <ele>2885.8000488281</ele>
        <time>2021-03-21T11:26:22.000Z</time>
      </trkpt>
      <trkpt lat="44.98122" lon="6.03323">
        <ele>2885.8000488281</ele>
        <time>2021-03-21T11:26:23.000Z</time>
      </trkpt>
      <trkpt lat="44.98122" lon="6.03323">
        <ele>2885.8000488281</ele>
        <time>2021-03-21T11:26:24.000Z</time>
      </trkpt>
      <trkpt lat="44.98122" lon="6.03323">
        <ele>2885.8000488281</ele>
        <time>2021-03-21T11:26:25.000Z</time>
      </trkpt>
      <trkpt lat="44.98122" lon="6.03323">
        <ele>2885.8000488281</ele>
        <time>2021-03-21T11:26:26.000Z</time>
      </trkpt>
      <trkpt lat="44.98122" lon="6.03323">
        <ele>2885.8000488281</ele>
        <time>2021-03-21T11:26:27.000Z</time>
      </trkpt>
      <trkpt lat="44.98122" lon="6.03323">
        <ele>2885.8000488281</ele>
        <time>2021-03-21T11:26:28.000Z</time>
      </trkpt>
      <trkpt lat="44.98122" lon="6.03323">
        <ele>2885.8000488281</ele>
        <time>2021-03-21T11:26:29.000Z</time>
      </trkpt>
      <trkpt lat="44.98122" lon="6.03323">
        <ele>2885.8000488281</ele>
        <time>2021-03-21T11:26:30.000Z</time>
      </trkpt>
      <trkpt lat="44.98122" lon="6.03323">
        <ele>2885.8000488281</ele>
        <time>2021-03-21T11:26:31.000Z</time>
      </trkpt>
      <trkpt lat="44.98122" lon="6.03323">
        <ele>2885.8000488281</ele>
        <time>2021-03-21T11:26:32.000Z</time>
      </trkpt>
      <trkpt lat="44.98122" lon="6.03323">
        <ele>2885.8000488281</ele>
        <time>2021-03-21T11:26:33.000Z</time>
      </trkpt>
      <trkpt lat="44.98122" lon="6.03323">
        <ele>2885.8000488281</ele>
        <time>2021-03-21T11:26:34.000Z</time>
      </trkpt>
      <trkpt lat="44.98122" lon="6.03323">
        <ele>2885.6000976562</ele>
        <time>2021-03-21T11:26:35.000Z</time>
      </trkpt>
      <trkpt lat="44.98122" lon="6.03323">
        <ele>2885.6000976562</ele>
        <time>2021-03-21T11:26:36.000Z</time>
      </trkpt>
      <trkpt lat="44.98122" lon="6.03323">
        <ele>2885.6000976562</ele>
        <time>2021-03-21T11:26:37.000Z</time>
      </trkpt>
      <trkpt lat="44.98122" lon="6.03323">
        <ele>2885.8000488281</ele>
        <time>2021-03-21T11:26:38.000Z</time>
      </trkpt>
      <trkpt lat="44.98122" lon="6.03323">
        <ele>2885.6000976562</ele>
        <time>2021-03-21T11:26:39.000Z</time>
      </trkpt>
      <trkpt lat="44.98122" lon="6.03323">
        <ele>2885.6000976562</ele>
        <time>2021-03-21T11:26:40.000Z</time>
      </trkpt>
      <trkpt lat="44.98122" lon="6.03323">
        <ele>2885.8000488281</ele>
        <time>2021-03-21T11:26:41.000Z</time>
      </trkpt>
      <trkpt lat="44.98122" lon="6.03323">
        <ele>2885.8000488281</ele>
        <time>2021-03-21T11:26:42.000Z</time>
      </trkpt>
      <trkpt lat="44.98122" lon="6.03323">
        <ele>2885.8000488281</ele>
        <time>2021-03-21T11:26:43.000Z</time>
      </trkpt>
      <trkpt lat="44.98122" lon="6.03324">
        <ele>2885.6000976562</ele>
        <time>2021-03-21T11:26:44.000Z</time>
      </trkpt>
      <trkpt lat="44.98122" lon="6.03324">
        <ele>2885.6000976562</ele>
        <time>2021-03-21T11:26:45.000Z</time>
      </trkpt>
      <trkpt lat="44.98123" lon="6.03324">
        <ele>2885.6000976562</ele>
        <time>2021-03-21T11:26:46.000Z</time>
      </trkpt>
      <trkpt lat="44.98123" lon="6.03324">
        <ele>2885.3999023438</ele>
        <time>2021-03-21T11:26:47.000Z</time>
      </trkpt>
      <trkpt lat="44.98123" lon="6.03324">
        <ele>2885.3999023438</ele>
        <time>2021-03-21T11:26:48.000Z</time>
      </trkpt>
      <trkpt lat="44.98123" lon="6.03324">
        <ele>2885.3999023438</ele>
        <time>2021-03-21T11:26:49.000Z</time>
      </trkpt>
      <trkpt lat="44.98123" lon="6.03324">
        <ele>2885.3999023438</ele>
        <time>2021-03-21T11:26:50.000Z</time>
      </trkpt>
      <trkpt lat="44.98123" lon="6.03324">
        <ele>2885.3999023438</ele>
        <time>2021-03-21T11:26:51.000Z</time>
      </trkpt>
      <trkpt lat="44.98122" lon="6.03324">
        <ele>2885.3999023438</ele>
        <time>2021-03-21T11:26:52.000Z</time>
      </trkpt>
      <trkpt lat="44.98123" lon="6.03324">
        <ele>2885.3999023438</ele>
        <time>2021-03-21T11:26:53.000Z</time>
      </trkpt>
      <trkpt lat="44.98123" lon="6.03324">
        <ele>2885.3999023438</ele>
        <time>2021-03-21T11:26:54.000Z</time>
      </trkpt>
      <trkpt lat="44.98122" lon="6.03324">
        <ele>2885.3999023438</ele>
        <time>2021-03-21T11:26:55.000Z</time>
      </trkpt>
      <trkpt lat="44.98123" lon="6.03324">
        <ele>2885.3999023438</ele>
        <time>2021-03-21T11:26:56.000Z</time>
      </trkpt>
      <trkpt lat="44.98123" lon="6.03324">
        <ele>2885.3999023438</ele>
        <time>2021-03-21T11:26:57.000Z</time>
      </trkpt>
      <trkpt lat="44.98123" lon="6.03324">
        <ele>2885.3999023438</ele>
        <time>2021-03-21T11:26:58.000Z</time>
      </trkpt>
      <trkpt lat="44.98123" lon="6.03324">
        <ele>2885.3999023438</ele>
        <time>2021-03-21T11:26:59.000Z</time>
      </trkpt>
      <trkpt lat="44.98123" lon="6.03324">
        <ele>2885.3999023438</ele>
        <time>2021-03-21T11:27:00.000Z</time>
      </trkpt>
      <trkpt lat="44.98123" lon="6.03324">
        <ele>2885.3999023438</ele>
        <time>2021-03-21T11:27:01.000Z</time>
      </trkpt>
      <trkpt lat="44.98122" lon="6.03324">
        <ele>2885.3999023438</ele>
        <time>2021-03-21T11:27:02.000Z</time>
      </trkpt>
      <trkpt lat="44.98122" lon="6.03324">
        <ele>2885.3999023438</ele>
        <time>2021-03-21T11:27:03.000Z</time>
      </trkpt>
      <trkpt lat="44.98122" lon="6.03324">
        <ele>2885.3999023438</ele>
        <time>2021-03-21T11:27:04.000Z</time>
      </trkpt>
      <trkpt lat="44.98122" lon="6.03324">
        <ele>2885.3999023438</ele>
        <time>2021-03-21T11:27:05.000Z</time>
      </trkpt>
      <trkpt lat="44.98122" lon="6.03324">
        <ele>2885.3999023438</ele>
        <time>2021-03-21T11:27:06.000Z</time>
      </trkpt>
      <trkpt lat="44.98122" lon="6.03324">
        <ele>2885.3999023438</ele>
        <time>2021-03-21T11:27:07.000Z</time>
      </trkpt>
      <trkpt lat="44.98121" lon="6.03324">
        <ele>2885.1999511719</ele>
        <time>2021-03-21T11:27:08.000Z</time>
      </trkpt>
      <trkpt lat="44.98121" lon="6.03325">
        <ele>2885</ele>
        <time>2021-03-21T11:27:09.000Z</time>
      </trkpt>
      <trkpt lat="44.98121" lon="6.03325">
        <ele>2885</ele>
        <time>2021-03-21T11:27:10.000Z</time>
      </trkpt>
      <trkpt lat="44.98121" lon="6.03325">
        <ele>2885</ele>
        <time>2021-03-21T11:27:11.000Z</time>
      </trkpt>
      <trkpt lat="44.98121" lon="6.03325">
        <ele>2885</ele>
        <time>2021-03-21T11:27:12.000Z</time>
      </trkpt>
      <trkpt lat="44.98121" lon="6.03325">
        <ele>2885</ele>
        <time>2021-03-21T11:27:13.000Z</time>
      </trkpt>
      <trkpt lat="44.98122" lon="6.03325">
        <ele>2885</ele>
        <time>2021-03-21T11:27:14.000Z</time>
      </trkpt>
      <trkpt lat="44.98122" lon="6.03325">
        <ele>2885</ele>
        <time>2021-03-21T11:27:15.000Z</time>
      </trkpt>
      <trkpt lat="44.98122" lon="6.03325">
        <ele>2885</ele>
        <time>2021-03-21T11:27:16.000Z</time>
      </trkpt>
      <trkpt lat="44.98122" lon="6.03325">
        <ele>2885</ele>
        <time>2021-03-21T11:27:17.000Z</time>
      </trkpt>
      <trkpt lat="44.98122" lon="6.03325">
        <ele>2885</ele>
        <time>2021-03-21T11:27:18.000Z</time>
      </trkpt>
      <trkpt lat="44.98122" lon="6.03325">
        <ele>2885</ele>
        <time>2021-03-21T11:27:19.000Z</time>
      </trkpt>
      <trkpt lat="44.98122" lon="6.03325">
        <ele>2885</ele>
        <time>2021-03-21T11:27:20.000Z</time>
      </trkpt>
      <trkpt lat="44.98122" lon="6.03325">
        <ele>2885</ele>
        <time>2021-03-21T11:27:21.000Z</time>
      </trkpt>
      <trkpt lat="44.98122" lon="6.03325">
        <ele>2885</ele>
        <time>2021-03-21T11:27:22.000Z</time>
      </trkpt>
      <trkpt lat="44.98122" lon="6.03325">
        <ele>2885</ele>
        <time>2021-03-21T11:27:23.000Z</time>
      </trkpt>
      <trkpt lat="44.98122" lon="6.03325">
        <ele>2885</ele>
        <time>2021-03-21T11:27:24.000Z</time>
      </trkpt>
      <trkpt lat="44.98122" lon="6.03325">
        <ele>2885.1999511719</ele>
        <time>2021-03-21T11:27:25.000Z</time>
      </trkpt>
      <trkpt lat="44.98122" lon="6.03325">
        <ele>2885.1999511719</ele>
        <time>2021-03-21T11:27:26.000Z</time>
      </trkpt>
      <trkpt lat="44.98122" lon="6.03324">
        <ele>2885.1999511719</ele>
        <time>2021-03-21T11:27:27.000Z</time>
      </trkpt>
      <trkpt lat="44.98122" lon="6.03325">
        <ele>2885.1999511719</ele>
        <time>2021-03-21T11:27:28.000Z</time>
      </trkpt>
      <trkpt lat="44.98122" lon="6.03324">
        <ele>2885.1999511719</ele>
        <time>2021-03-21T11:27:29.000Z</time>
      </trkpt>
      <trkpt lat="44.98122" lon="6.03324">
        <ele>2885.1999511719</ele>
        <time>2021-03-21T11:27:30.000Z</time>
      </trkpt>
      <trkpt lat="44.98122" lon="6.03324">
        <ele>2885.1999511719</ele>
        <time>2021-03-21T11:27:31.000Z</time>
      </trkpt>
      <trkpt lat="44.98121" lon="6.03324">
        <ele>2885.1999511719</ele>
        <time>2021-03-21T11:27:32.000Z</time>
      </trkpt>
      <trkpt lat="44.98121" lon="6.03324">
        <ele>2885.1999511719</ele>
        <time>2021-03-21T11:27:33.000Z</time>
      </trkpt>
      <trkpt lat="44.98122" lon="6.03324">
        <ele>2885.1999511719</ele>
        <time>2021-03-21T11:27:34.000Z</time>
      </trkpt>
      <trkpt lat="44.98122" lon="6.03324">
        <ele>2885.3999023438</ele>
        <time>2021-03-21T11:27:35.000Z</time>
      </trkpt>
      <trkpt lat="44.98122" lon="6.03324">
        <ele>2885.3999023438</ele>
        <time>2021-03-21T11:27:36.000Z</time>
      </trkpt>
      <trkpt lat="44.98122" lon="6.03324">
        <ele>2885.3999023438</ele>
        <time>2021-03-21T11:27:37.000Z</time>
      </trkpt>
      <trkpt lat="44.98122" lon="6.03324">
        <ele>2885.3999023438</ele>
        <time>2021-03-21T11:27:38.000Z</time>
      </trkpt>
      <trkpt lat="44.98122" lon="6.03324">
        <ele>2885.3999023438</ele>
        <time>2021-03-21T11:27:39.000Z</time>
      </trkpt>
      <trkpt lat="44.98122" lon="6.03324">
        <ele>2885.3999023438</ele>
        <time>2021-03-21T11:27:40.000Z</time>
      </trkpt>
      <trkpt lat="44.98122" lon="6.03324">
        <ele>2885.3999023438</ele>
        <time>2021-03-21T11:27:41.000Z</time>
      </trkpt>
      <trkpt lat="44.98122" lon="6.03324">
        <ele>2885.3999023438</ele>
        <time>2021-03-21T11:27:42.000Z</time>
      </trkpt>
      <trkpt lat="44.98122" lon="6.03324">
        <ele>2885.3999023438</ele>
        <time>2021-03-21T11:27:43.000Z</time>
      </trkpt>
      <trkpt lat="44.98122" lon="6.03324">
        <ele>2885.3999023438</ele>
        <time>2021-03-21T11:27:44.000Z</time>
      </trkpt>
      <trkpt lat="44.98122" lon="6.03324">
        <ele>2885.3999023438</ele>
        <time>2021-03-21T11:27:45.000Z</time>
      </trkpt>
      <trkpt lat="44.98122" lon="6.03324">
        <ele>2885.3999023438</ele>
        <time>2021-03-21T11:27:46.000Z</time>
      </trkpt>
      <trkpt lat="44.98122" lon="6.03324">
        <ele>2885.3999023438</ele>
        <time>2021-03-21T11:27:47.000Z</time>
      </trkpt>
      <trkpt lat="44.98122" lon="6.03324">
        <ele>2885.3999023438</ele>
        <time>2021-03-21T11:27:48.000Z</time>
      </trkpt>
      <trkpt lat="44.98122" lon="6.03324">
        <ele>2885.3999023438</ele>
        <time>2021-03-21T11:27:49.000Z</time>
      </trkpt>
      <trkpt lat="44.98122" lon="6.03324">
        <ele>2885.3999023438</ele>
        <time>2021-03-21T11:27:50.000Z</time>
      </trkpt>
      <trkpt lat="44.98122" lon="6.03324">
        <ele>2885.1999511719</ele>
        <time>2021-03-21T11:27:51.000Z</time>
      </trkpt>
      <trkpt lat="44.98122" lon="6.03324">
        <ele>2885.3999023438</ele>
        <time>2021-03-21T11:27:52.000Z</time>
      </trkpt>
      <trkpt lat="44.98122" lon="6.03324">
        <ele>2885.3999023438</ele>
        <time>2021-03-21T11:27:53.000Z</time>
      </trkpt>
      <trkpt lat="44.98122" lon="6.03324">
        <ele>2885.3999023438</ele>
        <time>2021-03-21T11:27:54.000Z</time>
      </trkpt>
      <trkpt lat="44.98122" lon="6.03324">
        <ele>2885.3999023438</ele>
        <time>2021-03-21T11:27:55.000Z</time>
      </trkpt>
      <trkpt lat="44.98122" lon="6.03324">
        <ele>2885.1999511719</ele>
        <time>2021-03-21T11:27:56.000Z</time>
      </trkpt>
      <trkpt lat="44.98122" lon="6.03324">
        <ele>2885.1999511719</ele>
        <time>2021-03-21T11:27:57.000Z</time>
      </trkpt>
      <trkpt lat="44.98122" lon="6.03324">
        <ele>2885.1999511719</ele>
        <time>2021-03-21T11:27:58.000Z</time>
      </trkpt>
      <trkpt lat="44.98122" lon="6.03324">
        <ele>2885.1999511719</ele>
        <time>2021-03-21T11:27:59.000Z</time>
      </trkpt>
      <trkpt lat="44.98122" lon="6.03324">
        <ele>2885.1999511719</ele>
        <time>2021-03-21T11:28:00.000Z</time>
      </trkpt>
      <trkpt lat="44.98122" lon="6.03324">
        <ele>2885.1999511719</ele>
        <time>2021-03-21T11:28:01.000Z</time>
      </trkpt>
      <trkpt lat="44.98122" lon="6.03324">
        <ele>2885.1999511719</ele>
        <time>2021-03-21T11:28:02.000Z</time>
      </trkpt>
      <trkpt lat="44.98122" lon="6.03324">
        <ele>2885.1999511719</ele>
        <time>2021-03-21T11:28:03.000Z</time>
      </trkpt>
      <trkpt lat="44.98122" lon="6.03325">
        <ele>2885</ele>
        <time>2021-03-21T11:28:04.000Z</time>
      </trkpt>
      <trkpt lat="44.98122" lon="6.03325">
        <ele>2885</ele>
        <time>2021-03-21T11:28:05.000Z</time>
      </trkpt>
      <trkpt lat="44.98122" lon="6.03325">
        <ele>2885</ele>
        <time>2021-03-21T11:28:06.000Z</time>
      </trkpt>
      <trkpt lat="44.98122" lon="6.03325">
        <ele>2885</ele>
        <time>2021-03-21T11:28:07.000Z</time>
      </trkpt>
      <trkpt lat="44.98122" lon="6.03325">
        <ele>2885</ele>
        <time>2021-03-21T11:28:08.000Z</time>
      </trkpt>
      <trkpt lat="44.98122" lon="6.03325">
        <ele>2885</ele>
        <time>2021-03-21T11:28:09.000Z</time>
      </trkpt>
      <trkpt lat="44.98122" lon="6.03325">
        <ele>2885</ele>
        <time>2021-03-21T11:28:10.000Z</time>
      </trkpt>
      <trkpt lat="44.98122" lon="6.03325">
        <ele>2885</ele>
        <time>2021-03-21T11:28:11.000Z</time>
      </trkpt>
      <trkpt lat="44.98122" lon="6.03325">
        <ele>2885</ele>
        <time>2021-03-21T11:28:12.000Z</time>
      </trkpt>
      <trkpt lat="44.98122" lon="6.03325">
        <ele>2885</ele>
        <time>2021-03-21T11:28:13.000Z</time>
      </trkpt>
      <trkpt lat="44.98122" lon="6.03325">
        <ele>2884.8000488281</ele>
        <time>2021-03-21T11:28:14.000Z</time>
      </trkpt>
      <trkpt lat="44.98122" lon="6.03325">
        <ele>2885</ele>
        <time>2021-03-21T11:28:15.000Z</time>
      </trkpt>
      <trkpt lat="44.98122" lon="6.03325">
        <ele>2885</ele>
        <time>2021-03-21T11:28:16.000Z</time>
      </trkpt>
      <trkpt lat="44.98122" lon="6.03325">
        <ele>2885</ele>
        <time>2021-03-21T11:28:17.000Z</time>
      </trkpt>
      <trkpt lat="44.98122" lon="6.03325">
        <ele>2885</ele>
        <time>2021-03-21T11:28:18.000Z</time>
      </trkpt>
      <trkpt lat="44.98122" lon="6.03325">
        <ele>2885</ele>
        <time>2021-03-21T11:28:19.000Z</time>
      </trkpt>
      <trkpt lat="44.98122" lon="6.03325">
        <ele>2885</ele>
        <time>2021-03-21T11:28:20.000Z</time>
      </trkpt>
      <trkpt lat="44.98122" lon="6.03325">
        <ele>2885</ele>
        <time>2021-03-21T11:28:21.000Z</time>
      </trkpt>
      <trkpt lat="44.98122" lon="6.03325">
        <ele>2885.1999511719</ele>
        <time>2021-03-21T11:28:22.000Z</time>
      </trkpt>
      <trkpt lat="44.98122" lon="6.03325">
        <ele>2885.1999511719</ele>
        <time>2021-03-21T11:28:23.000Z</time>
      </trkpt>
      <trkpt lat="44.98122" lon="6.03325">
        <ele>2885</ele>
        <time>2021-03-21T11:28:24.000Z</time>
      </trkpt>
      <trkpt lat="44.98122" lon="6.03325">
        <ele>2885</ele>
        <time>2021-03-21T11:28:25.000Z</time>
      </trkpt>
      <trkpt lat="44.98122" lon="6.03325">
        <ele>2885.1999511719</ele>
        <time>2021-03-21T11:28:26.000Z</time>
      </trkpt>
      <trkpt lat="44.98122" lon="6.03325">
        <ele>2885.1999511719</ele>
        <time>2021-03-21T11:28:27.000Z</time>
      </trkpt>
      <trkpt lat="44.98122" lon="6.03324">
        <ele>2885.1999511719</ele>
        <time>2021-03-21T11:28:28.000Z</time>
      </trkpt>
      <trkpt lat="44.98122" lon="6.03324">
        <ele>2885.1999511719</ele>
        <time>2021-03-21T11:28:29.000Z</time>
      </trkpt>
      <trkpt lat="44.98122" lon="6.03324">
        <ele>2885.3999023438</ele>
        <time>2021-03-21T11:28:30.000Z</time>
      </trkpt>
      <trkpt lat="44.98122" lon="6.03324">
        <ele>2885.1999511719</ele>
        <time>2021-03-21T11:28:31.000Z</time>
      </trkpt>
      <trkpt lat="44.98121" lon="6.03324">
        <ele>2885.1999511719</ele>
        <time>2021-03-21T11:28:32.000Z</time>
      </trkpt>
      <trkpt lat="44.98121" lon="6.03324">
        <ele>2885.1999511719</ele>
        <time>2021-03-21T11:28:33.000Z</time>
      </trkpt>
      <trkpt lat="44.98121" lon="6.03324">
        <ele>2885.1999511719</ele>
        <time>2021-03-21T11:28:34.000Z</time>
      </trkpt>
      <trkpt lat="44.98121" lon="6.03324">
        <ele>2885.1999511719</ele>
        <time>2021-03-21T11:28:35.000Z</time>
      </trkpt>
      <trkpt lat="44.98122" lon="6.03324">
        <ele>2885.1999511719</ele>
        <time>2021-03-21T11:28:36.000Z</time>
      </trkpt>
      <trkpt lat="44.98122" lon="6.03324">
        <ele>2885.1999511719</ele>
        <time>2021-03-21T11:28:37.000Z</time>
      </trkpt>
      <trkpt lat="44.98122" lon="6.03324">
        <ele>2885.1999511719</ele>
        <time>2021-03-21T11:28:38.000Z</time>
      </trkpt>
      <trkpt lat="44.98122" lon="6.03324">
        <ele>2885.3999023438</ele>
        <time>2021-03-21T11:28:39.000Z</time>
      </trkpt>
      <trkpt lat="44.98122" lon="6.03324">
        <ele>2885.3999023438</ele>
        <time>2021-03-21T11:28:40.000Z</time>
      </trkpt>
      <trkpt lat="44.98122" lon="6.03324">
        <ele>2885.3999023438</ele>
        <time>2021-03-21T11:28:41.000Z</time>
      </trkpt>
      <trkpt lat="44.98122" lon="6.03324">
        <ele>2885.3999023438</ele>
        <time>2021-03-21T11:28:42.000Z</time>
      </trkpt>
      <trkpt lat="44.98122" lon="6.03324">
        <ele>2885.3999023438</ele>
        <time>2021-03-21T11:28:43.000Z</time>
      </trkpt>
      <trkpt lat="44.98122" lon="6.03324">
        <ele>2885.3999023438</ele>
        <time>2021-03-21T11:28:44.000Z</time>
      </trkpt>
      <trkpt lat="44.98122" lon="6.03324">
        <ele>2885.3999023438</ele>
        <time>2021-03-21T11:28:45.000Z</time>
      </trkpt>
      <trkpt lat="44.98122" lon="6.03324">
        <ele>2885.3999023438</ele>
        <time>2021-03-21T11:28:46.000Z</time>
      </trkpt>
      <trkpt lat="44.98122" lon="6.03324">
        <ele>2885.3999023438</ele>
        <time>2021-03-21T11:28:47.000Z</time>
      </trkpt>
      <trkpt lat="44.98122" lon="6.03324">
        <ele>2885.3999023438</ele>
        <time>2021-03-21T11:28:48.000Z</time>
      </trkpt>
      <trkpt lat="44.98122" lon="6.03323">
        <ele>2885.6000976562</ele>
        <time>2021-03-21T11:28:49.000Z</time>
      </trkpt>
      <trkpt lat="44.98121" lon="6.03323">
        <ele>2885.3999023438</ele>
        <time>2021-03-21T11:28:50.000Z</time>
      </trkpt>
      <trkpt lat="44.98121" lon="6.03323">
        <ele>2885.6000976562</ele>
        <time>2021-03-21T11:28:51.000Z</time>
      </trkpt>
      <trkpt lat="44.98121" lon="6.03323">
        <ele>2885.6000976562</ele>
        <time>2021-03-21T11:28:52.000Z</time>
      </trkpt>
      <trkpt lat="44.98121" lon="6.03323">
        <ele>2885.6000976562</ele>
        <time>2021-03-21T11:28:53.000Z</time>
      </trkpt>
      <trkpt lat="44.98121" lon="6.03323">
        <ele>2885.6000976562</ele>
        <time>2021-03-21T11:28:54.000Z</time>
      </trkpt>
      <trkpt lat="44.98121" lon="6.03323">
        <ele>2885.6000976562</ele>
        <time>2021-03-21T11:28:55.000Z</time>
      </trkpt>
      <trkpt lat="44.98121" lon="6.03323">
        <ele>2885.6000976562</ele>
        <time>2021-03-21T11:28:56.000Z</time>
      </trkpt>
      <trkpt lat="44.98121" lon="6.03323">
        <ele>2885.6000976562</ele>
        <time>2021-03-21T11:28:57.000Z</time>
      </trkpt>
      <trkpt lat="44.98121" lon="6.03323">
        <ele>2885.6000976562</ele>
        <time>2021-03-21T11:28:58.000Z</time>
      </trkpt>
      <trkpt lat="44.98121" lon="6.03323">
        <ele>2885.8000488281</ele>
        <time>2021-03-21T11:28:59.000Z</time>
      </trkpt>
      <trkpt lat="44.98121" lon="6.03322">
        <ele>2885.8000488281</ele>
        <time>2021-03-21T11:29:00.000Z</time>
      </trkpt>
      <trkpt lat="44.98121" lon="6.03322">
        <ele>2886</ele>
        <time>2021-03-21T11:29:01.000Z</time>
      </trkpt>
      <trkpt lat="44.98121" lon="6.03322">
        <ele>2886</ele>
        <time>2021-03-21T11:29:02.000Z</time>
      </trkpt>
      <trkpt lat="44.98121" lon="6.03322">
        <ele>2886</ele>
        <time>2021-03-21T11:29:03.000Z</time>
      </trkpt>
      <trkpt lat="44.98122" lon="6.03321">
        <ele>2886.1999511719</ele>
        <time>2021-03-21T11:29:04.000Z</time>
      </trkpt>
      <trkpt lat="44.98122" lon="6.03322">
        <ele>2886.1999511719</ele>
        <time>2021-03-21T11:29:05.000Z</time>
      </trkpt>
      <trkpt lat="44.98122" lon="6.03322">
        <ele>2886.1999511719</ele>
        <time>2021-03-21T11:29:06.000Z</time>
      </trkpt>
      <trkpt lat="44.98122" lon="6.03322">
        <ele>2886.1999511719</ele>
        <time>2021-03-21T11:29:07.000Z</time>
      </trkpt>
      <trkpt lat="44.98123" lon="6.03322">
        <ele>2886.1999511719</ele>
        <time>2021-03-21T11:29:08.000Z</time>
      </trkpt>
      <trkpt lat="44.98123" lon="6.03322">
        <ele>2886.1999511719</ele>
        <time>2021-03-21T11:29:09.000Z</time>
      </trkpt>
      <trkpt lat="44.98123" lon="6.03322">
        <ele>2886.1999511719</ele>
        <time>2021-03-21T11:29:10.000Z</time>
      </trkpt>
      <trkpt lat="44.98123" lon="6.03322">
        <ele>2886.1999511719</ele>
        <time>2021-03-21T11:29:11.000Z</time>
      </trkpt>
      <trkpt lat="44.98123" lon="6.03322">
        <ele>2886.1999511719</ele>
        <time>2021-03-21T11:29:12.000Z</time>
      </trkpt>
      <trkpt lat="44.98123" lon="6.03322">
        <ele>2886.3999023438</ele>
        <time>2021-03-21T11:29:13.000Z</time>
      </trkpt>
      <trkpt lat="44.98123" lon="6.03322">
        <ele>2886.3999023438</ele>
        <time>2021-03-21T11:29:14.000Z</time>
      </trkpt>
      <trkpt lat="44.98123" lon="6.03322">
        <ele>2886.3999023438</ele>
        <time>2021-03-21T11:29:15.000Z</time>
      </trkpt>
      <trkpt lat="44.98123" lon="6.03322">
        <ele>2886.3999023438</ele>
        <time>2021-03-21T11:29:16.000Z</time>
      </trkpt>
      <trkpt lat="44.98123" lon="6.03322">
        <ele>2886.3999023438</ele>
        <time>2021-03-21T11:29:17.000Z</time>
      </trkpt>
      <trkpt lat="44.98123" lon="6.03322">
        <ele>2886.3999023438</ele>
        <time>2021-03-21T11:29:18.000Z</time>
      </trkpt>
      <trkpt lat="44.98123" lon="6.03322">
        <ele>2886.1999511719</ele>
        <time>2021-03-21T11:29:19.000Z</time>
      </trkpt>
      <trkpt lat="44.98123" lon="6.03322">
        <ele>2886.1999511719</ele>
        <time>2021-03-21T11:29:20.000Z</time>
      </trkpt>
      <trkpt lat="44.98123" lon="6.03323">
        <ele>2886</ele>
        <time>2021-03-21T11:29:21.000Z</time>
      </trkpt>
      <trkpt lat="44.98123" lon="6.03323">
        <ele>2886</ele>
        <time>2021-03-21T11:29:22.000Z</time>
      </trkpt>
      <trkpt lat="44.98123" lon="6.03323">
        <ele>2886</ele>
        <time>2021-03-21T11:29:23.000Z</time>
      </trkpt>
      <trkpt lat="44.98123" lon="6.03323">
        <ele>2886</ele>
        <time>2021-03-21T11:29:24.000Z</time>
      </trkpt>
      <trkpt lat="44.98123" lon="6.03323">
        <ele>2885.8000488281</ele>
        <time>2021-03-21T11:29:25.000Z</time>
      </trkpt>
      <trkpt lat="44.98123" lon="6.03323">
        <ele>2886</ele>
        <time>2021-03-21T11:29:26.000Z</time>
      </trkpt>
      <trkpt lat="44.98122" lon="6.03322">
        <ele>2886</ele>
        <time>2021-03-21T11:29:27.000Z</time>
      </trkpt>
      <trkpt lat="44.98122" lon="6.03322">
        <ele>2886</ele>
        <time>2021-03-21T11:29:28.000Z</time>
      </trkpt>
      <trkpt lat="44.98122" lon="6.03322">
        <ele>2886</ele>
        <time>2021-03-21T11:29:29.000Z</time>
      </trkpt>
      <trkpt lat="44.98122" lon="6.03322">
        <ele>2886</ele>
        <time>2021-03-21T11:29:30.000Z</time>
      </trkpt>
      <trkpt lat="44.98122" lon="6.03322">
        <ele>2886</ele>
        <time>2021-03-21T11:29:31.000Z</time>
      </trkpt>
      <trkpt lat="44.98122" lon="6.03322">
        <ele>2886</ele>
        <time>2021-03-21T11:29:32.000Z</time>
      </trkpt>
      <trkpt lat="44.98122" lon="6.03322">
        <ele>2886</ele>
        <time>2021-03-21T11:29:33.000Z</time>
      </trkpt>
      <trkpt lat="44.98122" lon="6.03322">
        <ele>2886</ele>
        <time>2021-03-21T11:29:34.000Z</time>
      </trkpt>
      <trkpt lat="44.98122" lon="6.03322">
        <ele>2886</ele>
        <time>2021-03-21T11:29:35.000Z</time>
      </trkpt>
      <trkpt lat="44.98122" lon="6.03322">
        <ele>2886</ele>
        <time>2021-03-21T11:29:36.000Z</time>
      </trkpt>
      <trkpt lat="44.98122" lon="6.03322">
        <ele>2886</ele>
        <time>2021-03-21T11:29:37.000Z</time>
      </trkpt>
      <trkpt lat="44.98122" lon="6.03322">
        <ele>2886</ele>
        <time>2021-03-21T11:29:38.000Z</time>
      </trkpt>
      <trkpt lat="44.98122" lon="6.03322">
        <ele>2886</ele>
        <time>2021-03-21T11:29:39.000Z</time>
      </trkpt>
      <trkpt lat="44.98122" lon="6.03322">
        <ele>2886</ele>
        <time>2021-03-21T11:29:40.000Z</time>
      </trkpt>
      <trkpt lat="44.98121" lon="6.03322">
        <ele>2885.8000488281</ele>
        <time>2021-03-21T11:29:41.000Z</time>
      </trkpt>
      <trkpt lat="44.98121" lon="6.03322">
        <ele>2886</ele>
        <time>2021-03-21T11:29:42.000Z</time>
      </trkpt>
      <trkpt lat="44.98121" lon="6.03322">
        <ele>2885.8000488281</ele>
        <time>2021-03-21T11:29:43.000Z</time>
      </trkpt>
      <trkpt lat="44.98122" lon="6.03322">
        <ele>2886</ele>
        <time>2021-03-21T11:29:44.000Z</time>
      </trkpt>
      <trkpt lat="44.98122" lon="6.03322">
        <ele>2886</ele>
        <time>2021-03-21T11:29:45.000Z</time>
      </trkpt>
      <trkpt lat="44.98122" lon="6.03322">
        <ele>2886</ele>
        <time>2021-03-21T11:29:46.000Z</time>
      </trkpt>
      <trkpt lat="44.98122" lon="6.03322">
        <ele>2886</ele>
        <time>2021-03-21T11:29:47.000Z</time>
      </trkpt>
      <trkpt lat="44.98122" lon="6.03322">
        <ele>2886</ele>
        <time>2021-03-21T11:29:48.000Z</time>
      </trkpt>
      <trkpt lat="44.98122" lon="6.03322">
        <ele>2886</ele>
        <time>2021-03-21T11:29:49.000Z</time>
      </trkpt>
      <trkpt lat="44.98122" lon="6.03322">
        <ele>2886</ele>
        <time>2021-03-21T11:29:50.000Z</time>
      </trkpt>
      <trkpt lat="44.98122" lon="6.03322">
        <ele>2886</ele>
        <time>2021-03-21T11:29:51.000Z</time>
      </trkpt>
      <trkpt lat="44.98122" lon="6.03322">
        <ele>2886</ele>
        <time>2021-03-21T11:29:52.000Z</time>
      </trkpt>
      <trkpt lat="44.98123" lon="6.03322">
        <ele>2886</ele>
        <time>2021-03-21T11:29:53.000Z</time>
      </trkpt>
      <trkpt lat="44.98123" lon="6.03322">
        <ele>2886.1999511719</ele>
        <time>2021-03-21T11:29:54.000Z</time>
      </trkpt>
      <trkpt lat="44.98123" lon="6.03322">
        <ele>2886.1999511719</ele>
        <time>2021-03-21T11:29:55.000Z</time>
      </trkpt>
      <trkpt lat="44.98123" lon="6.03322">
        <ele>2886.1999511719</ele>
        <time>2021-03-21T11:29:56.000Z</time>
      </trkpt>
      <trkpt lat="44.98123" lon="6.03322">
        <ele>2886.1999511719</ele>
        <time>2021-03-21T11:29:57.000Z</time>
      </trkpt>
      <trkpt lat="44.98123" lon="6.03322">
        <ele>2886.1999511719</ele>
        <time>2021-03-21T11:29:58.000Z</time>
      </trkpt>
      <trkpt lat="44.98123" lon="6.03322">
        <ele>2886.1999511719</ele>
        <time>2021-03-21T11:29:59.000Z</time>
      </trkpt>
      <trkpt lat="44.98123" lon="6.03322">
        <ele>2886.1999511719</ele>
        <time>2021-03-21T11:30:00.000Z</time>
      </trkpt>
      <trkpt lat="44.98123" lon="6.03322">
        <ele>2886.1999511719</ele>
        <time>2021-03-21T11:30:01.000Z</time>
      </trkpt>
      <trkpt lat="44.98123" lon="6.03322">
        <ele>2886</ele>
        <time>2021-03-21T11:30:02.000Z</time>
      </trkpt>
      <trkpt lat="44.98123" lon="6.03322">
        <ele>2886</ele>
        <time>2021-03-21T11:30:03.000Z</time>
      </trkpt>
      <trkpt lat="44.98123" lon="6.03322">
        <ele>2886</ele>
        <time>2021-03-21T11:30:04.000Z</time>
      </trkpt>
      <trkpt lat="44.98123" lon="6.03323">
        <ele>2886</ele>
        <time>2021-03-21T11:30:05.000Z</time>
      </trkpt>
      <trkpt lat="44.98123" lon="6.03323">
        <ele>2886</ele>
        <time>2021-03-21T11:30:06.000Z</time>
      </trkpt>
      <trkpt lat="44.98123" lon="6.03323">
        <ele>2885.8000488281</ele>
        <time>2021-03-21T11:30:07.000Z</time>
      </trkpt>
      <trkpt lat="44.98123" lon="6.03323">
        <ele>2885.8000488281</ele>
        <time>2021-03-21T11:30:08.000Z</time>
      </trkpt>
      <trkpt lat="44.98123" lon="6.03323">
        <ele>2885.8000488281</ele>
        <time>2021-03-21T11:30:09.000Z</time>
      </trkpt>
      <trkpt lat="44.98123" lon="6.03323">
        <ele>2885.8000488281</ele>
        <time>2021-03-21T11:30:10.000Z</time>
      </trkpt>
      <trkpt lat="44.98123" lon="6.03323">
        <ele>2886</ele>
        <time>2021-03-21T11:30:11.000Z</time>
      </trkpt>
      <trkpt lat="44.98123" lon="6.03323">
        <ele>2886</ele>
        <time>2021-03-21T11:30:12.000Z</time>
      </trkpt>
      <trkpt lat="44.98123" lon="6.03323">
        <ele>2886</ele>
        <time>2021-03-21T11:30:13.000Z</time>
      </trkpt>
      <trkpt lat="44.98123" lon="6.03323">
        <ele>2885.8000488281</ele>
        <time>2021-03-21T11:30:14.000Z</time>
      </trkpt>
      <trkpt lat="44.98123" lon="6.03323">
        <ele>2886</ele>
        <time>2021-03-21T11:30:15.000Z</time>
      </trkpt>
      <trkpt lat="44.98123" lon="6.03323">
        <ele>2886</ele>
        <time>2021-03-21T11:30:16.000Z</time>
      </trkpt>
      <trkpt lat="44.98123" lon="6.03323">
        <ele>2885.8000488281</ele>
        <time>2021-03-21T11:30:17.000Z</time>
      </trkpt>
      <trkpt lat="44.98123" lon="6.03323">
        <ele>2885.8000488281</ele>
        <time>2021-03-21T11:30:18.000Z</time>
      </trkpt>
      <trkpt lat="44.98123" lon="6.03323">
        <ele>2885.8000488281</ele>
        <time>2021-03-21T11:30:19.000Z</time>
      </trkpt>
      <trkpt lat="44.98123" lon="6.03324">
        <ele>2885.6000976562</ele>
        <time>2021-03-21T11:30:20.000Z</time>
      </trkpt>
      <trkpt lat="44.98123" lon="6.03324">
        <ele>2885.6000976562</ele>
        <time>2021-03-21T11:30:21.000Z</time>
      </trkpt>
      <trkpt lat="44.98123" lon="6.03324">
        <ele>2885.6000976562</ele>
        <time>2021-03-21T11:30:22.000Z</time>
      </trkpt>
      <trkpt lat="44.98123" lon="6.03324">
        <ele>2885.3999023438</ele>
        <time>2021-03-21T11:30:23.000Z</time>
      </trkpt>
      <trkpt lat="44.98123" lon="6.03324">
        <ele>2885.3999023438</ele>
        <time>2021-03-21T11:30:24.000Z</time>
      </trkpt>
      <trkpt lat="44.98123" lon="6.03324">
        <ele>2885.3999023438</ele>
        <time>2021-03-21T11:30:25.000Z</time>
      </trkpt>
      <trkpt lat="44.98123" lon="6.03324">
        <ele>2885.3999023438</ele>
        <time>2021-03-21T11:30:26.000Z</time>
      </trkpt>
      <trkpt lat="44.98123" lon="6.03324">
        <ele>2885.3999023438</ele>
        <time>2021-03-21T11:30:27.000Z</time>
      </trkpt>
      <trkpt lat="44.98123" lon="6.03325">
        <ele>2885.3999023438</ele>
        <time>2021-03-21T11:30:28.000Z</time>
      </trkpt>
      <trkpt lat="44.98122" lon="6.03325">
        <ele>2885.1999511719</ele>
        <time>2021-03-21T11:30:29.000Z</time>
      </trkpt>
      <trkpt lat="44.98122" lon="6.03325">
        <ele>2885.1999511719</ele>
        <time>2021-03-21T11:30:30.000Z</time>
      </trkpt>
      <trkpt lat="44.98122" lon="6.03325">
        <ele>2885.1999511719</ele>
        <time>2021-03-21T11:30:31.000Z</time>
      </trkpt>
      <trkpt lat="44.98122" lon="6.03325">
        <ele>2885.1999511719</ele>
        <time>2021-03-21T11:30:32.000Z</time>
      </trkpt>
      <trkpt lat="44.98122" lon="6.03325">
        <ele>2885.1999511719</ele>
        <time>2021-03-21T11:30:33.000Z</time>
      </trkpt>
      <trkpt lat="44.98122" lon="6.03325">
        <ele>2885</ele>
        <time>2021-03-21T11:30:34.000Z</time>
      </trkpt>
      <trkpt lat="44.98122" lon="6.03325">
        <ele>2885</ele>
        <time>2021-03-21T11:30:35.000Z</time>
      </trkpt>
      <trkpt lat="44.98122" lon="6.03325">
        <ele>2885</ele>
        <time>2021-03-21T11:30:36.000Z</time>
      </trkpt>
      <trkpt lat="44.98122" lon="6.03325">
        <ele>2885</ele>
        <time>2021-03-21T11:30:37.000Z</time>
      </trkpt>
      <trkpt lat="44.98122" lon="6.03325">
        <ele>2885</ele>
        <time>2021-03-21T11:30:38.000Z</time>
      </trkpt>
      <trkpt lat="44.98122" lon="6.03325">
        <ele>2885</ele>
        <time>2021-03-21T11:30:39.000Z</time>
      </trkpt>
      <trkpt lat="44.98122" lon="6.03325">
        <ele>2885</ele>
        <time>2021-03-21T11:30:40.000Z</time>
      </trkpt>
      <trkpt lat="44.98122" lon="6.03325">
        <ele>2885</ele>
        <time>2021-03-21T11:30:41.000Z</time>
      </trkpt>
      <trkpt lat="44.98122" lon="6.03325">
        <ele>2885</ele>
        <time>2021-03-21T11:30:42.000Z</time>
      </trkpt>
      <trkpt lat="44.98122" lon="6.03325">
        <ele>2884.8000488281</ele>
        <time>2021-03-21T11:30:43.000Z</time>
      </trkpt>
      <trkpt lat="44.98122" lon="6.03325">
        <ele>2884.8000488281</ele>
        <time>2021-03-21T11:30:44.000Z</time>
      </trkpt>
      <trkpt lat="44.98122" lon="6.03325">
        <ele>2885</ele>
        <time>2021-03-21T11:30:45.000Z</time>
      </trkpt>
      <trkpt lat="44.98122" lon="6.03325">
        <ele>2884.8000488281</ele>
        <time>2021-03-21T11:30:46.000Z</time>
      </trkpt>
      <trkpt lat="44.98122" lon="6.03325">
        <ele>2885</ele>
        <time>2021-03-21T11:30:47.000Z</time>
      </trkpt>
      <trkpt lat="44.98122" lon="6.03325">
        <ele>2885</ele>
        <time>2021-03-21T11:30:48.000Z</time>
      </trkpt>
      <trkpt lat="44.98122" lon="6.03325">
        <ele>2885.1999511719</ele>
        <time>2021-03-21T11:30:49.000Z</time>
      </trkpt>
      <trkpt lat="44.98122" lon="6.03325">
        <ele>2885.1999511719</ele>
        <time>2021-03-21T11:30:50.000Z</time>
      </trkpt>
      <trkpt lat="44.98122" lon="6.03325">
        <ele>2885.1999511719</ele>
        <time>2021-03-21T11:30:51.000Z</time>
      </trkpt>
      <trkpt lat="44.98122" lon="6.03325">
        <ele>2885.1999511719</ele>
        <time>2021-03-21T11:30:52.000Z</time>
      </trkpt>
      <trkpt lat="44.98122" lon="6.03325">
        <ele>2885.1999511719</ele>
        <time>2021-03-21T11:30:53.000Z</time>
      </trkpt>
      <trkpt lat="44.98122" lon="6.03325">
        <ele>2885.1999511719</ele>
        <time>2021-03-21T11:30:54.000Z</time>
      </trkpt>
      <trkpt lat="44.98122" lon="6.03324">
        <ele>2885.1999511719</ele>
        <time>2021-03-21T11:30:55.000Z</time>
      </trkpt>
      <trkpt lat="44.98122" lon="6.03324">
        <ele>2885.1999511719</ele>
        <time>2021-03-21T11:30:56.000Z</time>
      </trkpt>
      <trkpt lat="44.98122" lon="6.03324">
        <ele>2885.1999511719</ele>
        <time>2021-03-21T11:30:57.000Z</time>
      </trkpt>
      <trkpt lat="44.98122" lon="6.03324">
        <ele>2885.3999023438</ele>
        <time>2021-03-21T11:30:58.000Z</time>
      </trkpt>
      <trkpt lat="44.98122" lon="6.03324">
        <ele>2885.6000976562</ele>
        <time>2021-03-21T11:30:59.000Z</time>
      </trkpt>
      <trkpt lat="44.98122" lon="6.03324">
        <ele>2885.6000976562</ele>
        <time>2021-03-21T11:31:00.000Z</time>
      </trkpt>
      <trkpt lat="44.98122" lon="6.03324">
        <ele>2885.6000976562</ele>
        <time>2021-03-21T11:31:01.000Z</time>
      </trkpt>
      <trkpt lat="44.98122" lon="6.03323">
        <ele>2885.6000976562</ele>
        <time>2021-03-21T11:31:02.000Z</time>
      </trkpt>
      <trkpt lat="44.98122" lon="6.03323">
        <ele>2885.8000488281</ele>
        <time>2021-03-21T11:31:03.000Z</time>
      </trkpt>
      <trkpt lat="44.98122" lon="6.03323">
        <ele>2885.8000488281</ele>
        <time>2021-03-21T11:31:04.000Z</time>
      </trkpt>
      <trkpt lat="44.98122" lon="6.03323">
        <ele>2885.8000488281</ele>
        <time>2021-03-21T11:31:05.000Z</time>
      </trkpt>
      <trkpt lat="44.98122" lon="6.03323">
        <ele>2885.8000488281</ele>
        <time>2021-03-21T11:31:06.000Z</time>
      </trkpt>
      <trkpt lat="44.98122" lon="6.03323">
        <ele>2885.8000488281</ele>
        <time>2021-03-21T11:31:07.000Z</time>
      </trkpt>
      <trkpt lat="44.98122" lon="6.03323">
        <ele>2885.8000488281</ele>
        <time>2021-03-21T11:31:08.000Z</time>
      </trkpt>
      <trkpt lat="44.98122" lon="6.03323">
        <ele>2885.8000488281</ele>
        <time>2021-03-21T11:31:09.000Z</time>
      </trkpt>
      <trkpt lat="44.98122" lon="6.03323">
        <ele>2885.8000488281</ele>
        <time>2021-03-21T11:31:10.000Z</time>
      </trkpt>
      <trkpt lat="44.98122" lon="6.03324">
        <ele>2885.6000976562</ele>
        <time>2021-03-21T11:31:11.000Z</time>
      </trkpt>
      <trkpt lat="44.98122" lon="6.03324">
        <ele>2885.6000976562</ele>
        <time>2021-03-21T11:31:12.000Z</time>
      </trkpt>
      <trkpt lat="44.98122" lon="6.03324">
        <ele>2885.6000976562</ele>
        <time>2021-03-21T11:31:13.000Z</time>
      </trkpt>
      <trkpt lat="44.98122" lon="6.03323">
        <ele>2885.6000976562</ele>
        <time>2021-03-21T11:31:14.000Z</time>
      </trkpt>
      <trkpt lat="44.98122" lon="6.03323">
        <ele>2885.6000976562</ele>
        <time>2021-03-21T11:31:15.000Z</time>
      </trkpt>
      <trkpt lat="44.98122" lon="6.03324">
        <ele>2885.3999023438</ele>
        <time>2021-03-21T11:31:16.000Z</time>
      </trkpt>
      <trkpt lat="44.98122" lon="6.03324">
        <ele>2885.3999023438</ele>
        <time>2021-03-21T11:31:17.000Z</time>
      </trkpt>
      <trkpt lat="44.98122" lon="6.03324">
        <ele>2885.1999511719</ele>
        <time>2021-03-21T11:31:18.000Z</time>
      </trkpt>
      <trkpt lat="44.98122" lon="6.03324">
        <ele>2885.1999511719</ele>
        <time>2021-03-21T11:31:19.000Z</time>
      </trkpt>
      <trkpt lat="44.98122" lon="6.03324">
        <ele>2885.1999511719</ele>
        <time>2021-03-21T11:31:20.000Z</time>
      </trkpt>
      <trkpt lat="44.98122" lon="6.03324">
        <ele>2885.3999023438</ele>
        <time>2021-03-21T11:31:21.000Z</time>
      </trkpt>
      <trkpt lat="44.98122" lon="6.03324">
        <ele>2885.1999511719</ele>
        <time>2021-03-21T11:31:22.000Z</time>
      </trkpt>
      <trkpt lat="44.98122" lon="6.03325">
        <ele>2885.1999511719</ele>
        <time>2021-03-21T11:31:23.000Z</time>
      </trkpt>
      <trkpt lat="44.98122" lon="6.03325">
        <ele>2885.1999511719</ele>
        <time>2021-03-21T11:31:24.000Z</time>
      </trkpt>
      <trkpt lat="44.98122" lon="6.03325">
        <ele>2885</ele>
        <time>2021-03-21T11:31:25.000Z</time>
      </trkpt>
      <trkpt lat="44.98122" lon="6.03325">
        <ele>2885.1999511719</ele>
        <time>2021-03-21T11:31:26.000Z</time>
      </trkpt>
      <trkpt lat="44.98122" lon="6.03324">
        <ele>2885.1999511719</ele>
        <time>2021-03-21T11:31:27.000Z</time>
      </trkpt>
      <trkpt lat="44.98122" lon="6.03324">
        <ele>2885.1999511719</ele>
        <time>2021-03-21T11:31:28.000Z</time>
      </trkpt>
      <trkpt lat="44.98121" lon="6.03324">
        <ele>2885.1999511719</ele>
        <time>2021-03-21T11:31:29.000Z</time>
      </trkpt>
      <trkpt lat="44.98121" lon="6.03324">
        <ele>2885.1999511719</ele>
        <time>2021-03-21T11:31:30.000Z</time>
      </trkpt>
      <trkpt lat="44.98121" lon="6.03324">
        <ele>2885.1999511719</ele>
        <time>2021-03-21T11:31:31.000Z</time>
      </trkpt>
      <trkpt lat="44.98121" lon="6.03324">
        <ele>2885.1999511719</ele>
        <time>2021-03-21T11:31:32.000Z</time>
      </trkpt>
      <trkpt lat="44.98121" lon="6.03324">
        <ele>2885.3999023438</ele>
        <time>2021-03-21T11:31:33.000Z</time>
      </trkpt>
      <trkpt lat="44.98121" lon="6.03324">
        <ele>2885.3999023438</ele>
        <time>2021-03-21T11:31:34.000Z</time>
      </trkpt>
      <trkpt lat="44.98121" lon="6.03324">
        <ele>2885.3999023438</ele>
        <time>2021-03-21T11:31:35.000Z</time>
      </trkpt>
      <trkpt lat="44.98121" lon="6.03324">
        <ele>2885.3999023438</ele>
        <time>2021-03-21T11:31:36.000Z</time>
      </trkpt>
      <trkpt lat="44.98122" lon="6.03323">
        <ele>2885.6000976562</ele>
        <time>2021-03-21T11:31:37.000Z</time>
      </trkpt>
      <trkpt lat="44.98122" lon="6.03323">
        <ele>2885.3999023438</ele>
        <time>2021-03-21T11:31:38.000Z</time>
      </trkpt>
      <trkpt lat="44.98122" lon="6.03323">
        <ele>2885.6000976562</ele>
        <time>2021-03-21T11:31:39.000Z</time>
      </trkpt>
      <trkpt lat="44.98122" lon="6.03323">
        <ele>2885.6000976562</ele>
        <time>2021-03-21T11:31:40.000Z</time>
      </trkpt>
      <trkpt lat="44.98122" lon="6.03323">
        <ele>2885.6000976562</ele>
        <time>2021-03-21T11:31:41.000Z</time>
      </trkpt>
      <trkpt lat="44.98122" lon="6.03323">
        <ele>2885.6000976562</ele>
        <time>2021-03-21T11:31:42.000Z</time>
      </trkpt>
      <trkpt lat="44.98122" lon="6.03323">
        <ele>2885.6000976562</ele>
        <time>2021-03-21T11:31:43.000Z</time>
      </trkpt>
      <trkpt lat="44.98122" lon="6.03323">
        <ele>2885.6000976562</ele>
        <time>2021-03-21T11:31:44.000Z</time>
      </trkpt>
      <trkpt lat="44.98122" lon="6.03323">
        <ele>2885.6000976562</ele>
        <time>2021-03-21T11:31:45.000Z</time>
      </trkpt>
      <trkpt lat="44.98122" lon="6.03323">
        <ele>2885.8000488281</ele>
        <time>2021-03-21T11:31:46.000Z</time>
      </trkpt>
      <trkpt lat="44.98122" lon="6.03323">
        <ele>2885.8000488281</ele>
        <time>2021-03-21T11:31:47.000Z</time>
      </trkpt>
      <trkpt lat="44.98122" lon="6.03323">
        <ele>2885.8000488281</ele>
        <time>2021-03-21T11:31:48.000Z</time>
      </trkpt>
      <trkpt lat="44.98122" lon="6.03323">
        <ele>2885.6000976562</ele>
        <time>2021-03-21T11:31:49.000Z</time>
      </trkpt>
      <trkpt lat="44.98122" lon="6.03323">
        <ele>2885.8000488281</ele>
        <time>2021-03-21T11:31:50.000Z</time>
      </trkpt>
      <trkpt lat="44.98122" lon="6.03323">
        <ele>2885.8000488281</ele>
        <time>2021-03-21T11:31:51.000Z</time>
      </trkpt>
      <trkpt lat="44.98122" lon="6.03322">
        <ele>2885.8000488281</ele>
        <time>2021-03-21T11:31:52.000Z</time>
      </trkpt>
      <trkpt lat="44.98122" lon="6.03323">
        <ele>2885.8000488281</ele>
        <time>2021-03-21T11:31:53.000Z</time>
      </trkpt>
      <trkpt lat="44.98122" lon="6.03323">
        <ele>2885.8000488281</ele>
        <time>2021-03-21T11:31:54.000Z</time>
      </trkpt>
      <trkpt lat="44.98122" lon="6.03323">
        <ele>2885.8000488281</ele>
        <time>2021-03-21T11:31:55.000Z</time>
      </trkpt>
      <trkpt lat="44.98122" lon="6.03323">
        <ele>2885.8000488281</ele>
        <time>2021-03-21T11:31:56.000Z</time>
      </trkpt>
      <trkpt lat="44.98122" lon="6.03323">
        <ele>2885.6000976562</ele>
        <time>2021-03-21T11:31:57.000Z</time>
      </trkpt>
      <trkpt lat="44.98122" lon="6.03323">
        <ele>2885.6000976562</ele>
        <time>2021-03-21T11:31:58.000Z</time>
      </trkpt>
      <trkpt lat="44.98122" lon="6.03323">
        <ele>2885.6000976562</ele>
        <time>2021-03-21T11:31:59.000Z</time>
      </trkpt>
      <trkpt lat="44.98122" lon="6.03323">
        <ele>2885.6000976562</ele>
        <time>2021-03-21T11:32:00.000Z</time>
      </trkpt>
      <trkpt lat="44.98122" lon="6.03323">
        <ele>2885.6000976562</ele>
        <time>2021-03-21T11:32:01.000Z</time>
      </trkpt>
      <trkpt lat="44.98122" lon="6.03323">
        <ele>2885.6000976562</ele>
        <time>2021-03-21T11:32:02.000Z</time>
      </trkpt>
      <trkpt lat="44.98122" lon="6.03323">
        <ele>2885.6000976562</ele>
        <time>2021-03-21T11:32:03.000Z</time>
      </trkpt>
      <trkpt lat="44.98122" lon="6.03323">
        <ele>2885.6000976562</ele>
        <time>2021-03-21T11:32:04.000Z</time>
      </trkpt>
      <trkpt lat="44.98122" lon="6.03323">
        <ele>2885.6000976562</ele>
        <time>2021-03-21T11:32:05.000Z</time>
      </trkpt>
      <trkpt lat="44.98122" lon="6.03323">
        <ele>2885.8000488281</ele>
        <time>2021-03-21T11:32:06.000Z</time>
      </trkpt>
      <trkpt lat="44.98122" lon="6.03323">
        <ele>2885.8000488281</ele>
        <time>2021-03-21T11:32:07.000Z</time>
      </trkpt>
      <trkpt lat="44.98122" lon="6.03323">
        <ele>2885.8000488281</ele>
        <time>2021-03-21T11:32:08.000Z</time>
      </trkpt>
      <trkpt lat="44.98122" lon="6.03323">
        <ele>2885.8000488281</ele>
        <time>2021-03-21T11:32:09.000Z</time>
      </trkpt>
      <trkpt lat="44.98122" lon="6.03323">
        <ele>2885.8000488281</ele>
        <time>2021-03-21T11:32:10.000Z</time>
      </trkpt>
      <trkpt lat="44.98122" lon="6.03323">
        <ele>2885.8000488281</ele>
        <time>2021-03-21T11:32:11.000Z</time>
      </trkpt>
      <trkpt lat="44.98122" lon="6.03323">
        <ele>2885.8000488281</ele>
        <time>2021-03-21T11:32:12.000Z</time>
      </trkpt>
      <trkpt lat="44.98122" lon="6.03323">
        <ele>2885.8000488281</ele>
        <time>2021-03-21T11:32:13.000Z</time>
      </trkpt>
      <trkpt lat="44.98122" lon="6.03323">
        <ele>2885.8000488281</ele>
        <time>2021-03-21T11:32:14.000Z</time>
      </trkpt>
      <trkpt lat="44.98122" lon="6.03323">
        <ele>2885.8000488281</ele>
        <time>2021-03-21T11:32:15.000Z</time>
      </trkpt>
      <trkpt lat="44.98122" lon="6.03323">
        <ele>2885.8000488281</ele>
        <time>2021-03-21T11:32:16.000Z</time>
      </trkpt>
      <trkpt lat="44.98122" lon="6.03323">
        <ele>2885.8000488281</ele>
        <time>2021-03-21T11:32:17.000Z</time>
      </trkpt>
      <trkpt lat="44.98122" lon="6.03323">
        <ele>2885.8000488281</ele>
        <time>2021-03-21T11:32:18.000Z</time>
      </trkpt>
      <trkpt lat="44.98122" lon="6.03323">
        <ele>2885.8000488281</ele>
        <time>2021-03-21T11:32:19.000Z</time>
      </trkpt>
      <trkpt lat="44.98122" lon="6.03322">
        <ele>2885.8000488281</ele>
        <time>2021-03-21T11:32:20.000Z</time>
      </trkpt>
      <trkpt lat="44.98122" lon="6.03322">
        <ele>2885.8000488281</ele>
        <time>2021-03-21T11:32:21.000Z</time>
      </trkpt>
      <trkpt lat="44.98122" lon="6.03322">
        <ele>2885.8000488281</ele>
        <time>2021-03-21T11:32:22.000Z</time>
      </trkpt>
      <trkpt lat="44.98122" lon="6.03322">
        <ele>2886</ele>
        <time>2021-03-21T11:32:23.000Z</time>
      </trkpt>
      <trkpt lat="44.98122" lon="6.03322">
        <ele>2886</ele>
        <time>2021-03-21T11:32:24.000Z</time>
      </trkpt>
      <trkpt lat="44.98122" lon="6.03322">
        <ele>2886</ele>
        <time>2021-03-21T11:32:25.000Z</time>
      </trkpt>
      <trkpt lat="44.98122" lon="6.03322">
        <ele>2886</ele>
        <time>2021-03-21T11:32:26.000Z</time>
      </trkpt>
      <trkpt lat="44.98122" lon="6.03322">
        <ele>2886</ele>
        <time>2021-03-21T11:32:27.000Z</time>
      </trkpt>
      <trkpt lat="44.98122" lon="6.03322">
        <ele>2886</ele>
        <time>2021-03-21T11:32:28.000Z</time>
      </trkpt>
      <trkpt lat="44.98122" lon="6.03322">
        <ele>2886</ele>
        <time>2021-03-21T11:32:29.000Z</time>
      </trkpt>
      <trkpt lat="44.98122" lon="6.03322">
        <ele>2886</ele>
        <time>2021-03-21T11:32:30.000Z</time>
      </trkpt>
      <trkpt lat="44.98122" lon="6.03322">
        <ele>2886.1999511719</ele>
        <time>2021-03-21T11:32:31.000Z</time>
      </trkpt>
      <trkpt lat="44.98122" lon="6.03322">
        <ele>2886.1999511719</ele>
        <time>2021-03-21T11:32:32.000Z</time>
      </trkpt>
      <trkpt lat="44.98122" lon="6.03322">
        <ele>2886.1999511719</ele>
        <time>2021-03-21T11:32:33.000Z</time>
      </trkpt>
      <trkpt lat="44.98122" lon="6.03322">
        <ele>2886.1999511719</ele>
        <time>2021-03-21T11:32:34.000Z</time>
      </trkpt>
      <trkpt lat="44.98122" lon="6.03322">
        <ele>2886.1999511719</ele>
        <time>2021-03-21T11:32:35.000Z</time>
      </trkpt>
      <trkpt lat="44.98122" lon="6.03322">
        <ele>2886</ele>
        <time>2021-03-21T11:32:36.000Z</time>
      </trkpt>
      <trkpt lat="44.98122" lon="6.03322">
        <ele>2886</ele>
        <time>2021-03-21T11:32:37.000Z</time>
      </trkpt>
      <trkpt lat="44.98122" lon="6.03323">
        <ele>2885.8000488281</ele>
        <time>2021-03-21T11:32:38.000Z</time>
      </trkpt>
      <trkpt lat="44.98122" lon="6.03323">
        <ele>2885.8000488281</ele>
        <time>2021-03-21T11:32:39.000Z</time>
      </trkpt>
      <trkpt lat="44.98122" lon="6.03323">
        <ele>2885.8000488281</ele>
        <time>2021-03-21T11:32:40.000Z</time>
      </trkpt>
      <trkpt lat="44.98122" lon="6.03323">
        <ele>2885.8000488281</ele>
        <time>2021-03-21T11:32:41.000Z</time>
      </trkpt>
      <trkpt lat="44.98122" lon="6.03323">
        <ele>2885.6000976562</ele>
        <time>2021-03-21T11:32:42.000Z</time>
      </trkpt>
      <trkpt lat="44.98122" lon="6.03323">
        <ele>2885.6000976562</ele>
        <time>2021-03-21T11:32:43.000Z</time>
      </trkpt>
      <trkpt lat="44.98122" lon="6.03323">
        <ele>2885.6000976562</ele>
        <time>2021-03-21T11:32:44.000Z</time>
      </trkpt>
      <trkpt lat="44.98122" lon="6.03323">
        <ele>2885.8000488281</ele>
        <time>2021-03-21T11:32:45.000Z</time>
      </trkpt>
      <trkpt lat="44.98122" lon="6.03323">
        <ele>2885.6000976562</ele>
        <time>2021-03-21T11:32:46.000Z</time>
      </trkpt>
      <trkpt lat="44.98122" lon="6.03323">
        <ele>2885.6000976562</ele>
        <time>2021-03-21T11:32:47.000Z</time>
      </trkpt>
      <trkpt lat="44.98122" lon="6.03323">
        <ele>2885.6000976562</ele>
        <time>2021-03-21T11:32:48.000Z</time>
      </trkpt>
      <trkpt lat="44.98122" lon="6.03323">
        <ele>2885.6000976562</ele>
        <time>2021-03-21T11:32:49.000Z</time>
      </trkpt>
      <trkpt lat="44.98122" lon="6.03323">
        <ele>2885.6000976562</ele>
        <time>2021-03-21T11:32:50.000Z</time>
      </trkpt>
      <trkpt lat="44.98122" lon="6.03323">
        <ele>2885.6000976562</ele>
        <time>2021-03-21T11:32:51.000Z</time>
      </trkpt>
      <trkpt lat="44.98122" lon="6.03324">
        <ele>2885.3999023438</ele>
        <time>2021-03-21T11:32:52.000Z</time>
      </trkpt>
      <trkpt lat="44.98122" lon="6.03324">
        <ele>2885.3999023438</ele>
        <time>2021-03-21T11:32:53.000Z</time>
      </trkpt>
      <trkpt lat="44.98122" lon="6.03324">
        <ele>2885.1999511719</ele>
        <time>2021-03-21T11:32:54.000Z</time>
      </trkpt>
      <trkpt lat="44.98122" lon="6.03324">
        <ele>2885.3999023438</ele>
        <time>2021-03-21T11:32:55.000Z</time>
      </trkpt>
      <trkpt lat="44.98122" lon="6.03324">
        <ele>2885.3999023438</ele>
        <time>2021-03-21T11:32:56.000Z</time>
      </trkpt>
      <trkpt lat="44.98122" lon="6.03324">
        <ele>2885.3999023438</ele>
        <time>2021-03-21T11:32:57.000Z</time>
      </trkpt>
      <trkpt lat="44.98122" lon="6.03324">
        <ele>2885.3999023438</ele>
        <time>2021-03-21T11:32:58.000Z</time>
      </trkpt>
      <trkpt lat="44.98122" lon="6.03324">
        <ele>2885.3999023438</ele>
        <time>2021-03-21T11:32:59.000Z</time>
      </trkpt>
      <trkpt lat="44.98122" lon="6.03324">
        <ele>2885.3999023438</ele>
        <time>2021-03-21T11:33:00.000Z</time>
      </trkpt>
      <trkpt lat="44.98122" lon="6.03324">
        <ele>2885.3999023438</ele>
        <time>2021-03-21T11:33:01.000Z</time>
      </trkpt>
      <trkpt lat="44.98123" lon="6.03324">
        <ele>2885.3999023438</ele>
        <time>2021-03-21T11:33:02.000Z</time>
      </trkpt>
      <trkpt lat="44.98123" lon="6.03324">
        <ele>2885.3999023438</ele>
        <time>2021-03-21T11:33:03.000Z</time>
      </trkpt>
      <trkpt lat="44.98123" lon="6.03324">
        <ele>2885.3999023438</ele>
        <time>2021-03-21T11:33:04.000Z</time>
      </trkpt>
      <trkpt lat="44.98123" lon="6.03324">
        <ele>2885.3999023438</ele>
        <time>2021-03-21T11:33:05.000Z</time>
      </trkpt>
      <trkpt lat="44.98123" lon="6.03324">
        <ele>2885.6000976562</ele>
        <time>2021-03-21T11:33:06.000Z</time>
      </trkpt>
      <trkpt lat="44.98123" lon="6.03324">
        <ele>2885.6000976562</ele>
        <time>2021-03-21T11:33:07.000Z</time>
      </trkpt>
      <trkpt lat="44.98123" lon="6.03324">
        <ele>2885.6000976562</ele>
        <time>2021-03-21T11:33:08.000Z</time>
      </trkpt>
      <trkpt lat="44.98123" lon="6.03323">
        <ele>2885.8000488281</ele>
        <time>2021-03-21T11:33:09.000Z</time>
      </trkpt>
      <trkpt lat="44.98123" lon="6.03324">
        <ele>2885.6000976562</ele>
        <time>2021-03-21T11:33:10.000Z</time>
      </trkpt>
      <trkpt lat="44.98123" lon="6.03324">
        <ele>2885.6000976562</ele>
        <time>2021-03-21T11:33:11.000Z</time>
      </trkpt>
      <trkpt lat="44.98123" lon="6.03323">
        <ele>2885.8000488281</ele>
        <time>2021-03-21T11:33:12.000Z</time>
      </trkpt>
      <trkpt lat="44.98123" lon="6.03323">
        <ele>2886</ele>
        <time>2021-03-21T11:33:13.000Z</time>
      </trkpt>
      <trkpt lat="44.98123" lon="6.03322">
        <ele>2886.1999511719</ele>
        <time>2021-03-21T11:33:14.000Z</time>
      </trkpt>
      <trkpt lat="44.98124" lon="6.03322">
        <ele>2886.3999023438</ele>
        <time>2021-03-21T11:33:15.000Z</time>
      </trkpt>
      <trkpt lat="44.98124" lon="6.03322">
        <ele>2886.3999023438</ele>
        <time>2021-03-21T11:33:16.000Z</time>
      </trkpt>
      <trkpt lat="44.98124" lon="6.03322">
        <ele>2886.3999023438</ele>
        <time>2021-03-21T11:33:17.000Z</time>
      </trkpt>
      <trkpt lat="44.98124" lon="6.03321">
        <ele>2886.6000976562</ele>
        <time>2021-03-21T11:33:18.000Z</time>
      </trkpt>
      <trkpt lat="44.98124" lon="6.03321">
        <ele>2886.6000976562</ele>
        <time>2021-03-21T11:33:19.000Z</time>
      </trkpt>
      <trkpt lat="44.98125" lon="6.03322">
        <ele>2886.6000976562</ele>
        <time>2021-03-21T11:33:20.000Z</time>
      </trkpt>
      <trkpt lat="44.98125" lon="6.0332">
        <ele>2886.8000488281</ele>
        <time>2021-03-21T11:33:21.000Z</time>
      </trkpt>
      <trkpt lat="44.98127" lon="6.03318">
        <ele>2887.3999023438</ele>
        <time>2021-03-21T11:33:22.000Z</time>
      </trkpt>
      <trkpt lat="44.9813" lon="6.03312">
        <ele>2889</ele>
        <time>2021-03-21T11:33:23.000Z</time>
      </trkpt>
      <trkpt lat="44.98133" lon="6.03305">
        <ele>2890.6000976562</ele>
        <time>2021-03-21T11:33:24.000Z</time>
      </trkpt>
      <trkpt lat="44.98136" lon="6.03302">
        <ele>2890.8000488281</ele>
        <time>2021-03-21T11:33:25.000Z</time>
      </trkpt>
      <trkpt lat="44.98142" lon="6.03306">
        <ele>2889</ele>
        <time>2021-03-21T11:33:26.000Z</time>
      </trkpt>
      <trkpt lat="44.98145" lon="6.03311">
        <ele>2887.3999023438</ele>
        <time>2021-03-21T11:33:27.000Z</time>
      </trkpt>
      <trkpt lat="44.98146" lon="6.03314">
        <ele>2886.3999023438</ele>
        <time>2021-03-21T11:33:28.000Z</time>
      </trkpt>
      <trkpt lat="44.98146" lon="6.03315">
        <ele>2886</ele>
        <time>2021-03-21T11:33:29.000Z</time>
      </trkpt>
      <trkpt lat="44.98147" lon="6.03315">
        <ele>2886</ele>
        <time>2021-03-21T11:33:30.000Z</time>
      </trkpt>
      <trkpt lat="44.98147" lon="6.03315">
        <ele>2886</ele>
        <time>2021-03-21T11:33:31.000Z</time>
      </trkpt>
      <trkpt lat="44.98147" lon="6.03315">
        <ele>2886</ele>
        <time>2021-03-21T11:33:32.000Z</time>
      </trkpt>
      <trkpt lat="44.98148" lon="6.03315">
        <ele>2886</ele>
        <time>2021-03-21T11:33:33.000Z</time>
      </trkpt>
      <trkpt lat="44.98148" lon="6.03315">
        <ele>2886</ele>
        <time>2021-03-21T11:33:34.000Z</time>
      </trkpt>
      <trkpt lat="44.98149" lon="6.03314">
        <ele>2886</ele>
        <time>2021-03-21T11:33:35.000Z</time>
      </trkpt>
      <trkpt lat="44.98149" lon="6.03314">
        <ele>2886</ele>
        <time>2021-03-21T11:33:36.000Z</time>
      </trkpt>
      <trkpt lat="44.98149" lon="6.03314">
        <ele>2886</ele>
        <time>2021-03-21T11:33:37.000Z</time>
      </trkpt>
      <trkpt lat="44.98149" lon="6.03313">
        <ele>2886</ele>
        <time>2021-03-21T11:33:38.000Z</time>
      </trkpt>
      <trkpt lat="44.98149" lon="6.03313">
        <ele>2886.1999511719</ele>
        <time>2021-03-21T11:33:39.000Z</time>
      </trkpt>
      <trkpt lat="44.98149" lon="6.03313">
        <ele>2886.1999511719</ele>
        <time>2021-03-21T11:33:40.000Z</time>
      </trkpt>
      <trkpt lat="44.98149" lon="6.03313">
        <ele>2886.1999511719</ele>
        <time>2021-03-21T11:33:41.000Z</time>
      </trkpt>
      <trkpt lat="44.98149" lon="6.03313">
        <ele>2886.1999511719</ele>
        <time>2021-03-21T11:33:42.000Z</time>
      </trkpt>
      <trkpt lat="44.98149" lon="6.03313">
        <ele>2886.1999511719</ele>
        <time>2021-03-21T11:33:43.000Z</time>
      </trkpt>
      <trkpt lat="44.98149" lon="6.03313">
        <ele>2886.1999511719</ele>
        <time>2021-03-21T11:33:44.000Z</time>
      </trkpt>
      <trkpt lat="44.98149" lon="6.03313">
        <ele>2886.1999511719</ele>
        <time>2021-03-21T11:33:45.000Z</time>
      </trkpt>
      <trkpt lat="44.9815" lon="6.03314">
        <ele>2885.8000488281</ele>
        <time>2021-03-21T11:33:46.000Z</time>
      </trkpt>
      <trkpt lat="44.98151" lon="6.03316">
        <ele>2885.1999511719</ele>
        <time>2021-03-21T11:33:47.000Z</time>
      </trkpt>
      <trkpt lat="44.98152" lon="6.03317">
        <ele>2884.8000488281</ele>
        <time>2021-03-21T11:33:48.000Z</time>
      </trkpt>
      <trkpt lat="44.98155" lon="6.03317">
        <ele>2883.3999023438</ele>
        <time>2021-03-21T11:33:49.000Z</time>
      </trkpt>
      <trkpt lat="44.98159" lon="6.03319">
        <ele>2881</ele>
        <time>2021-03-21T11:33:50.000Z</time>
      </trkpt>
      <trkpt lat="44.98163" lon="6.03321">
        <ele>2878.3999023438</ele>
        <time>2021-03-21T11:33:51.000Z</time>
      </trkpt>
      <trkpt lat="44.98167" lon="6.03319">
        <ele>2877</ele>
        <time>2021-03-21T11:33:52.000Z</time>
      </trkpt>
      <trkpt lat="44.98172" lon="6.03314">
        <ele>2875.6000976562</ele>
        <time>2021-03-21T11:33:53.000Z</time>
      </trkpt>
      <trkpt lat="44.98177" lon="6.03314">
        <ele>2873.1999511719</ele>
        <time>2021-03-21T11:33:54.000Z</time>
      </trkpt>
      <trkpt lat="44.98181" lon="6.03319">
        <ele>2870</ele>
        <time>2021-03-21T11:33:55.000Z</time>
      </trkpt>
      <trkpt lat="44.98183" lon="6.03324">
        <ele>2867.8000488281</ele>
        <time>2021-03-21T11:33:56.000Z</time>
      </trkpt>
      <trkpt lat="44.98185" lon="6.03328">
        <ele>2866.3999023438</ele>
        <time>2021-03-21T11:33:57.000Z</time>
      </trkpt>
      <trkpt lat="44.98187" lon="6.03329">
        <ele>2864.8000488281</ele>
        <time>2021-03-21T11:33:58.000Z</time>
      </trkpt>
      <trkpt lat="44.9819" lon="6.03332">
        <ele>2863.1999511719</ele>
        <time>2021-03-21T11:33:59.000Z</time>
      </trkpt>
      <trkpt lat="44.98194" lon="6.03332">
        <ele>2861.1999511719</ele>
        <time>2021-03-21T11:34:00.000Z</time>
      </trkpt>
      <trkpt lat="44.98198" lon="6.03333">
        <ele>2858.8000488281</ele>
        <time>2021-03-21T11:34:01.000Z</time>
      </trkpt>
      <trkpt lat="44.98202" lon="6.03336">
        <ele>2856.1999511719</ele>
        <time>2021-03-21T11:34:02.000Z</time>
      </trkpt>
      <trkpt lat="44.98208" lon="6.03339">
        <ele>2853.1999511719</ele>
        <time>2021-03-21T11:34:03.000Z</time>
      </trkpt>
      <trkpt lat="44.98213" lon="6.03343">
        <ele>2850</ele>
        <time>2021-03-21T11:34:04.000Z</time>
      </trkpt>
      <trkpt lat="44.98216" lon="6.03348">
        <ele>2847.3999023438</ele>
        <time>2021-03-21T11:34:05.000Z</time>
      </trkpt>
      <trkpt lat="44.9822" lon="6.03349">
        <ele>2845.8000488281</ele>
        <time>2021-03-21T11:34:06.000Z</time>
      </trkpt>
      <trkpt lat="44.98224" lon="6.03351">
        <ele>2844</ele>
        <time>2021-03-21T11:34:07.000Z</time>
      </trkpt>
      <trkpt lat="44.98229" lon="6.03355">
        <ele>2842.3999023438</ele>
        <time>2021-03-21T11:34:08.000Z</time>
      </trkpt>
      <trkpt lat="44.98234" lon="6.03355">
        <ele>2840</ele>
        <time>2021-03-21T11:34:09.000Z</time>
      </trkpt>
      <trkpt lat="44.9824" lon="6.03356">
        <ele>2837.6000976562</ele>
        <time>2021-03-21T11:34:10.000Z</time>
      </trkpt>
      <trkpt lat="44.98244" lon="6.03359">
        <ele>2836</ele>
        <time>2021-03-21T11:34:11.000Z</time>
      </trkpt>
      <trkpt lat="44.98249" lon="6.03363">
        <ele>2833.8000488281</ele>
        <time>2021-03-21T11:34:12.000Z</time>
      </trkpt>
      <trkpt lat="44.98256" lon="6.03367">
        <ele>2831.3999023438</ele>
        <time>2021-03-21T11:34:13.000Z</time>
      </trkpt>
      <trkpt lat="44.98261" lon="6.0337">
        <ele>2829.6000976562</ele>
        <time>2021-03-21T11:34:14.000Z</time>
      </trkpt>
      <trkpt lat="44.98266" lon="6.03373">
        <ele>2827.3999023438</ele>
        <time>2021-03-21T11:34:15.000Z</time>
      </trkpt>
      <trkpt lat="44.98267" lon="6.03371">
        <ele>2827</ele>
        <time>2021-03-21T11:34:16.000Z</time>
      </trkpt>
      <trkpt lat="44.98267" lon="6.0337">
        <ele>2827.1999511719</ele>
        <time>2021-03-21T11:34:17.000Z</time>
      </trkpt>
      <trkpt lat="44.98267" lon="6.03369">
        <ele>2827.6000976562</ele>
        <time>2021-03-21T11:34:18.000Z</time>
      </trkpt>
      <trkpt lat="44.98267" lon="6.03369">
        <ele>2827.6000976562</ele>
        <time>2021-03-21T11:34:19.000Z</time>
      </trkpt>
      <trkpt lat="44.98267" lon="6.03369">
        <ele>2827.8000488281</ele>
        <time>2021-03-21T11:34:20.000Z</time>
      </trkpt>
      <trkpt lat="44.98267" lon="6.03368">
        <ele>2827.8000488281</ele>
        <time>2021-03-21T11:34:21.000Z</time>
      </trkpt>
      <trkpt lat="44.98267" lon="6.03367">
        <ele>2827.8000488281</ele>
        <time>2021-03-21T11:34:22.000Z</time>
      </trkpt>
      <trkpt lat="44.98268" lon="6.03368">
        <ele>2827.1999511719</ele>
        <time>2021-03-21T11:34:23.000Z</time>
      </trkpt>
      <trkpt lat="44.98271" lon="6.0337">
        <ele>2825.6000976562</ele>
        <time>2021-03-21T11:34:24.000Z</time>
      </trkpt>
      <trkpt lat="44.98272" lon="6.03373">
        <ele>2824</ele>
        <time>2021-03-21T11:34:25.000Z</time>
      </trkpt>
      <trkpt lat="44.98273" lon="6.03378">
        <ele>2823.3999023438</ele>
        <time>2021-03-21T11:34:26.000Z</time>
      </trkpt>
      <trkpt lat="44.98274" lon="6.03384">
        <ele>2823</ele>
        <time>2021-03-21T11:34:27.000Z</time>
      </trkpt>
      <trkpt lat="44.98278" lon="6.03388">
        <ele>2821.1999511719</ele>
        <time>2021-03-21T11:34:28.000Z</time>
      </trkpt>
      <trkpt lat="44.98283" lon="6.03391">
        <ele>2818.6000976562</ele>
        <time>2021-03-21T11:34:29.000Z</time>
      </trkpt>
      <trkpt lat="44.98288" lon="6.03397">
        <ele>2816.3999023438</ele>
        <time>2021-03-21T11:34:30.000Z</time>
      </trkpt>
      <trkpt lat="44.98295" lon="6.03405">
        <ele>2812.3999023438</ele>
        <time>2021-03-21T11:34:31.000Z</time>
      </trkpt>
      <trkpt lat="44.98302" lon="6.03412">
        <ele>2807.3999023438</ele>
        <time>2021-03-21T11:34:32.000Z</time>
      </trkpt>
      <trkpt lat="44.98309" lon="6.03414">
        <ele>2802.1999511719</ele>
        <time>2021-03-21T11:34:33.000Z</time>
      </trkpt>
      <trkpt lat="44.98317" lon="6.03415">
        <ele>2797</ele>
        <time>2021-03-21T11:34:34.000Z</time>
      </trkpt>
      <trkpt lat="44.98323" lon="6.03413">
        <ele>2791.1999511719</ele>
        <time>2021-03-21T11:34:35.000Z</time>
      </trkpt>
      <trkpt lat="44.9833" lon="6.0341">
        <ele>2784</ele>
        <time>2021-03-21T11:34:36.000Z</time>
      </trkpt>
      <trkpt lat="44.98336" lon="6.03412">
        <ele>2776.1999511719</ele>
        <time>2021-03-21T11:34:37.000Z</time>
      </trkpt>
      <trkpt lat="44.9834" lon="6.03417">
        <ele>2773</ele>
        <time>2021-03-21T11:34:38.000Z</time>
      </trkpt>
      <trkpt lat="44.98341" lon="6.03422">
        <ele>2772</ele>
        <time>2021-03-21T11:34:39.000Z</time>
      </trkpt>
      <trkpt lat="44.98343" lon="6.03425">
        <ele>2770.3999023438</ele>
        <time>2021-03-21T11:34:40.000Z</time>
      </trkpt>
      <trkpt lat="44.98344" lon="6.03427">
        <ele>2768.6000976562</ele>
        <time>2021-03-21T11:34:41.000Z</time>
      </trkpt>
      <trkpt lat="44.98347" lon="6.03424">
        <ele>2765</ele>
        <time>2021-03-21T11:34:42.000Z</time>
      </trkpt>
      <trkpt lat="44.98349" lon="6.03419">
        <ele>2763</ele>
        <time>2021-03-21T11:34:43.000Z</time>
      </trkpt>
      <trkpt lat="44.98349" lon="6.03414">
        <ele>2762.6000976562</ele>
        <time>2021-03-21T11:34:44.000Z</time>
      </trkpt>
      <trkpt lat="44.98348" lon="6.03409">
        <ele>2762.3999023438</ele>
        <time>2021-03-21T11:34:45.000Z</time>
      </trkpt>
      <trkpt lat="44.98348" lon="6.03406">
        <ele>2762.3999023438</ele>
        <time>2021-03-21T11:34:46.000Z</time>
      </trkpt>
      <trkpt lat="44.98348" lon="6.03401">
        <ele>2763</ele>
        <time>2021-03-21T11:34:47.000Z</time>
      </trkpt>
      <trkpt lat="44.98351" lon="6.03399">
        <ele>2762.3999023438</ele>
        <time>2021-03-21T11:34:48.000Z</time>
      </trkpt>
      <trkpt lat="44.98354" lon="6.03398">
        <ele>2760.6000976562</ele>
        <time>2021-03-21T11:34:49.000Z</time>
      </trkpt>
      <trkpt lat="44.98358" lon="6.03398">
        <ele>2758.1999511719</ele>
        <time>2021-03-21T11:34:50.000Z</time>
      </trkpt>
      <trkpt lat="44.98364" lon="6.034">
        <ele>2753.8000488281</ele>
        <time>2021-03-21T11:34:51.000Z</time>
      </trkpt>
      <trkpt lat="44.9837" lon="6.03402">
        <ele>2749.3999023438</ele>
        <time>2021-03-21T11:34:52.000Z</time>
      </trkpt>
      <trkpt lat="44.98377" lon="6.03401">
        <ele>2745.3999023438</ele>
        <time>2021-03-21T11:34:53.000Z</time>
      </trkpt>
      <trkpt lat="44.98385" lon="6.03403">
        <ele>2741</ele>
        <time>2021-03-21T11:34:54.000Z</time>
      </trkpt>
      <trkpt lat="44.98391" lon="6.03408">
        <ele>2737.8000488281</ele>
        <time>2021-03-21T11:34:55.000Z</time>
      </trkpt>
      <trkpt lat="44.98395" lon="6.03412">
        <ele>2735.3999023438</ele>
        <time>2021-03-21T11:34:56.000Z</time>
      </trkpt>
      <trkpt lat="44.98399" lon="6.03414">
        <ele>2733.3999023438</ele>
        <time>2021-03-21T11:34:57.000Z</time>
      </trkpt>
      <trkpt lat="44.98404" lon="6.03415">
        <ele>2731</ele>
        <time>2021-03-21T11:34:58.000Z</time>
      </trkpt>
      <trkpt lat="44.98407" lon="6.0342">
        <ele>2730.1999511719</ele>
        <time>2021-03-21T11:34:59.000Z</time>
      </trkpt>
      <trkpt lat="44.98405" lon="6.03423">
        <ele>2730.3999023438</ele>
        <time>2021-03-21T11:35:00.000Z</time>
      </trkpt>
      <trkpt lat="44.98406" lon="6.03423">
        <ele>2730.1999511719</ele>
        <time>2021-03-21T11:35:01.000Z</time>
      </trkpt>
      <trkpt lat="44.98405" lon="6.03422">
        <ele>2730.3999023438</ele>
        <time>2021-03-21T11:35:02.000Z</time>
      </trkpt>
      <trkpt lat="44.98406" lon="6.03422">
        <ele>2730.3999023438</ele>
        <time>2021-03-21T11:35:03.000Z</time>
      </trkpt>
      <trkpt lat="44.98406" lon="6.03422">
        <ele>2730.3999023438</ele>
        <time>2021-03-21T11:35:04.000Z</time>
      </trkpt>
      <trkpt lat="44.98406" lon="6.03422">
        <ele>2730.3999023438</ele>
        <time>2021-03-21T11:35:05.000Z</time>
      </trkpt>
      <trkpt lat="44.98406" lon="6.03422">
        <ele>2730.3999023438</ele>
        <time>2021-03-21T11:35:06.000Z</time>
      </trkpt>
      <trkpt lat="44.98406" lon="6.03422">
        <ele>2730.3999023438</ele>
        <time>2021-03-21T11:35:07.000Z</time>
      </trkpt>
      <trkpt lat="44.98406" lon="6.03422">
        <ele>2730.3999023438</ele>
        <time>2021-03-21T11:35:08.000Z</time>
      </trkpt>
      <trkpt lat="44.98406" lon="6.03422">
        <ele>2730.3999023438</ele>
        <time>2021-03-21T11:35:09.000Z</time>
      </trkpt>
      <trkpt lat="44.98406" lon="6.03421">
        <ele>2730.1999511719</ele>
        <time>2021-03-21T11:35:10.000Z</time>
      </trkpt>
      <trkpt lat="44.98406" lon="6.03421">
        <ele>2730.1999511719</ele>
        <time>2021-03-21T11:35:11.000Z</time>
      </trkpt>
      <trkpt lat="44.98406" lon="6.03421">
        <ele>2730.1999511719</ele>
        <time>2021-03-21T11:35:12.000Z</time>
      </trkpt>
      <trkpt lat="44.98406" lon="6.03421">
        <ele>2730.1999511719</ele>
        <time>2021-03-21T11:35:13.000Z</time>
      </trkpt>
      <trkpt lat="44.98406" lon="6.03421">
        <ele>2730.1999511719</ele>
        <time>2021-03-21T11:35:14.000Z</time>
      </trkpt>
      <trkpt lat="44.98406" lon="6.03421">
        <ele>2730.3999023438</ele>
        <time>2021-03-21T11:35:15.000Z</time>
      </trkpt>
      <trkpt lat="44.98406" lon="6.0342">
        <ele>2730.1999511719</ele>
        <time>2021-03-21T11:35:16.000Z</time>
      </trkpt>
      <trkpt lat="44.98406" lon="6.0342">
        <ele>2730.1999511719</ele>
        <time>2021-03-21T11:35:17.000Z</time>
      </trkpt>
      <trkpt lat="44.98407" lon="6.0342">
        <ele>2730.1999511719</ele>
        <time>2021-03-21T11:35:18.000Z</time>
      </trkpt>
      <trkpt lat="44.98407" lon="6.03421">
        <ele>2730.1999511719</ele>
        <time>2021-03-21T11:35:19.000Z</time>
      </trkpt>
      <trkpt lat="44.98407" lon="6.03421">
        <ele>2730</ele>
        <time>2021-03-21T11:35:20.000Z</time>
      </trkpt>
      <trkpt lat="44.98407" lon="6.03422">
        <ele>2730</ele>
        <time>2021-03-21T11:35:21.000Z</time>
      </trkpt>
      <trkpt lat="44.98407" lon="6.03422">
        <ele>2730</ele>
        <time>2021-03-21T11:35:22.000Z</time>
      </trkpt>
      <trkpt lat="44.98407" lon="6.03422">
        <ele>2730</ele>
        <time>2021-03-21T11:35:23.000Z</time>
      </trkpt>
      <trkpt lat="44.98407" lon="6.03422">
        <ele>2730</ele>
        <time>2021-03-21T11:35:24.000Z</time>
      </trkpt>
      <trkpt lat="44.98407" lon="6.03422">
        <ele>2730</ele>
        <time>2021-03-21T11:35:25.000Z</time>
      </trkpt>
      <trkpt lat="44.98407" lon="6.03422">
        <ele>2730.1999511719</ele>
        <time>2021-03-21T11:35:26.000Z</time>
      </trkpt>
      <trkpt lat="44.98407" lon="6.03423">
        <ele>2730.1999511719</ele>
        <time>2021-03-21T11:35:27.000Z</time>
      </trkpt>
      <trkpt lat="44.98406" lon="6.03423">
        <ele>2730.1999511719</ele>
        <time>2021-03-21T11:35:28.000Z</time>
      </trkpt>
      <trkpt lat="44.98406" lon="6.03423">
        <ele>2730.1999511719</ele>
        <time>2021-03-21T11:35:29.000Z</time>
      </trkpt>
      <trkpt lat="44.98406" lon="6.03423">
        <ele>2730.1999511719</ele>
        <time>2021-03-21T11:35:30.000Z</time>
      </trkpt>
      <trkpt lat="44.98406" lon="6.03422">
        <ele>2730.1999511719</ele>
        <time>2021-03-21T11:35:31.000Z</time>
      </trkpt>
      <trkpt lat="44.98406" lon="6.03421">
        <ele>2730.3999023438</ele>
        <time>2021-03-21T11:35:32.000Z</time>
      </trkpt>
      <trkpt lat="44.98406" lon="6.03421">
        <ele>2730.3999023438</ele>
        <time>2021-03-21T11:35:33.000Z</time>
      </trkpt>
      <trkpt lat="44.98406" lon="6.0342">
        <ele>2730.3999023438</ele>
        <time>2021-03-21T11:35:34.000Z</time>
      </trkpt>
      <trkpt lat="44.98406" lon="6.0342">
        <ele>2730.3999023438</ele>
        <time>2021-03-21T11:35:35.000Z</time>
      </trkpt>
      <trkpt lat="44.98406" lon="6.0342">
        <ele>2730.6000976562</ele>
        <time>2021-03-21T11:35:36.000Z</time>
      </trkpt>
      <trkpt lat="44.98405" lon="6.03421">
        <ele>2730.6000976562</ele>
        <time>2021-03-21T11:35:37.000Z</time>
      </trkpt>
      <trkpt lat="44.98405" lon="6.03421">
        <ele>2730.6000976562</ele>
        <time>2021-03-21T11:35:38.000Z</time>
      </trkpt>
      <trkpt lat="44.98405" lon="6.03421">
        <ele>2730.6000976562</ele>
        <time>2021-03-21T11:35:39.000Z</time>
      </trkpt>
      <trkpt lat="44.98405" lon="6.03421">
        <ele>2730.6000976562</ele>
        <time>2021-03-21T11:35:40.000Z</time>
      </trkpt>
      <trkpt lat="44.98405" lon="6.03421">
        <ele>2730.6000976562</ele>
        <time>2021-03-21T11:35:41.000Z</time>
      </trkpt>
      <trkpt lat="44.98405" lon="6.0342">
        <ele>2730.6000976562</ele>
        <time>2021-03-21T11:35:42.000Z</time>
      </trkpt>
      <trkpt lat="44.98405" lon="6.03419">
        <ele>2730.6000976562</ele>
        <time>2021-03-21T11:35:43.000Z</time>
      </trkpt>
      <trkpt lat="44.98405" lon="6.03419">
        <ele>2730.8000488281</ele>
        <time>2021-03-21T11:35:44.000Z</time>
      </trkpt>
      <trkpt lat="44.98405" lon="6.03419">
        <ele>2730.8000488281</ele>
        <time>2021-03-21T11:35:45.000Z</time>
      </trkpt>
      <trkpt lat="44.98405" lon="6.03418">
        <ele>2730.8000488281</ele>
        <time>2021-03-21T11:35:46.000Z</time>
      </trkpt>
      <trkpt lat="44.98405" lon="6.03418">
        <ele>2730.8000488281</ele>
        <time>2021-03-21T11:35:47.000Z</time>
      </trkpt>
      <trkpt lat="44.98405" lon="6.03418">
        <ele>2730.8000488281</ele>
        <time>2021-03-21T11:35:48.000Z</time>
      </trkpt>
      <trkpt lat="44.98405" lon="6.03418">
        <ele>2730.8000488281</ele>
        <time>2021-03-21T11:35:49.000Z</time>
      </trkpt>
      <trkpt lat="44.98404" lon="6.03418">
        <ele>2731</ele>
        <time>2021-03-21T11:35:50.000Z</time>
      </trkpt>
      <trkpt lat="44.98404" lon="6.03419">
        <ele>2731</ele>
        <time>2021-03-21T11:35:51.000Z</time>
      </trkpt>
      <trkpt lat="44.98404" lon="6.03419">
        <ele>2731</ele>
        <time>2021-03-21T11:35:52.000Z</time>
      </trkpt>
      <trkpt lat="44.98404" lon="6.03418">
        <ele>2731.1999511719</ele>
        <time>2021-03-21T11:35:53.000Z</time>
      </trkpt>
      <trkpt lat="44.98403" lon="6.03418">
        <ele>2731.1999511719</ele>
        <time>2021-03-21T11:35:54.000Z</time>
      </trkpt>
      <trkpt lat="44.98403" lon="6.03418">
        <ele>2731.1999511719</ele>
        <time>2021-03-21T11:35:55.000Z</time>
      </trkpt>
      <trkpt lat="44.98403" lon="6.03419">
        <ele>2731.3999023438</ele>
        <time>2021-03-21T11:35:56.000Z</time>
      </trkpt>
      <trkpt lat="44.98403" lon="6.03419">
        <ele>2731.3999023438</ele>
        <time>2021-03-21T11:35:57.000Z</time>
      </trkpt>
      <trkpt lat="44.98402" lon="6.03418">
        <ele>2731.3999023438</ele>
        <time>2021-03-21T11:35:58.000Z</time>
      </trkpt>
      <trkpt lat="44.98402" lon="6.03418">
        <ele>2731.6000976562</ele>
        <time>2021-03-21T11:35:59.000Z</time>
      </trkpt>
      <trkpt lat="44.98402" lon="6.03418">
        <ele>2731.6000976562</ele>
        <time>2021-03-21T11:36:00.000Z</time>
      </trkpt>
      <trkpt lat="44.98402" lon="6.03419">
        <ele>2731.6000976562</ele>
        <time>2021-03-21T11:36:01.000Z</time>
      </trkpt>
      <trkpt lat="44.98402" lon="6.03421">
        <ele>2731.6000976562</ele>
        <time>2021-03-21T11:36:02.000Z</time>
      </trkpt>
      <trkpt lat="44.98402" lon="6.03423">
        <ele>2731.3999023438</ele>
        <time>2021-03-21T11:36:03.000Z</time>
      </trkpt>
      <trkpt lat="44.98402" lon="6.03424">
        <ele>2731.6000976562</ele>
        <time>2021-03-21T11:36:04.000Z</time>
      </trkpt>
      <trkpt lat="44.98402" lon="6.03425">
        <ele>2731.6000976562</ele>
        <time>2021-03-21T11:36:05.000Z</time>
      </trkpt>
      <trkpt lat="44.98401" lon="6.03426">
        <ele>2731.8000488281</ele>
        <time>2021-03-21T11:36:06.000Z</time>
      </trkpt>
      <trkpt lat="44.98401" lon="6.03427">
        <ele>2731.8000488281</ele>
        <time>2021-03-21T11:36:07.000Z</time>
      </trkpt>
      <trkpt lat="44.98401" lon="6.03428">
        <ele>2732</ele>
        <time>2021-03-21T11:36:08.000Z</time>
      </trkpt>
      <trkpt lat="44.984" lon="6.03428">
        <ele>2732</ele>
        <time>2021-03-21T11:36:09.000Z</time>
      </trkpt>
      <trkpt lat="44.984" lon="6.03429">
        <ele>2732.1999511719</ele>
        <time>2021-03-21T11:36:10.000Z</time>
      </trkpt>
      <trkpt lat="44.984" lon="6.03429">
        <ele>2732.3999023438</ele>
        <time>2021-03-21T11:36:11.000Z</time>
      </trkpt>
      <trkpt lat="44.984" lon="6.03429">
        <ele>2732.3999023438</ele>
        <time>2021-03-21T11:36:12.000Z</time>
      </trkpt>
      <trkpt lat="44.984" lon="6.03429">
        <ele>2732.3999023438</ele>
        <time>2021-03-21T11:36:13.000Z</time>
      </trkpt>
      <trkpt lat="44.984" lon="6.03429">
        <ele>2732.3999023438</ele>
        <time>2021-03-21T11:36:14.000Z</time>
      </trkpt>
      <trkpt lat="44.98399" lon="6.03429">
        <ele>2732.6000976562</ele>
        <time>2021-03-21T11:36:15.000Z</time>
      </trkpt>
      <trkpt lat="44.98399" lon="6.03429">
        <ele>2732.8000488281</ele>
        <time>2021-03-21T11:36:16.000Z</time>
      </trkpt>
      <trkpt lat="44.98399" lon="6.03428">
        <ele>2732.8000488281</ele>
        <time>2021-03-21T11:36:17.000Z</time>
      </trkpt>
      <trkpt lat="44.98399" lon="6.03428">
        <ele>2732.8000488281</ele>
        <time>2021-03-21T11:36:18.000Z</time>
      </trkpt>
      <trkpt lat="44.98399" lon="6.03428">
        <ele>2732.8000488281</ele>
        <time>2021-03-21T11:36:19.000Z</time>
      </trkpt>
      <trkpt lat="44.98399" lon="6.03428">
        <ele>2732.8000488281</ele>
        <time>2021-03-21T11:36:20.000Z</time>
      </trkpt>
      <trkpt lat="44.98399" lon="6.03427">
        <ele>2733</ele>
        <time>2021-03-21T11:36:21.000Z</time>
      </trkpt>
      <trkpt lat="44.98398" lon="6.03427">
        <ele>2733.3999023438</ele>
        <time>2021-03-21T11:36:22.000Z</time>
      </trkpt>
      <trkpt lat="44.98398" lon="6.03426">
        <ele>2733.3999023438</ele>
        <time>2021-03-21T11:36:23.000Z</time>
      </trkpt>
      <trkpt lat="44.98398" lon="6.03424">
        <ele>2733.6000976562</ele>
        <time>2021-03-21T11:36:24.000Z</time>
      </trkpt>
      <trkpt lat="44.98398" lon="6.03423">
        <ele>2733.6000976562</ele>
        <time>2021-03-21T11:36:25.000Z</time>
      </trkpt>
      <trkpt lat="44.98398" lon="6.03422">
        <ele>2733.6000976562</ele>
        <time>2021-03-21T11:36:26.000Z</time>
      </trkpt>
      <trkpt lat="44.98398" lon="6.03421">
        <ele>2733.6000976562</ele>
        <time>2021-03-21T11:36:27.000Z</time>
      </trkpt>
      <trkpt lat="44.98398" lon="6.0342">
        <ele>2733.8000488281</ele>
        <time>2021-03-21T11:36:28.000Z</time>
      </trkpt>
      <trkpt lat="44.98398" lon="6.03419">
        <ele>2733.6000976562</ele>
        <time>2021-03-21T11:36:29.000Z</time>
      </trkpt>
      <trkpt lat="44.98399" lon="6.03419">
        <ele>2733.3999023438</ele>
        <time>2021-03-21T11:36:30.000Z</time>
      </trkpt>
      <trkpt lat="44.98399" lon="6.03421">
        <ele>2733</ele>
        <time>2021-03-21T11:36:31.000Z</time>
      </trkpt>
      <trkpt lat="44.98401" lon="6.03423">
        <ele>2732.1999511719</ele>
        <time>2021-03-21T11:36:32.000Z</time>
      </trkpt>
      <trkpt lat="44.98402" lon="6.03426">
        <ele>2731.3999023438</ele>
        <time>2021-03-21T11:36:33.000Z</time>
      </trkpt>
      <trkpt lat="44.98403" lon="6.0343">
        <ele>2730.8000488281</ele>
        <time>2021-03-21T11:36:34.000Z</time>
      </trkpt>
      <trkpt lat="44.98405" lon="6.03434">
        <ele>2730</ele>
        <time>2021-03-21T11:36:35.000Z</time>
      </trkpt>
      <trkpt lat="44.98405" lon="6.03437">
        <ele>2730.1999511719</ele>
        <time>2021-03-21T11:36:36.000Z</time>
      </trkpt>
      <trkpt lat="44.98406" lon="6.03438">
        <ele>2730.1999511719</ele>
        <time>2021-03-21T11:36:37.000Z</time>
      </trkpt>
      <trkpt lat="44.98406" lon="6.03438">
        <ele>2730.1999511719</ele>
        <time>2021-03-21T11:36:38.000Z</time>
      </trkpt>
      <trkpt lat="44.98406" lon="6.03437">
        <ele>2730</ele>
        <time>2021-03-21T11:36:39.000Z</time>
      </trkpt>
      <trkpt lat="44.98406" lon="6.03437">
        <ele>2730</ele>
        <time>2021-03-21T11:36:40.000Z</time>
      </trkpt>
      <trkpt lat="44.98406" lon="6.03437">
        <ele>2730</ele>
        <time>2021-03-21T11:36:41.000Z</time>
      </trkpt>
      <trkpt lat="44.98406" lon="6.03437">
        <ele>2730</ele>
        <time>2021-03-21T11:36:42.000Z</time>
      </trkpt>
      <trkpt lat="44.98406" lon="6.03436">
        <ele>2730</ele>
        <time>2021-03-21T11:36:43.000Z</time>
      </trkpt>
      <trkpt lat="44.98406" lon="6.03436">
        <ele>2729.8000488281</ele>
        <time>2021-03-21T11:36:44.000Z</time>
      </trkpt>
      <trkpt lat="44.98406" lon="6.03436">
        <ele>2730</ele>
        <time>2021-03-21T11:36:45.000Z</time>
      </trkpt>
      <trkpt lat="44.98406" lon="6.03436">
        <ele>2730</ele>
        <time>2021-03-21T11:36:46.000Z</time>
      </trkpt>
      <trkpt lat="44.98406" lon="6.03436">
        <ele>2730</ele>
        <time>2021-03-21T11:36:47.000Z</time>
      </trkpt>
      <trkpt lat="44.98405" lon="6.03436">
        <ele>2730</ele>
        <time>2021-03-21T11:36:48.000Z</time>
      </trkpt>
      <trkpt lat="44.98405" lon="6.03437">
        <ele>2730.1999511719</ele>
        <time>2021-03-21T11:36:49.000Z</time>
      </trkpt>
      <trkpt lat="44.98405" lon="6.03437">
        <ele>2730.1999511719</ele>
        <time>2021-03-21T11:36:50.000Z</time>
      </trkpt>
      <trkpt lat="44.98405" lon="6.03437">
        <ele>2730.3999023438</ele>
        <time>2021-03-21T11:36:51.000Z</time>
      </trkpt>
      <trkpt lat="44.98405" lon="6.03437">
        <ele>2730.3999023438</ele>
        <time>2021-03-21T11:36:52.000Z</time>
      </trkpt>
      <trkpt lat="44.98405" lon="6.03437">
        <ele>2730.3999023438</ele>
        <time>2021-03-21T11:36:53.000Z</time>
      </trkpt>
      <trkpt lat="44.98404" lon="6.03437">
        <ele>2730.6000976562</ele>
        <time>2021-03-21T11:36:54.000Z</time>
      </trkpt>
      <trkpt lat="44.98404" lon="6.03436">
        <ele>2730.6000976562</ele>
        <time>2021-03-21T11:36:55.000Z</time>
      </trkpt>
      <trkpt lat="44.98404" lon="6.03437">
        <ele>2730.8000488281</ele>
        <time>2021-03-21T11:36:56.000Z</time>
      </trkpt>
      <trkpt lat="44.98404" lon="6.03436">
        <ele>2730.8000488281</ele>
        <time>2021-03-21T11:36:57.000Z</time>
      </trkpt>
      <trkpt lat="44.98404" lon="6.03437">
        <ele>2731</ele>
        <time>2021-03-21T11:36:58.000Z</time>
      </trkpt>
      <trkpt lat="44.98404" lon="6.03437">
        <ele>2731</ele>
        <time>2021-03-21T11:36:59.000Z</time>
      </trkpt>
      <trkpt lat="44.98404" lon="6.03436">
        <ele>2731</ele>
        <time>2021-03-21T11:37:00.000Z</time>
      </trkpt>
      <trkpt lat="44.98403" lon="6.03437">
        <ele>2731</ele>
        <time>2021-03-21T11:37:01.000Z</time>
      </trkpt>
      <trkpt lat="44.98403" lon="6.03436">
        <ele>2731</ele>
        <time>2021-03-21T11:37:02.000Z</time>
      </trkpt>
      <trkpt lat="44.98403" lon="6.03436">
        <ele>2731.1999511719</ele>
        <time>2021-03-21T11:37:03.000Z</time>
      </trkpt>
      <trkpt lat="44.98403" lon="6.03436">
        <ele>2731.1999511719</ele>
        <time>2021-03-21T11:37:04.000Z</time>
      </trkpt>
      <trkpt lat="44.98403" lon="6.03436">
        <ele>2731.1999511719</ele>
        <time>2021-03-21T11:37:05.000Z</time>
      </trkpt>
      <trkpt lat="44.98403" lon="6.03436">
        <ele>2731.1999511719</ele>
        <time>2021-03-21T11:37:06.000Z</time>
      </trkpt>
      <trkpt lat="44.98403" lon="6.03436">
        <ele>2731.1999511719</ele>
        <time>2021-03-21T11:37:07.000Z</time>
      </trkpt>
      <trkpt lat="44.98403" lon="6.03435">
        <ele>2731.1999511719</ele>
        <time>2021-03-21T11:37:08.000Z</time>
      </trkpt>
      <trkpt lat="44.98402" lon="6.03435">
        <ele>2731.3999023438</ele>
        <time>2021-03-21T11:37:09.000Z</time>
      </trkpt>
      <trkpt lat="44.98402" lon="6.03435">
        <ele>2731.3999023438</ele>
        <time>2021-03-21T11:37:10.000Z</time>
      </trkpt>
      <trkpt lat="44.98402" lon="6.03435">
        <ele>2731.1999511719</ele>
        <time>2021-03-21T11:37:11.000Z</time>
      </trkpt>
      <trkpt lat="44.98403" lon="6.03435">
        <ele>2731.1999511719</ele>
        <time>2021-03-21T11:37:12.000Z</time>
      </trkpt>
      <trkpt lat="44.98402" lon="6.03435">
        <ele>2731.3999023438</ele>
        <time>2021-03-21T11:37:13.000Z</time>
      </trkpt>
      <trkpt lat="44.98403" lon="6.03435">
        <ele>2731.1999511719</ele>
        <time>2021-03-21T11:37:14.000Z</time>
      </trkpt>
      <trkpt lat="44.98403" lon="6.03435">
        <ele>2731.1999511719</ele>
        <time>2021-03-21T11:37:15.000Z</time>
      </trkpt>
      <trkpt lat="44.98403" lon="6.03435">
        <ele>2731.1999511719</ele>
        <time>2021-03-21T11:37:16.000Z</time>
      </trkpt>
      <trkpt lat="44.98403" lon="6.03435">
        <ele>2731.1999511719</ele>
        <time>2021-03-21T11:37:17.000Z</time>
      </trkpt>
      <trkpt lat="44.98403" lon="6.03435">
        <ele>2731.1999511719</ele>
        <time>2021-03-21T11:37:18.000Z</time>
      </trkpt>
      <trkpt lat="44.98402" lon="6.03435">
        <ele>2731.3999023438</ele>
        <time>2021-03-21T11:37:19.000Z</time>
      </trkpt>
      <trkpt lat="44.98403" lon="6.03435">
        <ele>2731.1999511719</ele>
        <time>2021-03-21T11:37:20.000Z</time>
      </trkpt>
      <trkpt lat="44.98403" lon="6.03435">
        <ele>2731.1999511719</ele>
        <time>2021-03-21T11:37:21.000Z</time>
      </trkpt>
      <trkpt lat="44.98402" lon="6.03434">
        <ele>2731.3999023438</ele>
        <time>2021-03-21T11:37:22.000Z</time>
      </trkpt>
      <trkpt lat="44.98402" lon="6.03434">
        <ele>2731.3999023438</ele>
        <time>2021-03-21T11:37:23.000Z</time>
      </trkpt>
      <trkpt lat="44.98402" lon="6.03435">
        <ele>2731.3999023438</ele>
        <time>2021-03-21T11:37:24.000Z</time>
      </trkpt>
      <trkpt lat="44.98402" lon="6.03435">
        <ele>2731.3999023438</ele>
        <time>2021-03-21T11:37:25.000Z</time>
      </trkpt>
      <trkpt lat="44.98402" lon="6.03435">
        <ele>2731.6000976562</ele>
        <time>2021-03-21T11:37:26.000Z</time>
      </trkpt>
      <trkpt lat="44.98402" lon="6.03435">
        <ele>2731.6000976562</ele>
        <time>2021-03-21T11:37:27.000Z</time>
      </trkpt>
      <trkpt lat="44.98402" lon="6.03435">
        <ele>2731.6000976562</ele>
        <time>2021-03-21T11:37:28.000Z</time>
      </trkpt>
      <trkpt lat="44.98402" lon="6.03436">
        <ele>2731.3999023438</ele>
        <time>2021-03-21T11:37:29.000Z</time>
      </trkpt>
      <trkpt lat="44.98402" lon="6.03436">
        <ele>2731.3999023438</ele>
        <time>2021-03-21T11:37:30.000Z</time>
      </trkpt>
      <trkpt lat="44.98402" lon="6.03436">
        <ele>2731.6000976562</ele>
        <time>2021-03-21T11:37:31.000Z</time>
      </trkpt>
      <trkpt lat="44.98402" lon="6.03436">
        <ele>2731.6000976562</ele>
        <time>2021-03-21T11:37:32.000Z</time>
      </trkpt>
      <trkpt lat="44.98402" lon="6.03436">
        <ele>2731.8000488281</ele>
        <time>2021-03-21T11:37:33.000Z</time>
      </trkpt>
      <trkpt lat="44.98402" lon="6.03436">
        <ele>2731.8000488281</ele>
        <time>2021-03-21T11:37:34.000Z</time>
      </trkpt>
      <trkpt lat="44.98402" lon="6.03436">
        <ele>2731.8000488281</ele>
        <time>2021-03-21T11:37:35.000Z</time>
      </trkpt>
      <trkpt lat="44.98401" lon="6.03436">
        <ele>2732</ele>
        <time>2021-03-21T11:37:36.000Z</time>
      </trkpt>
      <trkpt lat="44.98401" lon="6.03437">
        <ele>2732</ele>
        <time>2021-03-21T11:37:37.000Z</time>
      </trkpt>
      <trkpt lat="44.98402" lon="6.03436">
        <ele>2731.8000488281</ele>
        <time>2021-03-21T11:37:38.000Z</time>
      </trkpt>
      <trkpt lat="44.98401" lon="6.03436">
        <ele>2732</ele>
        <time>2021-03-21T11:37:39.000Z</time>
      </trkpt>
      <trkpt lat="44.98401" lon="6.03436">
        <ele>2732</ele>
        <time>2021-03-21T11:37:40.000Z</time>
      </trkpt>
      <trkpt lat="44.98401" lon="6.03436">
        <ele>2732</ele>
        <time>2021-03-21T11:37:41.000Z</time>
      </trkpt>
      <trkpt lat="44.98401" lon="6.03436">
        <ele>2732</ele>
        <time>2021-03-21T11:37:42.000Z</time>
      </trkpt>
      <trkpt lat="44.98401" lon="6.03436">
        <ele>2732</ele>
        <time>2021-03-21T11:37:43.000Z</time>
      </trkpt>
      <trkpt lat="44.98401" lon="6.03436">
        <ele>2732</ele>
        <time>2021-03-21T11:37:44.000Z</time>
      </trkpt>
      <trkpt lat="44.98401" lon="6.03436">
        <ele>2732</ele>
        <time>2021-03-21T11:37:45.000Z</time>
      </trkpt>
      <trkpt lat="44.98401" lon="6.03436">
        <ele>2732</ele>
        <time>2021-03-21T11:37:46.000Z</time>
      </trkpt>
      <trkpt lat="44.98401" lon="6.03435">
        <ele>2732.1999511719</ele>
        <time>2021-03-21T11:37:47.000Z</time>
      </trkpt>
      <trkpt lat="44.98401" lon="6.03435">
        <ele>2732.1999511719</ele>
        <time>2021-03-21T11:37:48.000Z</time>
      </trkpt>
      <trkpt lat="44.98401" lon="6.03435">
        <ele>2732.1999511719</ele>
        <time>2021-03-21T11:37:49.000Z</time>
      </trkpt>
      <trkpt lat="44.98401" lon="6.03435">
        <ele>2732.1999511719</ele>
        <time>2021-03-21T11:37:50.000Z</time>
      </trkpt>
      <trkpt lat="44.98401" lon="6.03435">
        <ele>2732</ele>
        <time>2021-03-21T11:37:51.000Z</time>
      </trkpt>
      <trkpt lat="44.98401" lon="6.03435">
        <ele>2732.1999511719</ele>
        <time>2021-03-21T11:37:52.000Z</time>
      </trkpt>
      <trkpt lat="44.98401" lon="6.03435">
        <ele>2732</ele>
        <time>2021-03-21T11:37:53.000Z</time>
      </trkpt>
      <trkpt lat="44.98401" lon="6.03435">
        <ele>2732</ele>
        <time>2021-03-21T11:37:54.000Z</time>
      </trkpt>
      <trkpt lat="44.98401" lon="6.03435">
        <ele>2732</ele>
        <time>2021-03-21T11:37:55.000Z</time>
      </trkpt>
      <trkpt lat="44.98401" lon="6.03435">
        <ele>2732</ele>
        <time>2021-03-21T11:37:56.000Z</time>
      </trkpt>
      <trkpt lat="44.98401" lon="6.03435">
        <ele>2732</ele>
        <time>2021-03-21T11:37:57.000Z</time>
      </trkpt>
      <trkpt lat="44.98401" lon="6.03435">
        <ele>2732</ele>
        <time>2021-03-21T11:37:58.000Z</time>
      </trkpt>
      <trkpt lat="44.98401" lon="6.03435">
        <ele>2732.1999511719</ele>
        <time>2021-03-21T11:37:59.000Z</time>
      </trkpt>
      <trkpt lat="44.984" lon="6.03435">
        <ele>2732.1999511719</ele>
        <time>2021-03-21T11:38:00.000Z</time>
      </trkpt>
      <trkpt lat="44.984" lon="6.03435">
        <ele>2732.1999511719</ele>
        <time>2021-03-21T11:38:01.000Z</time>
      </trkpt>
      <trkpt lat="44.984" lon="6.03435">
        <ele>2732.3999023438</ele>
        <time>2021-03-21T11:38:02.000Z</time>
      </trkpt>
      <trkpt lat="44.984" lon="6.03435">
        <ele>2732.1999511719</ele>
        <time>2021-03-21T11:38:03.000Z</time>
      </trkpt>
      <trkpt lat="44.984" lon="6.03435">
        <ele>2732.1999511719</ele>
        <time>2021-03-21T11:38:04.000Z</time>
      </trkpt>
      <trkpt lat="44.984" lon="6.03435">
        <ele>2732.1999511719</ele>
        <time>2021-03-21T11:38:05.000Z</time>
      </trkpt>
      <trkpt lat="44.98401" lon="6.03435">
        <ele>2732.1999511719</ele>
        <time>2021-03-21T11:38:06.000Z</time>
      </trkpt>
      <trkpt lat="44.98401" lon="6.03435">
        <ele>2732.1999511719</ele>
        <time>2021-03-21T11:38:07.000Z</time>
      </trkpt>
      <trkpt lat="44.98401" lon="6.03434">
        <ele>2732</ele>
        <time>2021-03-21T11:38:08.000Z</time>
      </trkpt>
      <trkpt lat="44.98401" lon="6.03434">
        <ele>2732</ele>
        <time>2021-03-21T11:38:09.000Z</time>
      </trkpt>
      <trkpt lat="44.98401" lon="6.03434">
        <ele>2732</ele>
        <time>2021-03-21T11:38:10.000Z</time>
      </trkpt>
      <trkpt lat="44.98401" lon="6.03434">
        <ele>2731.8000488281</ele>
        <time>2021-03-21T11:38:11.000Z</time>
      </trkpt>
      <trkpt lat="44.98401" lon="6.03434">
        <ele>2731.8000488281</ele>
        <time>2021-03-21T11:38:12.000Z</time>
      </trkpt>
      <trkpt lat="44.98401" lon="6.03434">
        <ele>2732</ele>
        <time>2021-03-21T11:38:13.000Z</time>
      </trkpt>
      <trkpt lat="44.98401" lon="6.03434">
        <ele>2731.8000488281</ele>
        <time>2021-03-21T11:38:14.000Z</time>
      </trkpt>
      <trkpt lat="44.98401" lon="6.03434">
        <ele>2732</ele>
        <time>2021-03-21T11:38:15.000Z</time>
      </trkpt>
      <trkpt lat="44.98401" lon="6.03434">
        <ele>2732</ele>
        <time>2021-03-21T11:38:16.000Z</time>
      </trkpt>
      <trkpt lat="44.98401" lon="6.03434">
        <ele>2732</ele>
        <time>2021-03-21T11:38:17.000Z</time>
      </trkpt>
      <trkpt lat="44.98401" lon="6.03434">
        <ele>2732</ele>
        <time>2021-03-21T11:38:18.000Z</time>
      </trkpt>
      <trkpt lat="44.98401" lon="6.03434">
        <ele>2732</ele>
        <time>2021-03-21T11:38:19.000Z</time>
      </trkpt>
      <trkpt lat="44.98401" lon="6.03434">
        <ele>2732</ele>
        <time>2021-03-21T11:38:20.000Z</time>
      </trkpt>
      <trkpt lat="44.98401" lon="6.03434">
        <ele>2732</ele>
        <time>2021-03-21T11:38:21.000Z</time>
      </trkpt>
      <trkpt lat="44.98401" lon="6.03434">
        <ele>2732</ele>
        <time>2021-03-21T11:38:22.000Z</time>
      </trkpt>
      <trkpt lat="44.98401" lon="6.03434">
        <ele>2731.8000488281</ele>
        <time>2021-03-21T11:38:23.000Z</time>
      </trkpt>
      <trkpt lat="44.98401" lon="6.03434">
        <ele>2731.8000488281</ele>
        <time>2021-03-21T11:38:24.000Z</time>
      </trkpt>
      <trkpt lat="44.98401" lon="6.03434">
        <ele>2731.8000488281</ele>
        <time>2021-03-21T11:38:25.000Z</time>
      </trkpt>
      <trkpt lat="44.98401" lon="6.03434">
        <ele>2731.6000976562</ele>
        <time>2021-03-21T11:38:26.000Z</time>
      </trkpt>
      <trkpt lat="44.98402" lon="6.03434">
        <ele>2731.6000976562</ele>
        <time>2021-03-21T11:38:27.000Z</time>
      </trkpt>
      <trkpt lat="44.98402" lon="6.03434">
        <ele>2731.3999023438</ele>
        <time>2021-03-21T11:38:28.000Z</time>
      </trkpt>
      <trkpt lat="44.98402" lon="6.03434">
        <ele>2731.3999023438</ele>
        <time>2021-03-21T11:38:29.000Z</time>
      </trkpt>
      <trkpt lat="44.98403" lon="6.03435">
        <ele>2731.1999511719</ele>
        <time>2021-03-21T11:38:30.000Z</time>
      </trkpt>
      <trkpt lat="44.98402" lon="6.03435">
        <ele>2731.1999511719</ele>
        <time>2021-03-21T11:38:31.000Z</time>
      </trkpt>
      <trkpt lat="44.98403" lon="6.03434">
        <ele>2731.1999511719</ele>
        <time>2021-03-21T11:38:32.000Z</time>
      </trkpt>
      <trkpt lat="44.98403" lon="6.03434">
        <ele>2731.1999511719</ele>
        <time>2021-03-21T11:38:33.000Z</time>
      </trkpt>
      <trkpt lat="44.98403" lon="6.03434">
        <ele>2731.1999511719</ele>
        <time>2021-03-21T11:38:34.000Z</time>
      </trkpt>
      <trkpt lat="44.98403" lon="6.03434">
        <ele>2731.1999511719</ele>
        <time>2021-03-21T11:38:35.000Z</time>
      </trkpt>
      <trkpt lat="44.98403" lon="6.03434">
        <ele>2731</ele>
        <time>2021-03-21T11:38:36.000Z</time>
      </trkpt>
      <trkpt lat="44.98403" lon="6.03434">
        <ele>2731</ele>
        <time>2021-03-21T11:38:37.000Z</time>
      </trkpt>
      <trkpt lat="44.98403" lon="6.03434">
        <ele>2731</ele>
        <time>2021-03-21T11:38:38.000Z</time>
      </trkpt>
      <trkpt lat="44.98403" lon="6.03434">
        <ele>2731</ele>
        <time>2021-03-21T11:38:39.000Z</time>
      </trkpt>
      <trkpt lat="44.98402" lon="6.03434">
        <ele>2731.1999511719</ele>
        <time>2021-03-21T11:38:40.000Z</time>
      </trkpt>
      <trkpt lat="44.98402" lon="6.03434">
        <ele>2731.1999511719</ele>
        <time>2021-03-21T11:38:41.000Z</time>
      </trkpt>
      <trkpt lat="44.98403" lon="6.03434">
        <ele>2731.1999511719</ele>
        <time>2021-03-21T11:38:42.000Z</time>
      </trkpt>
      <trkpt lat="44.98402" lon="6.03433">
        <ele>2731.1999511719</ele>
        <time>2021-03-21T11:38:43.000Z</time>
      </trkpt>
      <trkpt lat="44.98402" lon="6.03433">
        <ele>2731.1999511719</ele>
        <time>2021-03-21T11:38:44.000Z</time>
      </trkpt>
      <trkpt lat="44.98402" lon="6.03434">
        <ele>2731.3999023438</ele>
        <time>2021-03-21T11:38:45.000Z</time>
      </trkpt>
      <trkpt lat="44.98402" lon="6.03434">
        <ele>2731.3999023438</ele>
        <time>2021-03-21T11:38:46.000Z</time>
      </trkpt>
      <trkpt lat="44.98402" lon="6.03434">
        <ele>2731.3999023438</ele>
        <time>2021-03-21T11:38:47.000Z</time>
      </trkpt>
      <trkpt lat="44.98402" lon="6.03434">
        <ele>2731.3999023438</ele>
        <time>2021-03-21T11:38:48.000Z</time>
      </trkpt>
      <trkpt lat="44.98402" lon="6.03433">
        <ele>2731.3999023438</ele>
        <time>2021-03-21T11:38:49.000Z</time>
      </trkpt>
      <trkpt lat="44.98402" lon="6.03433">
        <ele>2731.3999023438</ele>
        <time>2021-03-21T11:38:50.000Z</time>
      </trkpt>
      <trkpt lat="44.98402" lon="6.03433">
        <ele>2731.3999023438</ele>
        <time>2021-03-21T11:38:51.000Z</time>
      </trkpt>
      <trkpt lat="44.98402" lon="6.03433">
        <ele>2731.3999023438</ele>
        <time>2021-03-21T11:38:52.000Z</time>
      </trkpt>
      <trkpt lat="44.98402" lon="6.03433">
        <ele>2731.3999023438</ele>
        <time>2021-03-21T11:38:53.000Z</time>
      </trkpt>
      <trkpt lat="44.98402" lon="6.03433">
        <ele>2731.3999023438</ele>
        <time>2021-03-21T11:38:54.000Z</time>
      </trkpt>
      <trkpt lat="44.98401" lon="6.03433">
        <ele>2731.6000976562</ele>
        <time>2021-03-21T11:38:55.000Z</time>
      </trkpt>
      <trkpt lat="44.98402" lon="6.03433">
        <ele>2731.6000976562</ele>
        <time>2021-03-21T11:38:56.000Z</time>
      </trkpt>
      <trkpt lat="44.98401" lon="6.03433">
        <ele>2731.8000488281</ele>
        <time>2021-03-21T11:38:57.000Z</time>
      </trkpt>
      <trkpt lat="44.98401" lon="6.03433">
        <ele>2731.8000488281</ele>
        <time>2021-03-21T11:38:58.000Z</time>
      </trkpt>
      <trkpt lat="44.98401" lon="6.03433">
        <ele>2731.8000488281</ele>
        <time>2021-03-21T11:38:59.000Z</time>
      </trkpt>
      <trkpt lat="44.98401" lon="6.03433">
        <ele>2732</ele>
        <time>2021-03-21T11:39:00.000Z</time>
      </trkpt>
      <trkpt lat="44.98401" lon="6.03433">
        <ele>2731.8000488281</ele>
        <time>2021-03-21T11:39:01.000Z</time>
      </trkpt>
      <trkpt lat="44.98401" lon="6.03433">
        <ele>2731.8000488281</ele>
        <time>2021-03-21T11:39:02.000Z</time>
      </trkpt>
      <trkpt lat="44.98402" lon="6.03434">
        <ele>2731.6000976562</ele>
        <time>2021-03-21T11:39:03.000Z</time>
      </trkpt>
      <trkpt lat="44.98402" lon="6.03435">
        <ele>2731.3999023438</ele>
        <time>2021-03-21T11:39:04.000Z</time>
      </trkpt>
      <trkpt lat="44.98403" lon="6.03436">
        <ele>2731</ele>
        <time>2021-03-21T11:39:05.000Z</time>
      </trkpt>
      <trkpt lat="44.98405" lon="6.03438">
        <ele>2730.1999511719</ele>
        <time>2021-03-21T11:39:06.000Z</time>
      </trkpt>
      <trkpt lat="44.98408" lon="6.03441">
        <ele>2729.3999023438</ele>
        <time>2021-03-21T11:39:07.000Z</time>
      </trkpt>
      <trkpt lat="44.98409" lon="6.03444">
        <ele>2729</ele>
        <time>2021-03-21T11:39:08.000Z</time>
      </trkpt>
      <trkpt lat="44.98411" lon="6.03448">
        <ele>2728.6000976562</ele>
        <time>2021-03-21T11:39:09.000Z</time>
      </trkpt>
      <trkpt lat="44.98413" lon="6.03452">
        <ele>2728.1999511719</ele>
        <time>2021-03-21T11:39:10.000Z</time>
      </trkpt>
      <trkpt lat="44.98416" lon="6.03455">
        <ele>2727.1999511719</ele>
        <time>2021-03-21T11:39:11.000Z</time>
      </trkpt>
      <trkpt lat="44.98419" lon="6.03457">
        <ele>2725.8000488281</ele>
        <time>2021-03-21T11:39:12.000Z</time>
      </trkpt>
      <trkpt lat="44.98423" lon="6.0346">
        <ele>2724.1999511719</ele>
        <time>2021-03-21T11:39:13.000Z</time>
      </trkpt>
      <trkpt lat="44.98427" lon="6.03465">
        <ele>2722.1999511719</ele>
        <time>2021-03-21T11:39:14.000Z</time>
      </trkpt>
      <trkpt lat="44.9843" lon="6.03471">
        <ele>2720.3999023438</ele>
        <time>2021-03-21T11:39:15.000Z</time>
      </trkpt>
      <trkpt lat="44.98434" lon="6.03477">
        <ele>2718.3999023438</ele>
        <time>2021-03-21T11:39:16.000Z</time>
      </trkpt>
      <trkpt lat="44.98437" lon="6.0348">
        <ele>2716.6000976562</ele>
        <time>2021-03-21T11:39:17.000Z</time>
      </trkpt>
      <trkpt lat="44.98441" lon="6.03482">
        <ele>2714.3999023438</ele>
        <time>2021-03-21T11:39:18.000Z</time>
      </trkpt>
      <trkpt lat="44.98445" lon="6.03484">
        <ele>2712.1999511719</ele>
        <time>2021-03-21T11:39:19.000Z</time>
      </trkpt>
      <trkpt lat="44.98449" lon="6.03486">
        <ele>2709.6000976562</ele>
        <time>2021-03-21T11:39:20.000Z</time>
      </trkpt>
      <trkpt lat="44.98453" lon="6.03489">
        <ele>2708.1999511719</ele>
        <time>2021-03-21T11:39:21.000Z</time>
      </trkpt>
      <trkpt lat="44.98457" lon="6.03494">
        <ele>2707.3999023438</ele>
        <time>2021-03-21T11:39:22.000Z</time>
      </trkpt>
      <trkpt lat="44.98459" lon="6.03498">
        <ele>2706.8000488281</ele>
        <time>2021-03-21T11:39:23.000Z</time>
      </trkpt>
      <trkpt lat="44.98464" lon="6.03503">
        <ele>2704.1999511719</ele>
        <time>2021-03-21T11:39:24.000Z</time>
      </trkpt>
      <trkpt lat="44.9847" lon="6.03508">
        <ele>2700.6000976562</ele>
        <time>2021-03-21T11:39:25.000Z</time>
      </trkpt>
      <trkpt lat="44.98474" lon="6.03515">
        <ele>2698.6000976562</ele>
        <time>2021-03-21T11:39:26.000Z</time>
      </trkpt>
      <trkpt lat="44.98478" lon="6.03525">
        <ele>2696</ele>
        <time>2021-03-21T11:39:27.000Z</time>
      </trkpt>
      <trkpt lat="44.98481" lon="6.03533">
        <ele>2693.8000488281</ele>
        <time>2021-03-21T11:39:28.000Z</time>
      </trkpt>
      <trkpt lat="44.98485" lon="6.03539">
        <ele>2691.1999511719</ele>
        <time>2021-03-21T11:39:29.000Z</time>
      </trkpt>
      <trkpt lat="44.98489" lon="6.03544">
        <ele>2689.8000488281</ele>
        <time>2021-03-21T11:39:30.000Z</time>
      </trkpt>
      <trkpt lat="44.98491" lon="6.03546">
        <ele>2689.1999511719</ele>
        <time>2021-03-21T11:39:31.000Z</time>
      </trkpt>
      <trkpt lat="44.98493" lon="6.03547">
        <ele>2688.8000488281</ele>
        <time>2021-03-21T11:39:32.000Z</time>
      </trkpt>
      <trkpt lat="44.98494" lon="6.03548">
        <ele>2688.1999511719</ele>
        <time>2021-03-21T11:39:33.000Z</time>
      </trkpt>
      <trkpt lat="44.98495" lon="6.03548">
        <ele>2688</ele>
        <time>2021-03-21T11:39:34.000Z</time>
      </trkpt>
      <trkpt lat="44.98495" lon="6.03548">
        <ele>2687.8000488281</ele>
        <time>2021-03-21T11:39:35.000Z</time>
      </trkpt>
      <trkpt lat="44.98497" lon="6.03548">
        <ele>2687.1999511719</ele>
        <time>2021-03-21T11:39:36.000Z</time>
      </trkpt>
      <trkpt lat="44.98498" lon="6.03549">
        <ele>2686.8000488281</ele>
        <time>2021-03-21T11:39:37.000Z</time>
      </trkpt>
      <trkpt lat="44.98499" lon="6.03549">
        <ele>2686.1999511719</ele>
        <time>2021-03-21T11:39:38.000Z</time>
      </trkpt>
      <trkpt lat="44.985" lon="6.03549">
        <ele>2685.8000488281</ele>
        <time>2021-03-21T11:39:39.000Z</time>
      </trkpt>
      <trkpt lat="44.98501" lon="6.0355">
        <ele>2685.1999511719</ele>
        <time>2021-03-21T11:39:40.000Z</time>
      </trkpt>
      <trkpt lat="44.98504" lon="6.03551">
        <ele>2684.1999511719</ele>
        <time>2021-03-21T11:39:41.000Z</time>
      </trkpt>
      <trkpt lat="44.98505" lon="6.03551">
        <ele>2683.8000488281</ele>
        <time>2021-03-21T11:39:42.000Z</time>
      </trkpt>
      <trkpt lat="44.98507" lon="6.03552">
        <ele>2683</ele>
        <time>2021-03-21T11:39:43.000Z</time>
      </trkpt>
      <trkpt lat="44.98508" lon="6.03553">
        <ele>2682.6000976562</ele>
        <time>2021-03-21T11:39:44.000Z</time>
      </trkpt>
      <trkpt lat="44.9851" lon="6.03555">
        <ele>2682.1999511719</ele>
        <time>2021-03-21T11:39:45.000Z</time>
      </trkpt>
      <trkpt lat="44.98511" lon="6.03556">
        <ele>2682</ele>
        <time>2021-03-21T11:39:46.000Z</time>
      </trkpt>
      <trkpt lat="44.98512" lon="6.03557">
        <ele>2682</ele>
        <time>2021-03-21T11:39:47.000Z</time>
      </trkpt>
      <trkpt lat="44.98513" lon="6.03559">
        <ele>2682</ele>
        <time>2021-03-21T11:39:48.000Z</time>
      </trkpt>
      <trkpt lat="44.98514" lon="6.03559">
        <ele>2682</ele>
        <time>2021-03-21T11:39:49.000Z</time>
      </trkpt>
      <trkpt lat="44.98514" lon="6.0356">
        <ele>2682</ele>
        <time>2021-03-21T11:39:50.000Z</time>
      </trkpt>
      <trkpt lat="44.98513" lon="6.0356">
        <ele>2682.1999511719</ele>
        <time>2021-03-21T11:39:51.000Z</time>
      </trkpt>
      <trkpt lat="44.98513" lon="6.0356">
        <ele>2682.1999511719</ele>
        <time>2021-03-21T11:39:52.000Z</time>
      </trkpt>
      <trkpt lat="44.98514" lon="6.0356">
        <ele>2682</ele>
        <time>2021-03-21T11:39:53.000Z</time>
      </trkpt>
      <trkpt lat="44.98514" lon="6.03559">
        <ele>2682</ele>
        <time>2021-03-21T11:39:54.000Z</time>
      </trkpt>
      <trkpt lat="44.98514" lon="6.03559">
        <ele>2681.8000488281</ele>
        <time>2021-03-21T11:39:55.000Z</time>
      </trkpt>
      <trkpt lat="44.98514" lon="6.03559">
        <ele>2681.6000976562</ele>
        <time>2021-03-21T11:39:56.000Z</time>
      </trkpt>
      <trkpt lat="44.98514" lon="6.03559">
        <ele>2681.6000976562</ele>
        <time>2021-03-21T11:39:57.000Z</time>
      </trkpt>
      <trkpt lat="44.98514" lon="6.03559">
        <ele>2681.3999023438</ele>
        <time>2021-03-21T11:39:58.000Z</time>
      </trkpt>
      <trkpt lat="44.98515" lon="6.03558">
        <ele>2681.1999511719</ele>
        <time>2021-03-21T11:39:59.000Z</time>
      </trkpt>
      <trkpt lat="44.98515" lon="6.03558">
        <ele>2681</ele>
        <time>2021-03-21T11:40:00.000Z</time>
      </trkpt>
      <trkpt lat="44.98515" lon="6.03558">
        <ele>2680.8000488281</ele>
        <time>2021-03-21T11:40:01.000Z</time>
      </trkpt>
      <trkpt lat="44.98515" lon="6.03558">
        <ele>2680.8000488281</ele>
        <time>2021-03-21T11:40:02.000Z</time>
      </trkpt>
      <trkpt lat="44.98515" lon="6.03558">
        <ele>2680.6000976562</ele>
        <time>2021-03-21T11:40:03.000Z</time>
      </trkpt>
      <trkpt lat="44.98516" lon="6.03558">
        <ele>2680.3999023438</ele>
        <time>2021-03-21T11:40:04.000Z</time>
      </trkpt>
      <trkpt lat="44.98516" lon="6.03557">
        <ele>2680.3999023438</ele>
        <time>2021-03-21T11:40:05.000Z</time>
      </trkpt>
      <trkpt lat="44.98516" lon="6.03557">
        <ele>2680.1999511719</ele>
        <time>2021-03-21T11:40:06.000Z</time>
      </trkpt>
      <trkpt lat="44.98516" lon="6.03557">
        <ele>2680.3999023438</ele>
        <time>2021-03-21T11:40:07.000Z</time>
      </trkpt>
      <trkpt lat="44.98515" lon="6.03557">
        <ele>2680.3999023438</ele>
        <time>2021-03-21T11:40:08.000Z</time>
      </trkpt>
      <trkpt lat="44.98515" lon="6.03557">
        <ele>2680.3999023438</ele>
        <time>2021-03-21T11:40:09.000Z</time>
      </trkpt>
      <trkpt lat="44.98515" lon="6.03557">
        <ele>2680.1999511719</ele>
        <time>2021-03-21T11:40:10.000Z</time>
      </trkpt>
      <trkpt lat="44.98515" lon="6.03557">
        <ele>2680.1999511719</ele>
        <time>2021-03-21T11:40:11.000Z</time>
      </trkpt>
      <trkpt lat="44.98515" lon="6.03556">
        <ele>2680.1999511719</ele>
        <time>2021-03-21T11:40:12.000Z</time>
      </trkpt>
      <trkpt lat="44.98515" lon="6.03556">
        <ele>2680.1999511719</ele>
        <time>2021-03-21T11:40:13.000Z</time>
      </trkpt>
      <trkpt lat="44.98515" lon="6.03556">
        <ele>2680.1999511719</ele>
        <time>2021-03-21T11:40:14.000Z</time>
      </trkpt>
      <trkpt lat="44.98515" lon="6.03556">
        <ele>2680.3999023438</ele>
        <time>2021-03-21T11:40:16.000Z</time>
      </trkpt>
      <trkpt lat="44.98515" lon="6.03556">
        <ele>2680.3999023438</ele>
        <time>2021-03-21T11:40:17.000Z</time>
      </trkpt>
      <trkpt lat="44.98514" lon="6.03556">
        <ele>2680.6000976562</ele>
        <time>2021-03-21T11:40:18.000Z</time>
      </trkpt>
      <trkpt lat="44.98514" lon="6.03556">
        <ele>2680.6000976562</ele>
        <time>2021-03-21T11:40:19.000Z</time>
      </trkpt>
      <trkpt lat="44.98514" lon="6.03556">
        <ele>2680.6000976562</ele>
        <time>2021-03-21T11:40:20.000Z</time>
      </trkpt>
      <trkpt lat="44.98514" lon="6.03556">
        <ele>2680.6000976562</ele>
        <time>2021-03-21T11:40:21.000Z</time>
      </trkpt>
      <trkpt lat="44.98514" lon="6.03556">
        <ele>2680.6000976562</ele>
        <time>2021-03-21T11:40:22.000Z</time>
      </trkpt>
      <trkpt lat="44.98514" lon="6.03556">
        <ele>2680.6000976562</ele>
        <time>2021-03-21T11:40:23.000Z</time>
      </trkpt>
      <trkpt lat="44.98514" lon="6.03557">
        <ele>2680.6000976562</ele>
        <time>2021-03-21T11:40:24.000Z</time>
      </trkpt>
      <trkpt lat="44.98515" lon="6.03557">
        <ele>2680.8000488281</ele>
        <time>2021-03-21T11:40:25.000Z</time>
      </trkpt>
      <trkpt lat="44.98517" lon="6.03559">
        <ele>2680.1999511719</ele>
        <time>2021-03-21T11:40:26.000Z</time>
      </trkpt>
      <trkpt lat="44.98519" lon="6.03561">
        <ele>2680</ele>
        <time>2021-03-21T11:40:27.000Z</time>
      </trkpt>
      <trkpt lat="44.98523" lon="6.03564">
        <ele>2679.6000976562</ele>
        <time>2021-03-21T11:40:28.000Z</time>
      </trkpt>
      <trkpt lat="44.98527" lon="6.03566">
        <ele>2678.6000976562</ele>
        <time>2021-03-21T11:40:29.000Z</time>
      </trkpt>
      <trkpt lat="44.98531" lon="6.03565">
        <ele>2676.1999511719</ele>
        <time>2021-03-21T11:40:30.000Z</time>
      </trkpt>
      <trkpt lat="44.98533" lon="6.03558">
        <ele>2673.6000976562</ele>
        <time>2021-03-21T11:40:31.000Z</time>
      </trkpt>
      <trkpt lat="44.98535" lon="6.03551">
        <ele>2671.6000976562</ele>
        <time>2021-03-21T11:40:32.000Z</time>
      </trkpt>
      <trkpt lat="44.98536" lon="6.03542">
        <ele>2669.3999023438</ele>
        <time>2021-03-21T11:40:33.000Z</time>
      </trkpt>
      <trkpt lat="44.98538" lon="6.03537">
        <ele>2668.1999511719</ele>
        <time>2021-03-21T11:40:34.000Z</time>
      </trkpt>
      <trkpt lat="44.98541" lon="6.03536">
        <ele>2667.1999511719</ele>
        <time>2021-03-21T11:40:35.000Z</time>
      </trkpt>
      <trkpt lat="44.98548" lon="6.03535">
        <ele>2663.8000488281</ele>
        <time>2021-03-21T11:40:36.000Z</time>
      </trkpt>
      <trkpt lat="44.98556" lon="6.03535">
        <ele>2660</ele>
        <time>2021-03-21T11:40:37.000Z</time>
      </trkpt>
      <trkpt lat="44.98563" lon="6.03537">
        <ele>2656.8000488281</ele>
        <time>2021-03-21T11:40:38.000Z</time>
      </trkpt>
      <trkpt lat="44.98572" lon="6.03539">
        <ele>2652.8000488281</ele>
        <time>2021-03-21T11:40:39.000Z</time>
      </trkpt>
      <trkpt lat="44.98581" lon="6.03542">
        <ele>2649</ele>
        <time>2021-03-21T11:40:40.000Z</time>
      </trkpt>
      <trkpt lat="44.98588" lon="6.03545">
        <ele>2645.8000488281</ele>
        <time>2021-03-21T11:40:41.000Z</time>
      </trkpt>
      <trkpt lat="44.98598" lon="6.03549">
        <ele>2641.6000976562</ele>
        <time>2021-03-21T11:40:42.000Z</time>
      </trkpt>
      <trkpt lat="44.98607" lon="6.0355">
        <ele>2638.6000976562</ele>
        <time>2021-03-21T11:40:43.000Z</time>
      </trkpt>
      <trkpt lat="44.98615" lon="6.0355">
        <ele>2635</ele>
        <time>2021-03-21T11:40:44.000Z</time>
      </trkpt>
      <trkpt lat="44.98624" lon="6.03548">
        <ele>2630.8000488281</ele>
        <time>2021-03-21T11:40:45.000Z</time>
      </trkpt>
      <trkpt lat="44.98631" lon="6.03542">
        <ele>2626</ele>
        <time>2021-03-21T11:40:46.000Z</time>
      </trkpt>
      <trkpt lat="44.98637" lon="6.03533">
        <ele>2621.8000488281</ele>
        <time>2021-03-21T11:40:47.000Z</time>
      </trkpt>
      <trkpt lat="44.98644" lon="6.03524">
        <ele>2616.6000976562</ele>
        <time>2021-03-21T11:40:48.000Z</time>
      </trkpt>
      <trkpt lat="44.9865" lon="6.03517">
        <ele>2611.8000488281</ele>
        <time>2021-03-21T11:40:49.000Z</time>
      </trkpt>
      <trkpt lat="44.98657" lon="6.0351">
        <ele>2607.3999023438</ele>
        <time>2021-03-21T11:40:50.000Z</time>
      </trkpt>
      <trkpt lat="44.98664" lon="6.03501">
        <ele>2603.1999511719</ele>
        <time>2021-03-21T11:40:51.000Z</time>
      </trkpt>
      <trkpt lat="44.98671" lon="6.03492">
        <ele>2598.3999023438</ele>
        <time>2021-03-21T11:40:52.000Z</time>
      </trkpt>
      <trkpt lat="44.9868" lon="6.03484">
        <ele>2592.8000488281</ele>
        <time>2021-03-21T11:40:53.000Z</time>
      </trkpt>
      <trkpt lat="44.98689" lon="6.03477">
        <ele>2588.6000976562</ele>
        <time>2021-03-21T11:40:54.000Z</time>
      </trkpt>
      <trkpt lat="44.98696" lon="6.03471">
        <ele>2585.1999511719</ele>
        <time>2021-03-21T11:40:55.000Z</time>
      </trkpt>
      <trkpt lat="44.98696" lon="6.03463">
        <ele>2584.1999511719</ele>
        <time>2021-03-21T11:40:56.000Z</time>
      </trkpt>
      <trkpt lat="44.98697" lon="6.03456">
        <ele>2583.1999511719</ele>
        <time>2021-03-21T11:40:57.000Z</time>
      </trkpt>
      <trkpt lat="44.98697" lon="6.03455">
        <ele>2583.1999511719</ele>
        <time>2021-03-21T11:40:58.000Z</time>
      </trkpt>
      <trkpt lat="44.98696" lon="6.03454">
        <ele>2583.3999023438</ele>
        <time>2021-03-21T11:40:59.000Z</time>
      </trkpt>
      <trkpt lat="44.98697" lon="6.03455">
        <ele>2583.1999511719</ele>
        <time>2021-03-21T11:41:00.000Z</time>
      </trkpt>
      <trkpt lat="44.98697" lon="6.03454">
        <ele>2583.3999023438</ele>
        <time>2021-03-21T11:41:01.000Z</time>
      </trkpt>
      <trkpt lat="44.98696" lon="6.03454">
        <ele>2583.3999023438</ele>
        <time>2021-03-21T11:41:02.000Z</time>
      </trkpt>
      <trkpt lat="44.98696" lon="6.03454">
        <ele>2583.6000976562</ele>
        <time>2021-03-21T11:41:03.000Z</time>
      </trkpt>
      <trkpt lat="44.98696" lon="6.03454">
        <ele>2583.8000488281</ele>
        <time>2021-03-21T11:41:04.000Z</time>
      </trkpt>
      <trkpt lat="44.98695" lon="6.03454">
        <ele>2584</ele>
        <time>2021-03-21T11:41:05.000Z</time>
      </trkpt>
      <trkpt lat="44.98695" lon="6.03453">
        <ele>2584.1999511719</ele>
        <time>2021-03-21T11:41:06.000Z</time>
      </trkpt>
      <trkpt lat="44.98694" lon="6.03453">
        <ele>2584.3999023438</ele>
        <time>2021-03-21T11:41:07.000Z</time>
      </trkpt>
      <trkpt lat="44.98694" lon="6.03453">
        <ele>2584.6000976562</ele>
        <time>2021-03-21T11:41:08.000Z</time>
      </trkpt>
      <trkpt lat="44.98693" lon="6.03453">
        <ele>2585</ele>
        <time>2021-03-21T11:41:09.000Z</time>
      </trkpt>
      <trkpt lat="44.98693" lon="6.03452">
        <ele>2585</ele>
        <time>2021-03-21T11:41:10.000Z</time>
      </trkpt>
      <trkpt lat="44.98693" lon="6.03452">
        <ele>2585</ele>
        <time>2021-03-21T11:41:11.000Z</time>
      </trkpt>
      <trkpt lat="44.98693" lon="6.03452">
        <ele>2585</ele>
        <time>2021-03-21T11:41:12.000Z</time>
      </trkpt>
      <trkpt lat="44.98693" lon="6.03451">
        <ele>2585</ele>
        <time>2021-03-21T11:41:13.000Z</time>
      </trkpt>
      <trkpt lat="44.98692" lon="6.03451">
        <ele>2585.1999511719</ele>
        <time>2021-03-21T11:41:14.000Z</time>
      </trkpt>
      <trkpt lat="44.98692" lon="6.03451">
        <ele>2585.1999511719</ele>
        <time>2021-03-21T11:41:15.000Z</time>
      </trkpt>
      <trkpt lat="44.98692" lon="6.03451">
        <ele>2585.3999023438</ele>
        <time>2021-03-21T11:41:16.000Z</time>
      </trkpt>
      <trkpt lat="44.98692" lon="6.0345">
        <ele>2585.6000976562</ele>
        <time>2021-03-21T11:41:17.000Z</time>
      </trkpt>
      <trkpt lat="44.98692" lon="6.0345">
        <ele>2585.6000976562</ele>
        <time>2021-03-21T11:41:18.000Z</time>
      </trkpt>
      <trkpt lat="44.98691" lon="6.0345">
        <ele>2585.8000488281</ele>
        <time>2021-03-21T11:41:19.000Z</time>
      </trkpt>
      <trkpt lat="44.98692" lon="6.03451">
        <ele>2585.3999023438</ele>
        <time>2021-03-21T11:41:20.000Z</time>
      </trkpt>
      <trkpt lat="44.98692" lon="6.03451">
        <ele>2585.3999023438</ele>
        <time>2021-03-21T11:41:21.000Z</time>
      </trkpt>
      <trkpt lat="44.98692" lon="6.03451">
        <ele>2585.6000976562</ele>
        <time>2021-03-21T11:41:22.000Z</time>
      </trkpt>
      <trkpt lat="44.98691" lon="6.0345">
        <ele>2585.8000488281</ele>
        <time>2021-03-21T11:41:23.000Z</time>
      </trkpt>
      <trkpt lat="44.98691" lon="6.0345">
        <ele>2586</ele>
        <time>2021-03-21T11:41:24.000Z</time>
      </trkpt>
      <trkpt lat="44.98691" lon="6.0345">
        <ele>2586</ele>
        <time>2021-03-21T11:41:25.000Z</time>
      </trkpt>
      <trkpt lat="44.9869" lon="6.0345">
        <ele>2586.3999023438</ele>
        <time>2021-03-21T11:41:26.000Z</time>
      </trkpt>
      <trkpt lat="44.9869" lon="6.0345">
        <ele>2586.6000976562</ele>
        <time>2021-03-21T11:41:27.000Z</time>
      </trkpt>
      <trkpt lat="44.9869" lon="6.0345">
        <ele>2586.6000976562</ele>
        <time>2021-03-21T11:41:28.000Z</time>
      </trkpt>
      <trkpt lat="44.98689" lon="6.0345">
        <ele>2586.6000976562</ele>
        <time>2021-03-21T11:41:29.000Z</time>
      </trkpt>
      <trkpt lat="44.9869" lon="6.0345">
        <ele>2586.6000976562</ele>
        <time>2021-03-21T11:41:30.000Z</time>
      </trkpt>
      <trkpt lat="44.9869" lon="6.0345">
        <ele>2586.6000976562</ele>
        <time>2021-03-21T11:41:31.000Z</time>
      </trkpt>
      <trkpt lat="44.9869" lon="6.03451">
        <ele>2586.6000976562</ele>
        <time>2021-03-21T11:41:32.000Z</time>
      </trkpt>
      <trkpt lat="44.9869" lon="6.03451">
        <ele>2586.3999023438</ele>
        <time>2021-03-21T11:41:33.000Z</time>
      </trkpt>
      <trkpt lat="44.9869" lon="6.03451">
        <ele>2586.3999023438</ele>
        <time>2021-03-21T11:41:34.000Z</time>
      </trkpt>
      <trkpt lat="44.98691" lon="6.03451">
        <ele>2586.1999511719</ele>
        <time>2021-03-21T11:41:35.000Z</time>
      </trkpt>
      <trkpt lat="44.98691" lon="6.03449">
        <ele>2585.8000488281</ele>
        <time>2021-03-21T11:41:36.000Z</time>
      </trkpt>
      <trkpt lat="44.98691" lon="6.03447">
        <ele>2585.6000976562</ele>
        <time>2021-03-21T11:41:37.000Z</time>
      </trkpt>
      <trkpt lat="44.98691" lon="6.03446">
        <ele>2585.8000488281</ele>
        <time>2021-03-21T11:41:38.000Z</time>
      </trkpt>
      <trkpt lat="44.98691" lon="6.03444">
        <ele>2585.6000976562</ele>
        <time>2021-03-21T11:41:39.000Z</time>
      </trkpt>
      <trkpt lat="44.98691" lon="6.03443">
        <ele>2585.3999023438</ele>
        <time>2021-03-21T11:41:40.000Z</time>
      </trkpt>
      <trkpt lat="44.98691" lon="6.03442">
        <ele>2585.3999023438</ele>
        <time>2021-03-21T11:41:41.000Z</time>
      </trkpt>
      <trkpt lat="44.98691" lon="6.0344">
        <ele>2585.3999023438</ele>
        <time>2021-03-21T11:41:42.000Z</time>
      </trkpt>
      <trkpt lat="44.98692" lon="6.03437">
        <ele>2585.3999023438</ele>
        <time>2021-03-21T11:41:43.000Z</time>
      </trkpt>
      <trkpt lat="44.98692" lon="6.03433">
        <ele>2585.6000976562</ele>
        <time>2021-03-21T11:41:44.000Z</time>
      </trkpt>
      <trkpt lat="44.98692" lon="6.03427">
        <ele>2585.3999023438</ele>
        <time>2021-03-21T11:41:45.000Z</time>
      </trkpt>
      <trkpt lat="44.98692" lon="6.03421">
        <ele>2584.8000488281</ele>
        <time>2021-03-21T11:41:46.000Z</time>
      </trkpt>
      <trkpt lat="44.98692" lon="6.03414">
        <ele>2584</ele>
        <time>2021-03-21T11:41:47.000Z</time>
      </trkpt>
      <trkpt lat="44.98692" lon="6.03406">
        <ele>2582.1999511719</ele>
        <time>2021-03-21T11:41:48.000Z</time>
      </trkpt>
      <trkpt lat="44.98693" lon="6.03397">
        <ele>2579.8000488281</ele>
        <time>2021-03-21T11:41:49.000Z</time>
      </trkpt>
      <trkpt lat="44.98695" lon="6.03393">
        <ele>2578.1999511719</ele>
        <time>2021-03-21T11:41:50.000Z</time>
      </trkpt>
      <trkpt lat="44.98697" lon="6.0339">
        <ele>2576.8000488281</ele>
        <time>2021-03-21T11:41:51.000Z</time>
      </trkpt>
      <trkpt lat="44.98705" lon="6.03385">
        <ele>2572.8000488281</ele>
        <time>2021-03-21T11:41:52.000Z</time>
      </trkpt>
      <trkpt lat="44.98713" lon="6.03381">
        <ele>2569</ele>
        <time>2021-03-21T11:41:53.000Z</time>
      </trkpt>
      <trkpt lat="44.98719" lon="6.03377">
        <ele>2563.8000488281</ele>
        <time>2021-03-21T11:41:54.000Z</time>
      </trkpt>
      <trkpt lat="44.98729" lon="6.03371">
        <ele>2555.8000488281</ele>
        <time>2021-03-21T11:41:55.000Z</time>
      </trkpt>
      <trkpt lat="44.98736" lon="6.03367">
        <ele>2551</ele>
        <time>2021-03-21T11:41:56.000Z</time>
      </trkpt>
      <trkpt lat="44.98744" lon="6.03361">
        <ele>2546</ele>
        <time>2021-03-21T11:41:57.000Z</time>
      </trkpt>
      <trkpt lat="44.98753" lon="6.03354">
        <ele>2540.8000488281</ele>
        <time>2021-03-21T11:41:58.000Z</time>
      </trkpt>
      <trkpt lat="44.98762" lon="6.03351">
        <ele>2537</ele>
        <time>2021-03-21T11:41:59.000Z</time>
      </trkpt>
      <trkpt lat="44.98773" lon="6.03345">
        <ele>2533.1999511719</ele>
        <time>2021-03-21T11:42:00.000Z</time>
      </trkpt>
      <trkpt lat="44.98783" lon="6.03339">
        <ele>2529.1999511719</ele>
        <time>2021-03-21T11:42:01.000Z</time>
      </trkpt>
      <trkpt lat="44.98795" lon="6.03333">
        <ele>2524.1999511719</ele>
        <time>2021-03-21T11:42:02.000Z</time>
      </trkpt>
      <trkpt lat="44.98809" lon="6.0333">
        <ele>2520.8000488281</ele>
        <time>2021-03-21T11:42:03.000Z</time>
      </trkpt>
      <trkpt lat="44.9882" lon="6.03331">
        <ele>2519.6000976562</ele>
        <time>2021-03-21T11:42:04.000Z</time>
      </trkpt>
      <trkpt lat="44.98826" lon="6.03334">
        <ele>2517.8000488281</ele>
        <time>2021-03-21T11:42:05.000Z</time>
      </trkpt>
      <trkpt lat="44.98831" lon="6.03338">
        <ele>2516.6000976562</ele>
        <time>2021-03-21T11:42:06.000Z</time>
      </trkpt>
      <trkpt lat="44.98832" lon="6.03342">
        <ele>2516.3999023438</ele>
        <time>2021-03-21T11:42:07.000Z</time>
      </trkpt>
      <trkpt lat="44.98833" lon="6.03345">
        <ele>2516.3999023438</ele>
        <time>2021-03-21T11:42:08.000Z</time>
      </trkpt>
      <trkpt lat="44.98833" lon="6.03346">
        <ele>2516.6000976562</ele>
        <time>2021-03-21T11:42:09.000Z</time>
      </trkpt>
      <trkpt lat="44.98832" lon="6.03346">
        <ele>2516.6000976562</ele>
        <time>2021-03-21T11:42:10.000Z</time>
      </trkpt>
      <trkpt lat="44.98832" lon="6.03347">
        <ele>2516.8000488281</ele>
        <time>2021-03-21T11:42:11.000Z</time>
      </trkpt>
      <trkpt lat="44.98832" lon="6.03347">
        <ele>2516.8000488281</ele>
        <time>2021-03-21T11:42:12.000Z</time>
      </trkpt>
      <trkpt lat="44.98832" lon="6.03346">
        <ele>2516.8000488281</ele>
        <time>2021-03-21T11:42:13.000Z</time>
      </trkpt>
      <trkpt lat="44.98831" lon="6.03346">
        <ele>2517</ele>
        <time>2021-03-21T11:42:14.000Z</time>
      </trkpt>
      <trkpt lat="44.9883" lon="6.03346">
        <ele>2517.3999023438</ele>
        <time>2021-03-21T11:42:15.000Z</time>
      </trkpt>
      <trkpt lat="44.98829" lon="6.03346">
        <ele>2517.6000976562</ele>
        <time>2021-03-21T11:42:16.000Z</time>
      </trkpt>
      <trkpt lat="44.98828" lon="6.03346">
        <ele>2518</ele>
        <time>2021-03-21T11:42:17.000Z</time>
      </trkpt>
      <trkpt lat="44.98828" lon="6.03346">
        <ele>2518.1999511719</ele>
        <time>2021-03-21T11:42:18.000Z</time>
      </trkpt>
      <trkpt lat="44.98827" lon="6.03346">
        <ele>2518.1999511719</ele>
        <time>2021-03-21T11:42:19.000Z</time>
      </trkpt>
      <trkpt lat="44.98828" lon="6.03346">
        <ele>2518</ele>
        <time>2021-03-21T11:42:20.000Z</time>
      </trkpt>
      <trkpt lat="44.98828" lon="6.03345">
        <ele>2518</ele>
        <time>2021-03-21T11:42:21.000Z</time>
      </trkpt>
      <trkpt lat="44.98828" lon="6.03345">
        <ele>2518</ele>
        <time>2021-03-21T11:42:22.000Z</time>
      </trkpt>
      <trkpt lat="44.98828" lon="6.03345">
        <ele>2518</ele>
        <time>2021-03-21T11:42:23.000Z</time>
      </trkpt>
      <trkpt lat="44.98828" lon="6.03344">
        <ele>2517.8000488281</ele>
        <time>2021-03-21T11:42:24.000Z</time>
      </trkpt>
      <trkpt lat="44.98828" lon="6.03344">
        <ele>2517.6000976562</ele>
        <time>2021-03-21T11:42:25.000Z</time>
      </trkpt>
      <trkpt lat="44.98829" lon="6.03343">
        <ele>2517.3999023438</ele>
        <time>2021-03-21T11:42:26.000Z</time>
      </trkpt>
      <trkpt lat="44.98829" lon="6.03342">
        <ele>2517.1999511719</ele>
        <time>2021-03-21T11:42:27.000Z</time>
      </trkpt>
      <trkpt lat="44.9883" lon="6.03341">
        <ele>2516.8000488281</ele>
        <time>2021-03-21T11:42:28.000Z</time>
      </trkpt>
      <trkpt lat="44.98832" lon="6.0334">
        <ele>2516.3999023438</ele>
        <time>2021-03-21T11:42:29.000Z</time>
      </trkpt>
      <trkpt lat="44.98833" lon="6.03339">
        <ele>2515.8000488281</ele>
        <time>2021-03-21T11:42:30.000Z</time>
      </trkpt>
      <trkpt lat="44.98835" lon="6.03337">
        <ele>2515</ele>
        <time>2021-03-21T11:42:31.000Z</time>
      </trkpt>
      <trkpt lat="44.98837" lon="6.03335">
        <ele>2514.1999511719</ele>
        <time>2021-03-21T11:42:32.000Z</time>
      </trkpt>
      <trkpt lat="44.98839" lon="6.03333">
        <ele>2513.3999023438</ele>
        <time>2021-03-21T11:42:33.000Z</time>
      </trkpt>
      <trkpt lat="44.98841" lon="6.03331">
        <ele>2512.6000976562</ele>
        <time>2021-03-21T11:42:34.000Z</time>
      </trkpt>
      <trkpt lat="44.98843" lon="6.03329">
        <ele>2512</ele>
        <time>2021-03-21T11:42:35.000Z</time>
      </trkpt>
      <trkpt lat="44.98844" lon="6.03328">
        <ele>2511.3999023438</ele>
        <time>2021-03-21T11:42:36.000Z</time>
      </trkpt>
      <trkpt lat="44.98846" lon="6.03326">
        <ele>2510.6000976562</ele>
        <time>2021-03-21T11:42:37.000Z</time>
      </trkpt>
      <trkpt lat="44.98848" lon="6.03324">
        <ele>2510</ele>
        <time>2021-03-21T11:42:38.000Z</time>
      </trkpt>
      <trkpt lat="44.98849" lon="6.03322">
        <ele>2509.1999511719</ele>
        <time>2021-03-21T11:42:39.000Z</time>
      </trkpt>
      <trkpt lat="44.98849" lon="6.03321">
        <ele>2509.1999511719</ele>
        <time>2021-03-21T11:42:40.000Z</time>
      </trkpt>
      <trkpt lat="44.98849" lon="6.0332">
        <ele>2509.1999511719</ele>
        <time>2021-03-21T11:42:41.000Z</time>
      </trkpt>
      <trkpt lat="44.98849" lon="6.0332">
        <ele>2509.1999511719</ele>
        <time>2021-03-21T11:42:42.000Z</time>
      </trkpt>
      <trkpt lat="44.98849" lon="6.0332">
        <ele>2509.3999023438</ele>
        <time>2021-03-21T11:42:43.000Z</time>
      </trkpt>
      <trkpt lat="44.98848" lon="6.0332">
        <ele>2509.6000976562</ele>
        <time>2021-03-21T11:42:44.000Z</time>
      </trkpt>
      <trkpt lat="44.98848" lon="6.03319">
        <ele>2509.6000976562</ele>
        <time>2021-03-21T11:42:45.000Z</time>
      </trkpt>
      <trkpt lat="44.98847" lon="6.03319">
        <ele>2509.8000488281</ele>
        <time>2021-03-21T11:42:46.000Z</time>
      </trkpt>
      <trkpt lat="44.98847" lon="6.03319">
        <ele>2509.8000488281</ele>
        <time>2021-03-21T11:42:47.000Z</time>
      </trkpt>
      <trkpt lat="44.98846" lon="6.03318">
        <ele>2510</ele>
        <time>2021-03-21T11:42:48.000Z</time>
      </trkpt>
      <trkpt lat="44.98846" lon="6.03318">
        <ele>2510</ele>
        <time>2021-03-21T11:42:49.000Z</time>
      </trkpt>
      <trkpt lat="44.98846" lon="6.03317">
        <ele>2510</ele>
        <time>2021-03-21T11:42:51.000Z</time>
      </trkpt>
      <trkpt lat="44.98846" lon="6.03317">
        <ele>2510</ele>
        <time>2021-03-21T11:42:52.000Z</time>
      </trkpt>
      <trkpt lat="44.98845" lon="6.03316">
        <ele>2510.1999511719</ele>
        <time>2021-03-21T11:42:55.000Z</time>
      </trkpt>
      <trkpt lat="44.98844" lon="6.03316">
        <ele>2510.1999511719</ele>
        <time>2021-03-21T11:42:56.000Z</time>
      </trkpt>
      <trkpt lat="44.98844" lon="6.03316">
        <ele>2510.1999511719</ele>
        <time>2021-03-21T11:42:57.000Z</time>
      </trkpt>
      <trkpt lat="44.98843" lon="6.03315">
        <ele>2510.1999511719</ele>
        <time>2021-03-21T11:42:59.000Z</time>
      </trkpt>
      <trkpt lat="44.98842" lon="6.03315">
        <ele>2510.3999023438</ele>
        <time>2021-03-21T11:43:00.000Z</time>
      </trkpt>
      <trkpt lat="44.98842" lon="6.03315">
        <ele>2510.6000976562</ele>
        <time>2021-03-21T11:43:01.000Z</time>
      </trkpt>
      <trkpt lat="44.98841" lon="6.03316">
        <ele>2510.8000488281</ele>
        <time>2021-03-21T11:43:02.000Z</time>
      </trkpt>
      <trkpt lat="44.98841" lon="6.03316">
        <ele>2511</ele>
        <time>2021-03-21T11:43:03.000Z</time>
      </trkpt>
      <trkpt lat="44.9884" lon="6.03317">
        <ele>2511.3999023438</ele>
        <time>2021-03-21T11:43:04.000Z</time>
      </trkpt>
      <trkpt lat="44.98841" lon="6.03317">
        <ele>2511.3999023438</ele>
        <time>2021-03-21T11:43:05.000Z</time>
      </trkpt>
      <trkpt lat="44.9884" lon="6.03317">
        <ele>2511.3999023438</ele>
        <time>2021-03-21T11:43:06.000Z</time>
      </trkpt>
      <trkpt lat="44.9884" lon="6.03317">
        <ele>2511.6000976562</ele>
        <time>2021-03-21T11:43:07.000Z</time>
      </trkpt>
      <trkpt lat="44.98839" lon="6.03316">
        <ele>2511.6000976562</ele>
        <time>2021-03-21T11:43:08.000Z</time>
      </trkpt>
      <trkpt lat="44.98839" lon="6.03316">
        <ele>2511.8000488281</ele>
        <time>2021-03-21T11:43:09.000Z</time>
      </trkpt>
      <trkpt lat="44.98839" lon="6.03316">
        <ele>2511.8000488281</ele>
        <time>2021-03-21T11:43:10.000Z</time>
      </trkpt>
      <trkpt lat="44.98839" lon="6.03316">
        <ele>2511.6000976562</ele>
        <time>2021-03-21T11:43:11.000Z</time>
      </trkpt>
      <trkpt lat="44.98839" lon="6.03317">
        <ele>2512</ele>
        <time>2021-03-21T11:43:12.000Z</time>
      </trkpt>
      <trkpt lat="44.98839" lon="6.03317">
        <ele>2512</ele>
        <time>2021-03-21T11:43:13.000Z</time>
      </trkpt>
      <trkpt lat="44.98839" lon="6.03317">
        <ele>2512</ele>
        <time>2021-03-21T11:43:14.000Z</time>
      </trkpt>
      <trkpt lat="44.98839" lon="6.03317">
        <ele>2512</ele>
        <time>2021-03-21T11:43:15.000Z</time>
      </trkpt>
      <trkpt lat="44.98839" lon="6.03317">
        <ele>2511.8000488281</ele>
        <time>2021-03-21T11:43:16.000Z</time>
      </trkpt>
      <trkpt lat="44.98839" lon="6.03317">
        <ele>2511.8000488281</ele>
        <time>2021-03-21T11:43:17.000Z</time>
      </trkpt>
      <trkpt lat="44.98839" lon="6.03316">
        <ele>2511.8000488281</ele>
        <time>2021-03-21T11:43:18.000Z</time>
      </trkpt>
      <trkpt lat="44.98839" lon="6.03316">
        <ele>2511.8000488281</ele>
        <time>2021-03-21T11:43:19.000Z</time>
      </trkpt>
      <trkpt lat="44.98838" lon="6.03316">
        <ele>2511.8000488281</ele>
        <time>2021-03-21T11:43:20.000Z</time>
      </trkpt>
      <trkpt lat="44.98839" lon="6.03316">
        <ele>2511.8000488281</ele>
        <time>2021-03-21T11:43:21.000Z</time>
      </trkpt>
      <trkpt lat="44.98839" lon="6.03315">
        <ele>2511.6000976562</ele>
        <time>2021-03-21T11:43:22.000Z</time>
      </trkpt>
      <trkpt lat="44.98839" lon="6.03315">
        <ele>2511.3999023438</ele>
        <time>2021-03-21T11:43:23.000Z</time>
      </trkpt>
      <trkpt lat="44.98839" lon="6.03315">
        <ele>2511.3999023438</ele>
        <time>2021-03-21T11:43:24.000Z</time>
      </trkpt>
      <trkpt lat="44.98839" lon="6.03315">
        <ele>2511.3999023438</ele>
        <time>2021-03-21T11:43:25.000Z</time>
      </trkpt>
      <trkpt lat="44.98838" lon="6.03315">
        <ele>2511.6000976562</ele>
        <time>2021-03-21T11:43:26.000Z</time>
      </trkpt>
      <trkpt lat="44.98838" lon="6.03315">
        <ele>2511.8000488281</ele>
        <time>2021-03-21T11:43:27.000Z</time>
      </trkpt>
      <trkpt lat="44.98838" lon="6.03315">
        <ele>2511.8000488281</ele>
        <time>2021-03-21T11:43:28.000Z</time>
      </trkpt>
      <trkpt lat="44.98838" lon="6.03315">
        <ele>2511.8000488281</ele>
        <time>2021-03-21T11:43:29.000Z</time>
      </trkpt>
      <trkpt lat="44.98837" lon="6.03315">
        <ele>2511.8000488281</ele>
        <time>2021-03-21T11:43:30.000Z</time>
      </trkpt>
      <trkpt lat="44.98837" lon="6.03315">
        <ele>2511.8000488281</ele>
        <time>2021-03-21T11:43:31.000Z</time>
      </trkpt>
      <trkpt lat="44.98837" lon="6.03315">
        <ele>2512</ele>
        <time>2021-03-21T11:43:32.000Z</time>
      </trkpt>
      <trkpt lat="44.98837" lon="6.03315">
        <ele>2512</ele>
        <time>2021-03-21T11:43:33.000Z</time>
      </trkpt>
      <trkpt lat="44.98837" lon="6.03315">
        <ele>2512</ele>
        <time>2021-03-21T11:43:34.000Z</time>
      </trkpt>
      <trkpt lat="44.98837" lon="6.03315">
        <ele>2512</ele>
        <time>2021-03-21T11:43:35.000Z</time>
      </trkpt>
      <trkpt lat="44.98837" lon="6.03315">
        <ele>2512</ele>
        <time>2021-03-21T11:43:36.000Z</time>
      </trkpt>
      <trkpt lat="44.98837" lon="6.03315">
        <ele>2512</ele>
        <time>2021-03-21T11:43:37.000Z</time>
      </trkpt>
      <trkpt lat="44.98837" lon="6.03314">
        <ele>2511.8000488281</ele>
        <time>2021-03-21T11:43:38.000Z</time>
      </trkpt>
      <trkpt lat="44.98838" lon="6.03314">
        <ele>2511.8000488281</ele>
        <time>2021-03-21T11:43:39.000Z</time>
      </trkpt>
      <trkpt lat="44.98838" lon="6.03315">
        <ele>2511.6000976562</ele>
        <time>2021-03-21T11:43:40.000Z</time>
      </trkpt>
      <trkpt lat="44.98838" lon="6.03315">
        <ele>2511.6000976562</ele>
        <time>2021-03-21T11:43:41.000Z</time>
      </trkpt>
      <trkpt lat="44.98839" lon="6.03315">
        <ele>2511.3999023438</ele>
        <time>2021-03-21T11:43:42.000Z</time>
      </trkpt>
      <trkpt lat="44.98839" lon="6.03315">
        <ele>2511.3999023438</ele>
        <time>2021-03-21T11:43:43.000Z</time>
      </trkpt>
      <trkpt lat="44.98839" lon="6.03315">
        <ele>2511.1999511719</ele>
        <time>2021-03-21T11:43:44.000Z</time>
      </trkpt>
      <trkpt lat="44.98839" lon="6.03315">
        <ele>2511.1999511719</ele>
        <time>2021-03-21T11:43:45.000Z</time>
      </trkpt>
      <trkpt lat="44.98839" lon="6.03315">
        <ele>2511.1999511719</ele>
        <time>2021-03-21T11:43:46.000Z</time>
      </trkpt>
      <trkpt lat="44.98839" lon="6.03315">
        <ele>2511.3999023438</ele>
        <time>2021-03-21T11:43:47.000Z</time>
      </trkpt>
      <trkpt lat="44.98839" lon="6.03315">
        <ele>2511.3999023438</ele>
        <time>2021-03-21T11:43:48.000Z</time>
      </trkpt>
      <trkpt lat="44.98839" lon="6.03315">
        <ele>2511.1999511719</ele>
        <time>2021-03-21T11:43:49.000Z</time>
      </trkpt>
      <trkpt lat="44.9884" lon="6.03315">
        <ele>2511.1999511719</ele>
        <time>2021-03-21T11:43:50.000Z</time>
      </trkpt>
      <trkpt lat="44.98839" lon="6.03315">
        <ele>2511.3999023438</ele>
        <time>2021-03-21T11:43:51.000Z</time>
      </trkpt>
      <trkpt lat="44.98839" lon="6.03315">
        <ele>2511.3999023438</ele>
        <time>2021-03-21T11:43:52.000Z</time>
      </trkpt>
      <trkpt lat="44.98839" lon="6.03315">
        <ele>2511.3999023438</ele>
        <time>2021-03-21T11:43:53.000Z</time>
      </trkpt>
      <trkpt lat="44.98839" lon="6.03315">
        <ele>2511.3999023438</ele>
        <time>2021-03-21T11:43:54.000Z</time>
      </trkpt>
      <trkpt lat="44.98839" lon="6.03315">
        <ele>2511.3999023438</ele>
        <time>2021-03-21T11:43:55.000Z</time>
      </trkpt>
      <trkpt lat="44.98839" lon="6.03315">
        <ele>2511.6000976562</ele>
        <time>2021-03-21T11:43:56.000Z</time>
      </trkpt>
      <trkpt lat="44.98839" lon="6.03315">
        <ele>2511.6000976562</ele>
        <time>2021-03-21T11:43:57.000Z</time>
      </trkpt>
      <trkpt lat="44.98839" lon="6.03315">
        <ele>2511.3999023438</ele>
        <time>2021-03-21T11:43:58.000Z</time>
      </trkpt>
      <trkpt lat="44.98839" lon="6.03315">
        <ele>2511.3999023438</ele>
        <time>2021-03-21T11:43:59.000Z</time>
      </trkpt>
      <trkpt lat="44.98839" lon="6.03314">
        <ele>2511.1999511719</ele>
        <time>2021-03-21T11:44:00.000Z</time>
      </trkpt>
      <trkpt lat="44.98839" lon="6.03314">
        <ele>2511.1999511719</ele>
        <time>2021-03-21T11:44:01.000Z</time>
      </trkpt>
      <trkpt lat="44.98839" lon="6.03314">
        <ele>2511.1999511719</ele>
        <time>2021-03-21T11:44:02.000Z</time>
      </trkpt>
      <trkpt lat="44.98839" lon="6.03314">
        <ele>2511.1999511719</ele>
        <time>2021-03-21T11:44:03.000Z</time>
      </trkpt>
      <trkpt lat="44.98839" lon="6.03313">
        <ele>2511</ele>
        <time>2021-03-21T11:44:04.000Z</time>
      </trkpt>
      <trkpt lat="44.98839" lon="6.03313">
        <ele>2510.8000488281</ele>
        <time>2021-03-21T11:44:05.000Z</time>
      </trkpt>
      <trkpt lat="44.9884" lon="6.03313">
        <ele>2510.8000488281</ele>
        <time>2021-03-21T11:44:06.000Z</time>
      </trkpt>
      <trkpt lat="44.9884" lon="6.03313">
        <ele>2510.8000488281</ele>
        <time>2021-03-21T11:44:07.000Z</time>
      </trkpt>
      <trkpt lat="44.9884" lon="6.03312">
        <ele>2510.6000976562</ele>
        <time>2021-03-21T11:44:08.000Z</time>
      </trkpt>
      <trkpt lat="44.98841" lon="6.03312">
        <ele>2510.3999023438</ele>
        <time>2021-03-21T11:44:09.000Z</time>
      </trkpt>
      <trkpt lat="44.98843" lon="6.03313">
        <ele>2510.1999511719</ele>
        <time>2021-03-21T11:44:10.000Z</time>
      </trkpt>
      <trkpt lat="44.98844" lon="6.03313">
        <ele>2510</ele>
        <time>2021-03-21T11:44:11.000Z</time>
      </trkpt>
      <trkpt lat="44.98845" lon="6.03314">
        <ele>2510</ele>
        <time>2021-03-21T11:44:12.000Z</time>
      </trkpt>
      <trkpt lat="44.98845" lon="6.03315">
        <ele>2510</ele>
        <time>2021-03-21T11:44:13.000Z</time>
      </trkpt>
      <trkpt lat="44.98845" lon="6.03314">
        <ele>2509.8000488281</ele>
        <time>2021-03-21T11:44:14.000Z</time>
      </trkpt>
      <trkpt lat="44.98846" lon="6.03314">
        <ele>2509.8000488281</ele>
        <time>2021-03-21T11:44:15.000Z</time>
      </trkpt>
      <trkpt lat="44.98846" lon="6.03314">
        <ele>2509.6000976562</ele>
        <time>2021-03-21T11:44:16.000Z</time>
      </trkpt>
      <trkpt lat="44.98847" lon="6.03315">
        <ele>2509.6000976562</ele>
        <time>2021-03-21T11:44:17.000Z</time>
      </trkpt>
      <trkpt lat="44.98848" lon="6.03316">
        <ele>2509.3999023438</ele>
        <time>2021-03-21T11:44:18.000Z</time>
      </trkpt>
      <trkpt lat="44.98848" lon="6.03317">
        <ele>2509.3999023438</ele>
        <time>2021-03-21T11:44:19.000Z</time>
      </trkpt>
      <trkpt lat="44.98849" lon="6.03317">
        <ele>2509.1999511719</ele>
        <time>2021-03-21T11:44:20.000Z</time>
      </trkpt>
      <trkpt lat="44.98849" lon="6.03318">
        <ele>2509.1999511719</ele>
        <time>2021-03-21T11:44:21.000Z</time>
      </trkpt>
      <trkpt lat="44.98849" lon="6.03318">
        <ele>2509.1999511719</ele>
        <time>2021-03-21T11:44:22.000Z</time>
      </trkpt>
      <trkpt lat="44.98849" lon="6.03318">
        <ele>2509.1999511719</ele>
        <time>2021-03-21T11:44:23.000Z</time>
      </trkpt>
      <trkpt lat="44.98849" lon="6.03318">
        <ele>2509.1999511719</ele>
        <time>2021-03-21T11:44:24.000Z</time>
      </trkpt>
      <trkpt lat="44.98849" lon="6.03318">
        <ele>2509.1999511719</ele>
        <time>2021-03-21T11:44:25.000Z</time>
      </trkpt>
      <trkpt lat="44.98849" lon="6.03318">
        <ele>2509.1999511719</ele>
        <time>2021-03-21T11:44:26.000Z</time>
      </trkpt>
      <trkpt lat="44.98849" lon="6.03318">
        <ele>2509</ele>
        <time>2021-03-21T11:44:27.000Z</time>
      </trkpt>
      <trkpt lat="44.98849" lon="6.03318">
        <ele>2509</ele>
        <time>2021-03-21T11:44:28.000Z</time>
      </trkpt>
      <trkpt lat="44.98849" lon="6.03318">
        <ele>2509</ele>
        <time>2021-03-21T11:44:29.000Z</time>
      </trkpt>
      <trkpt lat="44.98849" lon="6.03318">
        <ele>2509</ele>
        <time>2021-03-21T11:44:30.000Z</time>
      </trkpt>
      <trkpt lat="44.98849" lon="6.03318">
        <ele>2509</ele>
        <time>2021-03-21T11:44:31.000Z</time>
      </trkpt>
      <trkpt lat="44.9885" lon="6.03318">
        <ele>2509</ele>
        <time>2021-03-21T11:44:32.000Z</time>
      </trkpt>
      <trkpt lat="44.98849" lon="6.03318">
        <ele>2509.1999511719</ele>
        <time>2021-03-21T11:44:33.000Z</time>
      </trkpt>
      <trkpt lat="44.98848" lon="6.03319">
        <ele>2509.6000976562</ele>
        <time>2021-03-21T11:44:34.000Z</time>
      </trkpt>
      <trkpt lat="44.98848" lon="6.03319">
        <ele>2509.6000976562</ele>
        <time>2021-03-21T11:44:35.000Z</time>
      </trkpt>
      <trkpt lat="44.98848" lon="6.03319">
        <ele>2509.6000976562</ele>
        <time>2021-03-21T11:44:36.000Z</time>
      </trkpt>
      <trkpt lat="44.98848" lon="6.03319">
        <ele>2509.6000976562</ele>
        <time>2021-03-21T11:44:37.000Z</time>
      </trkpt>
      <trkpt lat="44.98848" lon="6.03319">
        <ele>2509.6000976562</ele>
        <time>2021-03-21T11:44:38.000Z</time>
      </trkpt>
      <trkpt lat="44.98848" lon="6.03319">
        <ele>2509.8000488281</ele>
        <time>2021-03-21T11:44:39.000Z</time>
      </trkpt>
      <trkpt lat="44.98848" lon="6.03319">
        <ele>2509.8000488281</ele>
        <time>2021-03-21T11:44:40.000Z</time>
      </trkpt>
      <trkpt lat="44.98848" lon="6.0332">
        <ele>2509.8000488281</ele>
        <time>2021-03-21T11:44:41.000Z</time>
      </trkpt>
      <trkpt lat="44.98848" lon="6.03319">
        <ele>2509.6000976562</ele>
        <time>2021-03-21T11:44:42.000Z</time>
      </trkpt>
      <trkpt lat="44.98848" lon="6.03319">
        <ele>2509.8000488281</ele>
        <time>2021-03-21T11:44:43.000Z</time>
      </trkpt>
      <trkpt lat="44.98848" lon="6.0332">
        <ele>2509.8000488281</ele>
        <time>2021-03-21T11:44:44.000Z</time>
      </trkpt>
      <trkpt lat="44.98847" lon="6.0332">
        <ele>2509.8000488281</ele>
        <time>2021-03-21T11:44:45.000Z</time>
      </trkpt>
      <trkpt lat="44.98848" lon="6.0332">
        <ele>2509.6000976562</ele>
        <time>2021-03-21T11:44:46.000Z</time>
      </trkpt>
      <trkpt lat="44.98848" lon="6.0332">
        <ele>2509.8000488281</ele>
        <time>2021-03-21T11:44:47.000Z</time>
      </trkpt>
      <trkpt lat="44.98848" lon="6.0332">
        <ele>2509.8000488281</ele>
        <time>2021-03-21T11:44:48.000Z</time>
      </trkpt>
      <trkpt lat="44.98847" lon="6.0332">
        <ele>2509.8000488281</ele>
        <time>2021-03-21T11:44:49.000Z</time>
      </trkpt>
      <trkpt lat="44.98847" lon="6.03319">
        <ele>2509.8000488281</ele>
        <time>2021-03-21T11:44:50.000Z</time>
      </trkpt>
      <trkpt lat="44.98847" lon="6.03319">
        <ele>2509.8000488281</ele>
        <time>2021-03-21T11:44:51.000Z</time>
      </trkpt>
      <trkpt lat="44.98847" lon="6.03319">
        <ele>2509.8000488281</ele>
        <time>2021-03-21T11:44:52.000Z</time>
      </trkpt>
      <trkpt lat="44.98847" lon="6.03319">
        <ele>2509.8000488281</ele>
        <time>2021-03-21T11:44:53.000Z</time>
      </trkpt>
      <trkpt lat="44.98847" lon="6.03319">
        <ele>2509.8000488281</ele>
        <time>2021-03-21T11:44:54.000Z</time>
      </trkpt>
      <trkpt lat="44.98847" lon="6.0332">
        <ele>2510</ele>
        <time>2021-03-21T11:44:55.000Z</time>
      </trkpt>
      <trkpt lat="44.98847" lon="6.0332">
        <ele>2510</ele>
        <time>2021-03-21T11:44:56.000Z</time>
      </trkpt>
      <trkpt lat="44.98847" lon="6.0332">
        <ele>2510</ele>
        <time>2021-03-21T11:44:57.000Z</time>
      </trkpt>
      <trkpt lat="44.98846" lon="6.0332">
        <ele>2510</ele>
        <time>2021-03-21T11:44:58.000Z</time>
      </trkpt>
      <trkpt lat="44.98847" lon="6.0332">
        <ele>2510</ele>
        <time>2021-03-21T11:44:59.000Z</time>
      </trkpt>
      <trkpt lat="44.98847" lon="6.03319">
        <ele>2510</ele>
        <time>2021-03-21T11:45:00.000Z</time>
      </trkpt>
      <trkpt lat="44.98847" lon="6.03319">
        <ele>2510</ele>
        <time>2021-03-21T11:45:01.000Z</time>
      </trkpt>
      <trkpt lat="44.98847" lon="6.0332">
        <ele>2510</ele>
        <time>2021-03-21T11:45:02.000Z</time>
      </trkpt>
      <trkpt lat="44.98847" lon="6.03319">
        <ele>2510</ele>
        <time>2021-03-21T11:45:03.000Z</time>
      </trkpt>
      <trkpt lat="44.98847" lon="6.03319">
        <ele>2510</ele>
        <time>2021-03-21T11:45:04.000Z</time>
      </trkpt>
      <trkpt lat="44.98847" lon="6.0332">
        <ele>2510</ele>
        <time>2021-03-21T11:45:05.000Z</time>
      </trkpt>
      <trkpt lat="44.98847" lon="6.03319">
        <ele>2509.8000488281</ele>
        <time>2021-03-21T11:45:06.000Z</time>
      </trkpt>
      <trkpt lat="44.98848" lon="6.03319">
        <ele>2509.8000488281</ele>
        <time>2021-03-21T11:45:07.000Z</time>
      </trkpt>
      <trkpt lat="44.98848" lon="6.03319">
        <ele>2509.6000976562</ele>
        <time>2021-03-21T11:45:08.000Z</time>
      </trkpt>
      <trkpt lat="44.98848" lon="6.03319">
        <ele>2509.6000976562</ele>
        <time>2021-03-21T11:45:09.000Z</time>
      </trkpt>
      <trkpt lat="44.98848" lon="6.03319">
        <ele>2509.6000976562</ele>
        <time>2021-03-21T11:45:10.000Z</time>
      </trkpt>
      <trkpt lat="44.98848" lon="6.03319">
        <ele>2509.6000976562</ele>
        <time>2021-03-21T11:45:11.000Z</time>
      </trkpt>
      <trkpt lat="44.98848" lon="6.03319">
        <ele>2509.3999023438</ele>
        <time>2021-03-21T11:45:12.000Z</time>
      </trkpt>
      <trkpt lat="44.98848" lon="6.03319">
        <ele>2509.3999023438</ele>
        <time>2021-03-21T11:45:13.000Z</time>
      </trkpt>
      <trkpt lat="44.98848" lon="6.03319">
        <ele>2509.6000976562</ele>
        <time>2021-03-21T11:45:14.000Z</time>
      </trkpt>
      <trkpt lat="44.98848" lon="6.03319">
        <ele>2509.6000976562</ele>
        <time>2021-03-21T11:45:15.000Z</time>
      </trkpt>
      <trkpt lat="44.98848" lon="6.0332">
        <ele>2509.6000976562</ele>
        <time>2021-03-21T11:45:16.000Z</time>
      </trkpt>
      <trkpt lat="44.98848" lon="6.03319">
        <ele>2509.8000488281</ele>
        <time>2021-03-21T11:45:17.000Z</time>
      </trkpt>
      <trkpt lat="44.98848" lon="6.0332">
        <ele>2509.6000976562</ele>
        <time>2021-03-21T11:45:18.000Z</time>
      </trkpt>
      <trkpt lat="44.98848" lon="6.0332">
        <ele>2509.6000976562</ele>
        <time>2021-03-21T11:45:19.000Z</time>
      </trkpt>
      <trkpt lat="44.98848" lon="6.0332">
        <ele>2509.8000488281</ele>
        <time>2021-03-21T11:45:20.000Z</time>
      </trkpt>
      <trkpt lat="44.98848" lon="6.0332">
        <ele>2509.8000488281</ele>
        <time>2021-03-21T11:45:21.000Z</time>
      </trkpt>
      <trkpt lat="44.98847" lon="6.0332">
        <ele>2509.8000488281</ele>
        <time>2021-03-21T11:45:22.000Z</time>
      </trkpt>
      <trkpt lat="44.98848" lon="6.0332">
        <ele>2509.6000976562</ele>
        <time>2021-03-21T11:45:23.000Z</time>
      </trkpt>
      <trkpt lat="44.98848" lon="6.0332">
        <ele>2509.6000976562</ele>
        <time>2021-03-21T11:45:24.000Z</time>
      </trkpt>
      <trkpt lat="44.98848" lon="6.0332">
        <ele>2509.6000976562</ele>
        <time>2021-03-21T11:45:25.000Z</time>
      </trkpt>
      <trkpt lat="44.98848" lon="6.0332">
        <ele>2509.6000976562</ele>
        <time>2021-03-21T11:45:26.000Z</time>
      </trkpt>
      <trkpt lat="44.98848" lon="6.0332">
        <ele>2509.6000976562</ele>
        <time>2021-03-21T11:45:27.000Z</time>
      </trkpt>
      <trkpt lat="44.98848" lon="6.0332">
        <ele>2509.6000976562</ele>
        <time>2021-03-21T11:45:28.000Z</time>
      </trkpt>
      <trkpt lat="44.98848" lon="6.0332">
        <ele>2509.6000976562</ele>
        <time>2021-03-21T11:45:29.000Z</time>
      </trkpt>
      <trkpt lat="44.98848" lon="6.03321">
        <ele>2509.6000976562</ele>
        <time>2021-03-21T11:45:30.000Z</time>
      </trkpt>
      <trkpt lat="44.98848" lon="6.03321">
        <ele>2509.6000976562</ele>
        <time>2021-03-21T11:45:31.000Z</time>
      </trkpt>
      <trkpt lat="44.98848" lon="6.0332">
        <ele>2509.6000976562</ele>
        <time>2021-03-21T11:45:32.000Z</time>
      </trkpt>
      <trkpt lat="44.98848" lon="6.0332">
        <ele>2509.6000976562</ele>
        <time>2021-03-21T11:45:33.000Z</time>
      </trkpt>
      <trkpt lat="44.98848" lon="6.0332">
        <ele>2509.6000976562</ele>
        <time>2021-03-21T11:45:34.000Z</time>
      </trkpt>
      <trkpt lat="44.98848" lon="6.0332">
        <ele>2509.6000976562</ele>
        <time>2021-03-21T11:45:35.000Z</time>
      </trkpt>
      <trkpt lat="44.98848" lon="6.0332">
        <ele>2509.8000488281</ele>
        <time>2021-03-21T11:45:36.000Z</time>
      </trkpt>
      <trkpt lat="44.98848" lon="6.0332">
        <ele>2509.8000488281</ele>
        <time>2021-03-21T11:45:37.000Z</time>
      </trkpt>
      <trkpt lat="44.98848" lon="6.0332">
        <ele>2509.8000488281</ele>
        <time>2021-03-21T11:45:38.000Z</time>
      </trkpt>
      <trkpt lat="44.98848" lon="6.0332">
        <ele>2509.6000976562</ele>
        <time>2021-03-21T11:45:39.000Z</time>
      </trkpt>
      <trkpt lat="44.98848" lon="6.0332">
        <ele>2509.8000488281</ele>
        <time>2021-03-21T11:45:40.000Z</time>
      </trkpt>
      <trkpt lat="44.98847" lon="6.0332">
        <ele>2509.8000488281</ele>
        <time>2021-03-21T11:45:41.000Z</time>
      </trkpt>
      <trkpt lat="44.98847" lon="6.0332">
        <ele>2510</ele>
        <time>2021-03-21T11:45:42.000Z</time>
      </trkpt>
      <trkpt lat="44.98846" lon="6.0332">
        <ele>2510</ele>
        <time>2021-03-21T11:45:43.000Z</time>
      </trkpt>
      <trkpt lat="44.98846" lon="6.0332">
        <ele>2510</ele>
        <time>2021-03-21T11:45:44.000Z</time>
      </trkpt>
      <trkpt lat="44.98846" lon="6.0332">
        <ele>2510</ele>
        <time>2021-03-21T11:45:45.000Z</time>
      </trkpt>
      <trkpt lat="44.98846" lon="6.0332">
        <ele>2510</ele>
        <time>2021-03-21T11:45:46.000Z</time>
      </trkpt>
      <trkpt lat="44.98846" lon="6.0332">
        <ele>2510</ele>
        <time>2021-03-21T11:45:47.000Z</time>
      </trkpt>
      <trkpt lat="44.98846" lon="6.03319">
        <ele>2510</ele>
        <time>2021-03-21T11:45:48.000Z</time>
      </trkpt>
      <trkpt lat="44.98847" lon="6.0332">
        <ele>2510</ele>
        <time>2021-03-21T11:45:49.000Z</time>
      </trkpt>
      <trkpt lat="44.98847" lon="6.03319">
        <ele>2510</ele>
        <time>2021-03-21T11:45:50.000Z</time>
      </trkpt>
      <trkpt lat="44.98847" lon="6.03319">
        <ele>2509.8000488281</ele>
        <time>2021-03-21T11:45:51.000Z</time>
      </trkpt>
      <trkpt lat="44.98847" lon="6.03319">
        <ele>2510</ele>
        <time>2021-03-21T11:45:52.000Z</time>
      </trkpt>
      <trkpt lat="44.98847" lon="6.03319">
        <ele>2510</ele>
        <time>2021-03-21T11:45:53.000Z</time>
      </trkpt>
      <trkpt lat="44.98847" lon="6.0332">
        <ele>2510</ele>
        <time>2021-03-21T11:45:54.000Z</time>
      </trkpt>
      <trkpt lat="44.98847" lon="6.0332">
        <ele>2510</ele>
        <time>2021-03-21T11:45:55.000Z</time>
      </trkpt>
      <trkpt lat="44.98847" lon="6.0332">
        <ele>2510</ele>
        <time>2021-03-21T11:45:56.000Z</time>
      </trkpt>
      <trkpt lat="44.98847" lon="6.0332">
        <ele>2510</ele>
        <time>2021-03-21T11:45:57.000Z</time>
      </trkpt>
      <trkpt lat="44.98847" lon="6.0332">
        <ele>2510</ele>
        <time>2021-03-21T11:45:58.000Z</time>
      </trkpt>
      <trkpt lat="44.98847" lon="6.0332">
        <ele>2510</ele>
        <time>2021-03-21T11:45:59.000Z</time>
      </trkpt>
      <trkpt lat="44.98847" lon="6.0332">
        <ele>2510</ele>
        <time>2021-03-21T11:46:00.000Z</time>
      </trkpt>
      <trkpt lat="44.98846" lon="6.0332">
        <ele>2510</ele>
        <time>2021-03-21T11:46:01.000Z</time>
      </trkpt>
      <trkpt lat="44.98846" lon="6.0332">
        <ele>2510.1999511719</ele>
        <time>2021-03-21T11:46:02.000Z</time>
      </trkpt>
      <trkpt lat="44.98847" lon="6.0332">
        <ele>2510.1999511719</ele>
        <time>2021-03-21T11:46:03.000Z</time>
      </trkpt>
      <trkpt lat="44.98847" lon="6.0332">
        <ele>2510</ele>
        <time>2021-03-21T11:46:04.000Z</time>
      </trkpt>
      <trkpt lat="44.98847" lon="6.0332">
        <ele>2510</ele>
        <time>2021-03-21T11:46:05.000Z</time>
      </trkpt>
      <trkpt lat="44.98847" lon="6.0332">
        <ele>2510</ele>
        <time>2021-03-21T11:46:06.000Z</time>
      </trkpt>
      <trkpt lat="44.98846" lon="6.0332">
        <ele>2510.1999511719</ele>
        <time>2021-03-21T11:46:07.000Z</time>
      </trkpt>
      <trkpt lat="44.98846" lon="6.0332">
        <ele>2510.1999511719</ele>
        <time>2021-03-21T11:46:08.000Z</time>
      </trkpt>
      <trkpt lat="44.98846" lon="6.0332">
        <ele>2510</ele>
        <time>2021-03-21T11:46:09.000Z</time>
      </trkpt>
      <trkpt lat="44.98846" lon="6.0332">
        <ele>2510</ele>
        <time>2021-03-21T11:46:10.000Z</time>
      </trkpt>
      <trkpt lat="44.98847" lon="6.0332">
        <ele>2510.1999511719</ele>
        <time>2021-03-21T11:46:11.000Z</time>
      </trkpt>
      <trkpt lat="44.98847" lon="6.0332">
        <ele>2510</ele>
        <time>2021-03-21T11:46:12.000Z</time>
      </trkpt>
      <trkpt lat="44.98847" lon="6.03321">
        <ele>2510.1999511719</ele>
        <time>2021-03-21T11:46:13.000Z</time>
      </trkpt>
      <trkpt lat="44.98846" lon="6.03321">
        <ele>2510.1999511719</ele>
        <time>2021-03-21T11:46:14.000Z</time>
      </trkpt>
      <trkpt lat="44.98846" lon="6.03321">
        <ele>2510.1999511719</ele>
        <time>2021-03-21T11:46:15.000Z</time>
      </trkpt>
      <trkpt lat="44.98847" lon="6.03321">
        <ele>2510.1999511719</ele>
        <time>2021-03-21T11:46:16.000Z</time>
      </trkpt>
      <trkpt lat="44.98846" lon="6.03321">
        <ele>2510.1999511719</ele>
        <time>2021-03-21T11:46:17.000Z</time>
      </trkpt>
      <trkpt lat="44.98846" lon="6.03321">
        <ele>2510.1999511719</ele>
        <time>2021-03-21T11:46:18.000Z</time>
      </trkpt>
      <trkpt lat="44.98846" lon="6.03321">
        <ele>2510.1999511719</ele>
        <time>2021-03-21T11:46:19.000Z</time>
      </trkpt>
      <trkpt lat="44.98846" lon="6.03321">
        <ele>2510.1999511719</ele>
        <time>2021-03-21T11:46:20.000Z</time>
      </trkpt>
      <trkpt lat="44.98846" lon="6.03321">
        <ele>2510.1999511719</ele>
        <time>2021-03-21T11:46:21.000Z</time>
      </trkpt>
      <trkpt lat="44.98847" lon="6.03321">
        <ele>2510.1999511719</ele>
        <time>2021-03-21T11:46:22.000Z</time>
      </trkpt>
      <trkpt lat="44.98847" lon="6.03321">
        <ele>2510.1999511719</ele>
        <time>2021-03-21T11:46:23.000Z</time>
      </trkpt>
      <trkpt lat="44.98847" lon="6.03321">
        <ele>2510.1999511719</ele>
        <time>2021-03-21T11:46:24.000Z</time>
      </trkpt>
      <trkpt lat="44.98847" lon="6.03321">
        <ele>2510.1999511719</ele>
        <time>2021-03-21T11:46:25.000Z</time>
      </trkpt>
      <trkpt lat="44.98847" lon="6.03321">
        <ele>2510.1999511719</ele>
        <time>2021-03-21T11:46:26.000Z</time>
      </trkpt>
      <trkpt lat="44.98847" lon="6.03321">
        <ele>2510.1999511719</ele>
        <time>2021-03-21T11:46:27.000Z</time>
      </trkpt>
      <trkpt lat="44.98847" lon="6.03321">
        <ele>2510.1999511719</ele>
        <time>2021-03-21T11:46:28.000Z</time>
      </trkpt>
      <trkpt lat="44.98846" lon="6.03321">
        <ele>2510.1999511719</ele>
        <time>2021-03-21T11:46:29.000Z</time>
      </trkpt>
      <trkpt lat="44.98846" lon="6.0332">
        <ele>2510.1999511719</ele>
        <time>2021-03-21T11:46:30.000Z</time>
      </trkpt>
      <trkpt lat="44.98846" lon="6.0332">
        <ele>2510.1999511719</ele>
        <time>2021-03-21T11:46:31.000Z</time>
      </trkpt>
      <trkpt lat="44.98846" lon="6.0332">
        <ele>2510.3999023438</ele>
        <time>2021-03-21T11:46:32.000Z</time>
      </trkpt>
      <trkpt lat="44.98846" lon="6.0332">
        <ele>2510</ele>
        <time>2021-03-21T11:46:33.000Z</time>
      </trkpt>
      <trkpt lat="44.98846" lon="6.0332">
        <ele>2510</ele>
        <time>2021-03-21T11:46:34.000Z</time>
      </trkpt>
      <trkpt lat="44.98846" lon="6.0332">
        <ele>2510</ele>
        <time>2021-03-21T11:46:35.000Z</time>
      </trkpt>
      <trkpt lat="44.98846" lon="6.03319">
        <ele>2510</ele>
        <time>2021-03-21T11:46:36.000Z</time>
      </trkpt>
      <trkpt lat="44.98847" lon="6.03319">
        <ele>2510</ele>
        <time>2021-03-21T11:46:37.000Z</time>
      </trkpt>
      <trkpt lat="44.98847" lon="6.03319">
        <ele>2510</ele>
        <time>2021-03-21T11:46:38.000Z</time>
      </trkpt>
      <trkpt lat="44.98847" lon="6.03319">
        <ele>2510</ele>
        <time>2021-03-21T11:46:39.000Z</time>
      </trkpt>
      <trkpt lat="44.98847" lon="6.03319">
        <ele>2510</ele>
        <time>2021-03-21T11:46:40.000Z</time>
      </trkpt>
      <trkpt lat="44.98847" lon="6.03319">
        <ele>2510</ele>
        <time>2021-03-21T11:46:41.000Z</time>
      </trkpt>
      <trkpt lat="44.98847" lon="6.03319">
        <ele>2510</ele>
        <time>2021-03-21T11:46:42.000Z</time>
      </trkpt>
      <trkpt lat="44.98847" lon="6.03319">
        <ele>2510</ele>
        <time>2021-03-21T11:46:43.000Z</time>
      </trkpt>
      <trkpt lat="44.98847" lon="6.03319">
        <ele>2509.8000488281</ele>
        <time>2021-03-21T11:46:44.000Z</time>
      </trkpt>
      <trkpt lat="44.98847" lon="6.03318">
        <ele>2509.8000488281</ele>
        <time>2021-03-21T11:46:45.000Z</time>
      </trkpt>
      <trkpt lat="44.98847" lon="6.03318">
        <ele>2509.8000488281</ele>
        <time>2021-03-21T11:46:46.000Z</time>
      </trkpt>
      <trkpt lat="44.98847" lon="6.03318">
        <ele>2509.8000488281</ele>
        <time>2021-03-21T11:46:47.000Z</time>
      </trkpt>
      <trkpt lat="44.98847" lon="6.03318">
        <ele>2509.8000488281</ele>
        <time>2021-03-21T11:46:48.000Z</time>
      </trkpt>
      <trkpt lat="44.98847" lon="6.03318">
        <ele>2509.8000488281</ele>
        <time>2021-03-21T11:46:49.000Z</time>
      </trkpt>
      <trkpt lat="44.98847" lon="6.03318">
        <ele>2509.8000488281</ele>
        <time>2021-03-21T11:46:50.000Z</time>
      </trkpt>
      <trkpt lat="44.98847" lon="6.03318">
        <ele>2509.8000488281</ele>
        <time>2021-03-21T11:46:51.000Z</time>
      </trkpt>
      <trkpt lat="44.98847" lon="6.03318">
        <ele>2510</ele>
        <time>2021-03-21T11:46:52.000Z</time>
      </trkpt>
      <trkpt lat="44.98847" lon="6.03319">
        <ele>2510</ele>
        <time>2021-03-21T11:46:53.000Z</time>
      </trkpt>
      <trkpt lat="44.98847" lon="6.03319">
        <ele>2510</ele>
        <time>2021-03-21T11:46:54.000Z</time>
      </trkpt>
      <trkpt lat="44.98847" lon="6.03319">
        <ele>2510</ele>
        <time>2021-03-21T11:46:55.000Z</time>
      </trkpt>
      <trkpt lat="44.98847" lon="6.03319">
        <ele>2510</ele>
        <time>2021-03-21T11:46:56.000Z</time>
      </trkpt>
      <trkpt lat="44.98846" lon="6.03319">
        <ele>2510</ele>
        <time>2021-03-21T11:46:57.000Z</time>
      </trkpt>
      <trkpt lat="44.98846" lon="6.03319">
        <ele>2510</ele>
        <time>2021-03-21T11:46:58.000Z</time>
      </trkpt>
      <trkpt lat="44.98846" lon="6.03319">
        <ele>2510</ele>
        <time>2021-03-21T11:46:59.000Z</time>
      </trkpt>
      <trkpt lat="44.98846" lon="6.03319">
        <ele>2510</ele>
        <time>2021-03-21T11:47:00.000Z</time>
      </trkpt>
      <trkpt lat="44.98846" lon="6.03319">
        <ele>2510</ele>
        <time>2021-03-21T11:47:01.000Z</time>
      </trkpt>
      <trkpt lat="44.98846" lon="6.03319">
        <ele>2510</ele>
        <time>2021-03-21T11:47:02.000Z</time>
      </trkpt>
      <trkpt lat="44.98846" lon="6.03319">
        <ele>2510</ele>
        <time>2021-03-21T11:47:03.000Z</time>
      </trkpt>
      <trkpt lat="44.98846" lon="6.03319">
        <ele>2510</ele>
        <time>2021-03-21T11:47:04.000Z</time>
      </trkpt>
      <trkpt lat="44.98847" lon="6.03319">
        <ele>2510</ele>
        <time>2021-03-21T11:47:05.000Z</time>
      </trkpt>
      <trkpt lat="44.98847" lon="6.03319">
        <ele>2510</ele>
        <time>2021-03-21T11:47:06.000Z</time>
      </trkpt>
      <trkpt lat="44.98847" lon="6.03319">
        <ele>2510</ele>
        <time>2021-03-21T11:47:07.000Z</time>
      </trkpt>
      <trkpt lat="44.98847" lon="6.03319">
        <ele>2510</ele>
        <time>2021-03-21T11:47:08.000Z</time>
      </trkpt>
      <trkpt lat="44.98847" lon="6.0332">
        <ele>2510</ele>
        <time>2021-03-21T11:47:09.000Z</time>
      </trkpt>
      <trkpt lat="44.98847" lon="6.0332">
        <ele>2510</ele>
        <time>2021-03-21T11:47:10.000Z</time>
      </trkpt>
      <trkpt lat="44.98847" lon="6.03319">
        <ele>2509.8000488281</ele>
        <time>2021-03-21T11:47:11.000Z</time>
      </trkpt>
      <trkpt lat="44.98847" lon="6.03319">
        <ele>2509.8000488281</ele>
        <time>2021-03-21T11:47:12.000Z</time>
      </trkpt>
      <trkpt lat="44.98847" lon="6.0332">
        <ele>2509.8000488281</ele>
        <time>2021-03-21T11:47:13.000Z</time>
      </trkpt>
      <trkpt lat="44.98847" lon="6.0332">
        <ele>2509.8000488281</ele>
        <time>2021-03-21T11:47:14.000Z</time>
      </trkpt>
      <trkpt lat="44.98848" lon="6.0332">
        <ele>2509.8000488281</ele>
        <time>2021-03-21T11:47:15.000Z</time>
      </trkpt>
      <trkpt lat="44.98848" lon="6.0332">
        <ele>2509.6000976562</ele>
        <time>2021-03-21T11:47:16.000Z</time>
      </trkpt>
      <trkpt lat="44.98848" lon="6.0332">
        <ele>2509.8000488281</ele>
        <time>2021-03-21T11:47:17.000Z</time>
      </trkpt>
      <trkpt lat="44.98848" lon="6.0332">
        <ele>2509.6000976562</ele>
        <time>2021-03-21T11:47:18.000Z</time>
      </trkpt>
      <trkpt lat="44.98848" lon="6.0332">
        <ele>2509.6000976562</ele>
        <time>2021-03-21T11:47:19.000Z</time>
      </trkpt>
      <trkpt lat="44.98848" lon="6.0332">
        <ele>2509.6000976562</ele>
        <time>2021-03-21T11:47:20.000Z</time>
      </trkpt>
      <trkpt lat="44.98848" lon="6.0332">
        <ele>2509.6000976562</ele>
        <time>2021-03-21T11:47:21.000Z</time>
      </trkpt>
      <trkpt lat="44.98848" lon="6.0332">
        <ele>2509.6000976562</ele>
        <time>2021-03-21T11:47:22.000Z</time>
      </trkpt>
      <trkpt lat="44.98848" lon="6.0332">
        <ele>2509.6000976562</ele>
        <time>2021-03-21T11:47:23.000Z</time>
      </trkpt>
      <trkpt lat="44.98848" lon="6.0332">
        <ele>2509.6000976562</ele>
        <time>2021-03-21T11:47:24.000Z</time>
      </trkpt>
      <trkpt lat="44.98848" lon="6.0332">
        <ele>2509.6000976562</ele>
        <time>2021-03-21T11:47:25.000Z</time>
      </trkpt>
      <trkpt lat="44.98848" lon="6.0332">
        <ele>2509.6000976562</ele>
        <time>2021-03-21T11:47:26.000Z</time>
      </trkpt>
      <trkpt lat="44.98848" lon="6.0332">
        <ele>2509.8000488281</ele>
        <time>2021-03-21T11:47:27.000Z</time>
      </trkpt>
      <trkpt lat="44.98848" lon="6.0332">
        <ele>2509.6000976562</ele>
        <time>2021-03-21T11:47:28.000Z</time>
      </trkpt>
      <trkpt lat="44.98848" lon="6.0332">
        <ele>2509.6000976562</ele>
        <time>2021-03-21T11:47:29.000Z</time>
      </trkpt>
      <trkpt lat="44.98848" lon="6.0332">
        <ele>2509.6000976562</ele>
        <time>2021-03-21T11:47:30.000Z</time>
      </trkpt>
      <trkpt lat="44.98848" lon="6.0332">
        <ele>2509.6000976562</ele>
        <time>2021-03-21T11:47:31.000Z</time>
      </trkpt>
      <trkpt lat="44.98848" lon="6.0332">
        <ele>2509.8000488281</ele>
        <time>2021-03-21T11:47:32.000Z</time>
      </trkpt>
      <trkpt lat="44.98848" lon="6.0332">
        <ele>2509.8000488281</ele>
        <time>2021-03-21T11:47:33.000Z</time>
      </trkpt>
      <trkpt lat="44.98848" lon="6.03319">
        <ele>2509.6000976562</ele>
        <time>2021-03-21T11:47:34.000Z</time>
      </trkpt>
      <trkpt lat="44.98848" lon="6.03319">
        <ele>2509.6000976562</ele>
        <time>2021-03-21T11:47:35.000Z</time>
      </trkpt>
      <trkpt lat="44.98848" lon="6.03319">
        <ele>2509.6000976562</ele>
        <time>2021-03-21T11:47:36.000Z</time>
      </trkpt>
      <trkpt lat="44.98848" lon="6.03319">
        <ele>2509.6000976562</ele>
        <time>2021-03-21T11:47:37.000Z</time>
      </trkpt>
      <trkpt lat="44.98848" lon="6.03319">
        <ele>2509.6000976562</ele>
        <time>2021-03-21T11:47:38.000Z</time>
      </trkpt>
      <trkpt lat="44.98848" lon="6.03319">
        <ele>2509.6000976562</ele>
        <time>2021-03-21T11:47:39.000Z</time>
      </trkpt>
      <trkpt lat="44.98848" lon="6.03319">
        <ele>2509.6000976562</ele>
        <time>2021-03-21T11:47:40.000Z</time>
      </trkpt>
      <trkpt lat="44.98848" lon="6.0332">
        <ele>2509.8000488281</ele>
        <time>2021-03-21T11:47:41.000Z</time>
      </trkpt>
      <trkpt lat="44.98847" lon="6.0332">
        <ele>2509.8000488281</ele>
        <time>2021-03-21T11:47:42.000Z</time>
      </trkpt>
      <trkpt lat="44.98847" lon="6.0332">
        <ele>2509.8000488281</ele>
        <time>2021-03-21T11:47:43.000Z</time>
      </trkpt>
      <trkpt lat="44.98847" lon="6.0332">
        <ele>2509.8000488281</ele>
        <time>2021-03-21T11:47:44.000Z</time>
      </trkpt>
      <trkpt lat="44.98847" lon="6.0332">
        <ele>2510</ele>
        <time>2021-03-21T11:47:45.000Z</time>
      </trkpt>
      <trkpt lat="44.98847" lon="6.0332">
        <ele>2510</ele>
        <time>2021-03-21T11:47:46.000Z</time>
      </trkpt>
      <trkpt lat="44.98847" lon="6.0332">
        <ele>2510</ele>
        <time>2021-03-21T11:47:47.000Z</time>
      </trkpt>
      <trkpt lat="44.98847" lon="6.0332">
        <ele>2510</ele>
        <time>2021-03-21T11:47:48.000Z</time>
      </trkpt>
      <trkpt lat="44.98847" lon="6.0332">
        <ele>2509.8000488281</ele>
        <time>2021-03-21T11:47:49.000Z</time>
      </trkpt>
      <trkpt lat="44.98847" lon="6.0332">
        <ele>2509.8000488281</ele>
        <time>2021-03-21T11:47:50.000Z</time>
      </trkpt>
      <trkpt lat="44.98848" lon="6.0332">
        <ele>2509.6000976562</ele>
        <time>2021-03-21T11:47:51.000Z</time>
      </trkpt>
      <trkpt lat="44.98848" lon="6.0332">
        <ele>2509.6000976562</ele>
        <time>2021-03-21T11:47:52.000Z</time>
      </trkpt>
      <trkpt lat="44.98848" lon="6.0332">
        <ele>2509.6000976562</ele>
        <time>2021-03-21T11:47:53.000Z</time>
      </trkpt>
      <trkpt lat="44.98848" lon="6.0332">
        <ele>2509.6000976562</ele>
        <time>2021-03-21T11:47:54.000Z</time>
      </trkpt>
      <trkpt lat="44.98848" lon="6.0332">
        <ele>2509.6000976562</ele>
        <time>2021-03-21T11:47:55.000Z</time>
      </trkpt>
      <trkpt lat="44.98848" lon="6.0332">
        <ele>2509.6000976562</ele>
        <time>2021-03-21T11:47:56.000Z</time>
      </trkpt>
      <trkpt lat="44.98848" lon="6.03319">
        <ele>2509.6000976562</ele>
        <time>2021-03-21T11:47:57.000Z</time>
      </trkpt>
      <trkpt lat="44.98848" lon="6.03319">
        <ele>2509.6000976562</ele>
        <time>2021-03-21T11:47:58.000Z</time>
      </trkpt>
      <trkpt lat="44.98848" lon="6.03319">
        <ele>2509.6000976562</ele>
        <time>2021-03-21T11:47:59.000Z</time>
      </trkpt>
      <trkpt lat="44.98848" lon="6.03319">
        <ele>2509.3999023438</ele>
        <time>2021-03-21T11:48:00.000Z</time>
      </trkpt>
      <trkpt lat="44.98848" lon="6.03319">
        <ele>2509.6000976562</ele>
        <time>2021-03-21T11:48:01.000Z</time>
      </trkpt>
      <trkpt lat="44.98848" lon="6.03319">
        <ele>2509.6000976562</ele>
        <time>2021-03-21T11:48:02.000Z</time>
      </trkpt>
      <trkpt lat="44.98848" lon="6.03319">
        <ele>2509.6000976562</ele>
        <time>2021-03-21T11:48:03.000Z</time>
      </trkpt>
      <trkpt lat="44.98848" lon="6.03319">
        <ele>2509.6000976562</ele>
        <time>2021-03-21T11:48:04.000Z</time>
      </trkpt>
      <trkpt lat="44.98848" lon="6.03319">
        <ele>2509.6000976562</ele>
        <time>2021-03-21T11:48:05.000Z</time>
      </trkpt>
      <trkpt lat="44.98848" lon="6.03319">
        <ele>2509.6000976562</ele>
        <time>2021-03-21T11:48:06.000Z</time>
      </trkpt>
      <trkpt lat="44.98848" lon="6.03319">
        <ele>2509.6000976562</ele>
        <time>2021-03-21T11:48:07.000Z</time>
      </trkpt>
      <trkpt lat="44.98848" lon="6.03319">
        <ele>2509.6000976562</ele>
        <time>2021-03-21T11:48:08.000Z</time>
      </trkpt>
      <trkpt lat="44.98847" lon="6.03319">
        <ele>2509.8000488281</ele>
        <time>2021-03-21T11:48:09.000Z</time>
      </trkpt>
      <trkpt lat="44.98848" lon="6.03319">
        <ele>2509.8000488281</ele>
        <time>2021-03-21T11:48:10.000Z</time>
      </trkpt>
      <trkpt lat="44.98847" lon="6.03319">
        <ele>2509.8000488281</ele>
        <time>2021-03-21T11:48:11.000Z</time>
      </trkpt>
      <trkpt lat="44.98847" lon="6.0332">
        <ele>2510</ele>
        <time>2021-03-21T11:48:12.000Z</time>
      </trkpt>
      <trkpt lat="44.98847" lon="6.03319">
        <ele>2509.8000488281</ele>
        <time>2021-03-21T11:48:13.000Z</time>
      </trkpt>
      <trkpt lat="44.98847" lon="6.03319">
        <ele>2509.8000488281</ele>
        <time>2021-03-21T11:48:14.000Z</time>
      </trkpt>
      <trkpt lat="44.98847" lon="6.03318">
        <ele>2509.8000488281</ele>
        <time>2021-03-21T11:48:15.000Z</time>
      </trkpt>
      <trkpt lat="44.98847" lon="6.03318">
        <ele>2509.8000488281</ele>
        <time>2021-03-21T11:48:16.000Z</time>
      </trkpt>
      <trkpt lat="44.98847" lon="6.03318">
        <ele>2509.8000488281</ele>
        <time>2021-03-21T11:48:17.000Z</time>
      </trkpt>
      <trkpt lat="44.98847" lon="6.03318">
        <ele>2509.8000488281</ele>
        <time>2021-03-21T11:48:18.000Z</time>
      </trkpt>
      <trkpt lat="44.98847" lon="6.03318">
        <ele>2509.8000488281</ele>
        <time>2021-03-21T11:48:19.000Z</time>
      </trkpt>
      <trkpt lat="44.98847" lon="6.03318">
        <ele>2509.8000488281</ele>
        <time>2021-03-21T11:48:20.000Z</time>
      </trkpt>
      <trkpt lat="44.98847" lon="6.03318">
        <ele>2509.8000488281</ele>
        <time>2021-03-21T11:48:21.000Z</time>
      </trkpt>
      <trkpt lat="44.98847" lon="6.03318">
        <ele>2509.8000488281</ele>
        <time>2021-03-21T11:48:22.000Z</time>
      </trkpt>
      <trkpt lat="44.98847" lon="6.03318">
        <ele>2509.8000488281</ele>
        <time>2021-03-21T11:48:23.000Z</time>
      </trkpt>
      <trkpt lat="44.98847" lon="6.03318">
        <ele>2509.8000488281</ele>
        <time>2021-03-21T11:48:24.000Z</time>
      </trkpt>
      <trkpt lat="44.98847" lon="6.03318">
        <ele>2509.8000488281</ele>
        <time>2021-03-21T11:48:25.000Z</time>
      </trkpt>
      <trkpt lat="44.98847" lon="6.03319">
        <ele>2509.8000488281</ele>
        <time>2021-03-21T11:48:26.000Z</time>
      </trkpt>
      <trkpt lat="44.98847" lon="6.03318">
        <ele>2509.8000488281</ele>
        <time>2021-03-21T11:48:27.000Z</time>
      </trkpt>
      <trkpt lat="44.98847" lon="6.03318">
        <ele>2509.8000488281</ele>
        <time>2021-03-21T11:48:28.000Z</time>
      </trkpt>
      <trkpt lat="44.98847" lon="6.03318">
        <ele>2509.8000488281</ele>
        <time>2021-03-21T11:48:29.000Z</time>
      </trkpt>
      <trkpt lat="44.98847" lon="6.03318">
        <ele>2509.8000488281</ele>
        <time>2021-03-21T11:48:30.000Z</time>
      </trkpt>
      <trkpt lat="44.98847" lon="6.03318">
        <ele>2509.8000488281</ele>
        <time>2021-03-21T11:48:31.000Z</time>
      </trkpt>
      <trkpt lat="44.98847" lon="6.03318">
        <ele>2509.8000488281</ele>
        <time>2021-03-21T11:48:32.000Z</time>
      </trkpt>
      <trkpt lat="44.98847" lon="6.03318">
        <ele>2509.8000488281</ele>
        <time>2021-03-21T11:48:33.000Z</time>
      </trkpt>
      <trkpt lat="44.98847" lon="6.03318">
        <ele>2509.8000488281</ele>
        <time>2021-03-21T11:48:34.000Z</time>
      </trkpt>
      <trkpt lat="44.98846" lon="6.03318">
        <ele>2510</ele>
        <time>2021-03-21T11:48:35.000Z</time>
      </trkpt>
      <trkpt lat="44.98846" lon="6.03318">
        <ele>2510.1999511719</ele>
        <time>2021-03-21T11:48:36.000Z</time>
      </trkpt>
      <trkpt lat="44.98845" lon="6.03318">
        <ele>2510.1999511719</ele>
        <time>2021-03-21T11:48:37.000Z</time>
      </trkpt>
      <trkpt lat="44.98845" lon="6.03318">
        <ele>2510.1999511719</ele>
        <time>2021-03-21T11:48:38.000Z</time>
      </trkpt>
      <trkpt lat="44.98845" lon="6.03318">
        <ele>2510.1999511719</ele>
        <time>2021-03-21T11:48:39.000Z</time>
      </trkpt>
      <trkpt lat="44.98845" lon="6.03318">
        <ele>2510.1999511719</ele>
        <time>2021-03-21T11:48:40.000Z</time>
      </trkpt>
      <trkpt lat="44.98845" lon="6.03318">
        <ele>2510.1999511719</ele>
        <time>2021-03-21T11:48:41.000Z</time>
      </trkpt>
      <trkpt lat="44.98845" lon="6.03318">
        <ele>2510.1999511719</ele>
        <time>2021-03-21T11:48:42.000Z</time>
      </trkpt>
      <trkpt lat="44.98846" lon="6.03318">
        <ele>2510</ele>
        <time>2021-03-21T11:48:43.000Z</time>
      </trkpt>
      <trkpt lat="44.98846" lon="6.03318">
        <ele>2510</ele>
        <time>2021-03-21T11:48:44.000Z</time>
      </trkpt>
      <trkpt lat="44.98846" lon="6.03318">
        <ele>2510</ele>
        <time>2021-03-21T11:48:45.000Z</time>
      </trkpt>
      <trkpt lat="44.98846" lon="6.03318">
        <ele>2510</ele>
        <time>2021-03-21T11:48:46.000Z</time>
      </trkpt>
      <trkpt lat="44.98846" lon="6.03318">
        <ele>2510</ele>
        <time>2021-03-21T11:48:47.000Z</time>
      </trkpt>
      <trkpt lat="44.98845" lon="6.03318">
        <ele>2510</ele>
        <time>2021-03-21T11:48:48.000Z</time>
      </trkpt>
      <trkpt lat="44.98846" lon="6.03318">
        <ele>2510</ele>
        <time>2021-03-21T11:48:49.000Z</time>
      </trkpt>
      <trkpt lat="44.98846" lon="6.03318">
        <ele>2510</ele>
        <time>2021-03-21T11:48:50.000Z</time>
      </trkpt>
      <trkpt lat="44.98846" lon="6.03318">
        <ele>2510</ele>
        <time>2021-03-21T11:48:51.000Z</time>
      </trkpt>
      <trkpt lat="44.98846" lon="6.03317">
        <ele>2510</ele>
        <time>2021-03-21T11:48:52.000Z</time>
      </trkpt>
      <trkpt lat="44.98846" lon="6.03317">
        <ele>2510</ele>
        <time>2021-03-21T11:48:53.000Z</time>
      </trkpt>
      <trkpt lat="44.98846" lon="6.03317">
        <ele>2510</ele>
        <time>2021-03-21T11:48:54.000Z</time>
      </trkpt>
      <trkpt lat="44.98846" lon="6.03317">
        <ele>2510</ele>
        <time>2021-03-21T11:48:55.000Z</time>
      </trkpt>
      <trkpt lat="44.98846" lon="6.03317">
        <ele>2509.8000488281</ele>
        <time>2021-03-21T11:48:56.000Z</time>
      </trkpt>
      <trkpt lat="44.98846" lon="6.03317">
        <ele>2509.8000488281</ele>
        <time>2021-03-21T11:48:57.000Z</time>
      </trkpt>
      <trkpt lat="44.98846" lon="6.03317">
        <ele>2510</ele>
        <time>2021-03-21T11:48:58.000Z</time>
      </trkpt>
      <trkpt lat="44.98846" lon="6.03316">
        <ele>2509.8000488281</ele>
        <time>2021-03-21T11:48:59.000Z</time>
      </trkpt>
      <trkpt lat="44.98847" lon="6.03317">
        <ele>2509.8000488281</ele>
        <time>2021-03-21T11:49:00.000Z</time>
      </trkpt>
      <trkpt lat="44.98848" lon="6.03317">
        <ele>2509.6000976562</ele>
        <time>2021-03-21T11:49:01.000Z</time>
      </trkpt>
      <trkpt lat="44.98848" lon="6.03318">
        <ele>2509.6000976562</ele>
        <time>2021-03-21T11:49:02.000Z</time>
      </trkpt>
      <trkpt lat="44.98848" lon="6.03318">
        <ele>2509.3999023438</ele>
        <time>2021-03-21T11:49:03.000Z</time>
      </trkpt>
      <trkpt lat="44.98848" lon="6.03319">
        <ele>2509.6000976562</ele>
        <time>2021-03-21T11:49:04.000Z</time>
      </trkpt>
      <trkpt lat="44.98848" lon="6.0332">
        <ele>2509.6000976562</ele>
        <time>2021-03-21T11:49:05.000Z</time>
      </trkpt>
      <trkpt lat="44.98849" lon="6.03321">
        <ele>2509.3999023438</ele>
        <time>2021-03-21T11:49:06.000Z</time>
      </trkpt>
      <trkpt lat="44.98849" lon="6.03322">
        <ele>2509.3999023438</ele>
        <time>2021-03-21T11:49:07.000Z</time>
      </trkpt>
      <trkpt lat="44.98849" lon="6.03323">
        <ele>2509.3999023438</ele>
        <time>2021-03-21T11:49:08.000Z</time>
      </trkpt>
      <trkpt lat="44.98849" lon="6.03324">
        <ele>2509.1999511719</ele>
        <time>2021-03-21T11:49:09.000Z</time>
      </trkpt>
      <trkpt lat="44.98849" lon="6.03324">
        <ele>2509.3999023438</ele>
        <time>2021-03-21T11:49:10.000Z</time>
      </trkpt>
      <trkpt lat="44.98849" lon="6.03326">
        <ele>2509.3999023438</ele>
        <time>2021-03-21T11:49:11.000Z</time>
      </trkpt>
      <trkpt lat="44.98849" lon="6.03326">
        <ele>2509.6000976562</ele>
        <time>2021-03-21T11:49:12.000Z</time>
      </trkpt>
      <trkpt lat="44.98849" lon="6.03327">
        <ele>2509.8000488281</ele>
        <time>2021-03-21T11:49:13.000Z</time>
      </trkpt>
      <trkpt lat="44.98849" lon="6.03327">
        <ele>2509.8000488281</ele>
        <time>2021-03-21T11:49:14.000Z</time>
      </trkpt>
      <trkpt lat="44.98848" lon="6.03328">
        <ele>2510.1999511719</ele>
        <time>2021-03-21T11:49:15.000Z</time>
      </trkpt>
      <trkpt lat="44.98847" lon="6.03329">
        <ele>2510.6000976562</ele>
        <time>2021-03-21T11:49:16.000Z</time>
      </trkpt>
      <trkpt lat="44.98847" lon="6.0333">
        <ele>2510.8000488281</ele>
        <time>2021-03-21T11:49:17.000Z</time>
      </trkpt>
      <trkpt lat="44.98846" lon="6.03331">
        <ele>2511</ele>
        <time>2021-03-21T11:49:18.000Z</time>
      </trkpt>
      <trkpt lat="44.98846" lon="6.03332">
        <ele>2511.1999511719</ele>
        <time>2021-03-21T11:49:19.000Z</time>
      </trkpt>
      <trkpt lat="44.98845" lon="6.03332">
        <ele>2511.3999023438</ele>
        <time>2021-03-21T11:49:20.000Z</time>
      </trkpt>
      <trkpt lat="44.98845" lon="6.03333">
        <ele>2511.6000976562</ele>
        <time>2021-03-21T11:49:21.000Z</time>
      </trkpt>
      <trkpt lat="44.98844" lon="6.03334">
        <ele>2511.8000488281</ele>
        <time>2021-03-21T11:49:22.000Z</time>
      </trkpt>
      <trkpt lat="44.98844" lon="6.03335">
        <ele>2512</ele>
        <time>2021-03-21T11:49:23.000Z</time>
      </trkpt>
      <trkpt lat="44.98843" lon="6.03335">
        <ele>2512.1999511719</ele>
        <time>2021-03-21T11:49:24.000Z</time>
      </trkpt>
      <trkpt lat="44.98843" lon="6.03335">
        <ele>2512.3999023438</ele>
        <time>2021-03-21T11:49:25.000Z</time>
      </trkpt>
      <trkpt lat="44.98843" lon="6.03336">
        <ele>2512.3999023438</ele>
        <time>2021-03-21T11:49:26.000Z</time>
      </trkpt>
      <trkpt lat="44.98843" lon="6.03336">
        <ele>2512.6000976562</ele>
        <time>2021-03-21T11:49:27.000Z</time>
      </trkpt>
      <trkpt lat="44.98842" lon="6.03337">
        <ele>2513</ele>
        <time>2021-03-21T11:49:28.000Z</time>
      </trkpt>
      <trkpt lat="44.98841" lon="6.03338">
        <ele>2513.1999511719</ele>
        <time>2021-03-21T11:49:29.000Z</time>
      </trkpt>
      <trkpt lat="44.98841" lon="6.03339">
        <ele>2513.3999023438</ele>
        <time>2021-03-21T11:49:30.000Z</time>
      </trkpt>
      <trkpt lat="44.9884" lon="6.0334">
        <ele>2513.6000976562</ele>
        <time>2021-03-21T11:49:31.000Z</time>
      </trkpt>
      <trkpt lat="44.9884" lon="6.03341">
        <ele>2513.6000976562</ele>
        <time>2021-03-21T11:49:32.000Z</time>
      </trkpt>
      <trkpt lat="44.9884" lon="6.03342">
        <ele>2513.8000488281</ele>
        <time>2021-03-21T11:49:33.000Z</time>
      </trkpt>
      <trkpt lat="44.9884" lon="6.03343">
        <ele>2514</ele>
        <time>2021-03-21T11:49:34.000Z</time>
      </trkpt>
      <trkpt lat="44.98839" lon="6.03345">
        <ele>2514.1999511719</ele>
        <time>2021-03-21T11:49:35.000Z</time>
      </trkpt>
      <trkpt lat="44.98839" lon="6.03345">
        <ele>2514.3999023438</ele>
        <time>2021-03-21T11:49:36.000Z</time>
      </trkpt>
      <trkpt lat="44.98839" lon="6.03346">
        <ele>2514.6000976562</ele>
        <time>2021-03-21T11:49:37.000Z</time>
      </trkpt>
      <trkpt lat="44.98838" lon="6.03347">
        <ele>2514.8000488281</ele>
        <time>2021-03-21T11:49:38.000Z</time>
      </trkpt>
      <trkpt lat="44.98838" lon="6.03348">
        <ele>2515</ele>
        <time>2021-03-21T11:49:39.000Z</time>
      </trkpt>
      <trkpt lat="44.98837" lon="6.03349">
        <ele>2515.1999511719</ele>
        <time>2021-03-21T11:49:40.000Z</time>
      </trkpt>
      <trkpt lat="44.98838" lon="6.0335">
        <ele>2515.1999511719</ele>
        <time>2021-03-21T11:49:41.000Z</time>
      </trkpt>
      <trkpt lat="44.98837" lon="6.03352">
        <ele>2515.1999511719</ele>
        <time>2021-03-21T11:49:42.000Z</time>
      </trkpt>
      <trkpt lat="44.98837" lon="6.03353">
        <ele>2515.3999023438</ele>
        <time>2021-03-21T11:49:43.000Z</time>
      </trkpt>
      <trkpt lat="44.98837" lon="6.03353">
        <ele>2515.3999023438</ele>
        <time>2021-03-21T11:49:44.000Z</time>
      </trkpt>
      <trkpt lat="44.98837" lon="6.03355">
        <ele>2515.3999023438</ele>
        <time>2021-03-21T11:49:45.000Z</time>
      </trkpt>
      <trkpt lat="44.98837" lon="6.03356">
        <ele>2515.3999023438</ele>
        <time>2021-03-21T11:49:46.000Z</time>
      </trkpt>
      <trkpt lat="44.98837" lon="6.03356">
        <ele>2515.3999023438</ele>
        <time>2021-03-21T11:49:47.000Z</time>
      </trkpt>
      <trkpt lat="44.98837" lon="6.03358">
        <ele>2515.6000976562</ele>
        <time>2021-03-21T11:49:48.000Z</time>
      </trkpt>
      <trkpt lat="44.98837" lon="6.03359">
        <ele>2515.6000976562</ele>
        <time>2021-03-21T11:49:49.000Z</time>
      </trkpt>
      <trkpt lat="44.98836" lon="6.0336">
        <ele>2515.8000488281</ele>
        <time>2021-03-21T11:49:50.000Z</time>
      </trkpt>
      <trkpt lat="44.98836" lon="6.03361">
        <ele>2516</ele>
        <time>2021-03-21T11:49:51.000Z</time>
      </trkpt>
      <trkpt lat="44.98835" lon="6.03361">
        <ele>2516.1999511719</ele>
        <time>2021-03-21T11:49:52.000Z</time>
      </trkpt>
      <trkpt lat="44.98836" lon="6.03362">
        <ele>2516</ele>
        <time>2021-03-21T11:49:53.000Z</time>
      </trkpt>
      <trkpt lat="44.98836" lon="6.03363">
        <ele>2516.1999511719</ele>
        <time>2021-03-21T11:49:54.000Z</time>
      </trkpt>
      <trkpt lat="44.98836" lon="6.03364">
        <ele>2516.1999511719</ele>
        <time>2021-03-21T11:49:55.000Z</time>
      </trkpt>
      <trkpt lat="44.98835" lon="6.03365">
        <ele>2516.3999023438</ele>
        <time>2021-03-21T11:49:56.000Z</time>
      </trkpt>
      <trkpt lat="44.98835" lon="6.03366">
        <ele>2516.3999023438</ele>
        <time>2021-03-21T11:49:57.000Z</time>
      </trkpt>
      <trkpt lat="44.98835" lon="6.03367">
        <ele>2516.6000976562</ele>
        <time>2021-03-21T11:49:58.000Z</time>
      </trkpt>
      <trkpt lat="44.98835" lon="6.03368">
        <ele>2516.8000488281</ele>
        <time>2021-03-21T11:49:59.000Z</time>
      </trkpt>
      <trkpt lat="44.98834" lon="6.03369">
        <ele>2516.8000488281</ele>
        <time>2021-03-21T11:50:00.000Z</time>
      </trkpt>
      <trkpt lat="44.98834" lon="6.0337">
        <ele>2517</ele>
        <time>2021-03-21T11:50:01.000Z</time>
      </trkpt>
      <trkpt lat="44.98833" lon="6.0337">
        <ele>2517.1999511719</ele>
        <time>2021-03-21T11:50:02.000Z</time>
      </trkpt>
      <trkpt lat="44.98833" lon="6.03371">
        <ele>2517.3999023438</ele>
        <time>2021-03-21T11:50:03.000Z</time>
      </trkpt>
      <trkpt lat="44.98833" lon="6.03372">
        <ele>2517.6000976562</ele>
        <time>2021-03-21T11:50:04.000Z</time>
      </trkpt>
      <trkpt lat="44.98832" lon="6.03373">
        <ele>2517.6000976562</ele>
        <time>2021-03-21T11:50:05.000Z</time>
      </trkpt>
      <trkpt lat="44.98832" lon="6.03374">
        <ele>2517.8000488281</ele>
        <time>2021-03-21T11:50:06.000Z</time>
      </trkpt>
      <trkpt lat="44.98832" lon="6.03375">
        <ele>2517.6000976562</ele>
        <time>2021-03-21T11:50:07.000Z</time>
      </trkpt>
      <trkpt lat="44.98832" lon="6.03376">
        <ele>2517.8000488281</ele>
        <time>2021-03-21T11:50:08.000Z</time>
      </trkpt>
      <trkpt lat="44.98832" lon="6.03377">
        <ele>2517.8000488281</ele>
        <time>2021-03-21T11:50:09.000Z</time>
      </trkpt>
      <trkpt lat="44.98832" lon="6.03377">
        <ele>2518</ele>
        <time>2021-03-21T11:50:10.000Z</time>
      </trkpt>
      <trkpt lat="44.98832" lon="6.03378">
        <ele>2518.1999511719</ele>
        <time>2021-03-21T11:50:11.000Z</time>
      </trkpt>
      <trkpt lat="44.98831" lon="6.0338">
        <ele>2518.3999023438</ele>
        <time>2021-03-21T11:50:12.000Z</time>
      </trkpt>
      <trkpt lat="44.98831" lon="6.03381">
        <ele>2518.8000488281</ele>
        <time>2021-03-21T11:50:13.000Z</time>
      </trkpt>
      <trkpt lat="44.98831" lon="6.03382">
        <ele>2519</ele>
        <time>2021-03-21T11:50:14.000Z</time>
      </trkpt>
      <trkpt lat="44.9883" lon="6.03382">
        <ele>2519</ele>
        <time>2021-03-21T11:50:15.000Z</time>
      </trkpt>
      <trkpt lat="44.9883" lon="6.03384">
        <ele>2519.1999511719</ele>
        <time>2021-03-21T11:50:16.000Z</time>
      </trkpt>
      <trkpt lat="44.9883" lon="6.03384">
        <ele>2519.3999023438</ele>
        <time>2021-03-21T11:50:17.000Z</time>
      </trkpt>
      <trkpt lat="44.9883" lon="6.03385">
        <ele>2519.6000976562</ele>
        <time>2021-03-21T11:50:18.000Z</time>
      </trkpt>
      <trkpt lat="44.9883" lon="6.03386">
        <ele>2519.8000488281</ele>
        <time>2021-03-21T11:50:19.000Z</time>
      </trkpt>
      <trkpt lat="44.98829" lon="6.03387">
        <ele>2520</ele>
        <time>2021-03-21T11:50:20.000Z</time>
      </trkpt>
      <trkpt lat="44.98829" lon="6.03388">
        <ele>2520</ele>
        <time>2021-03-21T11:50:21.000Z</time>
      </trkpt>
      <trkpt lat="44.98829" lon="6.03389">
        <ele>2520.1999511719</ele>
        <time>2021-03-21T11:50:22.000Z</time>
      </trkpt>
      <trkpt lat="44.98828" lon="6.0339">
        <ele>2520.3999023438</ele>
        <time>2021-03-21T11:50:23.000Z</time>
      </trkpt>
      <trkpt lat="44.98828" lon="6.03391">
        <ele>2520.6000976562</ele>
        <time>2021-03-21T11:50:24.000Z</time>
      </trkpt>
      <trkpt lat="44.98828" lon="6.03392">
        <ele>2520.6000976562</ele>
        <time>2021-03-21T11:50:25.000Z</time>
      </trkpt>
      <trkpt lat="44.98828" lon="6.03392">
        <ele>2520.8000488281</ele>
        <time>2021-03-21T11:50:26.000Z</time>
      </trkpt>
      <trkpt lat="44.98828" lon="6.03392">
        <ele>2520.6000976562</ele>
        <time>2021-03-21T11:50:27.000Z</time>
      </trkpt>
      <trkpt lat="44.98828" lon="6.03393">
        <ele>2520.6000976562</ele>
        <time>2021-03-21T11:50:28.000Z</time>
      </trkpt>
      <trkpt lat="44.98828" lon="6.03393">
        <ele>2520.6000976562</ele>
        <time>2021-03-21T11:50:29.000Z</time>
      </trkpt>
      <trkpt lat="44.98828" lon="6.03393">
        <ele>2520.6000976562</ele>
        <time>2021-03-21T11:50:30.000Z</time>
      </trkpt>
      <trkpt lat="44.98828" lon="6.03393">
        <ele>2520.6000976562</ele>
        <time>2021-03-21T11:50:31.000Z</time>
      </trkpt>
      <trkpt lat="44.98828" lon="6.03395">
        <ele>2520.8000488281</ele>
        <time>2021-03-21T11:50:32.000Z</time>
      </trkpt>
      <trkpt lat="44.98828" lon="6.03396">
        <ele>2520.8000488281</ele>
        <time>2021-03-21T11:50:33.000Z</time>
      </trkpt>
      <trkpt lat="44.98828" lon="6.03396">
        <ele>2521</ele>
        <time>2021-03-21T11:50:34.000Z</time>
      </trkpt>
      <trkpt lat="44.98828" lon="6.03398">
        <ele>2521.1999511719</ele>
        <time>2021-03-21T11:50:35.000Z</time>
      </trkpt>
      <trkpt lat="44.98827" lon="6.03398">
        <ele>2521.3999023438</ele>
        <time>2021-03-21T11:50:36.000Z</time>
      </trkpt>
      <trkpt lat="44.98826" lon="6.034">
        <ele>2521.6000976562</ele>
        <time>2021-03-21T11:50:37.000Z</time>
      </trkpt>
      <trkpt lat="44.98826" lon="6.034">
        <ele>2521.8000488281</ele>
        <time>2021-03-21T11:50:38.000Z</time>
      </trkpt>
      <trkpt lat="44.98826" lon="6.03401">
        <ele>2522</ele>
        <time>2021-03-21T11:50:39.000Z</time>
      </trkpt>
      <trkpt lat="44.98826" lon="6.03403">
        <ele>2522</ele>
        <time>2021-03-21T11:50:40.000Z</time>
      </trkpt>
      <trkpt lat="44.98826" lon="6.03403">
        <ele>2522.1999511719</ele>
        <time>2021-03-21T11:50:41.000Z</time>
      </trkpt>
      <trkpt lat="44.98825" lon="6.03405">
        <ele>2522.3999023438</ele>
        <time>2021-03-21T11:50:42.000Z</time>
      </trkpt>
      <trkpt lat="44.98825" lon="6.03406">
        <ele>2522.6000976562</ele>
        <time>2021-03-21T11:50:43.000Z</time>
      </trkpt>
      <trkpt lat="44.98825" lon="6.03407">
        <ele>2522.6000976562</ele>
        <time>2021-03-21T11:50:44.000Z</time>
      </trkpt>
      <trkpt lat="44.98824" lon="6.03408">
        <ele>2522.8000488281</ele>
        <time>2021-03-21T11:50:45.000Z</time>
      </trkpt>
      <trkpt lat="44.98824" lon="6.03409">
        <ele>2522.8000488281</ele>
        <time>2021-03-21T11:50:46.000Z</time>
      </trkpt>
      <trkpt lat="44.98824" lon="6.0341">
        <ele>2523</ele>
        <time>2021-03-21T11:50:47.000Z</time>
      </trkpt>
      <trkpt lat="44.98824" lon="6.03411">
        <ele>2523</ele>
        <time>2021-03-21T11:50:48.000Z</time>
      </trkpt>
      <trkpt lat="44.98824" lon="6.03412">
        <ele>2523</ele>
        <time>2021-03-21T11:50:49.000Z</time>
      </trkpt>
      <trkpt lat="44.98824" lon="6.03413">
        <ele>2523</ele>
        <time>2021-03-21T11:50:50.000Z</time>
      </trkpt>
      <trkpt lat="44.98824" lon="6.03414">
        <ele>2523</ele>
        <time>2021-03-21T11:50:51.000Z</time>
      </trkpt>
      <trkpt lat="44.98824" lon="6.03415">
        <ele>2523</ele>
        <time>2021-03-21T11:50:52.000Z</time>
      </trkpt>
      <trkpt lat="44.98824" lon="6.03416">
        <ele>2523</ele>
        <time>2021-03-21T11:50:53.000Z</time>
      </trkpt>
      <trkpt lat="44.98824" lon="6.03417">
        <ele>2523</ele>
        <time>2021-03-21T11:50:54.000Z</time>
      </trkpt>
      <trkpt lat="44.98823" lon="6.03418">
        <ele>2523.1999511719</ele>
        <time>2021-03-21T11:50:55.000Z</time>
      </trkpt>
      <trkpt lat="44.98823" lon="6.03419">
        <ele>2523.1999511719</ele>
        <time>2021-03-21T11:50:56.000Z</time>
      </trkpt>
      <trkpt lat="44.98823" lon="6.0342">
        <ele>2523.1999511719</ele>
        <time>2021-03-21T11:50:57.000Z</time>
      </trkpt>
      <trkpt lat="44.98822" lon="6.03421">
        <ele>2523.3999023438</ele>
        <time>2021-03-21T11:50:58.000Z</time>
      </trkpt>
      <trkpt lat="44.98822" lon="6.03422">
        <ele>2523.3999023438</ele>
        <time>2021-03-21T11:50:59.000Z</time>
      </trkpt>
      <trkpt lat="44.98821" lon="6.03423">
        <ele>2523.6000976562</ele>
        <time>2021-03-21T11:51:00.000Z</time>
      </trkpt>
      <trkpt lat="44.98821" lon="6.03424">
        <ele>2523.6000976562</ele>
        <time>2021-03-21T11:51:01.000Z</time>
      </trkpt>
      <trkpt lat="44.98821" lon="6.03425">
        <ele>2523.6000976562</ele>
        <time>2021-03-21T11:51:02.000Z</time>
      </trkpt>
      <trkpt lat="44.9882" lon="6.03426">
        <ele>2523.8000488281</ele>
        <time>2021-03-21T11:51:03.000Z</time>
      </trkpt>
      <trkpt lat="44.9882" lon="6.03428">
        <ele>2523.8000488281</ele>
        <time>2021-03-21T11:51:04.000Z</time>
      </trkpt>
      <trkpt lat="44.9882" lon="6.03429">
        <ele>2523.8000488281</ele>
        <time>2021-03-21T11:51:05.000Z</time>
      </trkpt>
      <trkpt lat="44.9882" lon="6.0343">
        <ele>2523.8000488281</ele>
        <time>2021-03-21T11:51:06.000Z</time>
      </trkpt>
      <trkpt lat="44.9882" lon="6.03431">
        <ele>2523.8000488281</ele>
        <time>2021-03-21T11:51:07.000Z</time>
      </trkpt>
      <trkpt lat="44.9882" lon="6.03432">
        <ele>2523.8000488281</ele>
        <time>2021-03-21T11:51:08.000Z</time>
      </trkpt>
      <trkpt lat="44.98819" lon="6.03433">
        <ele>2524</ele>
        <time>2021-03-21T11:51:09.000Z</time>
      </trkpt>
      <trkpt lat="44.98819" lon="6.03434">
        <ele>2524.1999511719</ele>
        <time>2021-03-21T11:51:10.000Z</time>
      </trkpt>
      <trkpt lat="44.98819" lon="6.03436">
        <ele>2524.3999023438</ele>
        <time>2021-03-21T11:51:11.000Z</time>
      </trkpt>
      <trkpt lat="44.98818" lon="6.03437">
        <ele>2524.3999023438</ele>
        <time>2021-03-21T11:51:12.000Z</time>
      </trkpt>
      <trkpt lat="44.98818" lon="6.03438">
        <ele>2524.6000976562</ele>
        <time>2021-03-21T11:51:13.000Z</time>
      </trkpt>
      <trkpt lat="44.98817" lon="6.03438">
        <ele>2524.8000488281</ele>
        <time>2021-03-21T11:51:14.000Z</time>
      </trkpt>
      <trkpt lat="44.98817" lon="6.03439">
        <ele>2524.8000488281</ele>
        <time>2021-03-21T11:51:15.000Z</time>
      </trkpt>
      <trkpt lat="44.98816" lon="6.0344">
        <ele>2525</ele>
        <time>2021-03-21T11:51:16.000Z</time>
      </trkpt>
      <trkpt lat="44.98816" lon="6.0344">
        <ele>2525.3999023438</ele>
        <time>2021-03-21T11:51:17.000Z</time>
      </trkpt>
      <trkpt lat="44.98815" lon="6.0344">
        <ele>2525.6000976562</ele>
        <time>2021-03-21T11:51:18.000Z</time>
      </trkpt>
      <trkpt lat="44.98814" lon="6.0344">
        <ele>2525.8000488281</ele>
        <time>2021-03-21T11:51:19.000Z</time>
      </trkpt>
      <trkpt lat="44.98813" lon="6.0344">
        <ele>2526</ele>
        <time>2021-03-21T11:51:20.000Z</time>
      </trkpt>
      <trkpt lat="44.98813" lon="6.0344">
        <ele>2526.1999511719</ele>
        <time>2021-03-21T11:51:21.000Z</time>
      </trkpt>
      <trkpt lat="44.98812" lon="6.0344">
        <ele>2526.3999023438</ele>
        <time>2021-03-21T11:51:22.000Z</time>
      </trkpt>
      <trkpt lat="44.98811" lon="6.0344">
        <ele>2526.8000488281</ele>
        <time>2021-03-21T11:51:23.000Z</time>
      </trkpt>
      <trkpt lat="44.9881" lon="6.0344">
        <ele>2527</ele>
        <time>2021-03-21T11:51:24.000Z</time>
      </trkpt>
      <trkpt lat="44.98808" lon="6.03439">
        <ele>2527.3999023438</ele>
        <time>2021-03-21T11:51:25.000Z</time>
      </trkpt>
      <trkpt lat="44.98807" lon="6.03439">
        <ele>2527.8000488281</ele>
        <time>2021-03-21T11:51:26.000Z</time>
      </trkpt>
      <trkpt lat="44.98806" lon="6.03439">
        <ele>2528</ele>
        <time>2021-03-21T11:51:27.000Z</time>
      </trkpt>
      <trkpt lat="44.98806" lon="6.0344">
        <ele>2528.1999511719</ele>
        <time>2021-03-21T11:51:28.000Z</time>
      </trkpt>
      <trkpt lat="44.98805" lon="6.0344">
        <ele>2528.3999023438</ele>
        <time>2021-03-21T11:51:29.000Z</time>
      </trkpt>
      <trkpt lat="44.98804" lon="6.0344">
        <ele>2528.8000488281</ele>
        <time>2021-03-21T11:51:30.000Z</time>
      </trkpt>
      <trkpt lat="44.98803" lon="6.0344">
        <ele>2529</ele>
        <time>2021-03-21T11:51:31.000Z</time>
      </trkpt>
      <trkpt lat="44.98803" lon="6.03441">
        <ele>2529.1999511719</ele>
        <time>2021-03-21T11:51:32.000Z</time>
      </trkpt>
      <trkpt lat="44.98802" lon="6.03441">
        <ele>2529.3999023438</ele>
        <time>2021-03-21T11:51:33.000Z</time>
      </trkpt>
      <trkpt lat="44.98801" lon="6.03441">
        <ele>2529.3999023438</ele>
        <time>2021-03-21T11:51:34.000Z</time>
      </trkpt>
      <trkpt lat="44.988" lon="6.03442">
        <ele>2529.8000488281</ele>
        <time>2021-03-21T11:51:35.000Z</time>
      </trkpt>
      <trkpt lat="44.988" lon="6.03442">
        <ele>2530</ele>
        <time>2021-03-21T11:51:36.000Z</time>
      </trkpt>
      <trkpt lat="44.98799" lon="6.03442">
        <ele>2530.1999511719</ele>
        <time>2021-03-21T11:51:37.000Z</time>
      </trkpt>
      <trkpt lat="44.98798" lon="6.03443">
        <ele>2530.3999023438</ele>
        <time>2021-03-21T11:51:38.000Z</time>
      </trkpt>
      <trkpt lat="44.98797" lon="6.03443">
        <ele>2530.6000976562</ele>
        <time>2021-03-21T11:51:39.000Z</time>
      </trkpt>
      <trkpt lat="44.98796" lon="6.03444">
        <ele>2530.8000488281</ele>
        <time>2021-03-21T11:51:40.000Z</time>
      </trkpt>
      <trkpt lat="44.98796" lon="6.03444">
        <ele>2531</ele>
        <time>2021-03-21T11:51:41.000Z</time>
      </trkpt>
      <trkpt lat="44.98795" lon="6.03444">
        <ele>2531</ele>
        <time>2021-03-21T11:51:42.000Z</time>
      </trkpt>
      <trkpt lat="44.98794" lon="6.03445">
        <ele>2531.1999511719</ele>
        <time>2021-03-21T11:51:43.000Z</time>
      </trkpt>
      <trkpt lat="44.98793" lon="6.03445">
        <ele>2531.3999023438</ele>
        <time>2021-03-21T11:51:44.000Z</time>
      </trkpt>
      <trkpt lat="44.98793" lon="6.03446">
        <ele>2531.6000976562</ele>
        <time>2021-03-21T11:51:45.000Z</time>
      </trkpt>
      <trkpt lat="44.98792" lon="6.03446">
        <ele>2531.8000488281</ele>
        <time>2021-03-21T11:51:46.000Z</time>
      </trkpt>
      <trkpt lat="44.98792" lon="6.03447">
        <ele>2532</ele>
        <time>2021-03-21T11:51:47.000Z</time>
      </trkpt>
      <trkpt lat="44.98791" lon="6.03447">
        <ele>2532</ele>
        <time>2021-03-21T11:51:48.000Z</time>
      </trkpt>
      <trkpt lat="44.98791" lon="6.03448">
        <ele>2532.3999023438</ele>
        <time>2021-03-21T11:51:49.000Z</time>
      </trkpt>
      <trkpt lat="44.9879" lon="6.03448">
        <ele>2532.6000976562</ele>
        <time>2021-03-21T11:51:50.000Z</time>
      </trkpt>
      <trkpt lat="44.9879" lon="6.03449">
        <ele>2533</ele>
        <time>2021-03-21T11:51:51.000Z</time>
      </trkpt>
      <trkpt lat="44.98789" lon="6.0345">
        <ele>2533.1999511719</ele>
        <time>2021-03-21T11:51:52.000Z</time>
      </trkpt>
      <trkpt lat="44.98788" lon="6.0345">
        <ele>2533.3999023438</ele>
        <time>2021-03-21T11:51:53.000Z</time>
      </trkpt>
      <trkpt lat="44.98788" lon="6.03451">
        <ele>2533.8000488281</ele>
        <time>2021-03-21T11:51:54.000Z</time>
      </trkpt>
      <trkpt lat="44.98788" lon="6.03451">
        <ele>2534</ele>
        <time>2021-03-21T11:51:55.000Z</time>
      </trkpt>
      <trkpt lat="44.98787" lon="6.03452">
        <ele>2534.1999511719</ele>
        <time>2021-03-21T11:51:56.000Z</time>
      </trkpt>
      <trkpt lat="44.98787" lon="6.03452">
        <ele>2534.3999023438</ele>
        <time>2021-03-21T11:51:57.000Z</time>
      </trkpt>
      <trkpt lat="44.98786" lon="6.03453">
        <ele>2534.6000976562</ele>
        <time>2021-03-21T11:51:58.000Z</time>
      </trkpt>
      <trkpt lat="44.98786" lon="6.03453">
        <ele>2534.6000976562</ele>
        <time>2021-03-21T11:51:59.000Z</time>
      </trkpt>
      <trkpt lat="44.98786" lon="6.03454">
        <ele>2534.8000488281</ele>
        <time>2021-03-21T11:52:00.000Z</time>
      </trkpt>
      <trkpt lat="44.98785" lon="6.03454">
        <ele>2535.1999511719</ele>
        <time>2021-03-21T11:52:01.000Z</time>
      </trkpt>
      <trkpt lat="44.98785" lon="6.03455">
        <ele>2535.6000976562</ele>
        <time>2021-03-21T11:52:02.000Z</time>
      </trkpt>
      <trkpt lat="44.98784" lon="6.03456">
        <ele>2535.8000488281</ele>
        <time>2021-03-21T11:52:03.000Z</time>
      </trkpt>
      <trkpt lat="44.98784" lon="6.03456">
        <ele>2536</ele>
        <time>2021-03-21T11:52:04.000Z</time>
      </trkpt>
      <trkpt lat="44.98784" lon="6.03457">
        <ele>2536.1999511719</ele>
        <time>2021-03-21T11:52:05.000Z</time>
      </trkpt>
      <trkpt lat="44.98783" lon="6.03458">
        <ele>2536.3999023438</ele>
        <time>2021-03-21T11:52:06.000Z</time>
      </trkpt>
      <trkpt lat="44.98783" lon="6.03459">
        <ele>2536.6000976562</ele>
        <time>2021-03-21T11:52:07.000Z</time>
      </trkpt>
      <trkpt lat="44.98783" lon="6.03459">
        <ele>2536.8000488281</ele>
        <time>2021-03-21T11:52:08.000Z</time>
      </trkpt>
      <trkpt lat="44.98782" lon="6.0346">
        <ele>2537</ele>
        <time>2021-03-21T11:52:09.000Z</time>
      </trkpt>
      <trkpt lat="44.98782" lon="6.03461">
        <ele>2537</ele>
        <time>2021-03-21T11:52:10.000Z</time>
      </trkpt>
      <trkpt lat="44.98782" lon="6.03461">
        <ele>2537.1999511719</ele>
        <time>2021-03-21T11:52:11.000Z</time>
      </trkpt>
      <trkpt lat="44.98782" lon="6.03461">
        <ele>2537.3999023438</ele>
        <time>2021-03-21T11:52:12.000Z</time>
      </trkpt>
      <trkpt lat="44.98782" lon="6.03461">
        <ele>2537.1999511719</ele>
        <time>2021-03-21T11:52:13.000Z</time>
      </trkpt>
      <trkpt lat="44.98782" lon="6.03461">
        <ele>2537.3999023438</ele>
        <time>2021-03-21T11:52:14.000Z</time>
      </trkpt>
      <trkpt lat="44.98782" lon="6.03462">
        <ele>2537.3999023438</ele>
        <time>2021-03-21T11:52:15.000Z</time>
      </trkpt>
      <trkpt lat="44.98781" lon="6.03462">
        <ele>2537.6000976562</ele>
        <time>2021-03-21T11:52:16.000Z</time>
      </trkpt>
      <trkpt lat="44.98782" lon="6.03462">
        <ele>2537.3999023438</ele>
        <time>2021-03-21T11:52:17.000Z</time>
      </trkpt>
      <trkpt lat="44.98782" lon="6.03462">
        <ele>2537.3999023438</ele>
        <time>2021-03-21T11:52:18.000Z</time>
      </trkpt>
      <trkpt lat="44.98782" lon="6.03462">
        <ele>2537.3999023438</ele>
        <time>2021-03-21T11:52:19.000Z</time>
      </trkpt>
      <trkpt lat="44.98782" lon="6.03462">
        <ele>2537.3999023438</ele>
        <time>2021-03-21T11:52:20.000Z</time>
      </trkpt>
      <trkpt lat="44.98782" lon="6.03462">
        <ele>2537.1999511719</ele>
        <time>2021-03-21T11:52:21.000Z</time>
      </trkpt>
      <trkpt lat="44.98782" lon="6.03462">
        <ele>2537.1999511719</ele>
        <time>2021-03-21T11:52:22.000Z</time>
      </trkpt>
      <trkpt lat="44.98782" lon="6.03462">
        <ele>2537.1999511719</ele>
        <time>2021-03-21T11:52:23.000Z</time>
      </trkpt>
      <trkpt lat="44.98782" lon="6.03462">
        <ele>2537.1999511719</ele>
        <time>2021-03-21T11:52:24.000Z</time>
      </trkpt>
      <trkpt lat="44.98782" lon="6.03462">
        <ele>2537.1999511719</ele>
        <time>2021-03-21T11:52:25.000Z</time>
      </trkpt>
      <trkpt lat="44.98782" lon="6.03462">
        <ele>2537.1999511719</ele>
        <time>2021-03-21T11:52:26.000Z</time>
      </trkpt>
      <trkpt lat="44.98782" lon="6.03462">
        <ele>2537.1999511719</ele>
        <time>2021-03-21T11:52:27.000Z</time>
      </trkpt>
      <trkpt lat="44.98782" lon="6.03463">
        <ele>2537.3999023438</ele>
        <time>2021-03-21T11:52:28.000Z</time>
      </trkpt>
      <trkpt lat="44.98782" lon="6.03463">
        <ele>2537.6000976562</ele>
        <time>2021-03-21T11:52:29.000Z</time>
      </trkpt>
      <trkpt lat="44.98781" lon="6.03463">
        <ele>2537.8000488281</ele>
        <time>2021-03-21T11:52:30.000Z</time>
      </trkpt>
      <trkpt lat="44.98781" lon="6.03464">
        <ele>2537.8000488281</ele>
        <time>2021-03-21T11:52:31.000Z</time>
      </trkpt>
      <trkpt lat="44.98781" lon="6.03464">
        <ele>2538.1999511719</ele>
        <time>2021-03-21T11:52:32.000Z</time>
      </trkpt>
      <trkpt lat="44.9878" lon="6.03464">
        <ele>2538.3999023438</ele>
        <time>2021-03-21T11:52:33.000Z</time>
      </trkpt>
      <trkpt lat="44.9878" lon="6.03465">
        <ele>2538.6000976562</ele>
        <time>2021-03-21T11:52:34.000Z</time>
      </trkpt>
      <trkpt lat="44.98779" lon="6.03466">
        <ele>2539</ele>
        <time>2021-03-21T11:52:35.000Z</time>
      </trkpt>
      <trkpt lat="44.98779" lon="6.03466">
        <ele>2539</ele>
        <time>2021-03-21T11:52:36.000Z</time>
      </trkpt>
      <trkpt lat="44.98779" lon="6.03466">
        <ele>2539</ele>
        <time>2021-03-21T11:52:37.000Z</time>
      </trkpt>
      <trkpt lat="44.98779" lon="6.03466">
        <ele>2539.1999511719</ele>
        <time>2021-03-21T11:52:38.000Z</time>
      </trkpt>
      <trkpt lat="44.98778" lon="6.03467">
        <ele>2539.6000976562</ele>
        <time>2021-03-21T11:52:39.000Z</time>
      </trkpt>
      <trkpt lat="44.98778" lon="6.03467">
        <ele>2539.8000488281</ele>
        <time>2021-03-21T11:52:40.000Z</time>
      </trkpt>
      <trkpt lat="44.98778" lon="6.03468">
        <ele>2540</ele>
        <time>2021-03-21T11:52:41.000Z</time>
      </trkpt>
      <trkpt lat="44.98777" lon="6.03469">
        <ele>2540.1999511719</ele>
        <time>2021-03-21T11:52:42.000Z</time>
      </trkpt>
      <trkpt lat="44.98777" lon="6.03469">
        <ele>2540.6000976562</ele>
        <time>2021-03-21T11:52:43.000Z</time>
      </trkpt>
      <trkpt lat="44.98776" lon="6.0347">
        <ele>2541</ele>
        <time>2021-03-21T11:52:44.000Z</time>
      </trkpt>
      <trkpt lat="44.98776" lon="6.03471">
        <ele>2541</ele>
        <time>2021-03-21T11:52:45.000Z</time>
      </trkpt>
      <trkpt lat="44.98776" lon="6.03472">
        <ele>2541.3999023438</ele>
        <time>2021-03-21T11:52:46.000Z</time>
      </trkpt>
      <trkpt lat="44.98776" lon="6.03472">
        <ele>2541.6000976562</ele>
        <time>2021-03-21T11:52:47.000Z</time>
      </trkpt>
      <trkpt lat="44.98775" lon="6.03473">
        <ele>2542.1999511719</ele>
        <time>2021-03-21T11:52:48.000Z</time>
      </trkpt>
      <trkpt lat="44.98775" lon="6.03474">
        <ele>2542.6000976562</ele>
        <time>2021-03-21T11:52:49.000Z</time>
      </trkpt>
      <trkpt lat="44.98774" lon="6.03475">
        <ele>2542.8000488281</ele>
        <time>2021-03-21T11:52:50.000Z</time>
      </trkpt>
      <trkpt lat="44.98774" lon="6.03476">
        <ele>2543.1999511719</ele>
        <time>2021-03-21T11:52:51.000Z</time>
      </trkpt>
      <trkpt lat="44.98773" lon="6.03477">
        <ele>2543.6000976562</ele>
        <time>2021-03-21T11:52:52.000Z</time>
      </trkpt>
      <trkpt lat="44.98773" lon="6.03477">
        <ele>2544</ele>
        <time>2021-03-21T11:52:53.000Z</time>
      </trkpt>
      <trkpt lat="44.98772" lon="6.03478">
        <ele>2544.6000976562</ele>
        <time>2021-03-21T11:52:54.000Z</time>
      </trkpt>
      <trkpt lat="44.98772" lon="6.03479">
        <ele>2545</ele>
        <time>2021-03-21T11:52:55.000Z</time>
      </trkpt>
      <trkpt lat="44.98772" lon="6.03479">
        <ele>2545.3999023438</ele>
        <time>2021-03-21T11:52:56.000Z</time>
      </trkpt>
      <trkpt lat="44.98771" lon="6.0348">
        <ele>2546</ele>
        <time>2021-03-21T11:52:57.000Z</time>
      </trkpt>
      <trkpt lat="44.98771" lon="6.03481">
        <ele>2546.3999023438</ele>
        <time>2021-03-21T11:52:58.000Z</time>
      </trkpt>
      <trkpt lat="44.9877" lon="6.03483">
        <ele>2547</ele>
        <time>2021-03-21T11:52:59.000Z</time>
      </trkpt>
      <trkpt lat="44.98769" lon="6.03484">
        <ele>2547.6000976562</ele>
        <time>2021-03-21T11:53:00.000Z</time>
      </trkpt>
      <trkpt lat="44.98769" lon="6.03484">
        <ele>2548</ele>
        <time>2021-03-21T11:53:01.000Z</time>
      </trkpt>
      <trkpt lat="44.98769" lon="6.03485">
        <ele>2547.8000488281</ele>
        <time>2021-03-21T11:53:02.000Z</time>
      </trkpt>
      <trkpt lat="44.98769" lon="6.03485">
        <ele>2548</ele>
        <time>2021-03-21T11:53:03.000Z</time>
      </trkpt>
      <trkpt lat="44.98769" lon="6.03486">
        <ele>2548</ele>
        <time>2021-03-21T11:53:04.000Z</time>
      </trkpt>
      <trkpt lat="44.98769" lon="6.03487">
        <ele>2548.1999511719</ele>
        <time>2021-03-21T11:53:05.000Z</time>
      </trkpt>
      <trkpt lat="44.98769" lon="6.03488">
        <ele>2548.6000976562</ele>
        <time>2021-03-21T11:53:06.000Z</time>
      </trkpt>
      <trkpt lat="44.98768" lon="6.03489">
        <ele>2549.1999511719</ele>
        <time>2021-03-21T11:53:07.000Z</time>
      </trkpt>
      <trkpt lat="44.98768" lon="6.0349">
        <ele>2549.8000488281</ele>
        <time>2021-03-21T11:53:08.000Z</time>
      </trkpt>
      <trkpt lat="44.98767" lon="6.03491">
        <ele>2550</ele>
        <time>2021-03-21T11:53:09.000Z</time>
      </trkpt>
      <trkpt lat="44.98767" lon="6.03492">
        <ele>2550.1999511719</ele>
        <time>2021-03-21T11:53:10.000Z</time>
      </trkpt>
      <trkpt lat="44.98767" lon="6.03492">
        <ele>2550.6000976562</ele>
        <time>2021-03-21T11:53:11.000Z</time>
      </trkpt>
      <trkpt lat="44.98767" lon="6.03493">
        <ele>2551</ele>
        <time>2021-03-21T11:53:12.000Z</time>
      </trkpt>
      <trkpt lat="44.98767" lon="6.03494">
        <ele>2551.1999511719</ele>
        <time>2021-03-21T11:53:13.000Z</time>
      </trkpt>
      <trkpt lat="44.98766" lon="6.03495">
        <ele>2551.3999023438</ele>
        <time>2021-03-21T11:53:14.000Z</time>
      </trkpt>
      <trkpt lat="44.98766" lon="6.03495">
        <ele>2551.8000488281</ele>
        <time>2021-03-21T11:53:15.000Z</time>
      </trkpt>
      <trkpt lat="44.98766" lon="6.03496">
        <ele>2552</ele>
        <time>2021-03-21T11:53:16.000Z</time>
      </trkpt>
      <trkpt lat="44.98765" lon="6.03497">
        <ele>2552.8000488281</ele>
        <time>2021-03-21T11:53:17.000Z</time>
      </trkpt>
      <trkpt lat="44.98764" lon="6.03498">
        <ele>2553.1999511719</ele>
        <time>2021-03-21T11:53:18.000Z</time>
      </trkpt>
      <trkpt lat="44.98764" lon="6.03499">
        <ele>2553.6000976562</ele>
        <time>2021-03-21T11:53:19.000Z</time>
      </trkpt>
      <trkpt lat="44.98763" lon="6.03499">
        <ele>2554</ele>
        <time>2021-03-21T11:53:20.000Z</time>
      </trkpt>
      <trkpt lat="44.98763" lon="6.035">
        <ele>2554.1999511719</ele>
        <time>2021-03-21T11:53:21.000Z</time>
      </trkpt>
      <trkpt lat="44.98763" lon="6.03501">
        <ele>2554.6000976562</ele>
        <time>2021-03-21T11:53:22.000Z</time>
      </trkpt>
      <trkpt lat="44.98762" lon="6.03501">
        <ele>2554.8000488281</ele>
        <time>2021-03-21T11:53:23.000Z</time>
      </trkpt>
      <trkpt lat="44.98762" lon="6.03502">
        <ele>2555.1999511719</ele>
        <time>2021-03-21T11:53:24.000Z</time>
      </trkpt>
      <trkpt lat="44.98762" lon="6.03503">
        <ele>2555.6000976562</ele>
        <time>2021-03-21T11:53:25.000Z</time>
      </trkpt>
      <trkpt lat="44.98761" lon="6.03503">
        <ele>2555.8000488281</ele>
        <time>2021-03-21T11:53:26.000Z</time>
      </trkpt>
      <trkpt lat="44.98761" lon="6.03504">
        <ele>2556.1999511719</ele>
        <time>2021-03-21T11:53:27.000Z</time>
      </trkpt>
      <trkpt lat="44.9876" lon="6.03505">
        <ele>2556.6000976562</ele>
        <time>2021-03-21T11:53:28.000Z</time>
      </trkpt>
      <trkpt lat="44.9876" lon="6.03506">
        <ele>2557.1999511719</ele>
        <time>2021-03-21T11:53:29.000Z</time>
      </trkpt>
      <trkpt lat="44.98759" lon="6.03507">
        <ele>2557.3999023438</ele>
        <time>2021-03-21T11:53:30.000Z</time>
      </trkpt>
      <trkpt lat="44.98759" lon="6.03507">
        <ele>2557.8000488281</ele>
        <time>2021-03-21T11:53:31.000Z</time>
      </trkpt>
      <trkpt lat="44.98759" lon="6.03508">
        <ele>2558</ele>
        <time>2021-03-21T11:53:32.000Z</time>
      </trkpt>
      <trkpt lat="44.98759" lon="6.03509">
        <ele>2558.3999023438</ele>
        <time>2021-03-21T11:53:33.000Z</time>
      </trkpt>
      <trkpt lat="44.98758" lon="6.0351">
        <ele>2558.6000976562</ele>
        <time>2021-03-21T11:53:34.000Z</time>
      </trkpt>
      <trkpt lat="44.98758" lon="6.0351">
        <ele>2558.8000488281</ele>
        <time>2021-03-21T11:53:35.000Z</time>
      </trkpt>
      <trkpt lat="44.98758" lon="6.03511">
        <ele>2559.1999511719</ele>
        <time>2021-03-21T11:53:36.000Z</time>
      </trkpt>
      <trkpt lat="44.98757" lon="6.03512">
        <ele>2559.6000976562</ele>
        <time>2021-03-21T11:53:37.000Z</time>
      </trkpt>
      <trkpt lat="44.98757" lon="6.03512">
        <ele>2559.8000488281</ele>
        <time>2021-03-21T11:53:38.000Z</time>
      </trkpt>
      <trkpt lat="44.98757" lon="6.03513">
        <ele>2560.1999511719</ele>
        <time>2021-03-21T11:53:39.000Z</time>
      </trkpt>
      <trkpt lat="44.98757" lon="6.03513">
        <ele>2560.1999511719</ele>
        <time>2021-03-21T11:53:40.000Z</time>
      </trkpt>
      <trkpt lat="44.98756" lon="6.03514">
        <ele>2560.6000976562</ele>
        <time>2021-03-21T11:53:41.000Z</time>
      </trkpt>
      <trkpt lat="44.98756" lon="6.03515">
        <ele>2560.8000488281</ele>
        <time>2021-03-21T11:53:42.000Z</time>
      </trkpt>
      <trkpt lat="44.98756" lon="6.03515">
        <ele>2561.1999511719</ele>
        <time>2021-03-21T11:53:43.000Z</time>
      </trkpt>
      <trkpt lat="44.98755" lon="6.03516">
        <ele>2561.3999023438</ele>
        <time>2021-03-21T11:53:44.000Z</time>
      </trkpt>
      <trkpt lat="44.98755" lon="6.03516">
        <ele>2561.6000976562</ele>
        <time>2021-03-21T11:53:45.000Z</time>
      </trkpt>
      <trkpt lat="44.98755" lon="6.03517">
        <ele>2561.6000976562</ele>
        <time>2021-03-21T11:53:46.000Z</time>
      </trkpt>
      <trkpt lat="44.98754" lon="6.03518">
        <ele>2561.6000976562</ele>
        <time>2021-03-21T11:53:47.000Z</time>
      </trkpt>
      <trkpt lat="44.98754" lon="6.03518">
        <ele>2561.8000488281</ele>
        <time>2021-03-21T11:53:48.000Z</time>
      </trkpt>
      <trkpt lat="44.98754" lon="6.03519">
        <ele>2562</ele>
        <time>2021-03-21T11:53:49.000Z</time>
      </trkpt>
      <trkpt lat="44.98753" lon="6.03519">
        <ele>2562.1999511719</ele>
        <time>2021-03-21T11:53:50.000Z</time>
      </trkpt>
      <trkpt lat="44.98753" lon="6.0352">
        <ele>2562.6000976562</ele>
        <time>2021-03-21T11:53:51.000Z</time>
      </trkpt>
      <trkpt lat="44.98753" lon="6.0352">
        <ele>2562.6000976562</ele>
        <time>2021-03-21T11:53:52.000Z</time>
      </trkpt>
      <trkpt lat="44.98752" lon="6.03521">
        <ele>2562.8000488281</ele>
        <time>2021-03-21T11:53:53.000Z</time>
      </trkpt>
      <trkpt lat="44.98752" lon="6.03522">
        <ele>2562.8000488281</ele>
        <time>2021-03-21T11:53:54.000Z</time>
      </trkpt>
      <trkpt lat="44.98752" lon="6.03523">
        <ele>2563</ele>
        <time>2021-03-21T11:53:55.000Z</time>
      </trkpt>
      <trkpt lat="44.98752" lon="6.03523">
        <ele>2563.1999511719</ele>
        <time>2021-03-21T11:53:56.000Z</time>
      </trkpt>
      <trkpt lat="44.98751" lon="6.03524">
        <ele>2563.1999511719</ele>
        <time>2021-03-21T11:53:57.000Z</time>
      </trkpt>
      <trkpt lat="44.98751" lon="6.03524">
        <ele>2563.3999023438</ele>
        <time>2021-03-21T11:53:58.000Z</time>
      </trkpt>
      <trkpt lat="44.98751" lon="6.03525">
        <ele>2563.3999023438</ele>
        <time>2021-03-21T11:53:59.000Z</time>
      </trkpt>
      <trkpt lat="44.98751" lon="6.03525">
        <ele>2563.6000976562</ele>
        <time>2021-03-21T11:54:00.000Z</time>
      </trkpt>
      <trkpt lat="44.98751" lon="6.03526">
        <ele>2563.6000976562</ele>
        <time>2021-03-21T11:54:01.000Z</time>
      </trkpt>
      <trkpt lat="44.9875" lon="6.03526">
        <ele>2563.8000488281</ele>
        <time>2021-03-21T11:54:02.000Z</time>
      </trkpt>
      <trkpt lat="44.9875" lon="6.03527">
        <ele>2564</ele>
        <time>2021-03-21T11:54:03.000Z</time>
      </trkpt>
      <trkpt lat="44.9875" lon="6.03528">
        <ele>2564</ele>
        <time>2021-03-21T11:54:04.000Z</time>
      </trkpt>
      <trkpt lat="44.9875" lon="6.03528">
        <ele>2564.1999511719</ele>
        <time>2021-03-21T11:54:05.000Z</time>
      </trkpt>
      <trkpt lat="44.9875" lon="6.03529">
        <ele>2564</ele>
        <time>2021-03-21T11:54:06.000Z</time>
      </trkpt>
      <trkpt lat="44.9875" lon="6.0353">
        <ele>2564</ele>
        <time>2021-03-21T11:54:07.000Z</time>
      </trkpt>
      <trkpt lat="44.98749" lon="6.03531">
        <ele>2564</ele>
        <time>2021-03-21T11:54:08.000Z</time>
      </trkpt>
      <trkpt lat="44.98749" lon="6.03531">
        <ele>2564.1999511719</ele>
        <time>2021-03-21T11:54:09.000Z</time>
      </trkpt>
      <trkpt lat="44.98749" lon="6.03532">
        <ele>2564.3999023438</ele>
        <time>2021-03-21T11:54:10.000Z</time>
      </trkpt>
      <trkpt lat="44.98749" lon="6.03533">
        <ele>2564.3999023438</ele>
        <time>2021-03-21T11:54:11.000Z</time>
      </trkpt>
      <trkpt lat="44.98749" lon="6.03534">
        <ele>2564.1999511719</ele>
        <time>2021-03-21T11:54:12.000Z</time>
      </trkpt>
      <trkpt lat="44.98749" lon="6.03535">
        <ele>2564.1999511719</ele>
        <time>2021-03-21T11:54:13.000Z</time>
      </trkpt>
      <trkpt lat="44.98748" lon="6.03535">
        <ele>2564.3999023438</ele>
        <time>2021-03-21T11:54:14.000Z</time>
      </trkpt>
      <trkpt lat="44.98749" lon="6.03536">
        <ele>2564.1999511719</ele>
        <time>2021-03-21T11:54:15.000Z</time>
      </trkpt>
      <trkpt lat="44.98749" lon="6.03537">
        <ele>2564.1999511719</ele>
        <time>2021-03-21T11:54:16.000Z</time>
      </trkpt>
      <trkpt lat="44.98748" lon="6.03538">
        <ele>2564.1999511719</ele>
        <time>2021-03-21T11:54:17.000Z</time>
      </trkpt>
      <trkpt lat="44.98749" lon="6.03539">
        <ele>2564</ele>
        <time>2021-03-21T11:54:18.000Z</time>
      </trkpt>
      <trkpt lat="44.98748" lon="6.03539">
        <ele>2564</ele>
        <time>2021-03-21T11:54:19.000Z</time>
      </trkpt>
      <trkpt lat="44.98748" lon="6.0354">
        <ele>2564</ele>
        <time>2021-03-21T11:54:20.000Z</time>
      </trkpt>
      <trkpt lat="44.98748" lon="6.03541">
        <ele>2564.1999511719</ele>
        <time>2021-03-21T11:54:21.000Z</time>
      </trkpt>
      <trkpt lat="44.98748" lon="6.03542">
        <ele>2564.1999511719</ele>
        <time>2021-03-21T11:54:22.000Z</time>
      </trkpt>
      <trkpt lat="44.98747" lon="6.03542">
        <ele>2564.6000976562</ele>
        <time>2021-03-21T11:54:23.000Z</time>
      </trkpt>
      <trkpt lat="44.98747" lon="6.03542">
        <ele>2564.8000488281</ele>
        <time>2021-03-21T11:54:24.000Z</time>
      </trkpt>
      <trkpt lat="44.98747" lon="6.03542">
        <ele>2565</ele>
        <time>2021-03-21T11:54:25.000Z</time>
      </trkpt>
      <trkpt lat="44.98747" lon="6.03542">
        <ele>2565</ele>
        <time>2021-03-21T11:54:26.000Z</time>
      </trkpt>
      <trkpt lat="44.98746" lon="6.03542">
        <ele>2565.1999511719</ele>
        <time>2021-03-21T11:54:27.000Z</time>
      </trkpt>
      <trkpt lat="44.98746" lon="6.03541">
        <ele>2565.6000976562</ele>
        <time>2021-03-21T11:54:28.000Z</time>
      </trkpt>
      <trkpt lat="44.98746" lon="6.03541">
        <ele>2565.8000488281</ele>
        <time>2021-03-21T11:54:29.000Z</time>
      </trkpt>
      <trkpt lat="44.98745" lon="6.0354">
        <ele>2566.3999023438</ele>
        <time>2021-03-21T11:54:30.000Z</time>
      </trkpt>
      <trkpt lat="44.98744" lon="6.0354">
        <ele>2566.8000488281</ele>
        <time>2021-03-21T11:54:31.000Z</time>
      </trkpt>
      <trkpt lat="44.98744" lon="6.03539">
        <ele>2566.8000488281</ele>
        <time>2021-03-21T11:54:32.000Z</time>
      </trkpt>
      <trkpt lat="44.98744" lon="6.03539">
        <ele>2566.8000488281</ele>
        <time>2021-03-21T11:54:33.000Z</time>
      </trkpt>
      <trkpt lat="44.98744" lon="6.03539">
        <ele>2566.8000488281</ele>
        <time>2021-03-21T11:54:34.000Z</time>
      </trkpt>
      <trkpt lat="44.98744" lon="6.03539">
        <ele>2566.8000488281</ele>
        <time>2021-03-21T11:54:35.000Z</time>
      </trkpt>
      <trkpt lat="44.98744" lon="6.03539">
        <ele>2567</ele>
        <time>2021-03-21T11:54:36.000Z</time>
      </trkpt>
      <trkpt lat="44.98744" lon="6.03539">
        <ele>2567.1999511719</ele>
        <time>2021-03-21T11:54:37.000Z</time>
      </trkpt>
      <trkpt lat="44.98744" lon="6.03537">
        <ele>2567.3999023438</ele>
        <time>2021-03-21T11:54:38.000Z</time>
      </trkpt>
      <trkpt lat="44.98743" lon="6.03537">
        <ele>2567.6000976562</ele>
        <time>2021-03-21T11:54:39.000Z</time>
      </trkpt>
      <trkpt lat="44.98743" lon="6.03536">
        <ele>2568</ele>
        <time>2021-03-21T11:54:40.000Z</time>
      </trkpt>
      <trkpt lat="44.98742" lon="6.03536">
        <ele>2568.3999023438</ele>
        <time>2021-03-21T11:54:41.000Z</time>
      </trkpt>
      <trkpt lat="44.98742" lon="6.03536">
        <ele>2568.6000976562</ele>
        <time>2021-03-21T11:54:42.000Z</time>
      </trkpt>
      <trkpt lat="44.98742" lon="6.03535">
        <ele>2568.8000488281</ele>
        <time>2021-03-21T11:54:43.000Z</time>
      </trkpt>
      <trkpt lat="44.98741" lon="6.03535">
        <ele>2569.1999511719</ele>
        <time>2021-03-21T11:54:44.000Z</time>
      </trkpt>
      <trkpt lat="44.98741" lon="6.03534">
        <ele>2569.3999023438</ele>
        <time>2021-03-21T11:54:45.000Z</time>
      </trkpt>
      <trkpt lat="44.9874" lon="6.03534">
        <ele>2569.8000488281</ele>
        <time>2021-03-21T11:54:46.000Z</time>
      </trkpt>
      <trkpt lat="44.9874" lon="6.03534">
        <ele>2570</ele>
        <time>2021-03-21T11:54:47.000Z</time>
      </trkpt>
      <trkpt lat="44.98739" lon="6.03533">
        <ele>2570.3999023438</ele>
        <time>2021-03-21T11:54:48.000Z</time>
      </trkpt>
      <trkpt lat="44.98739" lon="6.03533">
        <ele>2570.8000488281</ele>
        <time>2021-03-21T11:54:49.000Z</time>
      </trkpt>
      <trkpt lat="44.98739" lon="6.03532">
        <ele>2570.8000488281</ele>
        <time>2021-03-21T11:54:50.000Z</time>
      </trkpt>
      <trkpt lat="44.98738" lon="6.03532">
        <ele>2571.1999511719</ele>
        <time>2021-03-21T11:54:51.000Z</time>
      </trkpt>
      <trkpt lat="44.98738" lon="6.03532">
        <ele>2571.3999023438</ele>
        <time>2021-03-21T11:54:52.000Z</time>
      </trkpt>
      <trkpt lat="44.98737" lon="6.03532">
        <ele>2571.8000488281</ele>
        <time>2021-03-21T11:54:53.000Z</time>
      </trkpt>
      <trkpt lat="44.98737" lon="6.03531">
        <ele>2572.1999511719</ele>
        <time>2021-03-21T11:54:54.000Z</time>
      </trkpt>
      <trkpt lat="44.98736" lon="6.03531">
        <ele>2572.6000976562</ele>
        <time>2021-03-21T11:54:55.000Z</time>
      </trkpt>
      <trkpt lat="44.98736" lon="6.03531">
        <ele>2573</ele>
        <time>2021-03-21T11:54:56.000Z</time>
      </trkpt>
      <trkpt lat="44.98735" lon="6.0353">
        <ele>2573.1999511719</ele>
        <time>2021-03-21T11:54:57.000Z</time>
      </trkpt>
      <trkpt lat="44.98735" lon="6.0353">
        <ele>2573.3999023438</ele>
        <time>2021-03-21T11:54:58.000Z</time>
      </trkpt>
      <trkpt lat="44.98734" lon="6.0353">
        <ele>2573.6000976562</ele>
        <time>2021-03-21T11:54:59.000Z</time>
      </trkpt>
      <trkpt lat="44.98734" lon="6.0353">
        <ele>2573.6000976562</ele>
        <time>2021-03-21T11:55:00.000Z</time>
      </trkpt>
      <trkpt lat="44.98733" lon="6.03529">
        <ele>2574</ele>
        <time>2021-03-21T11:55:01.000Z</time>
      </trkpt>
      <trkpt lat="44.98733" lon="6.03529">
        <ele>2574</ele>
        <time>2021-03-21T11:55:02.000Z</time>
      </trkpt>
      <trkpt lat="44.98733" lon="6.03529">
        <ele>2574.1999511719</ele>
        <time>2021-03-21T11:55:03.000Z</time>
      </trkpt>
      <trkpt lat="44.98733" lon="6.03529">
        <ele>2574.3999023438</ele>
        <time>2021-03-21T11:55:04.000Z</time>
      </trkpt>
      <trkpt lat="44.98732" lon="6.03529">
        <ele>2574.6000976562</ele>
        <time>2021-03-21T11:55:05.000Z</time>
      </trkpt>
      <trkpt lat="44.98732" lon="6.03529">
        <ele>2574.6000976562</ele>
        <time>2021-03-21T11:55:06.000Z</time>
      </trkpt>
      <trkpt lat="44.98732" lon="6.0353">
        <ele>2574.8000488281</ele>
        <time>2021-03-21T11:55:07.000Z</time>
      </trkpt>
      <trkpt lat="44.98731" lon="6.0353">
        <ele>2575</ele>
        <time>2021-03-21T11:55:08.000Z</time>
      </trkpt>
      <trkpt lat="44.98731" lon="6.0353">
        <ele>2575.1999511719</ele>
        <time>2021-03-21T11:55:09.000Z</time>
      </trkpt>
      <trkpt lat="44.9873" lon="6.0353">
        <ele>2575.3999023438</ele>
        <time>2021-03-21T11:55:10.000Z</time>
      </trkpt>
      <trkpt lat="44.9873" lon="6.0353">
        <ele>2575.6000976562</ele>
        <time>2021-03-21T11:55:11.000Z</time>
      </trkpt>
      <trkpt lat="44.98729" lon="6.0353">
        <ele>2575.8000488281</ele>
        <time>2021-03-21T11:55:12.000Z</time>
      </trkpt>
      <trkpt lat="44.98729" lon="6.0353">
        <ele>2576</ele>
        <time>2021-03-21T11:55:13.000Z</time>
      </trkpt>
      <trkpt lat="44.98728" lon="6.0353">
        <ele>2576.1999511719</ele>
        <time>2021-03-21T11:55:14.000Z</time>
      </trkpt>
      <trkpt lat="44.98727" lon="6.0353">
        <ele>2576.3999023438</ele>
        <time>2021-03-21T11:55:15.000Z</time>
      </trkpt>
      <trkpt lat="44.98727" lon="6.0353">
        <ele>2576.8000488281</ele>
        <time>2021-03-21T11:55:16.000Z</time>
      </trkpt>
      <trkpt lat="44.98726" lon="6.0353">
        <ele>2577</ele>
        <time>2021-03-21T11:55:17.000Z</time>
      </trkpt>
      <trkpt lat="44.98726" lon="6.0353">
        <ele>2577.1999511719</ele>
        <time>2021-03-21T11:55:18.000Z</time>
      </trkpt>
      <trkpt lat="44.98726" lon="6.0353">
        <ele>2577.1999511719</ele>
        <time>2021-03-21T11:55:19.000Z</time>
      </trkpt>
      <trkpt lat="44.98725" lon="6.0353">
        <ele>2577.3999023438</ele>
        <time>2021-03-21T11:55:20.000Z</time>
      </trkpt>
      <trkpt lat="44.98725" lon="6.0353">
        <ele>2577.6000976562</ele>
        <time>2021-03-21T11:55:21.000Z</time>
      </trkpt>
      <trkpt lat="44.98724" lon="6.0353">
        <ele>2578</ele>
        <time>2021-03-21T11:55:22.000Z</time>
      </trkpt>
      <trkpt lat="44.98724" lon="6.0353">
        <ele>2578.1999511719</ele>
        <time>2021-03-21T11:55:23.000Z</time>
      </trkpt>
      <trkpt lat="44.98723" lon="6.0353">
        <ele>2578.3999023438</ele>
        <time>2021-03-21T11:55:24.000Z</time>
      </trkpt>
      <trkpt lat="44.98723" lon="6.03529">
        <ele>2578.6000976562</ele>
        <time>2021-03-21T11:55:25.000Z</time>
      </trkpt>
      <trkpt lat="44.98722" lon="6.03529">
        <ele>2578.8000488281</ele>
        <time>2021-03-21T11:55:26.000Z</time>
      </trkpt>
      <trkpt lat="44.98722" lon="6.03529">
        <ele>2579</ele>
        <time>2021-03-21T11:55:27.000Z</time>
      </trkpt>
      <trkpt lat="44.98721" lon="6.03529">
        <ele>2579.3999023438</ele>
        <time>2021-03-21T11:55:28.000Z</time>
      </trkpt>
      <trkpt lat="44.98721" lon="6.03529">
        <ele>2579.6000976562</ele>
        <time>2021-03-21T11:55:29.000Z</time>
      </trkpt>
      <trkpt lat="44.98721" lon="6.03528">
        <ele>2579.8000488281</ele>
        <time>2021-03-21T11:55:30.000Z</time>
      </trkpt>
      <trkpt lat="44.9872" lon="6.03528">
        <ele>2580</ele>
        <time>2021-03-21T11:55:31.000Z</time>
      </trkpt>
      <trkpt lat="44.98719" lon="6.03527">
        <ele>2580.3999023438</ele>
        <time>2021-03-21T11:55:32.000Z</time>
      </trkpt>
      <trkpt lat="44.98719" lon="6.03527">
        <ele>2580.8000488281</ele>
        <time>2021-03-21T11:55:33.000Z</time>
      </trkpt>
      <trkpt lat="44.98718" lon="6.03527">
        <ele>2581</ele>
        <time>2021-03-21T11:55:34.000Z</time>
      </trkpt>
      <trkpt lat="44.98718" lon="6.03526">
        <ele>2581.3999023438</ele>
        <time>2021-03-21T11:55:35.000Z</time>
      </trkpt>
      <trkpt lat="44.98717" lon="6.03526">
        <ele>2581.8000488281</ele>
        <time>2021-03-21T11:55:36.000Z</time>
      </trkpt>
      <trkpt lat="44.98716" lon="6.03525">
        <ele>2582</ele>
        <time>2021-03-21T11:55:37.000Z</time>
      </trkpt>
      <trkpt lat="44.98716" lon="6.03525">
        <ele>2582.1999511719</ele>
        <time>2021-03-21T11:55:38.000Z</time>
      </trkpt>
      <trkpt lat="44.98716" lon="6.03524">
        <ele>2582.3999023438</ele>
        <time>2021-03-21T11:55:39.000Z</time>
      </trkpt>
      <trkpt lat="44.98715" lon="6.03523">
        <ele>2582.6000976562</ele>
        <time>2021-03-21T11:55:40.000Z</time>
      </trkpt>
      <trkpt lat="44.98715" lon="6.03523">
        <ele>2582.8000488281</ele>
        <time>2021-03-21T11:55:41.000Z</time>
      </trkpt>
      <trkpt lat="44.98714" lon="6.03522">
        <ele>2583.1999511719</ele>
        <time>2021-03-21T11:55:42.000Z</time>
      </trkpt>
      <trkpt lat="44.98714" lon="6.03522">
        <ele>2583.3999023438</ele>
        <time>2021-03-21T11:55:43.000Z</time>
      </trkpt>
      <trkpt lat="44.98713" lon="6.03521">
        <ele>2583.6000976562</ele>
        <time>2021-03-21T11:55:44.000Z</time>
      </trkpt>
      <trkpt lat="44.98712" lon="6.0352">
        <ele>2583.8000488281</ele>
        <time>2021-03-21T11:55:45.000Z</time>
      </trkpt>
      <trkpt lat="44.98712" lon="6.0352">
        <ele>2584</ele>
        <time>2021-03-21T11:55:46.000Z</time>
      </trkpt>
      <trkpt lat="44.98712" lon="6.0352">
        <ele>2584</ele>
        <time>2021-03-21T11:55:47.000Z</time>
      </trkpt>
      <trkpt lat="44.98712" lon="6.0352">
        <ele>2584.1999511719</ele>
        <time>2021-03-21T11:55:48.000Z</time>
      </trkpt>
      <trkpt lat="44.98712" lon="6.0352">
        <ele>2584.3999023438</ele>
        <time>2021-03-21T11:55:49.000Z</time>
      </trkpt>
      <trkpt lat="44.98711" lon="6.0352">
        <ele>2584.3999023438</ele>
        <time>2021-03-21T11:55:50.000Z</time>
      </trkpt>
      <trkpt lat="44.98712" lon="6.0352">
        <ele>2584.3999023438</ele>
        <time>2021-03-21T11:55:51.000Z</time>
      </trkpt>
      <trkpt lat="44.98711" lon="6.0352">
        <ele>2584.6000976562</ele>
        <time>2021-03-21T11:55:52.000Z</time>
      </trkpt>
      <trkpt lat="44.98711" lon="6.03521">
        <ele>2584.8000488281</ele>
        <time>2021-03-21T11:55:53.000Z</time>
      </trkpt>
      <trkpt lat="44.98711" lon="6.0352">
        <ele>2584.8000488281</ele>
        <time>2021-03-21T11:55:54.000Z</time>
      </trkpt>
      <trkpt lat="44.98711" lon="6.03519">
        <ele>2585</ele>
        <time>2021-03-21T11:55:55.000Z</time>
      </trkpt>
      <trkpt lat="44.9871" lon="6.03519">
        <ele>2585.1999511719</ele>
        <time>2021-03-21T11:55:56.000Z</time>
      </trkpt>
      <trkpt lat="44.9871" lon="6.03518">
        <ele>2585.1999511719</ele>
        <time>2021-03-21T11:55:57.000Z</time>
      </trkpt>
      <trkpt lat="44.98709" lon="6.03517">
        <ele>2585.3999023438</ele>
        <time>2021-03-21T11:55:58.000Z</time>
      </trkpt>
      <trkpt lat="44.98709" lon="6.03517">
        <ele>2585.6000976562</ele>
        <time>2021-03-21T11:55:59.000Z</time>
      </trkpt>
      <trkpt lat="44.98709" lon="6.03516">
        <ele>2585.8000488281</ele>
        <time>2021-03-21T11:56:00.000Z</time>
      </trkpt>
      <trkpt lat="44.98708" lon="6.03515">
        <ele>2585.8000488281</ele>
        <time>2021-03-21T11:56:01.000Z</time>
      </trkpt>
      <trkpt lat="44.98708" lon="6.03514">
        <ele>2586</ele>
        <time>2021-03-21T11:56:02.000Z</time>
      </trkpt>
      <trkpt lat="44.98708" lon="6.03514">
        <ele>2586</ele>
        <time>2021-03-21T11:56:03.000Z</time>
      </trkpt>
      <trkpt lat="44.98708" lon="6.03513">
        <ele>2585.8000488281</ele>
        <time>2021-03-21T11:56:04.000Z</time>
      </trkpt>
      <trkpt lat="44.98707" lon="6.03513">
        <ele>2585.8000488281</ele>
        <time>2021-03-21T11:56:05.000Z</time>
      </trkpt>
      <trkpt lat="44.98707" lon="6.03512">
        <ele>2585.8000488281</ele>
        <time>2021-03-21T11:56:06.000Z</time>
      </trkpt>
      <trkpt lat="44.98707" lon="6.03511">
        <ele>2585.8000488281</ele>
        <time>2021-03-21T11:56:07.000Z</time>
      </trkpt>
      <trkpt lat="44.98707" lon="6.0351">
        <ele>2585.6000976562</ele>
        <time>2021-03-21T11:56:08.000Z</time>
      </trkpt>
      <trkpt lat="44.98706" lon="6.0351">
        <ele>2585.6000976562</ele>
        <time>2021-03-21T11:56:09.000Z</time>
      </trkpt>
      <trkpt lat="44.98706" lon="6.03509">
        <ele>2585.6000976562</ele>
        <time>2021-03-21T11:56:10.000Z</time>
      </trkpt>
      <trkpt lat="44.98706" lon="6.03509">
        <ele>2585.6000976562</ele>
        <time>2021-03-21T11:56:11.000Z</time>
      </trkpt>
      <trkpt lat="44.98706" lon="6.03508">
        <ele>2585.6000976562</ele>
        <time>2021-03-21T11:56:12.000Z</time>
      </trkpt>
      <trkpt lat="44.98705" lon="6.03507">
        <ele>2585.6000976562</ele>
        <time>2021-03-21T11:56:13.000Z</time>
      </trkpt>
      <trkpt lat="44.98705" lon="6.03507">
        <ele>2585.6000976562</ele>
        <time>2021-03-21T11:56:14.000Z</time>
      </trkpt>
      <trkpt lat="44.98705" lon="6.03506">
        <ele>2585.6000976562</ele>
        <time>2021-03-21T11:56:15.000Z</time>
      </trkpt>
      <trkpt lat="44.98704" lon="6.03505">
        <ele>2585.6000976562</ele>
        <time>2021-03-21T11:56:16.000Z</time>
      </trkpt>
      <trkpt lat="44.98704" lon="6.03505">
        <ele>2585.6000976562</ele>
        <time>2021-03-21T11:56:17.000Z</time>
      </trkpt>
      <trkpt lat="44.98704" lon="6.03504">
        <ele>2585.6000976562</ele>
        <time>2021-03-21T11:56:18.000Z</time>
      </trkpt>
      <trkpt lat="44.98704" lon="6.03503">
        <ele>2585.3999023438</ele>
        <time>2021-03-21T11:56:19.000Z</time>
      </trkpt>
      <trkpt lat="44.98704" lon="6.03502">
        <ele>2585.1999511719</ele>
        <time>2021-03-21T11:56:20.000Z</time>
      </trkpt>
      <trkpt lat="44.98704" lon="6.03502">
        <ele>2585.1999511719</ele>
        <time>2021-03-21T11:56:21.000Z</time>
      </trkpt>
      <trkpt lat="44.98704" lon="6.03501">
        <ele>2585</ele>
        <time>2021-03-21T11:56:22.000Z</time>
      </trkpt>
      <trkpt lat="44.98704" lon="6.035">
        <ele>2584.8000488281</ele>
        <time>2021-03-21T11:56:23.000Z</time>
      </trkpt>
      <trkpt lat="44.98704" lon="6.03499">
        <ele>2584.6000976562</ele>
        <time>2021-03-21T11:56:24.000Z</time>
      </trkpt>
      <trkpt lat="44.98704" lon="6.03498">
        <ele>2584.6000976562</ele>
        <time>2021-03-21T11:56:25.000Z</time>
      </trkpt>
      <trkpt lat="44.98703" lon="6.03498">
        <ele>2584.6000976562</ele>
        <time>2021-03-21T11:56:26.000Z</time>
      </trkpt>
      <trkpt lat="44.98703" lon="6.03497">
        <ele>2584.3999023438</ele>
        <time>2021-03-21T11:56:27.000Z</time>
      </trkpt>
      <trkpt lat="44.98703" lon="6.03496">
        <ele>2584.3999023438</ele>
        <time>2021-03-21T11:56:28.000Z</time>
      </trkpt>
      <trkpt lat="44.98702" lon="6.03496">
        <ele>2584.3999023438</ele>
        <time>2021-03-21T11:56:29.000Z</time>
      </trkpt>
      <trkpt lat="44.98702" lon="6.03495">
        <ele>2584.3999023438</ele>
        <time>2021-03-21T11:56:30.000Z</time>
      </trkpt>
      <trkpt lat="44.98702" lon="6.03495">
        <ele>2584.6000976562</ele>
        <time>2021-03-21T11:56:31.000Z</time>
      </trkpt>
      <trkpt lat="44.98701" lon="6.03494">
        <ele>2584.6000976562</ele>
        <time>2021-03-21T11:56:32.000Z</time>
      </trkpt>
      <trkpt lat="44.98701" lon="6.03493">
        <ele>2584.6000976562</ele>
        <time>2021-03-21T11:56:33.000Z</time>
      </trkpt>
      <trkpt lat="44.98701" lon="6.03493">
        <ele>2584.3999023438</ele>
        <time>2021-03-21T11:56:34.000Z</time>
      </trkpt>
      <trkpt lat="44.98701" lon="6.03492">
        <ele>2584.6000976562</ele>
        <time>2021-03-21T11:56:35.000Z</time>
      </trkpt>
      <trkpt lat="44.987" lon="6.03492">
        <ele>2584.6000976562</ele>
        <time>2021-03-21T11:56:36.000Z</time>
      </trkpt>
      <trkpt lat="44.987" lon="6.03491">
        <ele>2584.6000976562</ele>
        <time>2021-03-21T11:56:37.000Z</time>
      </trkpt>
      <trkpt lat="44.98699" lon="6.0349">
        <ele>2584.8000488281</ele>
        <time>2021-03-21T11:56:38.000Z</time>
      </trkpt>
      <trkpt lat="44.98699" lon="6.0349">
        <ele>2585</ele>
        <time>2021-03-21T11:56:39.000Z</time>
      </trkpt>
      <trkpt lat="44.98698" lon="6.0349">
        <ele>2585.1999511719</ele>
        <time>2021-03-21T11:56:40.000Z</time>
      </trkpt>
      <trkpt lat="44.98698" lon="6.03489">
        <ele>2585.1999511719</ele>
        <time>2021-03-21T11:56:41.000Z</time>
      </trkpt>
      <trkpt lat="44.98697" lon="6.03488">
        <ele>2585.3999023438</ele>
        <time>2021-03-21T11:56:42.000Z</time>
      </trkpt>
      <trkpt lat="44.98697" lon="6.03487">
        <ele>2585.3999023438</ele>
        <time>2021-03-21T11:56:43.000Z</time>
      </trkpt>
      <trkpt lat="44.98696" lon="6.03487">
        <ele>2585.6000976562</ele>
        <time>2021-03-21T11:56:44.000Z</time>
      </trkpt>
      <trkpt lat="44.98695" lon="6.03486">
        <ele>2585.8000488281</ele>
        <time>2021-03-21T11:56:45.000Z</time>
      </trkpt>
      <trkpt lat="44.98695" lon="6.03486">
        <ele>2586.1999511719</ele>
        <time>2021-03-21T11:56:46.000Z</time>
      </trkpt>
      <trkpt lat="44.98694" lon="6.03485">
        <ele>2586.1999511719</ele>
        <time>2021-03-21T11:56:47.000Z</time>
      </trkpt>
      <trkpt lat="44.98694" lon="6.03485">
        <ele>2586.6000976562</ele>
        <time>2021-03-21T11:56:48.000Z</time>
      </trkpt>
      <trkpt lat="44.98694" lon="6.03484">
        <ele>2586.6000976562</ele>
        <time>2021-03-21T11:56:49.000Z</time>
      </trkpt>
      <trkpt lat="44.98693" lon="6.03484">
        <ele>2587</ele>
        <time>2021-03-21T11:56:50.000Z</time>
      </trkpt>
      <trkpt lat="44.98693" lon="6.03483">
        <ele>2587.1999511719</ele>
        <time>2021-03-21T11:56:51.000Z</time>
      </trkpt>
      <trkpt lat="44.98692" lon="6.03483">
        <ele>2587.3999023438</ele>
        <time>2021-03-21T11:56:52.000Z</time>
      </trkpt>
      <trkpt lat="44.98691" lon="6.03483">
        <ele>2587.6000976562</ele>
        <time>2021-03-21T11:56:53.000Z</time>
      </trkpt>
      <trkpt lat="44.98691" lon="6.03482">
        <ele>2587.8000488281</ele>
        <time>2021-03-21T11:56:54.000Z</time>
      </trkpt>
      <trkpt lat="44.9869" lon="6.03482">
        <ele>2588.1999511719</ele>
        <time>2021-03-21T11:56:55.000Z</time>
      </trkpt>
      <trkpt lat="44.9869" lon="6.03482">
        <ele>2588.3999023438</ele>
        <time>2021-03-21T11:56:56.000Z</time>
      </trkpt>
      <trkpt lat="44.98689" lon="6.03482">
        <ele>2588.6000976562</ele>
        <time>2021-03-21T11:56:57.000Z</time>
      </trkpt>
      <trkpt lat="44.98689" lon="6.03482">
        <ele>2588.8000488281</ele>
        <time>2021-03-21T11:56:58.000Z</time>
      </trkpt>
      <trkpt lat="44.98688" lon="6.03481">
        <ele>2589.1999511719</ele>
        <time>2021-03-21T11:56:59.000Z</time>
      </trkpt>
      <trkpt lat="44.98687" lon="6.03481">
        <ele>2589.3999023438</ele>
        <time>2021-03-21T11:57:00.000Z</time>
      </trkpt>
      <trkpt lat="44.98687" lon="6.03481">
        <ele>2589.8000488281</ele>
        <time>2021-03-21T11:57:01.000Z</time>
      </trkpt>
      <trkpt lat="44.98686" lon="6.03481">
        <ele>2590</ele>
        <time>2021-03-21T11:57:02.000Z</time>
      </trkpt>
      <trkpt lat="44.98686" lon="6.03481">
        <ele>2590.1999511719</ele>
        <time>2021-03-21T11:57:03.000Z</time>
      </trkpt>
      <trkpt lat="44.98685" lon="6.03481">
        <ele>2590.3999023438</ele>
        <time>2021-03-21T11:57:04.000Z</time>
      </trkpt>
      <trkpt lat="44.98685" lon="6.0348">
        <ele>2590.6000976562</ele>
        <time>2021-03-21T11:57:05.000Z</time>
      </trkpt>
      <trkpt lat="44.98684" lon="6.0348">
        <ele>2590.8000488281</ele>
        <time>2021-03-21T11:57:06.000Z</time>
      </trkpt>
      <trkpt lat="44.98684" lon="6.0348">
        <ele>2591</ele>
        <time>2021-03-21T11:57:07.000Z</time>
      </trkpt>
      <trkpt lat="44.98683" lon="6.03481">
        <ele>2591.3999023438</ele>
        <time>2021-03-21T11:57:08.000Z</time>
      </trkpt>
      <trkpt lat="44.98683" lon="6.0348">
        <ele>2591.6000976562</ele>
        <time>2021-03-21T11:57:09.000Z</time>
      </trkpt>
      <trkpt lat="44.98682" lon="6.0348">
        <ele>2592</ele>
        <time>2021-03-21T11:57:10.000Z</time>
      </trkpt>
      <trkpt lat="44.98682" lon="6.0348">
        <ele>2592</ele>
        <time>2021-03-21T11:57:11.000Z</time>
      </trkpt>
      <trkpt lat="44.98681" lon="6.0348">
        <ele>2592.1999511719</ele>
        <time>2021-03-21T11:57:12.000Z</time>
      </trkpt>
      <trkpt lat="44.98681" lon="6.0348">
        <ele>2592.6000976562</ele>
        <time>2021-03-21T11:57:13.000Z</time>
      </trkpt>
      <trkpt lat="44.9868" lon="6.0348">
        <ele>2592.8000488281</ele>
        <time>2021-03-21T11:57:14.000Z</time>
      </trkpt>
      <trkpt lat="44.9868" lon="6.0348">
        <ele>2593</ele>
        <time>2021-03-21T11:57:15.000Z</time>
      </trkpt>
      <trkpt lat="44.98679" lon="6.0348">
        <ele>2593.1999511719</ele>
        <time>2021-03-21T11:57:16.000Z</time>
      </trkpt>
      <trkpt lat="44.98679" lon="6.0348">
        <ele>2593.3999023438</ele>
        <time>2021-03-21T11:57:17.000Z</time>
      </trkpt>
      <trkpt lat="44.98678" lon="6.0348">
        <ele>2593.6000976562</ele>
        <time>2021-03-21T11:57:18.000Z</time>
      </trkpt>
      <trkpt lat="44.98678" lon="6.03479">
        <ele>2593.8000488281</ele>
        <time>2021-03-21T11:57:19.000Z</time>
      </trkpt>
      <trkpt lat="44.98677" lon="6.03479">
        <ele>2594</ele>
        <time>2021-03-21T11:57:20.000Z</time>
      </trkpt>
      <trkpt lat="44.98677" lon="6.03479">
        <ele>2594.1999511719</ele>
        <time>2021-03-21T11:57:21.000Z</time>
      </trkpt>
      <trkpt lat="44.98676" lon="6.03479">
        <ele>2594.3999023438</ele>
        <time>2021-03-21T11:57:22.000Z</time>
      </trkpt>
      <trkpt lat="44.98675" lon="6.03479">
        <ele>2594.8000488281</ele>
        <time>2021-03-21T11:57:23.000Z</time>
      </trkpt>
      <trkpt lat="44.98675" lon="6.03479">
        <ele>2595</ele>
        <time>2021-03-21T11:57:24.000Z</time>
      </trkpt>
      <trkpt lat="44.98674" lon="6.03479">
        <ele>2595.1999511719</ele>
        <time>2021-03-21T11:57:25.000Z</time>
      </trkpt>
      <trkpt lat="44.98674" lon="6.03478">
        <ele>2595.3999023438</ele>
        <time>2021-03-21T11:57:26.000Z</time>
      </trkpt>
      <trkpt lat="44.98673" lon="6.03478">
        <ele>2595.8000488281</ele>
        <time>2021-03-21T11:57:27.000Z</time>
      </trkpt>
      <trkpt lat="44.98673" lon="6.03478">
        <ele>2596</ele>
        <time>2021-03-21T11:57:28.000Z</time>
      </trkpt>
      <trkpt lat="44.98672" lon="6.03478">
        <ele>2596.1999511719</ele>
        <time>2021-03-21T11:57:29.000Z</time>
      </trkpt>
      <trkpt lat="44.98671" lon="6.03478">
        <ele>2596.3999023438</ele>
        <time>2021-03-21T11:57:30.000Z</time>
      </trkpt>
      <trkpt lat="44.98671" lon="6.03478">
        <ele>2596.6000976562</ele>
        <time>2021-03-21T11:57:31.000Z</time>
      </trkpt>
      <trkpt lat="44.98671" lon="6.03478">
        <ele>2597</ele>
        <time>2021-03-21T11:57:32.000Z</time>
      </trkpt>
      <trkpt lat="44.9867" lon="6.03478">
        <ele>2597.3999023438</ele>
        <time>2021-03-21T11:57:33.000Z</time>
      </trkpt>
      <trkpt lat="44.98669" lon="6.03479">
        <ele>2597.8000488281</ele>
        <time>2021-03-21T11:57:34.000Z</time>
      </trkpt>
      <trkpt lat="44.98668" lon="6.03479">
        <ele>2598</ele>
        <time>2021-03-21T11:57:35.000Z</time>
      </trkpt>
      <trkpt lat="44.98668" lon="6.03479">
        <ele>2598.3999023438</ele>
        <time>2021-03-21T11:57:36.000Z</time>
      </trkpt>
      <trkpt lat="44.98667" lon="6.03479">
        <ele>2598.8000488281</ele>
        <time>2021-03-21T11:57:37.000Z</time>
      </trkpt>
      <trkpt lat="44.98666" lon="6.03479">
        <ele>2599</ele>
        <time>2021-03-21T11:57:38.000Z</time>
      </trkpt>
      <trkpt lat="44.98666" lon="6.03479">
        <ele>2599.1999511719</ele>
        <time>2021-03-21T11:57:39.000Z</time>
      </trkpt>
      <trkpt lat="44.98665" lon="6.03479">
        <ele>2599.6000976562</ele>
        <time>2021-03-21T11:57:40.000Z</time>
      </trkpt>
      <trkpt lat="44.98665" lon="6.03479">
        <ele>2600</ele>
        <time>2021-03-21T11:57:41.000Z</time>
      </trkpt>
      <trkpt lat="44.98664" lon="6.03479">
        <ele>2600.1999511719</ele>
        <time>2021-03-21T11:57:42.000Z</time>
      </trkpt>
      <trkpt lat="44.98664" lon="6.03479">
        <ele>2600.3999023438</ele>
        <time>2021-03-21T11:57:43.000Z</time>
      </trkpt>
      <trkpt lat="44.98663" lon="6.03479">
        <ele>2600.6000976562</ele>
        <time>2021-03-21T11:57:44.000Z</time>
      </trkpt>
      <trkpt lat="44.98663" lon="6.03479">
        <ele>2600.8000488281</ele>
        <time>2021-03-21T11:57:45.000Z</time>
      </trkpt>
      <trkpt lat="44.98663" lon="6.0348">
        <ele>2601</ele>
        <time>2021-03-21T11:57:46.000Z</time>
      </trkpt>
      <trkpt lat="44.98662" lon="6.0348">
        <ele>2601.3999023438</ele>
        <time>2021-03-21T11:57:47.000Z</time>
      </trkpt>
      <trkpt lat="44.98662" lon="6.03481">
        <ele>2601.6000976562</ele>
        <time>2021-03-21T11:57:48.000Z</time>
      </trkpt>
      <trkpt lat="44.98662" lon="6.03482">
        <ele>2601.8000488281</ele>
        <time>2021-03-21T11:57:49.000Z</time>
      </trkpt>
      <trkpt lat="44.98661" lon="6.03482">
        <ele>2602</ele>
        <time>2021-03-21T11:57:50.000Z</time>
      </trkpt>
      <trkpt lat="44.98661" lon="6.03483">
        <ele>2602.1999511719</ele>
        <time>2021-03-21T11:57:51.000Z</time>
      </trkpt>
      <trkpt lat="44.98661" lon="6.03483">
        <ele>2602.1999511719</ele>
        <time>2021-03-21T11:57:52.000Z</time>
      </trkpt>
      <trkpt lat="44.98661" lon="6.03484">
        <ele>2602.3999023438</ele>
        <time>2021-03-21T11:57:53.000Z</time>
      </trkpt>
      <trkpt lat="44.98661" lon="6.03485">
        <ele>2602.3999023438</ele>
        <time>2021-03-21T11:57:54.000Z</time>
      </trkpt>
      <trkpt lat="44.98661" lon="6.03486">
        <ele>2602.6000976562</ele>
        <time>2021-03-21T11:57:55.000Z</time>
      </trkpt>
      <trkpt lat="44.98661" lon="6.03487">
        <ele>2602.8000488281</ele>
        <time>2021-03-21T11:57:56.000Z</time>
      </trkpt>
      <trkpt lat="44.9866" lon="6.03488">
        <ele>2603.1999511719</ele>
        <time>2021-03-21T11:57:57.000Z</time>
      </trkpt>
      <trkpt lat="44.9866" lon="6.03489">
        <ele>2603.3999023438</ele>
        <time>2021-03-21T11:57:58.000Z</time>
      </trkpt>
      <trkpt lat="44.9866" lon="6.0349">
        <ele>2603.8000488281</ele>
        <time>2021-03-21T11:57:59.000Z</time>
      </trkpt>
      <trkpt lat="44.98659" lon="6.0349">
        <ele>2604</ele>
        <time>2021-03-21T11:58:00.000Z</time>
      </trkpt>
      <trkpt lat="44.98659" lon="6.03491">
        <ele>2604.3999023438</ele>
        <time>2021-03-21T11:58:01.000Z</time>
      </trkpt>
      <trkpt lat="44.98659" lon="6.03492">
        <ele>2604.6000976562</ele>
        <time>2021-03-21T11:58:02.000Z</time>
      </trkpt>
      <trkpt lat="44.98658" lon="6.03492">
        <ele>2604.6000976562</ele>
        <time>2021-03-21T11:58:03.000Z</time>
      </trkpt>
      <trkpt lat="44.98658" lon="6.03493">
        <ele>2604.8000488281</ele>
        <time>2021-03-21T11:58:04.000Z</time>
      </trkpt>
      <trkpt lat="44.98658" lon="6.03493">
        <ele>2605</ele>
        <time>2021-03-21T11:58:05.000Z</time>
      </trkpt>
      <trkpt lat="44.98658" lon="6.03494">
        <ele>2605</ele>
        <time>2021-03-21T11:58:06.000Z</time>
      </trkpt>
      <trkpt lat="44.98658" lon="6.03495">
        <ele>2605.1999511719</ele>
        <time>2021-03-21T11:58:07.000Z</time>
      </trkpt>
      <trkpt lat="44.98658" lon="6.03495">
        <ele>2605.3999023438</ele>
        <time>2021-03-21T11:58:08.000Z</time>
      </trkpt>
      <trkpt lat="44.98658" lon="6.03496">
        <ele>2605.3999023438</ele>
        <time>2021-03-21T11:58:09.000Z</time>
      </trkpt>
      <trkpt lat="44.98658" lon="6.03497">
        <ele>2605.6000976562</ele>
        <time>2021-03-21T11:58:10.000Z</time>
      </trkpt>
      <trkpt lat="44.98657" lon="6.03498">
        <ele>2605.8000488281</ele>
        <time>2021-03-21T11:58:11.000Z</time>
      </trkpt>
      <trkpt lat="44.98657" lon="6.03499">
        <ele>2606</ele>
        <time>2021-03-21T11:58:12.000Z</time>
      </trkpt>
      <trkpt lat="44.98657" lon="6.03499">
        <ele>2606.1999511719</ele>
        <time>2021-03-21T11:58:13.000Z</time>
      </trkpt>
      <trkpt lat="44.98657" lon="6.035">
        <ele>2606.1999511719</ele>
        <time>2021-03-21T11:58:14.000Z</time>
      </trkpt>
      <trkpt lat="44.98657" lon="6.03501">
        <ele>2606.3999023438</ele>
        <time>2021-03-21T11:58:15.000Z</time>
      </trkpt>
      <trkpt lat="44.98657" lon="6.03502">
        <ele>2606.3999023438</ele>
        <time>2021-03-21T11:58:16.000Z</time>
      </trkpt>
      <trkpt lat="44.98657" lon="6.03502">
        <ele>2606.6000976562</ele>
        <time>2021-03-21T11:58:17.000Z</time>
      </trkpt>
      <trkpt lat="44.98657" lon="6.03503">
        <ele>2606.8000488281</ele>
        <time>2021-03-21T11:58:18.000Z</time>
      </trkpt>
      <trkpt lat="44.98656" lon="6.03504">
        <ele>2607</ele>
        <time>2021-03-21T11:58:19.000Z</time>
      </trkpt>
      <trkpt lat="44.98656" lon="6.03505">
        <ele>2607.1999511719</ele>
        <time>2021-03-21T11:58:20.000Z</time>
      </trkpt>
      <trkpt lat="44.98656" lon="6.03506">
        <ele>2607.1999511719</ele>
        <time>2021-03-21T11:58:21.000Z</time>
      </trkpt>
      <trkpt lat="44.98656" lon="6.03506">
        <ele>2607.3999023438</ele>
        <time>2021-03-21T11:58:22.000Z</time>
      </trkpt>
      <trkpt lat="44.98656" lon="6.03507">
        <ele>2607.6000976562</ele>
        <time>2021-03-21T11:58:23.000Z</time>
      </trkpt>
      <trkpt lat="44.98656" lon="6.03507">
        <ele>2607.8000488281</ele>
        <time>2021-03-21T11:58:24.000Z</time>
      </trkpt>
      <trkpt lat="44.98656" lon="6.03508">
        <ele>2607.8000488281</ele>
        <time>2021-03-21T11:58:25.000Z</time>
      </trkpt>
      <trkpt lat="44.98655" lon="6.03509">
        <ele>2608</ele>
        <time>2021-03-21T11:58:26.000Z</time>
      </trkpt>
      <trkpt lat="44.98655" lon="6.0351">
        <ele>2608.1999511719</ele>
        <time>2021-03-21T11:58:27.000Z</time>
      </trkpt>
      <trkpt lat="44.98655" lon="6.0351">
        <ele>2608.1999511719</ele>
        <time>2021-03-21T11:58:28.000Z</time>
      </trkpt>
      <trkpt lat="44.98655" lon="6.03511">
        <ele>2608.6000976562</ele>
        <time>2021-03-21T11:58:29.000Z</time>
      </trkpt>
      <trkpt lat="44.98654" lon="6.03512">
        <ele>2608.8000488281</ele>
        <time>2021-03-21T11:58:30.000Z</time>
      </trkpt>
      <trkpt lat="44.98654" lon="6.03513">
        <ele>2609.1999511719</ele>
        <time>2021-03-21T11:58:31.000Z</time>
      </trkpt>
      <trkpt lat="44.98653" lon="6.03513">
        <ele>2609.3999023438</ele>
        <time>2021-03-21T11:58:32.000Z</time>
      </trkpt>
      <trkpt lat="44.98653" lon="6.03514">
        <ele>2609.6000976562</ele>
        <time>2021-03-21T11:58:33.000Z</time>
      </trkpt>
      <trkpt lat="44.98653" lon="6.03515">
        <ele>2609.8000488281</ele>
        <time>2021-03-21T11:58:34.000Z</time>
      </trkpt>
      <trkpt lat="44.98652" lon="6.03516">
        <ele>2610.1999511719</ele>
        <time>2021-03-21T11:58:35.000Z</time>
      </trkpt>
      <trkpt lat="44.98652" lon="6.03516">
        <ele>2610.3999023438</ele>
        <time>2021-03-21T11:58:36.000Z</time>
      </trkpt>
      <trkpt lat="44.98652" lon="6.03517">
        <ele>2610.6000976562</ele>
        <time>2021-03-21T11:58:37.000Z</time>
      </trkpt>
      <trkpt lat="44.98652" lon="6.03517">
        <ele>2610.8000488281</ele>
        <time>2021-03-21T11:58:38.000Z</time>
      </trkpt>
      <trkpt lat="44.98651" lon="6.03517">
        <ele>2611.1999511719</ele>
        <time>2021-03-21T11:58:39.000Z</time>
      </trkpt>
      <trkpt lat="44.98651" lon="6.03517">
        <ele>2611</ele>
        <time>2021-03-21T11:58:40.000Z</time>
      </trkpt>
      <trkpt lat="44.98651" lon="6.03517">
        <ele>2611.1999511719</ele>
        <time>2021-03-21T11:58:41.000Z</time>
      </trkpt>
      <trkpt lat="44.98651" lon="6.03516">
        <ele>2611.1999511719</ele>
        <time>2021-03-21T11:58:42.000Z</time>
      </trkpt>
      <trkpt lat="44.98651" lon="6.03516">
        <ele>2611.1999511719</ele>
        <time>2021-03-21T11:58:43.000Z</time>
      </trkpt>
      <trkpt lat="44.98651" lon="6.03515">
        <ele>2611.1999511719</ele>
        <time>2021-03-21T11:58:44.000Z</time>
      </trkpt>
      <trkpt lat="44.9865" lon="6.03515">
        <ele>2611.1999511719</ele>
        <time>2021-03-21T11:58:45.000Z</time>
      </trkpt>
      <trkpt lat="44.9865" lon="6.03514">
        <ele>2611.1999511719</ele>
        <time>2021-03-21T11:58:46.000Z</time>
      </trkpt>
      <trkpt lat="44.98649" lon="6.03514">
        <ele>2611.6000976562</ele>
        <time>2021-03-21T11:58:47.000Z</time>
      </trkpt>
      <trkpt lat="44.98649" lon="6.03513">
        <ele>2611.8000488281</ele>
        <time>2021-03-21T11:58:48.000Z</time>
      </trkpt>
      <trkpt lat="44.98648" lon="6.03513">
        <ele>2612.1999511719</ele>
        <time>2021-03-21T11:58:49.000Z</time>
      </trkpt>
      <trkpt lat="44.98648" lon="6.03513">
        <ele>2612.1999511719</ele>
        <time>2021-03-21T11:58:50.000Z</time>
      </trkpt>
      <trkpt lat="44.98647" lon="6.03513">
        <ele>2612.6000976562</ele>
        <time>2021-03-21T11:58:51.000Z</time>
      </trkpt>
      <trkpt lat="44.98647" lon="6.03512">
        <ele>2612.8000488281</ele>
        <time>2021-03-21T11:58:52.000Z</time>
      </trkpt>
      <trkpt lat="44.98647" lon="6.03512">
        <ele>2612.8000488281</ele>
        <time>2021-03-21T11:58:53.000Z</time>
      </trkpt>
      <trkpt lat="44.98646" lon="6.03512">
        <ele>2613</ele>
        <time>2021-03-21T11:58:54.000Z</time>
      </trkpt>
      <trkpt lat="44.98645" lon="6.03512">
        <ele>2613.3999023438</ele>
        <time>2021-03-21T11:58:55.000Z</time>
      </trkpt>
      <trkpt lat="44.98645" lon="6.03512">
        <ele>2613.6000976562</ele>
        <time>2021-03-21T11:58:56.000Z</time>
      </trkpt>
      <trkpt lat="44.98645" lon="6.03511">
        <ele>2613.8000488281</ele>
        <time>2021-03-21T11:58:57.000Z</time>
      </trkpt>
      <trkpt lat="44.98644" lon="6.03511">
        <ele>2614.1999511719</ele>
        <time>2021-03-21T11:58:58.000Z</time>
      </trkpt>
      <trkpt lat="44.98644" lon="6.03511">
        <ele>2614.3999023438</ele>
        <time>2021-03-21T11:58:59.000Z</time>
      </trkpt>
      <trkpt lat="44.98643" lon="6.03511">
        <ele>2614.8000488281</ele>
        <time>2021-03-21T11:59:00.000Z</time>
      </trkpt>
      <trkpt lat="44.98642" lon="6.0351">
        <ele>2615</ele>
        <time>2021-03-21T11:59:01.000Z</time>
      </trkpt>
      <trkpt lat="44.98642" lon="6.0351">
        <ele>2615.1999511719</ele>
        <time>2021-03-21T11:59:02.000Z</time>
      </trkpt>
      <trkpt lat="44.98642" lon="6.03509">
        <ele>2615.1999511719</ele>
        <time>2021-03-21T11:59:03.000Z</time>
      </trkpt>
      <trkpt lat="44.98641" lon="6.03509">
        <ele>2615.6000976562</ele>
        <time>2021-03-21T11:59:04.000Z</time>
      </trkpt>
      <trkpt lat="44.98641" lon="6.03509">
        <ele>2615.8000488281</ele>
        <time>2021-03-21T11:59:05.000Z</time>
      </trkpt>
      <trkpt lat="44.9864" lon="6.03509">
        <ele>2616.1999511719</ele>
        <time>2021-03-21T11:59:06.000Z</time>
      </trkpt>
      <trkpt lat="44.9864" lon="6.03509">
        <ele>2616.1999511719</ele>
        <time>2021-03-21T11:59:07.000Z</time>
      </trkpt>
      <trkpt lat="44.98639" lon="6.03509">
        <ele>2616.3999023438</ele>
        <time>2021-03-21T11:59:08.000Z</time>
      </trkpt>
      <trkpt lat="44.98639" lon="6.03508">
        <ele>2616.6000976562</ele>
        <time>2021-03-21T11:59:09.000Z</time>
      </trkpt>
      <trkpt lat="44.98639" lon="6.03508">
        <ele>2616.8000488281</ele>
        <time>2021-03-21T11:59:10.000Z</time>
      </trkpt>
      <trkpt lat="44.98638" lon="6.03508">
        <ele>2617</ele>
        <time>2021-03-21T11:59:11.000Z</time>
      </trkpt>
      <trkpt lat="44.98638" lon="6.03507">
        <ele>2617.1999511719</ele>
        <time>2021-03-21T11:59:12.000Z</time>
      </trkpt>
      <trkpt lat="44.98637" lon="6.03508">
        <ele>2617.3999023438</ele>
        <time>2021-03-21T11:59:13.000Z</time>
      </trkpt>
      <trkpt lat="44.98637" lon="6.03508">
        <ele>2617.6000976562</ele>
        <time>2021-03-21T11:59:14.000Z</time>
      </trkpt>
      <trkpt lat="44.98636" lon="6.03507">
        <ele>2617.8000488281</ele>
        <time>2021-03-21T11:59:15.000Z</time>
      </trkpt>
      <trkpt lat="44.98636" lon="6.03507">
        <ele>2617.8000488281</ele>
        <time>2021-03-21T11:59:16.000Z</time>
      </trkpt>
      <trkpt lat="44.98637" lon="6.03508">
        <ele>2617.8000488281</ele>
        <time>2021-03-21T11:59:17.000Z</time>
      </trkpt>
      <trkpt lat="44.98636" lon="6.03508">
        <ele>2618</ele>
        <time>2021-03-21T11:59:18.000Z</time>
      </trkpt>
      <trkpt lat="44.98636" lon="6.03508">
        <ele>2618</ele>
        <time>2021-03-21T11:59:19.000Z</time>
      </trkpt>
      <trkpt lat="44.98637" lon="6.03508">
        <ele>2617.8000488281</ele>
        <time>2021-03-21T11:59:20.000Z</time>
      </trkpt>
      <trkpt lat="44.98636" lon="6.03508">
        <ele>2618</ele>
        <time>2021-03-21T11:59:21.000Z</time>
      </trkpt>
      <trkpt lat="44.98636" lon="6.03509">
        <ele>2618.1999511719</ele>
        <time>2021-03-21T11:59:22.000Z</time>
      </trkpt>
      <trkpt lat="44.98636" lon="6.0351">
        <ele>2618.1999511719</ele>
        <time>2021-03-21T11:59:23.000Z</time>
      </trkpt>
      <trkpt lat="44.98636" lon="6.0351">
        <ele>2618.3999023438</ele>
        <time>2021-03-21T11:59:24.000Z</time>
      </trkpt>
      <trkpt lat="44.98636" lon="6.03511">
        <ele>2618.8000488281</ele>
        <time>2021-03-21T11:59:25.000Z</time>
      </trkpt>
      <trkpt lat="44.98635" lon="6.03512">
        <ele>2619</ele>
        <time>2021-03-21T11:59:26.000Z</time>
      </trkpt>
      <trkpt lat="44.98635" lon="6.03513">
        <ele>2619.1999511719</ele>
        <time>2021-03-21T11:59:27.000Z</time>
      </trkpt>
      <trkpt lat="44.98634" lon="6.03514">
        <ele>2619.6000976562</ele>
        <time>2021-03-21T11:59:28.000Z</time>
      </trkpt>
      <trkpt lat="44.98634" lon="6.03515">
        <ele>2619.8000488281</ele>
        <time>2021-03-21T11:59:29.000Z</time>
      </trkpt>
      <trkpt lat="44.98634" lon="6.03515">
        <ele>2620</ele>
        <time>2021-03-21T11:59:30.000Z</time>
      </trkpt>
      <trkpt lat="44.98634" lon="6.03516">
        <ele>2620.3999023438</ele>
        <time>2021-03-21T11:59:31.000Z</time>
      </trkpt>
      <trkpt lat="44.98633" lon="6.03517">
        <ele>2620.6000976562</ele>
        <time>2021-03-21T11:59:32.000Z</time>
      </trkpt>
      <trkpt lat="44.98633" lon="6.03518">
        <ele>2621</ele>
        <time>2021-03-21T11:59:33.000Z</time>
      </trkpt>
      <trkpt lat="44.98633" lon="6.03518">
        <ele>2621.1999511719</ele>
        <time>2021-03-21T11:59:34.000Z</time>
      </trkpt>
      <trkpt lat="44.98633" lon="6.03519">
        <ele>2621.6000976562</ele>
        <time>2021-03-21T11:59:35.000Z</time>
      </trkpt>
      <trkpt lat="44.98632" lon="6.0352">
        <ele>2621.8000488281</ele>
        <time>2021-03-21T11:59:36.000Z</time>
      </trkpt>
      <trkpt lat="44.98632" lon="6.03521">
        <ele>2622.1999511719</ele>
        <time>2021-03-21T11:59:37.000Z</time>
      </trkpt>
      <trkpt lat="44.98632" lon="6.03522">
        <ele>2622.3999023438</ele>
        <time>2021-03-21T11:59:38.000Z</time>
      </trkpt>
      <trkpt lat="44.98632" lon="6.03522">
        <ele>2622.8000488281</ele>
        <time>2021-03-21T11:59:39.000Z</time>
      </trkpt>
      <trkpt lat="44.98632" lon="6.03524">
        <ele>2623</ele>
        <time>2021-03-21T11:59:40.000Z</time>
      </trkpt>
      <trkpt lat="44.98631" lon="6.03524">
        <ele>2623.1999511719</ele>
        <time>2021-03-21T11:59:41.000Z</time>
      </trkpt>
      <trkpt lat="44.98631" lon="6.03524">
        <ele>2623.1999511719</ele>
        <time>2021-03-21T11:59:42.000Z</time>
      </trkpt>
      <trkpt lat="44.98631" lon="6.03524">
        <ele>2623.1999511719</ele>
        <time>2021-03-21T11:59:43.000Z</time>
      </trkpt>
      <trkpt lat="44.98631" lon="6.03525">
        <ele>2623.1999511719</ele>
        <time>2021-03-21T11:59:44.000Z</time>
      </trkpt>
      <trkpt lat="44.98631" lon="6.03525">
        <ele>2623.1999511719</ele>
        <time>2021-03-21T11:59:45.000Z</time>
      </trkpt>
      <trkpt lat="44.98632" lon="6.03525">
        <ele>2623.1999511719</ele>
        <time>2021-03-21T11:59:46.000Z</time>
      </trkpt>
      <trkpt lat="44.98631" lon="6.03525">
        <ele>2623.3999023438</ele>
        <time>2021-03-21T11:59:47.000Z</time>
      </trkpt>
      <trkpt lat="44.98631" lon="6.03525">
        <ele>2623.3999023438</ele>
        <time>2021-03-21T11:59:48.000Z</time>
      </trkpt>
      <trkpt lat="44.98631" lon="6.03525">
        <ele>2623.3999023438</ele>
        <time>2021-03-21T11:59:49.000Z</time>
      </trkpt>
      <trkpt lat="44.98631" lon="6.03525">
        <ele>2623.1999511719</ele>
        <time>2021-03-21T11:59:50.000Z</time>
      </trkpt>
      <trkpt lat="44.98631" lon="6.03524">
        <ele>2623.1999511719</ele>
        <time>2021-03-21T11:59:51.000Z</time>
      </trkpt>
      <trkpt lat="44.98631" lon="6.03524">
        <ele>2623.1999511719</ele>
        <time>2021-03-21T11:59:52.000Z</time>
      </trkpt>
      <trkpt lat="44.98631" lon="6.03524">
        <ele>2623.1999511719</ele>
        <time>2021-03-21T11:59:53.000Z</time>
      </trkpt>
      <trkpt lat="44.98631" lon="6.03524">
        <ele>2623.1999511719</ele>
        <time>2021-03-21T11:59:54.000Z</time>
      </trkpt>
      <trkpt lat="44.98631" lon="6.03524">
        <ele>2623</ele>
        <time>2021-03-21T11:59:55.000Z</time>
      </trkpt>
      <trkpt lat="44.98632" lon="6.03524">
        <ele>2623</ele>
        <time>2021-03-21T11:59:56.000Z</time>
      </trkpt>
      <trkpt lat="44.98632" lon="6.03524">
        <ele>2623</ele>
        <time>2021-03-21T11:59:57.000Z</time>
      </trkpt>
      <trkpt lat="44.98632" lon="6.03524">
        <ele>2623</ele>
        <time>2021-03-21T11:59:58.000Z</time>
      </trkpt>
      <trkpt lat="44.98631" lon="6.03525">
        <ele>2623.3999023438</ele>
        <time>2021-03-21T11:59:59.000Z</time>
      </trkpt>
      <trkpt lat="44.98631" lon="6.03526">
        <ele>2623.6000976562</ele>
        <time>2021-03-21T12:00:00.000Z</time>
      </trkpt>
      <trkpt lat="44.98631" lon="6.03527">
        <ele>2623.8000488281</ele>
        <time>2021-03-21T12:00:01.000Z</time>
      </trkpt>
      <trkpt lat="44.98631" lon="6.03527">
        <ele>2623.8000488281</ele>
        <time>2021-03-21T12:00:02.000Z</time>
      </trkpt>
      <trkpt lat="44.98631" lon="6.03527">
        <ele>2624</ele>
        <time>2021-03-21T12:00:03.000Z</time>
      </trkpt>
      <trkpt lat="44.9863" lon="6.03527">
        <ele>2624</ele>
        <time>2021-03-21T12:00:04.000Z</time>
      </trkpt>
      <trkpt lat="44.9863" lon="6.03527">
        <ele>2624</ele>
        <time>2021-03-21T12:00:05.000Z</time>
      </trkpt>
      <trkpt lat="44.9863" lon="6.03527">
        <ele>2624</ele>
        <time>2021-03-21T12:00:06.000Z</time>
      </trkpt>
      <trkpt lat="44.98631" lon="6.03527">
        <ele>2624</ele>
        <time>2021-03-21T12:00:07.000Z</time>
      </trkpt>
      <trkpt lat="44.98631" lon="6.03527">
        <ele>2624</ele>
        <time>2021-03-21T12:00:08.000Z</time>
      </trkpt>
      <trkpt lat="44.98631" lon="6.03528">
        <ele>2624</ele>
        <time>2021-03-21T12:00:09.000Z</time>
      </trkpt>
      <trkpt lat="44.9863" lon="6.03528">
        <ele>2624.1999511719</ele>
        <time>2021-03-21T12:00:10.000Z</time>
      </trkpt>
      <trkpt lat="44.9863" lon="6.03529">
        <ele>2624.3999023438</ele>
        <time>2021-03-21T12:00:11.000Z</time>
      </trkpt>
      <trkpt lat="44.9863" lon="6.03529">
        <ele>2624.6000976562</ele>
        <time>2021-03-21T12:00:12.000Z</time>
      </trkpt>
      <trkpt lat="44.98629" lon="6.0353">
        <ele>2625</ele>
        <time>2021-03-21T12:00:13.000Z</time>
      </trkpt>
      <trkpt lat="44.98629" lon="6.03531">
        <ele>2625.1999511719</ele>
        <time>2021-03-21T12:00:14.000Z</time>
      </trkpt>
      <trkpt lat="44.98629" lon="6.03532">
        <ele>2625.6000976562</ele>
        <time>2021-03-21T12:00:15.000Z</time>
      </trkpt>
      <trkpt lat="44.98628" lon="6.03533">
        <ele>2626</ele>
        <time>2021-03-21T12:00:16.000Z</time>
      </trkpt>
      <trkpt lat="44.98628" lon="6.03534">
        <ele>2626.1999511719</ele>
        <time>2021-03-21T12:00:17.000Z</time>
      </trkpt>
      <trkpt lat="44.98628" lon="6.03536">
        <ele>2626.6000976562</ele>
        <time>2021-03-21T12:00:18.000Z</time>
      </trkpt>
      <trkpt lat="44.98627" lon="6.03536">
        <ele>2627</ele>
        <time>2021-03-21T12:00:19.000Z</time>
      </trkpt>
      <trkpt lat="44.98626" lon="6.03537">
        <ele>2627.3999023438</ele>
        <time>2021-03-21T12:00:20.000Z</time>
      </trkpt>
      <trkpt lat="44.98626" lon="6.03538">
        <ele>2627.6000976562</ele>
        <time>2021-03-21T12:00:21.000Z</time>
      </trkpt>
      <trkpt lat="44.98626" lon="6.03539">
        <ele>2628</ele>
        <time>2021-03-21T12:00:22.000Z</time>
      </trkpt>
      <trkpt lat="44.98625" lon="6.0354">
        <ele>2628.1999511719</ele>
        <time>2021-03-21T12:00:23.000Z</time>
      </trkpt>
      <trkpt lat="44.98625" lon="6.0354">
        <ele>2628.6000976562</ele>
        <time>2021-03-21T12:00:24.000Z</time>
      </trkpt>
      <trkpt lat="44.98625" lon="6.03541">
        <ele>2628.8000488281</ele>
        <time>2021-03-21T12:00:25.000Z</time>
      </trkpt>
      <trkpt lat="44.98625" lon="6.03542">
        <ele>2629</ele>
        <time>2021-03-21T12:00:26.000Z</time>
      </trkpt>
      <trkpt lat="44.98624" lon="6.03543">
        <ele>2629.3999023438</ele>
        <time>2021-03-21T12:00:27.000Z</time>
      </trkpt>
      <trkpt lat="44.98624" lon="6.03544">
        <ele>2629.6000976562</ele>
        <time>2021-03-21T12:00:28.000Z</time>
      </trkpt>
      <trkpt lat="44.98623" lon="6.03544">
        <ele>2630</ele>
        <time>2021-03-21T12:00:29.000Z</time>
      </trkpt>
      <trkpt lat="44.98623" lon="6.03545">
        <ele>2630.1999511719</ele>
        <time>2021-03-21T12:00:30.000Z</time>
      </trkpt>
      <trkpt lat="44.98623" lon="6.03545">
        <ele>2630.3999023438</ele>
        <time>2021-03-21T12:00:31.000Z</time>
      </trkpt>
      <trkpt lat="44.98622" lon="6.03544">
        <ele>2630.6000976562</ele>
        <time>2021-03-21T12:00:32.000Z</time>
      </trkpt>
      <trkpt lat="44.98622" lon="6.03544">
        <ele>2630.6000976562</ele>
        <time>2021-03-21T12:00:33.000Z</time>
      </trkpt>
      <trkpt lat="44.98622" lon="6.03542">
        <ele>2630.1999511719</ele>
        <time>2021-03-21T12:00:34.000Z</time>
      </trkpt>
      <trkpt lat="44.98622" lon="6.03542">
        <ele>2630.1999511719</ele>
        <time>2021-03-21T12:00:35.000Z</time>
      </trkpt>
      <trkpt lat="44.98621" lon="6.03541">
        <ele>2630.1999511719</ele>
        <time>2021-03-21T12:00:36.000Z</time>
      </trkpt>
      <trkpt lat="44.98621" lon="6.0354">
        <ele>2630.1999511719</ele>
        <time>2021-03-21T12:00:37.000Z</time>
      </trkpt>
      <trkpt lat="44.98621" lon="6.03539">
        <ele>2630.1999511719</ele>
        <time>2021-03-21T12:00:38.000Z</time>
      </trkpt>
      <trkpt lat="44.98621" lon="6.03538">
        <ele>2630.1999511719</ele>
        <time>2021-03-21T12:00:39.000Z</time>
      </trkpt>
      <trkpt lat="44.9862" lon="6.03538">
        <ele>2630</ele>
        <time>2021-03-21T12:00:40.000Z</time>
      </trkpt>
      <trkpt lat="44.9862" lon="6.03537">
        <ele>2630.1999511719</ele>
        <time>2021-03-21T12:00:41.000Z</time>
      </trkpt>
      <trkpt lat="44.9862" lon="6.03537">
        <ele>2630.1999511719</ele>
        <time>2021-03-21T12:00:42.000Z</time>
      </trkpt>
      <trkpt lat="44.9862" lon="6.03537">
        <ele>2630.1999511719</ele>
        <time>2021-03-21T12:00:43.000Z</time>
      </trkpt>
      <trkpt lat="44.9862" lon="6.03536">
        <ele>2630.1999511719</ele>
        <time>2021-03-21T12:00:44.000Z</time>
      </trkpt>
      <trkpt lat="44.9862" lon="6.03537">
        <ele>2630.1999511719</ele>
        <time>2021-03-21T12:00:45.000Z</time>
      </trkpt>
      <trkpt lat="44.9862" lon="6.03536">
        <ele>2630.1999511719</ele>
        <time>2021-03-21T12:00:46.000Z</time>
      </trkpt>
      <trkpt lat="44.9862" lon="6.03537">
        <ele>2630.1999511719</ele>
        <time>2021-03-21T12:00:47.000Z</time>
      </trkpt>
      <trkpt lat="44.9862" lon="6.03536">
        <ele>2630.1999511719</ele>
        <time>2021-03-21T12:00:48.000Z</time>
      </trkpt>
      <trkpt lat="44.9862" lon="6.03536">
        <ele>2630.1999511719</ele>
        <time>2021-03-21T12:00:49.000Z</time>
      </trkpt>
      <trkpt lat="44.9862" lon="6.03536">
        <ele>2630.1999511719</ele>
        <time>2021-03-21T12:00:50.000Z</time>
      </trkpt>
      <trkpt lat="44.98619" lon="6.03536">
        <ele>2630.3999023438</ele>
        <time>2021-03-21T12:00:51.000Z</time>
      </trkpt>
      <trkpt lat="44.98619" lon="6.03536">
        <ele>2630.3999023438</ele>
        <time>2021-03-21T12:00:52.000Z</time>
      </trkpt>
      <trkpt lat="44.98619" lon="6.03536">
        <ele>2630.3999023438</ele>
        <time>2021-03-21T12:00:53.000Z</time>
      </trkpt>
      <trkpt lat="44.98619" lon="6.03536">
        <ele>2630.6000976562</ele>
        <time>2021-03-21T12:00:54.000Z</time>
      </trkpt>
      <trkpt lat="44.98618" lon="6.03535">
        <ele>2630.6000976562</ele>
        <time>2021-03-21T12:00:55.000Z</time>
      </trkpt>
      <trkpt lat="44.98618" lon="6.03534">
        <ele>2630.6000976562</ele>
        <time>2021-03-21T12:00:56.000Z</time>
      </trkpt>
      <trkpt lat="44.98618" lon="6.03534">
        <ele>2630.8000488281</ele>
        <time>2021-03-21T12:00:57.000Z</time>
      </trkpt>
      <trkpt lat="44.98617" lon="6.03533">
        <ele>2630.8000488281</ele>
        <time>2021-03-21T12:00:58.000Z</time>
      </trkpt>
      <trkpt lat="44.98617" lon="6.03532">
        <ele>2631</ele>
        <time>2021-03-21T12:00:59.000Z</time>
      </trkpt>
      <trkpt lat="44.98616" lon="6.03532">
        <ele>2631.1999511719</ele>
        <time>2021-03-21T12:01:00.000Z</time>
      </trkpt>
      <trkpt lat="44.98616" lon="6.03531">
        <ele>2631.1999511719</ele>
        <time>2021-03-21T12:01:01.000Z</time>
      </trkpt>
      <trkpt lat="44.98615" lon="6.0353">
        <ele>2631.3999023438</ele>
        <time>2021-03-21T12:01:02.000Z</time>
      </trkpt>
      <trkpt lat="44.98615" lon="6.0353">
        <ele>2631.3999023438</ele>
        <time>2021-03-21T12:01:03.000Z</time>
      </trkpt>
      <trkpt lat="44.98614" lon="6.03529">
        <ele>2631.3999023438</ele>
        <time>2021-03-21T12:01:04.000Z</time>
      </trkpt>
      <trkpt lat="44.98614" lon="6.03528">
        <ele>2631.6000976562</ele>
        <time>2021-03-21T12:01:05.000Z</time>
      </trkpt>
      <trkpt lat="44.98613" lon="6.03528">
        <ele>2631.8000488281</ele>
        <time>2021-03-21T12:01:06.000Z</time>
      </trkpt>
      <trkpt lat="44.98613" lon="6.03527">
        <ele>2632</ele>
        <time>2021-03-21T12:01:07.000Z</time>
      </trkpt>
      <trkpt lat="44.98612" lon="6.03527">
        <ele>2632.1999511719</ele>
        <time>2021-03-21T12:01:08.000Z</time>
      </trkpt>
      <trkpt lat="44.98612" lon="6.03527">
        <ele>2632.3999023438</ele>
        <time>2021-03-21T12:01:09.000Z</time>
      </trkpt>
      <trkpt lat="44.98611" lon="6.03526">
        <ele>2632.3999023438</ele>
        <time>2021-03-21T12:01:10.000Z</time>
      </trkpt>
      <trkpt lat="44.98611" lon="6.03526">
        <ele>2632.6000976562</ele>
        <time>2021-03-21T12:01:11.000Z</time>
      </trkpt>
      <trkpt lat="44.9861" lon="6.03526">
        <ele>2632.8000488281</ele>
        <time>2021-03-21T12:01:12.000Z</time>
      </trkpt>
      <trkpt lat="44.9861" lon="6.03526">
        <ele>2633</ele>
        <time>2021-03-21T12:01:13.000Z</time>
      </trkpt>
      <trkpt lat="44.98609" lon="6.03526">
        <ele>2633.1999511719</ele>
        <time>2021-03-21T12:01:14.000Z</time>
      </trkpt>
      <trkpt lat="44.98609" lon="6.03526">
        <ele>2633.3999023438</ele>
        <time>2021-03-21T12:01:15.000Z</time>
      </trkpt>
      <trkpt lat="44.98608" lon="6.03527">
        <ele>2633.8000488281</ele>
        <time>2021-03-21T12:01:16.000Z</time>
      </trkpt>
      <trkpt lat="44.98608" lon="6.03527">
        <ele>2634</ele>
        <time>2021-03-21T12:01:17.000Z</time>
      </trkpt>
      <trkpt lat="44.98608" lon="6.03528">
        <ele>2634.1999511719</ele>
        <time>2021-03-21T12:01:18.000Z</time>
      </trkpt>
      <trkpt lat="44.98607" lon="6.03529">
        <ele>2634.3999023438</ele>
        <time>2021-03-21T12:01:19.000Z</time>
      </trkpt>
      <trkpt lat="44.98607" lon="6.03529">
        <ele>2634.6000976562</ele>
        <time>2021-03-21T12:01:20.000Z</time>
      </trkpt>
      <trkpt lat="44.98607" lon="6.0353">
        <ele>2635</ele>
        <time>2021-03-21T12:01:21.000Z</time>
      </trkpt>
      <trkpt lat="44.98606" lon="6.0353">
        <ele>2635.1999511719</ele>
        <time>2021-03-21T12:01:22.000Z</time>
      </trkpt>
      <trkpt lat="44.98606" lon="6.03531">
        <ele>2635.6000976562</ele>
        <time>2021-03-21T12:01:23.000Z</time>
      </trkpt>
      <trkpt lat="44.98605" lon="6.03532">
        <ele>2635.8000488281</ele>
        <time>2021-03-21T12:01:24.000Z</time>
      </trkpt>
      <trkpt lat="44.98605" lon="6.03532">
        <ele>2636</ele>
        <time>2021-03-21T12:01:25.000Z</time>
      </trkpt>
      <trkpt lat="44.98604" lon="6.03533">
        <ele>2636.3999023438</ele>
        <time>2021-03-21T12:01:26.000Z</time>
      </trkpt>
      <trkpt lat="44.98604" lon="6.03534">
        <ele>2636.6000976562</ele>
        <time>2021-03-21T12:01:27.000Z</time>
      </trkpt>
      <trkpt lat="44.98604" lon="6.03535">
        <ele>2636.8000488281</ele>
        <time>2021-03-21T12:01:28.000Z</time>
      </trkpt>
      <trkpt lat="44.98604" lon="6.03535">
        <ele>2636.8000488281</ele>
        <time>2021-03-21T12:01:29.000Z</time>
      </trkpt>
      <trkpt lat="44.98604" lon="6.03536">
        <ele>2637.1999511719</ele>
        <time>2021-03-21T12:01:30.000Z</time>
      </trkpt>
      <trkpt lat="44.98603" lon="6.03537">
        <ele>2637.6000976562</ele>
        <time>2021-03-21T12:01:31.000Z</time>
      </trkpt>
      <trkpt lat="44.98603" lon="6.03538">
        <ele>2637.8000488281</ele>
        <time>2021-03-21T12:01:32.000Z</time>
      </trkpt>
      <trkpt lat="44.98602" lon="6.03538">
        <ele>2638</ele>
        <time>2021-03-21T12:01:33.000Z</time>
      </trkpt>
      <trkpt lat="44.98602" lon="6.03539">
        <ele>2638.3999023438</ele>
        <time>2021-03-21T12:01:34.000Z</time>
      </trkpt>
      <trkpt lat="44.98602" lon="6.0354">
        <ele>2638.6000976562</ele>
        <time>2021-03-21T12:01:35.000Z</time>
      </trkpt>
      <trkpt lat="44.98601" lon="6.03541">
        <ele>2639</ele>
        <time>2021-03-21T12:01:36.000Z</time>
      </trkpt>
      <trkpt lat="44.98601" lon="6.03542">
        <ele>2639.1999511719</ele>
        <time>2021-03-21T12:01:37.000Z</time>
      </trkpt>
      <trkpt lat="44.986" lon="6.03543">
        <ele>2639.6000976562</ele>
        <time>2021-03-21T12:01:38.000Z</time>
      </trkpt>
      <trkpt lat="44.986" lon="6.03544">
        <ele>2640</ele>
        <time>2021-03-21T12:01:39.000Z</time>
      </trkpt>
      <trkpt lat="44.986" lon="6.03545">
        <ele>2640.1999511719</ele>
        <time>2021-03-21T12:01:40.000Z</time>
      </trkpt>
      <trkpt lat="44.98599" lon="6.03545">
        <ele>2640.6000976562</ele>
        <time>2021-03-21T12:01:41.000Z</time>
      </trkpt>
      <trkpt lat="44.98599" lon="6.03546">
        <ele>2640.8000488281</ele>
        <time>2021-03-21T12:01:42.000Z</time>
      </trkpt>
      <trkpt lat="44.98599" lon="6.03547">
        <ele>2641</ele>
        <time>2021-03-21T12:01:43.000Z</time>
      </trkpt>
      <trkpt lat="44.98598" lon="6.03547">
        <ele>2641.1999511719</ele>
        <time>2021-03-21T12:01:44.000Z</time>
      </trkpt>
      <trkpt lat="44.98597" lon="6.03547">
        <ele>2641.3999023438</ele>
        <time>2021-03-21T12:01:45.000Z</time>
      </trkpt>
      <trkpt lat="44.98597" lon="6.03547">
        <ele>2641.6000976562</ele>
        <time>2021-03-21T12:01:46.000Z</time>
      </trkpt>
      <trkpt lat="44.98596" lon="6.03547">
        <ele>2641.8000488281</ele>
        <time>2021-03-21T12:01:47.000Z</time>
      </trkpt>
      <trkpt lat="44.98596" lon="6.03547">
        <ele>2642</ele>
        <time>2021-03-21T12:01:48.000Z</time>
      </trkpt>
      <trkpt lat="44.98595" lon="6.03547">
        <ele>2642.3999023438</ele>
        <time>2021-03-21T12:01:49.000Z</time>
      </trkpt>
      <trkpt lat="44.98595" lon="6.03546">
        <ele>2642.3999023438</ele>
        <time>2021-03-21T12:01:50.000Z</time>
      </trkpt>
      <trkpt lat="44.98594" lon="6.03545">
        <ele>2642.6000976562</ele>
        <time>2021-03-21T12:01:51.000Z</time>
      </trkpt>
      <trkpt lat="44.98594" lon="6.03545">
        <ele>2642.8000488281</ele>
        <time>2021-03-21T12:01:52.000Z</time>
      </trkpt>
      <trkpt lat="44.98593" lon="6.03544">
        <ele>2643</ele>
        <time>2021-03-21T12:01:53.000Z</time>
      </trkpt>
      <trkpt lat="44.98593" lon="6.03543">
        <ele>2643.1999511719</ele>
        <time>2021-03-21T12:01:54.000Z</time>
      </trkpt>
      <trkpt lat="44.98592" lon="6.03542">
        <ele>2643.1999511719</ele>
        <time>2021-03-21T12:01:55.000Z</time>
      </trkpt>
      <trkpt lat="44.98592" lon="6.03541">
        <ele>2643.1999511719</ele>
        <time>2021-03-21T12:01:56.000Z</time>
      </trkpt>
      <trkpt lat="44.98591" lon="6.0354">
        <ele>2643.3999023438</ele>
        <time>2021-03-21T12:01:57.000Z</time>
      </trkpt>
      <trkpt lat="44.98591" lon="6.03539">
        <ele>2643.3999023438</ele>
        <time>2021-03-21T12:01:58.000Z</time>
      </trkpt>
      <trkpt lat="44.98591" lon="6.03539">
        <ele>2643.3999023438</ele>
        <time>2021-03-21T12:01:59.000Z</time>
      </trkpt>
      <trkpt lat="44.9859" lon="6.03538">
        <ele>2643.3999023438</ele>
        <time>2021-03-21T12:02:00.000Z</time>
      </trkpt>
      <trkpt lat="44.9859" lon="6.03537">
        <ele>2643.6000976562</ele>
        <time>2021-03-21T12:02:01.000Z</time>
      </trkpt>
      <trkpt lat="44.98589" lon="6.03536">
        <ele>2643.6000976562</ele>
        <time>2021-03-21T12:02:02.000Z</time>
      </trkpt>
      <trkpt lat="44.98589" lon="6.03535">
        <ele>2643.6000976562</ele>
        <time>2021-03-21T12:02:03.000Z</time>
      </trkpt>
      <trkpt lat="44.98589" lon="6.03534">
        <ele>2643.6000976562</ele>
        <time>2021-03-21T12:02:04.000Z</time>
      </trkpt>
      <trkpt lat="44.98588" lon="6.03533">
        <ele>2643.6000976562</ele>
        <time>2021-03-21T12:02:05.000Z</time>
      </trkpt>
      <trkpt lat="44.98588" lon="6.03532">
        <ele>2643.6000976562</ele>
        <time>2021-03-21T12:02:06.000Z</time>
      </trkpt>
      <trkpt lat="44.98588" lon="6.03531">
        <ele>2643.3999023438</ele>
        <time>2021-03-21T12:02:07.000Z</time>
      </trkpt>
      <trkpt lat="44.98588" lon="6.0353">
        <ele>2643.3999023438</ele>
        <time>2021-03-21T12:02:08.000Z</time>
      </trkpt>
      <trkpt lat="44.98588" lon="6.03529">
        <ele>2643.1999511719</ele>
        <time>2021-03-21T12:02:09.000Z</time>
      </trkpt>
      <trkpt lat="44.98588" lon="6.03528">
        <ele>2643</ele>
        <time>2021-03-21T12:02:10.000Z</time>
      </trkpt>
      <trkpt lat="44.98588" lon="6.03527">
        <ele>2642.8000488281</ele>
        <time>2021-03-21T12:02:11.000Z</time>
      </trkpt>
      <trkpt lat="44.98588" lon="6.03526">
        <ele>2642.6000976562</ele>
        <time>2021-03-21T12:02:12.000Z</time>
      </trkpt>
      <trkpt lat="44.98588" lon="6.03525">
        <ele>2642.3999023438</ele>
        <time>2021-03-21T12:02:13.000Z</time>
      </trkpt>
      <trkpt lat="44.98589" lon="6.03524">
        <ele>2642</ele>
        <time>2021-03-21T12:02:14.000Z</time>
      </trkpt>
      <trkpt lat="44.98589" lon="6.03523">
        <ele>2641.8000488281</ele>
        <time>2021-03-21T12:02:15.000Z</time>
      </trkpt>
      <trkpt lat="44.98589" lon="6.03522">
        <ele>2641.3999023438</ele>
        <time>2021-03-21T12:02:16.000Z</time>
      </trkpt>
      <trkpt lat="44.9859" lon="6.0352">
        <ele>2641.1999511719</ele>
        <time>2021-03-21T12:02:17.000Z</time>
      </trkpt>
      <trkpt lat="44.9859" lon="6.03519">
        <ele>2640.8000488281</ele>
        <time>2021-03-21T12:02:18.000Z</time>
      </trkpt>
      <trkpt lat="44.9859" lon="6.03518">
        <ele>2640.6000976562</ele>
        <time>2021-03-21T12:02:19.000Z</time>
      </trkpt>
      <trkpt lat="44.98591" lon="6.03517">
        <ele>2640.1999511719</ele>
        <time>2021-03-21T12:02:20.000Z</time>
      </trkpt>
      <trkpt lat="44.98591" lon="6.03516">
        <ele>2640</ele>
        <time>2021-03-21T12:02:21.000Z</time>
      </trkpt>
      <trkpt lat="44.98591" lon="6.03515">
        <ele>2639.8000488281</ele>
        <time>2021-03-21T12:02:22.000Z</time>
      </trkpt>
      <trkpt lat="44.98591" lon="6.03514">
        <ele>2639.8000488281</ele>
        <time>2021-03-21T12:02:23.000Z</time>
      </trkpt>
      <trkpt lat="44.98591" lon="6.03513">
        <ele>2639.6000976562</ele>
        <time>2021-03-21T12:02:24.000Z</time>
      </trkpt>
      <trkpt lat="44.98591" lon="6.03512">
        <ele>2639.6000976562</ele>
        <time>2021-03-21T12:02:25.000Z</time>
      </trkpt>
      <trkpt lat="44.98591" lon="6.03511">
        <ele>2639.6000976562</ele>
        <time>2021-03-21T12:02:26.000Z</time>
      </trkpt>
      <trkpt lat="44.98591" lon="6.0351">
        <ele>2639.6000976562</ele>
        <time>2021-03-21T12:02:27.000Z</time>
      </trkpt>
      <trkpt lat="44.98591" lon="6.03509">
        <ele>2639.6000976562</ele>
        <time>2021-03-21T12:02:28.000Z</time>
      </trkpt>
      <trkpt lat="44.98591" lon="6.03508">
        <ele>2639.6000976562</ele>
        <time>2021-03-21T12:02:29.000Z</time>
      </trkpt>
      <trkpt lat="44.9859" lon="6.03507">
        <ele>2639.8000488281</ele>
        <time>2021-03-21T12:02:30.000Z</time>
      </trkpt>
      <trkpt lat="44.9859" lon="6.03506">
        <ele>2640</ele>
        <time>2021-03-21T12:02:31.000Z</time>
      </trkpt>
      <trkpt lat="44.98589" lon="6.03505">
        <ele>2640.1999511719</ele>
        <time>2021-03-21T12:02:32.000Z</time>
      </trkpt>
      <trkpt lat="44.98589" lon="6.03505">
        <ele>2640.3999023438</ele>
        <time>2021-03-21T12:02:33.000Z</time>
      </trkpt>
      <trkpt lat="44.98588" lon="6.03504">
        <ele>2640.6000976562</ele>
        <time>2021-03-21T12:02:34.000Z</time>
      </trkpt>
      <trkpt lat="44.98588" lon="6.03503">
        <ele>2640.6000976562</ele>
        <time>2021-03-21T12:02:35.000Z</time>
      </trkpt>
      <trkpt lat="44.98588" lon="6.03502">
        <ele>2640.8000488281</ele>
        <time>2021-03-21T12:02:36.000Z</time>
      </trkpt>
      <trkpt lat="44.98587" lon="6.03501">
        <ele>2641</ele>
        <time>2021-03-21T12:02:37.000Z</time>
      </trkpt>
      <trkpt lat="44.98587" lon="6.035">
        <ele>2641</ele>
        <time>2021-03-21T12:02:38.000Z</time>
      </trkpt>
      <trkpt lat="44.98586" lon="6.035">
        <ele>2641.3999023438</ele>
        <time>2021-03-21T12:02:39.000Z</time>
      </trkpt>
      <trkpt lat="44.98586" lon="6.03499">
        <ele>2641.6000976562</ele>
        <time>2021-03-21T12:02:40.000Z</time>
      </trkpt>
      <trkpt lat="44.98585" lon="6.03499">
        <ele>2641.8000488281</ele>
        <time>2021-03-21T12:02:41.000Z</time>
      </trkpt>
      <trkpt lat="44.98585" lon="6.03499">
        <ele>2642</ele>
        <time>2021-03-21T12:02:42.000Z</time>
      </trkpt>
      <trkpt lat="44.98585" lon="6.03499">
        <ele>2642.1999511719</ele>
        <time>2021-03-21T12:02:43.000Z</time>
      </trkpt>
      <trkpt lat="44.98584" lon="6.03499">
        <ele>2642.3999023438</ele>
        <time>2021-03-21T12:02:44.000Z</time>
      </trkpt>
      <trkpt lat="44.98584" lon="6.035">
        <ele>2642.6000976562</ele>
        <time>2021-03-21T12:02:45.000Z</time>
      </trkpt>
      <trkpt lat="44.98583" lon="6.03501">
        <ele>2642.8000488281</ele>
        <time>2021-03-21T12:02:46.000Z</time>
      </trkpt>
      <trkpt lat="44.98583" lon="6.03501">
        <ele>2643</ele>
        <time>2021-03-21T12:02:47.000Z</time>
      </trkpt>
      <trkpt lat="44.98582" lon="6.03503">
        <ele>2643.3999023438</ele>
        <time>2021-03-21T12:02:48.000Z</time>
      </trkpt>
      <trkpt lat="44.98582" lon="6.03503">
        <ele>2643.6000976562</ele>
        <time>2021-03-21T12:02:49.000Z</time>
      </trkpt>
      <trkpt lat="44.98582" lon="6.03504">
        <ele>2643.8000488281</ele>
        <time>2021-03-21T12:02:50.000Z</time>
      </trkpt>
      <trkpt lat="44.98582" lon="6.03505">
        <ele>2643.8000488281</ele>
        <time>2021-03-21T12:02:51.000Z</time>
      </trkpt>
      <trkpt lat="44.98581" lon="6.03505">
        <ele>2644</ele>
        <time>2021-03-21T12:02:52.000Z</time>
      </trkpt>
      <trkpt lat="44.98581" lon="6.03506">
        <ele>2644</ele>
        <time>2021-03-21T12:02:53.000Z</time>
      </trkpt>
      <trkpt lat="44.98581" lon="6.03506">
        <ele>2644.1999511719</ele>
        <time>2021-03-21T12:02:54.000Z</time>
      </trkpt>
      <trkpt lat="44.9858" lon="6.03507">
        <ele>2644.3999023438</ele>
        <time>2021-03-21T12:02:55.000Z</time>
      </trkpt>
      <trkpt lat="44.9858" lon="6.03508">
        <ele>2644.6000976562</ele>
        <time>2021-03-21T12:02:56.000Z</time>
      </trkpt>
      <trkpt lat="44.9858" lon="6.03508">
        <ele>2644.8000488281</ele>
        <time>2021-03-21T12:02:57.000Z</time>
      </trkpt>
      <trkpt lat="44.98579" lon="6.03509">
        <ele>2645.1999511719</ele>
        <time>2021-03-21T12:02:58.000Z</time>
      </trkpt>
      <trkpt lat="44.98579" lon="6.03509">
        <ele>2645.3999023438</ele>
        <time>2021-03-21T12:02:59.000Z</time>
      </trkpt>
      <trkpt lat="44.98578" lon="6.03509">
        <ele>2645.6000976562</ele>
        <time>2021-03-21T12:03:00.000Z</time>
      </trkpt>
      <trkpt lat="44.98577" lon="6.03509">
        <ele>2645.8000488281</ele>
        <time>2021-03-21T12:03:01.000Z</time>
      </trkpt>
      <trkpt lat="44.98577" lon="6.03509">
        <ele>2646.1999511719</ele>
        <time>2021-03-21T12:03:02.000Z</time>
      </trkpt>
      <trkpt lat="44.98577" lon="6.03508">
        <ele>2646.1999511719</ele>
        <time>2021-03-21T12:03:03.000Z</time>
      </trkpt>
      <trkpt lat="44.98576" lon="6.03508">
        <ele>2646.3999023438</ele>
        <time>2021-03-21T12:03:04.000Z</time>
      </trkpt>
      <trkpt lat="44.98576" lon="6.03507">
        <ele>2646.6000976562</ele>
        <time>2021-03-21T12:03:05.000Z</time>
      </trkpt>
      <trkpt lat="44.98575" lon="6.03506">
        <ele>2646.6000976562</ele>
        <time>2021-03-21T12:03:06.000Z</time>
      </trkpt>
      <trkpt lat="44.98575" lon="6.03506">
        <ele>2646.8000488281</ele>
        <time>2021-03-21T12:03:07.000Z</time>
      </trkpt>
      <trkpt lat="44.98575" lon="6.03505">
        <ele>2647</ele>
        <time>2021-03-21T12:03:08.000Z</time>
      </trkpt>
      <trkpt lat="44.98575" lon="6.03504">
        <ele>2647</ele>
        <time>2021-03-21T12:03:09.000Z</time>
      </trkpt>
      <trkpt lat="44.98574" lon="6.03504">
        <ele>2647.1999511719</ele>
        <time>2021-03-21T12:03:10.000Z</time>
      </trkpt>
      <trkpt lat="44.98574" lon="6.03503">
        <ele>2647.1999511719</ele>
        <time>2021-03-21T12:03:11.000Z</time>
      </trkpt>
      <trkpt lat="44.98574" lon="6.03503">
        <ele>2647.3999023438</ele>
        <time>2021-03-21T12:03:12.000Z</time>
      </trkpt>
      <trkpt lat="44.98573" lon="6.03503">
        <ele>2647.6000976562</ele>
        <time>2021-03-21T12:03:13.000Z</time>
      </trkpt>
      <trkpt lat="44.98573" lon="6.03502">
        <ele>2647.6000976562</ele>
        <time>2021-03-21T12:03:14.000Z</time>
      </trkpt>
      <trkpt lat="44.98573" lon="6.03503">
        <ele>2647.6000976562</ele>
        <time>2021-03-21T12:03:15.000Z</time>
      </trkpt>
      <trkpt lat="44.98573" lon="6.03503">
        <ele>2647.8000488281</ele>
        <time>2021-03-21T12:03:16.000Z</time>
      </trkpt>
      <trkpt lat="44.98573" lon="6.03503">
        <ele>2647.8000488281</ele>
        <time>2021-03-21T12:03:17.000Z</time>
      </trkpt>
      <trkpt lat="44.98573" lon="6.03503">
        <ele>2647.8000488281</ele>
        <time>2021-03-21T12:03:18.000Z</time>
      </trkpt>
      <trkpt lat="44.98572" lon="6.03504">
        <ele>2648</ele>
        <time>2021-03-21T12:03:19.000Z</time>
      </trkpt>
      <trkpt lat="44.98572" lon="6.03504">
        <ele>2648.1999511719</ele>
        <time>2021-03-21T12:03:20.000Z</time>
      </trkpt>
      <trkpt lat="44.98572" lon="6.03505">
        <ele>2648.3999023438</ele>
        <time>2021-03-21T12:03:21.000Z</time>
      </trkpt>
      <trkpt lat="44.98572" lon="6.03506">
        <ele>2648.3999023438</ele>
        <time>2021-03-21T12:03:22.000Z</time>
      </trkpt>
      <trkpt lat="44.98571" lon="6.03507">
        <ele>2648.8000488281</ele>
        <time>2021-03-21T12:03:23.000Z</time>
      </trkpt>
      <trkpt lat="44.98571" lon="6.03508">
        <ele>2649</ele>
        <time>2021-03-21T12:03:24.000Z</time>
      </trkpt>
      <trkpt lat="44.9857" lon="6.03509">
        <ele>2649.1999511719</ele>
        <time>2021-03-21T12:03:25.000Z</time>
      </trkpt>
      <trkpt lat="44.9857" lon="6.03509">
        <ele>2649.3999023438</ele>
        <time>2021-03-21T12:03:26.000Z</time>
      </trkpt>
      <trkpt lat="44.9857" lon="6.0351">
        <ele>2649.3999023438</ele>
        <time>2021-03-21T12:03:27.000Z</time>
      </trkpt>
      <trkpt lat="44.98569" lon="6.03511">
        <ele>2649.6000976562</ele>
        <time>2021-03-21T12:03:28.000Z</time>
      </trkpt>
      <trkpt lat="44.98569" lon="6.03511">
        <ele>2649.8000488281</ele>
        <time>2021-03-21T12:03:29.000Z</time>
      </trkpt>
      <trkpt lat="44.98569" lon="6.03512">
        <ele>2650.1999511719</ele>
        <time>2021-03-21T12:03:30.000Z</time>
      </trkpt>
      <trkpt lat="44.98568" lon="6.03512">
        <ele>2650.1999511719</ele>
        <time>2021-03-21T12:03:31.000Z</time>
      </trkpt>
      <trkpt lat="44.98568" lon="6.03513">
        <ele>2650.3999023438</ele>
        <time>2021-03-21T12:03:32.000Z</time>
      </trkpt>
      <trkpt lat="44.98568" lon="6.03514">
        <ele>2650.8000488281</ele>
        <time>2021-03-21T12:03:33.000Z</time>
      </trkpt>
      <trkpt lat="44.98567" lon="6.03514">
        <ele>2651</ele>
        <time>2021-03-21T12:03:34.000Z</time>
      </trkpt>
      <trkpt lat="44.98567" lon="6.03515">
        <ele>2651.1999511719</ele>
        <time>2021-03-21T12:03:35.000Z</time>
      </trkpt>
      <trkpt lat="44.98566" lon="6.03515">
        <ele>2651.3999023438</ele>
        <time>2021-03-21T12:03:36.000Z</time>
      </trkpt>
      <trkpt lat="44.98566" lon="6.03514">
        <ele>2651.6000976562</ele>
        <time>2021-03-21T12:03:37.000Z</time>
      </trkpt>
      <trkpt lat="44.98566" lon="6.03514">
        <ele>2651.6000976562</ele>
        <time>2021-03-21T12:03:38.000Z</time>
      </trkpt>
      <trkpt lat="44.98566" lon="6.03514">
        <ele>2651.6000976562</ele>
        <time>2021-03-21T12:03:39.000Z</time>
      </trkpt>
      <trkpt lat="44.98566" lon="6.03514">
        <ele>2651.6000976562</ele>
        <time>2021-03-21T12:03:40.000Z</time>
      </trkpt>
      <trkpt lat="44.98566" lon="6.03514">
        <ele>2651.6000976562</ele>
        <time>2021-03-21T12:03:41.000Z</time>
      </trkpt>
      <trkpt lat="44.98566" lon="6.03514">
        <ele>2651.6000976562</ele>
        <time>2021-03-21T12:03:42.000Z</time>
      </trkpt>
      <trkpt lat="44.98566" lon="6.03513">
        <ele>2651.6000976562</ele>
        <time>2021-03-21T12:03:43.000Z</time>
      </trkpt>
      <trkpt lat="44.98566" lon="6.03513">
        <ele>2651.6000976562</ele>
        <time>2021-03-21T12:03:44.000Z</time>
      </trkpt>
      <trkpt lat="44.98565" lon="6.03512">
        <ele>2651.8000488281</ele>
        <time>2021-03-21T12:03:45.000Z</time>
      </trkpt>
      <trkpt lat="44.98565" lon="6.03511">
        <ele>2651.6000976562</ele>
        <time>2021-03-21T12:03:46.000Z</time>
      </trkpt>
      <trkpt lat="44.98565" lon="6.0351">
        <ele>2651.8000488281</ele>
        <time>2021-03-21T12:03:47.000Z</time>
      </trkpt>
      <trkpt lat="44.98565" lon="6.03509">
        <ele>2651.8000488281</ele>
        <time>2021-03-21T12:03:48.000Z</time>
      </trkpt>
      <trkpt lat="44.98565" lon="6.03508">
        <ele>2652</ele>
        <time>2021-03-21T12:03:49.000Z</time>
      </trkpt>
      <trkpt lat="44.98564" lon="6.03507">
        <ele>2652.1999511719</ele>
        <time>2021-03-21T12:03:50.000Z</time>
      </trkpt>
      <trkpt lat="44.98564" lon="6.03506">
        <ele>2652.3999023438</ele>
        <time>2021-03-21T12:03:51.000Z</time>
      </trkpt>
      <trkpt lat="44.98564" lon="6.03506">
        <ele>2652.3999023438</ele>
        <time>2021-03-21T12:03:52.000Z</time>
      </trkpt>
      <trkpt lat="44.98563" lon="6.03505">
        <ele>2652.6000976562</ele>
        <time>2021-03-21T12:03:53.000Z</time>
      </trkpt>
      <trkpt lat="44.98563" lon="6.03504">
        <ele>2652.6000976562</ele>
        <time>2021-03-21T12:03:54.000Z</time>
      </trkpt>
      <trkpt lat="44.98563" lon="6.03503">
        <ele>2652.8000488281</ele>
        <time>2021-03-21T12:03:55.000Z</time>
      </trkpt>
      <trkpt lat="44.98563" lon="6.03502">
        <ele>2652.8000488281</ele>
        <time>2021-03-21T12:03:56.000Z</time>
      </trkpt>
      <trkpt lat="44.98562" lon="6.03501">
        <ele>2653</ele>
        <time>2021-03-21T12:03:57.000Z</time>
      </trkpt>
      <trkpt lat="44.98562" lon="6.03501">
        <ele>2653</ele>
        <time>2021-03-21T12:03:58.000Z</time>
      </trkpt>
      <trkpt lat="44.98562" lon="6.035">
        <ele>2653.1999511719</ele>
        <time>2021-03-21T12:03:59.000Z</time>
      </trkpt>
      <trkpt lat="44.98561" lon="6.03499">
        <ele>2653.3999023438</ele>
        <time>2021-03-21T12:04:00.000Z</time>
      </trkpt>
      <trkpt lat="44.98561" lon="6.03499">
        <ele>2653.6000976562</ele>
        <time>2021-03-21T12:04:01.000Z</time>
      </trkpt>
      <trkpt lat="44.98561" lon="6.03499">
        <ele>2653.6000976562</ele>
        <time>2021-03-21T12:04:02.000Z</time>
      </trkpt>
      <trkpt lat="44.9856" lon="6.03499">
        <ele>2653.8000488281</ele>
        <time>2021-03-21T12:04:03.000Z</time>
      </trkpt>
      <trkpt lat="44.9856" lon="6.03499">
        <ele>2653.8000488281</ele>
        <time>2021-03-21T12:04:04.000Z</time>
      </trkpt>
      <trkpt lat="44.9856" lon="6.03499">
        <ele>2653.8000488281</ele>
        <time>2021-03-21T12:04:05.000Z</time>
      </trkpt>
      <trkpt lat="44.9856" lon="6.035">
        <ele>2653.8000488281</ele>
        <time>2021-03-21T12:04:06.000Z</time>
      </trkpt>
      <trkpt lat="44.9856" lon="6.035">
        <ele>2654</ele>
        <time>2021-03-21T12:04:07.000Z</time>
      </trkpt>
      <trkpt lat="44.9856" lon="6.03501">
        <ele>2654.1999511719</ele>
        <time>2021-03-21T12:04:08.000Z</time>
      </trkpt>
      <trkpt lat="44.9856" lon="6.03502">
        <ele>2654.3999023438</ele>
        <time>2021-03-21T12:04:09.000Z</time>
      </trkpt>
      <trkpt lat="44.98559" lon="6.03503">
        <ele>2654.6000976562</ele>
        <time>2021-03-21T12:04:10.000Z</time>
      </trkpt>
      <trkpt lat="44.98559" lon="6.03505">
        <ele>2654.8000488281</ele>
        <time>2021-03-21T12:04:11.000Z</time>
      </trkpt>
      <trkpt lat="44.98558" lon="6.03505">
        <ele>2655.1999511719</ele>
        <time>2021-03-21T12:04:12.000Z</time>
      </trkpt>
      <trkpt lat="44.98558" lon="6.03506">
        <ele>2655.3999023438</ele>
        <time>2021-03-21T12:04:13.000Z</time>
      </trkpt>
      <trkpt lat="44.98557" lon="6.03507">
        <ele>2655.6000976562</ele>
        <time>2021-03-21T12:04:14.000Z</time>
      </trkpt>
      <trkpt lat="44.98557" lon="6.03508">
        <ele>2655.8000488281</ele>
        <time>2021-03-21T12:04:15.000Z</time>
      </trkpt>
      <trkpt lat="44.98557" lon="6.03509">
        <ele>2656</ele>
        <time>2021-03-21T12:04:16.000Z</time>
      </trkpt>
      <trkpt lat="44.98556" lon="6.0351">
        <ele>2656.3999023438</ele>
        <time>2021-03-21T12:04:17.000Z</time>
      </trkpt>
      <trkpt lat="44.98556" lon="6.0351">
        <ele>2656.6000976562</ele>
        <time>2021-03-21T12:04:18.000Z</time>
      </trkpt>
      <trkpt lat="44.98555" lon="6.03511">
        <ele>2657</ele>
        <time>2021-03-21T12:04:19.000Z</time>
      </trkpt>
      <trkpt lat="44.98555" lon="6.03512">
        <ele>2657.1999511719</ele>
        <time>2021-03-21T12:04:20.000Z</time>
      </trkpt>
      <trkpt lat="44.98554" lon="6.03513">
        <ele>2657.3999023438</ele>
        <time>2021-03-21T12:04:21.000Z</time>
      </trkpt>
      <trkpt lat="44.98554" lon="6.03514">
        <ele>2657.8000488281</ele>
        <time>2021-03-21T12:04:22.000Z</time>
      </trkpt>
      <trkpt lat="44.98553" lon="6.03514">
        <ele>2658.1999511719</ele>
        <time>2021-03-21T12:04:23.000Z</time>
      </trkpt>
      <trkpt lat="44.98552" lon="6.03515">
        <ele>2658.3999023438</ele>
        <time>2021-03-21T12:04:24.000Z</time>
      </trkpt>
      <trkpt lat="44.98552" lon="6.03515">
        <ele>2658.6000976562</ele>
        <time>2021-03-21T12:04:25.000Z</time>
      </trkpt>
      <trkpt lat="44.98551" lon="6.03516">
        <ele>2659</ele>
        <time>2021-03-21T12:04:26.000Z</time>
      </trkpt>
      <trkpt lat="44.98551" lon="6.03516">
        <ele>2659.3999023438</ele>
        <time>2021-03-21T12:04:27.000Z</time>
      </trkpt>
      <trkpt lat="44.9855" lon="6.03517">
        <ele>2660</ele>
        <time>2021-03-21T12:04:28.000Z</time>
      </trkpt>
      <trkpt lat="44.9855" lon="6.03517">
        <ele>2660.1999511719</ele>
        <time>2021-03-21T12:04:29.000Z</time>
      </trkpt>
      <trkpt lat="44.98549" lon="6.03518">
        <ele>2660.8000488281</ele>
        <time>2021-03-21T12:04:30.000Z</time>
      </trkpt>
      <trkpt lat="44.98548" lon="6.03519">
        <ele>2661</ele>
        <time>2021-03-21T12:04:31.000Z</time>
      </trkpt>
      <trkpt lat="44.98548" lon="6.03519">
        <ele>2661.3999023438</ele>
        <time>2021-03-21T12:04:32.000Z</time>
      </trkpt>
      <trkpt lat="44.98548" lon="6.03519">
        <ele>2661.3999023438</ele>
        <time>2021-03-21T12:04:33.000Z</time>
      </trkpt>
      <trkpt lat="44.98548" lon="6.0352">
        <ele>2661.8000488281</ele>
        <time>2021-03-21T12:04:34.000Z</time>
      </trkpt>
      <trkpt lat="44.98547" lon="6.0352">
        <ele>2662</ele>
        <time>2021-03-21T12:04:35.000Z</time>
      </trkpt>
      <trkpt lat="44.98546" lon="6.0352">
        <ele>2662.8000488281</ele>
        <time>2021-03-21T12:04:36.000Z</time>
      </trkpt>
      <trkpt lat="44.98545" lon="6.0352">
        <ele>2662.8000488281</ele>
        <time>2021-03-21T12:04:37.000Z</time>
      </trkpt>
      <trkpt lat="44.98545" lon="6.03519">
        <ele>2663</ele>
        <time>2021-03-21T12:04:38.000Z</time>
      </trkpt>
      <trkpt lat="44.98545" lon="6.03519">
        <ele>2663.1999511719</ele>
        <time>2021-03-21T12:04:39.000Z</time>
      </trkpt>
      <trkpt lat="44.98544" lon="6.03519">
        <ele>2663.1999511719</ele>
        <time>2021-03-21T12:04:40.000Z</time>
      </trkpt>
      <trkpt lat="44.98544" lon="6.03518">
        <ele>2663</ele>
        <time>2021-03-21T12:04:41.000Z</time>
      </trkpt>
      <trkpt lat="44.98545" lon="6.03518">
        <ele>2662.8000488281</ele>
        <time>2021-03-21T12:04:42.000Z</time>
      </trkpt>
      <trkpt lat="44.98545" lon="6.03517">
        <ele>2662.6000976562</ele>
        <time>2021-03-21T12:04:43.000Z</time>
      </trkpt>
      <trkpt lat="44.98545" lon="6.03516">
        <ele>2662.3999023438</ele>
        <time>2021-03-21T12:04:44.000Z</time>
      </trkpt>
      <trkpt lat="44.98545" lon="6.03515">
        <ele>2662.1999511719</ele>
        <time>2021-03-21T12:04:45.000Z</time>
      </trkpt>
      <trkpt lat="44.98545" lon="6.03514">
        <ele>2662.1999511719</ele>
        <time>2021-03-21T12:04:46.000Z</time>
      </trkpt>
      <trkpt lat="44.98545" lon="6.03513">
        <ele>2662.1999511719</ele>
        <time>2021-03-21T12:04:47.000Z</time>
      </trkpt>
      <trkpt lat="44.98545" lon="6.03512">
        <ele>2662.1999511719</ele>
        <time>2021-03-21T12:04:48.000Z</time>
      </trkpt>
      <trkpt lat="44.98545" lon="6.03511">
        <ele>2662</ele>
        <time>2021-03-21T12:04:49.000Z</time>
      </trkpt>
      <trkpt lat="44.98545" lon="6.0351">
        <ele>2661.8000488281</ele>
        <time>2021-03-21T12:04:50.000Z</time>
      </trkpt>
      <trkpt lat="44.98545" lon="6.03509">
        <ele>2661.8000488281</ele>
        <time>2021-03-21T12:04:51.000Z</time>
      </trkpt>
      <trkpt lat="44.98545" lon="6.03508">
        <ele>2661.6000976562</ele>
        <time>2021-03-21T12:04:52.000Z</time>
      </trkpt>
      <trkpt lat="44.98546" lon="6.03507">
        <ele>2661.3999023438</ele>
        <time>2021-03-21T12:04:53.000Z</time>
      </trkpt>
      <trkpt lat="44.98546" lon="6.03505">
        <ele>2661.3999023438</ele>
        <time>2021-03-21T12:04:54.000Z</time>
      </trkpt>
      <trkpt lat="44.98545" lon="6.03504">
        <ele>2661.6000976562</ele>
        <time>2021-03-21T12:04:55.000Z</time>
      </trkpt>
      <trkpt lat="44.98545" lon="6.03503">
        <ele>2661.8000488281</ele>
        <time>2021-03-21T12:04:56.000Z</time>
      </trkpt>
      <trkpt lat="44.98545" lon="6.03502">
        <ele>2661.8000488281</ele>
        <time>2021-03-21T12:04:57.000Z</time>
      </trkpt>
      <trkpt lat="44.98545" lon="6.03501">
        <ele>2661.8000488281</ele>
        <time>2021-03-21T12:04:58.000Z</time>
      </trkpt>
      <trkpt lat="44.98545" lon="6.035">
        <ele>2661.8000488281</ele>
        <time>2021-03-21T12:04:59.000Z</time>
      </trkpt>
      <trkpt lat="44.98544" lon="6.035">
        <ele>2661.8000488281</ele>
        <time>2021-03-21T12:05:00.000Z</time>
      </trkpt>
      <trkpt lat="44.98544" lon="6.03499">
        <ele>2662</ele>
        <time>2021-03-21T12:05:01.000Z</time>
      </trkpt>
      <trkpt lat="44.98544" lon="6.03498">
        <ele>2662</ele>
        <time>2021-03-21T12:05:02.000Z</time>
      </trkpt>
      <trkpt lat="44.98544" lon="6.03496">
        <ele>2661.8000488281</ele>
        <time>2021-03-21T12:05:03.000Z</time>
      </trkpt>
      <trkpt lat="44.98544" lon="6.03495">
        <ele>2662</ele>
        <time>2021-03-21T12:05:04.000Z</time>
      </trkpt>
      <trkpt lat="44.98544" lon="6.03494">
        <ele>2661.8000488281</ele>
        <time>2021-03-21T12:05:05.000Z</time>
      </trkpt>
      <trkpt lat="44.98544" lon="6.03493">
        <ele>2662.1999511719</ele>
        <time>2021-03-21T12:05:06.000Z</time>
      </trkpt>
      <trkpt lat="44.98543" lon="6.03493">
        <ele>2662.1999511719</ele>
        <time>2021-03-21T12:05:07.000Z</time>
      </trkpt>
      <trkpt lat="44.98543" lon="6.03492">
        <ele>2662.1999511719</ele>
        <time>2021-03-21T12:05:08.000Z</time>
      </trkpt>
      <trkpt lat="44.98543" lon="6.03491">
        <ele>2662.3999023438</ele>
        <time>2021-03-21T12:05:09.000Z</time>
      </trkpt>
      <trkpt lat="44.98542" lon="6.03491">
        <ele>2662.6000976562</ele>
        <time>2021-03-21T12:05:10.000Z</time>
      </trkpt>
      <trkpt lat="44.98542" lon="6.0349">
        <ele>2662.8000488281</ele>
        <time>2021-03-21T12:05:11.000Z</time>
      </trkpt>
      <trkpt lat="44.98542" lon="6.03489">
        <ele>2663</ele>
        <time>2021-03-21T12:05:12.000Z</time>
      </trkpt>
      <trkpt lat="44.98541" lon="6.03488">
        <ele>2663.1999511719</ele>
        <time>2021-03-21T12:05:13.000Z</time>
      </trkpt>
      <trkpt lat="44.98541" lon="6.03488">
        <ele>2663.1999511719</ele>
        <time>2021-03-21T12:05:14.000Z</time>
      </trkpt>
      <trkpt lat="44.9854" lon="6.03487">
        <ele>2663.3999023438</ele>
        <time>2021-03-21T12:05:15.000Z</time>
      </trkpt>
      <trkpt lat="44.9854" lon="6.03486">
        <ele>2663.3999023438</ele>
        <time>2021-03-21T12:05:16.000Z</time>
      </trkpt>
      <trkpt lat="44.9854" lon="6.03486">
        <ele>2663.6000976562</ele>
        <time>2021-03-21T12:05:17.000Z</time>
      </trkpt>
      <trkpt lat="44.98539" lon="6.03485">
        <ele>2663.6000976562</ele>
        <time>2021-03-21T12:05:18.000Z</time>
      </trkpt>
      <trkpt lat="44.98539" lon="6.03485">
        <ele>2663.8000488281</ele>
        <time>2021-03-21T12:05:19.000Z</time>
      </trkpt>
      <trkpt lat="44.98538" lon="6.03484">
        <ele>2664</ele>
        <time>2021-03-21T12:05:20.000Z</time>
      </trkpt>
      <trkpt lat="44.98537" lon="6.03484">
        <ele>2664.1999511719</ele>
        <time>2021-03-21T12:05:21.000Z</time>
      </trkpt>
      <trkpt lat="44.98537" lon="6.03484">
        <ele>2664.3999023438</ele>
        <time>2021-03-21T12:05:22.000Z</time>
      </trkpt>
      <trkpt lat="44.98537" lon="6.03484">
        <ele>2664.3999023438</ele>
        <time>2021-03-21T12:05:23.000Z</time>
      </trkpt>
      <trkpt lat="44.98536" lon="6.03484">
        <ele>2664.6000976562</ele>
        <time>2021-03-21T12:05:24.000Z</time>
      </trkpt>
      <trkpt lat="44.98536" lon="6.03484">
        <ele>2664.6000976562</ele>
        <time>2021-03-21T12:05:25.000Z</time>
      </trkpt>
      <trkpt lat="44.98535" lon="6.03484">
        <ele>2664.8000488281</ele>
        <time>2021-03-21T12:05:26.000Z</time>
      </trkpt>
      <trkpt lat="44.98535" lon="6.03485">
        <ele>2665</ele>
        <time>2021-03-21T12:05:27.000Z</time>
      </trkpt>
      <trkpt lat="44.98535" lon="6.03486">
        <ele>2665.3999023438</ele>
        <time>2021-03-21T12:05:28.000Z</time>
      </trkpt>
      <trkpt lat="44.98534" lon="6.03486">
        <ele>2665.6000976562</ele>
        <time>2021-03-21T12:05:29.000Z</time>
      </trkpt>
      <trkpt lat="44.98534" lon="6.03488">
        <ele>2665.8000488281</ele>
        <time>2021-03-21T12:05:30.000Z</time>
      </trkpt>
      <trkpt lat="44.98533" lon="6.03488">
        <ele>2665.8000488281</ele>
        <time>2021-03-21T12:05:31.000Z</time>
      </trkpt>
      <trkpt lat="44.98533" lon="6.0349">
        <ele>2666</ele>
        <time>2021-03-21T12:05:32.000Z</time>
      </trkpt>
      <trkpt lat="44.98533" lon="6.0349">
        <ele>2666.1999511719</ele>
        <time>2021-03-21T12:05:33.000Z</time>
      </trkpt>
      <trkpt lat="44.98532" lon="6.03491">
        <ele>2666.3999023438</ele>
        <time>2021-03-21T12:05:34.000Z</time>
      </trkpt>
      <trkpt lat="44.98532" lon="6.03492">
        <ele>2666.6000976562</ele>
        <time>2021-03-21T12:05:35.000Z</time>
      </trkpt>
      <trkpt lat="44.98531" lon="6.03493">
        <ele>2667</ele>
        <time>2021-03-21T12:05:36.000Z</time>
      </trkpt>
      <trkpt lat="44.98531" lon="6.03493">
        <ele>2667.1999511719</ele>
        <time>2021-03-21T12:05:37.000Z</time>
      </trkpt>
      <trkpt lat="44.9853" lon="6.03494">
        <ele>2667.3999023438</ele>
        <time>2021-03-21T12:05:38.000Z</time>
      </trkpt>
      <trkpt lat="44.9853" lon="6.03495">
        <ele>2667.3999023438</ele>
        <time>2021-03-21T12:05:39.000Z</time>
      </trkpt>
      <trkpt lat="44.98529" lon="6.03495">
        <ele>2667.6000976562</ele>
        <time>2021-03-21T12:05:40.000Z</time>
      </trkpt>
      <trkpt lat="44.98529" lon="6.03496">
        <ele>2667.8000488281</ele>
        <time>2021-03-21T12:05:41.000Z</time>
      </trkpt>
      <trkpt lat="44.98529" lon="6.03496">
        <ele>2668</ele>
        <time>2021-03-21T12:05:42.000Z</time>
      </trkpt>
      <trkpt lat="44.98528" lon="6.03497">
        <ele>2668.1999511719</ele>
        <time>2021-03-21T12:05:43.000Z</time>
      </trkpt>
      <trkpt lat="44.98528" lon="6.03497">
        <ele>2668.3999023438</ele>
        <time>2021-03-21T12:05:44.000Z</time>
      </trkpt>
      <trkpt lat="44.98527" lon="6.03498">
        <ele>2668.6000976562</ele>
        <time>2021-03-21T12:05:45.000Z</time>
      </trkpt>
      <trkpt lat="44.98527" lon="6.03499">
        <ele>2668.6000976562</ele>
        <time>2021-03-21T12:05:46.000Z</time>
      </trkpt>
      <trkpt lat="44.98526" lon="6.035">
        <ele>2668.8000488281</ele>
        <time>2021-03-21T12:05:47.000Z</time>
      </trkpt>
      <trkpt lat="44.98526" lon="6.035">
        <ele>2669</ele>
        <time>2021-03-21T12:05:48.000Z</time>
      </trkpt>
      <trkpt lat="44.98526" lon="6.03501">
        <ele>2669</ele>
        <time>2021-03-21T12:05:49.000Z</time>
      </trkpt>
      <trkpt lat="44.98527" lon="6.03501">
        <ele>2668.8000488281</ele>
        <time>2021-03-21T12:05:50.000Z</time>
      </trkpt>
      <trkpt lat="44.98526" lon="6.03501">
        <ele>2668.8000488281</ele>
        <time>2021-03-21T12:05:51.000Z</time>
      </trkpt>
      <trkpt lat="44.98526" lon="6.03501">
        <ele>2668.8000488281</ele>
        <time>2021-03-21T12:05:52.000Z</time>
      </trkpt>
      <trkpt lat="44.98526" lon="6.03501">
        <ele>2668.8000488281</ele>
        <time>2021-03-21T12:05:53.000Z</time>
      </trkpt>
      <trkpt lat="44.98526" lon="6.03502">
        <ele>2669</ele>
        <time>2021-03-21T12:05:54.000Z</time>
      </trkpt>
      <trkpt lat="44.98526" lon="6.03502">
        <ele>2669</ele>
        <time>2021-03-21T12:05:55.000Z</time>
      </trkpt>
      <trkpt lat="44.98526" lon="6.03502">
        <ele>2669</ele>
        <time>2021-03-21T12:05:56.000Z</time>
      </trkpt>
      <trkpt lat="44.98526" lon="6.03502">
        <ele>2669</ele>
        <time>2021-03-21T12:05:57.000Z</time>
      </trkpt>
      <trkpt lat="44.98526" lon="6.03502">
        <ele>2669.1999511719</ele>
        <time>2021-03-21T12:05:58.000Z</time>
      </trkpt>
      <trkpt lat="44.98525" lon="6.03503">
        <ele>2669.3999023438</ele>
        <time>2021-03-21T12:05:59.000Z</time>
      </trkpt>
      <trkpt lat="44.98525" lon="6.03503">
        <ele>2669.3999023438</ele>
        <time>2021-03-21T12:06:00.000Z</time>
      </trkpt>
      <trkpt lat="44.98524" lon="6.03504">
        <ele>2669.6000976562</ele>
        <time>2021-03-21T12:06:01.000Z</time>
      </trkpt>
      <trkpt lat="44.98524" lon="6.03505">
        <ele>2669.8000488281</ele>
        <time>2021-03-21T12:06:02.000Z</time>
      </trkpt>
      <trkpt lat="44.98524" lon="6.03506">
        <ele>2670</ele>
        <time>2021-03-21T12:06:03.000Z</time>
      </trkpt>
      <trkpt lat="44.98524" lon="6.03506">
        <ele>2670</ele>
        <time>2021-03-21T12:06:04.000Z</time>
      </trkpt>
      <trkpt lat="44.98523" lon="6.03507">
        <ele>2670.1999511719</ele>
        <time>2021-03-21T12:06:05.000Z</time>
      </trkpt>
      <trkpt lat="44.98523" lon="6.03508">
        <ele>2670.1999511719</ele>
        <time>2021-03-21T12:06:06.000Z</time>
      </trkpt>
      <trkpt lat="44.98523" lon="6.03508">
        <ele>2670.3999023438</ele>
        <time>2021-03-21T12:06:07.000Z</time>
      </trkpt>
      <trkpt lat="44.98522" lon="6.03509">
        <ele>2670.6000976562</ele>
        <time>2021-03-21T12:06:08.000Z</time>
      </trkpt>
      <trkpt lat="44.98522" lon="6.0351">
        <ele>2670.8000488281</ele>
        <time>2021-03-21T12:06:09.000Z</time>
      </trkpt>
      <trkpt lat="44.98521" lon="6.03511">
        <ele>2671</ele>
        <time>2021-03-21T12:06:10.000Z</time>
      </trkpt>
      <trkpt lat="44.98521" lon="6.03511">
        <ele>2671.1999511719</ele>
        <time>2021-03-21T12:06:11.000Z</time>
      </trkpt>
      <trkpt lat="44.9852" lon="6.03512">
        <ele>2671.3999023438</ele>
        <time>2021-03-21T12:06:12.000Z</time>
      </trkpt>
      <trkpt lat="44.9852" lon="6.03512">
        <ele>2671.6000976562</ele>
        <time>2021-03-21T12:06:13.000Z</time>
      </trkpt>
      <trkpt lat="44.98519" lon="6.03513">
        <ele>2672</ele>
        <time>2021-03-21T12:06:14.000Z</time>
      </trkpt>
      <trkpt lat="44.98519" lon="6.03514">
        <ele>2672.1999511719</ele>
        <time>2021-03-21T12:06:15.000Z</time>
      </trkpt>
      <trkpt lat="44.98518" lon="6.03515">
        <ele>2672.3999023438</ele>
        <time>2021-03-21T12:06:16.000Z</time>
      </trkpt>
      <trkpt lat="44.98518" lon="6.03515">
        <ele>2672.6000976562</ele>
        <time>2021-03-21T12:06:17.000Z</time>
      </trkpt>
      <trkpt lat="44.98517" lon="6.03516">
        <ele>2672.8000488281</ele>
        <time>2021-03-21T12:06:18.000Z</time>
      </trkpt>
      <trkpt lat="44.98517" lon="6.03516">
        <ele>2673</ele>
        <time>2021-03-21T12:06:19.000Z</time>
      </trkpt>
      <trkpt lat="44.98516" lon="6.03517">
        <ele>2673.1999511719</ele>
        <time>2021-03-21T12:06:20.000Z</time>
      </trkpt>
      <trkpt lat="44.98516" lon="6.03517">
        <ele>2673.3999023438</ele>
        <time>2021-03-21T12:06:21.000Z</time>
      </trkpt>
      <trkpt lat="44.98515" lon="6.03517">
        <ele>2673.6000976562</ele>
        <time>2021-03-21T12:06:22.000Z</time>
      </trkpt>
      <trkpt lat="44.98515" lon="6.03517">
        <ele>2673.8000488281</ele>
        <time>2021-03-21T12:06:23.000Z</time>
      </trkpt>
      <trkpt lat="44.98514" lon="6.03517">
        <ele>2674</ele>
        <time>2021-03-21T12:06:24.000Z</time>
      </trkpt>
      <trkpt lat="44.98514" lon="6.03518">
        <ele>2674.1999511719</ele>
        <time>2021-03-21T12:06:25.000Z</time>
      </trkpt>
      <trkpt lat="44.98514" lon="6.03518">
        <ele>2674.1999511719</ele>
        <time>2021-03-21T12:06:26.000Z</time>
      </trkpt>
      <trkpt lat="44.98513" lon="6.03518">
        <ele>2674.6000976562</ele>
        <time>2021-03-21T12:06:27.000Z</time>
      </trkpt>
      <trkpt lat="44.98512" lon="6.03519">
        <ele>2675</ele>
        <time>2021-03-21T12:06:28.000Z</time>
      </trkpt>
      <trkpt lat="44.98512" lon="6.03519">
        <ele>2675.3999023438</ele>
        <time>2021-03-21T12:06:29.000Z</time>
      </trkpt>
      <trkpt lat="44.98511" lon="6.03519">
        <ele>2675.8000488281</ele>
        <time>2021-03-21T12:06:30.000Z</time>
      </trkpt>
      <trkpt lat="44.9851" lon="6.0352">
        <ele>2676.1999511719</ele>
        <time>2021-03-21T12:06:31.000Z</time>
      </trkpt>
      <trkpt lat="44.9851" lon="6.0352">
        <ele>2676.6000976562</ele>
        <time>2021-03-21T12:06:32.000Z</time>
      </trkpt>
      <trkpt lat="44.98509" lon="6.0352">
        <ele>2677</ele>
        <time>2021-03-21T12:06:33.000Z</time>
      </trkpt>
      <trkpt lat="44.98508" lon="6.03521">
        <ele>2677.3999023438</ele>
        <time>2021-03-21T12:06:34.000Z</time>
      </trkpt>
      <trkpt lat="44.98507" lon="6.03521">
        <ele>2677.8000488281</ele>
        <time>2021-03-21T12:06:35.000Z</time>
      </trkpt>
      <trkpt lat="44.98507" lon="6.03521">
        <ele>2678.1999511719</ele>
        <time>2021-03-21T12:06:36.000Z</time>
      </trkpt>
      <trkpt lat="44.98505" lon="6.03521">
        <ele>2678.8000488281</ele>
        <time>2021-03-21T12:06:37.000Z</time>
      </trkpt>
      <trkpt lat="44.98504" lon="6.03521">
        <ele>2679.3999023438</ele>
        <time>2021-03-21T12:06:38.000Z</time>
      </trkpt>
      <trkpt lat="44.98504" lon="6.03521">
        <ele>2679.8000488281</ele>
        <time>2021-03-21T12:06:39.000Z</time>
      </trkpt>
      <trkpt lat="44.98503" lon="6.03522">
        <ele>2680</ele>
        <time>2021-03-21T12:06:40.000Z</time>
      </trkpt>
      <trkpt lat="44.98503" lon="6.03522">
        <ele>2680.1999511719</ele>
        <time>2021-03-21T12:06:41.000Z</time>
      </trkpt>
      <trkpt lat="44.98503" lon="6.03522">
        <ele>2680.3999023438</ele>
        <time>2021-03-21T12:06:42.000Z</time>
      </trkpt>
      <trkpt lat="44.98502" lon="6.03523">
        <ele>2680.8000488281</ele>
        <time>2021-03-21T12:06:43.000Z</time>
      </trkpt>
      <trkpt lat="44.98502" lon="6.03523">
        <ele>2681</ele>
        <time>2021-03-21T12:06:44.000Z</time>
      </trkpt>
      <trkpt lat="44.98501" lon="6.03524">
        <ele>2681.1999511719</ele>
        <time>2021-03-21T12:06:45.000Z</time>
      </trkpt>
      <trkpt lat="44.98501" lon="6.03524">
        <ele>2681.3999023438</ele>
        <time>2021-03-21T12:06:46.000Z</time>
      </trkpt>
      <trkpt lat="44.985" lon="6.03524">
        <ele>2681.6000976562</ele>
        <time>2021-03-21T12:06:47.000Z</time>
      </trkpt>
      <trkpt lat="44.985" lon="6.03524">
        <ele>2681.8000488281</ele>
        <time>2021-03-21T12:06:48.000Z</time>
      </trkpt>
      <trkpt lat="44.985" lon="6.03525">
        <ele>2682.1999511719</ele>
        <time>2021-03-21T12:06:49.000Z</time>
      </trkpt>
      <trkpt lat="44.985" lon="6.03525">
        <ele>2682.1999511719</ele>
        <time>2021-03-21T12:06:50.000Z</time>
      </trkpt>
      <trkpt lat="44.98499" lon="6.03525">
        <ele>2682.6000976562</ele>
        <time>2021-03-21T12:06:51.000Z</time>
      </trkpt>
      <trkpt lat="44.98499" lon="6.03526">
        <ele>2682.8000488281</ele>
        <time>2021-03-21T12:06:52.000Z</time>
      </trkpt>
      <trkpt lat="44.98498" lon="6.03526">
        <ele>2683</ele>
        <time>2021-03-21T12:06:53.000Z</time>
      </trkpt>
      <trkpt lat="44.98498" lon="6.03527">
        <ele>2683.3999023438</ele>
        <time>2021-03-21T12:06:54.000Z</time>
      </trkpt>
      <trkpt lat="44.98497" lon="6.03527">
        <ele>2683.8000488281</ele>
        <time>2021-03-21T12:06:55.000Z</time>
      </trkpt>
      <trkpt lat="44.98496" lon="6.03528">
        <ele>2684.1999511719</ele>
        <time>2021-03-21T12:06:56.000Z</time>
      </trkpt>
      <trkpt lat="44.98496" lon="6.03528">
        <ele>2684.6000976562</ele>
        <time>2021-03-21T12:06:57.000Z</time>
      </trkpt>
      <trkpt lat="44.98495" lon="6.03529">
        <ele>2685</ele>
        <time>2021-03-21T12:06:58.000Z</time>
      </trkpt>
      <trkpt lat="44.98494" lon="6.03529">
        <ele>2685.3999023438</ele>
        <time>2021-03-21T12:06:59.000Z</time>
      </trkpt>
      <trkpt lat="44.98494" lon="6.03529">
        <ele>2685.6000976562</ele>
        <time>2021-03-21T12:07:00.000Z</time>
      </trkpt>
      <trkpt lat="44.98493" lon="6.0353">
        <ele>2686.1999511719</ele>
        <time>2021-03-21T12:07:01.000Z</time>
      </trkpt>
      <trkpt lat="44.98492" lon="6.0353">
        <ele>2686.8000488281</ele>
        <time>2021-03-21T12:07:02.000Z</time>
      </trkpt>
      <trkpt lat="44.98491" lon="6.03531">
        <ele>2687.3999023438</ele>
        <time>2021-03-21T12:07:03.000Z</time>
      </trkpt>
      <trkpt lat="44.9849" lon="6.03531">
        <ele>2687.8000488281</ele>
        <time>2021-03-21T12:07:04.000Z</time>
      </trkpt>
      <trkpt lat="44.9849" lon="6.03531">
        <ele>2688.1999511719</ele>
        <time>2021-03-21T12:07:05.000Z</time>
      </trkpt>
      <trkpt lat="44.98489" lon="6.03531">
        <ele>2688.3999023438</ele>
        <time>2021-03-21T12:07:06.000Z</time>
      </trkpt>
      <trkpt lat="44.98488" lon="6.03531">
        <ele>2688.8000488281</ele>
        <time>2021-03-21T12:07:07.000Z</time>
      </trkpt>
      <trkpt lat="44.98488" lon="6.03532">
        <ele>2689</ele>
        <time>2021-03-21T12:07:08.000Z</time>
      </trkpt>
      <trkpt lat="44.98488" lon="6.03532">
        <ele>2689.1999511719</ele>
        <time>2021-03-21T12:07:09.000Z</time>
      </trkpt>
      <trkpt lat="44.98487" lon="6.03532">
        <ele>2689.6000976562</ele>
        <time>2021-03-21T12:07:10.000Z</time>
      </trkpt>
      <trkpt lat="44.98487" lon="6.03532">
        <ele>2689.8000488281</ele>
        <time>2021-03-21T12:07:11.000Z</time>
      </trkpt>
      <trkpt lat="44.98486" lon="6.03532">
        <ele>2690.3999023438</ele>
        <time>2021-03-21T12:07:12.000Z</time>
      </trkpt>
      <trkpt lat="44.98485" lon="6.03532">
        <ele>2690.8000488281</ele>
        <time>2021-03-21T12:07:13.000Z</time>
      </trkpt>
      <trkpt lat="44.98484" lon="6.03532">
        <ele>2691.3999023438</ele>
        <time>2021-03-21T12:07:14.000Z</time>
      </trkpt>
      <trkpt lat="44.98484" lon="6.03532">
        <ele>2691.3999023438</ele>
        <time>2021-03-21T12:07:15.000Z</time>
      </trkpt>
      <trkpt lat="44.98484" lon="6.03532">
        <ele>2692</ele>
        <time>2021-03-21T12:07:16.000Z</time>
      </trkpt>
      <trkpt lat="44.98483" lon="6.03532">
        <ele>2692.1999511719</ele>
        <time>2021-03-21T12:07:17.000Z</time>
      </trkpt>
      <trkpt lat="44.98483" lon="6.03532">
        <ele>2692.6000976562</ele>
        <time>2021-03-21T12:07:18.000Z</time>
      </trkpt>
      <trkpt lat="44.98482" lon="6.03533">
        <ele>2693</ele>
        <time>2021-03-21T12:07:19.000Z</time>
      </trkpt>
      <trkpt lat="44.98482" lon="6.03533">
        <ele>2693.3999023438</ele>
        <time>2021-03-21T12:07:20.000Z</time>
      </trkpt>
      <trkpt lat="44.98481" lon="6.03532">
        <ele>2694</ele>
        <time>2021-03-21T12:07:21.000Z</time>
      </trkpt>
      <trkpt lat="44.9848" lon="6.03533">
        <ele>2694.6000976562</ele>
        <time>2021-03-21T12:07:22.000Z</time>
      </trkpt>
      <trkpt lat="44.9848" lon="6.03533">
        <ele>2695.1999511719</ele>
        <time>2021-03-21T12:07:23.000Z</time>
      </trkpt>
      <trkpt lat="44.98479" lon="6.03534">
        <ele>2695.8000488281</ele>
        <time>2021-03-21T12:07:24.000Z</time>
      </trkpt>
      <trkpt lat="44.98478" lon="6.03534">
        <ele>2696.3999023438</ele>
        <time>2021-03-21T12:07:25.000Z</time>
      </trkpt>
      <trkpt lat="44.98478" lon="6.03534">
        <ele>2697</ele>
        <time>2021-03-21T12:07:26.000Z</time>
      </trkpt>
      <trkpt lat="44.98477" lon="6.03534">
        <ele>2697.6000976562</ele>
        <time>2021-03-21T12:07:27.000Z</time>
      </trkpt>
      <trkpt lat="44.98476" lon="6.03534">
        <ele>2698</ele>
        <time>2021-03-21T12:07:28.000Z</time>
      </trkpt>
      <trkpt lat="44.98476" lon="6.03534">
        <ele>2698.6000976562</ele>
        <time>2021-03-21T12:07:29.000Z</time>
      </trkpt>
      <trkpt lat="44.98475" lon="6.03533">
        <ele>2698.8000488281</ele>
        <time>2021-03-21T12:07:30.000Z</time>
      </trkpt>
      <trkpt lat="44.98475" lon="6.03533">
        <ele>2699.1999511719</ele>
        <time>2021-03-21T12:07:31.000Z</time>
      </trkpt>
      <trkpt lat="44.98474" lon="6.03534">
        <ele>2699.6000976562</ele>
        <time>2021-03-21T12:07:32.000Z</time>
      </trkpt>
      <trkpt lat="44.98473" lon="6.03533">
        <ele>2700</ele>
        <time>2021-03-21T12:07:33.000Z</time>
      </trkpt>
      <trkpt lat="44.98473" lon="6.03533">
        <ele>2700.3999023438</ele>
        <time>2021-03-21T12:07:34.000Z</time>
      </trkpt>
      <trkpt lat="44.98472" lon="6.03533">
        <ele>2700.8000488281</ele>
        <time>2021-03-21T12:07:35.000Z</time>
      </trkpt>
      <trkpt lat="44.98472" lon="6.03533">
        <ele>2701.1999511719</ele>
        <time>2021-03-21T12:07:36.000Z</time>
      </trkpt>
      <trkpt lat="44.98471" lon="6.03533">
        <ele>2701.6000976562</ele>
        <time>2021-03-21T12:07:37.000Z</time>
      </trkpt>
      <trkpt lat="44.9847" lon="6.03533">
        <ele>2702</ele>
        <time>2021-03-21T12:07:38.000Z</time>
      </trkpt>
      <trkpt lat="44.9847" lon="6.03533">
        <ele>2702.3999023438</ele>
        <time>2021-03-21T12:07:39.000Z</time>
      </trkpt>
      <trkpt lat="44.98469" lon="6.03533">
        <ele>2703</ele>
        <time>2021-03-21T12:07:40.000Z</time>
      </trkpt>
      <trkpt lat="44.98468" lon="6.03533">
        <ele>2703.3999023438</ele>
        <time>2021-03-21T12:07:41.000Z</time>
      </trkpt>
      <trkpt lat="44.98468" lon="6.03533">
        <ele>2703.8000488281</ele>
        <time>2021-03-21T12:07:42.000Z</time>
      </trkpt>
      <trkpt lat="44.98467" lon="6.03533">
        <ele>2704.3999023438</ele>
        <time>2021-03-21T12:07:43.000Z</time>
      </trkpt>
      <trkpt lat="44.98466" lon="6.03533">
        <ele>2705</ele>
        <time>2021-03-21T12:07:44.000Z</time>
      </trkpt>
      <trkpt lat="44.98465" lon="6.03533">
        <ele>2705.6000976562</ele>
        <time>2021-03-21T12:07:45.000Z</time>
      </trkpt>
      <trkpt lat="44.98464" lon="6.03533">
        <ele>2706.1999511719</ele>
        <time>2021-03-21T12:07:46.000Z</time>
      </trkpt>
      <trkpt lat="44.98463" lon="6.03533">
        <ele>2706.8000488281</ele>
        <time>2021-03-21T12:07:47.000Z</time>
      </trkpt>
      <trkpt lat="44.98462" lon="6.03533">
        <ele>2707.3999023438</ele>
        <time>2021-03-21T12:07:48.000Z</time>
      </trkpt>
      <trkpt lat="44.98462" lon="6.03532">
        <ele>2707.6000976562</ele>
        <time>2021-03-21T12:07:49.000Z</time>
      </trkpt>
      <trkpt lat="44.98461" lon="6.03532">
        <ele>2708.3999023438</ele>
        <time>2021-03-21T12:07:50.000Z</time>
      </trkpt>
      <trkpt lat="44.9846" lon="6.03531">
        <ele>2708.8000488281</ele>
        <time>2021-03-21T12:07:51.000Z</time>
      </trkpt>
      <trkpt lat="44.9846" lon="6.03531">
        <ele>2709.1999511719</ele>
        <time>2021-03-21T12:07:52.000Z</time>
      </trkpt>
      <trkpt lat="44.98459" lon="6.0353">
        <ele>2709.3999023438</ele>
        <time>2021-03-21T12:07:53.000Z</time>
      </trkpt>
      <trkpt lat="44.98459" lon="6.0353">
        <ele>2709.8000488281</ele>
        <time>2021-03-21T12:07:54.000Z</time>
      </trkpt>
      <trkpt lat="44.98458" lon="6.03529">
        <ele>2710.3999023438</ele>
        <time>2021-03-21T12:07:55.000Z</time>
      </trkpt>
      <trkpt lat="44.98458" lon="6.03528">
        <ele>2710.6000976562</ele>
        <time>2021-03-21T12:07:56.000Z</time>
      </trkpt>
      <trkpt lat="44.98457" lon="6.03528">
        <ele>2711</ele>
        <time>2021-03-21T12:07:57.000Z</time>
      </trkpt>
      <trkpt lat="44.98457" lon="6.03527">
        <ele>2711</ele>
        <time>2021-03-21T12:07:58.000Z</time>
      </trkpt>
      <trkpt lat="44.98457" lon="6.03527">
        <ele>2711.1999511719</ele>
        <time>2021-03-21T12:07:59.000Z</time>
      </trkpt>
      <trkpt lat="44.98457" lon="6.03526">
        <ele>2711.3999023438</ele>
        <time>2021-03-21T12:08:00.000Z</time>
      </trkpt>
      <trkpt lat="44.98456" lon="6.03525">
        <ele>2711.8000488281</ele>
        <time>2021-03-21T12:08:01.000Z</time>
      </trkpt>
      <trkpt lat="44.98456" lon="6.03524">
        <ele>2712</ele>
        <time>2021-03-21T12:08:02.000Z</time>
      </trkpt>
      <trkpt lat="44.98455" lon="6.03524">
        <ele>2712.3999023438</ele>
        <time>2021-03-21T12:08:03.000Z</time>
      </trkpt>
      <trkpt lat="44.98455" lon="6.03523">
        <ele>2712.6000976562</ele>
        <time>2021-03-21T12:08:04.000Z</time>
      </trkpt>
      <trkpt lat="44.98455" lon="6.03522">
        <ele>2712.8000488281</ele>
        <time>2021-03-21T12:08:05.000Z</time>
      </trkpt>
      <trkpt lat="44.98454" lon="6.03521">
        <ele>2713.1999511719</ele>
        <time>2021-03-21T12:08:06.000Z</time>
      </trkpt>
      <trkpt lat="44.98454" lon="6.0352">
        <ele>2713.3999023438</ele>
        <time>2021-03-21T12:08:07.000Z</time>
      </trkpt>
      <trkpt lat="44.98453" lon="6.03519">
        <ele>2713.6000976562</ele>
        <time>2021-03-21T12:08:08.000Z</time>
      </trkpt>
      <trkpt lat="44.98453" lon="6.03519">
        <ele>2713.8000488281</ele>
        <time>2021-03-21T12:08:09.000Z</time>
      </trkpt>
      <trkpt lat="44.98453" lon="6.03518">
        <ele>2714.1999511719</ele>
        <time>2021-03-21T12:08:10.000Z</time>
      </trkpt>
      <trkpt lat="44.98453" lon="6.03517">
        <ele>2714.1999511719</ele>
        <time>2021-03-21T12:08:11.000Z</time>
      </trkpt>
      <trkpt lat="44.98452" lon="6.03516">
        <ele>2714.3999023438</ele>
        <time>2021-03-21T12:08:12.000Z</time>
      </trkpt>
      <trkpt lat="44.98452" lon="6.03515">
        <ele>2714.8000488281</ele>
        <time>2021-03-21T12:08:13.000Z</time>
      </trkpt>
      <trkpt lat="44.98452" lon="6.03515">
        <ele>2714.8000488281</ele>
        <time>2021-03-21T12:08:14.000Z</time>
      </trkpt>
      <trkpt lat="44.98451" lon="6.03515">
        <ele>2715</ele>
        <time>2021-03-21T12:08:15.000Z</time>
      </trkpt>
      <trkpt lat="44.98451" lon="6.03514">
        <ele>2715.1999511719</ele>
        <time>2021-03-21T12:08:16.000Z</time>
      </trkpt>
      <trkpt lat="44.9845" lon="6.03514">
        <ele>2715.6000976562</ele>
        <time>2021-03-21T12:08:17.000Z</time>
      </trkpt>
      <trkpt lat="44.9845" lon="6.03514">
        <ele>2715.8000488281</ele>
        <time>2021-03-21T12:08:18.000Z</time>
      </trkpt>
      <trkpt lat="44.98449" lon="6.03515">
        <ele>2716.1999511719</ele>
        <time>2021-03-21T12:08:19.000Z</time>
      </trkpt>
      <trkpt lat="44.98449" lon="6.03515">
        <ele>2716.3999023438</ele>
        <time>2021-03-21T12:08:20.000Z</time>
      </trkpt>
      <trkpt lat="44.98448" lon="6.03516">
        <ele>2716.6000976562</ele>
        <time>2021-03-21T12:08:21.000Z</time>
      </trkpt>
      <trkpt lat="44.98448" lon="6.03516">
        <ele>2716.8000488281</ele>
        <time>2021-03-21T12:08:22.000Z</time>
      </trkpt>
      <trkpt lat="44.98447" lon="6.03516">
        <ele>2717</ele>
        <time>2021-03-21T12:08:23.000Z</time>
      </trkpt>
      <trkpt lat="44.98447" lon="6.03516">
        <ele>2717</ele>
        <time>2021-03-21T12:08:24.000Z</time>
      </trkpt>
      <trkpt lat="44.98446" lon="6.03517">
        <ele>2717.1999511719</ele>
        <time>2021-03-21T12:08:25.000Z</time>
      </trkpt>
      <trkpt lat="44.98446" lon="6.03517">
        <ele>2717.3999023438</ele>
        <time>2021-03-21T12:08:26.000Z</time>
      </trkpt>
      <trkpt lat="44.98446" lon="6.03518">
        <ele>2717.6000976562</ele>
        <time>2021-03-21T12:08:27.000Z</time>
      </trkpt>
      <trkpt lat="44.98445" lon="6.03518">
        <ele>2717.6000976562</ele>
        <time>2021-03-21T12:08:28.000Z</time>
      </trkpt>
      <trkpt lat="44.98445" lon="6.03519">
        <ele>2717.8000488281</ele>
        <time>2021-03-21T12:08:29.000Z</time>
      </trkpt>
      <trkpt lat="44.98444" lon="6.03519">
        <ele>2718</ele>
        <time>2021-03-21T12:08:30.000Z</time>
      </trkpt>
      <trkpt lat="44.98444" lon="6.0352">
        <ele>2718.1999511719</ele>
        <time>2021-03-21T12:08:31.000Z</time>
      </trkpt>
      <trkpt lat="44.98443" lon="6.0352">
        <ele>2718.1999511719</ele>
        <time>2021-03-21T12:08:32.000Z</time>
      </trkpt>
      <trkpt lat="44.98443" lon="6.03521">
        <ele>2718.3999023438</ele>
        <time>2021-03-21T12:08:33.000Z</time>
      </trkpt>
      <trkpt lat="44.98443" lon="6.03522">
        <ele>2718.3999023438</ele>
        <time>2021-03-21T12:08:34.000Z</time>
      </trkpt>
      <trkpt lat="44.98442" lon="6.03523">
        <ele>2718.6000976562</ele>
        <time>2021-03-21T12:08:35.000Z</time>
      </trkpt>
      <trkpt lat="44.98442" lon="6.03523">
        <ele>2718.6000976562</ele>
        <time>2021-03-21T12:08:36.000Z</time>
      </trkpt>
      <trkpt lat="44.98442" lon="6.03524">
        <ele>2718.8000488281</ele>
        <time>2021-03-21T12:08:37.000Z</time>
      </trkpt>
      <trkpt lat="44.98441" lon="6.03524">
        <ele>2718.8000488281</ele>
        <time>2021-03-21T12:08:38.000Z</time>
      </trkpt>
      <trkpt lat="44.98441" lon="6.03525">
        <ele>2719</ele>
        <time>2021-03-21T12:08:39.000Z</time>
      </trkpt>
      <trkpt lat="44.98441" lon="6.03525">
        <ele>2719</ele>
        <time>2021-03-21T12:08:40.000Z</time>
      </trkpt>
      <trkpt lat="44.9844" lon="6.03526">
        <ele>2719.3999023438</ele>
        <time>2021-03-21T12:08:41.000Z</time>
      </trkpt>
      <trkpt lat="44.9844" lon="6.03527">
        <ele>2719.8000488281</ele>
        <time>2021-03-21T12:08:42.000Z</time>
      </trkpt>
      <trkpt lat="44.9844" lon="6.03527">
        <ele>2720.1999511719</ele>
        <time>2021-03-21T12:08:43.000Z</time>
      </trkpt>
      <trkpt lat="44.9844" lon="6.03528">
        <ele>2720.1999511719</ele>
        <time>2021-03-21T12:08:44.000Z</time>
      </trkpt>
      <trkpt lat="44.98439" lon="6.03528">
        <ele>2720.3999023438</ele>
        <time>2021-03-21T12:08:45.000Z</time>
      </trkpt>
      <trkpt lat="44.9844" lon="6.03528">
        <ele>2720.1999511719</ele>
        <time>2021-03-21T12:08:46.000Z</time>
      </trkpt>
      <trkpt lat="44.9844" lon="6.03528">
        <ele>2720.1999511719</ele>
        <time>2021-03-21T12:08:47.000Z</time>
      </trkpt>
      <trkpt lat="44.9844" lon="6.03528">
        <ele>2720.1999511719</ele>
        <time>2021-03-21T12:08:48.000Z</time>
      </trkpt>
      <trkpt lat="44.9844" lon="6.03528">
        <ele>2720.1999511719</ele>
        <time>2021-03-21T12:08:49.000Z</time>
      </trkpt>
      <trkpt lat="44.9844" lon="6.03528">
        <ele>2720.3999023438</ele>
        <time>2021-03-21T12:08:50.000Z</time>
      </trkpt>
      <trkpt lat="44.98439" lon="6.03529">
        <ele>2721</ele>
        <time>2021-03-21T12:08:51.000Z</time>
      </trkpt>
      <trkpt lat="44.98439" lon="6.0353">
        <ele>2721.1999511719</ele>
        <time>2021-03-21T12:08:52.000Z</time>
      </trkpt>
      <trkpt lat="44.98438" lon="6.0353">
        <ele>2721.6000976562</ele>
        <time>2021-03-21T12:08:53.000Z</time>
      </trkpt>
      <trkpt lat="44.98438" lon="6.03531">
        <ele>2721.8000488281</ele>
        <time>2021-03-21T12:08:54.000Z</time>
      </trkpt>
      <trkpt lat="44.98438" lon="6.03531">
        <ele>2722.1999511719</ele>
        <time>2021-03-21T12:08:55.000Z</time>
      </trkpt>
      <trkpt lat="44.98438" lon="6.03532">
        <ele>2722.3999023438</ele>
        <time>2021-03-21T12:08:56.000Z</time>
      </trkpt>
      <trkpt lat="44.98437" lon="6.03533">
        <ele>2722.8000488281</ele>
        <time>2021-03-21T12:08:57.000Z</time>
      </trkpt>
      <trkpt lat="44.98437" lon="6.03533">
        <ele>2723</ele>
        <time>2021-03-21T12:08:58.000Z</time>
      </trkpt>
      <trkpt lat="44.98437" lon="6.03534">
        <ele>2723.6000976562</ele>
        <time>2021-03-21T12:08:59.000Z</time>
      </trkpt>
      <trkpt lat="44.98436" lon="6.03534">
        <ele>2724</ele>
        <time>2021-03-21T12:09:00.000Z</time>
      </trkpt>
      <trkpt lat="44.98436" lon="6.03535">
        <ele>2724.3999023438</ele>
        <time>2021-03-21T12:09:01.000Z</time>
      </trkpt>
      <trkpt lat="44.98436" lon="6.03536">
        <ele>2724.6000976562</ele>
        <time>2021-03-21T12:09:02.000Z</time>
      </trkpt>
      <trkpt lat="44.98435" lon="6.03536">
        <ele>2725</ele>
        <time>2021-03-21T12:09:03.000Z</time>
      </trkpt>
      <trkpt lat="44.98435" lon="6.03536">
        <ele>2725.1999511719</ele>
        <time>2021-03-21T12:09:04.000Z</time>
      </trkpt>
      <trkpt lat="44.98435" lon="6.03536">
        <ele>2725.1999511719</ele>
        <time>2021-03-21T12:09:05.000Z</time>
      </trkpt>
      <trkpt lat="44.98435" lon="6.03535">
        <ele>2725.1999511719</ele>
        <time>2021-03-21T12:09:06.000Z</time>
      </trkpt>
      <trkpt lat="44.98435" lon="6.03535">
        <ele>2725.1999511719</ele>
        <time>2021-03-21T12:09:07.000Z</time>
      </trkpt>
      <trkpt lat="44.98435" lon="6.03535">
        <ele>2725.1999511719</ele>
        <time>2021-03-21T12:09:08.000Z</time>
      </trkpt>
      <trkpt lat="44.98435" lon="6.03535">
        <ele>2725.1999511719</ele>
        <time>2021-03-21T12:09:09.000Z</time>
      </trkpt>
      <trkpt lat="44.98434" lon="6.03534">
        <ele>2725.6000976562</ele>
        <time>2021-03-21T12:09:10.000Z</time>
      </trkpt>
      <trkpt lat="44.98433" lon="6.03533">
        <ele>2726.3999023438</ele>
        <time>2021-03-21T12:09:11.000Z</time>
      </trkpt>
      <trkpt lat="44.98432" lon="6.03532">
        <ele>2726.8000488281</ele>
        <time>2021-03-21T12:09:12.000Z</time>
      </trkpt>
      <trkpt lat="44.98432" lon="6.03532">
        <ele>2727</ele>
        <time>2021-03-21T12:09:13.000Z</time>
      </trkpt>
      <trkpt lat="44.98431" lon="6.03531">
        <ele>2727.1999511719</ele>
        <time>2021-03-21T12:09:14.000Z</time>
      </trkpt>
      <trkpt lat="44.9843" lon="6.0353">
        <ele>2727.3999023438</ele>
        <time>2021-03-21T12:09:15.000Z</time>
      </trkpt>
      <trkpt lat="44.9843" lon="6.03529">
        <ele>2727.8000488281</ele>
        <time>2021-03-21T12:09:16.000Z</time>
      </trkpt>
      <trkpt lat="44.98429" lon="6.03529">
        <ele>2728.1999511719</ele>
        <time>2021-03-21T12:09:17.000Z</time>
      </trkpt>
      <trkpt lat="44.98429" lon="6.03528">
        <ele>2728.1999511719</ele>
        <time>2021-03-21T12:09:18.000Z</time>
      </trkpt>
      <trkpt lat="44.98429" lon="6.03527">
        <ele>2728.1999511719</ele>
        <time>2021-03-21T12:09:19.000Z</time>
      </trkpt>
      <trkpt lat="44.98429" lon="6.03526">
        <ele>2727.8000488281</ele>
        <time>2021-03-21T12:09:20.000Z</time>
      </trkpt>
      <trkpt lat="44.98429" lon="6.03525">
        <ele>2728</ele>
        <time>2021-03-21T12:09:21.000Z</time>
      </trkpt>
      <trkpt lat="44.98428" lon="6.03525">
        <ele>2728</ele>
        <time>2021-03-21T12:09:22.000Z</time>
      </trkpt>
      <trkpt lat="44.98428" lon="6.03524">
        <ele>2728</ele>
        <time>2021-03-21T12:09:23.000Z</time>
      </trkpt>
      <trkpt lat="44.98428" lon="6.03524">
        <ele>2728</ele>
        <time>2021-03-21T12:09:24.000Z</time>
      </trkpt>
      <trkpt lat="44.98428" lon="6.03523">
        <ele>2727.8000488281</ele>
        <time>2021-03-21T12:09:25.000Z</time>
      </trkpt>
      <trkpt lat="44.98428" lon="6.03522">
        <ele>2727.8000488281</ele>
        <time>2021-03-21T12:09:26.000Z</time>
      </trkpt>
      <trkpt lat="44.98428" lon="6.03522">
        <ele>2727.8000488281</ele>
        <time>2021-03-21T12:09:27.000Z</time>
      </trkpt>
      <trkpt lat="44.98428" lon="6.03521">
        <ele>2727.8000488281</ele>
        <time>2021-03-21T12:09:28.000Z</time>
      </trkpt>
      <trkpt lat="44.98427" lon="6.0352">
        <ele>2727.8000488281</ele>
        <time>2021-03-21T12:09:29.000Z</time>
      </trkpt>
      <trkpt lat="44.98427" lon="6.03519">
        <ele>2727.6000976562</ele>
        <time>2021-03-21T12:09:30.000Z</time>
      </trkpt>
      <trkpt lat="44.98427" lon="6.03518">
        <ele>2727.6000976562</ele>
        <time>2021-03-21T12:09:31.000Z</time>
      </trkpt>
      <trkpt lat="44.98427" lon="6.03517">
        <ele>2727.3999023438</ele>
        <time>2021-03-21T12:09:32.000Z</time>
      </trkpt>
      <trkpt lat="44.98427" lon="6.03516">
        <ele>2727.3999023438</ele>
        <time>2021-03-21T12:09:33.000Z</time>
      </trkpt>
      <trkpt lat="44.98427" lon="6.03516">
        <ele>2727.3999023438</ele>
        <time>2021-03-21T12:09:34.000Z</time>
      </trkpt>
      <trkpt lat="44.98426" lon="6.03515">
        <ele>2727.6000976562</ele>
        <time>2021-03-21T12:09:35.000Z</time>
      </trkpt>
      <trkpt lat="44.98426" lon="6.03514">
        <ele>2727.8000488281</ele>
        <time>2021-03-21T12:09:36.000Z</time>
      </trkpt>
      <trkpt lat="44.98426" lon="6.03514">
        <ele>2727.8000488281</ele>
        <time>2021-03-21T12:09:37.000Z</time>
      </trkpt>
      <trkpt lat="44.98425" lon="6.03513">
        <ele>2727.8000488281</ele>
        <time>2021-03-21T12:09:38.000Z</time>
      </trkpt>
      <trkpt lat="44.98425" lon="6.03512">
        <ele>2727.6000976562</ele>
        <time>2021-03-21T12:09:39.000Z</time>
      </trkpt>
      <trkpt lat="44.98425" lon="6.03511">
        <ele>2727.6000976562</ele>
        <time>2021-03-21T12:09:40.000Z</time>
      </trkpt>
      <trkpt lat="44.98424" lon="6.03511">
        <ele>2727.6000976562</ele>
        <time>2021-03-21T12:09:41.000Z</time>
      </trkpt>
      <trkpt lat="44.98424" lon="6.0351">
        <ele>2727.8000488281</ele>
        <time>2021-03-21T12:09:42.000Z</time>
      </trkpt>
      <trkpt lat="44.98424" lon="6.03509">
        <ele>2727.8000488281</ele>
        <time>2021-03-21T12:09:43.000Z</time>
      </trkpt>
      <trkpt lat="44.98423" lon="6.03508">
        <ele>2727.8000488281</ele>
        <time>2021-03-21T12:09:44.000Z</time>
      </trkpt>
      <trkpt lat="44.98423" lon="6.03508">
        <ele>2728</ele>
        <time>2021-03-21T12:09:45.000Z</time>
      </trkpt>
      <trkpt lat="44.98423" lon="6.03507">
        <ele>2727.8000488281</ele>
        <time>2021-03-21T12:09:46.000Z</time>
      </trkpt>
      <trkpt lat="44.98422" lon="6.03506">
        <ele>2727.8000488281</ele>
        <time>2021-03-21T12:09:47.000Z</time>
      </trkpt>
      <trkpt lat="44.98422" lon="6.03505">
        <ele>2727.8000488281</ele>
        <time>2021-03-21T12:09:48.000Z</time>
      </trkpt>
      <trkpt lat="44.98422" lon="6.03504">
        <ele>2727.6000976562</ele>
        <time>2021-03-21T12:09:49.000Z</time>
      </trkpt>
      <trkpt lat="44.98422" lon="6.03503">
        <ele>2727.6000976562</ele>
        <time>2021-03-21T12:09:50.000Z</time>
      </trkpt>
      <trkpt lat="44.98422" lon="6.03503">
        <ele>2727.6000976562</ele>
        <time>2021-03-21T12:09:51.000Z</time>
      </trkpt>
      <trkpt lat="44.98422" lon="6.03502">
        <ele>2727.6000976562</ele>
        <time>2021-03-21T12:09:52.000Z</time>
      </trkpt>
      <trkpt lat="44.98421" lon="6.03501">
        <ele>2727.3999023438</ele>
        <time>2021-03-21T12:09:53.000Z</time>
      </trkpt>
      <trkpt lat="44.98421" lon="6.035">
        <ele>2727.6000976562</ele>
        <time>2021-03-21T12:09:54.000Z</time>
      </trkpt>
      <trkpt lat="44.98421" lon="6.03499">
        <ele>2727.6000976562</ele>
        <time>2021-03-21T12:09:55.000Z</time>
      </trkpt>
      <trkpt lat="44.98421" lon="6.03498">
        <ele>2727.3999023438</ele>
        <time>2021-03-21T12:09:56.000Z</time>
      </trkpt>
      <trkpt lat="44.98421" lon="6.03497">
        <ele>2727.3999023438</ele>
        <time>2021-03-21T12:09:57.000Z</time>
      </trkpt>
      <trkpt lat="44.9842" lon="6.03497">
        <ele>2727.3999023438</ele>
        <time>2021-03-21T12:09:58.000Z</time>
      </trkpt>
      <trkpt lat="44.9842" lon="6.03496">
        <ele>2727.1999511719</ele>
        <time>2021-03-21T12:09:59.000Z</time>
      </trkpt>
      <trkpt lat="44.9842" lon="6.03495">
        <ele>2727</ele>
        <time>2021-03-21T12:10:00.000Z</time>
      </trkpt>
      <trkpt lat="44.9842" lon="6.03494">
        <ele>2726.8000488281</ele>
        <time>2021-03-21T12:10:01.000Z</time>
      </trkpt>
      <trkpt lat="44.9842" lon="6.03494">
        <ele>2726.8000488281</ele>
        <time>2021-03-21T12:10:02.000Z</time>
      </trkpt>
      <trkpt lat="44.9842" lon="6.03493">
        <ele>2726.8000488281</ele>
        <time>2021-03-21T12:10:03.000Z</time>
      </trkpt>
      <trkpt lat="44.9842" lon="6.03492">
        <ele>2726.6000976562</ele>
        <time>2021-03-21T12:10:04.000Z</time>
      </trkpt>
      <trkpt lat="44.9842" lon="6.03491">
        <ele>2726.6000976562</ele>
        <time>2021-03-21T12:10:05.000Z</time>
      </trkpt>
      <trkpt lat="44.9842" lon="6.0349">
        <ele>2726.6000976562</ele>
        <time>2021-03-21T12:10:06.000Z</time>
      </trkpt>
      <trkpt lat="44.9842" lon="6.0349">
        <ele>2726.3999023438</ele>
        <time>2021-03-21T12:10:07.000Z</time>
      </trkpt>
      <trkpt lat="44.9842" lon="6.03488">
        <ele>2726.1999511719</ele>
        <time>2021-03-21T12:10:08.000Z</time>
      </trkpt>
      <trkpt lat="44.9842" lon="6.03488">
        <ele>2726.1999511719</ele>
        <time>2021-03-21T12:10:09.000Z</time>
      </trkpt>
      <trkpt lat="44.98419" lon="6.03487">
        <ele>2726.1999511719</ele>
        <time>2021-03-21T12:10:10.000Z</time>
      </trkpt>
      <trkpt lat="44.98419" lon="6.03487">
        <ele>2726.1999511719</ele>
        <time>2021-03-21T12:10:11.000Z</time>
      </trkpt>
      <trkpt lat="44.98419" lon="6.03486">
        <ele>2726.1999511719</ele>
        <time>2021-03-21T12:10:12.000Z</time>
      </trkpt>
      <trkpt lat="44.98419" lon="6.03485">
        <ele>2726.3999023438</ele>
        <time>2021-03-21T12:10:13.000Z</time>
      </trkpt>
      <trkpt lat="44.98419" lon="6.03484">
        <ele>2726.3999023438</ele>
        <time>2021-03-21T12:10:14.000Z</time>
      </trkpt>
      <trkpt lat="44.98419" lon="6.03483">
        <ele>2726.3999023438</ele>
        <time>2021-03-21T12:10:15.000Z</time>
      </trkpt>
      <trkpt lat="44.98418" lon="6.03482">
        <ele>2726.6000976562</ele>
        <time>2021-03-21T12:10:16.000Z</time>
      </trkpt>
      <trkpt lat="44.98418" lon="6.03482">
        <ele>2726.6000976562</ele>
        <time>2021-03-21T12:10:17.000Z</time>
      </trkpt>
      <trkpt lat="44.98417" lon="6.03481">
        <ele>2726.8000488281</ele>
        <time>2021-03-21T12:10:18.000Z</time>
      </trkpt>
      <trkpt lat="44.98417" lon="6.0348">
        <ele>2727.1999511719</ele>
        <time>2021-03-21T12:10:19.000Z</time>
      </trkpt>
      <trkpt lat="44.98416" lon="6.0348">
        <ele>2727.3999023438</ele>
        <time>2021-03-21T12:10:20.000Z</time>
      </trkpt>
      <trkpt lat="44.98416" lon="6.03479">
        <ele>2727.6000976562</ele>
        <time>2021-03-21T12:10:21.000Z</time>
      </trkpt>
      <trkpt lat="44.98416" lon="6.03478">
        <ele>2727.6000976562</ele>
        <time>2021-03-21T12:10:22.000Z</time>
      </trkpt>
      <trkpt lat="44.98416" lon="6.03477">
        <ele>2727.6000976562</ele>
        <time>2021-03-21T12:10:23.000Z</time>
      </trkpt>
      <trkpt lat="44.98415" lon="6.03476">
        <ele>2727.6000976562</ele>
        <time>2021-03-21T12:10:24.000Z</time>
      </trkpt>
      <trkpt lat="44.98415" lon="6.03475">
        <ele>2727.8000488281</ele>
        <time>2021-03-21T12:10:25.000Z</time>
      </trkpt>
      <trkpt lat="44.98415" lon="6.03474">
        <ele>2728</ele>
        <time>2021-03-21T12:10:26.000Z</time>
      </trkpt>
      <trkpt lat="44.98414" lon="6.03473">
        <ele>2728.3999023438</ele>
        <time>2021-03-21T12:10:27.000Z</time>
      </trkpt>
      <trkpt lat="44.98413" lon="6.03473">
        <ele>2728.6000976562</ele>
        <time>2021-03-21T12:10:28.000Z</time>
      </trkpt>
      <trkpt lat="44.98413" lon="6.03472">
        <ele>2729</ele>
        <time>2021-03-21T12:10:29.000Z</time>
      </trkpt>
      <trkpt lat="44.98412" lon="6.03471">
        <ele>2729</ele>
        <time>2021-03-21T12:10:30.000Z</time>
      </trkpt>
      <trkpt lat="44.98412" lon="6.03471">
        <ele>2729.3999023438</ele>
        <time>2021-03-21T12:10:31.000Z</time>
      </trkpt>
      <trkpt lat="44.98411" lon="6.0347">
        <ele>2729.6000976562</ele>
        <time>2021-03-21T12:10:32.000Z</time>
      </trkpt>
      <trkpt lat="44.98411" lon="6.0347">
        <ele>2729.6000976562</ele>
        <time>2021-03-21T12:10:33.000Z</time>
      </trkpt>
      <trkpt lat="44.98411" lon="6.0347">
        <ele>2729.6000976562</ele>
        <time>2021-03-21T12:10:34.000Z</time>
      </trkpt>
      <trkpt lat="44.98411" lon="6.0347">
        <ele>2729.6000976562</ele>
        <time>2021-03-21T12:10:35.000Z</time>
      </trkpt>
      <trkpt lat="44.98411" lon="6.0347">
        <ele>2729.6000976562</ele>
        <time>2021-03-21T12:10:36.000Z</time>
      </trkpt>
      <trkpt lat="44.98411" lon="6.0347">
        <ele>2729.6000976562</ele>
        <time>2021-03-21T12:10:37.000Z</time>
      </trkpt>
      <trkpt lat="44.98412" lon="6.03469">
        <ele>2729.3999023438</ele>
        <time>2021-03-21T12:10:38.000Z</time>
      </trkpt>
      <trkpt lat="44.98412" lon="6.03469">
        <ele>2729.3999023438</ele>
        <time>2021-03-21T12:10:39.000Z</time>
      </trkpt>
      <trkpt lat="44.98412" lon="6.03469">
        <ele>2729.3999023438</ele>
        <time>2021-03-21T12:10:40.000Z</time>
      </trkpt>
      <trkpt lat="44.98412" lon="6.03469">
        <ele>2729.3999023438</ele>
        <time>2021-03-21T12:10:41.000Z</time>
      </trkpt>
      <trkpt lat="44.98412" lon="6.03469">
        <ele>2729.3999023438</ele>
        <time>2021-03-21T12:10:42.000Z</time>
      </trkpt>
      <trkpt lat="44.98412" lon="6.03469">
        <ele>2729.3999023438</ele>
        <time>2021-03-21T12:10:43.000Z</time>
      </trkpt>
      <trkpt lat="44.98411" lon="6.03469">
        <ele>2729.6000976562</ele>
        <time>2021-03-21T12:10:44.000Z</time>
      </trkpt>
      <trkpt lat="44.98411" lon="6.03468">
        <ele>2729.6000976562</ele>
        <time>2021-03-21T12:10:45.000Z</time>
      </trkpt>
      <trkpt lat="44.98411" lon="6.03467">
        <ele>2729.8000488281</ele>
        <time>2021-03-21T12:10:46.000Z</time>
      </trkpt>
      <trkpt lat="44.98411" lon="6.03467">
        <ele>2729.8000488281</ele>
        <time>2021-03-21T12:10:47.000Z</time>
      </trkpt>
      <trkpt lat="44.9841" lon="6.03466">
        <ele>2730</ele>
        <time>2021-03-21T12:10:48.000Z</time>
      </trkpt>
      <trkpt lat="44.9841" lon="6.03465">
        <ele>2730.1999511719</ele>
        <time>2021-03-21T12:10:49.000Z</time>
      </trkpt>
      <trkpt lat="44.9841" lon="6.03464">
        <ele>2730.1999511719</ele>
        <time>2021-03-21T12:10:50.000Z</time>
      </trkpt>
      <trkpt lat="44.9841" lon="6.03463">
        <ele>2730.1999511719</ele>
        <time>2021-03-21T12:10:51.000Z</time>
      </trkpt>
      <trkpt lat="44.9841" lon="6.03462">
        <ele>2730.1999511719</ele>
        <time>2021-03-21T12:10:52.000Z</time>
      </trkpt>
      <trkpt lat="44.9841" lon="6.03461">
        <ele>2730.1999511719</ele>
        <time>2021-03-21T12:10:53.000Z</time>
      </trkpt>
      <trkpt lat="44.9841" lon="6.0346">
        <ele>2730.1999511719</ele>
        <time>2021-03-21T12:10:54.000Z</time>
      </trkpt>
      <trkpt lat="44.9841" lon="6.03459">
        <ele>2730.3999023438</ele>
        <time>2021-03-21T12:10:55.000Z</time>
      </trkpt>
      <trkpt lat="44.9841" lon="6.03459">
        <ele>2730.3999023438</ele>
        <time>2021-03-21T12:10:56.000Z</time>
      </trkpt>
      <trkpt lat="44.9841" lon="6.03458">
        <ele>2730.3999023438</ele>
        <time>2021-03-21T12:10:57.000Z</time>
      </trkpt>
      <trkpt lat="44.9841" lon="6.03457">
        <ele>2730.1999511719</ele>
        <time>2021-03-21T12:10:58.000Z</time>
      </trkpt>
      <trkpt lat="44.9841" lon="6.03456">
        <ele>2730</ele>
        <time>2021-03-21T12:10:59.000Z</time>
      </trkpt>
      <trkpt lat="44.9841" lon="6.03455">
        <ele>2730</ele>
        <time>2021-03-21T12:11:00.000Z</time>
      </trkpt>
      <trkpt lat="44.9841" lon="6.03454">
        <ele>2729.8000488281</ele>
        <time>2021-03-21T12:11:01.000Z</time>
      </trkpt>
      <trkpt lat="44.9841" lon="6.03454">
        <ele>2729.8000488281</ele>
        <time>2021-03-21T12:11:02.000Z</time>
      </trkpt>
      <trkpt lat="44.9841" lon="6.03452">
        <ele>2729.8000488281</ele>
        <time>2021-03-21T12:11:03.000Z</time>
      </trkpt>
      <trkpt lat="44.9841" lon="6.03452">
        <ele>2729.8000488281</ele>
        <time>2021-03-21T12:11:04.000Z</time>
      </trkpt>
      <trkpt lat="44.9841" lon="6.03451">
        <ele>2729.6000976562</ele>
        <time>2021-03-21T12:11:05.000Z</time>
      </trkpt>
      <trkpt lat="44.9841" lon="6.0345">
        <ele>2729.6000976562</ele>
        <time>2021-03-21T12:11:06.000Z</time>
      </trkpt>
      <trkpt lat="44.9841" lon="6.03449">
        <ele>2729.6000976562</ele>
        <time>2021-03-21T12:11:07.000Z</time>
      </trkpt>
      <trkpt lat="44.9841" lon="6.03448">
        <ele>2729.3999023438</ele>
        <time>2021-03-21T12:11:08.000Z</time>
      </trkpt>
      <trkpt lat="44.9841" lon="6.03447">
        <ele>2729.3999023438</ele>
        <time>2021-03-21T12:11:09.000Z</time>
      </trkpt>
      <trkpt lat="44.9841" lon="6.03446">
        <ele>2729.1999511719</ele>
        <time>2021-03-21T12:11:10.000Z</time>
      </trkpt>
      <trkpt lat="44.98409" lon="6.03446">
        <ele>2729.1999511719</ele>
        <time>2021-03-21T12:11:11.000Z</time>
      </trkpt>
      <trkpt lat="44.98409" lon="6.03445">
        <ele>2729.1999511719</ele>
        <time>2021-03-21T12:11:12.000Z</time>
      </trkpt>
      <trkpt lat="44.98409" lon="6.03444">
        <ele>2729.1999511719</ele>
        <time>2021-03-21T12:11:13.000Z</time>
      </trkpt>
      <trkpt lat="44.98409" lon="6.03443">
        <ele>2729</ele>
        <time>2021-03-21T12:11:14.000Z</time>
      </trkpt>
      <trkpt lat="44.98409" lon="6.03442">
        <ele>2729</ele>
        <time>2021-03-21T12:11:15.000Z</time>
      </trkpt>
      <trkpt lat="44.98409" lon="6.03441">
        <ele>2728.8000488281</ele>
        <time>2021-03-21T12:11:16.000Z</time>
      </trkpt>
      <trkpt lat="44.98409" lon="6.0344">
        <ele>2728.8000488281</ele>
        <time>2021-03-21T12:11:17.000Z</time>
      </trkpt>
      <trkpt lat="44.98409" lon="6.03439">
        <ele>2728.8000488281</ele>
        <time>2021-03-21T12:11:18.000Z</time>
      </trkpt>
      <trkpt lat="44.98408" lon="6.03438">
        <ele>2729</ele>
        <time>2021-03-21T12:11:19.000Z</time>
      </trkpt>
      <trkpt lat="44.98408" lon="6.03438">
        <ele>2729</ele>
        <time>2021-03-21T12:11:20.000Z</time>
      </trkpt>
      <trkpt lat="44.98407" lon="6.03437">
        <ele>2729.1999511719</ele>
        <time>2021-03-21T12:11:21.000Z</time>
      </trkpt>
      <trkpt lat="44.98407" lon="6.03437">
        <ele>2729.3999023438</ele>
        <time>2021-03-21T12:11:22.000Z</time>
      </trkpt>
      <trkpt lat="44.98407" lon="6.03436">
        <ele>2729.6000976562</ele>
        <time>2021-03-21T12:11:23.000Z</time>
      </trkpt>
      <trkpt lat="44.98406" lon="6.03436">
        <ele>2729.8000488281</ele>
        <time>2021-03-21T12:11:24.000Z</time>
      </trkpt>
      <trkpt lat="44.98406" lon="6.03436">
        <ele>2729.8000488281</ele>
        <time>2021-03-21T12:11:25.000Z</time>
      </trkpt>
      <trkpt lat="44.98405" lon="6.03436">
        <ele>2730.1999511719</ele>
        <time>2021-03-21T12:11:26.000Z</time>
      </trkpt>
      <trkpt lat="44.98404" lon="6.03437">
        <ele>2730.6000976562</ele>
        <time>2021-03-21T12:11:27.000Z</time>
      </trkpt>
      <trkpt lat="44.98404" lon="6.03437">
        <ele>2731</ele>
        <time>2021-03-21T12:11:28.000Z</time>
      </trkpt>
      <trkpt lat="44.98403" lon="6.03438">
        <ele>2731.3999023438</ele>
        <time>2021-03-21T12:11:29.000Z</time>
      </trkpt>
      <trkpt lat="44.98403" lon="6.03439">
        <ele>2731.6000976562</ele>
        <time>2021-03-21T12:11:30.000Z</time>
      </trkpt>
      <trkpt lat="44.98402" lon="6.0344">
        <ele>2732</ele>
        <time>2021-03-21T12:11:31.000Z</time>
      </trkpt>
      <trkpt lat="44.98402" lon="6.03441">
        <ele>2732.1999511719</ele>
        <time>2021-03-21T12:11:32.000Z</time>
      </trkpt>
      <trkpt lat="44.98401" lon="6.03441">
        <ele>2732.6000976562</ele>
        <time>2021-03-21T12:11:33.000Z</time>
      </trkpt>
      <trkpt lat="44.98401" lon="6.03442">
        <ele>2732.8000488281</ele>
        <time>2021-03-21T12:11:34.000Z</time>
      </trkpt>
      <trkpt lat="44.98401" lon="6.03443">
        <ele>2733</ele>
        <time>2021-03-21T12:11:35.000Z</time>
      </trkpt>
      <trkpt lat="44.984" lon="6.03443">
        <ele>2733.1999511719</ele>
        <time>2021-03-21T12:11:36.000Z</time>
      </trkpt>
      <trkpt lat="44.984" lon="6.03444">
        <ele>2733.3999023438</ele>
        <time>2021-03-21T12:11:37.000Z</time>
      </trkpt>
      <trkpt lat="44.98399" lon="6.03445">
        <ele>2733.8000488281</ele>
        <time>2021-03-21T12:11:38.000Z</time>
      </trkpt>
      <trkpt lat="44.98398" lon="6.03445">
        <ele>2734.1999511719</ele>
        <time>2021-03-21T12:11:39.000Z</time>
      </trkpt>
      <trkpt lat="44.98398" lon="6.03445">
        <ele>2734.6000976562</ele>
        <time>2021-03-21T12:11:40.000Z</time>
      </trkpt>
      <trkpt lat="44.98397" lon="6.03445">
        <ele>2734.8000488281</ele>
        <time>2021-03-21T12:11:41.000Z</time>
      </trkpt>
      <trkpt lat="44.98397" lon="6.03444">
        <ele>2734.8000488281</ele>
        <time>2021-03-21T12:11:42.000Z</time>
      </trkpt>
      <trkpt lat="44.98396" lon="6.03444">
        <ele>2735</ele>
        <time>2021-03-21T12:11:43.000Z</time>
      </trkpt>
      <trkpt lat="44.98396" lon="6.03443">
        <ele>2735</ele>
        <time>2021-03-21T12:11:44.000Z</time>
      </trkpt>
      <trkpt lat="44.98396" lon="6.03442">
        <ele>2735.1999511719</ele>
        <time>2021-03-21T12:11:45.000Z</time>
      </trkpt>
      <trkpt lat="44.98395" lon="6.03442">
        <ele>2735.1999511719</ele>
        <time>2021-03-21T12:11:46.000Z</time>
      </trkpt>
      <trkpt lat="44.98395" lon="6.03441">
        <ele>2735.3999023438</ele>
        <time>2021-03-21T12:11:47.000Z</time>
      </trkpt>
      <trkpt lat="44.98394" lon="6.0344">
        <ele>2735.3999023438</ele>
        <time>2021-03-21T12:11:48.000Z</time>
      </trkpt>
      <trkpt lat="44.98394" lon="6.0344">
        <ele>2735.6000976562</ele>
        <time>2021-03-21T12:11:49.000Z</time>
      </trkpt>
      <trkpt lat="44.98393" lon="6.03439">
        <ele>2735.6000976562</ele>
        <time>2021-03-21T12:11:50.000Z</time>
      </trkpt>
      <trkpt lat="44.98393" lon="6.03438">
        <ele>2735.8000488281</ele>
        <time>2021-03-21T12:11:51.000Z</time>
      </trkpt>
      <trkpt lat="44.98392" lon="6.03437">
        <ele>2736</ele>
        <time>2021-03-21T12:11:52.000Z</time>
      </trkpt>
      <trkpt lat="44.98392" lon="6.03436">
        <ele>2736</ele>
        <time>2021-03-21T12:11:53.000Z</time>
      </trkpt>
      <trkpt lat="44.98392" lon="6.03436">
        <ele>2736</ele>
        <time>2021-03-21T12:11:54.000Z</time>
      </trkpt>
      <trkpt lat="44.98391" lon="6.03435">
        <ele>2736.1999511719</ele>
        <time>2021-03-21T12:11:55.000Z</time>
      </trkpt>
      <trkpt lat="44.98391" lon="6.03434">
        <ele>2736.1999511719</ele>
        <time>2021-03-21T12:11:56.000Z</time>
      </trkpt>
      <trkpt lat="44.98391" lon="6.03433">
        <ele>2736</ele>
        <time>2021-03-21T12:11:57.000Z</time>
      </trkpt>
      <trkpt lat="44.98391" lon="6.03432">
        <ele>2736</ele>
        <time>2021-03-21T12:11:58.000Z</time>
      </trkpt>
      <trkpt lat="44.98391" lon="6.03431">
        <ele>2736</ele>
        <time>2021-03-21T12:11:59.000Z</time>
      </trkpt>
      <trkpt lat="44.98391" lon="6.03431">
        <ele>2736.1999511719</ele>
        <time>2021-03-21T12:12:00.000Z</time>
      </trkpt>
      <trkpt lat="44.9839" lon="6.0343">
        <ele>2736.3999023438</ele>
        <time>2021-03-21T12:12:01.000Z</time>
      </trkpt>
      <trkpt lat="44.9839" lon="6.03429">
        <ele>2736.6000976562</ele>
        <time>2021-03-21T12:12:02.000Z</time>
      </trkpt>
      <trkpt lat="44.98389" lon="6.03429">
        <ele>2737</ele>
        <time>2021-03-21T12:12:03.000Z</time>
      </trkpt>
      <trkpt lat="44.98389" lon="6.03428">
        <ele>2737.1999511719</ele>
        <time>2021-03-21T12:12:04.000Z</time>
      </trkpt>
      <trkpt lat="44.98388" lon="6.03428">
        <ele>2737.3999023438</ele>
        <time>2021-03-21T12:12:05.000Z</time>
      </trkpt>
      <trkpt lat="44.98388" lon="6.03427">
        <ele>2737.6000976562</ele>
        <time>2021-03-21T12:12:06.000Z</time>
      </trkpt>
      <trkpt lat="44.98388" lon="6.03426">
        <ele>2737.8000488281</ele>
        <time>2021-03-21T12:12:07.000Z</time>
      </trkpt>
      <trkpt lat="44.98388" lon="6.03425">
        <ele>2738</ele>
        <time>2021-03-21T12:12:08.000Z</time>
      </trkpt>
      <trkpt lat="44.98387" lon="6.03424">
        <ele>2738.3999023438</ele>
        <time>2021-03-21T12:12:09.000Z</time>
      </trkpt>
      <trkpt lat="44.98387" lon="6.03424">
        <ele>2738.3999023438</ele>
        <time>2021-03-21T12:12:10.000Z</time>
      </trkpt>
      <trkpt lat="44.98387" lon="6.03423">
        <ele>2738.8000488281</ele>
        <time>2021-03-21T12:12:11.000Z</time>
      </trkpt>
      <trkpt lat="44.98386" lon="6.03422">
        <ele>2739</ele>
        <time>2021-03-21T12:12:12.000Z</time>
      </trkpt>
      <trkpt lat="44.98386" lon="6.03422">
        <ele>2739.1999511719</ele>
        <time>2021-03-21T12:12:13.000Z</time>
      </trkpt>
      <trkpt lat="44.98386" lon="6.03421">
        <ele>2739.3999023438</ele>
        <time>2021-03-21T12:12:14.000Z</time>
      </trkpt>
      <trkpt lat="44.98385" lon="6.0342">
        <ele>2739.6000976562</ele>
        <time>2021-03-21T12:12:15.000Z</time>
      </trkpt>
      <trkpt lat="44.98385" lon="6.03419">
        <ele>2739.8000488281</ele>
        <time>2021-03-21T12:12:16.000Z</time>
      </trkpt>
      <trkpt lat="44.98385" lon="6.03419">
        <ele>2740</ele>
        <time>2021-03-21T12:12:17.000Z</time>
      </trkpt>
      <trkpt lat="44.98384" lon="6.03418">
        <ele>2740.1999511719</ele>
        <time>2021-03-21T12:12:18.000Z</time>
      </trkpt>
      <trkpt lat="44.98384" lon="6.03418">
        <ele>2740.1999511719</ele>
        <time>2021-03-21T12:12:19.000Z</time>
      </trkpt>
      <trkpt lat="44.98384" lon="6.03417">
        <ele>2740.6000976562</ele>
        <time>2021-03-21T12:12:20.000Z</time>
      </trkpt>
      <trkpt lat="44.98384" lon="6.03417">
        <ele>2740.6000976562</ele>
        <time>2021-03-21T12:12:21.000Z</time>
      </trkpt>
      <trkpt lat="44.98383" lon="6.03416">
        <ele>2741</ele>
        <time>2021-03-21T12:12:22.000Z</time>
      </trkpt>
      <trkpt lat="44.98383" lon="6.03415">
        <ele>2741.1999511719</ele>
        <time>2021-03-21T12:12:23.000Z</time>
      </trkpt>
      <trkpt lat="44.98382" lon="6.03415">
        <ele>2741.6000976562</ele>
        <time>2021-03-21T12:12:24.000Z</time>
      </trkpt>
      <trkpt lat="44.98382" lon="6.03414">
        <ele>2741.8000488281</ele>
        <time>2021-03-21T12:12:25.000Z</time>
      </trkpt>
      <trkpt lat="44.98382" lon="6.03413">
        <ele>2742</ele>
        <time>2021-03-21T12:12:26.000Z</time>
      </trkpt>
      <trkpt lat="44.98381" lon="6.03413">
        <ele>2742.1999511719</ele>
        <time>2021-03-21T12:12:27.000Z</time>
      </trkpt>
      <trkpt lat="44.98381" lon="6.03412">
        <ele>2742.3999023438</ele>
        <time>2021-03-21T12:12:28.000Z</time>
      </trkpt>
      <trkpt lat="44.98381" lon="6.03411">
        <ele>2742.6000976562</ele>
        <time>2021-03-21T12:12:29.000Z</time>
      </trkpt>
      <trkpt lat="44.9838" lon="6.03411">
        <ele>2742.8000488281</ele>
        <time>2021-03-21T12:12:30.000Z</time>
      </trkpt>
      <trkpt lat="44.9838" lon="6.0341">
        <ele>2743</ele>
        <time>2021-03-21T12:12:31.000Z</time>
      </trkpt>
      <trkpt lat="44.9838" lon="6.03409">
        <ele>2743.1999511719</ele>
        <time>2021-03-21T12:12:32.000Z</time>
      </trkpt>
      <trkpt lat="44.9838" lon="6.03409">
        <ele>2743.1999511719</ele>
        <time>2021-03-21T12:12:33.000Z</time>
      </trkpt>
      <trkpt lat="44.9838" lon="6.03408">
        <ele>2743.3999023438</ele>
        <time>2021-03-21T12:12:34.000Z</time>
      </trkpt>
      <trkpt lat="44.98379" lon="6.03407">
        <ele>2743.3999023438</ele>
        <time>2021-03-21T12:12:35.000Z</time>
      </trkpt>
      <trkpt lat="44.9838" lon="6.03406">
        <ele>2743.3999023438</ele>
        <time>2021-03-21T12:12:36.000Z</time>
      </trkpt>
      <trkpt lat="44.98379" lon="6.03405">
        <ele>2743.6000976562</ele>
        <time>2021-03-21T12:12:37.000Z</time>
      </trkpt>
      <trkpt lat="44.98379" lon="6.03405">
        <ele>2743.6000976562</ele>
        <time>2021-03-21T12:12:38.000Z</time>
      </trkpt>
      <trkpt lat="44.98379" lon="6.03404">
        <ele>2743.8000488281</ele>
        <time>2021-03-21T12:12:39.000Z</time>
      </trkpt>
      <trkpt lat="44.98379" lon="6.03403">
        <ele>2744</ele>
        <time>2021-03-21T12:12:40.000Z</time>
      </trkpt>
      <trkpt lat="44.98378" lon="6.03402">
        <ele>2744.3999023438</ele>
        <time>2021-03-21T12:12:41.000Z</time>
      </trkpt>
      <trkpt lat="44.98378" lon="6.03402">
        <ele>2744.6000976562</ele>
        <time>2021-03-21T12:12:42.000Z</time>
      </trkpt>
      <trkpt lat="44.98378" lon="6.03401">
        <ele>2744.8000488281</ele>
        <time>2021-03-21T12:12:43.000Z</time>
      </trkpt>
      <trkpt lat="44.98377" lon="6.03401">
        <ele>2745.3999023438</ele>
        <time>2021-03-21T12:12:44.000Z</time>
      </trkpt>
      <trkpt lat="44.98377" lon="6.034">
        <ele>2745.6000976562</ele>
        <time>2021-03-21T12:12:45.000Z</time>
      </trkpt>
      <trkpt lat="44.98376" lon="6.03399">
        <ele>2746</ele>
        <time>2021-03-21T12:12:46.000Z</time>
      </trkpt>
      <trkpt lat="44.98377" lon="6.03398">
        <ele>2746</ele>
        <time>2021-03-21T12:12:47.000Z</time>
      </trkpt>
      <trkpt lat="44.98376" lon="6.03398">
        <ele>2746.1999511719</ele>
        <time>2021-03-21T12:12:48.000Z</time>
      </trkpt>
      <trkpt lat="44.98376" lon="6.03398">
        <ele>2746.6000976562</ele>
        <time>2021-03-21T12:12:49.000Z</time>
      </trkpt>
      <trkpt lat="44.98376" lon="6.03397">
        <ele>2746.6000976562</ele>
        <time>2021-03-21T12:12:50.000Z</time>
      </trkpt>
      <trkpt lat="44.98375" lon="6.03397">
        <ele>2746.8000488281</ele>
        <time>2021-03-21T12:12:51.000Z</time>
      </trkpt>
      <trkpt lat="44.98375" lon="6.03397">
        <ele>2747</ele>
        <time>2021-03-21T12:12:52.000Z</time>
      </trkpt>
      <trkpt lat="44.98375" lon="6.03397">
        <ele>2747.1999511719</ele>
        <time>2021-03-21T12:12:53.000Z</time>
      </trkpt>
      <trkpt lat="44.98375" lon="6.03398">
        <ele>2747</ele>
        <time>2021-03-21T12:12:54.000Z</time>
      </trkpt>
      <trkpt lat="44.98375" lon="6.03398">
        <ele>2747</ele>
        <time>2021-03-21T12:12:55.000Z</time>
      </trkpt>
      <trkpt lat="44.98374" lon="6.03398">
        <ele>2747.1999511719</ele>
        <time>2021-03-21T12:12:56.000Z</time>
      </trkpt>
      <trkpt lat="44.98374" lon="6.03398">
        <ele>2747.3999023438</ele>
        <time>2021-03-21T12:12:57.000Z</time>
      </trkpt>
      <trkpt lat="44.98374" lon="6.03398">
        <ele>2747.3999023438</ele>
        <time>2021-03-21T12:12:58.000Z</time>
      </trkpt>
      <trkpt lat="44.98374" lon="6.03398">
        <ele>2747.3999023438</ele>
        <time>2021-03-21T12:12:59.000Z</time>
      </trkpt>
      <trkpt lat="44.98374" lon="6.03399">
        <ele>2747.6000976562</ele>
        <time>2021-03-21T12:13:00.000Z</time>
      </trkpt>
      <trkpt lat="44.98374" lon="6.03399">
        <ele>2747.6000976562</ele>
        <time>2021-03-21T12:13:01.000Z</time>
      </trkpt>
      <trkpt lat="44.98374" lon="6.03399">
        <ele>2747.6000976562</ele>
        <time>2021-03-21T12:13:02.000Z</time>
      </trkpt>
      <trkpt lat="44.98374" lon="6.03399">
        <ele>2747.6000976562</ele>
        <time>2021-03-21T12:13:03.000Z</time>
      </trkpt>
      <trkpt lat="44.98373" lon="6.03399">
        <ele>2747.8000488281</ele>
        <time>2021-03-21T12:13:04.000Z</time>
      </trkpt>
      <trkpt lat="44.98373" lon="6.03399">
        <ele>2747.8000488281</ele>
        <time>2021-03-21T12:13:05.000Z</time>
      </trkpt>
      <trkpt lat="44.98373" lon="6.03399">
        <ele>2747.8000488281</ele>
        <time>2021-03-21T12:13:06.000Z</time>
      </trkpt>
      <trkpt lat="44.98373" lon="6.03399">
        <ele>2748</ele>
        <time>2021-03-21T12:13:07.000Z</time>
      </trkpt>
      <trkpt lat="44.98373" lon="6.03399">
        <ele>2748</ele>
        <time>2021-03-21T12:13:08.000Z</time>
      </trkpt>
      <trkpt lat="44.98373" lon="6.03399">
        <ele>2748</ele>
        <time>2021-03-21T12:13:09.000Z</time>
      </trkpt>
      <trkpt lat="44.98373" lon="6.03399">
        <ele>2748</ele>
        <time>2021-03-21T12:13:10.000Z</time>
      </trkpt>
      <trkpt lat="44.98373" lon="6.03399">
        <ele>2747.8000488281</ele>
        <time>2021-03-21T12:13:11.000Z</time>
      </trkpt>
      <trkpt lat="44.98374" lon="6.03399">
        <ele>2747.8000488281</ele>
        <time>2021-03-21T12:13:12.000Z</time>
      </trkpt>
      <trkpt lat="44.98373" lon="6.03399">
        <ele>2747.8000488281</ele>
        <time>2021-03-21T12:13:13.000Z</time>
      </trkpt>
      <trkpt lat="44.98374" lon="6.03399">
        <ele>2747.6000976562</ele>
        <time>2021-03-21T12:13:14.000Z</time>
      </trkpt>
      <trkpt lat="44.98374" lon="6.03399">
        <ele>2747.6000976562</ele>
        <time>2021-03-21T12:13:15.000Z</time>
      </trkpt>
      <trkpt lat="44.98374" lon="6.03399">
        <ele>2747.3999023438</ele>
        <time>2021-03-21T12:13:16.000Z</time>
      </trkpt>
      <trkpt lat="44.98374" lon="6.03399">
        <ele>2747.3999023438</ele>
        <time>2021-03-21T12:13:17.000Z</time>
      </trkpt>
      <trkpt lat="44.98374" lon="6.03399">
        <ele>2747.3999023438</ele>
        <time>2021-03-21T12:13:18.000Z</time>
      </trkpt>
      <trkpt lat="44.98374" lon="6.03399">
        <ele>2747.3999023438</ele>
        <time>2021-03-21T12:13:19.000Z</time>
      </trkpt>
      <trkpt lat="44.98373" lon="6.03399">
        <ele>2747.6000976562</ele>
        <time>2021-03-21T12:13:20.000Z</time>
      </trkpt>
      <trkpt lat="44.98373" lon="6.03399">
        <ele>2747.8000488281</ele>
        <time>2021-03-21T12:13:21.000Z</time>
      </trkpt>
      <trkpt lat="44.98373" lon="6.03399">
        <ele>2747.8000488281</ele>
        <time>2021-03-21T12:13:22.000Z</time>
      </trkpt>
      <trkpt lat="44.98373" lon="6.03399">
        <ele>2747.8000488281</ele>
        <time>2021-03-21T12:13:23.000Z</time>
      </trkpt>
      <trkpt lat="44.98373" lon="6.03399">
        <ele>2747.8000488281</ele>
        <time>2021-03-21T12:13:24.000Z</time>
      </trkpt>
      <trkpt lat="44.98373" lon="6.03399">
        <ele>2747.8000488281</ele>
        <time>2021-03-21T12:13:25.000Z</time>
      </trkpt>
      <trkpt lat="44.98373" lon="6.03399">
        <ele>2747.8000488281</ele>
        <time>2021-03-21T12:13:26.000Z</time>
      </trkpt>
      <trkpt lat="44.98373" lon="6.03399">
        <ele>2747.6000976562</ele>
        <time>2021-03-21T12:13:27.000Z</time>
      </trkpt>
      <trkpt lat="44.98374" lon="6.03399">
        <ele>2747.6000976562</ele>
        <time>2021-03-21T12:13:28.000Z</time>
      </trkpt>
      <trkpt lat="44.98374" lon="6.03399">
        <ele>2747.3999023438</ele>
        <time>2021-03-21T12:13:29.000Z</time>
      </trkpt>
      <trkpt lat="44.98374" lon="6.03399">
        <ele>2747.6000976562</ele>
        <time>2021-03-21T12:13:30.000Z</time>
      </trkpt>
      <trkpt lat="44.98374" lon="6.03399">
        <ele>2747.3999023438</ele>
        <time>2021-03-21T12:13:31.000Z</time>
      </trkpt>
      <trkpt lat="44.98374" lon="6.03399">
        <ele>2747.6000976562</ele>
        <time>2021-03-21T12:13:32.000Z</time>
      </trkpt>
      <trkpt lat="44.98374" lon="6.03398">
        <ele>2747.6000976562</ele>
        <time>2021-03-21T12:13:33.000Z</time>
      </trkpt>
      <trkpt lat="44.98374" lon="6.03398">
        <ele>2747.6000976562</ele>
        <time>2021-03-21T12:13:34.000Z</time>
      </trkpt>
      <trkpt lat="44.98374" lon="6.03398">
        <ele>2747.8000488281</ele>
        <time>2021-03-21T12:13:35.000Z</time>
      </trkpt>
      <trkpt lat="44.98374" lon="6.03398">
        <ele>2748</ele>
        <time>2021-03-21T12:13:36.000Z</time>
      </trkpt>
      <trkpt lat="44.98373" lon="6.03397">
        <ele>2748</ele>
        <time>2021-03-21T12:13:37.000Z</time>
      </trkpt>
      <trkpt lat="44.98373" lon="6.03397">
        <ele>2748.1999511719</ele>
        <time>2021-03-21T12:13:38.000Z</time>
      </trkpt>
      <trkpt lat="44.98373" lon="6.03397">
        <ele>2748.1999511719</ele>
        <time>2021-03-21T12:13:39.000Z</time>
      </trkpt>
      <trkpt lat="44.98373" lon="6.03397">
        <ele>2748.1999511719</ele>
        <time>2021-03-21T12:13:40.000Z</time>
      </trkpt>
      <trkpt lat="44.98373" lon="6.03397">
        <ele>2748.1999511719</ele>
        <time>2021-03-21T12:13:41.000Z</time>
      </trkpt>
      <trkpt lat="44.98373" lon="6.03397">
        <ele>2748.1999511719</ele>
        <time>2021-03-21T12:13:42.000Z</time>
      </trkpt>
      <trkpt lat="44.98373" lon="6.03397">
        <ele>2748.1999511719</ele>
        <time>2021-03-21T12:13:43.000Z</time>
      </trkpt>
      <trkpt lat="44.98373" lon="6.03396">
        <ele>2748.1999511719</ele>
        <time>2021-03-21T12:13:44.000Z</time>
      </trkpt>
      <trkpt lat="44.98373" lon="6.03396">
        <ele>2748.3999023438</ele>
        <time>2021-03-21T12:13:45.000Z</time>
      </trkpt>
      <trkpt lat="44.98373" lon="6.03396">
        <ele>2748.3999023438</ele>
        <time>2021-03-21T12:13:46.000Z</time>
      </trkpt>
      <trkpt lat="44.98373" lon="6.03397">
        <ele>2748.3999023438</ele>
        <time>2021-03-21T12:13:47.000Z</time>
      </trkpt>
      <trkpt lat="44.98373" lon="6.03397">
        <ele>2748.3999023438</ele>
        <time>2021-03-21T12:13:48.000Z</time>
      </trkpt>
      <trkpt lat="44.98373" lon="6.03398">
        <ele>2748.3999023438</ele>
        <time>2021-03-21T12:13:49.000Z</time>
      </trkpt>
      <trkpt lat="44.98373" lon="6.03399">
        <ele>2748.3999023438</ele>
        <time>2021-03-21T12:13:50.000Z</time>
      </trkpt>
      <trkpt lat="44.98373" lon="6.034">
        <ele>2748.1999511719</ele>
        <time>2021-03-21T12:13:51.000Z</time>
      </trkpt>
      <trkpt lat="44.98372" lon="6.03401">
        <ele>2748.1999511719</ele>
        <time>2021-03-21T12:13:52.000Z</time>
      </trkpt>
      <trkpt lat="44.98372" lon="6.03401">
        <ele>2748.1999511719</ele>
        <time>2021-03-21T12:13:53.000Z</time>
      </trkpt>
      <trkpt lat="44.98372" lon="6.03402">
        <ele>2748.1999511719</ele>
        <time>2021-03-21T12:13:54.000Z</time>
      </trkpt>
      <trkpt lat="44.98372" lon="6.03403">
        <ele>2748</ele>
        <time>2021-03-21T12:13:55.000Z</time>
      </trkpt>
      <trkpt lat="44.98371" lon="6.03404">
        <ele>2748</ele>
        <time>2021-03-21T12:13:56.000Z</time>
      </trkpt>
      <trkpt lat="44.98371" lon="6.03406">
        <ele>2748</ele>
        <time>2021-03-21T12:13:57.000Z</time>
      </trkpt>
      <trkpt lat="44.98371" lon="6.03407">
        <ele>2747.8000488281</ele>
        <time>2021-03-21T12:13:58.000Z</time>
      </trkpt>
      <trkpt lat="44.98371" lon="6.03408">
        <ele>2747.8000488281</ele>
        <time>2021-03-21T12:13:59.000Z</time>
      </trkpt>
      <trkpt lat="44.98371" lon="6.0341">
        <ele>2747.6000976562</ele>
        <time>2021-03-21T12:14:00.000Z</time>
      </trkpt>
      <trkpt lat="44.98371" lon="6.0341">
        <ele>2747.6000976562</ele>
        <time>2021-03-21T12:14:01.000Z</time>
      </trkpt>
      <trkpt lat="44.9837" lon="6.03412">
        <ele>2747.6000976562</ele>
        <time>2021-03-21T12:14:02.000Z</time>
      </trkpt>
      <trkpt lat="44.9837" lon="6.03413">
        <ele>2747.6000976562</ele>
        <time>2021-03-21T12:14:03.000Z</time>
      </trkpt>
      <trkpt lat="44.9837" lon="6.03414">
        <ele>2747.8000488281</ele>
        <time>2021-03-21T12:14:04.000Z</time>
      </trkpt>
      <trkpt lat="44.9837" lon="6.03415">
        <ele>2747.8000488281</ele>
        <time>2021-03-21T12:14:05.000Z</time>
      </trkpt>
      <trkpt lat="44.98369" lon="6.03417">
        <ele>2747.8000488281</ele>
        <time>2021-03-21T12:14:06.000Z</time>
      </trkpt>
      <trkpt lat="44.98369" lon="6.03417">
        <ele>2747.8000488281</ele>
        <time>2021-03-21T12:14:07.000Z</time>
      </trkpt>
      <trkpt lat="44.98369" lon="6.03419">
        <ele>2747.6000976562</ele>
        <time>2021-03-21T12:14:08.000Z</time>
      </trkpt>
      <trkpt lat="44.98369" lon="6.0342">
        <ele>2747.6000976562</ele>
        <time>2021-03-21T12:14:09.000Z</time>
      </trkpt>
      <trkpt lat="44.98369" lon="6.03421">
        <ele>2747.6000976562</ele>
        <time>2021-03-21T12:14:10.000Z</time>
      </trkpt>
      <trkpt lat="44.98369" lon="6.03422">
        <ele>2747.6000976562</ele>
        <time>2021-03-21T12:14:11.000Z</time>
      </trkpt>
      <trkpt lat="44.98369" lon="6.03423">
        <ele>2747.6000976562</ele>
        <time>2021-03-21T12:14:12.000Z</time>
      </trkpt>
      <trkpt lat="44.98369" lon="6.03424">
        <ele>2747.1999511719</ele>
        <time>2021-03-21T12:14:13.000Z</time>
      </trkpt>
      <trkpt lat="44.98369" lon="6.03426">
        <ele>2747</ele>
        <time>2021-03-21T12:14:14.000Z</time>
      </trkpt>
      <trkpt lat="44.98369" lon="6.03427">
        <ele>2747</ele>
        <time>2021-03-21T12:14:15.000Z</time>
      </trkpt>
      <trkpt lat="44.98369" lon="6.03428">
        <ele>2747.3999023438</ele>
        <time>2021-03-21T12:14:16.000Z</time>
      </trkpt>
      <trkpt lat="44.98369" lon="6.03429">
        <ele>2747.6000976562</ele>
        <time>2021-03-21T12:14:17.000Z</time>
      </trkpt>
      <trkpt lat="44.98368" lon="6.0343">
        <ele>2748.1999511719</ele>
        <time>2021-03-21T12:14:18.000Z</time>
      </trkpt>
      <trkpt lat="44.98367" lon="6.03431">
        <ele>2749</ele>
        <time>2021-03-21T12:14:19.000Z</time>
      </trkpt>
      <trkpt lat="44.98367" lon="6.03432">
        <ele>2749.1999511719</ele>
        <time>2021-03-21T12:14:20.000Z</time>
      </trkpt>
      <trkpt lat="44.98367" lon="6.03433">
        <ele>2749.3999023438</ele>
        <time>2021-03-21T12:14:21.000Z</time>
      </trkpt>
      <trkpt lat="44.98367" lon="6.03434">
        <ele>2749.8000488281</ele>
        <time>2021-03-21T12:14:22.000Z</time>
      </trkpt>
      <trkpt lat="44.98367" lon="6.03435">
        <ele>2750</ele>
        <time>2021-03-21T12:14:23.000Z</time>
      </trkpt>
      <trkpt lat="44.98366" lon="6.03436">
        <ele>2750.3999023438</ele>
        <time>2021-03-21T12:14:24.000Z</time>
      </trkpt>
      <trkpt lat="44.98367" lon="6.03437">
        <ele>2750.3999023438</ele>
        <time>2021-03-21T12:14:25.000Z</time>
      </trkpt>
      <trkpt lat="44.98367" lon="6.03438">
        <ele>2750.3999023438</ele>
        <time>2021-03-21T12:14:26.000Z</time>
      </trkpt>
      <trkpt lat="44.98366" lon="6.03439">
        <ele>2751</ele>
        <time>2021-03-21T12:14:27.000Z</time>
      </trkpt>
      <trkpt lat="44.98365" lon="6.0344">
        <ele>2751.8000488281</ele>
        <time>2021-03-21T12:14:28.000Z</time>
      </trkpt>
      <trkpt lat="44.98365" lon="6.0344">
        <ele>2752.3999023438</ele>
        <time>2021-03-21T12:14:29.000Z</time>
      </trkpt>
      <trkpt lat="44.98364" lon="6.0344">
        <ele>2752.8000488281</ele>
        <time>2021-03-21T12:14:30.000Z</time>
      </trkpt>
      <trkpt lat="44.98364" lon="6.0344">
        <ele>2752.6000976562</ele>
        <time>2021-03-21T12:14:31.000Z</time>
      </trkpt>
      <trkpt lat="44.98364" lon="6.0344">
        <ele>2752.6000976562</ele>
        <time>2021-03-21T12:14:32.000Z</time>
      </trkpt>
      <trkpt lat="44.98364" lon="6.03439">
        <ele>2752.6000976562</ele>
        <time>2021-03-21T12:14:33.000Z</time>
      </trkpt>
      <trkpt lat="44.98364" lon="6.03438">
        <ele>2752.6000976562</ele>
        <time>2021-03-21T12:14:34.000Z</time>
      </trkpt>
      <trkpt lat="44.98364" lon="6.03438">
        <ele>2752.3999023438</ele>
        <time>2021-03-21T12:14:35.000Z</time>
      </trkpt>
      <trkpt lat="44.98364" lon="6.03438">
        <ele>2752.3999023438</ele>
        <time>2021-03-21T12:14:36.000Z</time>
      </trkpt>
      <trkpt lat="44.98364" lon="6.03438">
        <ele>2752.3999023438</ele>
        <time>2021-03-21T12:14:37.000Z</time>
      </trkpt>
      <trkpt lat="44.98364" lon="6.03438">
        <ele>2752.3999023438</ele>
        <time>2021-03-21T12:14:38.000Z</time>
      </trkpt>
      <trkpt lat="44.98364" lon="6.03438">
        <ele>2752.6000976562</ele>
        <time>2021-03-21T12:14:39.000Z</time>
      </trkpt>
      <trkpt lat="44.98364" lon="6.03438">
        <ele>2752.3999023438</ele>
        <time>2021-03-21T12:14:40.000Z</time>
      </trkpt>
      <trkpt lat="44.98364" lon="6.03438">
        <ele>2752.3999023438</ele>
        <time>2021-03-21T12:14:41.000Z</time>
      </trkpt>
      <trkpt lat="44.98365" lon="6.03438">
        <ele>2752.1999511719</ele>
        <time>2021-03-21T12:14:42.000Z</time>
      </trkpt>
      <trkpt lat="44.98365" lon="6.03438">
        <ele>2752.1999511719</ele>
        <time>2021-03-21T12:14:43.000Z</time>
      </trkpt>
      <trkpt lat="44.98364" lon="6.03438">
        <ele>2752.3999023438</ele>
        <time>2021-03-21T12:14:44.000Z</time>
      </trkpt>
      <trkpt lat="44.98364" lon="6.03438">
        <ele>2752.6000976562</ele>
        <time>2021-03-21T12:14:45.000Z</time>
      </trkpt>
      <trkpt lat="44.98364" lon="6.03438">
        <ele>2752.8000488281</ele>
        <time>2021-03-21T12:14:46.000Z</time>
      </trkpt>
      <trkpt lat="44.98364" lon="6.03438">
        <ele>2752.6000976562</ele>
        <time>2021-03-21T12:14:47.000Z</time>
      </trkpt>
      <trkpt lat="44.98364" lon="6.03438">
        <ele>2752.6000976562</ele>
        <time>2021-03-21T12:14:48.000Z</time>
      </trkpt>
      <trkpt lat="44.98364" lon="6.03438">
        <ele>2752.3999023438</ele>
        <time>2021-03-21T12:14:49.000Z</time>
      </trkpt>
      <trkpt lat="44.98364" lon="6.03438">
        <ele>2752.3999023438</ele>
        <time>2021-03-21T12:14:50.000Z</time>
      </trkpt>
      <trkpt lat="44.98364" lon="6.03438">
        <ele>2752.3999023438</ele>
        <time>2021-03-21T12:14:51.000Z</time>
      </trkpt>
      <trkpt lat="44.98364" lon="6.03437">
        <ele>2752.3999023438</ele>
        <time>2021-03-21T12:14:52.000Z</time>
      </trkpt>
      <trkpt lat="44.98364" lon="6.03437">
        <ele>2752.3999023438</ele>
        <time>2021-03-21T12:14:53.000Z</time>
      </trkpt>
      <trkpt lat="44.98364" lon="6.03436">
        <ele>2752.3999023438</ele>
        <time>2021-03-21T12:14:54.000Z</time>
      </trkpt>
      <trkpt lat="44.98364" lon="6.03435">
        <ele>2752.6000976562</ele>
        <time>2021-03-21T12:14:55.000Z</time>
      </trkpt>
      <trkpt lat="44.98364" lon="6.03434">
        <ele>2752.6000976562</ele>
        <time>2021-03-21T12:14:56.000Z</time>
      </trkpt>
      <trkpt lat="44.98363" lon="6.03433">
        <ele>2752.6000976562</ele>
        <time>2021-03-21T12:14:57.000Z</time>
      </trkpt>
      <trkpt lat="44.98363" lon="6.03432">
        <ele>2752.8000488281</ele>
        <time>2021-03-21T12:14:58.000Z</time>
      </trkpt>
      <trkpt lat="44.98362" lon="6.03432">
        <ele>2753.1999511719</ele>
        <time>2021-03-21T12:14:59.000Z</time>
      </trkpt>
      <trkpt lat="44.98362" lon="6.03431">
        <ele>2753.6000976562</ele>
        <time>2021-03-21T12:15:00.000Z</time>
      </trkpt>
      <trkpt lat="44.98361" lon="6.0343">
        <ele>2754</ele>
        <time>2021-03-21T12:15:01.000Z</time>
      </trkpt>
      <trkpt lat="44.98361" lon="6.03429">
        <ele>2754.1999511719</ele>
        <time>2021-03-21T12:15:02.000Z</time>
      </trkpt>
      <trkpt lat="44.9836" lon="6.03428">
        <ele>2754.3999023438</ele>
        <time>2021-03-21T12:15:03.000Z</time>
      </trkpt>
      <trkpt lat="44.9836" lon="6.03427">
        <ele>2754.6000976562</ele>
        <time>2021-03-21T12:15:04.000Z</time>
      </trkpt>
      <trkpt lat="44.9836" lon="6.03427">
        <ele>2754.8000488281</ele>
        <time>2021-03-21T12:15:05.000Z</time>
      </trkpt>
      <trkpt lat="44.98359" lon="6.03426">
        <ele>2755</ele>
        <time>2021-03-21T12:15:06.000Z</time>
      </trkpt>
      <trkpt lat="44.98359" lon="6.03425">
        <ele>2755.3999023438</ele>
        <time>2021-03-21T12:15:07.000Z</time>
      </trkpt>
      <trkpt lat="44.98358" lon="6.03424">
        <ele>2755.6000976562</ele>
        <time>2021-03-21T12:15:08.000Z</time>
      </trkpt>
      <trkpt lat="44.98358" lon="6.03424">
        <ele>2755.8000488281</ele>
        <time>2021-03-21T12:15:09.000Z</time>
      </trkpt>
      <trkpt lat="44.98358" lon="6.03422">
        <ele>2755.8000488281</ele>
        <time>2021-03-21T12:15:10.000Z</time>
      </trkpt>
      <trkpt lat="44.98358" lon="6.03422">
        <ele>2756</ele>
        <time>2021-03-21T12:15:11.000Z</time>
      </trkpt>
      <trkpt lat="44.98357" lon="6.03421">
        <ele>2756.3999023438</ele>
        <time>2021-03-21T12:15:12.000Z</time>
      </trkpt>
      <trkpt lat="44.98356" lon="6.0342">
        <ele>2757</ele>
        <time>2021-03-21T12:15:13.000Z</time>
      </trkpt>
      <trkpt lat="44.98356" lon="6.0342">
        <ele>2757.3999023438</ele>
        <time>2021-03-21T12:15:14.000Z</time>
      </trkpt>
      <trkpt lat="44.98355" lon="6.0342">
        <ele>2757.8000488281</ele>
        <time>2021-03-21T12:15:15.000Z</time>
      </trkpt>
      <trkpt lat="44.98354" lon="6.03419">
        <ele>2758.3999023438</ele>
        <time>2021-03-21T12:15:16.000Z</time>
      </trkpt>
      <trkpt lat="44.98354" lon="6.03419">
        <ele>2759</ele>
        <time>2021-03-21T12:15:17.000Z</time>
      </trkpt>
      <trkpt lat="44.98353" lon="6.03418">
        <ele>2759.3999023438</ele>
        <time>2021-03-21T12:15:18.000Z</time>
      </trkpt>
      <trkpt lat="44.98352" lon="6.03418">
        <ele>2760</ele>
        <time>2021-03-21T12:15:19.000Z</time>
      </trkpt>
      <trkpt lat="44.98352" lon="6.03417">
        <ele>2760.6000976562</ele>
        <time>2021-03-21T12:15:20.000Z</time>
      </trkpt>
      <trkpt lat="44.98351" lon="6.03417">
        <ele>2761</ele>
        <time>2021-03-21T12:15:21.000Z</time>
      </trkpt>
      <trkpt lat="44.9835" lon="6.03416">
        <ele>2761.3999023438</ele>
        <time>2021-03-21T12:15:22.000Z</time>
      </trkpt>
      <trkpt lat="44.9835" lon="6.03417">
        <ele>2762</ele>
        <time>2021-03-21T12:15:23.000Z</time>
      </trkpt>
      <trkpt lat="44.98349" lon="6.03416">
        <ele>2762.1999511719</ele>
        <time>2021-03-21T12:15:24.000Z</time>
      </trkpt>
      <trkpt lat="44.98349" lon="6.03417">
        <ele>2762.6000976562</ele>
        <time>2021-03-21T12:15:25.000Z</time>
      </trkpt>
      <trkpt lat="44.98349" lon="6.03417">
        <ele>2762.8000488281</ele>
        <time>2021-03-21T12:15:26.000Z</time>
      </trkpt>
      <trkpt lat="44.98349" lon="6.03417">
        <ele>2763</ele>
        <time>2021-03-21T12:15:27.000Z</time>
      </trkpt>
      <trkpt lat="44.98349" lon="6.03418">
        <ele>2763.1999511719</ele>
        <time>2021-03-21T12:15:28.000Z</time>
      </trkpt>
      <trkpt lat="44.98348" lon="6.0342">
        <ele>2763.3999023438</ele>
        <time>2021-03-21T12:15:29.000Z</time>
      </trkpt>
      <trkpt lat="44.98348" lon="6.03421">
        <ele>2763.6000976562</ele>
        <time>2021-03-21T12:15:30.000Z</time>
      </trkpt>
      <trkpt lat="44.98348" lon="6.03422">
        <ele>2763.8000488281</ele>
        <time>2021-03-21T12:15:31.000Z</time>
      </trkpt>
      <trkpt lat="44.98348" lon="6.03423">
        <ele>2764.1999511719</ele>
        <time>2021-03-21T12:15:32.000Z</time>
      </trkpt>
      <trkpt lat="44.98348" lon="6.03424">
        <ele>2764.3999023438</ele>
        <time>2021-03-21T12:15:33.000Z</time>
      </trkpt>
      <trkpt lat="44.98348" lon="6.03425">
        <ele>2764.6000976562</ele>
        <time>2021-03-21T12:15:34.000Z</time>
      </trkpt>
      <trkpt lat="44.98347" lon="6.03426">
        <ele>2764.8000488281</ele>
        <time>2021-03-21T12:15:35.000Z</time>
      </trkpt>
      <trkpt lat="44.98347" lon="6.03427">
        <ele>2765.1999511719</ele>
        <time>2021-03-21T12:15:36.000Z</time>
      </trkpt>
      <trkpt lat="44.98347" lon="6.03428">
        <ele>2765.3999023438</ele>
        <time>2021-03-21T12:15:37.000Z</time>
      </trkpt>
      <trkpt lat="44.98347" lon="6.03429">
        <ele>2765.6000976562</ele>
        <time>2021-03-21T12:15:38.000Z</time>
      </trkpt>
      <trkpt lat="44.98347" lon="6.03431">
        <ele>2765.8000488281</ele>
        <time>2021-03-21T12:15:39.000Z</time>
      </trkpt>
      <trkpt lat="44.98347" lon="6.03431">
        <ele>2766.1999511719</ele>
        <time>2021-03-21T12:15:40.000Z</time>
      </trkpt>
      <trkpt lat="44.98346" lon="6.03433">
        <ele>2766.3999023438</ele>
        <time>2021-03-21T12:15:41.000Z</time>
      </trkpt>
      <trkpt lat="44.98347" lon="6.03434">
        <ele>2766</ele>
        <time>2021-03-21T12:15:42.000Z</time>
      </trkpt>
      <trkpt lat="44.98347" lon="6.03435">
        <ele>2766</ele>
        <time>2021-03-21T12:15:43.000Z</time>
      </trkpt>
      <trkpt lat="44.98349" lon="6.03436">
        <ele>2764.6000976562</ele>
        <time>2021-03-21T12:15:44.000Z</time>
      </trkpt>
      <trkpt lat="44.98349" lon="6.03437">
        <ele>2764.3999023438</ele>
        <time>2021-03-21T12:15:45.000Z</time>
      </trkpt>
      <trkpt lat="44.98349" lon="6.03438">
        <ele>2764.6000976562</ele>
        <time>2021-03-21T12:15:46.000Z</time>
      </trkpt>
      <trkpt lat="44.98348" lon="6.03439">
        <ele>2764.8000488281</ele>
        <time>2021-03-21T12:15:47.000Z</time>
      </trkpt>
      <trkpt lat="44.98348" lon="6.0344">
        <ele>2765</ele>
        <time>2021-03-21T12:15:48.000Z</time>
      </trkpt>
      <trkpt lat="44.98348" lon="6.0344">
        <ele>2764.8000488281</ele>
        <time>2021-03-21T12:15:49.000Z</time>
      </trkpt>
      <trkpt lat="44.98348" lon="6.03441">
        <ele>2764.8000488281</ele>
        <time>2021-03-21T12:15:50.000Z</time>
      </trkpt>
      <trkpt lat="44.98348" lon="6.03442">
        <ele>2764.8000488281</ele>
        <time>2021-03-21T12:15:51.000Z</time>
      </trkpt>
      <trkpt lat="44.98348" lon="6.03443">
        <ele>2765</ele>
        <time>2021-03-21T12:15:52.000Z</time>
      </trkpt>
      <trkpt lat="44.98347" lon="6.03444">
        <ele>2765.3999023438</ele>
        <time>2021-03-21T12:15:53.000Z</time>
      </trkpt>
      <trkpt lat="44.98347" lon="6.03445">
        <ele>2765.3999023438</ele>
        <time>2021-03-21T12:15:54.000Z</time>
      </trkpt>
      <trkpt lat="44.98346" lon="6.03446">
        <ele>2766</ele>
        <time>2021-03-21T12:15:55.000Z</time>
      </trkpt>
      <trkpt lat="44.98346" lon="6.03447">
        <ele>2766.3999023438</ele>
        <time>2021-03-21T12:15:56.000Z</time>
      </trkpt>
      <trkpt lat="44.98345" lon="6.03448">
        <ele>2767</ele>
        <time>2021-03-21T12:15:57.000Z</time>
      </trkpt>
      <trkpt lat="44.98345" lon="6.03448">
        <ele>2767.3999023438</ele>
        <time>2021-03-21T12:15:58.000Z</time>
      </trkpt>
      <trkpt lat="44.98344" lon="6.0345">
        <ele>2768</ele>
        <time>2021-03-21T12:15:59.000Z</time>
      </trkpt>
      <trkpt lat="44.98343" lon="6.0345">
        <ele>2768.8000488281</ele>
        <time>2021-03-21T12:16:00.000Z</time>
      </trkpt>
      <trkpt lat="44.98343" lon="6.03451">
        <ele>2769.3999023438</ele>
        <time>2021-03-21T12:16:01.000Z</time>
      </trkpt>
      <trkpt lat="44.98342" lon="6.03451">
        <ele>2770</ele>
        <time>2021-03-21T12:16:02.000Z</time>
      </trkpt>
      <trkpt lat="44.98342" lon="6.03451">
        <ele>2770.6000976562</ele>
        <time>2021-03-21T12:16:03.000Z</time>
      </trkpt>
      <trkpt lat="44.98342" lon="6.03451">
        <ele>2770.6000976562</ele>
        <time>2021-03-21T12:16:04.000Z</time>
      </trkpt>
      <trkpt lat="44.98341" lon="6.0345">
        <ele>2771.6000976562</ele>
        <time>2021-03-21T12:16:05.000Z</time>
      </trkpt>
      <trkpt lat="44.98341" lon="6.03449">
        <ele>2772</ele>
        <time>2021-03-21T12:16:06.000Z</time>
      </trkpt>
      <trkpt lat="44.9834" lon="6.03449">
        <ele>2772.3999023438</ele>
        <time>2021-03-21T12:16:07.000Z</time>
      </trkpt>
      <trkpt lat="44.9834" lon="6.03448">
        <ele>2772.3999023438</ele>
        <time>2021-03-21T12:16:08.000Z</time>
      </trkpt>
      <trkpt lat="44.9834" lon="6.03448">
        <ele>2772.8000488281</ele>
        <time>2021-03-21T12:16:09.000Z</time>
      </trkpt>
      <trkpt lat="44.98339" lon="6.03447">
        <ele>2773.1999511719</ele>
        <time>2021-03-21T12:16:10.000Z</time>
      </trkpt>
      <trkpt lat="44.98339" lon="6.03446">
        <ele>2774</ele>
        <time>2021-03-21T12:16:11.000Z</time>
      </trkpt>
      <trkpt lat="44.98338" lon="6.03446">
        <ele>2774.6000976562</ele>
        <time>2021-03-21T12:16:12.000Z</time>
      </trkpt>
      <trkpt lat="44.98338" lon="6.03445">
        <ele>2775</ele>
        <time>2021-03-21T12:16:13.000Z</time>
      </trkpt>
      <trkpt lat="44.98337" lon="6.03444">
        <ele>2775.8000488281</ele>
        <time>2021-03-21T12:16:14.000Z</time>
      </trkpt>
      <trkpt lat="44.98337" lon="6.03443">
        <ele>2776.1999511719</ele>
        <time>2021-03-21T12:16:15.000Z</time>
      </trkpt>
      <trkpt lat="44.98336" lon="6.03443">
        <ele>2776.8000488281</ele>
        <time>2021-03-21T12:16:16.000Z</time>
      </trkpt>
      <trkpt lat="44.98336" lon="6.03442">
        <ele>2777.1999511719</ele>
        <time>2021-03-21T12:16:17.000Z</time>
      </trkpt>
      <trkpt lat="44.98335" lon="6.03442">
        <ele>2778</ele>
        <time>2021-03-21T12:16:18.000Z</time>
      </trkpt>
      <trkpt lat="44.98335" lon="6.03441">
        <ele>2778.3999023438</ele>
        <time>2021-03-21T12:16:19.000Z</time>
      </trkpt>
      <trkpt lat="44.98334" lon="6.0344">
        <ele>2778.8000488281</ele>
        <time>2021-03-21T12:16:20.000Z</time>
      </trkpt>
      <trkpt lat="44.98334" lon="6.0344">
        <ele>2779.3999023438</ele>
        <time>2021-03-21T12:16:21.000Z</time>
      </trkpt>
      <trkpt lat="44.98333" lon="6.03439">
        <ele>2780</ele>
        <time>2021-03-21T12:16:22.000Z</time>
      </trkpt>
      <trkpt lat="44.98333" lon="6.03438">
        <ele>2780.6000976562</ele>
        <time>2021-03-21T12:16:23.000Z</time>
      </trkpt>
      <trkpt lat="44.98332" lon="6.03438">
        <ele>2781.1999511719</ele>
        <time>2021-03-21T12:16:24.000Z</time>
      </trkpt>
      <trkpt lat="44.98331" lon="6.03437">
        <ele>2782</ele>
        <time>2021-03-21T12:16:25.000Z</time>
      </trkpt>
      <trkpt lat="44.98331" lon="6.03437">
        <ele>2782.6000976562</ele>
        <time>2021-03-21T12:16:26.000Z</time>
      </trkpt>
      <trkpt lat="44.9833" lon="6.03436">
        <ele>2783</ele>
        <time>2021-03-21T12:16:27.000Z</time>
      </trkpt>
      <trkpt lat="44.9833" lon="6.03436">
        <ele>2783.1999511719</ele>
        <time>2021-03-21T12:16:28.000Z</time>
      </trkpt>
      <trkpt lat="44.9833" lon="6.03436">
        <ele>2783.6000976562</ele>
        <time>2021-03-21T12:16:29.000Z</time>
      </trkpt>
      <trkpt lat="44.98329" lon="6.03435">
        <ele>2784</ele>
        <time>2021-03-21T12:16:30.000Z</time>
      </trkpt>
      <trkpt lat="44.98328" lon="6.03435">
        <ele>2785</ele>
        <time>2021-03-21T12:16:31.000Z</time>
      </trkpt>
      <trkpt lat="44.98328" lon="6.03435">
        <ele>2785.8000488281</ele>
        <time>2021-03-21T12:16:32.000Z</time>
      </trkpt>
      <trkpt lat="44.98327" lon="6.03434">
        <ele>2786.3999023438</ele>
        <time>2021-03-21T12:16:33.000Z</time>
      </trkpt>
      <trkpt lat="44.98327" lon="6.03434">
        <ele>2787</ele>
        <time>2021-03-21T12:16:34.000Z</time>
      </trkpt>
      <trkpt lat="44.98326" lon="6.03434">
        <ele>2787.3999023438</ele>
        <time>2021-03-21T12:16:35.000Z</time>
      </trkpt>
      <trkpt lat="44.98326" lon="6.03434">
        <ele>2788</ele>
        <time>2021-03-21T12:16:36.000Z</time>
      </trkpt>
      <trkpt lat="44.98325" lon="6.03434">
        <ele>2788.6000976562</ele>
        <time>2021-03-21T12:16:37.000Z</time>
      </trkpt>
      <trkpt lat="44.98324" lon="6.03434">
        <ele>2789.3999023438</ele>
        <time>2021-03-21T12:16:38.000Z</time>
      </trkpt>
      <trkpt lat="44.98324" lon="6.03434">
        <ele>2789.8000488281</ele>
        <time>2021-03-21T12:16:39.000Z</time>
      </trkpt>
      <trkpt lat="44.98324" lon="6.03433">
        <ele>2790.1999511719</ele>
        <time>2021-03-21T12:16:40.000Z</time>
      </trkpt>
      <trkpt lat="44.98323" lon="6.03433">
        <ele>2790.6000976562</ele>
        <time>2021-03-21T12:16:41.000Z</time>
      </trkpt>
      <trkpt lat="44.98323" lon="6.03433">
        <ele>2791</ele>
        <time>2021-03-21T12:16:42.000Z</time>
      </trkpt>
      <trkpt lat="44.98323" lon="6.03432">
        <ele>2790.3999023438</ele>
        <time>2021-03-21T12:16:43.000Z</time>
      </trkpt>
      <trkpt lat="44.98323" lon="6.03432">
        <ele>2790.8000488281</ele>
        <time>2021-03-21T12:16:44.000Z</time>
      </trkpt>
      <trkpt lat="44.98323" lon="6.03432">
        <ele>2790.8000488281</ele>
        <time>2021-03-21T12:16:45.000Z</time>
      </trkpt>
      <trkpt lat="44.98323" lon="6.03432">
        <ele>2790.6000976562</ele>
        <time>2021-03-21T12:16:46.000Z</time>
      </trkpt>
      <trkpt lat="44.98324" lon="6.03432">
        <ele>2790.1999511719</ele>
        <time>2021-03-21T12:16:47.000Z</time>
      </trkpt>
      <trkpt lat="44.98324" lon="6.03432">
        <ele>2790</ele>
        <time>2021-03-21T12:16:48.000Z</time>
      </trkpt>
      <trkpt lat="44.98324" lon="6.03432">
        <ele>2789.8000488281</ele>
        <time>2021-03-21T12:16:49.000Z</time>
      </trkpt>
      <trkpt lat="44.98324" lon="6.03432">
        <ele>2789.6000976562</ele>
        <time>2021-03-21T12:16:50.000Z</time>
      </trkpt>
      <trkpt lat="44.98324" lon="6.03432">
        <ele>2789.3999023438</ele>
        <time>2021-03-21T12:16:51.000Z</time>
      </trkpt>
      <trkpt lat="44.98324" lon="6.03433">
        <ele>2789.3999023438</ele>
        <time>2021-03-21T12:16:52.000Z</time>
      </trkpt>
      <trkpt lat="44.98324" lon="6.03433">
        <ele>2789.3999023438</ele>
        <time>2021-03-21T12:16:53.000Z</time>
      </trkpt>
      <trkpt lat="44.98324" lon="6.03434">
        <ele>2789.3999023438</ele>
        <time>2021-03-21T12:16:54.000Z</time>
      </trkpt>
      <trkpt lat="44.98324" lon="6.03434">
        <ele>2789.3999023438</ele>
        <time>2021-03-21T12:16:55.000Z</time>
      </trkpt>
      <trkpt lat="44.98324" lon="6.03436">
        <ele>2789.6000976562</ele>
        <time>2021-03-21T12:16:56.000Z</time>
      </trkpt>
      <trkpt lat="44.98324" lon="6.03436">
        <ele>2790</ele>
        <time>2021-03-21T12:16:57.000Z</time>
      </trkpt>
      <trkpt lat="44.98324" lon="6.03437">
        <ele>2790.3999023438</ele>
        <time>2021-03-21T12:16:58.000Z</time>
      </trkpt>
      <trkpt lat="44.98324" lon="6.03438">
        <ele>2790.6000976562</ele>
        <time>2021-03-21T12:16:59.000Z</time>
      </trkpt>
      <trkpt lat="44.98323" lon="6.03439">
        <ele>2791</ele>
        <time>2021-03-21T12:17:00.000Z</time>
      </trkpt>
      <trkpt lat="44.98323" lon="6.03439">
        <ele>2791.3999023438</ele>
        <time>2021-03-21T12:17:01.000Z</time>
      </trkpt>
      <trkpt lat="44.98323" lon="6.0344">
        <ele>2792</ele>
        <time>2021-03-21T12:17:02.000Z</time>
      </trkpt>
      <trkpt lat="44.98322" lon="6.03441">
        <ele>2793.1999511719</ele>
        <time>2021-03-21T12:17:03.000Z</time>
      </trkpt>
      <trkpt lat="44.98322" lon="6.03442">
        <ele>2793.6000976562</ele>
        <time>2021-03-21T12:17:04.000Z</time>
      </trkpt>
      <trkpt lat="44.98322" lon="6.03443">
        <ele>2794</ele>
        <time>2021-03-21T12:17:05.000Z</time>
      </trkpt>
      <trkpt lat="44.98322" lon="6.03443">
        <ele>2794.6000976562</ele>
        <time>2021-03-21T12:17:06.000Z</time>
      </trkpt>
      <trkpt lat="44.98323" lon="6.03444">
        <ele>2793.8000488281</ele>
        <time>2021-03-21T12:17:07.000Z</time>
      </trkpt>
      <trkpt lat="44.98323" lon="6.03445">
        <ele>2793.8000488281</ele>
        <time>2021-03-21T12:17:08.000Z</time>
      </trkpt>
      <trkpt lat="44.98323" lon="6.03445">
        <ele>2794</ele>
        <time>2021-03-21T12:17:09.000Z</time>
      </trkpt>
      <trkpt lat="44.98323" lon="6.03446">
        <ele>2794</ele>
        <time>2021-03-21T12:17:10.000Z</time>
      </trkpt>
      <trkpt lat="44.98323" lon="6.03447">
        <ele>2794.3999023438</ele>
        <time>2021-03-21T12:17:11.000Z</time>
      </trkpt>
      <trkpt lat="44.98323" lon="6.03447">
        <ele>2794.3999023438</ele>
        <time>2021-03-21T12:17:12.000Z</time>
      </trkpt>
      <trkpt lat="44.98323" lon="6.03448">
        <ele>2794.1999511719</ele>
        <time>2021-03-21T12:17:13.000Z</time>
      </trkpt>
      <trkpt lat="44.98323" lon="6.03449">
        <ele>2794.3999023438</ele>
        <time>2021-03-21T12:17:14.000Z</time>
      </trkpt>
      <trkpt lat="44.98323" lon="6.03449">
        <ele>2794.8000488281</ele>
        <time>2021-03-21T12:17:15.000Z</time>
      </trkpt>
      <trkpt lat="44.98323" lon="6.0345">
        <ele>2795.1999511719</ele>
        <time>2021-03-21T12:17:16.000Z</time>
      </trkpt>
      <trkpt lat="44.98322" lon="6.03449">
        <ele>2795.3999023438</ele>
        <time>2021-03-21T12:17:17.000Z</time>
      </trkpt>
      <trkpt lat="44.98322" lon="6.03449">
        <ele>2795.6000976562</ele>
        <time>2021-03-21T12:17:18.000Z</time>
      </trkpt>
      <trkpt lat="44.98322" lon="6.03449">
        <ele>2795.6000976562</ele>
        <time>2021-03-21T12:17:19.000Z</time>
      </trkpt>
      <trkpt lat="44.98322" lon="6.03449">
        <ele>2795.6000976562</ele>
        <time>2021-03-21T12:17:20.000Z</time>
      </trkpt>
      <trkpt lat="44.98321" lon="6.03449">
        <ele>2796.6000976562</ele>
        <time>2021-03-21T12:17:21.000Z</time>
      </trkpt>
      <trkpt lat="44.98321" lon="6.03448">
        <ele>2796.8000488281</ele>
        <time>2021-03-21T12:17:22.000Z</time>
      </trkpt>
      <trkpt lat="44.98321" lon="6.03448">
        <ele>2796.8000488281</ele>
        <time>2021-03-21T12:17:23.000Z</time>
      </trkpt>
      <trkpt lat="44.98321" lon="6.03447">
        <ele>2797.1999511719</ele>
        <time>2021-03-21T12:17:24.000Z</time>
      </trkpt>
      <trkpt lat="44.9832" lon="6.03446">
        <ele>2797.6000976562</ele>
        <time>2021-03-21T12:17:25.000Z</time>
      </trkpt>
      <trkpt lat="44.98319" lon="6.03446">
        <ele>2798.3999023438</ele>
        <time>2021-03-21T12:17:26.000Z</time>
      </trkpt>
      <trkpt lat="44.98319" lon="6.03445">
        <ele>2798.6000976562</ele>
        <time>2021-03-21T12:17:27.000Z</time>
      </trkpt>
      <trkpt lat="44.98319" lon="6.03444">
        <ele>2798.6000976562</ele>
        <time>2021-03-21T12:17:28.000Z</time>
      </trkpt>
      <trkpt lat="44.98318" lon="6.03443">
        <ele>2798.8000488281</ele>
        <time>2021-03-21T12:17:29.000Z</time>
      </trkpt>
      <trkpt lat="44.98318" lon="6.03442">
        <ele>2799.1999511719</ele>
        <time>2021-03-21T12:17:30.000Z</time>
      </trkpt>
      <trkpt lat="44.98317" lon="6.03442">
        <ele>2799.3999023438</ele>
        <time>2021-03-21T12:17:31.000Z</time>
      </trkpt>
      <trkpt lat="44.98317" lon="6.03441">
        <ele>2799.6000976562</ele>
        <time>2021-03-21T12:17:32.000Z</time>
      </trkpt>
      <trkpt lat="44.98317" lon="6.0344">
        <ele>2799.3999023438</ele>
        <time>2021-03-21T12:17:33.000Z</time>
      </trkpt>
      <trkpt lat="44.98316" lon="6.0344">
        <ele>2799.6000976562</ele>
        <time>2021-03-21T12:17:34.000Z</time>
      </trkpt>
      <trkpt lat="44.98316" lon="6.03439">
        <ele>2800</ele>
        <time>2021-03-21T12:17:35.000Z</time>
      </trkpt>
      <trkpt lat="44.98315" lon="6.03438">
        <ele>2800.3999023438</ele>
        <time>2021-03-21T12:17:36.000Z</time>
      </trkpt>
      <trkpt lat="44.98315" lon="6.03438">
        <ele>2800.8000488281</ele>
        <time>2021-03-21T12:17:37.000Z</time>
      </trkpt>
      <trkpt lat="44.98314" lon="6.03437">
        <ele>2801</ele>
        <time>2021-03-21T12:17:38.000Z</time>
      </trkpt>
      <trkpt lat="44.98314" lon="6.03437">
        <ele>2801.6000976562</ele>
        <time>2021-03-21T12:17:39.000Z</time>
      </trkpt>
      <trkpt lat="44.98313" lon="6.03437">
        <ele>2801.8000488281</ele>
        <time>2021-03-21T12:17:40.000Z</time>
      </trkpt>
      <trkpt lat="44.98312" lon="6.03436">
        <ele>2802.1999511719</ele>
        <time>2021-03-21T12:17:41.000Z</time>
      </trkpt>
      <trkpt lat="44.98312" lon="6.03436">
        <ele>2802.8000488281</ele>
        <time>2021-03-21T12:17:42.000Z</time>
      </trkpt>
      <trkpt lat="44.98312" lon="6.03435">
        <ele>2802.8000488281</ele>
        <time>2021-03-21T12:17:43.000Z</time>
      </trkpt>
      <trkpt lat="44.98311" lon="6.03435">
        <ele>2803.3999023438</ele>
        <time>2021-03-21T12:17:44.000Z</time>
      </trkpt>
      <trkpt lat="44.9831" lon="6.03435">
        <ele>2803.6000976562</ele>
        <time>2021-03-21T12:17:45.000Z</time>
      </trkpt>
      <trkpt lat="44.9831" lon="6.03434">
        <ele>2804.1999511719</ele>
        <time>2021-03-21T12:17:46.000Z</time>
      </trkpt>
      <trkpt lat="44.98309" lon="6.03434">
        <ele>2804.8000488281</ele>
        <time>2021-03-21T12:17:47.000Z</time>
      </trkpt>
      <trkpt lat="44.98308" lon="6.03434">
        <ele>2805.3999023438</ele>
        <time>2021-03-21T12:17:48.000Z</time>
      </trkpt>
      <trkpt lat="44.98308" lon="6.03433">
        <ele>2805.8000488281</ele>
        <time>2021-03-21T12:17:49.000Z</time>
      </trkpt>
      <trkpt lat="44.98307" lon="6.03433">
        <ele>2806.3999023438</ele>
        <time>2021-03-21T12:17:50.000Z</time>
      </trkpt>
      <trkpt lat="44.98307" lon="6.03433">
        <ele>2806.6000976562</ele>
        <time>2021-03-21T12:17:51.000Z</time>
      </trkpt>
      <trkpt lat="44.98306" lon="6.03433">
        <ele>2807</ele>
        <time>2021-03-21T12:17:52.000Z</time>
      </trkpt>
      <trkpt lat="44.98305" lon="6.03432">
        <ele>2807.6000976562</ele>
        <time>2021-03-21T12:17:53.000Z</time>
      </trkpt>
      <trkpt lat="44.98305" lon="6.03432">
        <ele>2807.8000488281</ele>
        <time>2021-03-21T12:17:54.000Z</time>
      </trkpt>
      <trkpt lat="44.98305" lon="6.03431">
        <ele>2808</ele>
        <time>2021-03-21T12:17:55.000Z</time>
      </trkpt>
      <trkpt lat="44.98303" lon="6.03431">
        <ele>2809</ele>
        <time>2021-03-21T12:17:56.000Z</time>
      </trkpt>
      <trkpt lat="44.98303" lon="6.03431">
        <ele>2809.8000488281</ele>
        <time>2021-03-21T12:17:57.000Z</time>
      </trkpt>
      <trkpt lat="44.98302" lon="6.03431">
        <ele>2810.3999023438</ele>
        <time>2021-03-21T12:17:58.000Z</time>
      </trkpt>
      <trkpt lat="44.98302" lon="6.03431">
        <ele>2810.3999023438</ele>
        <time>2021-03-21T12:17:59.000Z</time>
      </trkpt>
      <trkpt lat="44.98302" lon="6.03431">
        <ele>2810.3999023438</ele>
        <time>2021-03-21T12:18:00.000Z</time>
      </trkpt>
      <trkpt lat="44.98302" lon="6.03431">
        <ele>2810.1999511719</ele>
        <time>2021-03-21T12:18:01.000Z</time>
      </trkpt>
      <trkpt lat="44.98302" lon="6.03431">
        <ele>2810.1999511719</ele>
        <time>2021-03-21T12:18:02.000Z</time>
      </trkpt>
      <trkpt lat="44.98302" lon="6.03431">
        <ele>2810.3999023438</ele>
        <time>2021-03-21T12:18:03.000Z</time>
      </trkpt>
      <trkpt lat="44.98302" lon="6.03431">
        <ele>2810.1999511719</ele>
        <time>2021-03-21T12:18:04.000Z</time>
      </trkpt>
      <trkpt lat="44.98302" lon="6.03431">
        <ele>2810</ele>
        <time>2021-03-21T12:18:05.000Z</time>
      </trkpt>
      <trkpt lat="44.98302" lon="6.03431">
        <ele>2810</ele>
        <time>2021-03-21T12:18:06.000Z</time>
      </trkpt>
      <trkpt lat="44.98302" lon="6.03431">
        <ele>2810</ele>
        <time>2021-03-21T12:18:07.000Z</time>
      </trkpt>
      <trkpt lat="44.98302" lon="6.03431">
        <ele>2810.1999511719</ele>
        <time>2021-03-21T12:18:08.000Z</time>
      </trkpt>
      <trkpt lat="44.98302" lon="6.03431">
        <ele>2810.3999023438</ele>
        <time>2021-03-21T12:18:09.000Z</time>
      </trkpt>
      <trkpt lat="44.98301" lon="6.03431">
        <ele>2810.8000488281</ele>
        <time>2021-03-21T12:18:10.000Z</time>
      </trkpt>
      <trkpt lat="44.98301" lon="6.0343">
        <ele>2811</ele>
        <time>2021-03-21T12:18:11.000Z</time>
      </trkpt>
      <trkpt lat="44.98301" lon="6.0343">
        <ele>2811.1999511719</ele>
        <time>2021-03-21T12:18:12.000Z</time>
      </trkpt>
      <trkpt lat="44.983" lon="6.0343">
        <ele>2811.6000976562</ele>
        <time>2021-03-21T12:18:13.000Z</time>
      </trkpt>
      <trkpt lat="44.983" lon="6.0343">
        <ele>2812</ele>
        <time>2021-03-21T12:18:14.000Z</time>
      </trkpt>
      <trkpt lat="44.983" lon="6.03429">
        <ele>2812</ele>
        <time>2021-03-21T12:18:15.000Z</time>
      </trkpt>
      <trkpt lat="44.98299" lon="6.03428">
        <ele>2812.1999511719</ele>
        <time>2021-03-21T12:18:16.000Z</time>
      </trkpt>
      <trkpt lat="44.98299" lon="6.03428">
        <ele>2812.6000976562</ele>
        <time>2021-03-21T12:18:17.000Z</time>
      </trkpt>
      <trkpt lat="44.98298" lon="6.03428">
        <ele>2813</ele>
        <time>2021-03-21T12:18:18.000Z</time>
      </trkpt>
      <trkpt lat="44.98298" lon="6.03428">
        <ele>2813.6000976562</ele>
        <time>2021-03-21T12:18:19.000Z</time>
      </trkpt>
      <trkpt lat="44.98297" lon="6.03427">
        <ele>2814</ele>
        <time>2021-03-21T12:18:20.000Z</time>
      </trkpt>
      <trkpt lat="44.98297" lon="6.03427">
        <ele>2814.1999511719</ele>
        <time>2021-03-21T12:18:21.000Z</time>
      </trkpt>
      <trkpt lat="44.98296" lon="6.03427">
        <ele>2814.6000976562</ele>
        <time>2021-03-21T12:18:22.000Z</time>
      </trkpt>
      <trkpt lat="44.98296" lon="6.03427">
        <ele>2815.1999511719</ele>
        <time>2021-03-21T12:18:23.000Z</time>
      </trkpt>
      <trkpt lat="44.98295" lon="6.03427">
        <ele>2815.8000488281</ele>
        <time>2021-03-21T12:18:24.000Z</time>
      </trkpt>
      <trkpt lat="44.98294" lon="6.03427">
        <ele>2816.3999023438</ele>
        <time>2021-03-21T12:18:25.000Z</time>
      </trkpt>
      <trkpt lat="44.98294" lon="6.03426">
        <ele>2816.1999511719</ele>
        <time>2021-03-21T12:18:26.000Z</time>
      </trkpt>
      <trkpt lat="44.98294" lon="6.03426">
        <ele>2816.8000488281</ele>
        <time>2021-03-21T12:18:27.000Z</time>
      </trkpt>
      <trkpt lat="44.98293" lon="6.03426">
        <ele>2817</ele>
        <time>2021-03-21T12:18:28.000Z</time>
      </trkpt>
      <trkpt lat="44.98292" lon="6.03426">
        <ele>2818</ele>
        <time>2021-03-21T12:18:29.000Z</time>
      </trkpt>
      <trkpt lat="44.98292" lon="6.03426">
        <ele>2818.3999023438</ele>
        <time>2021-03-21T12:18:30.000Z</time>
      </trkpt>
      <trkpt lat="44.98291" lon="6.03426">
        <ele>2819</ele>
        <time>2021-03-21T12:18:31.000Z</time>
      </trkpt>
      <trkpt lat="44.98291" lon="6.03426">
        <ele>2819.1999511719</ele>
        <time>2021-03-21T12:18:32.000Z</time>
      </trkpt>
      <trkpt lat="44.9829" lon="6.03426">
        <ele>2819.6000976562</ele>
        <time>2021-03-21T12:18:33.000Z</time>
      </trkpt>
      <trkpt lat="44.98289" lon="6.03426">
        <ele>2820</ele>
        <time>2021-03-21T12:18:34.000Z</time>
      </trkpt>
      <trkpt lat="44.98288" lon="6.03426">
        <ele>2820.3999023438</ele>
        <time>2021-03-21T12:18:35.000Z</time>
      </trkpt>
      <trkpt lat="44.98288" lon="6.03426">
        <ele>2820.3999023438</ele>
        <time>2021-03-21T12:18:36.000Z</time>
      </trkpt>
      <trkpt lat="44.98288" lon="6.03426">
        <ele>2820.3999023438</ele>
        <time>2021-03-21T12:18:37.000Z</time>
      </trkpt>
      <trkpt lat="44.98287" lon="6.03426">
        <ele>2820.6000976562</ele>
        <time>2021-03-21T12:18:38.000Z</time>
      </trkpt>
      <trkpt lat="44.98287" lon="6.03426">
        <ele>2821</ele>
        <time>2021-03-21T12:18:39.000Z</time>
      </trkpt>
      <trkpt lat="44.98287" lon="6.03426">
        <ele>2821</ele>
        <time>2021-03-21T12:18:40.000Z</time>
      </trkpt>
      <trkpt lat="44.98286" lon="6.03425">
        <ele>2821</ele>
        <time>2021-03-21T12:18:41.000Z</time>
      </trkpt>
      <trkpt lat="44.98286" lon="6.03425">
        <ele>2821.1999511719</ele>
        <time>2021-03-21T12:18:42.000Z</time>
      </trkpt>
      <trkpt lat="44.98285" lon="6.03425">
        <ele>2821.3999023438</ele>
        <time>2021-03-21T12:18:43.000Z</time>
      </trkpt>
      <trkpt lat="44.98284" lon="6.03425">
        <ele>2821.8000488281</ele>
        <time>2021-03-21T12:18:44.000Z</time>
      </trkpt>
      <trkpt lat="44.98284" lon="6.03424">
        <ele>2821.8000488281</ele>
        <time>2021-03-21T12:18:45.000Z</time>
      </trkpt>
      <trkpt lat="44.98283" lon="6.03424">
        <ele>2822</ele>
        <time>2021-03-21T12:18:46.000Z</time>
      </trkpt>
      <trkpt lat="44.98283" lon="6.03423">
        <ele>2821.8000488281</ele>
        <time>2021-03-21T12:18:47.000Z</time>
      </trkpt>
      <trkpt lat="44.98283" lon="6.03422">
        <ele>2822</ele>
        <time>2021-03-21T12:18:48.000Z</time>
      </trkpt>
      <trkpt lat="44.98282" lon="6.03422">
        <ele>2822.1999511719</ele>
        <time>2021-03-21T12:18:49.000Z</time>
      </trkpt>
      <trkpt lat="44.98281" lon="6.03421">
        <ele>2822.3999023438</ele>
        <time>2021-03-21T12:18:50.000Z</time>
      </trkpt>
      <trkpt lat="44.98281" lon="6.03421">
        <ele>2822.3999023438</ele>
        <time>2021-03-21T12:18:51.000Z</time>
      </trkpt>
      <trkpt lat="44.98281" lon="6.0342">
        <ele>2822.6000976562</ele>
        <time>2021-03-21T12:18:52.000Z</time>
      </trkpt>
      <trkpt lat="44.9828" lon="6.0342">
        <ele>2822.6000976562</ele>
        <time>2021-03-21T12:18:53.000Z</time>
      </trkpt>
      <trkpt lat="44.9828" lon="6.03419">
        <ele>2822.6000976562</ele>
        <time>2021-03-21T12:18:54.000Z</time>
      </trkpt>
      <trkpt lat="44.98279" lon="6.03419">
        <ele>2822.8000488281</ele>
        <time>2021-03-21T12:18:55.000Z</time>
      </trkpt>
      <trkpt lat="44.98279" lon="6.03417">
        <ele>2822.8000488281</ele>
        <time>2021-03-21T12:18:56.000Z</time>
      </trkpt>
      <trkpt lat="44.98278" lon="6.03417">
        <ele>2823</ele>
        <time>2021-03-21T12:18:57.000Z</time>
      </trkpt>
      <trkpt lat="44.98278" lon="6.03416">
        <ele>2823</ele>
        <time>2021-03-21T12:18:58.000Z</time>
      </trkpt>
      <trkpt lat="44.98278" lon="6.03416">
        <ele>2823</ele>
        <time>2021-03-21T12:18:59.000Z</time>
      </trkpt>
      <trkpt lat="44.98278" lon="6.03416">
        <ele>2823</ele>
        <time>2021-03-21T12:19:00.000Z</time>
      </trkpt>
      <trkpt lat="44.98277" lon="6.03416">
        <ele>2823.1999511719</ele>
        <time>2021-03-21T12:19:01.000Z</time>
      </trkpt>
      <trkpt lat="44.98277" lon="6.03416">
        <ele>2823.1999511719</ele>
        <time>2021-03-21T12:19:02.000Z</time>
      </trkpt>
      <trkpt lat="44.98277" lon="6.03416">
        <ele>2823.1999511719</ele>
        <time>2021-03-21T12:19:03.000Z</time>
      </trkpt>
      <trkpt lat="44.98278" lon="6.03416">
        <ele>2823.1999511719</ele>
        <time>2021-03-21T12:19:04.000Z</time>
      </trkpt>
      <trkpt lat="44.98277" lon="6.03416">
        <ele>2823.1999511719</ele>
        <time>2021-03-21T12:19:05.000Z</time>
      </trkpt>
      <trkpt lat="44.98277" lon="6.03416">
        <ele>2823.3999023438</ele>
        <time>2021-03-21T12:19:06.000Z</time>
      </trkpt>
      <trkpt lat="44.98277" lon="6.03416">
        <ele>2823.3999023438</ele>
        <time>2021-03-21T12:19:07.000Z</time>
      </trkpt>
      <trkpt lat="44.98277" lon="6.03416">
        <ele>2823.3999023438</ele>
        <time>2021-03-21T12:19:08.000Z</time>
      </trkpt>
      <trkpt lat="44.98277" lon="6.03416">
        <ele>2823.3999023438</ele>
        <time>2021-03-21T12:19:09.000Z</time>
      </trkpt>
      <trkpt lat="44.98277" lon="6.03416">
        <ele>2823.6000976562</ele>
        <time>2021-03-21T12:19:10.000Z</time>
      </trkpt>
      <trkpt lat="44.98276" lon="6.03416">
        <ele>2823.8000488281</ele>
        <time>2021-03-21T12:19:11.000Z</time>
      </trkpt>
      <trkpt lat="44.98276" lon="6.03415">
        <ele>2823.8000488281</ele>
        <time>2021-03-21T12:19:12.000Z</time>
      </trkpt>
      <trkpt lat="44.98275" lon="6.03415">
        <ele>2824</ele>
        <time>2021-03-21T12:19:13.000Z</time>
      </trkpt>
      <trkpt lat="44.98274" lon="6.03415">
        <ele>2824.1999511719</ele>
        <time>2021-03-21T12:19:14.000Z</time>
      </trkpt>
      <trkpt lat="44.98274" lon="6.03414">
        <ele>2824.3999023438</ele>
        <time>2021-03-21T12:19:15.000Z</time>
      </trkpt>
      <trkpt lat="44.98273" lon="6.03414">
        <ele>2824.6000976562</ele>
        <time>2021-03-21T12:19:16.000Z</time>
      </trkpt>
      <trkpt lat="44.98273" lon="6.03413">
        <ele>2824.6000976562</ele>
        <time>2021-03-21T12:19:17.000Z</time>
      </trkpt>
      <trkpt lat="44.98273" lon="6.03413">
        <ele>2824.8000488281</ele>
        <time>2021-03-21T12:19:18.000Z</time>
      </trkpt>
      <trkpt lat="44.98272" lon="6.03412">
        <ele>2825</ele>
        <time>2021-03-21T12:19:19.000Z</time>
      </trkpt>
      <trkpt lat="44.98271" lon="6.03412">
        <ele>2825</ele>
        <time>2021-03-21T12:19:20.000Z</time>
      </trkpt>
      <trkpt lat="44.98271" lon="6.03411">
        <ele>2825</ele>
        <time>2021-03-21T12:19:21.000Z</time>
      </trkpt>
      <trkpt lat="44.98271" lon="6.03411">
        <ele>2825.1999511719</ele>
        <time>2021-03-21T12:19:22.000Z</time>
      </trkpt>
      <trkpt lat="44.9827" lon="6.0341">
        <ele>2825.3999023438</ele>
        <time>2021-03-21T12:19:23.000Z</time>
      </trkpt>
      <trkpt lat="44.98269" lon="6.0341">
        <ele>2825.6000976562</ele>
        <time>2021-03-21T12:19:24.000Z</time>
      </trkpt>
      <trkpt lat="44.98269" lon="6.03409">
        <ele>2825.6000976562</ele>
        <time>2021-03-21T12:19:25.000Z</time>
      </trkpt>
      <trkpt lat="44.98269" lon="6.03409">
        <ele>2825.6000976562</ele>
        <time>2021-03-21T12:19:26.000Z</time>
      </trkpt>
      <trkpt lat="44.98269" lon="6.03408">
        <ele>2825.6000976562</ele>
        <time>2021-03-21T12:19:27.000Z</time>
      </trkpt>
      <trkpt lat="44.98268" lon="6.03408">
        <ele>2825.6000976562</ele>
        <time>2021-03-21T12:19:28.000Z</time>
      </trkpt>
      <trkpt lat="44.98268" lon="6.03407">
        <ele>2825.8000488281</ele>
        <time>2021-03-21T12:19:29.000Z</time>
      </trkpt>
      <trkpt lat="44.98267" lon="6.03407">
        <ele>2825.8000488281</ele>
        <time>2021-03-21T12:19:30.000Z</time>
      </trkpt>
      <trkpt lat="44.98267" lon="6.03407">
        <ele>2826</ele>
        <time>2021-03-21T12:19:31.000Z</time>
      </trkpt>
      <trkpt lat="44.98266" lon="6.03406">
        <ele>2826.1999511719</ele>
        <time>2021-03-21T12:19:32.000Z</time>
      </trkpt>
      <trkpt lat="44.98266" lon="6.03406">
        <ele>2826.3999023438</ele>
        <time>2021-03-21T12:19:33.000Z</time>
      </trkpt>
      <trkpt lat="44.98266" lon="6.03406">
        <ele>2826.3999023438</ele>
        <time>2021-03-21T12:19:34.000Z</time>
      </trkpt>
      <trkpt lat="44.98265" lon="6.03405">
        <ele>2826.6000976562</ele>
        <time>2021-03-21T12:19:35.000Z</time>
      </trkpt>
      <trkpt lat="44.98264" lon="6.03405">
        <ele>2826.8000488281</ele>
        <time>2021-03-21T12:19:36.000Z</time>
      </trkpt>
      <trkpt lat="44.98264" lon="6.03405">
        <ele>2827</ele>
        <time>2021-03-21T12:19:37.000Z</time>
      </trkpt>
      <trkpt lat="44.98263" lon="6.03404">
        <ele>2827.3999023438</ele>
        <time>2021-03-21T12:19:38.000Z</time>
      </trkpt>
      <trkpt lat="44.98263" lon="6.03404">
        <ele>2827.6000976562</ele>
        <time>2021-03-21T12:19:39.000Z</time>
      </trkpt>
      <trkpt lat="44.98263" lon="6.03404">
        <ele>2827.6000976562</ele>
        <time>2021-03-21T12:19:40.000Z</time>
      </trkpt>
      <trkpt lat="44.98262" lon="6.03403">
        <ele>2827.8000488281</ele>
        <time>2021-03-21T12:19:41.000Z</time>
      </trkpt>
      <trkpt lat="44.98262" lon="6.03403">
        <ele>2828</ele>
        <time>2021-03-21T12:19:42.000Z</time>
      </trkpt>
      <trkpt lat="44.98261" lon="6.03402">
        <ele>2828.1999511719</ele>
        <time>2021-03-21T12:19:43.000Z</time>
      </trkpt>
      <trkpt lat="44.98261" lon="6.03401">
        <ele>2828.3999023438</ele>
        <time>2021-03-21T12:19:44.000Z</time>
      </trkpt>
      <trkpt lat="44.98261" lon="6.03401">
        <ele>2828.3999023438</ele>
        <time>2021-03-21T12:19:45.000Z</time>
      </trkpt>
      <trkpt lat="44.9826" lon="6.034">
        <ele>2828.6000976562</ele>
        <time>2021-03-21T12:19:46.000Z</time>
      </trkpt>
      <trkpt lat="44.9826" lon="6.034">
        <ele>2829</ele>
        <time>2021-03-21T12:19:47.000Z</time>
      </trkpt>
      <trkpt lat="44.98259" lon="6.03399">
        <ele>2829</ele>
        <time>2021-03-21T12:19:48.000Z</time>
      </trkpt>
      <trkpt lat="44.98259" lon="6.03398">
        <ele>2829.3999023438</ele>
        <time>2021-03-21T12:19:49.000Z</time>
      </trkpt>
      <trkpt lat="44.98259" lon="6.03398">
        <ele>2829.6000976562</ele>
        <time>2021-03-21T12:19:50.000Z</time>
      </trkpt>
      <trkpt lat="44.98258" lon="6.03397">
        <ele>2829.8000488281</ele>
        <time>2021-03-21T12:19:51.000Z</time>
      </trkpt>
      <trkpt lat="44.98258" lon="6.03397">
        <ele>2830</ele>
        <time>2021-03-21T12:19:52.000Z</time>
      </trkpt>
      <trkpt lat="44.98257" lon="6.03396">
        <ele>2830.1999511719</ele>
        <time>2021-03-21T12:19:53.000Z</time>
      </trkpt>
      <trkpt lat="44.98257" lon="6.03395">
        <ele>2830.3999023438</ele>
        <time>2021-03-21T12:19:54.000Z</time>
      </trkpt>
      <trkpt lat="44.98257" lon="6.03395">
        <ele>2830.3999023438</ele>
        <time>2021-03-21T12:19:55.000Z</time>
      </trkpt>
      <trkpt lat="44.98256" lon="6.03394">
        <ele>2830.8000488281</ele>
        <time>2021-03-21T12:19:56.000Z</time>
      </trkpt>
      <trkpt lat="44.98256" lon="6.03393">
        <ele>2831</ele>
        <time>2021-03-21T12:19:57.000Z</time>
      </trkpt>
      <trkpt lat="44.98256" lon="6.03393">
        <ele>2831.1999511719</ele>
        <time>2021-03-21T12:19:58.000Z</time>
      </trkpt>
      <trkpt lat="44.98255" lon="6.03392">
        <ele>2831.3999023438</ele>
        <time>2021-03-21T12:19:59.000Z</time>
      </trkpt>
      <trkpt lat="44.98255" lon="6.03391">
        <ele>2831.6000976562</ele>
        <time>2021-03-21T12:20:00.000Z</time>
      </trkpt>
      <trkpt lat="44.98255" lon="6.03391">
        <ele>2831.6000976562</ele>
        <time>2021-03-21T12:20:01.000Z</time>
      </trkpt>
      <trkpt lat="44.98255" lon="6.0339">
        <ele>2831.6000976562</ele>
        <time>2021-03-21T12:20:02.000Z</time>
      </trkpt>
      <trkpt lat="44.98255" lon="6.03389">
        <ele>2831.6000976562</ele>
        <time>2021-03-21T12:20:03.000Z</time>
      </trkpt>
      <trkpt lat="44.98255" lon="6.03388">
        <ele>2831.6000976562</ele>
        <time>2021-03-21T12:20:04.000Z</time>
      </trkpt>
      <trkpt lat="44.98255" lon="6.03388">
        <ele>2831.8000488281</ele>
        <time>2021-03-21T12:20:05.000Z</time>
      </trkpt>
      <trkpt lat="44.98254" lon="6.03387">
        <ele>2831.8000488281</ele>
        <time>2021-03-21T12:20:06.000Z</time>
      </trkpt>
      <trkpt lat="44.98254" lon="6.03386">
        <ele>2831.8000488281</ele>
        <time>2021-03-21T12:20:07.000Z</time>
      </trkpt>
      <trkpt lat="44.98254" lon="6.03386">
        <ele>2832</ele>
        <time>2021-03-21T12:20:08.000Z</time>
      </trkpt>
      <trkpt lat="44.98254" lon="6.03386">
        <ele>2832</ele>
        <time>2021-03-21T12:20:09.000Z</time>
      </trkpt>
      <trkpt lat="44.98254" lon="6.03386">
        <ele>2832</ele>
        <time>2021-03-21T12:20:10.000Z</time>
      </trkpt>
      <trkpt lat="44.98254" lon="6.03386">
        <ele>2832</ele>
        <time>2021-03-21T12:20:11.000Z</time>
      </trkpt>
      <trkpt lat="44.98254" lon="6.03386">
        <ele>2832</ele>
        <time>2021-03-21T12:20:12.000Z</time>
      </trkpt>
      <trkpt lat="44.98254" lon="6.03386">
        <ele>2832</ele>
        <time>2021-03-21T12:20:13.000Z</time>
      </trkpt>
      <trkpt lat="44.98254" lon="6.03386">
        <ele>2832</ele>
        <time>2021-03-21T12:20:14.000Z</time>
      </trkpt>
      <trkpt lat="44.98254" lon="6.03386">
        <ele>2832</ele>
        <time>2021-03-21T12:20:15.000Z</time>
      </trkpt>
      <trkpt lat="44.98254" lon="6.03386">
        <ele>2832</ele>
        <time>2021-03-21T12:20:16.000Z</time>
      </trkpt>
      <trkpt lat="44.98254" lon="6.03386">
        <ele>2832</ele>
        <time>2021-03-21T12:20:17.000Z</time>
      </trkpt>
      <trkpt lat="44.98254" lon="6.03386">
        <ele>2832.1999511719</ele>
        <time>2021-03-21T12:20:18.000Z</time>
      </trkpt>
      <trkpt lat="44.98253" lon="6.03386">
        <ele>2832.3999023438</ele>
        <time>2021-03-21T12:20:19.000Z</time>
      </trkpt>
      <trkpt lat="44.98253" lon="6.03386">
        <ele>2832.3999023438</ele>
        <time>2021-03-21T12:20:20.000Z</time>
      </trkpt>
      <trkpt lat="44.98253" lon="6.03385">
        <ele>2832.6000976562</ele>
        <time>2021-03-21T12:20:21.000Z</time>
      </trkpt>
      <trkpt lat="44.98253" lon="6.03385">
        <ele>2832.6000976562</ele>
        <time>2021-03-21T12:20:22.000Z</time>
      </trkpt>
      <trkpt lat="44.98253" lon="6.03384">
        <ele>2832.8000488281</ele>
        <time>2021-03-21T12:20:23.000Z</time>
      </trkpt>
      <trkpt lat="44.98253" lon="6.03383">
        <ele>2832.8000488281</ele>
        <time>2021-03-21T12:20:24.000Z</time>
      </trkpt>
      <trkpt lat="44.98253" lon="6.03382">
        <ele>2832.8000488281</ele>
        <time>2021-03-21T12:20:25.000Z</time>
      </trkpt>
      <trkpt lat="44.98253" lon="6.03381">
        <ele>2832.8000488281</ele>
        <time>2021-03-21T12:20:26.000Z</time>
      </trkpt>
      <trkpt lat="44.98253" lon="6.03381">
        <ele>2832.8000488281</ele>
        <time>2021-03-21T12:20:27.000Z</time>
      </trkpt>
      <trkpt lat="44.98253" lon="6.0338">
        <ele>2832.8000488281</ele>
        <time>2021-03-21T12:20:28.000Z</time>
      </trkpt>
      <trkpt lat="44.98253" lon="6.03379">
        <ele>2833</ele>
        <time>2021-03-21T12:20:29.000Z</time>
      </trkpt>
      <trkpt lat="44.98253" lon="6.03378">
        <ele>2833</ele>
        <time>2021-03-21T12:20:30.000Z</time>
      </trkpt>
      <trkpt lat="44.98253" lon="6.03378">
        <ele>2832.8000488281</ele>
        <time>2021-03-21T12:20:31.000Z</time>
      </trkpt>
      <trkpt lat="44.98253" lon="6.03377">
        <ele>2832.8000488281</ele>
        <time>2021-03-21T12:20:32.000Z</time>
      </trkpt>
      <trkpt lat="44.98253" lon="6.03376">
        <ele>2832.8000488281</ele>
        <time>2021-03-21T12:20:33.000Z</time>
      </trkpt>
      <trkpt lat="44.98253" lon="6.03375">
        <ele>2832.8000488281</ele>
        <time>2021-03-21T12:20:34.000Z</time>
      </trkpt>
      <trkpt lat="44.98253" lon="6.03374">
        <ele>2832.6000976562</ele>
        <time>2021-03-21T12:20:35.000Z</time>
      </trkpt>
      <trkpt lat="44.98253" lon="6.03373">
        <ele>2832.6000976562</ele>
        <time>2021-03-21T12:20:36.000Z</time>
      </trkpt>
      <trkpt lat="44.98253" lon="6.03372">
        <ele>2832.6000976562</ele>
        <time>2021-03-21T12:20:37.000Z</time>
      </trkpt>
      <trkpt lat="44.98254" lon="6.03371">
        <ele>2832.3999023438</ele>
        <time>2021-03-21T12:20:38.000Z</time>
      </trkpt>
      <trkpt lat="44.98254" lon="6.03371">
        <ele>2832.1999511719</ele>
        <time>2021-03-21T12:20:39.000Z</time>
      </trkpt>
      <trkpt lat="44.98253" lon="6.0337">
        <ele>2832.1999511719</ele>
        <time>2021-03-21T12:20:40.000Z</time>
      </trkpt>
      <trkpt lat="44.98253" lon="6.0337">
        <ele>2832.3999023438</ele>
        <time>2021-03-21T12:20:41.000Z</time>
      </trkpt>
      <trkpt lat="44.98253" lon="6.03369">
        <ele>2832.1999511719</ele>
        <time>2021-03-21T12:20:42.000Z</time>
      </trkpt>
      <trkpt lat="44.98253" lon="6.03368">
        <ele>2832.1999511719</ele>
        <time>2021-03-21T12:20:43.000Z</time>
      </trkpt>
      <trkpt lat="44.98253" lon="6.03368">
        <ele>2832.1999511719</ele>
        <time>2021-03-21T12:20:44.000Z</time>
      </trkpt>
      <trkpt lat="44.98254" lon="6.03367">
        <ele>2832</ele>
        <time>2021-03-21T12:20:45.000Z</time>
      </trkpt>
      <trkpt lat="44.98254" lon="6.03367">
        <ele>2832</ele>
        <time>2021-03-21T12:20:46.000Z</time>
      </trkpt>
      <trkpt lat="44.98254" lon="6.03366">
        <ele>2832</ele>
        <time>2021-03-21T12:20:47.000Z</time>
      </trkpt>
      <trkpt lat="44.98254" lon="6.03365">
        <ele>2832</ele>
        <time>2021-03-21T12:20:48.000Z</time>
      </trkpt>
      <trkpt lat="44.98254" lon="6.03365">
        <ele>2832.1999511719</ele>
        <time>2021-03-21T12:20:49.000Z</time>
      </trkpt>
      <trkpt lat="44.98254" lon="6.03364">
        <ele>2832.1999511719</ele>
        <time>2021-03-21T12:20:50.000Z</time>
      </trkpt>
      <trkpt lat="44.98254" lon="6.03363">
        <ele>2832.3999023438</ele>
        <time>2021-03-21T12:20:51.000Z</time>
      </trkpt>
      <trkpt lat="44.98254" lon="6.03362">
        <ele>2832.6000976562</ele>
        <time>2021-03-21T12:20:52.000Z</time>
      </trkpt>
      <trkpt lat="44.98254" lon="6.03362">
        <ele>2832.6000976562</ele>
        <time>2021-03-21T12:20:53.000Z</time>
      </trkpt>
      <trkpt lat="44.98254" lon="6.03361">
        <ele>2832.8000488281</ele>
        <time>2021-03-21T12:20:54.000Z</time>
      </trkpt>
      <trkpt lat="44.98254" lon="6.0336">
        <ele>2832.8000488281</ele>
        <time>2021-03-21T12:20:55.000Z</time>
      </trkpt>
      <trkpt lat="44.98255" lon="6.03359">
        <ele>2833</ele>
        <time>2021-03-21T12:20:56.000Z</time>
      </trkpt>
      <trkpt lat="44.98255" lon="6.03358">
        <ele>2833</ele>
        <time>2021-03-21T12:20:57.000Z</time>
      </trkpt>
      <trkpt lat="44.98255" lon="6.03358">
        <ele>2833.1999511719</ele>
        <time>2021-03-21T12:20:58.000Z</time>
      </trkpt>
      <trkpt lat="44.98255" lon="6.03357">
        <ele>2833.1999511719</ele>
        <time>2021-03-21T12:20:59.000Z</time>
      </trkpt>
      <trkpt lat="44.98255" lon="6.03357">
        <ele>2833.1999511719</ele>
        <time>2021-03-21T12:21:00.000Z</time>
      </trkpt>
      <trkpt lat="44.98255" lon="6.03357">
        <ele>2833.1999511719</ele>
        <time>2021-03-21T12:21:01.000Z</time>
      </trkpt>
      <trkpt lat="44.98255" lon="6.03357">
        <ele>2833.1999511719</ele>
        <time>2021-03-21T12:21:02.000Z</time>
      </trkpt>
      <trkpt lat="44.98255" lon="6.03357">
        <ele>2833.1999511719</ele>
        <time>2021-03-21T12:21:03.000Z</time>
      </trkpt>
      <trkpt lat="44.98255" lon="6.03357">
        <ele>2833.1999511719</ele>
        <time>2021-03-21T12:21:04.000Z</time>
      </trkpt>
      <trkpt lat="44.98255" lon="6.03357">
        <ele>2833.1999511719</ele>
        <time>2021-03-21T12:21:05.000Z</time>
      </trkpt>
      <trkpt lat="44.98255" lon="6.03357">
        <ele>2833.1999511719</ele>
        <time>2021-03-21T12:21:06.000Z</time>
      </trkpt>
      <trkpt lat="44.98255" lon="6.03357">
        <ele>2833.3999023438</ele>
        <time>2021-03-21T12:21:07.000Z</time>
      </trkpt>
      <trkpt lat="44.98255" lon="6.03357">
        <ele>2833.3999023438</ele>
        <time>2021-03-21T12:21:08.000Z</time>
      </trkpt>
      <trkpt lat="44.98254" lon="6.03356">
        <ele>2833.6000976562</ele>
        <time>2021-03-21T12:21:09.000Z</time>
      </trkpt>
      <trkpt lat="44.98254" lon="6.03356">
        <ele>2833.6000976562</ele>
        <time>2021-03-21T12:21:10.000Z</time>
      </trkpt>
      <trkpt lat="44.98254" lon="6.03356">
        <ele>2833.6000976562</ele>
        <time>2021-03-21T12:21:11.000Z</time>
      </trkpt>
      <trkpt lat="44.98254" lon="6.03356">
        <ele>2833.6000976562</ele>
        <time>2021-03-21T12:21:12.000Z</time>
      </trkpt>
      <trkpt lat="44.98254" lon="6.03357">
        <ele>2833.3999023438</ele>
        <time>2021-03-21T12:21:13.000Z</time>
      </trkpt>
      <trkpt lat="44.98254" lon="6.03356">
        <ele>2833.6000976562</ele>
        <time>2021-03-21T12:21:14.000Z</time>
      </trkpt>
      <trkpt lat="44.98254" lon="6.03356">
        <ele>2833.6000976562</ele>
        <time>2021-03-21T12:21:15.000Z</time>
      </trkpt>
      <trkpt lat="44.98254" lon="6.03355">
        <ele>2833.8000488281</ele>
        <time>2021-03-21T12:21:16.000Z</time>
      </trkpt>
      <trkpt lat="44.98254" lon="6.03355">
        <ele>2834</ele>
        <time>2021-03-21T12:21:17.000Z</time>
      </trkpt>
      <trkpt lat="44.98254" lon="6.03354">
        <ele>2834</ele>
        <time>2021-03-21T12:21:18.000Z</time>
      </trkpt>
      <trkpt lat="44.98254" lon="6.03353">
        <ele>2834.1999511719</ele>
        <time>2021-03-21T12:21:19.000Z</time>
      </trkpt>
      <trkpt lat="44.98254" lon="6.03353">
        <ele>2834.1999511719</ele>
        <time>2021-03-21T12:21:20.000Z</time>
      </trkpt>
      <trkpt lat="44.98254" lon="6.03352">
        <ele>2834.3999023438</ele>
        <time>2021-03-21T12:21:21.000Z</time>
      </trkpt>
      <trkpt lat="44.98253" lon="6.03351">
        <ele>2834.6000976562</ele>
        <time>2021-03-21T12:21:22.000Z</time>
      </trkpt>
      <trkpt lat="44.98253" lon="6.0335">
        <ele>2834.8000488281</ele>
        <time>2021-03-21T12:21:23.000Z</time>
      </trkpt>
      <trkpt lat="44.98253" lon="6.03349">
        <ele>2835.1999511719</ele>
        <time>2021-03-21T12:21:24.000Z</time>
      </trkpt>
      <trkpt lat="44.98253" lon="6.03349">
        <ele>2835.1999511719</ele>
        <time>2021-03-21T12:21:25.000Z</time>
      </trkpt>
      <trkpt lat="44.98252" lon="6.03349">
        <ele>2835.3999023438</ele>
        <time>2021-03-21T12:21:26.000Z</time>
      </trkpt>
      <trkpt lat="44.98252" lon="6.03348">
        <ele>2835.6000976562</ele>
        <time>2021-03-21T12:21:27.000Z</time>
      </trkpt>
      <trkpt lat="44.98251" lon="6.03348">
        <ele>2835.6000976562</ele>
        <time>2021-03-21T12:21:28.000Z</time>
      </trkpt>
      <trkpt lat="44.98251" lon="6.03348">
        <ele>2835.8000488281</ele>
        <time>2021-03-21T12:21:29.000Z</time>
      </trkpt>
      <trkpt lat="44.9825" lon="6.03348">
        <ele>2836</ele>
        <time>2021-03-21T12:21:30.000Z</time>
      </trkpt>
      <trkpt lat="44.9825" lon="6.03347">
        <ele>2836</ele>
        <time>2021-03-21T12:21:31.000Z</time>
      </trkpt>
      <trkpt lat="44.9825" lon="6.03347">
        <ele>2836.1999511719</ele>
        <time>2021-03-21T12:21:32.000Z</time>
      </trkpt>
      <trkpt lat="44.98249" lon="6.03347">
        <ele>2836.3999023438</ele>
        <time>2021-03-21T12:21:33.000Z</time>
      </trkpt>
      <trkpt lat="44.98249" lon="6.03346">
        <ele>2836.3999023438</ele>
        <time>2021-03-21T12:21:34.000Z</time>
      </trkpt>
      <trkpt lat="44.98248" lon="6.03346">
        <ele>2836.6000976562</ele>
        <time>2021-03-21T12:21:35.000Z</time>
      </trkpt>
      <trkpt lat="44.98248" lon="6.03346">
        <ele>2836.8000488281</ele>
        <time>2021-03-21T12:21:36.000Z</time>
      </trkpt>
      <trkpt lat="44.98247" lon="6.03345">
        <ele>2837</ele>
        <time>2021-03-21T12:21:37.000Z</time>
      </trkpt>
      <trkpt lat="44.98247" lon="6.03345">
        <ele>2837</ele>
        <time>2021-03-21T12:21:38.000Z</time>
      </trkpt>
      <trkpt lat="44.98246" lon="6.03345">
        <ele>2837.1999511719</ele>
        <time>2021-03-21T12:21:39.000Z</time>
      </trkpt>
      <trkpt lat="44.98246" lon="6.03345">
        <ele>2837.3999023438</ele>
        <time>2021-03-21T12:21:40.000Z</time>
      </trkpt>
      <trkpt lat="44.98245" lon="6.03344">
        <ele>2837.6000976562</ele>
        <time>2021-03-21T12:21:41.000Z</time>
      </trkpt>
      <trkpt lat="44.98245" lon="6.03344">
        <ele>2837.6000976562</ele>
        <time>2021-03-21T12:21:42.000Z</time>
      </trkpt>
      <trkpt lat="44.98244" lon="6.03343">
        <ele>2838</ele>
        <time>2021-03-21T12:21:43.000Z</time>
      </trkpt>
      <trkpt lat="44.98244" lon="6.03343">
        <ele>2838</ele>
        <time>2021-03-21T12:21:44.000Z</time>
      </trkpt>
      <trkpt lat="44.98243" lon="6.03342">
        <ele>2838.3999023438</ele>
        <time>2021-03-21T12:21:45.000Z</time>
      </trkpt>
      <trkpt lat="44.98243" lon="6.03341">
        <ele>2838.6000976562</ele>
        <time>2021-03-21T12:21:46.000Z</time>
      </trkpt>
      <trkpt lat="44.98242" lon="6.03341">
        <ele>2838.8000488281</ele>
        <time>2021-03-21T12:21:47.000Z</time>
      </trkpt>
      <trkpt lat="44.98241" lon="6.03341">
        <ele>2838.8000488281</ele>
        <time>2021-03-21T12:21:48.000Z</time>
      </trkpt>
      <trkpt lat="44.98241" lon="6.03339">
        <ele>2839.1999511719</ele>
        <time>2021-03-21T12:21:49.000Z</time>
      </trkpt>
      <trkpt lat="44.9824" lon="6.03339">
        <ele>2839.3999023438</ele>
        <time>2021-03-21T12:21:50.000Z</time>
      </trkpt>
      <trkpt lat="44.98239" lon="6.03339">
        <ele>2839.6000976562</ele>
        <time>2021-03-21T12:21:51.000Z</time>
      </trkpt>
      <trkpt lat="44.98239" lon="6.03338">
        <ele>2839.8000488281</ele>
        <time>2021-03-21T12:21:52.000Z</time>
      </trkpt>
      <trkpt lat="44.98239" lon="6.03337">
        <ele>2839.8000488281</ele>
        <time>2021-03-21T12:21:53.000Z</time>
      </trkpt>
      <trkpt lat="44.98239" lon="6.03337">
        <ele>2840</ele>
        <time>2021-03-21T12:21:54.000Z</time>
      </trkpt>
      <trkpt lat="44.98239" lon="6.03337">
        <ele>2840</ele>
        <time>2021-03-21T12:21:55.000Z</time>
      </trkpt>
      <trkpt lat="44.98239" lon="6.03337">
        <ele>2840</ele>
        <time>2021-03-21T12:21:56.000Z</time>
      </trkpt>
      <trkpt lat="44.98239" lon="6.03337">
        <ele>2840</ele>
        <time>2021-03-21T12:21:57.000Z</time>
      </trkpt>
      <trkpt lat="44.98239" lon="6.03337">
        <ele>2840</ele>
        <time>2021-03-21T12:21:58.000Z</time>
      </trkpt>
      <trkpt lat="44.98238" lon="6.03337">
        <ele>2840</ele>
        <time>2021-03-21T12:21:59.000Z</time>
      </trkpt>
      <trkpt lat="44.98238" lon="6.03337">
        <ele>2840</ele>
        <time>2021-03-21T12:22:00.000Z</time>
      </trkpt>
      <trkpt lat="44.98238" lon="6.03336">
        <ele>2840.1999511719</ele>
        <time>2021-03-21T12:22:01.000Z</time>
      </trkpt>
      <trkpt lat="44.98237" lon="6.03336">
        <ele>2840.6000976562</ele>
        <time>2021-03-21T12:22:02.000Z</time>
      </trkpt>
      <trkpt lat="44.98237" lon="6.03335">
        <ele>2840.8000488281</ele>
        <time>2021-03-21T12:22:03.000Z</time>
      </trkpt>
      <trkpt lat="44.98236" lon="6.03334">
        <ele>2840.8000488281</ele>
        <time>2021-03-21T12:22:04.000Z</time>
      </trkpt>
      <trkpt lat="44.98236" lon="6.03334">
        <ele>2841</ele>
        <time>2021-03-21T12:22:05.000Z</time>
      </trkpt>
      <trkpt lat="44.98235" lon="6.03333">
        <ele>2841.3999023438</ele>
        <time>2021-03-21T12:22:06.000Z</time>
      </trkpt>
      <trkpt lat="44.98235" lon="6.03332">
        <ele>2841.6000976562</ele>
        <time>2021-03-21T12:22:07.000Z</time>
      </trkpt>
      <trkpt lat="44.98235" lon="6.03331">
        <ele>2842</ele>
        <time>2021-03-21T12:22:08.000Z</time>
      </trkpt>
      <trkpt lat="44.98234" lon="6.03331">
        <ele>2842.1999511719</ele>
        <time>2021-03-21T12:22:09.000Z</time>
      </trkpt>
      <trkpt lat="44.98234" lon="6.0333">
        <ele>2842.6000976562</ele>
        <time>2021-03-21T12:22:10.000Z</time>
      </trkpt>
      <trkpt lat="44.98233" lon="6.03329">
        <ele>2842.8000488281</ele>
        <time>2021-03-21T12:22:11.000Z</time>
      </trkpt>
      <trkpt lat="44.98233" lon="6.03329">
        <ele>2843</ele>
        <time>2021-03-21T12:22:12.000Z</time>
      </trkpt>
      <trkpt lat="44.98233" lon="6.03328">
        <ele>2843.3999023438</ele>
        <time>2021-03-21T12:22:13.000Z</time>
      </trkpt>
      <trkpt lat="44.98233" lon="6.03326">
        <ele>2843.6000976562</ele>
        <time>2021-03-21T12:22:14.000Z</time>
      </trkpt>
      <trkpt lat="44.98232" lon="6.03325">
        <ele>2844</ele>
        <time>2021-03-21T12:22:15.000Z</time>
      </trkpt>
      <trkpt lat="44.98232" lon="6.03325">
        <ele>2844.1999511719</ele>
        <time>2021-03-21T12:22:16.000Z</time>
      </trkpt>
      <trkpt lat="44.98231" lon="6.03324">
        <ele>2844.6000976562</ele>
        <time>2021-03-21T12:22:17.000Z</time>
      </trkpt>
      <trkpt lat="44.98231" lon="6.03324">
        <ele>2844.8000488281</ele>
        <time>2021-03-21T12:22:18.000Z</time>
      </trkpt>
      <trkpt lat="44.98231" lon="6.03323">
        <ele>2845</ele>
        <time>2021-03-21T12:22:19.000Z</time>
      </trkpt>
      <trkpt lat="44.98231" lon="6.03322">
        <ele>2845.1999511719</ele>
        <time>2021-03-21T12:22:20.000Z</time>
      </trkpt>
      <trkpt lat="44.98231" lon="6.03321">
        <ele>2845.1999511719</ele>
        <time>2021-03-21T12:22:21.000Z</time>
      </trkpt>
      <trkpt lat="44.98231" lon="6.03321">
        <ele>2845.3999023438</ele>
        <time>2021-03-21T12:22:22.000Z</time>
      </trkpt>
      <trkpt lat="44.9823" lon="6.0332">
        <ele>2845.8000488281</ele>
        <time>2021-03-21T12:22:23.000Z</time>
      </trkpt>
      <trkpt lat="44.9823" lon="6.0332">
        <ele>2846.1999511719</ele>
        <time>2021-03-21T12:22:24.000Z</time>
      </trkpt>
      <trkpt lat="44.98229" lon="6.03319">
        <ele>2846.6000976562</ele>
        <time>2021-03-21T12:22:25.000Z</time>
      </trkpt>
      <trkpt lat="44.98229" lon="6.03319">
        <ele>2847</ele>
        <time>2021-03-21T12:22:26.000Z</time>
      </trkpt>
      <trkpt lat="44.98229" lon="6.03318">
        <ele>2847</ele>
        <time>2021-03-21T12:22:27.000Z</time>
      </trkpt>
      <trkpt lat="44.98229" lon="6.03317">
        <ele>2847.3999023438</ele>
        <time>2021-03-21T12:22:28.000Z</time>
      </trkpt>
      <trkpt lat="44.98229" lon="6.03317">
        <ele>2847.3999023438</ele>
        <time>2021-03-21T12:22:29.000Z</time>
      </trkpt>
      <trkpt lat="44.98229" lon="6.03316">
        <ele>2847.8000488281</ele>
        <time>2021-03-21T12:22:30.000Z</time>
      </trkpt>
      <trkpt lat="44.98229" lon="6.03316">
        <ele>2848</ele>
        <time>2021-03-21T12:22:31.000Z</time>
      </trkpt>
      <trkpt lat="44.98228" lon="6.03315">
        <ele>2848.1999511719</ele>
        <time>2021-03-21T12:22:32.000Z</time>
      </trkpt>
      <trkpt lat="44.98228" lon="6.03314">
        <ele>2848.6000976562</ele>
        <time>2021-03-21T12:22:33.000Z</time>
      </trkpt>
      <trkpt lat="44.98228" lon="6.03314">
        <ele>2848.8000488281</ele>
        <time>2021-03-21T12:22:34.000Z</time>
      </trkpt>
      <trkpt lat="44.98228" lon="6.03313">
        <ele>2849.1999511719</ele>
        <time>2021-03-21T12:22:35.000Z</time>
      </trkpt>
      <trkpt lat="44.98227" lon="6.03312">
        <ele>2849.6000976562</ele>
        <time>2021-03-21T12:22:36.000Z</time>
      </trkpt>
      <trkpt lat="44.98227" lon="6.03311">
        <ele>2849.8000488281</ele>
        <time>2021-03-21T12:22:37.000Z</time>
      </trkpt>
      <trkpt lat="44.98227" lon="6.0331">
        <ele>2850</ele>
        <time>2021-03-21T12:22:38.000Z</time>
      </trkpt>
      <trkpt lat="44.98227" lon="6.0331">
        <ele>2850.1999511719</ele>
        <time>2021-03-21T12:22:39.000Z</time>
      </trkpt>
      <trkpt lat="44.98227" lon="6.03309">
        <ele>2850.3999023438</ele>
        <time>2021-03-21T12:22:40.000Z</time>
      </trkpt>
      <trkpt lat="44.98227" lon="6.03308">
        <ele>2850.8000488281</ele>
        <time>2021-03-21T12:22:41.000Z</time>
      </trkpt>
      <trkpt lat="44.98227" lon="6.03307">
        <ele>2851</ele>
        <time>2021-03-21T12:22:42.000Z</time>
      </trkpt>
      <trkpt lat="44.98226" lon="6.03307">
        <ele>2851.3999023438</ele>
        <time>2021-03-21T12:22:43.000Z</time>
      </trkpt>
      <trkpt lat="44.98226" lon="6.03306">
        <ele>2851.6000976562</ele>
        <time>2021-03-21T12:22:44.000Z</time>
      </trkpt>
      <trkpt lat="44.98226" lon="6.03305">
        <ele>2852</ele>
        <time>2021-03-21T12:22:45.000Z</time>
      </trkpt>
      <trkpt lat="44.98225" lon="6.03305">
        <ele>2852.3999023438</ele>
        <time>2021-03-21T12:22:46.000Z</time>
      </trkpt>
      <trkpt lat="44.98225" lon="6.03303">
        <ele>2852.8000488281</ele>
        <time>2021-03-21T12:22:47.000Z</time>
      </trkpt>
      <trkpt lat="44.98225" lon="6.03303">
        <ele>2853.1999511719</ele>
        <time>2021-03-21T12:22:48.000Z</time>
      </trkpt>
      <trkpt lat="44.98224" lon="6.03302">
        <ele>2853.3999023438</ele>
        <time>2021-03-21T12:22:49.000Z</time>
      </trkpt>
      <trkpt lat="44.98224" lon="6.03302">
        <ele>2853.6000976562</ele>
        <time>2021-03-21T12:22:50.000Z</time>
      </trkpt>
      <trkpt lat="44.98224" lon="6.03301">
        <ele>2853.8000488281</ele>
        <time>2021-03-21T12:22:51.000Z</time>
      </trkpt>
      <trkpt lat="44.98224" lon="6.03301">
        <ele>2854</ele>
        <time>2021-03-21T12:22:52.000Z</time>
      </trkpt>
      <trkpt lat="44.98224" lon="6.033">
        <ele>2854.3999023438</ele>
        <time>2021-03-21T12:22:53.000Z</time>
      </trkpt>
      <trkpt lat="44.98223" lon="6.03299">
        <ele>2854.6000976562</ele>
        <time>2021-03-21T12:22:54.000Z</time>
      </trkpt>
      <trkpt lat="44.98223" lon="6.03299">
        <ele>2854.8000488281</ele>
        <time>2021-03-21T12:22:55.000Z</time>
      </trkpt>
      <trkpt lat="44.98223" lon="6.03298">
        <ele>2855</ele>
        <time>2021-03-21T12:22:56.000Z</time>
      </trkpt>
      <trkpt lat="44.98223" lon="6.03297">
        <ele>2855.1999511719</ele>
        <time>2021-03-21T12:22:57.000Z</time>
      </trkpt>
      <trkpt lat="44.98223" lon="6.03297">
        <ele>2855.3999023438</ele>
        <time>2021-03-21T12:22:58.000Z</time>
      </trkpt>
      <trkpt lat="44.98223" lon="6.03296">
        <ele>2855.6000976562</ele>
        <time>2021-03-21T12:22:59.000Z</time>
      </trkpt>
      <trkpt lat="44.98223" lon="6.03295">
        <ele>2855.8000488281</ele>
        <time>2021-03-21T12:23:00.000Z</time>
      </trkpt>
      <trkpt lat="44.98222" lon="6.03295">
        <ele>2856.1999511719</ele>
        <time>2021-03-21T12:23:01.000Z</time>
      </trkpt>
      <trkpt lat="44.98222" lon="6.03294">
        <ele>2856.3999023438</ele>
        <time>2021-03-21T12:23:02.000Z</time>
      </trkpt>
      <trkpt lat="44.98222" lon="6.03293">
        <ele>2857</ele>
        <time>2021-03-21T12:23:03.000Z</time>
      </trkpt>
      <trkpt lat="44.98222" lon="6.03292">
        <ele>2857.1999511719</ele>
        <time>2021-03-21T12:23:04.000Z</time>
      </trkpt>
      <trkpt lat="44.98221" lon="6.03291">
        <ele>2857.8000488281</ele>
        <time>2021-03-21T12:23:05.000Z</time>
      </trkpt>
      <trkpt lat="44.98221" lon="6.03291">
        <ele>2858</ele>
        <time>2021-03-21T12:23:06.000Z</time>
      </trkpt>
      <trkpt lat="44.98221" lon="6.0329">
        <ele>2858.1999511719</ele>
        <time>2021-03-21T12:23:07.000Z</time>
      </trkpt>
      <trkpt lat="44.98221" lon="6.03289">
        <ele>2858.3999023438</ele>
        <time>2021-03-21T12:23:08.000Z</time>
      </trkpt>
      <trkpt lat="44.98221" lon="6.03289">
        <ele>2858.6000976562</ele>
        <time>2021-03-21T12:23:09.000Z</time>
      </trkpt>
      <trkpt lat="44.9822" lon="6.03288">
        <ele>2859</ele>
        <time>2021-03-21T12:23:10.000Z</time>
      </trkpt>
      <trkpt lat="44.9822" lon="6.03287">
        <ele>2859.3999023438</ele>
        <time>2021-03-21T12:23:11.000Z</time>
      </trkpt>
      <trkpt lat="44.9822" lon="6.03287">
        <ele>2859.8000488281</ele>
        <time>2021-03-21T12:23:12.000Z</time>
      </trkpt>
      <trkpt lat="44.9822" lon="6.03286">
        <ele>2860.1999511719</ele>
        <time>2021-03-21T12:23:13.000Z</time>
      </trkpt>
      <trkpt lat="44.9822" lon="6.03285">
        <ele>2860.3999023438</ele>
        <time>2021-03-21T12:23:14.000Z</time>
      </trkpt>
      <trkpt lat="44.98219" lon="6.03285">
        <ele>2860.6000976562</ele>
        <time>2021-03-21T12:23:15.000Z</time>
      </trkpt>
      <trkpt lat="44.98219" lon="6.03284">
        <ele>2860.8000488281</ele>
        <time>2021-03-21T12:23:16.000Z</time>
      </trkpt>
      <trkpt lat="44.98219" lon="6.03283">
        <ele>2861.1999511719</ele>
        <time>2021-03-21T12:23:17.000Z</time>
      </trkpt>
      <trkpt lat="44.98219" lon="6.03282">
        <ele>2861.3999023438</ele>
        <time>2021-03-21T12:23:18.000Z</time>
      </trkpt>
      <trkpt lat="44.98219" lon="6.03281">
        <ele>2861.8000488281</ele>
        <time>2021-03-21T12:23:19.000Z</time>
      </trkpt>
      <trkpt lat="44.98219" lon="6.03281">
        <ele>2862</ele>
        <time>2021-03-21T12:23:20.000Z</time>
      </trkpt>
      <trkpt lat="44.98219" lon="6.0328">
        <ele>2862.3999023438</ele>
        <time>2021-03-21T12:23:21.000Z</time>
      </trkpt>
      <trkpt lat="44.98218" lon="6.0328">
        <ele>2862.8000488281</ele>
        <time>2021-03-21T12:23:22.000Z</time>
      </trkpt>
      <trkpt lat="44.98218" lon="6.03279">
        <ele>2863.1999511719</ele>
        <time>2021-03-21T12:23:23.000Z</time>
      </trkpt>
      <trkpt lat="44.98218" lon="6.03278">
        <ele>2863.3999023438</ele>
        <time>2021-03-21T12:23:24.000Z</time>
      </trkpt>
      <trkpt lat="44.98218" lon="6.03278">
        <ele>2863.8000488281</ele>
        <time>2021-03-21T12:23:25.000Z</time>
      </trkpt>
      <trkpt lat="44.98218" lon="6.03277">
        <ele>2863.8000488281</ele>
        <time>2021-03-21T12:23:26.000Z</time>
      </trkpt>
      <trkpt lat="44.98218" lon="6.03276">
        <ele>2864.1999511719</ele>
        <time>2021-03-21T12:23:27.000Z</time>
      </trkpt>
      <trkpt lat="44.98218" lon="6.03275">
        <ele>2864.3999023438</ele>
        <time>2021-03-21T12:23:28.000Z</time>
      </trkpt>
      <trkpt lat="44.98217" lon="6.03274">
        <ele>2864.8000488281</ele>
        <time>2021-03-21T12:23:29.000Z</time>
      </trkpt>
      <trkpt lat="44.98217" lon="6.03274">
        <ele>2864.8000488281</ele>
        <time>2021-03-21T12:23:30.000Z</time>
      </trkpt>
      <trkpt lat="44.98217" lon="6.03273">
        <ele>2865.1999511719</ele>
        <time>2021-03-21T12:23:31.000Z</time>
      </trkpt>
      <trkpt lat="44.98217" lon="6.03272">
        <ele>2865.3999023438</ele>
        <time>2021-03-21T12:23:32.000Z</time>
      </trkpt>
      <trkpt lat="44.98216" lon="6.03272">
        <ele>2865.8000488281</ele>
        <time>2021-03-21T12:23:33.000Z</time>
      </trkpt>
      <trkpt lat="44.98216" lon="6.03271">
        <ele>2866</ele>
        <time>2021-03-21T12:23:34.000Z</time>
      </trkpt>
      <trkpt lat="44.98216" lon="6.03271">
        <ele>2865.8000488281</ele>
        <time>2021-03-21T12:23:35.000Z</time>
      </trkpt>
      <trkpt lat="44.98216" lon="6.0327">
        <ele>2865.6000976562</ele>
        <time>2021-03-21T12:23:36.000Z</time>
      </trkpt>
      <trkpt lat="44.98217" lon="6.0327">
        <ele>2865.6000976562</ele>
        <time>2021-03-21T12:23:37.000Z</time>
      </trkpt>
      <trkpt lat="44.98217" lon="6.0327">
        <ele>2865.3999023438</ele>
        <time>2021-03-21T12:23:38.000Z</time>
      </trkpt>
      <trkpt lat="44.98217" lon="6.0327">
        <ele>2865.3999023438</ele>
        <time>2021-03-21T12:23:39.000Z</time>
      </trkpt>
      <trkpt lat="44.98217" lon="6.03269">
        <ele>2865.3999023438</ele>
        <time>2021-03-21T12:23:40.000Z</time>
      </trkpt>
      <trkpt lat="44.98217" lon="6.03269">
        <ele>2865.3999023438</ele>
        <time>2021-03-21T12:23:41.000Z</time>
      </trkpt>
      <trkpt lat="44.98217" lon="6.03269">
        <ele>2865.3999023438</ele>
        <time>2021-03-21T12:23:42.000Z</time>
      </trkpt>
      <trkpt lat="44.98216" lon="6.03269">
        <ele>2865.8000488281</ele>
        <time>2021-03-21T12:23:43.000Z</time>
      </trkpt>
      <trkpt lat="44.98216" lon="6.03269">
        <ele>2866</ele>
        <time>2021-03-21T12:23:44.000Z</time>
      </trkpt>
      <trkpt lat="44.98216" lon="6.03268">
        <ele>2866.1999511719</ele>
        <time>2021-03-21T12:23:45.000Z</time>
      </trkpt>
      <trkpt lat="44.98216" lon="6.03267">
        <ele>2866.1999511719</ele>
        <time>2021-03-21T12:23:46.000Z</time>
      </trkpt>
      <trkpt lat="44.98216" lon="6.03266">
        <ele>2866.3999023438</ele>
        <time>2021-03-21T12:23:47.000Z</time>
      </trkpt>
      <trkpt lat="44.98216" lon="6.03265">
        <ele>2866.6000976562</ele>
        <time>2021-03-21T12:23:48.000Z</time>
      </trkpt>
      <trkpt lat="44.98216" lon="6.03264">
        <ele>2866.6000976562</ele>
        <time>2021-03-21T12:23:49.000Z</time>
      </trkpt>
      <trkpt lat="44.98216" lon="6.03263">
        <ele>2866.6000976562</ele>
        <time>2021-03-21T12:23:50.000Z</time>
      </trkpt>
      <trkpt lat="44.98215" lon="6.03262">
        <ele>2866.8000488281</ele>
        <time>2021-03-21T12:23:51.000Z</time>
      </trkpt>
      <trkpt lat="44.98215" lon="6.03262">
        <ele>2867</ele>
        <time>2021-03-21T12:23:52.000Z</time>
      </trkpt>
      <trkpt lat="44.98215" lon="6.03261">
        <ele>2867</ele>
        <time>2021-03-21T12:23:53.000Z</time>
      </trkpt>
      <trkpt lat="44.98215" lon="6.03261">
        <ele>2867</ele>
        <time>2021-03-21T12:23:54.000Z</time>
      </trkpt>
      <trkpt lat="44.98215" lon="6.0326">
        <ele>2867.1999511719</ele>
        <time>2021-03-21T12:23:55.000Z</time>
      </trkpt>
      <trkpt lat="44.98215" lon="6.03259">
        <ele>2867.1999511719</ele>
        <time>2021-03-21T12:23:56.000Z</time>
      </trkpt>
      <trkpt lat="44.98214" lon="6.03259">
        <ele>2867.6000976562</ele>
        <time>2021-03-21T12:23:57.000Z</time>
      </trkpt>
      <trkpt lat="44.98214" lon="6.03258">
        <ele>2867.6000976562</ele>
        <time>2021-03-21T12:23:58.000Z</time>
      </trkpt>
      <trkpt lat="44.98214" lon="6.03257">
        <ele>2868</ele>
        <time>2021-03-21T12:23:59.000Z</time>
      </trkpt>
      <trkpt lat="44.98213" lon="6.03256">
        <ele>2868</ele>
        <time>2021-03-21T12:24:00.000Z</time>
      </trkpt>
      <trkpt lat="44.98213" lon="6.03256">
        <ele>2868.1999511719</ele>
        <time>2021-03-21T12:24:01.000Z</time>
      </trkpt>
      <trkpt lat="44.98213" lon="6.03255">
        <ele>2868.6000976562</ele>
        <time>2021-03-21T12:24:02.000Z</time>
      </trkpt>
      <trkpt lat="44.98212" lon="6.03254">
        <ele>2868.8000488281</ele>
        <time>2021-03-21T12:24:03.000Z</time>
      </trkpt>
      <trkpt lat="44.98212" lon="6.03253">
        <ele>2869.1999511719</ele>
        <time>2021-03-21T12:24:04.000Z</time>
      </trkpt>
      <trkpt lat="44.98212" lon="6.03252">
        <ele>2869.3999023438</ele>
        <time>2021-03-21T12:24:05.000Z</time>
      </trkpt>
      <trkpt lat="44.98211" lon="6.03252">
        <ele>2869.8000488281</ele>
        <time>2021-03-21T12:24:06.000Z</time>
      </trkpt>
      <trkpt lat="44.98211" lon="6.03251">
        <ele>2869.8000488281</ele>
        <time>2021-03-21T12:24:07.000Z</time>
      </trkpt>
      <trkpt lat="44.98211" lon="6.03251">
        <ele>2870</ele>
        <time>2021-03-21T12:24:08.000Z</time>
      </trkpt>
      <trkpt lat="44.98211" lon="6.0325">
        <ele>2869.8000488281</ele>
        <time>2021-03-21T12:24:09.000Z</time>
      </trkpt>
      <trkpt lat="44.98211" lon="6.0325">
        <ele>2869.8000488281</ele>
        <time>2021-03-21T12:24:10.000Z</time>
      </trkpt>
      <trkpt lat="44.98211" lon="6.03249">
        <ele>2870</ele>
        <time>2021-03-21T12:24:11.000Z</time>
      </trkpt>
      <trkpt lat="44.98211" lon="6.03248">
        <ele>2870.1999511719</ele>
        <time>2021-03-21T12:24:12.000Z</time>
      </trkpt>
      <trkpt lat="44.98211" lon="6.03247">
        <ele>2870.1999511719</ele>
        <time>2021-03-21T12:24:13.000Z</time>
      </trkpt>
      <trkpt lat="44.9821" lon="6.03246">
        <ele>2870.1999511719</ele>
        <time>2021-03-21T12:24:14.000Z</time>
      </trkpt>
      <trkpt lat="44.9821" lon="6.03245">
        <ele>2870.1999511719</ele>
        <time>2021-03-21T12:24:15.000Z</time>
      </trkpt>
      <trkpt lat="44.9821" lon="6.03244">
        <ele>2870.3999023438</ele>
        <time>2021-03-21T12:24:16.000Z</time>
      </trkpt>
      <trkpt lat="44.9821" lon="6.03244">
        <ele>2870.3999023438</ele>
        <time>2021-03-21T12:24:17.000Z</time>
      </trkpt>
      <trkpt lat="44.9821" lon="6.03243">
        <ele>2870.3999023438</ele>
        <time>2021-03-21T12:24:18.000Z</time>
      </trkpt>
      <trkpt lat="44.9821" lon="6.03242">
        <ele>2870.3999023438</ele>
        <time>2021-03-21T12:24:19.000Z</time>
      </trkpt>
      <trkpt lat="44.9821" lon="6.03241">
        <ele>2870.6000976562</ele>
        <time>2021-03-21T12:24:20.000Z</time>
      </trkpt>
      <trkpt lat="44.9821" lon="6.03241">
        <ele>2870.1999511719</ele>
        <time>2021-03-21T12:24:21.000Z</time>
      </trkpt>
      <trkpt lat="44.98211" lon="6.03239">
        <ele>2869.8000488281</ele>
        <time>2021-03-21T12:24:22.000Z</time>
      </trkpt>
      <trkpt lat="44.98211" lon="6.03239">
        <ele>2869.8000488281</ele>
        <time>2021-03-21T12:24:23.000Z</time>
      </trkpt>
      <trkpt lat="44.98211" lon="6.03237">
        <ele>2869.8000488281</ele>
        <time>2021-03-21T12:24:24.000Z</time>
      </trkpt>
      <trkpt lat="44.98211" lon="6.03237">
        <ele>2869.8000488281</ele>
        <time>2021-03-21T12:24:25.000Z</time>
      </trkpt>
      <trkpt lat="44.98211" lon="6.03235">
        <ele>2869.8000488281</ele>
        <time>2021-03-21T12:24:26.000Z</time>
      </trkpt>
      <trkpt lat="44.98211" lon="6.03235">
        <ele>2869.8000488281</ele>
        <time>2021-03-21T12:24:27.000Z</time>
      </trkpt>
      <trkpt lat="44.9821" lon="6.03234">
        <ele>2870</ele>
        <time>2021-03-21T12:24:28.000Z</time>
      </trkpt>
      <trkpt lat="44.98211" lon="6.03233">
        <ele>2869.8000488281</ele>
        <time>2021-03-21T12:24:29.000Z</time>
      </trkpt>
      <trkpt lat="44.98211" lon="6.03232">
        <ele>2869.8000488281</ele>
        <time>2021-03-21T12:24:30.000Z</time>
      </trkpt>
      <trkpt lat="44.98211" lon="6.03231">
        <ele>2869.6000976562</ele>
        <time>2021-03-21T12:24:31.000Z</time>
      </trkpt>
      <trkpt lat="44.98211" lon="6.0323">
        <ele>2869.3999023438</ele>
        <time>2021-03-21T12:24:32.000Z</time>
      </trkpt>
      <trkpt lat="44.98211" lon="6.03229">
        <ele>2869.1999511719</ele>
        <time>2021-03-21T12:24:33.000Z</time>
      </trkpt>
      <trkpt lat="44.98212" lon="6.03228">
        <ele>2869</ele>
        <time>2021-03-21T12:24:34.000Z</time>
      </trkpt>
      <trkpt lat="44.98212" lon="6.03227">
        <ele>2868.8000488281</ele>
        <time>2021-03-21T12:24:35.000Z</time>
      </trkpt>
      <trkpt lat="44.98212" lon="6.03226">
        <ele>2868.6000976562</ele>
        <time>2021-03-21T12:24:36.000Z</time>
      </trkpt>
      <trkpt lat="44.98212" lon="6.03226">
        <ele>2868.3999023438</ele>
        <time>2021-03-21T12:24:37.000Z</time>
      </trkpt>
      <trkpt lat="44.98213" lon="6.03224">
        <ele>2868.1999511719</ele>
        <time>2021-03-21T12:24:38.000Z</time>
      </trkpt>
      <trkpt lat="44.98212" lon="6.03224">
        <ele>2868.3999023438</ele>
        <time>2021-03-21T12:24:39.000Z</time>
      </trkpt>
      <trkpt lat="44.98212" lon="6.03224">
        <ele>2868.8000488281</ele>
        <time>2021-03-21T12:24:40.000Z</time>
      </trkpt>
      <trkpt lat="44.98212" lon="6.03223">
        <ele>2868.8000488281</ele>
        <time>2021-03-21T12:24:41.000Z</time>
      </trkpt>
      <trkpt lat="44.98212" lon="6.03224">
        <ele>2868.8000488281</ele>
        <time>2021-03-21T12:24:42.000Z</time>
      </trkpt>
      <trkpt lat="44.98212" lon="6.03223">
        <ele>2868.8000488281</ele>
        <time>2021-03-21T12:24:43.000Z</time>
      </trkpt>
      <trkpt lat="44.98212" lon="6.03224">
        <ele>2868.8000488281</ele>
        <time>2021-03-21T12:24:44.000Z</time>
      </trkpt>
      <trkpt lat="44.98212" lon="6.03224">
        <ele>2868.6000976562</ele>
        <time>2021-03-21T12:24:45.000Z</time>
      </trkpt>
      <trkpt lat="44.98212" lon="6.03224">
        <ele>2868.6000976562</ele>
        <time>2021-03-21T12:24:46.000Z</time>
      </trkpt>
      <trkpt lat="44.98212" lon="6.03225">
        <ele>2868.6000976562</ele>
        <time>2021-03-21T12:24:47.000Z</time>
      </trkpt>
      <trkpt lat="44.98212" lon="6.03225">
        <ele>2868.6000976562</ele>
        <time>2021-03-21T12:24:48.000Z</time>
      </trkpt>
      <trkpt lat="44.98212" lon="6.03225">
        <ele>2868.6000976562</ele>
        <time>2021-03-21T12:24:49.000Z</time>
      </trkpt>
      <trkpt lat="44.98212" lon="6.03226">
        <ele>2868.6000976562</ele>
        <time>2021-03-21T12:24:50.000Z</time>
      </trkpt>
      <trkpt lat="44.98212" lon="6.03226">
        <ele>2868.8000488281</ele>
        <time>2021-03-21T12:24:51.000Z</time>
      </trkpt>
      <trkpt lat="44.98212" lon="6.03226">
        <ele>2868.6000976562</ele>
        <time>2021-03-21T12:24:52.000Z</time>
      </trkpt>
      <trkpt lat="44.98212" lon="6.03226">
        <ele>2868.6000976562</ele>
        <time>2021-03-21T12:24:53.000Z</time>
      </trkpt>
      <trkpt lat="44.98212" lon="6.03225">
        <ele>2868.8000488281</ele>
        <time>2021-03-21T12:24:54.000Z</time>
      </trkpt>
      <trkpt lat="44.98212" lon="6.03225">
        <ele>2869</ele>
        <time>2021-03-21T12:24:55.000Z</time>
      </trkpt>
      <trkpt lat="44.98211" lon="6.03223">
        <ele>2869.1999511719</ele>
        <time>2021-03-21T12:24:56.000Z</time>
      </trkpt>
      <trkpt lat="44.98211" lon="6.03222">
        <ele>2869</ele>
        <time>2021-03-21T12:24:57.000Z</time>
      </trkpt>
      <trkpt lat="44.98211" lon="6.03221">
        <ele>2869</ele>
        <time>2021-03-21T12:24:58.000Z</time>
      </trkpt>
      <trkpt lat="44.98211" lon="6.03221">
        <ele>2868.8000488281</ele>
        <time>2021-03-21T12:24:59.000Z</time>
      </trkpt>
      <trkpt lat="44.98211" lon="6.0322">
        <ele>2868.8000488281</ele>
        <time>2021-03-21T12:25:00.000Z</time>
      </trkpt>
      <trkpt lat="44.98211" lon="6.03219">
        <ele>2869</ele>
        <time>2021-03-21T12:25:01.000Z</time>
      </trkpt>
      <trkpt lat="44.98211" lon="6.03218">
        <ele>2869</ele>
        <time>2021-03-21T12:25:02.000Z</time>
      </trkpt>
      <trkpt lat="44.98211" lon="6.03217">
        <ele>2869</ele>
        <time>2021-03-21T12:25:03.000Z</time>
      </trkpt>
      <trkpt lat="44.98211" lon="6.03216">
        <ele>2868.8000488281</ele>
        <time>2021-03-21T12:25:04.000Z</time>
      </trkpt>
      <trkpt lat="44.98211" lon="6.03215">
        <ele>2868.8000488281</ele>
        <time>2021-03-21T12:25:05.000Z</time>
      </trkpt>
      <trkpt lat="44.98211" lon="6.03214">
        <ele>2868.6000976562</ele>
        <time>2021-03-21T12:25:06.000Z</time>
      </trkpt>
      <trkpt lat="44.98211" lon="6.03213">
        <ele>2868.6000976562</ele>
        <time>2021-03-21T12:25:07.000Z</time>
      </trkpt>
      <trkpt lat="44.98211" lon="6.03212">
        <ele>2868.8000488281</ele>
        <time>2021-03-21T12:25:08.000Z</time>
      </trkpt>
      <trkpt lat="44.98211" lon="6.0321">
        <ele>2869</ele>
        <time>2021-03-21T12:25:09.000Z</time>
      </trkpt>
      <trkpt lat="44.98211" lon="6.0321">
        <ele>2869.1999511719</ele>
        <time>2021-03-21T12:25:10.000Z</time>
      </trkpt>
      <trkpt lat="44.98211" lon="6.03208">
        <ele>2869.6000976562</ele>
        <time>2021-03-21T12:25:11.000Z</time>
      </trkpt>
      <trkpt lat="44.98211" lon="6.03207">
        <ele>2870</ele>
        <time>2021-03-21T12:25:12.000Z</time>
      </trkpt>
      <trkpt lat="44.98211" lon="6.03207">
        <ele>2870.1999511719</ele>
        <time>2021-03-21T12:25:13.000Z</time>
      </trkpt>
      <trkpt lat="44.98211" lon="6.03206">
        <ele>2870.1999511719</ele>
        <time>2021-03-21T12:25:14.000Z</time>
      </trkpt>
      <trkpt lat="44.98212" lon="6.03206">
        <ele>2870.1999511719</ele>
        <time>2021-03-21T12:25:15.000Z</time>
      </trkpt>
      <trkpt lat="44.98212" lon="6.03205">
        <ele>2870.3999023438</ele>
        <time>2021-03-21T12:25:16.000Z</time>
      </trkpt>
      <trkpt lat="44.98212" lon="6.03204">
        <ele>2870.3999023438</ele>
        <time>2021-03-21T12:25:17.000Z</time>
      </trkpt>
      <trkpt lat="44.98212" lon="6.03204">
        <ele>2870.6000976562</ele>
        <time>2021-03-21T12:25:18.000Z</time>
      </trkpt>
      <trkpt lat="44.98212" lon="6.03203">
        <ele>2870.6000976562</ele>
        <time>2021-03-21T12:25:19.000Z</time>
      </trkpt>
      <trkpt lat="44.98213" lon="6.03203">
        <ele>2870.6000976562</ele>
        <time>2021-03-21T12:25:20.000Z</time>
      </trkpt>
      <trkpt lat="44.98213" lon="6.03202">
        <ele>2870.6000976562</ele>
        <time>2021-03-21T12:25:21.000Z</time>
      </trkpt>
      <trkpt lat="44.98213" lon="6.03201">
        <ele>2870.6000976562</ele>
        <time>2021-03-21T12:25:22.000Z</time>
      </trkpt>
      <trkpt lat="44.98213" lon="6.032">
        <ele>2871</ele>
        <time>2021-03-21T12:25:23.000Z</time>
      </trkpt>
      <trkpt lat="44.98213" lon="6.03199">
        <ele>2871</ele>
        <time>2021-03-21T12:25:24.000Z</time>
      </trkpt>
      <trkpt lat="44.98214" lon="6.03199">
        <ele>2871.1999511719</ele>
        <time>2021-03-21T12:25:25.000Z</time>
      </trkpt>
      <trkpt lat="44.98214" lon="6.03198">
        <ele>2871.3999023438</ele>
        <time>2021-03-21T12:25:26.000Z</time>
      </trkpt>
      <trkpt lat="44.98214" lon="6.03197">
        <ele>2871.8000488281</ele>
        <time>2021-03-21T12:25:27.000Z</time>
      </trkpt>
      <trkpt lat="44.98213" lon="6.03195">
        <ele>2872.1999511719</ele>
        <time>2021-03-21T12:25:28.000Z</time>
      </trkpt>
      <trkpt lat="44.98214" lon="6.03194">
        <ele>2872.3999023438</ele>
        <time>2021-03-21T12:25:29.000Z</time>
      </trkpt>
      <trkpt lat="44.98214" lon="6.03193">
        <ele>2872.3999023438</ele>
        <time>2021-03-21T12:25:30.000Z</time>
      </trkpt>
      <trkpt lat="44.98214" lon="6.03193">
        <ele>2872.6000976562</ele>
        <time>2021-03-21T12:25:31.000Z</time>
      </trkpt>
      <trkpt lat="44.98215" lon="6.03192">
        <ele>2872.3999023438</ele>
        <time>2021-03-21T12:25:32.000Z</time>
      </trkpt>
      <trkpt lat="44.98215" lon="6.03191">
        <ele>2872.3999023438</ele>
        <time>2021-03-21T12:25:33.000Z</time>
      </trkpt>
      <trkpt lat="44.98215" lon="6.0319">
        <ele>2872.8000488281</ele>
        <time>2021-03-21T12:25:34.000Z</time>
      </trkpt>
      <trkpt lat="44.98215" lon="6.03189">
        <ele>2873.1999511719</ele>
        <time>2021-03-21T12:25:35.000Z</time>
      </trkpt>
      <trkpt lat="44.98215" lon="6.03188">
        <ele>2873.8000488281</ele>
        <time>2021-03-21T12:25:36.000Z</time>
      </trkpt>
      <trkpt lat="44.98214" lon="6.03188">
        <ele>2874.1999511719</ele>
        <time>2021-03-21T12:25:37.000Z</time>
      </trkpt>
      <trkpt lat="44.98214" lon="6.03187">
        <ele>2874.3999023438</ele>
        <time>2021-03-21T12:25:38.000Z</time>
      </trkpt>
      <trkpt lat="44.98214" lon="6.03186">
        <ele>2874.6000976562</ele>
        <time>2021-03-21T12:25:39.000Z</time>
      </trkpt>
      <trkpt lat="44.98214" lon="6.03185">
        <ele>2874.6000976562</ele>
        <time>2021-03-21T12:25:40.000Z</time>
      </trkpt>
      <trkpt lat="44.98214" lon="6.03185">
        <ele>2874.8000488281</ele>
        <time>2021-03-21T12:25:41.000Z</time>
      </trkpt>
      <trkpt lat="44.98214" lon="6.03183">
        <ele>2875</ele>
        <time>2021-03-21T12:25:42.000Z</time>
      </trkpt>
      <trkpt lat="44.98214" lon="6.03182">
        <ele>2875</ele>
        <time>2021-03-21T12:25:43.000Z</time>
      </trkpt>
      <trkpt lat="44.98214" lon="6.0318">
        <ele>2875.6000976562</ele>
        <time>2021-03-21T12:25:44.000Z</time>
      </trkpt>
      <trkpt lat="44.98214" lon="6.0318">
        <ele>2876</ele>
        <time>2021-03-21T12:25:45.000Z</time>
      </trkpt>
      <trkpt lat="44.98214" lon="6.03179">
        <ele>2876.1999511719</ele>
        <time>2021-03-21T12:25:46.000Z</time>
      </trkpt>
      <trkpt lat="44.98214" lon="6.03179">
        <ele>2876.3999023438</ele>
        <time>2021-03-21T12:25:47.000Z</time>
      </trkpt>
      <trkpt lat="44.98213" lon="6.03178">
        <ele>2876.8000488281</ele>
        <time>2021-03-21T12:25:48.000Z</time>
      </trkpt>
      <trkpt lat="44.98213" lon="6.03177">
        <ele>2877</ele>
        <time>2021-03-21T12:25:49.000Z</time>
      </trkpt>
      <trkpt lat="44.98214" lon="6.03176">
        <ele>2877.1999511719</ele>
        <time>2021-03-21T12:25:50.000Z</time>
      </trkpt>
      <trkpt lat="44.98213" lon="6.03175">
        <ele>2877.6000976562</ele>
        <time>2021-03-21T12:25:51.000Z</time>
      </trkpt>
      <trkpt lat="44.98214" lon="6.03175">
        <ele>2877.6000976562</ele>
        <time>2021-03-21T12:25:52.000Z</time>
      </trkpt>
      <trkpt lat="44.98213" lon="6.03175">
        <ele>2878</ele>
        <time>2021-03-21T12:25:53.000Z</time>
      </trkpt>
      <trkpt lat="44.98213" lon="6.03174">
        <ele>2878.1999511719</ele>
        <time>2021-03-21T12:25:54.000Z</time>
      </trkpt>
      <trkpt lat="44.98212" lon="6.03174">
        <ele>2878.6000976562</ele>
        <time>2021-03-21T12:25:55.000Z</time>
      </trkpt>
      <trkpt lat="44.98212" lon="6.03174">
        <ele>2878.8000488281</ele>
        <time>2021-03-21T12:25:56.000Z</time>
      </trkpt>
      <trkpt lat="44.98212" lon="6.03174">
        <ele>2879</ele>
        <time>2021-03-21T12:25:57.000Z</time>
      </trkpt>
      <trkpt lat="44.98212" lon="6.03173">
        <ele>2879.1999511719</ele>
        <time>2021-03-21T12:25:58.000Z</time>
      </trkpt>
      <trkpt lat="44.98211" lon="6.03173">
        <ele>2879.6000976562</ele>
        <time>2021-03-21T12:25:59.000Z</time>
      </trkpt>
      <trkpt lat="44.98211" lon="6.03172">
        <ele>2880</ele>
        <time>2021-03-21T12:26:00.000Z</time>
      </trkpt>
      <trkpt lat="44.9821" lon="6.03172">
        <ele>2880.1999511719</ele>
        <time>2021-03-21T12:26:01.000Z</time>
      </trkpt>
      <trkpt lat="44.9821" lon="6.03172">
        <ele>2880.6000976562</ele>
        <time>2021-03-21T12:26:02.000Z</time>
      </trkpt>
      <trkpt lat="44.9821" lon="6.03173">
        <ele>2880</ele>
        <time>2021-03-21T12:26:03.000Z</time>
      </trkpt>
      <trkpt lat="44.98211" lon="6.03173">
        <ele>2880</ele>
        <time>2021-03-21T12:26:04.000Z</time>
      </trkpt>
      <trkpt lat="44.98211" lon="6.03172">
        <ele>2880</ele>
        <time>2021-03-21T12:26:05.000Z</time>
      </trkpt>
      <trkpt lat="44.98211" lon="6.03172">
        <ele>2879.8000488281</ele>
        <time>2021-03-21T12:26:06.000Z</time>
      </trkpt>
      <trkpt lat="44.98212" lon="6.03171">
        <ele>2879.6000976562</ele>
        <time>2021-03-21T12:26:07.000Z</time>
      </trkpt>
      <trkpt lat="44.98212" lon="6.03171">
        <ele>2879.6000976562</ele>
        <time>2021-03-21T12:26:08.000Z</time>
      </trkpt>
      <trkpt lat="44.98212" lon="6.0317">
        <ele>2879.8000488281</ele>
        <time>2021-03-21T12:26:09.000Z</time>
      </trkpt>
      <trkpt lat="44.98213" lon="6.03169">
        <ele>2880</ele>
        <time>2021-03-21T12:26:10.000Z</time>
      </trkpt>
      <trkpt lat="44.98213" lon="6.03168">
        <ele>2879.8000488281</ele>
        <time>2021-03-21T12:26:11.000Z</time>
      </trkpt>
      <trkpt lat="44.98214" lon="6.03167">
        <ele>2879.6000976562</ele>
        <time>2021-03-21T12:26:12.000Z</time>
      </trkpt>
      <trkpt lat="44.98214" lon="6.03167">
        <ele>2879.6000976562</ele>
        <time>2021-03-21T12:26:13.000Z</time>
      </trkpt>
      <trkpt lat="44.98215" lon="6.03166">
        <ele>2879.3999023438</ele>
        <time>2021-03-21T12:26:14.000Z</time>
      </trkpt>
      <trkpt lat="44.98215" lon="6.03166">
        <ele>2879.1999511719</ele>
        <time>2021-03-21T12:26:15.000Z</time>
      </trkpt>
      <trkpt lat="44.98216" lon="6.03165">
        <ele>2878.8000488281</ele>
        <time>2021-03-21T12:26:16.000Z</time>
      </trkpt>
      <trkpt lat="44.98217" lon="6.03165">
        <ele>2878.8000488281</ele>
        <time>2021-03-21T12:26:17.000Z</time>
      </trkpt>
      <trkpt lat="44.98217" lon="6.03164">
        <ele>2878.8000488281</ele>
        <time>2021-03-21T12:26:18.000Z</time>
      </trkpt>
      <trkpt lat="44.98217" lon="6.03163">
        <ele>2878.8000488281</ele>
        <time>2021-03-21T12:26:19.000Z</time>
      </trkpt>
      <trkpt lat="44.98218" lon="6.03162">
        <ele>2878.8000488281</ele>
        <time>2021-03-21T12:26:20.000Z</time>
      </trkpt>
      <trkpt lat="44.98219" lon="6.03161">
        <ele>2878.8000488281</ele>
        <time>2021-03-21T12:26:21.000Z</time>
      </trkpt>
      <trkpt lat="44.98219" lon="6.0316">
        <ele>2878.8000488281</ele>
        <time>2021-03-21T12:26:22.000Z</time>
      </trkpt>
      <trkpt lat="44.9822" lon="6.0316">
        <ele>2878.8000488281</ele>
        <time>2021-03-21T12:26:23.000Z</time>
      </trkpt>
      <trkpt lat="44.9822" lon="6.03158">
        <ele>2879.3999023438</ele>
        <time>2021-03-21T12:26:24.000Z</time>
      </trkpt>
      <trkpt lat="44.9822" lon="6.03157">
        <ele>2880</ele>
        <time>2021-03-21T12:26:25.000Z</time>
      </trkpt>
      <trkpt lat="44.98221" lon="6.03156">
        <ele>2879.8000488281</ele>
        <time>2021-03-21T12:26:26.000Z</time>
      </trkpt>
      <trkpt lat="44.98221" lon="6.03155">
        <ele>2879.8000488281</ele>
        <time>2021-03-21T12:26:27.000Z</time>
      </trkpt>
      <trkpt lat="44.98221" lon="6.03155">
        <ele>2879.8000488281</ele>
        <time>2021-03-21T12:26:28.000Z</time>
      </trkpt>
      <trkpt lat="44.98222" lon="6.03154">
        <ele>2879.8000488281</ele>
        <time>2021-03-21T12:26:29.000Z</time>
      </trkpt>
      <trkpt lat="44.98222" lon="6.03154">
        <ele>2879.6000976562</ele>
        <time>2021-03-21T12:26:30.000Z</time>
      </trkpt>
      <trkpt lat="44.98223" lon="6.03154">
        <ele>2879.1999511719</ele>
        <time>2021-03-21T12:26:31.000Z</time>
      </trkpt>
      <trkpt lat="44.98224" lon="6.03154">
        <ele>2879</ele>
        <time>2021-03-21T12:26:32.000Z</time>
      </trkpt>
      <trkpt lat="44.98224" lon="6.03153">
        <ele>2879</ele>
        <time>2021-03-21T12:26:33.000Z</time>
      </trkpt>
      <trkpt lat="44.98224" lon="6.03152">
        <ele>2879.1999511719</ele>
        <time>2021-03-21T12:26:34.000Z</time>
      </trkpt>
      <trkpt lat="44.98224" lon="6.03152">
        <ele>2879.3999023438</ele>
        <time>2021-03-21T12:26:35.000Z</time>
      </trkpt>
      <trkpt lat="44.98223" lon="6.03152">
        <ele>2879.6000976562</ele>
        <time>2021-03-21T12:26:36.000Z</time>
      </trkpt>
      <trkpt lat="44.98223" lon="6.03152">
        <ele>2879.8000488281</ele>
        <time>2021-03-21T12:26:37.000Z</time>
      </trkpt>
      <trkpt lat="44.98223" lon="6.03153">
        <ele>2879.6000976562</ele>
        <time>2021-03-21T12:26:38.000Z</time>
      </trkpt>
      <trkpt lat="44.98223" lon="6.03153">
        <ele>2879.3999023438</ele>
        <time>2021-03-21T12:26:39.000Z</time>
      </trkpt>
      <trkpt lat="44.98222" lon="6.03153">
        <ele>2879.8000488281</ele>
        <time>2021-03-21T12:26:40.000Z</time>
      </trkpt>
      <trkpt lat="44.98222" lon="6.03154">
        <ele>2880</ele>
        <time>2021-03-21T12:26:41.000Z</time>
      </trkpt>
      <trkpt lat="44.98222" lon="6.03154">
        <ele>2879.8000488281</ele>
        <time>2021-03-21T12:26:42.000Z</time>
      </trkpt>
      <trkpt lat="44.98222" lon="6.03154">
        <ele>2879.8000488281</ele>
        <time>2021-03-21T12:26:43.000Z</time>
      </trkpt>
      <trkpt lat="44.98221" lon="6.03155">
        <ele>2879.8000488281</ele>
        <time>2021-03-21T12:26:44.000Z</time>
      </trkpt>
      <trkpt lat="44.98221" lon="6.03155">
        <ele>2879.8000488281</ele>
        <time>2021-03-21T12:26:45.000Z</time>
      </trkpt>
      <trkpt lat="44.98221" lon="6.03156">
        <ele>2879.8000488281</ele>
        <time>2021-03-21T12:26:46.000Z</time>
      </trkpt>
      <trkpt lat="44.9822" lon="6.03157">
        <ele>2880</ele>
        <time>2021-03-21T12:26:47.000Z</time>
      </trkpt>
      <trkpt lat="44.98219" lon="6.03157">
        <ele>2880</ele>
        <time>2021-03-21T12:26:48.000Z</time>
      </trkpt>
      <trkpt lat="44.98218" lon="6.03158">
        <ele>2880.3999023438</ele>
        <time>2021-03-21T12:26:49.000Z</time>
      </trkpt>
      <trkpt lat="44.98217" lon="6.03158">
        <ele>2880.6000976562</ele>
        <time>2021-03-21T12:26:50.000Z</time>
      </trkpt>
      <trkpt lat="44.98216" lon="6.03159">
        <ele>2880.8000488281</ele>
        <time>2021-03-21T12:26:51.000Z</time>
      </trkpt>
      <trkpt lat="44.98216" lon="6.0316">
        <ele>2881</ele>
        <time>2021-03-21T12:26:52.000Z</time>
      </trkpt>
      <trkpt lat="44.98215" lon="6.0316">
        <ele>2881.1999511719</ele>
        <time>2021-03-21T12:26:53.000Z</time>
      </trkpt>
      <trkpt lat="44.98214" lon="6.03161">
        <ele>2881.3999023438</ele>
        <time>2021-03-21T12:26:54.000Z</time>
      </trkpt>
      <trkpt lat="44.98213" lon="6.03161">
        <ele>2881.8000488281</ele>
        <time>2021-03-21T12:26:55.000Z</time>
      </trkpt>
      <trkpt lat="44.98212" lon="6.03161">
        <ele>2882.1999511719</ele>
        <time>2021-03-21T12:26:56.000Z</time>
      </trkpt>
      <trkpt lat="44.98212" lon="6.03162">
        <ele>2882.3999023438</ele>
        <time>2021-03-21T12:26:57.000Z</time>
      </trkpt>
      <trkpt lat="44.98211" lon="6.03163">
        <ele>2882.6000976562</ele>
        <time>2021-03-21T12:26:58.000Z</time>
      </trkpt>
      <trkpt lat="44.9821" lon="6.03163">
        <ele>2882.8000488281</ele>
        <time>2021-03-21T12:26:59.000Z</time>
      </trkpt>
      <trkpt lat="44.9821" lon="6.03164">
        <ele>2883.1999511719</ele>
        <time>2021-03-21T12:27:00.000Z</time>
      </trkpt>
      <trkpt lat="44.98209" lon="6.03164">
        <ele>2883.3999023438</ele>
        <time>2021-03-21T12:27:01.000Z</time>
      </trkpt>
      <trkpt lat="44.98208" lon="6.03165">
        <ele>2883.6000976562</ele>
        <time>2021-03-21T12:27:02.000Z</time>
      </trkpt>
      <trkpt lat="44.98208" lon="6.03165">
        <ele>2883.8000488281</ele>
        <time>2021-03-21T12:27:03.000Z</time>
      </trkpt>
      <trkpt lat="44.98207" lon="6.03165">
        <ele>2884</ele>
        <time>2021-03-21T12:27:04.000Z</time>
      </trkpt>
      <trkpt lat="44.98207" lon="6.03166">
        <ele>2884</ele>
        <time>2021-03-21T12:27:05.000Z</time>
      </trkpt>
      <trkpt lat="44.98206" lon="6.03167">
        <ele>2884</ele>
        <time>2021-03-21T12:27:06.000Z</time>
      </trkpt>
      <trkpt lat="44.98206" lon="6.03167">
        <ele>2884.1999511719</ele>
        <time>2021-03-21T12:27:07.000Z</time>
      </trkpt>
      <trkpt lat="44.98205" lon="6.03168">
        <ele>2884.1999511719</ele>
        <time>2021-03-21T12:27:08.000Z</time>
      </trkpt>
      <trkpt lat="44.98205" lon="6.03169">
        <ele>2884.1999511719</ele>
        <time>2021-03-21T12:27:09.000Z</time>
      </trkpt>
      <trkpt lat="44.98204" lon="6.03169">
        <ele>2884.3999023438</ele>
        <time>2021-03-21T12:27:10.000Z</time>
      </trkpt>
      <trkpt lat="44.98203" lon="6.0317">
        <ele>2884.6000976562</ele>
        <time>2021-03-21T12:27:11.000Z</time>
      </trkpt>
      <trkpt lat="44.98203" lon="6.0317">
        <ele>2884.8000488281</ele>
        <time>2021-03-21T12:27:12.000Z</time>
      </trkpt>
      <trkpt lat="44.98202" lon="6.03171">
        <ele>2884.8000488281</ele>
        <time>2021-03-21T12:27:13.000Z</time>
      </trkpt>
      <trkpt lat="44.98201" lon="6.03171">
        <ele>2885</ele>
        <time>2021-03-21T12:27:14.000Z</time>
      </trkpt>
      <trkpt lat="44.98201" lon="6.03172">
        <ele>2885</ele>
        <time>2021-03-21T12:27:15.000Z</time>
      </trkpt>
      <trkpt lat="44.982" lon="6.03172">
        <ele>2885.3999023438</ele>
        <time>2021-03-21T12:27:16.000Z</time>
      </trkpt>
      <trkpt lat="44.98199" lon="6.03173">
        <ele>2885.3999023438</ele>
        <time>2021-03-21T12:27:17.000Z</time>
      </trkpt>
      <trkpt lat="44.98199" lon="6.03173">
        <ele>2885.6000976562</ele>
        <time>2021-03-21T12:27:18.000Z</time>
      </trkpt>
      <trkpt lat="44.98198" lon="6.03174">
        <ele>2885.8000488281</ele>
        <time>2021-03-21T12:27:19.000Z</time>
      </trkpt>
      <trkpt lat="44.98198" lon="6.03174">
        <ele>2886</ele>
        <time>2021-03-21T12:27:20.000Z</time>
      </trkpt>
      <trkpt lat="44.98197" lon="6.03175">
        <ele>2886</ele>
        <time>2021-03-21T12:27:21.000Z</time>
      </trkpt>
      <trkpt lat="44.98197" lon="6.03175">
        <ele>2886</ele>
        <time>2021-03-21T12:27:22.000Z</time>
      </trkpt>
      <trkpt lat="44.98196" lon="6.03175">
        <ele>2886.1999511719</ele>
        <time>2021-03-21T12:27:23.000Z</time>
      </trkpt>
      <trkpt lat="44.98195" lon="6.03176">
        <ele>2886.1999511719</ele>
        <time>2021-03-21T12:27:24.000Z</time>
      </trkpt>
      <trkpt lat="44.98195" lon="6.03176">
        <ele>2886.1999511719</ele>
        <time>2021-03-21T12:27:25.000Z</time>
      </trkpt>
      <trkpt lat="44.98194" lon="6.03177">
        <ele>2886.1999511719</ele>
        <time>2021-03-21T12:27:26.000Z</time>
      </trkpt>
      <trkpt lat="44.98194" lon="6.03178">
        <ele>2886.3999023438</ele>
        <time>2021-03-21T12:27:27.000Z</time>
      </trkpt>
      <trkpt lat="44.98193" lon="6.03178">
        <ele>2886.6000976562</ele>
        <time>2021-03-21T12:27:28.000Z</time>
      </trkpt>
      <trkpt lat="44.98192" lon="6.03179">
        <ele>2886.6000976562</ele>
        <time>2021-03-21T12:27:29.000Z</time>
      </trkpt>
      <trkpt lat="44.98192" lon="6.03179">
        <ele>2886.8000488281</ele>
        <time>2021-03-21T12:27:30.000Z</time>
      </trkpt>
      <trkpt lat="44.98191" lon="6.0318">
        <ele>2886.8000488281</ele>
        <time>2021-03-21T12:27:31.000Z</time>
      </trkpt>
      <trkpt lat="44.9819" lon="6.03181">
        <ele>2887</ele>
        <time>2021-03-21T12:27:32.000Z</time>
      </trkpt>
      <trkpt lat="44.98189" lon="6.03181">
        <ele>2887</ele>
        <time>2021-03-21T12:27:33.000Z</time>
      </trkpt>
      <trkpt lat="44.98189" lon="6.03182">
        <ele>2887.1999511719</ele>
        <time>2021-03-21T12:27:34.000Z</time>
      </trkpt>
      <trkpt lat="44.98188" lon="6.03183">
        <ele>2887.1999511719</ele>
        <time>2021-03-21T12:27:35.000Z</time>
      </trkpt>
      <trkpt lat="44.98187" lon="6.03183">
        <ele>2887.6000976562</ele>
        <time>2021-03-21T12:27:36.000Z</time>
      </trkpt>
      <trkpt lat="44.98187" lon="6.03184">
        <ele>2887.6000976562</ele>
        <time>2021-03-21T12:27:37.000Z</time>
      </trkpt>
      <trkpt lat="44.98186" lon="6.03184">
        <ele>2887.8000488281</ele>
        <time>2021-03-21T12:27:38.000Z</time>
      </trkpt>
      <trkpt lat="44.98185" lon="6.03184">
        <ele>2888</ele>
        <time>2021-03-21T12:27:39.000Z</time>
      </trkpt>
      <trkpt lat="44.98185" lon="6.03185">
        <ele>2888</ele>
        <time>2021-03-21T12:27:40.000Z</time>
      </trkpt>
      <trkpt lat="44.98184" lon="6.03185">
        <ele>2888.1999511719</ele>
        <time>2021-03-21T12:27:41.000Z</time>
      </trkpt>
      <trkpt lat="44.98184" lon="6.03186">
        <ele>2888.1999511719</ele>
        <time>2021-03-21T12:27:42.000Z</time>
      </trkpt>
      <trkpt lat="44.98183" lon="6.03186">
        <ele>2888.6000976562</ele>
        <time>2021-03-21T12:27:43.000Z</time>
      </trkpt>
      <trkpt lat="44.98182" lon="6.03187">
        <ele>2888.8000488281</ele>
        <time>2021-03-21T12:27:44.000Z</time>
      </trkpt>
      <trkpt lat="44.98181" lon="6.03187">
        <ele>2889.1999511719</ele>
        <time>2021-03-21T12:27:45.000Z</time>
      </trkpt>
      <trkpt lat="44.98181" lon="6.03187">
        <ele>2889.3999023438</ele>
        <time>2021-03-21T12:27:46.000Z</time>
      </trkpt>
      <trkpt lat="44.9818" lon="6.03188">
        <ele>2889.8000488281</ele>
        <time>2021-03-21T12:27:47.000Z</time>
      </trkpt>
      <trkpt lat="44.98179" lon="6.03188">
        <ele>2890</ele>
        <time>2021-03-21T12:27:48.000Z</time>
      </trkpt>
      <trkpt lat="44.98179" lon="6.03189">
        <ele>2890.1999511719</ele>
        <time>2021-03-21T12:27:49.000Z</time>
      </trkpt>
      <trkpt lat="44.98178" lon="6.03189">
        <ele>2890.6000976562</ele>
        <time>2021-03-21T12:27:50.000Z</time>
      </trkpt>
      <trkpt lat="44.98178" lon="6.0319">
        <ele>2890.6000976562</ele>
        <time>2021-03-21T12:27:51.000Z</time>
      </trkpt>
      <trkpt lat="44.98176" lon="6.03191">
        <ele>2891</ele>
        <time>2021-03-21T12:27:52.000Z</time>
      </trkpt>
      <trkpt lat="44.98176" lon="6.03191">
        <ele>2891</ele>
        <time>2021-03-21T12:27:53.000Z</time>
      </trkpt>
      <trkpt lat="44.98176" lon="6.03192">
        <ele>2891</ele>
        <time>2021-03-21T12:27:54.000Z</time>
      </trkpt>
      <trkpt lat="44.98175" lon="6.03193">
        <ele>2891.1999511719</ele>
        <time>2021-03-21T12:27:55.000Z</time>
      </trkpt>
      <trkpt lat="44.98175" lon="6.03194">
        <ele>2891.1999511719</ele>
        <time>2021-03-21T12:27:56.000Z</time>
      </trkpt>
      <trkpt lat="44.98174" lon="6.03195">
        <ele>2891.1999511719</ele>
        <time>2021-03-21T12:27:57.000Z</time>
      </trkpt>
      <trkpt lat="44.98174" lon="6.03196">
        <ele>2891.3999023438</ele>
        <time>2021-03-21T12:27:58.000Z</time>
      </trkpt>
      <trkpt lat="44.98173" lon="6.03196">
        <ele>2891.3999023438</ele>
        <time>2021-03-21T12:27:59.000Z</time>
      </trkpt>
      <trkpt lat="44.98173" lon="6.03198">
        <ele>2891.6000976562</ele>
        <time>2021-03-21T12:28:00.000Z</time>
      </trkpt>
      <trkpt lat="44.98172" lon="6.03198">
        <ele>2891.6000976562</ele>
        <time>2021-03-21T12:28:01.000Z</time>
      </trkpt>
      <trkpt lat="44.98171" lon="6.03199">
        <ele>2891.8000488281</ele>
        <time>2021-03-21T12:28:02.000Z</time>
      </trkpt>
      <trkpt lat="44.98171" lon="6.032">
        <ele>2891.8000488281</ele>
        <time>2021-03-21T12:28:03.000Z</time>
      </trkpt>
      <trkpt lat="44.9817" lon="6.03201">
        <ele>2891.8000488281</ele>
        <time>2021-03-21T12:28:04.000Z</time>
      </trkpt>
      <trkpt lat="44.9817" lon="6.03202">
        <ele>2891.8000488281</ele>
        <time>2021-03-21T12:28:05.000Z</time>
      </trkpt>
      <trkpt lat="44.9817" lon="6.03203">
        <ele>2891.6000976562</ele>
        <time>2021-03-21T12:28:06.000Z</time>
      </trkpt>
      <trkpt lat="44.98169" lon="6.03204">
        <ele>2891.3999023438</ele>
        <time>2021-03-21T12:28:07.000Z</time>
      </trkpt>
      <trkpt lat="44.98169" lon="6.03204">
        <ele>2891.3999023438</ele>
        <time>2021-03-21T12:28:08.000Z</time>
      </trkpt>
      <trkpt lat="44.98169" lon="6.03205">
        <ele>2891.1999511719</ele>
        <time>2021-03-21T12:28:09.000Z</time>
      </trkpt>
      <trkpt lat="44.98168" lon="6.03206">
        <ele>2891.1999511719</ele>
        <time>2021-03-21T12:28:10.000Z</time>
      </trkpt>
      <trkpt lat="44.98168" lon="6.03206">
        <ele>2891</ele>
        <time>2021-03-21T12:28:11.000Z</time>
      </trkpt>
      <trkpt lat="44.98168" lon="6.03207">
        <ele>2890.8000488281</ele>
        <time>2021-03-21T12:28:12.000Z</time>
      </trkpt>
      <trkpt lat="44.98168" lon="6.03208">
        <ele>2890.6000976562</ele>
        <time>2021-03-21T12:28:13.000Z</time>
      </trkpt>
      <trkpt lat="44.98168" lon="6.03209">
        <ele>2890.6000976562</ele>
        <time>2021-03-21T12:28:14.000Z</time>
      </trkpt>
      <trkpt lat="44.98167" lon="6.03209">
        <ele>2890.6000976562</ele>
        <time>2021-03-21T12:28:15.000Z</time>
      </trkpt>
      <trkpt lat="44.98167" lon="6.03209">
        <ele>2890.6000976562</ele>
        <time>2021-03-21T12:28:16.000Z</time>
      </trkpt>
      <trkpt lat="44.98167" lon="6.0321">
        <ele>2890.6000976562</ele>
        <time>2021-03-21T12:28:17.000Z</time>
      </trkpt>
      <trkpt lat="44.98167" lon="6.03211">
        <ele>2890.8000488281</ele>
        <time>2021-03-21T12:28:18.000Z</time>
      </trkpt>
      <trkpt lat="44.98167" lon="6.03211">
        <ele>2890.8000488281</ele>
        <time>2021-03-21T12:28:19.000Z</time>
      </trkpt>
      <trkpt lat="44.98166" lon="6.03212">
        <ele>2891.1999511719</ele>
        <time>2021-03-21T12:28:20.000Z</time>
      </trkpt>
      <trkpt lat="44.98166" lon="6.03212">
        <ele>2891</ele>
        <time>2021-03-21T12:28:21.000Z</time>
      </trkpt>
      <trkpt lat="44.98165" lon="6.03213">
        <ele>2891.3999023438</ele>
        <time>2021-03-21T12:28:22.000Z</time>
      </trkpt>
      <trkpt lat="44.98165" lon="6.03213">
        <ele>2891.3999023438</ele>
        <time>2021-03-21T12:28:23.000Z</time>
      </trkpt>
      <trkpt lat="44.98165" lon="6.03214">
        <ele>2891.6000976562</ele>
        <time>2021-03-21T12:28:24.000Z</time>
      </trkpt>
      <trkpt lat="44.98164" lon="6.03215">
        <ele>2891.8000488281</ele>
        <time>2021-03-21T12:28:25.000Z</time>
      </trkpt>
      <trkpt lat="44.98164" lon="6.03216">
        <ele>2892</ele>
        <time>2021-03-21T12:28:26.000Z</time>
      </trkpt>
      <trkpt lat="44.98164" lon="6.03216">
        <ele>2892</ele>
        <time>2021-03-21T12:28:27.000Z</time>
      </trkpt>
      <trkpt lat="44.98163" lon="6.03217">
        <ele>2892.1999511719</ele>
        <time>2021-03-21T12:28:28.000Z</time>
      </trkpt>
      <trkpt lat="44.98163" lon="6.03218">
        <ele>2892.3999023438</ele>
        <time>2021-03-21T12:28:29.000Z</time>
      </trkpt>
      <trkpt lat="44.98163" lon="6.03218">
        <ele>2892.6000976562</ele>
        <time>2021-03-21T12:28:30.000Z</time>
      </trkpt>
      <trkpt lat="44.98162" lon="6.03219">
        <ele>2892.6000976562</ele>
        <time>2021-03-21T12:28:31.000Z</time>
      </trkpt>
      <trkpt lat="44.98162" lon="6.0322">
        <ele>2892.8000488281</ele>
        <time>2021-03-21T12:28:32.000Z</time>
      </trkpt>
      <trkpt lat="44.98161" lon="6.03221">
        <ele>2892.6000976562</ele>
        <time>2021-03-21T12:28:33.000Z</time>
      </trkpt>
      <trkpt lat="44.98161" lon="6.03221">
        <ele>2892.8000488281</ele>
        <time>2021-03-21T12:28:34.000Z</time>
      </trkpt>
      <trkpt lat="44.98161" lon="6.03223">
        <ele>2892.3999023438</ele>
        <time>2021-03-21T12:28:35.000Z</time>
      </trkpt>
      <trkpt lat="44.9816" lon="6.03223">
        <ele>2892.3999023438</ele>
        <time>2021-03-21T12:28:36.000Z</time>
      </trkpt>
      <trkpt lat="44.9816" lon="6.03224">
        <ele>2892.3999023438</ele>
        <time>2021-03-21T12:28:37.000Z</time>
      </trkpt>
      <trkpt lat="44.9816" lon="6.03225">
        <ele>2892.1999511719</ele>
        <time>2021-03-21T12:28:38.000Z</time>
      </trkpt>
      <trkpt lat="44.98159" lon="6.03226">
        <ele>2892.1999511719</ele>
        <time>2021-03-21T12:28:39.000Z</time>
      </trkpt>
      <trkpt lat="44.98159" lon="6.03226">
        <ele>2892.3999023438</ele>
        <time>2021-03-21T12:28:40.000Z</time>
      </trkpt>
      <trkpt lat="44.98158" lon="6.03227">
        <ele>2892.3999023438</ele>
        <time>2021-03-21T12:28:41.000Z</time>
      </trkpt>
      <trkpt lat="44.98157" lon="6.03228">
        <ele>2892.3999023438</ele>
        <time>2021-03-21T12:28:42.000Z</time>
      </trkpt>
      <trkpt lat="44.98157" lon="6.03229">
        <ele>2892.3999023438</ele>
        <time>2021-03-21T12:28:43.000Z</time>
      </trkpt>
      <trkpt lat="44.98157" lon="6.03229">
        <ele>2892.1999511719</ele>
        <time>2021-03-21T12:28:44.000Z</time>
      </trkpt>
      <trkpt lat="44.98156" lon="6.0323">
        <ele>2892.1999511719</ele>
        <time>2021-03-21T12:28:45.000Z</time>
      </trkpt>
      <trkpt lat="44.98156" lon="6.03231">
        <ele>2892.1999511719</ele>
        <time>2021-03-21T12:28:46.000Z</time>
      </trkpt>
      <trkpt lat="44.98155" lon="6.03232">
        <ele>2892.1999511719</ele>
        <time>2021-03-21T12:28:47.000Z</time>
      </trkpt>
      <trkpt lat="44.98155" lon="6.03233">
        <ele>2892.1999511719</ele>
        <time>2021-03-21T12:28:48.000Z</time>
      </trkpt>
      <trkpt lat="44.98154" lon="6.03234">
        <ele>2892.1999511719</ele>
        <time>2021-03-21T12:28:49.000Z</time>
      </trkpt>
      <trkpt lat="44.98153" lon="6.03235">
        <ele>2892.1999511719</ele>
        <time>2021-03-21T12:28:50.000Z</time>
      </trkpt>
      <trkpt lat="44.98153" lon="6.03235">
        <ele>2892.1999511719</ele>
        <time>2021-03-21T12:28:51.000Z</time>
      </trkpt>
      <trkpt lat="44.98152" lon="6.03236">
        <ele>2892.6000976562</ele>
        <time>2021-03-21T12:28:52.000Z</time>
      </trkpt>
      <trkpt lat="44.98151" lon="6.03237">
        <ele>2892.3999023438</ele>
        <time>2021-03-21T12:28:53.000Z</time>
      </trkpt>
      <trkpt lat="44.9815" lon="6.03238">
        <ele>2892.3999023438</ele>
        <time>2021-03-21T12:28:54.000Z</time>
      </trkpt>
      <trkpt lat="44.9815" lon="6.03238">
        <ele>2892.3999023438</ele>
        <time>2021-03-21T12:28:55.000Z</time>
      </trkpt>
      <trkpt lat="44.9815" lon="6.0324">
        <ele>2892.6000976562</ele>
        <time>2021-03-21T12:28:56.000Z</time>
      </trkpt>
      <trkpt lat="44.9815" lon="6.0324">
        <ele>2892.6000976562</ele>
        <time>2021-03-21T12:28:57.000Z</time>
      </trkpt>
      <trkpt lat="44.9815" lon="6.03241">
        <ele>2892.6000976562</ele>
        <time>2021-03-21T12:28:58.000Z</time>
      </trkpt>
      <trkpt lat="44.9815" lon="6.03242">
        <ele>2892.6000976562</ele>
        <time>2021-03-21T12:28:59.000Z</time>
      </trkpt>
      <trkpt lat="44.9815" lon="6.03243">
        <ele>2892.6000976562</ele>
        <time>2021-03-21T12:29:00.000Z</time>
      </trkpt>
      <trkpt lat="44.9815" lon="6.03244">
        <ele>2892.6000976562</ele>
        <time>2021-03-21T12:29:01.000Z</time>
      </trkpt>
      <trkpt lat="44.9815" lon="6.03245">
        <ele>2892.8000488281</ele>
        <time>2021-03-21T12:29:02.000Z</time>
      </trkpt>
      <trkpt lat="44.9815" lon="6.03245">
        <ele>2892.8000488281</ele>
        <time>2021-03-21T12:29:03.000Z</time>
      </trkpt>
      <trkpt lat="44.98149" lon="6.03246">
        <ele>2892.8000488281</ele>
        <time>2021-03-21T12:29:04.000Z</time>
      </trkpt>
      <trkpt lat="44.98149" lon="6.03247">
        <ele>2893</ele>
        <time>2021-03-21T12:29:05.000Z</time>
      </trkpt>
      <trkpt lat="44.98149" lon="6.03248">
        <ele>2893</ele>
        <time>2021-03-21T12:29:06.000Z</time>
      </trkpt>
      <trkpt lat="44.98148" lon="6.03249">
        <ele>2893.1999511719</ele>
        <time>2021-03-21T12:29:07.000Z</time>
      </trkpt>
      <trkpt lat="44.98148" lon="6.0325">
        <ele>2893.1999511719</ele>
        <time>2021-03-21T12:29:08.000Z</time>
      </trkpt>
      <trkpt lat="44.98148" lon="6.0325">
        <ele>2893.1999511719</ele>
        <time>2021-03-21T12:29:09.000Z</time>
      </trkpt>
      <trkpt lat="44.98148" lon="6.03251">
        <ele>2893.1999511719</ele>
        <time>2021-03-21T12:29:10.000Z</time>
      </trkpt>
      <trkpt lat="44.98148" lon="6.03252">
        <ele>2893.3999023438</ele>
        <time>2021-03-21T12:29:11.000Z</time>
      </trkpt>
      <trkpt lat="44.98148" lon="6.03253">
        <ele>2893.3999023438</ele>
        <time>2021-03-21T12:29:12.000Z</time>
      </trkpt>
      <trkpt lat="44.98147" lon="6.03254">
        <ele>2893.3999023438</ele>
        <time>2021-03-21T12:29:13.000Z</time>
      </trkpt>
      <trkpt lat="44.98147" lon="6.03254">
        <ele>2893.6000976562</ele>
        <time>2021-03-21T12:29:14.000Z</time>
      </trkpt>
      <trkpt lat="44.98148" lon="6.03255">
        <ele>2893.6000976562</ele>
        <time>2021-03-21T12:29:15.000Z</time>
      </trkpt>
      <trkpt lat="44.98147" lon="6.03256">
        <ele>2893.6000976562</ele>
        <time>2021-03-21T12:29:16.000Z</time>
      </trkpt>
      <trkpt lat="44.98147" lon="6.03257">
        <ele>2893.6000976562</ele>
        <time>2021-03-21T12:29:17.000Z</time>
      </trkpt>
      <trkpt lat="44.98147" lon="6.03258">
        <ele>2893.6000976562</ele>
        <time>2021-03-21T12:29:18.000Z</time>
      </trkpt>
      <trkpt lat="44.98147" lon="6.03259">
        <ele>2893.8000488281</ele>
        <time>2021-03-21T12:29:19.000Z</time>
      </trkpt>
      <trkpt lat="44.98147" lon="6.03259">
        <ele>2893.8000488281</ele>
        <time>2021-03-21T12:29:20.000Z</time>
      </trkpt>
      <trkpt lat="44.98146" lon="6.0326">
        <ele>2893.8000488281</ele>
        <time>2021-03-21T12:29:21.000Z</time>
      </trkpt>
      <trkpt lat="44.98146" lon="6.03261">
        <ele>2893.8000488281</ele>
        <time>2021-03-21T12:29:22.000Z</time>
      </trkpt>
      <trkpt lat="44.98146" lon="6.03262">
        <ele>2894</ele>
        <time>2021-03-21T12:29:23.000Z</time>
      </trkpt>
      <trkpt lat="44.98146" lon="6.03262">
        <ele>2894</ele>
        <time>2021-03-21T12:29:24.000Z</time>
      </trkpt>
      <trkpt lat="44.98145" lon="6.03264">
        <ele>2894</ele>
        <time>2021-03-21T12:29:25.000Z</time>
      </trkpt>
      <trkpt lat="44.98145" lon="6.03265">
        <ele>2894</ele>
        <time>2021-03-21T12:29:26.000Z</time>
      </trkpt>
      <trkpt lat="44.98144" lon="6.03266">
        <ele>2894</ele>
        <time>2021-03-21T12:29:27.000Z</time>
      </trkpt>
      <trkpt lat="44.98144" lon="6.03267">
        <ele>2894</ele>
        <time>2021-03-21T12:29:28.000Z</time>
      </trkpt>
      <trkpt lat="44.98144" lon="6.03268">
        <ele>2893.8000488281</ele>
        <time>2021-03-21T12:29:29.000Z</time>
      </trkpt>
      <trkpt lat="44.98143" lon="6.03269">
        <ele>2893.8000488281</ele>
        <time>2021-03-21T12:29:30.000Z</time>
      </trkpt>
      <trkpt lat="44.98143" lon="6.0327">
        <ele>2893.8000488281</ele>
        <time>2021-03-21T12:29:31.000Z</time>
      </trkpt>
      <trkpt lat="44.98143" lon="6.03271">
        <ele>2893.6000976562</ele>
        <time>2021-03-21T12:29:32.000Z</time>
      </trkpt>
      <trkpt lat="44.98143" lon="6.03272">
        <ele>2893.6000976562</ele>
        <time>2021-03-21T12:29:33.000Z</time>
      </trkpt>
      <trkpt lat="44.98143" lon="6.03273">
        <ele>2893.6000976562</ele>
        <time>2021-03-21T12:29:34.000Z</time>
      </trkpt>
      <trkpt lat="44.98143" lon="6.03274">
        <ele>2893.3999023438</ele>
        <time>2021-03-21T12:29:35.000Z</time>
      </trkpt>
      <trkpt lat="44.98143" lon="6.03274">
        <ele>2893.3999023438</ele>
        <time>2021-03-21T12:29:36.000Z</time>
      </trkpt>
      <trkpt lat="44.98143" lon="6.03275">
        <ele>2893.3999023438</ele>
        <time>2021-03-21T12:29:37.000Z</time>
      </trkpt>
      <trkpt lat="44.98143" lon="6.03276">
        <ele>2893.1999511719</ele>
        <time>2021-03-21T12:29:38.000Z</time>
      </trkpt>
      <trkpt lat="44.98142" lon="6.03277">
        <ele>2893.1999511719</ele>
        <time>2021-03-21T12:29:39.000Z</time>
      </trkpt>
      <trkpt lat="44.98142" lon="6.03278">
        <ele>2893</ele>
        <time>2021-03-21T12:29:40.000Z</time>
      </trkpt>
      <trkpt lat="44.98142" lon="6.03278">
        <ele>2893</ele>
        <time>2021-03-21T12:29:41.000Z</time>
      </trkpt>
      <trkpt lat="44.98143" lon="6.03279">
        <ele>2892.8000488281</ele>
        <time>2021-03-21T12:29:42.000Z</time>
      </trkpt>
      <trkpt lat="44.98142" lon="6.0328">
        <ele>2892.8000488281</ele>
        <time>2021-03-21T12:29:43.000Z</time>
      </trkpt>
      <trkpt lat="44.98143" lon="6.03281">
        <ele>2892.6000976562</ele>
        <time>2021-03-21T12:29:44.000Z</time>
      </trkpt>
      <trkpt lat="44.98142" lon="6.03281">
        <ele>2892.6000976562</ele>
        <time>2021-03-21T12:29:45.000Z</time>
      </trkpt>
      <trkpt lat="44.98142" lon="6.03282">
        <ele>2892.6000976562</ele>
        <time>2021-03-21T12:29:46.000Z</time>
      </trkpt>
      <trkpt lat="44.98142" lon="6.03283">
        <ele>2892.6000976562</ele>
        <time>2021-03-21T12:29:47.000Z</time>
      </trkpt>
      <trkpt lat="44.98142" lon="6.03284">
        <ele>2892.6000976562</ele>
        <time>2021-03-21T12:29:48.000Z</time>
      </trkpt>
      <trkpt lat="44.98142" lon="6.03284">
        <ele>2892.6000976562</ele>
        <time>2021-03-21T12:29:49.000Z</time>
      </trkpt>
      <trkpt lat="44.98141" lon="6.03285">
        <ele>2892.6000976562</ele>
        <time>2021-03-21T12:29:50.000Z</time>
      </trkpt>
      <trkpt lat="44.98141" lon="6.03286">
        <ele>2892.3999023438</ele>
        <time>2021-03-21T12:29:51.000Z</time>
      </trkpt>
      <trkpt lat="44.98141" lon="6.03287">
        <ele>2892.6000976562</ele>
        <time>2021-03-21T12:29:52.000Z</time>
      </trkpt>
      <trkpt lat="44.9814" lon="6.03288">
        <ele>2892.6000976562</ele>
        <time>2021-03-21T12:29:53.000Z</time>
      </trkpt>
      <trkpt lat="44.9814" lon="6.03288">
        <ele>2892.3999023438</ele>
        <time>2021-03-21T12:29:54.000Z</time>
      </trkpt>
      <trkpt lat="44.9814" lon="6.03289">
        <ele>2892.3999023438</ele>
        <time>2021-03-21T12:29:55.000Z</time>
      </trkpt>
      <trkpt lat="44.9814" lon="6.03289">
        <ele>2892.3999023438</ele>
        <time>2021-03-21T12:29:56.000Z</time>
      </trkpt>
      <trkpt lat="44.9814" lon="6.0329">
        <ele>2892.3999023438</ele>
        <time>2021-03-21T12:29:57.000Z</time>
      </trkpt>
      <trkpt lat="44.9814" lon="6.0329">
        <ele>2892.3999023438</ele>
        <time>2021-03-21T12:29:58.000Z</time>
      </trkpt>
      <trkpt lat="44.9814" lon="6.0329">
        <ele>2892.3999023438</ele>
        <time>2021-03-21T12:29:59.000Z</time>
      </trkpt>
      <trkpt lat="44.9814" lon="6.03289">
        <ele>2892.3999023438</ele>
        <time>2021-03-21T12:30:00.000Z</time>
      </trkpt>
      <trkpt lat="44.9814" lon="6.03289">
        <ele>2892.3999023438</ele>
        <time>2021-03-21T12:30:01.000Z</time>
      </trkpt>
      <trkpt lat="44.9814" lon="6.03289">
        <ele>2892.3999023438</ele>
        <time>2021-03-21T12:30:02.000Z</time>
      </trkpt>
      <trkpt lat="44.9814" lon="6.03289">
        <ele>2892.3999023438</ele>
        <time>2021-03-21T12:30:03.000Z</time>
      </trkpt>
      <trkpt lat="44.9814" lon="6.03289">
        <ele>2892.3999023438</ele>
        <time>2021-03-21T12:30:04.000Z</time>
      </trkpt>
      <trkpt lat="44.9814" lon="6.03289">
        <ele>2892.3999023438</ele>
        <time>2021-03-21T12:30:05.000Z</time>
      </trkpt>
      <trkpt lat="44.98141" lon="6.03289">
        <ele>2892.3999023438</ele>
        <time>2021-03-21T12:30:06.000Z</time>
      </trkpt>
      <trkpt lat="44.98141" lon="6.03289">
        <ele>2892.3999023438</ele>
        <time>2021-03-21T12:30:07.000Z</time>
      </trkpt>
      <trkpt lat="44.98141" lon="6.03289">
        <ele>2892.3999023438</ele>
        <time>2021-03-21T12:30:08.000Z</time>
      </trkpt>
      <trkpt lat="44.98141" lon="6.03289">
        <ele>2892.3999023438</ele>
        <time>2021-03-21T12:30:09.000Z</time>
      </trkpt>
      <trkpt lat="44.98141" lon="6.03289">
        <ele>2892.3999023438</ele>
        <time>2021-03-21T12:30:10.000Z</time>
      </trkpt>
      <trkpt lat="44.98141" lon="6.03289">
        <ele>2892.3999023438</ele>
        <time>2021-03-21T12:30:11.000Z</time>
      </trkpt>
      <trkpt lat="44.98141" lon="6.03289">
        <ele>2892.3999023438</ele>
        <time>2021-03-21T12:30:12.000Z</time>
      </trkpt>
      <trkpt lat="44.98141" lon="6.03289">
        <ele>2892.3999023438</ele>
        <time>2021-03-21T12:30:13.000Z</time>
      </trkpt>
      <trkpt lat="44.9814" lon="6.0329">
        <ele>2892.3999023438</ele>
        <time>2021-03-21T12:30:14.000Z</time>
      </trkpt>
      <trkpt lat="44.9814" lon="6.03291">
        <ele>2892.3999023438</ele>
        <time>2021-03-21T12:30:15.000Z</time>
      </trkpt>
      <trkpt lat="44.98139" lon="6.03292">
        <ele>2892.3999023438</ele>
        <time>2021-03-21T12:30:16.000Z</time>
      </trkpt>
      <trkpt lat="44.98139" lon="6.03293">
        <ele>2892.1999511719</ele>
        <time>2021-03-21T12:30:17.000Z</time>
      </trkpt>
      <trkpt lat="44.98139" lon="6.03293">
        <ele>2892.1999511719</ele>
        <time>2021-03-21T12:30:18.000Z</time>
      </trkpt>
      <trkpt lat="44.98139" lon="6.03295">
        <ele>2892</ele>
        <time>2021-03-21T12:30:19.000Z</time>
      </trkpt>
      <trkpt lat="44.98139" lon="6.03295">
        <ele>2892</ele>
        <time>2021-03-21T12:30:20.000Z</time>
      </trkpt>
      <trkpt lat="44.98138" lon="6.03296">
        <ele>2891.8000488281</ele>
        <time>2021-03-21T12:30:21.000Z</time>
      </trkpt>
      <trkpt lat="44.98138" lon="6.03297">
        <ele>2891.6000976562</ele>
        <time>2021-03-21T12:30:22.000Z</time>
      </trkpt>
      <trkpt lat="44.98138" lon="6.03298">
        <ele>2891.6000976562</ele>
        <time>2021-03-21T12:30:23.000Z</time>
      </trkpt>
      <trkpt lat="44.98138" lon="6.03298">
        <ele>2891.3999023438</ele>
        <time>2021-03-21T12:30:24.000Z</time>
      </trkpt>
      <trkpt lat="44.98137" lon="6.03299">
        <ele>2891.3999023438</ele>
        <time>2021-03-21T12:30:25.000Z</time>
      </trkpt>
      <trkpt lat="44.98137" lon="6.033">
        <ele>2891.1999511719</ele>
        <time>2021-03-21T12:30:26.000Z</time>
      </trkpt>
      <trkpt lat="44.98137" lon="6.033">
        <ele>2891.1999511719</ele>
        <time>2021-03-21T12:30:27.000Z</time>
      </trkpt>
      <trkpt lat="44.98137" lon="6.03301">
        <ele>2891</ele>
        <time>2021-03-21T12:30:28.000Z</time>
      </trkpt>
      <trkpt lat="44.98136" lon="6.03301">
        <ele>2891</ele>
        <time>2021-03-21T12:30:29.000Z</time>
      </trkpt>
      <trkpt lat="44.98136" lon="6.03302">
        <ele>2891</ele>
        <time>2021-03-21T12:30:30.000Z</time>
      </trkpt>
      <trkpt lat="44.98136" lon="6.03303">
        <ele>2890.8000488281</ele>
        <time>2021-03-21T12:30:31.000Z</time>
      </trkpt>
      <trkpt lat="44.98135" lon="6.03303">
        <ele>2890.8000488281</ele>
        <time>2021-03-21T12:30:32.000Z</time>
      </trkpt>
      <trkpt lat="44.98135" lon="6.03304">
        <ele>2890.6000976562</ele>
        <time>2021-03-21T12:30:33.000Z</time>
      </trkpt>
      <trkpt lat="44.98134" lon="6.03304">
        <ele>2890.6000976562</ele>
        <time>2021-03-21T12:30:34.000Z</time>
      </trkpt>
      <trkpt lat="44.98134" lon="6.03305">
        <ele>2890.3999023438</ele>
        <time>2021-03-21T12:30:35.000Z</time>
      </trkpt>
      <trkpt lat="44.98134" lon="6.03306">
        <ele>2890.3999023438</ele>
        <time>2021-03-21T12:30:36.000Z</time>
      </trkpt>
      <trkpt lat="44.98134" lon="6.03306">
        <ele>2890.1999511719</ele>
        <time>2021-03-21T12:30:37.000Z</time>
      </trkpt>
      <trkpt lat="44.98133" lon="6.03306">
        <ele>2890.1999511719</ele>
        <time>2021-03-21T12:30:38.000Z</time>
      </trkpt>
      <trkpt lat="44.98132" lon="6.03307">
        <ele>2890</ele>
        <time>2021-03-21T12:30:39.000Z</time>
      </trkpt>
      <trkpt lat="44.98132" lon="6.03307">
        <ele>2890</ele>
        <time>2021-03-21T12:30:40.000Z</time>
      </trkpt>
      <trkpt lat="44.98132" lon="6.03308">
        <ele>2889.8000488281</ele>
        <time>2021-03-21T12:30:41.000Z</time>
      </trkpt>
      <trkpt lat="44.98132" lon="6.03309">
        <ele>2889.6000976562</ele>
        <time>2021-03-21T12:30:42.000Z</time>
      </trkpt>
      <trkpt lat="44.98132" lon="6.03309">
        <ele>2889.3999023438</ele>
        <time>2021-03-21T12:30:43.000Z</time>
      </trkpt>
      <trkpt lat="44.98132" lon="6.0331">
        <ele>2889.1999511719</ele>
        <time>2021-03-21T12:30:44.000Z</time>
      </trkpt>
      <trkpt lat="44.98131" lon="6.03311">
        <ele>2889</ele>
        <time>2021-03-21T12:30:45.000Z</time>
      </trkpt>
      <trkpt lat="44.98132" lon="6.03312">
        <ele>2888.8000488281</ele>
        <time>2021-03-21T12:30:46.000Z</time>
      </trkpt>
      <trkpt lat="44.98132" lon="6.03312">
        <ele>2888.6000976562</ele>
        <time>2021-03-21T12:30:47.000Z</time>
      </trkpt>
      <trkpt lat="44.98132" lon="6.03313">
        <ele>2888.3999023438</ele>
        <time>2021-03-21T12:30:48.000Z</time>
      </trkpt>
      <trkpt lat="44.98131" lon="6.03313">
        <ele>2888.1999511719</ele>
        <time>2021-03-21T12:30:49.000Z</time>
      </trkpt>
      <trkpt lat="44.98131" lon="6.03314">
        <ele>2888</ele>
        <time>2021-03-21T12:30:50.000Z</time>
      </trkpt>
      <trkpt lat="44.98131" lon="6.03315">
        <ele>2888</ele>
        <time>2021-03-21T12:30:51.000Z</time>
      </trkpt>
      <trkpt lat="44.98131" lon="6.03315">
        <ele>2887.8000488281</ele>
        <time>2021-03-21T12:30:52.000Z</time>
      </trkpt>
      <trkpt lat="44.9813" lon="6.03316">
        <ele>2887.8000488281</ele>
        <time>2021-03-21T12:30:53.000Z</time>
      </trkpt>
      <trkpt lat="44.9813" lon="6.03316">
        <ele>2887.6000976562</ele>
        <time>2021-03-21T12:30:54.000Z</time>
      </trkpt>
      <trkpt lat="44.9813" lon="6.03317">
        <ele>2887.3999023438</ele>
        <time>2021-03-21T12:30:55.000Z</time>
      </trkpt>
      <trkpt lat="44.9813" lon="6.03318">
        <ele>2887.1999511719</ele>
        <time>2021-03-21T12:30:56.000Z</time>
      </trkpt>
      <trkpt lat="44.9813" lon="6.03319">
        <ele>2887</ele>
        <time>2021-03-21T12:30:57.000Z</time>
      </trkpt>
      <trkpt lat="44.9813" lon="6.03319">
        <ele>2886.8000488281</ele>
        <time>2021-03-21T12:30:58.000Z</time>
      </trkpt>
      <trkpt lat="44.9813" lon="6.0332">
        <ele>2886.6000976562</ele>
        <time>2021-03-21T12:30:59.000Z</time>
      </trkpt>
      <trkpt lat="44.98131" lon="6.0332">
        <ele>2886.3999023438</ele>
        <time>2021-03-21T12:31:00.000Z</time>
      </trkpt>
      <trkpt lat="44.98131" lon="6.0332">
        <ele>2886.3999023438</ele>
        <time>2021-03-21T12:31:01.000Z</time>
      </trkpt>
      <trkpt lat="44.98131" lon="6.0332">
        <ele>2886.3999023438</ele>
        <time>2021-03-21T12:31:02.000Z</time>
      </trkpt>
      <trkpt lat="44.9813" lon="6.0332">
        <ele>2886.3999023438</ele>
        <time>2021-03-21T12:31:03.000Z</time>
      </trkpt>
      <trkpt lat="44.98131" lon="6.03321">
        <ele>2886.3999023438</ele>
        <time>2021-03-21T12:31:04.000Z</time>
      </trkpt>
      <trkpt lat="44.9813" lon="6.03321">
        <ele>2886.3999023438</ele>
        <time>2021-03-21T12:31:05.000Z</time>
      </trkpt>
      <trkpt lat="44.9813" lon="6.03321">
        <ele>2886.3999023438</ele>
        <time>2021-03-21T12:31:06.000Z</time>
      </trkpt>
      <trkpt lat="44.9813" lon="6.03321">
        <ele>2886.3999023438</ele>
        <time>2021-03-21T12:31:07.000Z</time>
      </trkpt>
      <trkpt lat="44.9813" lon="6.03321">
        <ele>2886.3999023438</ele>
        <time>2021-03-21T12:31:08.000Z</time>
      </trkpt>
      <trkpt lat="44.9813" lon="6.03321">
        <ele>2886.1999511719</ele>
        <time>2021-03-21T12:31:09.000Z</time>
      </trkpt>
      <trkpt lat="44.9813" lon="6.03321">
        <ele>2886.1999511719</ele>
        <time>2021-03-21T12:31:10.000Z</time>
      </trkpt>
      <trkpt lat="44.9813" lon="6.03321">
        <ele>2886.1999511719</ele>
        <time>2021-03-21T12:31:11.000Z</time>
      </trkpt>
      <trkpt lat="44.9813" lon="6.03322">
        <ele>2886.1999511719</ele>
        <time>2021-03-21T12:31:12.000Z</time>
      </trkpt>
      <trkpt lat="44.98129" lon="6.03322">
        <ele>2886.1999511719</ele>
        <time>2021-03-21T12:31:13.000Z</time>
      </trkpt>
      <trkpt lat="44.98129" lon="6.03322">
        <ele>2886.1999511719</ele>
        <time>2021-03-21T12:31:14.000Z</time>
      </trkpt>
      <trkpt lat="44.98129" lon="6.03322">
        <ele>2886.1999511719</ele>
        <time>2021-03-21T12:31:15.000Z</time>
      </trkpt>
      <trkpt lat="44.98129" lon="6.03322">
        <ele>2886.1999511719</ele>
        <time>2021-03-21T12:31:16.000Z</time>
      </trkpt>
      <trkpt lat="44.98128" lon="6.03322">
        <ele>2886.3999023438</ele>
        <time>2021-03-21T12:31:17.000Z</time>
      </trkpt>
      <trkpt lat="44.98128" lon="6.03321">
        <ele>2886.3999023438</ele>
        <time>2021-03-21T12:31:18.000Z</time>
      </trkpt>
      <trkpt lat="44.98128" lon="6.03321">
        <ele>2886.6000976562</ele>
        <time>2021-03-21T12:31:19.000Z</time>
      </trkpt>
      <trkpt lat="44.98128" lon="6.0332">
        <ele>2886.6000976562</ele>
        <time>2021-03-21T12:31:20.000Z</time>
      </trkpt>
      <trkpt lat="44.98127" lon="6.0332">
        <ele>2886.8000488281</ele>
        <time>2021-03-21T12:31:21.000Z</time>
      </trkpt>
      <trkpt lat="44.98127" lon="6.03319">
        <ele>2887</ele>
        <time>2021-03-21T12:31:22.000Z</time>
      </trkpt>
      <trkpt lat="44.98127" lon="6.03319">
        <ele>2887.1999511719</ele>
        <time>2021-03-21T12:31:23.000Z</time>
      </trkpt>
      <trkpt lat="44.98126" lon="6.03318">
        <ele>2887.3999023438</ele>
        <time>2021-03-21T12:31:24.000Z</time>
      </trkpt>
      <trkpt lat="44.98126" lon="6.03318">
        <ele>2887.6000976562</ele>
        <time>2021-03-21T12:31:25.000Z</time>
      </trkpt>
      <trkpt lat="44.98125" lon="6.03317">
        <ele>2887.8000488281</ele>
        <time>2021-03-21T12:31:26.000Z</time>
      </trkpt>
      <trkpt lat="44.98125" lon="6.03317">
        <ele>2888</ele>
        <time>2021-03-21T12:31:27.000Z</time>
      </trkpt>
      <trkpt lat="44.98124" lon="6.03317">
        <ele>2888</ele>
        <time>2021-03-21T12:31:28.000Z</time>
      </trkpt>
      <trkpt lat="44.98124" lon="6.03317">
        <ele>2888</ele>
        <time>2021-03-21T12:31:29.000Z</time>
      </trkpt>
      <trkpt lat="44.98124" lon="6.03316">
        <ele>2888</ele>
        <time>2021-03-21T12:31:30.000Z</time>
      </trkpt>
      <trkpt lat="44.98123" lon="6.03316">
        <ele>2888</ele>
        <time>2021-03-21T12:31:31.000Z</time>
      </trkpt>
      <trkpt lat="44.98123" lon="6.03316">
        <ele>2888</ele>
        <time>2021-03-21T12:31:32.000Z</time>
      </trkpt>
      <trkpt lat="44.98122" lon="6.03316">
        <ele>2888</ele>
        <time>2021-03-21T12:31:33.000Z</time>
      </trkpt>
      <trkpt lat="44.98122" lon="6.03315">
        <ele>2888</ele>
        <time>2021-03-21T12:31:34.000Z</time>
      </trkpt>
      <trkpt lat="44.98122" lon="6.03315">
        <ele>2888.1999511719</ele>
        <time>2021-03-21T12:31:35.000Z</time>
      </trkpt>
      <trkpt lat="44.98121" lon="6.03315">
        <ele>2888</ele>
        <time>2021-03-21T12:31:36.000Z</time>
      </trkpt>
      <trkpt lat="44.98121" lon="6.03315">
        <ele>2888</ele>
        <time>2021-03-21T12:31:37.000Z</time>
      </trkpt>
      <trkpt lat="44.98121" lon="6.03315">
        <ele>2888</ele>
        <time>2021-03-21T12:31:38.000Z</time>
      </trkpt>
      <trkpt lat="44.98121" lon="6.03315">
        <ele>2888.1999511719</ele>
        <time>2021-03-21T12:31:39.000Z</time>
      </trkpt>
      <trkpt lat="44.9812" lon="6.03314">
        <ele>2888.1999511719</ele>
        <time>2021-03-21T12:31:40.000Z</time>
      </trkpt>
      <trkpt lat="44.9812" lon="6.03314">
        <ele>2888.1999511719</ele>
        <time>2021-03-21T12:31:41.000Z</time>
      </trkpt>
      <trkpt lat="44.9812" lon="6.03314">
        <ele>2888.1999511719</ele>
        <time>2021-03-21T12:31:42.000Z</time>
      </trkpt>
      <trkpt lat="44.98119" lon="6.03313">
        <ele>2888.3999023438</ele>
        <time>2021-03-21T12:31:43.000Z</time>
      </trkpt>
      <trkpt lat="44.9812" lon="6.03313">
        <ele>2888.3999023438</ele>
        <time>2021-03-21T12:31:44.000Z</time>
      </trkpt>
      <trkpt lat="44.9812" lon="6.03313">
        <ele>2888.3999023438</ele>
        <time>2021-03-21T12:31:45.000Z</time>
      </trkpt>
      <trkpt lat="44.9812" lon="6.03313">
        <ele>2888.3999023438</ele>
        <time>2021-03-21T12:31:46.000Z</time>
      </trkpt>
      <trkpt lat="44.9812" lon="6.03313">
        <ele>2888.6000976562</ele>
        <time>2021-03-21T12:31:47.000Z</time>
      </trkpt>
      <trkpt lat="44.9812" lon="6.03312">
        <ele>2888.6000976562</ele>
        <time>2021-03-21T12:31:48.000Z</time>
      </trkpt>
      <trkpt lat="44.9812" lon="6.03312">
        <ele>2888.6000976562</ele>
        <time>2021-03-21T12:31:49.000Z</time>
      </trkpt>
      <trkpt lat="44.9812" lon="6.03312">
        <ele>2888.6000976562</ele>
        <time>2021-03-21T12:31:50.000Z</time>
      </trkpt>
      <trkpt lat="44.9812" lon="6.03312">
        <ele>2888.8000488281</ele>
        <time>2021-03-21T12:31:51.000Z</time>
      </trkpt>
      <trkpt lat="44.9812" lon="6.03312">
        <ele>2888.8000488281</ele>
        <time>2021-03-21T12:31:52.000Z</time>
      </trkpt>
      <trkpt lat="44.9812" lon="6.03312">
        <ele>2888.8000488281</ele>
        <time>2021-03-21T12:31:53.000Z</time>
      </trkpt>
      <trkpt lat="44.9812" lon="6.03312">
        <ele>2888.8000488281</ele>
        <time>2021-03-21T12:31:54.000Z</time>
      </trkpt>
      <trkpt lat="44.9812" lon="6.03312">
        <ele>2888.8000488281</ele>
        <time>2021-03-21T12:31:55.000Z</time>
      </trkpt>
      <trkpt lat="44.9812" lon="6.03312">
        <ele>2888.8000488281</ele>
        <time>2021-03-21T12:31:56.000Z</time>
      </trkpt>
      <trkpt lat="44.9812" lon="6.03312">
        <ele>2888.8000488281</ele>
        <time>2021-03-21T12:31:57.000Z</time>
      </trkpt>
      <trkpt lat="44.9812" lon="6.03312">
        <ele>2888.8000488281</ele>
        <time>2021-03-21T12:31:58.000Z</time>
      </trkpt>
      <trkpt lat="44.9812" lon="6.03312">
        <ele>2888.8000488281</ele>
        <time>2021-03-21T12:31:59.000Z</time>
      </trkpt>
      <trkpt lat="44.9812" lon="6.03312">
        <ele>2888.8000488281</ele>
        <time>2021-03-21T12:32:00.000Z</time>
      </trkpt>
      <trkpt lat="44.9812" lon="6.03312">
        <ele>2888.8000488281</ele>
        <time>2021-03-21T12:32:01.000Z</time>
      </trkpt>
      <trkpt lat="44.9812" lon="6.03312">
        <ele>2888.8000488281</ele>
        <time>2021-03-21T12:32:02.000Z</time>
      </trkpt>
      <trkpt lat="44.9812" lon="6.03312">
        <ele>2888.8000488281</ele>
        <time>2021-03-21T12:32:03.000Z</time>
      </trkpt>
      <trkpt lat="44.9812" lon="6.03312">
        <ele>2888.8000488281</ele>
        <time>2021-03-21T12:32:04.000Z</time>
      </trkpt>
      <trkpt lat="44.9812" lon="6.03312">
        <ele>2888.8000488281</ele>
        <time>2021-03-21T12:32:05.000Z</time>
      </trkpt>
      <trkpt lat="44.9812" lon="6.03312">
        <ele>2888.8000488281</ele>
        <time>2021-03-21T12:32:06.000Z</time>
      </trkpt>
      <trkpt lat="44.9812" lon="6.03312">
        <ele>2888.8000488281</ele>
        <time>2021-03-21T12:32:07.000Z</time>
      </trkpt>
      <trkpt lat="44.9812" lon="6.03312">
        <ele>2888.8000488281</ele>
        <time>2021-03-21T12:32:08.000Z</time>
      </trkpt>
      <trkpt lat="44.9812" lon="6.03312">
        <ele>2888.8000488281</ele>
        <time>2021-03-21T12:32:09.000Z</time>
      </trkpt>
      <trkpt lat="44.9812" lon="6.03312">
        <ele>2888.8000488281</ele>
        <time>2021-03-21T12:32:10.000Z</time>
      </trkpt>
      <trkpt lat="44.9812" lon="6.03312">
        <ele>2888.8000488281</ele>
        <time>2021-03-21T12:32:11.000Z</time>
      </trkpt>
      <trkpt lat="44.9812" lon="6.03312">
        <ele>2888.8000488281</ele>
        <time>2021-03-21T12:32:12.000Z</time>
      </trkpt>
      <trkpt lat="44.9812" lon="6.03312">
        <ele>2888.8000488281</ele>
        <time>2021-03-21T12:32:13.000Z</time>
      </trkpt>
      <trkpt lat="44.98121" lon="6.03312">
        <ele>2889</ele>
        <time>2021-03-21T12:32:14.000Z</time>
      </trkpt>
      <trkpt lat="44.98121" lon="6.03311">
        <ele>2889</ele>
        <time>2021-03-21T12:32:15.000Z</time>
      </trkpt>
      <trkpt lat="44.98121" lon="6.03311">
        <ele>2889.1999511719</ele>
        <time>2021-03-21T12:32:16.000Z</time>
      </trkpt>
      <trkpt lat="44.98121" lon="6.03311">
        <ele>2889.1999511719</ele>
        <time>2021-03-21T12:32:17.000Z</time>
      </trkpt>
      <trkpt lat="44.98121" lon="6.03311">
        <ele>2889.1999511719</ele>
        <time>2021-03-21T12:32:18.000Z</time>
      </trkpt>
      <trkpt lat="44.98121" lon="6.03311">
        <ele>2889.1999511719</ele>
        <time>2021-03-21T12:32:19.000Z</time>
      </trkpt>
      <trkpt lat="44.98121" lon="6.03311">
        <ele>2889.1999511719</ele>
        <time>2021-03-21T12:32:20.000Z</time>
      </trkpt>
      <trkpt lat="44.98121" lon="6.03311">
        <ele>2889.1999511719</ele>
        <time>2021-03-21T12:32:21.000Z</time>
      </trkpt>
      <trkpt lat="44.98121" lon="6.03311">
        <ele>2889.1999511719</ele>
        <time>2021-03-21T12:32:22.000Z</time>
      </trkpt>
      <trkpt lat="44.98121" lon="6.03311">
        <ele>2889.1999511719</ele>
        <time>2021-03-21T12:32:23.000Z</time>
      </trkpt>
      <trkpt lat="44.98121" lon="6.03311">
        <ele>2889.1999511719</ele>
        <time>2021-03-21T12:32:24.000Z</time>
      </trkpt>
      <trkpt lat="44.98121" lon="6.03311">
        <ele>2889.1999511719</ele>
        <time>2021-03-21T12:32:25.000Z</time>
      </trkpt>
      <trkpt lat="44.98121" lon="6.03311">
        <ele>2889.1999511719</ele>
        <time>2021-03-21T12:32:26.000Z</time>
      </trkpt>
      <trkpt lat="44.98121" lon="6.03311">
        <ele>2889.1999511719</ele>
        <time>2021-03-21T12:32:27.000Z</time>
      </trkpt>
      <trkpt lat="44.98121" lon="6.03311">
        <ele>2889.1999511719</ele>
        <time>2021-03-21T12:32:28.000Z</time>
      </trkpt>
      <trkpt lat="44.98121" lon="6.03311">
        <ele>2889.1999511719</ele>
        <time>2021-03-21T12:32:29.000Z</time>
      </trkpt>
      <trkpt lat="44.98122" lon="6.03311">
        <ele>2889.1999511719</ele>
        <time>2021-03-21T12:32:30.000Z</time>
      </trkpt>
      <trkpt lat="44.98122" lon="6.03311">
        <ele>2889.1999511719</ele>
        <time>2021-03-21T12:32:31.000Z</time>
      </trkpt>
      <trkpt lat="44.98122" lon="6.03311">
        <ele>2889.1999511719</ele>
        <time>2021-03-21T12:32:32.000Z</time>
      </trkpt>
      <trkpt lat="44.98122" lon="6.03311">
        <ele>2889.3999023438</ele>
        <time>2021-03-21T12:32:33.000Z</time>
      </trkpt>
      <trkpt lat="44.98122" lon="6.03311">
        <ele>2889.3999023438</ele>
        <time>2021-03-21T12:32:34.000Z</time>
      </trkpt>
      <trkpt lat="44.98122" lon="6.03311">
        <ele>2889.3999023438</ele>
        <time>2021-03-21T12:32:35.000Z</time>
      </trkpt>
      <trkpt lat="44.98122" lon="6.03311">
        <ele>2889.3999023438</ele>
        <time>2021-03-21T12:32:36.000Z</time>
      </trkpt>
      <trkpt lat="44.98122" lon="6.03311">
        <ele>2889.3999023438</ele>
        <time>2021-03-21T12:32:37.000Z</time>
      </trkpt>
      <trkpt lat="44.98122" lon="6.03311">
        <ele>2889.1999511719</ele>
        <time>2021-03-21T12:32:38.000Z</time>
      </trkpt>
      <trkpt lat="44.98122" lon="6.03311">
        <ele>2889.1999511719</ele>
        <time>2021-03-21T12:32:39.000Z</time>
      </trkpt>
      <trkpt lat="44.98122" lon="6.03312">
        <ele>2889.1999511719</ele>
        <time>2021-03-21T12:32:40.000Z</time>
      </trkpt>
      <trkpt lat="44.98122" lon="6.03311">
        <ele>2889.1999511719</ele>
        <time>2021-03-21T12:32:41.000Z</time>
      </trkpt>
      <trkpt lat="44.98123" lon="6.03311">
        <ele>2889.1999511719</ele>
        <time>2021-03-21T12:32:42.000Z</time>
      </trkpt>
      <trkpt lat="44.98122" lon="6.03312">
        <ele>2889.1999511719</ele>
        <time>2021-03-21T12:32:43.000Z</time>
      </trkpt>
      <trkpt lat="44.98122" lon="6.03312">
        <ele>2889.1999511719</ele>
        <time>2021-03-21T12:32:44.000Z</time>
      </trkpt>
      <trkpt lat="44.98122" lon="6.03312">
        <ele>2889.1999511719</ele>
        <time>2021-03-21T12:32:45.000Z</time>
      </trkpt>
      <trkpt lat="44.98122" lon="6.03312">
        <ele>2889.1999511719</ele>
        <time>2021-03-21T12:32:46.000Z</time>
      </trkpt>
      <trkpt lat="44.98122" lon="6.03312">
        <ele>2889.1999511719</ele>
        <time>2021-03-21T12:32:47.000Z</time>
      </trkpt>
      <trkpt lat="44.98122" lon="6.03312">
        <ele>2889.1999511719</ele>
        <time>2021-03-21T12:32:48.000Z</time>
      </trkpt>
      <trkpt lat="44.98122" lon="6.03312">
        <ele>2889.1999511719</ele>
        <time>2021-03-21T12:32:49.000Z</time>
      </trkpt>
      <trkpt lat="44.98122" lon="6.03312">
        <ele>2889.1999511719</ele>
        <time>2021-03-21T12:32:50.000Z</time>
      </trkpt>
      <trkpt lat="44.98123" lon="6.03312">
        <ele>2889.1999511719</ele>
        <time>2021-03-21T12:32:51.000Z</time>
      </trkpt>
      <trkpt lat="44.98123" lon="6.03312">
        <ele>2889.1999511719</ele>
        <time>2021-03-21T12:32:52.000Z</time>
      </trkpt>
      <trkpt lat="44.98123" lon="6.03312">
        <ele>2889.1999511719</ele>
        <time>2021-03-21T12:32:53.000Z</time>
      </trkpt>
      <trkpt lat="44.98123" lon="6.03312">
        <ele>2889.1999511719</ele>
        <time>2021-03-21T12:32:54.000Z</time>
      </trkpt>
      <trkpt lat="44.98123" lon="6.03311">
        <ele>2889.3999023438</ele>
        <time>2021-03-21T12:32:55.000Z</time>
      </trkpt>
      <trkpt lat="44.98123" lon="6.03311">
        <ele>2889.3999023438</ele>
        <time>2021-03-21T12:32:56.000Z</time>
      </trkpt>
      <trkpt lat="44.98123" lon="6.03311">
        <ele>2889.3999023438</ele>
        <time>2021-03-21T12:32:57.000Z</time>
      </trkpt>
      <trkpt lat="44.98122" lon="6.03311">
        <ele>2889.3999023438</ele>
        <time>2021-03-21T12:32:58.000Z</time>
      </trkpt>
      <trkpt lat="44.98122" lon="6.03311">
        <ele>2889.3999023438</ele>
        <time>2021-03-21T12:32:59.000Z</time>
      </trkpt>
      <trkpt lat="44.98122" lon="6.03311">
        <ele>2889.3999023438</ele>
        <time>2021-03-21T12:33:00.000Z</time>
      </trkpt>
      <trkpt lat="44.98122" lon="6.03311">
        <ele>2889.3999023438</ele>
        <time>2021-03-21T12:33:01.000Z</time>
      </trkpt>
      <trkpt lat="44.98122" lon="6.03311">
        <ele>2889.3999023438</ele>
        <time>2021-03-21T12:33:02.000Z</time>
      </trkpt>
      <trkpt lat="44.98122" lon="6.03311">
        <ele>2889.3999023438</ele>
        <time>2021-03-21T12:33:03.000Z</time>
      </trkpt>
      <trkpt lat="44.98122" lon="6.03311">
        <ele>2889.3999023438</ele>
        <time>2021-03-21T12:33:04.000Z</time>
      </trkpt>
      <trkpt lat="44.98122" lon="6.03311">
        <ele>2889.1999511719</ele>
        <time>2021-03-21T12:33:05.000Z</time>
      </trkpt>
      <trkpt lat="44.98122" lon="6.03311">
        <ele>2889.1999511719</ele>
        <time>2021-03-21T12:33:06.000Z</time>
      </trkpt>
      <trkpt lat="44.98122" lon="6.03311">
        <ele>2889.1999511719</ele>
        <time>2021-03-21T12:33:07.000Z</time>
      </trkpt>
      <trkpt lat="44.98122" lon="6.03311">
        <ele>2889.1999511719</ele>
        <time>2021-03-21T12:33:08.000Z</time>
      </trkpt>
      <trkpt lat="44.98121" lon="6.03311">
        <ele>2889.1999511719</ele>
        <time>2021-03-21T12:33:09.000Z</time>
      </trkpt>
      <trkpt lat="44.98121" lon="6.03311">
        <ele>2889.1999511719</ele>
        <time>2021-03-21T12:33:10.000Z</time>
      </trkpt>
      <trkpt lat="44.98121" lon="6.03312">
        <ele>2889</ele>
        <time>2021-03-21T12:33:11.000Z</time>
      </trkpt>
      <trkpt lat="44.98121" lon="6.03311">
        <ele>2889.1999511719</ele>
        <time>2021-03-21T12:33:12.000Z</time>
      </trkpt>
      <trkpt lat="44.98122" lon="6.03312">
        <ele>2889</ele>
        <time>2021-03-21T12:33:13.000Z</time>
      </trkpt>
      <trkpt lat="44.98121" lon="6.03312">
        <ele>2889</ele>
        <time>2021-03-21T12:33:14.000Z</time>
      </trkpt>
      <trkpt lat="44.98121" lon="6.03312">
        <ele>2889</ele>
        <time>2021-03-21T12:33:15.000Z</time>
      </trkpt>
      <trkpt lat="44.98121" lon="6.03312">
        <ele>2889</ele>
        <time>2021-03-21T12:33:16.000Z</time>
      </trkpt>
      <trkpt lat="44.98121" lon="6.03312">
        <ele>2889</ele>
        <time>2021-03-21T12:33:17.000Z</time>
      </trkpt>
      <trkpt lat="44.98121" lon="6.03312">
        <ele>2889</ele>
        <time>2021-03-21T12:33:18.000Z</time>
      </trkpt>
      <trkpt lat="44.98121" lon="6.03312">
        <ele>2889</ele>
        <time>2021-03-21T12:33:19.000Z</time>
      </trkpt>
      <trkpt lat="44.98121" lon="6.03312">
        <ele>2889</ele>
        <time>2021-03-21T12:33:20.000Z</time>
      </trkpt>
      <trkpt lat="44.98121" lon="6.03312">
        <ele>2888.8000488281</ele>
        <time>2021-03-21T12:33:21.000Z</time>
      </trkpt>
      <trkpt lat="44.98121" lon="6.03312">
        <ele>2888.8000488281</ele>
        <time>2021-03-21T12:33:22.000Z</time>
      </trkpt>
      <trkpt lat="44.98121" lon="6.03312">
        <ele>2888.8000488281</ele>
        <time>2021-03-21T12:33:23.000Z</time>
      </trkpt>
      <trkpt lat="44.98121" lon="6.03312">
        <ele>2888.8000488281</ele>
        <time>2021-03-21T12:33:24.000Z</time>
      </trkpt>
      <trkpt lat="44.98121" lon="6.03312">
        <ele>2888.8000488281</ele>
        <time>2021-03-21T12:33:25.000Z</time>
      </trkpt>
      <trkpt lat="44.98121" lon="6.03312">
        <ele>2889</ele>
        <time>2021-03-21T12:33:26.000Z</time>
      </trkpt>
      <trkpt lat="44.98121" lon="6.03312">
        <ele>2889</ele>
        <time>2021-03-21T12:33:27.000Z</time>
      </trkpt>
      <trkpt lat="44.98122" lon="6.03312">
        <ele>2889</ele>
        <time>2021-03-21T12:33:28.000Z</time>
      </trkpt>
      <trkpt lat="44.98121" lon="6.03312">
        <ele>2889</ele>
        <time>2021-03-21T12:33:29.000Z</time>
      </trkpt>
      <trkpt lat="44.98121" lon="6.03312">
        <ele>2889</ele>
        <time>2021-03-21T12:33:30.000Z</time>
      </trkpt>
      <trkpt lat="44.98121" lon="6.03312">
        <ele>2889</ele>
        <time>2021-03-21T12:33:31.000Z</time>
      </trkpt>
      <trkpt lat="44.98121" lon="6.03312">
        <ele>2889</ele>
        <time>2021-03-21T12:33:32.000Z</time>
      </trkpt>
      <trkpt lat="44.98122" lon="6.03311">
        <ele>2889.1999511719</ele>
        <time>2021-03-21T12:33:33.000Z</time>
      </trkpt>
      <trkpt lat="44.98122" lon="6.03311">
        <ele>2889.1999511719</ele>
        <time>2021-03-21T12:33:34.000Z</time>
      </trkpt>
      <trkpt lat="44.98122" lon="6.03311">
        <ele>2889.1999511719</ele>
        <time>2021-03-21T12:33:35.000Z</time>
      </trkpt>
      <trkpt lat="44.98122" lon="6.03311">
        <ele>2889.1999511719</ele>
        <time>2021-03-21T12:33:36.000Z</time>
      </trkpt>
      <trkpt lat="44.98122" lon="6.03311">
        <ele>2889.1999511719</ele>
        <time>2021-03-21T12:33:37.000Z</time>
      </trkpt>
      <trkpt lat="44.98122" lon="6.03311">
        <ele>2889.3999023438</ele>
        <time>2021-03-21T12:33:38.000Z</time>
      </trkpt>
      <trkpt lat="44.98122" lon="6.03311">
        <ele>2889.3999023438</ele>
        <time>2021-03-21T12:33:39.000Z</time>
      </trkpt>
      <trkpt lat="44.98122" lon="6.03311">
        <ele>2889.3999023438</ele>
        <time>2021-03-21T12:33:40.000Z</time>
      </trkpt>
      <trkpt lat="44.98122" lon="6.03311">
        <ele>2889.3999023438</ele>
        <time>2021-03-21T12:33:41.000Z</time>
      </trkpt>
      <trkpt lat="44.98122" lon="6.03311">
        <ele>2889.1999511719</ele>
        <time>2021-03-21T12:33:42.000Z</time>
      </trkpt>
      <trkpt lat="44.98122" lon="6.03311">
        <ele>2889.1999511719</ele>
        <time>2021-03-21T12:33:43.000Z</time>
      </trkpt>
      <trkpt lat="44.98122" lon="6.03312">
        <ele>2889.1999511719</ele>
        <time>2021-03-21T12:33:44.000Z</time>
      </trkpt>
      <trkpt lat="44.98122" lon="6.03312">
        <ele>2889.1999511719</ele>
        <time>2021-03-21T12:33:45.000Z</time>
      </trkpt>
      <trkpt lat="44.98122" lon="6.03312">
        <ele>2889</ele>
        <time>2021-03-21T12:33:46.000Z</time>
      </trkpt>
      <trkpt lat="44.98122" lon="6.03312">
        <ele>2889.1999511719</ele>
        <time>2021-03-21T12:33:47.000Z</time>
      </trkpt>
      <trkpt lat="44.98122" lon="6.03312">
        <ele>2889.1999511719</ele>
        <time>2021-03-21T12:33:48.000Z</time>
      </trkpt>
      <trkpt lat="44.98122" lon="6.03312">
        <ele>2889.1999511719</ele>
        <time>2021-03-21T12:33:49.000Z</time>
      </trkpt>
      <trkpt lat="44.98122" lon="6.03311">
        <ele>2889.1999511719</ele>
        <time>2021-03-21T12:33:50.000Z</time>
      </trkpt>
      <trkpt lat="44.98122" lon="6.03311">
        <ele>2889.1999511719</ele>
        <time>2021-03-21T12:33:51.000Z</time>
      </trkpt>
      <trkpt lat="44.98122" lon="6.03311">
        <ele>2889.1999511719</ele>
        <time>2021-03-21T12:33:52.000Z</time>
      </trkpt>
      <trkpt lat="44.98122" lon="6.03311">
        <ele>2889.3999023438</ele>
        <time>2021-03-21T12:33:53.000Z</time>
      </trkpt>
      <trkpt lat="44.98122" lon="6.03311">
        <ele>2889.1999511719</ele>
        <time>2021-03-21T12:33:54.000Z</time>
      </trkpt>
      <trkpt lat="44.98122" lon="6.03311">
        <ele>2889.1999511719</ele>
        <time>2021-03-21T12:33:55.000Z</time>
      </trkpt>
      <trkpt lat="44.98122" lon="6.03311">
        <ele>2889.1999511719</ele>
        <time>2021-03-21T12:33:56.000Z</time>
      </trkpt>
      <trkpt lat="44.98122" lon="6.03311">
        <ele>2889.1999511719</ele>
        <time>2021-03-21T12:33:57.000Z</time>
      </trkpt>
      <trkpt lat="44.98121" lon="6.03311">
        <ele>2889.1999511719</ele>
        <time>2021-03-21T12:33:58.000Z</time>
      </trkpt>
      <trkpt lat="44.98121" lon="6.03311">
        <ele>2889.1999511719</ele>
        <time>2021-03-21T12:33:59.000Z</time>
      </trkpt>
      <trkpt lat="44.98121" lon="6.03311">
        <ele>2889.1999511719</ele>
        <time>2021-03-21T12:34:00.000Z</time>
      </trkpt>
      <trkpt lat="44.98121" lon="6.03312">
        <ele>2889</ele>
        <time>2021-03-21T12:34:01.000Z</time>
      </trkpt>
      <trkpt lat="44.98121" lon="6.03312">
        <ele>2889</ele>
        <time>2021-03-21T12:34:02.000Z</time>
      </trkpt>
      <trkpt lat="44.98121" lon="6.03312">
        <ele>2889</ele>
        <time>2021-03-21T12:34:03.000Z</time>
      </trkpt>
      <trkpt lat="44.98121" lon="6.03312">
        <ele>2889</ele>
        <time>2021-03-21T12:34:04.000Z</time>
      </trkpt>
      <trkpt lat="44.98121" lon="6.03312">
        <ele>2889</ele>
        <time>2021-03-21T12:34:05.000Z</time>
      </trkpt>
      <trkpt lat="44.98121" lon="6.03312">
        <ele>2889</ele>
        <time>2021-03-21T12:34:06.000Z</time>
      </trkpt>
      <trkpt lat="44.98121" lon="6.03312">
        <ele>2889</ele>
        <time>2021-03-21T12:34:07.000Z</time>
      </trkpt>
      <trkpt lat="44.98121" lon="6.03311">
        <ele>2889.1999511719</ele>
        <time>2021-03-21T12:34:08.000Z</time>
      </trkpt>
      <trkpt lat="44.98121" lon="6.03311">
        <ele>2889.1999511719</ele>
        <time>2021-03-21T12:34:09.000Z</time>
      </trkpt>
      <trkpt lat="44.98121" lon="6.03311">
        <ele>2889.1999511719</ele>
        <time>2021-03-21T12:34:10.000Z</time>
      </trkpt>
      <trkpt lat="44.98122" lon="6.03311">
        <ele>2889.1999511719</ele>
        <time>2021-03-21T12:34:11.000Z</time>
      </trkpt>
      <trkpt lat="44.98122" lon="6.03311">
        <ele>2889.1999511719</ele>
        <time>2021-03-21T12:34:12.000Z</time>
      </trkpt>
      <trkpt lat="44.98122" lon="6.03312">
        <ele>2889.1999511719</ele>
        <time>2021-03-21T12:34:13.000Z</time>
      </trkpt>
      <trkpt lat="44.98122" lon="6.03312">
        <ele>2889.1999511719</ele>
        <time>2021-03-21T12:34:14.000Z</time>
      </trkpt>
      <trkpt lat="44.98122" lon="6.03312">
        <ele>2889.1999511719</ele>
        <time>2021-03-21T12:34:15.000Z</time>
      </trkpt>
      <trkpt lat="44.98122" lon="6.03312">
        <ele>2889.1999511719</ele>
        <time>2021-03-21T12:34:16.000Z</time>
      </trkpt>
      <trkpt lat="44.98122" lon="6.03312">
        <ele>2889.1999511719</ele>
        <time>2021-03-21T12:34:17.000Z</time>
      </trkpt>
      <trkpt lat="44.98122" lon="6.03312">
        <ele>2889</ele>
        <time>2021-03-21T12:34:18.000Z</time>
      </trkpt>
      <trkpt lat="44.98121" lon="6.03312">
        <ele>2889</ele>
        <time>2021-03-21T12:34:19.000Z</time>
      </trkpt>
      <trkpt lat="44.98121" lon="6.03312">
        <ele>2889</ele>
        <time>2021-03-21T12:34:20.000Z</time>
      </trkpt>
      <trkpt lat="44.98121" lon="6.03312">
        <ele>2889</ele>
        <time>2021-03-21T12:34:21.000Z</time>
      </trkpt>
      <trkpt lat="44.98122" lon="6.03312">
        <ele>2889</ele>
        <time>2021-03-21T12:34:22.000Z</time>
      </trkpt>
      <trkpt lat="44.98122" lon="6.03312">
        <ele>2889</ele>
        <time>2021-03-21T12:34:23.000Z</time>
      </trkpt>
      <trkpt lat="44.98122" lon="6.03312">
        <ele>2889</ele>
        <time>2021-03-21T12:34:24.000Z</time>
      </trkpt>
      <trkpt lat="44.98121" lon="6.03312">
        <ele>2889</ele>
        <time>2021-03-21T12:34:25.000Z</time>
      </trkpt>
      <trkpt lat="44.98121" lon="6.03312">
        <ele>2889</ele>
        <time>2021-03-21T12:34:26.000Z</time>
      </trkpt>
      <trkpt lat="44.98121" lon="6.03312">
        <ele>2889</ele>
        <time>2021-03-21T12:34:27.000Z</time>
      </trkpt>
      <trkpt lat="44.98122" lon="6.03312">
        <ele>2889</ele>
        <time>2021-03-21T12:34:28.000Z</time>
      </trkpt>
      <trkpt lat="44.98122" lon="6.03312">
        <ele>2889</ele>
        <time>2021-03-21T12:34:29.000Z</time>
      </trkpt>
      <trkpt lat="44.98122" lon="6.03312">
        <ele>2889</ele>
        <time>2021-03-21T12:34:30.000Z</time>
      </trkpt>
      <trkpt lat="44.98121" lon="6.03312">
        <ele>2889</ele>
        <time>2021-03-21T12:34:31.000Z</time>
      </trkpt>
      <trkpt lat="44.98122" lon="6.03312">
        <ele>2889</ele>
        <time>2021-03-21T12:34:32.000Z</time>
      </trkpt>
      <trkpt lat="44.98122" lon="6.03312">
        <ele>2889.1999511719</ele>
        <time>2021-03-21T12:34:33.000Z</time>
      </trkpt>
      <trkpt lat="44.98122" lon="6.03312">
        <ele>2889</ele>
        <time>2021-03-21T12:34:34.000Z</time>
      </trkpt>
      <trkpt lat="44.98122" lon="6.03312">
        <ele>2889</ele>
        <time>2021-03-21T12:34:35.000Z</time>
      </trkpt>
      <trkpt lat="44.98122" lon="6.03312">
        <ele>2889</ele>
        <time>2021-03-21T12:34:36.000Z</time>
      </trkpt>
      <trkpt lat="44.98122" lon="6.03312">
        <ele>2889.1999511719</ele>
        <time>2021-03-21T12:34:37.000Z</time>
      </trkpt>
      <trkpt lat="44.98122" lon="6.03312">
        <ele>2889.1999511719</ele>
        <time>2021-03-21T12:34:38.000Z</time>
      </trkpt>
      <trkpt lat="44.98122" lon="6.03312">
        <ele>2889</ele>
        <time>2021-03-21T12:34:39.000Z</time>
      </trkpt>
      <trkpt lat="44.98122" lon="6.03312">
        <ele>2888.8000488281</ele>
        <time>2021-03-21T12:34:40.000Z</time>
      </trkpt>
      <trkpt lat="44.98121" lon="6.03313">
        <ele>2888.8000488281</ele>
        <time>2021-03-21T12:34:41.000Z</time>
      </trkpt>
      <trkpt lat="44.98121" lon="6.03313">
        <ele>2888.8000488281</ele>
        <time>2021-03-21T12:34:42.000Z</time>
      </trkpt>
      <trkpt lat="44.98121" lon="6.03313">
        <ele>2888.8000488281</ele>
        <time>2021-03-21T12:34:43.000Z</time>
      </trkpt>
      <trkpt lat="44.98121" lon="6.03313">
        <ele>2888.8000488281</ele>
        <time>2021-03-21T12:34:44.000Z</time>
      </trkpt>
      <trkpt lat="44.98121" lon="6.03313">
        <ele>2888.6000976562</ele>
        <time>2021-03-21T12:34:45.000Z</time>
      </trkpt>
      <trkpt lat="44.98121" lon="6.03313">
        <ele>2888.8000488281</ele>
        <time>2021-03-21T12:34:46.000Z</time>
      </trkpt>
      <trkpt lat="44.98121" lon="6.03313">
        <ele>2888.6000976562</ele>
        <time>2021-03-21T12:34:47.000Z</time>
      </trkpt>
      <trkpt lat="44.98121" lon="6.03313">
        <ele>2888.6000976562</ele>
        <time>2021-03-21T12:34:48.000Z</time>
      </trkpt>
      <trkpt lat="44.98121" lon="6.03313">
        <ele>2888.8000488281</ele>
        <time>2021-03-21T12:34:49.000Z</time>
      </trkpt>
      <trkpt lat="44.98122" lon="6.03312">
        <ele>2888.8000488281</ele>
        <time>2021-03-21T12:34:50.000Z</time>
      </trkpt>
      <trkpt lat="44.98122" lon="6.03313">
        <ele>2888.8000488281</ele>
        <time>2021-03-21T12:34:51.000Z</time>
      </trkpt>
      <trkpt lat="44.98122" lon="6.03313">
        <ele>2888.8000488281</ele>
        <time>2021-03-21T12:34:52.000Z</time>
      </trkpt>
      <trkpt lat="44.98122" lon="6.03313">
        <ele>2888.8000488281</ele>
        <time>2021-03-21T12:34:53.000Z</time>
      </trkpt>
      <trkpt lat="44.98122" lon="6.03313">
        <ele>2888.8000488281</ele>
        <time>2021-03-21T12:34:54.000Z</time>
      </trkpt>
      <trkpt lat="44.98122" lon="6.03313">
        <ele>2888.8000488281</ele>
        <time>2021-03-21T12:34:55.000Z</time>
      </trkpt>
      <trkpt lat="44.98122" lon="6.03313">
        <ele>2888.8000488281</ele>
        <time>2021-03-21T12:34:56.000Z</time>
      </trkpt>
      <trkpt lat="44.98122" lon="6.03313">
        <ele>2889</ele>
        <time>2021-03-21T12:34:57.000Z</time>
      </trkpt>
      <trkpt lat="44.98122" lon="6.03313">
        <ele>2889</ele>
        <time>2021-03-21T12:34:58.000Z</time>
      </trkpt>
      <trkpt lat="44.98122" lon="6.03313">
        <ele>2889</ele>
        <time>2021-03-21T12:34:59.000Z</time>
      </trkpt>
      <trkpt lat="44.98122" lon="6.03312">
        <ele>2889</ele>
        <time>2021-03-21T12:35:00.000Z</time>
      </trkpt>
      <trkpt lat="44.98122" lon="6.03313">
        <ele>2889</ele>
        <time>2021-03-21T12:35:01.000Z</time>
      </trkpt>
      <trkpt lat="44.98122" lon="6.03313">
        <ele>2888.8000488281</ele>
        <time>2021-03-21T12:35:02.000Z</time>
      </trkpt>
      <trkpt lat="44.98122" lon="6.03313">
        <ele>2888.6000976562</ele>
        <time>2021-03-21T12:35:03.000Z</time>
      </trkpt>
      <trkpt lat="44.98122" lon="6.03313">
        <ele>2888.6000976562</ele>
        <time>2021-03-21T12:35:04.000Z</time>
      </trkpt>
      <trkpt lat="44.98122" lon="6.03314">
        <ele>2888.6000976562</ele>
        <time>2021-03-21T12:35:05.000Z</time>
      </trkpt>
      <trkpt lat="44.98122" lon="6.03314">
        <ele>2888.3999023438</ele>
        <time>2021-03-21T12:35:06.000Z</time>
      </trkpt>
      <trkpt lat="44.98121" lon="6.03314">
        <ele>2888.3999023438</ele>
        <time>2021-03-21T12:35:07.000Z</time>
      </trkpt>
      <trkpt lat="44.98121" lon="6.03314">
        <ele>2888.3999023438</ele>
        <time>2021-03-21T12:35:08.000Z</time>
      </trkpt>
      <trkpt lat="44.98121" lon="6.03315">
        <ele>2888.1999511719</ele>
        <time>2021-03-21T12:35:09.000Z</time>
      </trkpt>
      <trkpt lat="44.98121" lon="6.03314">
        <ele>2888.3999023438</ele>
        <time>2021-03-21T12:35:10.000Z</time>
      </trkpt>
      <trkpt lat="44.98121" lon="6.03314">
        <ele>2888.3999023438</ele>
        <time>2021-03-21T12:35:11.000Z</time>
      </trkpt>
      <trkpt lat="44.98121" lon="6.03314">
        <ele>2888.3999023438</ele>
        <time>2021-03-21T12:35:12.000Z</time>
      </trkpt>
      <trkpt lat="44.98121" lon="6.03314">
        <ele>2888.3999023438</ele>
        <time>2021-03-21T12:35:13.000Z</time>
      </trkpt>
      <trkpt lat="44.98121" lon="6.03314">
        <ele>2888.3999023438</ele>
        <time>2021-03-21T12:35:14.000Z</time>
      </trkpt>
      <trkpt lat="44.98121" lon="6.03314">
        <ele>2888.3999023438</ele>
        <time>2021-03-21T12:35:15.000Z</time>
      </trkpt>
      <trkpt lat="44.98121" lon="6.03314">
        <ele>2888.1999511719</ele>
        <time>2021-03-21T12:35:16.000Z</time>
      </trkpt>
      <trkpt lat="44.9812" lon="6.03314">
        <ele>2888.1999511719</ele>
        <time>2021-03-21T12:35:17.000Z</time>
      </trkpt>
      <trkpt lat="44.98121" lon="6.03314">
        <ele>2888.1999511719</ele>
        <time>2021-03-21T12:35:18.000Z</time>
      </trkpt>
      <trkpt lat="44.98121" lon="6.03313">
        <ele>2888.3999023438</ele>
        <time>2021-03-21T12:35:19.000Z</time>
      </trkpt>
      <trkpt lat="44.98121" lon="6.03313">
        <ele>2888.3999023438</ele>
        <time>2021-03-21T12:35:20.000Z</time>
      </trkpt>
      <trkpt lat="44.98121" lon="6.03313">
        <ele>2888.6000976562</ele>
        <time>2021-03-21T12:35:21.000Z</time>
      </trkpt>
      <trkpt lat="44.98121" lon="6.03313">
        <ele>2888.6000976562</ele>
        <time>2021-03-21T12:35:22.000Z</time>
      </trkpt>
      <trkpt lat="44.98121" lon="6.03313">
        <ele>2888.6000976562</ele>
        <time>2021-03-21T12:35:23.000Z</time>
      </trkpt>
      <trkpt lat="44.98121" lon="6.03313">
        <ele>2888.6000976562</ele>
        <time>2021-03-21T12:35:24.000Z</time>
      </trkpt>
      <trkpt lat="44.98121" lon="6.03313">
        <ele>2888.6000976562</ele>
        <time>2021-03-21T12:35:25.000Z</time>
      </trkpt>
      <trkpt lat="44.98121" lon="6.03313">
        <ele>2888.6000976562</ele>
        <time>2021-03-21T12:35:26.000Z</time>
      </trkpt>
      <trkpt lat="44.98121" lon="6.03313">
        <ele>2888.6000976562</ele>
        <time>2021-03-21T12:35:27.000Z</time>
      </trkpt>
      <trkpt lat="44.98121" lon="6.03313">
        <ele>2888.6000976562</ele>
        <time>2021-03-21T12:35:28.000Z</time>
      </trkpt>
      <trkpt lat="44.98121" lon="6.03313">
        <ele>2888.6000976562</ele>
        <time>2021-03-21T12:35:29.000Z</time>
      </trkpt>
      <trkpt lat="44.98121" lon="6.03313">
        <ele>2888.8000488281</ele>
        <time>2021-03-21T12:35:30.000Z</time>
      </trkpt>
      <trkpt lat="44.98121" lon="6.03312">
        <ele>2888.8000488281</ele>
        <time>2021-03-21T12:35:31.000Z</time>
      </trkpt>
      <trkpt lat="44.98121" lon="6.03312">
        <ele>2888.8000488281</ele>
        <time>2021-03-21T12:35:32.000Z</time>
      </trkpt>
      <trkpt lat="44.98121" lon="6.03312">
        <ele>2888.8000488281</ele>
        <time>2021-03-21T12:35:33.000Z</time>
      </trkpt>
      <trkpt lat="44.98121" lon="6.03312">
        <ele>2888.8000488281</ele>
        <time>2021-03-21T12:35:34.000Z</time>
      </trkpt>
      <trkpt lat="44.98121" lon="6.03312">
        <ele>2888.8000488281</ele>
        <time>2021-03-21T12:35:35.000Z</time>
      </trkpt>
      <trkpt lat="44.98121" lon="6.03312">
        <ele>2888.8000488281</ele>
        <time>2021-03-21T12:35:36.000Z</time>
      </trkpt>
      <trkpt lat="44.98121" lon="6.03313">
        <ele>2888.8000488281</ele>
        <time>2021-03-21T12:35:37.000Z</time>
      </trkpt>
      <trkpt lat="44.98121" lon="6.03312">
        <ele>2888.8000488281</ele>
        <time>2021-03-21T12:35:38.000Z</time>
      </trkpt>
      <trkpt lat="44.98121" lon="6.03312">
        <ele>2888.8000488281</ele>
        <time>2021-03-21T12:35:39.000Z</time>
      </trkpt>
      <trkpt lat="44.98121" lon="6.03312">
        <ele>2888.8000488281</ele>
        <time>2021-03-21T12:35:40.000Z</time>
      </trkpt>
      <trkpt lat="44.98121" lon="6.03312">
        <ele>2888.8000488281</ele>
        <time>2021-03-21T12:35:41.000Z</time>
      </trkpt>
      <trkpt lat="44.98121" lon="6.03312">
        <ele>2889</ele>
        <time>2021-03-21T12:35:42.000Z</time>
      </trkpt>
      <trkpt lat="44.98121" lon="6.03312">
        <ele>2888.8000488281</ele>
        <time>2021-03-21T12:35:43.000Z</time>
      </trkpt>
      <trkpt lat="44.98121" lon="6.03312">
        <ele>2888.8000488281</ele>
        <time>2021-03-21T12:35:44.000Z</time>
      </trkpt>
      <trkpt lat="44.98121" lon="6.03312">
        <ele>2888.8000488281</ele>
        <time>2021-03-21T12:35:45.000Z</time>
      </trkpt>
      <trkpt lat="44.98121" lon="6.03312">
        <ele>2889</ele>
        <time>2021-03-21T12:35:46.000Z</time>
      </trkpt>
      <trkpt lat="44.98121" lon="6.03312">
        <ele>2889</ele>
        <time>2021-03-21T12:35:47.000Z</time>
      </trkpt>
      <trkpt lat="44.98121" lon="6.03312">
        <ele>2889</ele>
        <time>2021-03-21T12:35:48.000Z</time>
      </trkpt>
      <trkpt lat="44.98121" lon="6.03312">
        <ele>2889</ele>
        <time>2021-03-21T12:35:49.000Z</time>
      </trkpt>
      <trkpt lat="44.98121" lon="6.03312">
        <ele>2889</ele>
        <time>2021-03-21T12:35:50.000Z</time>
      </trkpt>
      <trkpt lat="44.98122" lon="6.03312">
        <ele>2889.1999511719</ele>
        <time>2021-03-21T12:35:51.000Z</time>
      </trkpt>
      <trkpt lat="44.98121" lon="6.03312">
        <ele>2889</ele>
        <time>2021-03-21T12:35:52.000Z</time>
      </trkpt>
      <trkpt lat="44.98122" lon="6.03312">
        <ele>2889</ele>
        <time>2021-03-21T12:35:53.000Z</time>
      </trkpt>
      <trkpt lat="44.98122" lon="6.03312">
        <ele>2889</ele>
        <time>2021-03-21T12:35:54.000Z</time>
      </trkpt>
      <trkpt lat="44.98122" lon="6.03312">
        <ele>2889</ele>
        <time>2021-03-21T12:35:55.000Z</time>
      </trkpt>
      <trkpt lat="44.98122" lon="6.03312">
        <ele>2889</ele>
        <time>2021-03-21T12:35:56.000Z</time>
      </trkpt>
      <trkpt lat="44.98122" lon="6.03312">
        <ele>2889</ele>
        <time>2021-03-21T12:35:57.000Z</time>
      </trkpt>
      <trkpt lat="44.98122" lon="6.03312">
        <ele>2889</ele>
        <time>2021-03-21T12:35:58.000Z</time>
      </trkpt>
      <trkpt lat="44.98121" lon="6.03312">
        <ele>2889</ele>
        <time>2021-03-21T12:35:59.000Z</time>
      </trkpt>
      <trkpt lat="44.98121" lon="6.03312">
        <ele>2889</ele>
        <time>2021-03-21T12:36:00.000Z</time>
      </trkpt>
      <trkpt lat="44.98122" lon="6.03312">
        <ele>2889</ele>
        <time>2021-03-21T12:36:01.000Z</time>
      </trkpt>
      <trkpt lat="44.98121" lon="6.03312">
        <ele>2889</ele>
        <time>2021-03-21T12:36:02.000Z</time>
      </trkpt>
      <trkpt lat="44.98122" lon="6.03312">
        <ele>2889</ele>
        <time>2021-03-21T12:36:03.000Z</time>
      </trkpt>
      <trkpt lat="44.98121" lon="6.03312">
        <ele>2889</ele>
        <time>2021-03-21T12:36:04.000Z</time>
      </trkpt>
      <trkpt lat="44.98122" lon="6.03312">
        <ele>2889</ele>
        <time>2021-03-21T12:36:05.000Z</time>
      </trkpt>
      <trkpt lat="44.98122" lon="6.03312">
        <ele>2889</ele>
        <time>2021-03-21T12:36:06.000Z</time>
      </trkpt>
      <trkpt lat="44.98122" lon="6.03312">
        <ele>2889.1999511719</ele>
        <time>2021-03-21T12:36:07.000Z</time>
      </trkpt>
      <trkpt lat="44.98122" lon="6.03312">
        <ele>2889</ele>
        <time>2021-03-21T12:36:08.000Z</time>
      </trkpt>
      <trkpt lat="44.98122" lon="6.03312">
        <ele>2889</ele>
        <time>2021-03-21T12:36:09.000Z</time>
      </trkpt>
      <trkpt lat="44.98122" lon="6.03312">
        <ele>2889</ele>
        <time>2021-03-21T12:36:10.000Z</time>
      </trkpt>
      <trkpt lat="44.98122" lon="6.03312">
        <ele>2889</ele>
        <time>2021-03-21T12:36:11.000Z</time>
      </trkpt>
      <trkpt lat="44.98122" lon="6.03312">
        <ele>2888.8000488281</ele>
        <time>2021-03-21T12:36:12.000Z</time>
      </trkpt>
      <trkpt lat="44.98122" lon="6.03313">
        <ele>2889</ele>
        <time>2021-03-21T12:36:13.000Z</time>
      </trkpt>
      <trkpt lat="44.98122" lon="6.03313">
        <ele>2888.8000488281</ele>
        <time>2021-03-21T12:36:14.000Z</time>
      </trkpt>
      <trkpt lat="44.98122" lon="6.03313">
        <ele>2888.8000488281</ele>
        <time>2021-03-21T12:36:15.000Z</time>
      </trkpt>
      <trkpt lat="44.98122" lon="6.03313">
        <ele>2888.8000488281</ele>
        <time>2021-03-21T12:36:16.000Z</time>
      </trkpt>
      <trkpt lat="44.98122" lon="6.03313">
        <ele>2888.8000488281</ele>
        <time>2021-03-21T12:36:17.000Z</time>
      </trkpt>
      <trkpt lat="44.98122" lon="6.03313">
        <ele>2888.8000488281</ele>
        <time>2021-03-21T12:36:18.000Z</time>
      </trkpt>
      <trkpt lat="44.98122" lon="6.03313">
        <ele>2888.8000488281</ele>
        <time>2021-03-21T12:36:19.000Z</time>
      </trkpt>
      <trkpt lat="44.98122" lon="6.03313">
        <ele>2888.8000488281</ele>
        <time>2021-03-21T12:36:20.000Z</time>
      </trkpt>
      <trkpt lat="44.98122" lon="6.03313">
        <ele>2888.8000488281</ele>
        <time>2021-03-21T12:36:21.000Z</time>
      </trkpt>
      <trkpt lat="44.98122" lon="6.03313">
        <ele>2888.8000488281</ele>
        <time>2021-03-21T12:36:22.000Z</time>
      </trkpt>
      <trkpt lat="44.98122" lon="6.03313">
        <ele>2888.8000488281</ele>
        <time>2021-03-21T12:36:23.000Z</time>
      </trkpt>
      <trkpt lat="44.98122" lon="6.03313">
        <ele>2888.8000488281</ele>
        <time>2021-03-21T12:36:24.000Z</time>
      </trkpt>
      <trkpt lat="44.98122" lon="6.03313">
        <ele>2888.8000488281</ele>
        <time>2021-03-21T12:36:25.000Z</time>
      </trkpt>
      <trkpt lat="44.98122" lon="6.03313">
        <ele>2888.6000976562</ele>
        <time>2021-03-21T12:36:26.000Z</time>
      </trkpt>
      <trkpt lat="44.98122" lon="6.03313">
        <ele>2888.6000976562</ele>
        <time>2021-03-21T12:36:27.000Z</time>
      </trkpt>
      <trkpt lat="44.98122" lon="6.03313">
        <ele>2888.8000488281</ele>
        <time>2021-03-21T12:36:28.000Z</time>
      </trkpt>
      <trkpt lat="44.98122" lon="6.03313">
        <ele>2888.8000488281</ele>
        <time>2021-03-21T12:36:29.000Z</time>
      </trkpt>
      <trkpt lat="44.98123" lon="6.03313">
        <ele>2888.8000488281</ele>
        <time>2021-03-21T12:36:30.000Z</time>
      </trkpt>
      <trkpt lat="44.98122" lon="6.03313">
        <ele>2888.8000488281</ele>
        <time>2021-03-21T12:36:31.000Z</time>
      </trkpt>
      <trkpt lat="44.98122" lon="6.03313">
        <ele>2888.8000488281</ele>
        <time>2021-03-21T12:36:32.000Z</time>
      </trkpt>
      <trkpt lat="44.98122" lon="6.03313">
        <ele>2889</ele>
        <time>2021-03-21T12:36:33.000Z</time>
      </trkpt>
      <trkpt lat="44.98122" lon="6.03313">
        <ele>2889</ele>
        <time>2021-03-21T12:36:34.000Z</time>
      </trkpt>
      <trkpt lat="44.98122" lon="6.03312">
        <ele>2889</ele>
        <time>2021-03-21T12:36:35.000Z</time>
      </trkpt>
      <trkpt lat="44.98122" lon="6.03313">
        <ele>2889</ele>
        <time>2021-03-21T12:36:36.000Z</time>
      </trkpt>
      <trkpt lat="44.98122" lon="6.03313">
        <ele>2889</ele>
        <time>2021-03-21T12:36:37.000Z</time>
      </trkpt>
      <trkpt lat="44.98122" lon="6.03313">
        <ele>2889</ele>
        <time>2021-03-21T12:36:38.000Z</time>
      </trkpt>
      <trkpt lat="44.98122" lon="6.03313">
        <ele>2889</ele>
        <time>2021-03-21T12:36:39.000Z</time>
      </trkpt>
      <trkpt lat="44.98122" lon="6.03313">
        <ele>2889</ele>
        <time>2021-03-21T12:36:40.000Z</time>
      </trkpt>
      <trkpt lat="44.98122" lon="6.03313">
        <ele>2889</ele>
        <time>2021-03-21T12:36:41.000Z</time>
      </trkpt>
      <trkpt lat="44.98122" lon="6.03312">
        <ele>2889</ele>
        <time>2021-03-21T12:36:42.000Z</time>
      </trkpt>
      <trkpt lat="44.98122" lon="6.03312">
        <ele>2889</ele>
        <time>2021-03-21T12:36:43.000Z</time>
      </trkpt>
      <trkpt lat="44.98122" lon="6.03312">
        <ele>2889</ele>
        <time>2021-03-21T12:36:44.000Z</time>
      </trkpt>
      <trkpt lat="44.98122" lon="6.03312">
        <ele>2889</ele>
        <time>2021-03-21T12:36:45.000Z</time>
      </trkpt>
      <trkpt lat="44.98122" lon="6.03312">
        <ele>2889</ele>
        <time>2021-03-21T12:36:46.000Z</time>
      </trkpt>
      <trkpt lat="44.98122" lon="6.03313">
        <ele>2889</ele>
        <time>2021-03-21T12:36:47.000Z</time>
      </trkpt>
      <trkpt lat="44.98122" lon="6.03313">
        <ele>2888.8000488281</ele>
        <time>2021-03-21T12:36:48.000Z</time>
      </trkpt>
      <trkpt lat="44.98122" lon="6.03312">
        <ele>2889</ele>
        <time>2021-03-21T12:36:49.000Z</time>
      </trkpt>
      <trkpt lat="44.98122" lon="6.03312">
        <ele>2889</ele>
        <time>2021-03-21T12:36:50.000Z</time>
      </trkpt>
      <trkpt lat="44.98122" lon="6.03312">
        <ele>2889</ele>
        <time>2021-03-21T12:36:51.000Z</time>
      </trkpt>
      <trkpt lat="44.98122" lon="6.03312">
        <ele>2889</ele>
        <time>2021-03-21T12:36:52.000Z</time>
      </trkpt>
      <trkpt lat="44.98122" lon="6.03312">
        <ele>2889</ele>
        <time>2021-03-21T12:36:53.000Z</time>
      </trkpt>
      <trkpt lat="44.98122" lon="6.03312">
        <ele>2889</ele>
        <time>2021-03-21T12:36:54.000Z</time>
      </trkpt>
      <trkpt lat="44.98122" lon="6.03312">
        <ele>2889</ele>
        <time>2021-03-21T12:36:55.000Z</time>
      </trkpt>
      <trkpt lat="44.98122" lon="6.03312">
        <ele>2889</ele>
        <time>2021-03-21T12:36:56.000Z</time>
      </trkpt>
      <trkpt lat="44.98122" lon="6.03312">
        <ele>2889</ele>
        <time>2021-03-21T12:36:57.000Z</time>
      </trkpt>
      <trkpt lat="44.98122" lon="6.03312">
        <ele>2889</ele>
        <time>2021-03-21T12:36:58.000Z</time>
      </trkpt>
      <trkpt lat="44.98121" lon="6.03312">
        <ele>2889</ele>
        <time>2021-03-21T12:36:59.000Z</time>
      </trkpt>
      <trkpt lat="44.98121" lon="6.03312">
        <ele>2889</ele>
        <time>2021-03-21T12:37:00.000Z</time>
      </trkpt>
      <trkpt lat="44.98121" lon="6.03312">
        <ele>2888.8000488281</ele>
        <time>2021-03-21T12:37:01.000Z</time>
      </trkpt>
      <trkpt lat="44.98121" lon="6.03312">
        <ele>2889</ele>
        <time>2021-03-21T12:37:02.000Z</time>
      </trkpt>
      <trkpt lat="44.98121" lon="6.03312">
        <ele>2888.8000488281</ele>
        <time>2021-03-21T12:37:03.000Z</time>
      </trkpt>
      <trkpt lat="44.98121" lon="6.03312">
        <ele>2888.8000488281</ele>
        <time>2021-03-21T12:37:04.000Z</time>
      </trkpt>
      <trkpt lat="44.98121" lon="6.03312">
        <ele>2888.8000488281</ele>
        <time>2021-03-21T12:37:05.000Z</time>
      </trkpt>
      <trkpt lat="44.98121" lon="6.03312">
        <ele>2888.8000488281</ele>
        <time>2021-03-21T12:37:06.000Z</time>
      </trkpt>
      <trkpt lat="44.98121" lon="6.03312">
        <ele>2888.8000488281</ele>
        <time>2021-03-21T12:37:07.000Z</time>
      </trkpt>
      <trkpt lat="44.98121" lon="6.03312">
        <ele>2888.8000488281</ele>
        <time>2021-03-21T12:37:08.000Z</time>
      </trkpt>
      <trkpt lat="44.98121" lon="6.03312">
        <ele>2888.8000488281</ele>
        <time>2021-03-21T12:37:09.000Z</time>
      </trkpt>
      <trkpt lat="44.98121" lon="6.03312">
        <ele>2888.8000488281</ele>
        <time>2021-03-21T12:37:10.000Z</time>
      </trkpt>
      <trkpt lat="44.98121" lon="6.03312">
        <ele>2888.8000488281</ele>
        <time>2021-03-21T12:37:11.000Z</time>
      </trkpt>
      <trkpt lat="44.98121" lon="6.03312">
        <ele>2888.8000488281</ele>
        <time>2021-03-21T12:37:12.000Z</time>
      </trkpt>
      <trkpt lat="44.98121" lon="6.03312">
        <ele>2889</ele>
        <time>2021-03-21T12:37:13.000Z</time>
      </trkpt>
      <trkpt lat="44.98121" lon="6.03312">
        <ele>2889</ele>
        <time>2021-03-21T12:37:14.000Z</time>
      </trkpt>
      <trkpt lat="44.98121" lon="6.03312">
        <ele>2889</ele>
        <time>2021-03-21T12:37:15.000Z</time>
      </trkpt>
      <trkpt lat="44.98121" lon="6.03312">
        <ele>2889</ele>
        <time>2021-03-21T12:37:16.000Z</time>
      </trkpt>
      <trkpt lat="44.98122" lon="6.03312">
        <ele>2889</ele>
        <time>2021-03-21T12:37:17.000Z</time>
      </trkpt>
      <trkpt lat="44.98122" lon="6.03312">
        <ele>2889.1999511719</ele>
        <time>2021-03-21T12:37:18.000Z</time>
      </trkpt>
      <trkpt lat="44.98122" lon="6.03311">
        <ele>2889.1999511719</ele>
        <time>2021-03-21T12:37:19.000Z</time>
      </trkpt>
      <trkpt lat="44.98122" lon="6.03311">
        <ele>2889.1999511719</ele>
        <time>2021-03-21T12:37:20.000Z</time>
      </trkpt>
      <trkpt lat="44.98122" lon="6.03311">
        <ele>2889.1999511719</ele>
        <time>2021-03-21T12:37:21.000Z</time>
      </trkpt>
      <trkpt lat="44.98122" lon="6.03311">
        <ele>2889.1999511719</ele>
        <time>2021-03-21T12:37:22.000Z</time>
      </trkpt>
      <trkpt lat="44.98122" lon="6.03311">
        <ele>2889.1999511719</ele>
        <time>2021-03-21T12:37:23.000Z</time>
      </trkpt>
      <trkpt lat="44.98122" lon="6.03311">
        <ele>2889.1999511719</ele>
        <time>2021-03-21T12:37:24.000Z</time>
      </trkpt>
      <trkpt lat="44.98122" lon="6.03311">
        <ele>2889.1999511719</ele>
        <time>2021-03-21T12:37:25.000Z</time>
      </trkpt>
      <trkpt lat="44.98122" lon="6.03311">
        <ele>2889.1999511719</ele>
        <time>2021-03-21T12:37:26.000Z</time>
      </trkpt>
      <trkpt lat="44.98122" lon="6.03311">
        <ele>2889.3999023438</ele>
        <time>2021-03-21T12:37:27.000Z</time>
      </trkpt>
      <trkpt lat="44.98122" lon="6.03311">
        <ele>2889.1999511719</ele>
        <time>2021-03-21T12:37:28.000Z</time>
      </trkpt>
      <trkpt lat="44.98122" lon="6.03311">
        <ele>2889.1999511719</ele>
        <time>2021-03-21T12:37:29.000Z</time>
      </trkpt>
      <trkpt lat="44.98122" lon="6.03311">
        <ele>2889.1999511719</ele>
        <time>2021-03-21T12:37:30.000Z</time>
      </trkpt>
      <trkpt lat="44.98122" lon="6.03311">
        <ele>2889.3999023438</ele>
        <time>2021-03-21T12:37:31.000Z</time>
      </trkpt>
      <trkpt lat="44.98122" lon="6.03311">
        <ele>2889.1999511719</ele>
        <time>2021-03-21T12:37:32.000Z</time>
      </trkpt>
      <trkpt lat="44.98122" lon="6.03311">
        <ele>2889.1999511719</ele>
        <time>2021-03-21T12:37:33.000Z</time>
      </trkpt>
      <trkpt lat="44.98122" lon="6.03311">
        <ele>2889.1999511719</ele>
        <time>2021-03-21T12:37:34.000Z</time>
      </trkpt>
      <trkpt lat="44.98122" lon="6.03312">
        <ele>2889.1999511719</ele>
        <time>2021-03-21T12:37:35.000Z</time>
      </trkpt>
      <trkpt lat="44.98122" lon="6.03312">
        <ele>2889.1999511719</ele>
        <time>2021-03-21T12:37:36.000Z</time>
      </trkpt>
      <trkpt lat="44.98121" lon="6.03312">
        <ele>2889</ele>
        <time>2021-03-21T12:37:37.000Z</time>
      </trkpt>
      <trkpt lat="44.98121" lon="6.03312">
        <ele>2889</ele>
        <time>2021-03-21T12:37:38.000Z</time>
      </trkpt>
      <trkpt lat="44.98121" lon="6.03312">
        <ele>2889</ele>
        <time>2021-03-21T12:37:39.000Z</time>
      </trkpt>
      <trkpt lat="44.98122" lon="6.03312">
        <ele>2889</ele>
        <time>2021-03-21T12:37:40.000Z</time>
      </trkpt>
      <trkpt lat="44.98122" lon="6.03312">
        <ele>2889</ele>
        <time>2021-03-21T12:37:41.000Z</time>
      </trkpt>
      <trkpt lat="44.98122" lon="6.03312">
        <ele>2889</ele>
        <time>2021-03-21T12:37:42.000Z</time>
      </trkpt>
      <trkpt lat="44.98121" lon="6.03312">
        <ele>2889</ele>
        <time>2021-03-21T12:37:43.000Z</time>
      </trkpt>
      <trkpt lat="44.98121" lon="6.03312">
        <ele>2889</ele>
        <time>2021-03-21T12:37:44.000Z</time>
      </trkpt>
      <trkpt lat="44.98121" lon="6.03312">
        <ele>2889</ele>
        <time>2021-03-21T12:37:45.000Z</time>
      </trkpt>
      <trkpt lat="44.98121" lon="6.03311">
        <ele>2889</ele>
        <time>2021-03-21T12:37:46.000Z</time>
      </trkpt>
      <trkpt lat="44.98121" lon="6.03312">
        <ele>2889</ele>
        <time>2021-03-21T12:37:47.000Z</time>
      </trkpt>
      <trkpt lat="44.98121" lon="6.03312">
        <ele>2889</ele>
        <time>2021-03-21T12:37:48.000Z</time>
      </trkpt>
      <trkpt lat="44.98121" lon="6.03312">
        <ele>2888.8000488281</ele>
        <time>2021-03-21T12:37:49.000Z</time>
      </trkpt>
      <trkpt lat="44.98121" lon="6.03312">
        <ele>2888.8000488281</ele>
        <time>2021-03-21T12:37:50.000Z</time>
      </trkpt>
      <trkpt lat="44.98121" lon="6.03312">
        <ele>2888.8000488281</ele>
        <time>2021-03-21T12:37:51.000Z</time>
      </trkpt>
      <trkpt lat="44.98121" lon="6.03312">
        <ele>2888.8000488281</ele>
        <time>2021-03-21T12:37:52.000Z</time>
      </trkpt>
      <trkpt lat="44.98121" lon="6.03312">
        <ele>2888.8000488281</ele>
        <time>2021-03-21T12:37:53.000Z</time>
      </trkpt>
      <trkpt lat="44.98121" lon="6.03313">
        <ele>2888.8000488281</ele>
        <time>2021-03-21T12:37:54.000Z</time>
      </trkpt>
      <trkpt lat="44.98121" lon="6.03313">
        <ele>2888.8000488281</ele>
        <time>2021-03-21T12:37:55.000Z</time>
      </trkpt>
      <trkpt lat="44.98121" lon="6.03313">
        <ele>2888.8000488281</ele>
        <time>2021-03-21T12:37:56.000Z</time>
      </trkpt>
      <trkpt lat="44.98121" lon="6.03313">
        <ele>2888.6000976562</ele>
        <time>2021-03-21T12:37:57.000Z</time>
      </trkpt>
      <trkpt lat="44.98121" lon="6.03313">
        <ele>2888.6000976562</ele>
        <time>2021-03-21T12:37:58.000Z</time>
      </trkpt>
      <trkpt lat="44.98121" lon="6.03313">
        <ele>2888.6000976562</ele>
        <time>2021-03-21T12:37:59.000Z</time>
      </trkpt>
      <trkpt lat="44.98121" lon="6.03313">
        <ele>2888.6000976562</ele>
        <time>2021-03-21T12:38:00.000Z</time>
      </trkpt>
      <trkpt lat="44.98121" lon="6.03313">
        <ele>2888.6000976562</ele>
        <time>2021-03-21T12:38:01.000Z</time>
      </trkpt>
      <trkpt lat="44.98121" lon="6.03313">
        <ele>2888.6000976562</ele>
        <time>2021-03-21T12:38:02.000Z</time>
      </trkpt>
      <trkpt lat="44.98121" lon="6.03313">
        <ele>2888.6000976562</ele>
        <time>2021-03-21T12:38:03.000Z</time>
      </trkpt>
      <trkpt lat="44.98121" lon="6.03313">
        <ele>2888.6000976562</ele>
        <time>2021-03-21T12:38:04.000Z</time>
      </trkpt>
      <trkpt lat="44.98121" lon="6.03313">
        <ele>2888.8000488281</ele>
        <time>2021-03-21T12:38:05.000Z</time>
      </trkpt>
      <trkpt lat="44.98121" lon="6.03312">
        <ele>2888.8000488281</ele>
        <time>2021-03-21T12:38:06.000Z</time>
      </trkpt>
      <trkpt lat="44.98121" lon="6.03312">
        <ele>2888.8000488281</ele>
        <time>2021-03-21T12:38:07.000Z</time>
      </trkpt>
      <trkpt lat="44.98121" lon="6.03312">
        <ele>2888.8000488281</ele>
        <time>2021-03-21T12:38:08.000Z</time>
      </trkpt>
      <trkpt lat="44.98121" lon="6.03312">
        <ele>2889</ele>
        <time>2021-03-21T12:38:09.000Z</time>
      </trkpt>
      <trkpt lat="44.98121" lon="6.03311">
        <ele>2889.1999511719</ele>
        <time>2021-03-21T12:38:10.000Z</time>
      </trkpt>
      <trkpt lat="44.98121" lon="6.03312">
        <ele>2889</ele>
        <time>2021-03-21T12:38:11.000Z</time>
      </trkpt>
      <trkpt lat="44.98121" lon="6.03312">
        <ele>2889</ele>
        <time>2021-03-21T12:38:12.000Z</time>
      </trkpt>
      <trkpt lat="44.98121" lon="6.03312">
        <ele>2889</ele>
        <time>2021-03-21T12:38:13.000Z</time>
      </trkpt>
      <trkpt lat="44.98121" lon="6.03312">
        <ele>2889</ele>
        <time>2021-03-21T12:38:14.000Z</time>
      </trkpt>
      <trkpt lat="44.98121" lon="6.03312">
        <ele>2889</ele>
        <time>2021-03-21T12:38:15.000Z</time>
      </trkpt>
      <trkpt lat="44.98121" lon="6.03312">
        <ele>2889</ele>
        <time>2021-03-21T12:38:16.000Z</time>
      </trkpt>
      <trkpt lat="44.98121" lon="6.03312">
        <ele>2889</ele>
        <time>2021-03-21T12:38:17.000Z</time>
      </trkpt>
      <trkpt lat="44.98121" lon="6.03312">
        <ele>2889</ele>
        <time>2021-03-21T12:38:18.000Z</time>
      </trkpt>
      <trkpt lat="44.98121" lon="6.03312">
        <ele>2889</ele>
        <time>2021-03-21T12:38:19.000Z</time>
      </trkpt>
      <trkpt lat="44.98121" lon="6.03312">
        <ele>2889</ele>
        <time>2021-03-21T12:38:20.000Z</time>
      </trkpt>
      <trkpt lat="44.98121" lon="6.03311">
        <ele>2889</ele>
        <time>2021-03-21T12:38:21.000Z</time>
      </trkpt>
      <trkpt lat="44.98121" lon="6.03312">
        <ele>2889</ele>
        <time>2021-03-21T12:38:22.000Z</time>
      </trkpt>
      <trkpt lat="44.98121" lon="6.03312">
        <ele>2889</ele>
        <time>2021-03-21T12:38:23.000Z</time>
      </trkpt>
      <trkpt lat="44.98121" lon="6.03312">
        <ele>2888.8000488281</ele>
        <time>2021-03-21T12:38:24.000Z</time>
      </trkpt>
      <trkpt lat="44.98121" lon="6.03312">
        <ele>2888.8000488281</ele>
        <time>2021-03-21T12:38:25.000Z</time>
      </trkpt>
      <trkpt lat="44.9812" lon="6.03312">
        <ele>2888.8000488281</ele>
        <time>2021-03-21T12:38:26.000Z</time>
      </trkpt>
      <trkpt lat="44.9812" lon="6.03312">
        <ele>2888.6000976562</ele>
        <time>2021-03-21T12:38:27.000Z</time>
      </trkpt>
      <trkpt lat="44.9812" lon="6.03313">
        <ele>2888.6000976562</ele>
        <time>2021-03-21T12:38:28.000Z</time>
      </trkpt>
      <trkpt lat="44.9812" lon="6.03313">
        <ele>2888.6000976562</ele>
        <time>2021-03-21T12:38:29.000Z</time>
      </trkpt>
      <trkpt lat="44.9812" lon="6.03313">
        <ele>2888.3999023438</ele>
        <time>2021-03-21T12:38:30.000Z</time>
      </trkpt>
      <trkpt lat="44.9812" lon="6.03313">
        <ele>2888.6000976562</ele>
        <time>2021-03-21T12:38:31.000Z</time>
      </trkpt>
      <trkpt lat="44.9812" lon="6.03313">
        <ele>2888.6000976562</ele>
        <time>2021-03-21T12:38:32.000Z</time>
      </trkpt>
      <trkpt lat="44.9812" lon="6.03313">
        <ele>2888.6000976562</ele>
        <time>2021-03-21T12:38:33.000Z</time>
      </trkpt>
      <trkpt lat="44.9812" lon="6.03313">
        <ele>2888.6000976562</ele>
        <time>2021-03-21T12:38:34.000Z</time>
      </trkpt>
      <trkpt lat="44.9812" lon="6.03313">
        <ele>2888.6000976562</ele>
        <time>2021-03-21T12:38:35.000Z</time>
      </trkpt>
      <trkpt lat="44.9812" lon="6.03313">
        <ele>2888.3999023438</ele>
        <time>2021-03-21T12:38:36.000Z</time>
      </trkpt>
      <trkpt lat="44.98121" lon="6.03313">
        <ele>2888.6000976562</ele>
        <time>2021-03-21T12:38:37.000Z</time>
      </trkpt>
      <trkpt lat="44.9812" lon="6.03313">
        <ele>2888.3999023438</ele>
        <time>2021-03-21T12:38:38.000Z</time>
      </trkpt>
      <trkpt lat="44.98121" lon="6.03313">
        <ele>2888.6000976562</ele>
        <time>2021-03-21T12:38:39.000Z</time>
      </trkpt>
      <trkpt lat="44.98121" lon="6.03313">
        <ele>2888.6000976562</ele>
        <time>2021-03-21T12:38:40.000Z</time>
      </trkpt>
      <trkpt lat="44.98121" lon="6.03313">
        <ele>2888.6000976562</ele>
        <time>2021-03-21T12:38:41.000Z</time>
      </trkpt>
      <trkpt lat="44.98121" lon="6.03313">
        <ele>2888.6000976562</ele>
        <time>2021-03-21T12:38:42.000Z</time>
      </trkpt>
      <trkpt lat="44.98121" lon="6.03313">
        <ele>2888.8000488281</ele>
        <time>2021-03-21T12:38:43.000Z</time>
      </trkpt>
      <trkpt lat="44.98121" lon="6.03313">
        <ele>2888.8000488281</ele>
        <time>2021-03-21T12:38:44.000Z</time>
      </trkpt>
      <trkpt lat="44.98121" lon="6.03313">
        <ele>2888.8000488281</ele>
        <time>2021-03-21T12:38:45.000Z</time>
      </trkpt>
      <trkpt lat="44.98121" lon="6.03313">
        <ele>2888.8000488281</ele>
        <time>2021-03-21T12:38:46.000Z</time>
      </trkpt>
      <trkpt lat="44.98121" lon="6.03313">
        <ele>2888.8000488281</ele>
        <time>2021-03-21T12:38:47.000Z</time>
      </trkpt>
      <trkpt lat="44.98121" lon="6.03313">
        <ele>2888.8000488281</ele>
        <time>2021-03-21T12:38:48.000Z</time>
      </trkpt>
      <trkpt lat="44.98121" lon="6.03313">
        <ele>2888.8000488281</ele>
        <time>2021-03-21T12:38:49.000Z</time>
      </trkpt>
      <trkpt lat="44.98121" lon="6.03313">
        <ele>2888.8000488281</ele>
        <time>2021-03-21T12:38:50.000Z</time>
      </trkpt>
      <trkpt lat="44.98121" lon="6.03313">
        <ele>2888.8000488281</ele>
        <time>2021-03-21T12:38:51.000Z</time>
      </trkpt>
      <trkpt lat="44.98121" lon="6.03313">
        <ele>2888.8000488281</ele>
        <time>2021-03-21T12:38:52.000Z</time>
      </trkpt>
      <trkpt lat="44.98121" lon="6.03313">
        <ele>2888.8000488281</ele>
        <time>2021-03-21T12:38:53.000Z</time>
      </trkpt>
      <trkpt lat="44.98121" lon="6.03313">
        <ele>2888.8000488281</ele>
        <time>2021-03-21T12:38:54.000Z</time>
      </trkpt>
      <trkpt lat="44.98122" lon="6.03312">
        <ele>2888.8000488281</ele>
        <time>2021-03-21T12:38:55.000Z</time>
      </trkpt>
      <trkpt lat="44.98122" lon="6.03312">
        <ele>2889</ele>
        <time>2021-03-21T12:38:56.000Z</time>
      </trkpt>
      <trkpt lat="44.98121" lon="6.03312">
        <ele>2889</ele>
        <time>2021-03-21T12:38:57.000Z</time>
      </trkpt>
      <trkpt lat="44.98121" lon="6.03312">
        <ele>2889</ele>
        <time>2021-03-21T12:38:58.000Z</time>
      </trkpt>
      <trkpt lat="44.98121" lon="6.03312">
        <ele>2889</ele>
        <time>2021-03-21T12:38:59.000Z</time>
      </trkpt>
      <trkpt lat="44.98121" lon="6.03312">
        <ele>2889</ele>
        <time>2021-03-21T12:39:00.000Z</time>
      </trkpt>
      <trkpt lat="44.98121" lon="6.03312">
        <ele>2888.8000488281</ele>
        <time>2021-03-21T12:39:01.000Z</time>
      </trkpt>
      <trkpt lat="44.98121" lon="6.03312">
        <ele>2888.8000488281</ele>
        <time>2021-03-21T12:39:02.000Z</time>
      </trkpt>
      <trkpt lat="44.98121" lon="6.03313">
        <ele>2888.8000488281</ele>
        <time>2021-03-21T12:39:03.000Z</time>
      </trkpt>
      <trkpt lat="44.98121" lon="6.03313">
        <ele>2888.6000976562</ele>
        <time>2021-03-21T12:39:04.000Z</time>
      </trkpt>
      <trkpt lat="44.98121" lon="6.03313">
        <ele>2888.8000488281</ele>
        <time>2021-03-21T12:39:05.000Z</time>
      </trkpt>
      <trkpt lat="44.98121" lon="6.03313">
        <ele>2888.8000488281</ele>
        <time>2021-03-21T12:39:06.000Z</time>
      </trkpt>
      <trkpt lat="44.98121" lon="6.03313">
        <ele>2888.8000488281</ele>
        <time>2021-03-21T12:39:07.000Z</time>
      </trkpt>
      <trkpt lat="44.98121" lon="6.03313">
        <ele>2888.8000488281</ele>
        <time>2021-03-21T12:39:08.000Z</time>
      </trkpt>
      <trkpt lat="44.98121" lon="6.03313">
        <ele>2888.6000976562</ele>
        <time>2021-03-21T12:39:09.000Z</time>
      </trkpt>
      <trkpt lat="44.98121" lon="6.03313">
        <ele>2888.6000976562</ele>
        <time>2021-03-21T12:39:10.000Z</time>
      </trkpt>
      <trkpt lat="44.9812" lon="6.03313">
        <ele>2888.6000976562</ele>
        <time>2021-03-21T12:39:11.000Z</time>
      </trkpt>
      <trkpt lat="44.98121" lon="6.03313">
        <ele>2888.6000976562</ele>
        <time>2021-03-21T12:39:12.000Z</time>
      </trkpt>
      <trkpt lat="44.98121" lon="6.03313">
        <ele>2888.6000976562</ele>
        <time>2021-03-21T12:39:13.000Z</time>
      </trkpt>
      <trkpt lat="44.98121" lon="6.03313">
        <ele>2888.6000976562</ele>
        <time>2021-03-21T12:39:14.000Z</time>
      </trkpt>
      <trkpt lat="44.98121" lon="6.03313">
        <ele>2888.8000488281</ele>
        <time>2021-03-21T12:39:15.000Z</time>
      </trkpt>
      <trkpt lat="44.98121" lon="6.03313">
        <ele>2888.8000488281</ele>
        <time>2021-03-21T12:39:16.000Z</time>
      </trkpt>
      <trkpt lat="44.98121" lon="6.03313">
        <ele>2888.6000976562</ele>
        <time>2021-03-21T12:39:17.000Z</time>
      </trkpt>
      <trkpt lat="44.9812" lon="6.03313">
        <ele>2888.6000976562</ele>
        <time>2021-03-21T12:39:18.000Z</time>
      </trkpt>
      <trkpt lat="44.9812" lon="6.03313">
        <ele>2888.3999023438</ele>
        <time>2021-03-21T12:39:19.000Z</time>
      </trkpt>
      <trkpt lat="44.9812" lon="6.03313">
        <ele>2888.6000976562</ele>
        <time>2021-03-21T12:39:20.000Z</time>
      </trkpt>
      <trkpt lat="44.9812" lon="6.03313">
        <ele>2888.6000976562</ele>
        <time>2021-03-21T12:39:21.000Z</time>
      </trkpt>
      <trkpt lat="44.9812" lon="6.03313">
        <ele>2888.6000976562</ele>
        <time>2021-03-21T12:39:22.000Z</time>
      </trkpt>
      <trkpt lat="44.9812" lon="6.03313">
        <ele>2888.6000976562</ele>
        <time>2021-03-21T12:39:23.000Z</time>
      </trkpt>
      <trkpt lat="44.98121" lon="6.03313">
        <ele>2888.6000976562</ele>
        <time>2021-03-21T12:39:24.000Z</time>
      </trkpt>
      <trkpt lat="44.98121" lon="6.03313">
        <ele>2888.6000976562</ele>
        <time>2021-03-21T12:39:25.000Z</time>
      </trkpt>
      <trkpt lat="44.98121" lon="6.03313">
        <ele>2888.8000488281</ele>
        <time>2021-03-21T12:39:26.000Z</time>
      </trkpt>
      <trkpt lat="44.98121" lon="6.03313">
        <ele>2888.6000976562</ele>
        <time>2021-03-21T12:39:27.000Z</time>
      </trkpt>
      <trkpt lat="44.98121" lon="6.03312">
        <ele>2888.8000488281</ele>
        <time>2021-03-21T12:39:28.000Z</time>
      </trkpt>
      <trkpt lat="44.98121" lon="6.03313">
        <ele>2888.8000488281</ele>
        <time>2021-03-21T12:39:29.000Z</time>
      </trkpt>
      <trkpt lat="44.98121" lon="6.03313">
        <ele>2888.8000488281</ele>
        <time>2021-03-21T12:39:30.000Z</time>
      </trkpt>
      <trkpt lat="44.98121" lon="6.03313">
        <ele>2888.8000488281</ele>
        <time>2021-03-21T12:39:31.000Z</time>
      </trkpt>
      <trkpt lat="44.98121" lon="6.03313">
        <ele>2888.6000976562</ele>
        <time>2021-03-21T12:39:32.000Z</time>
      </trkpt>
      <trkpt lat="44.98121" lon="6.03313">
        <ele>2888.8000488281</ele>
        <time>2021-03-21T12:39:33.000Z</time>
      </trkpt>
      <trkpt lat="44.98121" lon="6.03313">
        <ele>2888.6000976562</ele>
        <time>2021-03-21T12:39:34.000Z</time>
      </trkpt>
      <trkpt lat="44.98121" lon="6.03313">
        <ele>2888.6000976562</ele>
        <time>2021-03-21T12:39:35.000Z</time>
      </trkpt>
      <trkpt lat="44.98121" lon="6.03313">
        <ele>2888.6000976562</ele>
        <time>2021-03-21T12:39:36.000Z</time>
      </trkpt>
      <trkpt lat="44.98121" lon="6.03313">
        <ele>2888.6000976562</ele>
        <time>2021-03-21T12:39:37.000Z</time>
      </trkpt>
      <trkpt lat="44.98121" lon="6.03313">
        <ele>2888.6000976562</ele>
        <time>2021-03-21T12:39:38.000Z</time>
      </trkpt>
      <trkpt lat="44.98121" lon="6.03313">
        <ele>2888.6000976562</ele>
        <time>2021-03-21T12:39:39.000Z</time>
      </trkpt>
      <trkpt lat="44.9812" lon="6.03313">
        <ele>2888.3999023438</ele>
        <time>2021-03-21T12:39:40.000Z</time>
      </trkpt>
      <trkpt lat="44.98121" lon="6.03313">
        <ele>2888.3999023438</ele>
        <time>2021-03-21T12:39:41.000Z</time>
      </trkpt>
      <trkpt lat="44.9812" lon="6.03313">
        <ele>2888.3999023438</ele>
        <time>2021-03-21T12:39:42.000Z</time>
      </trkpt>
      <trkpt lat="44.98121" lon="6.03313">
        <ele>2888.3999023438</ele>
        <time>2021-03-21T12:39:43.000Z</time>
      </trkpt>
      <trkpt lat="44.98121" lon="6.03313">
        <ele>2888.3999023438</ele>
        <time>2021-03-21T12:39:44.000Z</time>
      </trkpt>
      <trkpt lat="44.9812" lon="6.03313">
        <ele>2888.3999023438</ele>
        <time>2021-03-21T12:39:45.000Z</time>
      </trkpt>
      <trkpt lat="44.9812" lon="6.03313">
        <ele>2888.3999023438</ele>
        <time>2021-03-21T12:39:46.000Z</time>
      </trkpt>
      <trkpt lat="44.9812" lon="6.03313">
        <ele>2888.3999023438</ele>
        <time>2021-03-21T12:39:47.000Z</time>
      </trkpt>
      <trkpt lat="44.9812" lon="6.03314">
        <ele>2888.3999023438</ele>
        <time>2021-03-21T12:39:48.000Z</time>
      </trkpt>
      <trkpt lat="44.9812" lon="6.03314">
        <ele>2888.1999511719</ele>
        <time>2021-03-21T12:39:49.000Z</time>
      </trkpt>
      <trkpt lat="44.9812" lon="6.03314">
        <ele>2888.1999511719</ele>
        <time>2021-03-21T12:39:50.000Z</time>
      </trkpt>
      <trkpt lat="44.98119" lon="6.03314">
        <ele>2888</ele>
        <time>2021-03-21T12:39:51.000Z</time>
      </trkpt>
      <trkpt lat="44.98119" lon="6.03314">
        <ele>2888</ele>
        <time>2021-03-21T12:39:52.000Z</time>
      </trkpt>
      <trkpt lat="44.98119" lon="6.03314">
        <ele>2888.1999511719</ele>
        <time>2021-03-21T12:39:53.000Z</time>
      </trkpt>
      <trkpt lat="44.98119" lon="6.03314">
        <ele>2888.1999511719</ele>
        <time>2021-03-21T12:39:54.000Z</time>
      </trkpt>
      <trkpt lat="44.9812" lon="6.03314">
        <ele>2888.1999511719</ele>
        <time>2021-03-21T12:39:55.000Z</time>
      </trkpt>
      <trkpt lat="44.9812" lon="6.03313">
        <ele>2888.3999023438</ele>
        <time>2021-03-21T12:39:56.000Z</time>
      </trkpt>
      <trkpt lat="44.9812" lon="6.03314">
        <ele>2888.1999511719</ele>
        <time>2021-03-21T12:39:57.000Z</time>
      </trkpt>
      <trkpt lat="44.9812" lon="6.03314">
        <ele>2888.1999511719</ele>
        <time>2021-03-21T12:39:58.000Z</time>
      </trkpt>
      <trkpt lat="44.9812" lon="6.03313">
        <ele>2888.3999023438</ele>
        <time>2021-03-21T12:39:59.000Z</time>
      </trkpt>
      <trkpt lat="44.9812" lon="6.03314">
        <ele>2888.1999511719</ele>
        <time>2021-03-21T12:40:00.000Z</time>
      </trkpt>
      <trkpt lat="44.9812" lon="6.03314">
        <ele>2888.1999511719</ele>
        <time>2021-03-21T12:40:01.000Z</time>
      </trkpt>
      <trkpt lat="44.9812" lon="6.03314">
        <ele>2888.1999511719</ele>
        <time>2021-03-21T12:40:02.000Z</time>
      </trkpt>
      <trkpt lat="44.9812" lon="6.03314">
        <ele>2888.1999511719</ele>
        <time>2021-03-21T12:40:03.000Z</time>
      </trkpt>
      <trkpt lat="44.9812" lon="6.03314">
        <ele>2888</ele>
        <time>2021-03-21T12:40:04.000Z</time>
      </trkpt>
      <trkpt lat="44.9812" lon="6.03314">
        <ele>2888</ele>
        <time>2021-03-21T12:40:05.000Z</time>
      </trkpt>
      <trkpt lat="44.9812" lon="6.03314">
        <ele>2888.1999511719</ele>
        <time>2021-03-21T12:40:06.000Z</time>
      </trkpt>
      <trkpt lat="44.9812" lon="6.03314">
        <ele>2888.1999511719</ele>
        <time>2021-03-21T12:40:07.000Z</time>
      </trkpt>
      <trkpt lat="44.9812" lon="6.03314">
        <ele>2888.1999511719</ele>
        <time>2021-03-21T12:40:08.000Z</time>
      </trkpt>
      <trkpt lat="44.9812" lon="6.03314">
        <ele>2888.1999511719</ele>
        <time>2021-03-21T12:40:09.000Z</time>
      </trkpt>
      <trkpt lat="44.98121" lon="6.03314">
        <ele>2888.1999511719</ele>
        <time>2021-03-21T12:40:10.000Z</time>
      </trkpt>
      <trkpt lat="44.98121" lon="6.03314">
        <ele>2888.1999511719</ele>
        <time>2021-03-21T12:40:11.000Z</time>
      </trkpt>
      <trkpt lat="44.98121" lon="6.03314">
        <ele>2888.1999511719</ele>
        <time>2021-03-21T12:40:12.000Z</time>
      </trkpt>
      <trkpt lat="44.98121" lon="6.03315">
        <ele>2888.1999511719</ele>
        <time>2021-03-21T12:40:13.000Z</time>
      </trkpt>
      <trkpt lat="44.98121" lon="6.03314">
        <ele>2888.1999511719</ele>
        <time>2021-03-21T12:40:14.000Z</time>
      </trkpt>
      <trkpt lat="44.98122" lon="6.03314">
        <ele>2888.3999023438</ele>
        <time>2021-03-21T12:40:15.000Z</time>
      </trkpt>
      <trkpt lat="44.98122" lon="6.03314">
        <ele>2888.3999023438</ele>
        <time>2021-03-21T12:40:16.000Z</time>
      </trkpt>
      <trkpt lat="44.98122" lon="6.03314">
        <ele>2888.3999023438</ele>
        <time>2021-03-21T12:40:17.000Z</time>
      </trkpt>
      <trkpt lat="44.98122" lon="6.03314">
        <ele>2888.6000976562</ele>
        <time>2021-03-21T12:40:18.000Z</time>
      </trkpt>
      <trkpt lat="44.98122" lon="6.03314">
        <ele>2888.6000976562</ele>
        <time>2021-03-21T12:40:19.000Z</time>
      </trkpt>
      <trkpt lat="44.98122" lon="6.03314">
        <ele>2888.6000976562</ele>
        <time>2021-03-21T12:40:20.000Z</time>
      </trkpt>
      <trkpt lat="44.98122" lon="6.03314">
        <ele>2888.6000976562</ele>
        <time>2021-03-21T12:40:21.000Z</time>
      </trkpt>
      <trkpt lat="44.98122" lon="6.03314">
        <ele>2888.6000976562</ele>
        <time>2021-03-21T12:40:22.000Z</time>
      </trkpt>
      <trkpt lat="44.98122" lon="6.03314">
        <ele>2888.6000976562</ele>
        <time>2021-03-21T12:40:23.000Z</time>
      </trkpt>
      <trkpt lat="44.98122" lon="6.03314">
        <ele>2888.6000976562</ele>
        <time>2021-03-21T12:40:24.000Z</time>
      </trkpt>
      <trkpt lat="44.98122" lon="6.03314">
        <ele>2888.6000976562</ele>
        <time>2021-03-21T12:40:25.000Z</time>
      </trkpt>
      <trkpt lat="44.98122" lon="6.03313">
        <ele>2888.8000488281</ele>
        <time>2021-03-21T12:40:26.000Z</time>
      </trkpt>
      <trkpt lat="44.98122" lon="6.03313">
        <ele>2888.8000488281</ele>
        <time>2021-03-21T12:40:27.000Z</time>
      </trkpt>
      <trkpt lat="44.98122" lon="6.03313">
        <ele>2888.8000488281</ele>
        <time>2021-03-21T12:40:28.000Z</time>
      </trkpt>
      <trkpt lat="44.98122" lon="6.03312">
        <ele>2889</ele>
        <time>2021-03-21T12:40:29.000Z</time>
      </trkpt>
      <trkpt lat="44.98122" lon="6.03312">
        <ele>2889</ele>
        <time>2021-03-21T12:40:30.000Z</time>
      </trkpt>
      <trkpt lat="44.98122" lon="6.03312">
        <ele>2889.1999511719</ele>
        <time>2021-03-21T12:40:31.000Z</time>
      </trkpt>
      <trkpt lat="44.98122" lon="6.03312">
        <ele>2889.1999511719</ele>
        <time>2021-03-21T12:40:32.000Z</time>
      </trkpt>
      <trkpt lat="44.98122" lon="6.03312">
        <ele>2889.1999511719</ele>
        <time>2021-03-21T12:40:33.000Z</time>
      </trkpt>
      <trkpt lat="44.98122" lon="6.03312">
        <ele>2889</ele>
        <time>2021-03-21T12:40:34.000Z</time>
      </trkpt>
      <trkpt lat="44.98122" lon="6.03312">
        <ele>2889</ele>
        <time>2021-03-21T12:40:35.000Z</time>
      </trkpt>
      <trkpt lat="44.98122" lon="6.03312">
        <ele>2889.1999511719</ele>
        <time>2021-03-21T12:40:36.000Z</time>
      </trkpt>
      <trkpt lat="44.98122" lon="6.03312">
        <ele>2889.1999511719</ele>
        <time>2021-03-21T12:40:37.000Z</time>
      </trkpt>
      <trkpt lat="44.98122" lon="6.03312">
        <ele>2889.1999511719</ele>
        <time>2021-03-21T12:40:38.000Z</time>
      </trkpt>
      <trkpt lat="44.98122" lon="6.03312">
        <ele>2889.1999511719</ele>
        <time>2021-03-21T12:40:39.000Z</time>
      </trkpt>
      <trkpt lat="44.98123" lon="6.03312">
        <ele>2889.1999511719</ele>
        <time>2021-03-21T12:40:40.000Z</time>
      </trkpt>
      <trkpt lat="44.98122" lon="6.03311">
        <ele>2889.3999023438</ele>
        <time>2021-03-21T12:40:41.000Z</time>
      </trkpt>
      <trkpt lat="44.98122" lon="6.03312">
        <ele>2889.1999511719</ele>
        <time>2021-03-21T12:40:42.000Z</time>
      </trkpt>
      <trkpt lat="44.98122" lon="6.03312">
        <ele>2889.1999511719</ele>
        <time>2021-03-21T12:40:43.000Z</time>
      </trkpt>
      <trkpt lat="44.98122" lon="6.03312">
        <ele>2889</ele>
        <time>2021-03-21T12:40:44.000Z</time>
      </trkpt>
      <trkpt lat="44.98122" lon="6.03312">
        <ele>2889</ele>
        <time>2021-03-21T12:40:45.000Z</time>
      </trkpt>
      <trkpt lat="44.98122" lon="6.03312">
        <ele>2889</ele>
        <time>2021-03-21T12:40:46.000Z</time>
      </trkpt>
      <trkpt lat="44.98121" lon="6.03312">
        <ele>2888.8000488281</ele>
        <time>2021-03-21T12:40:47.000Z</time>
      </trkpt>
      <trkpt lat="44.98122" lon="6.03313">
        <ele>2888.8000488281</ele>
        <time>2021-03-21T12:40:48.000Z</time>
      </trkpt>
      <trkpt lat="44.98122" lon="6.03313">
        <ele>2888.8000488281</ele>
        <time>2021-03-21T12:40:49.000Z</time>
      </trkpt>
      <trkpt lat="44.98121" lon="6.03313">
        <ele>2888.6000976562</ele>
        <time>2021-03-21T12:40:50.000Z</time>
      </trkpt>
      <trkpt lat="44.98121" lon="6.03313">
        <ele>2888.6000976562</ele>
        <time>2021-03-21T12:40:51.000Z</time>
      </trkpt>
      <trkpt lat="44.98121" lon="6.03314">
        <ele>2888.3999023438</ele>
        <time>2021-03-21T12:40:52.000Z</time>
      </trkpt>
      <trkpt lat="44.98121" lon="6.03313">
        <ele>2888.6000976562</ele>
        <time>2021-03-21T12:40:53.000Z</time>
      </trkpt>
      <trkpt lat="44.98121" lon="6.03313">
        <ele>2888.6000976562</ele>
        <time>2021-03-21T12:40:54.000Z</time>
      </trkpt>
      <trkpt lat="44.98121" lon="6.03313">
        <ele>2888.6000976562</ele>
        <time>2021-03-21T12:40:55.000Z</time>
      </trkpt>
      <trkpt lat="44.98121" lon="6.03313">
        <ele>2888.8000488281</ele>
        <time>2021-03-21T12:40:56.000Z</time>
      </trkpt>
      <trkpt lat="44.98123" lon="6.03311">
        <ele>2889.3999023438</ele>
        <time>2021-03-21T12:40:57.000Z</time>
      </trkpt>
      <trkpt lat="44.98125" lon="6.03311">
        <ele>2889.6000976562</ele>
        <time>2021-03-21T12:40:58.000Z</time>
      </trkpt>
      <trkpt lat="44.98128" lon="6.03311">
        <ele>2889.1999511719</ele>
        <time>2021-03-21T12:40:59.000Z</time>
      </trkpt>
      <trkpt lat="44.98132" lon="6.03311">
        <ele>2888.8000488281</ele>
        <time>2021-03-21T12:41:00.000Z</time>
      </trkpt>
      <trkpt lat="44.98136" lon="6.03309">
        <ele>2889.1999511719</ele>
        <time>2021-03-21T12:41:01.000Z</time>
      </trkpt>
      <trkpt lat="44.9814" lon="6.03309">
        <ele>2888.8000488281</ele>
        <time>2021-03-21T12:41:02.000Z</time>
      </trkpt>
      <trkpt lat="44.98145" lon="6.03311">
        <ele>2887.3999023438</ele>
        <time>2021-03-21T12:41:03.000Z</time>
      </trkpt>
      <trkpt lat="44.98148" lon="6.03313">
        <ele>2886.3999023438</ele>
        <time>2021-03-21T12:41:04.000Z</time>
      </trkpt>
      <trkpt lat="44.98154" lon="6.0331">
        <ele>2885.3999023438</ele>
        <time>2021-03-21T12:41:05.000Z</time>
      </trkpt>
      <trkpt lat="44.98159" lon="6.03312">
        <ele>2882.3999023438</ele>
        <time>2021-03-21T12:41:06.000Z</time>
      </trkpt>
      <trkpt lat="44.98163" lon="6.03317">
        <ele>2879.3999023438</ele>
        <time>2021-03-21T12:41:07.000Z</time>
      </trkpt>
      <trkpt lat="44.98167" lon="6.03321">
        <ele>2876.6000976562</ele>
        <time>2021-03-21T12:41:08.000Z</time>
      </trkpt>
      <trkpt lat="44.9817" lon="6.03322">
        <ele>2874.6000976562</ele>
        <time>2021-03-21T12:41:09.000Z</time>
      </trkpt>
      <trkpt lat="44.98175" lon="6.03316">
        <ele>2873.6000976562</ele>
        <time>2021-03-21T12:41:10.000Z</time>
      </trkpt>
      <trkpt lat="44.98179" lon="6.03315">
        <ele>2872.1999511719</ele>
        <time>2021-03-21T12:41:11.000Z</time>
      </trkpt>
      <trkpt lat="44.98184" lon="6.03317">
        <ele>2869.3999023438</ele>
        <time>2021-03-21T12:41:12.000Z</time>
      </trkpt>
      <trkpt lat="44.98188" lon="6.0332">
        <ele>2866.3999023438</ele>
        <time>2021-03-21T12:41:13.000Z</time>
      </trkpt>
      <trkpt lat="44.98193" lon="6.03318">
        <ele>2864.8000488281</ele>
        <time>2021-03-21T12:41:14.000Z</time>
      </trkpt>
      <trkpt lat="44.98198" lon="6.03318">
        <ele>2862.3999023438</ele>
        <time>2021-03-21T12:41:15.000Z</time>
      </trkpt>
      <trkpt lat="44.98203" lon="6.0332">
        <ele>2859.3999023438</ele>
        <time>2021-03-21T12:41:16.000Z</time>
      </trkpt>
      <trkpt lat="44.98209" lon="6.03321">
        <ele>2856.6000976562</ele>
        <time>2021-03-21T12:41:17.000Z</time>
      </trkpt>
      <trkpt lat="44.98214" lon="6.03323">
        <ele>2853.3999023438</ele>
        <time>2021-03-21T12:41:18.000Z</time>
      </trkpt>
      <trkpt lat="44.98221" lon="6.03325">
        <ele>2850</ele>
        <time>2021-03-21T12:41:19.000Z</time>
      </trkpt>
      <trkpt lat="44.98228" lon="6.03327">
        <ele>2845.8000488281</ele>
        <time>2021-03-21T12:41:20.000Z</time>
      </trkpt>
      <trkpt lat="44.98235" lon="6.03331">
        <ele>2841.8000488281</ele>
        <time>2021-03-21T12:41:21.000Z</time>
      </trkpt>
      <trkpt lat="44.98239" lon="6.03337">
        <ele>2840</ele>
        <time>2021-03-21T12:41:22.000Z</time>
      </trkpt>
      <trkpt lat="44.98244" lon="6.03342">
        <ele>2838.1999511719</ele>
        <time>2021-03-21T12:41:23.000Z</time>
      </trkpt>
      <trkpt lat="44.98247" lon="6.03348">
        <ele>2836.6000976562</ele>
        <time>2021-03-21T12:41:24.000Z</time>
      </trkpt>
      <trkpt lat="44.9825" lon="6.03352">
        <ele>2835.3999023438</ele>
        <time>2021-03-21T12:41:25.000Z</time>
      </trkpt>
      <trkpt lat="44.9825" lon="6.03352">
        <ele>2835.1999511719</ele>
        <time>2021-03-21T12:41:26.000Z</time>
      </trkpt>
      <trkpt lat="44.98251" lon="6.03351">
        <ele>2835</ele>
        <time>2021-03-21T12:41:27.000Z</time>
      </trkpt>
      <trkpt lat="44.98251" lon="6.0335">
        <ele>2835.3999023438</ele>
        <time>2021-03-21T12:41:28.000Z</time>
      </trkpt>
      <trkpt lat="44.98251" lon="6.03349">
        <ele>2835.3999023438</ele>
        <time>2021-03-21T12:41:29.000Z</time>
      </trkpt>
      <trkpt lat="44.98251" lon="6.03349">
        <ele>2835.6000976562</ele>
        <time>2021-03-21T12:41:30.000Z</time>
      </trkpt>
      <trkpt lat="44.98251" lon="6.03347">
        <ele>2835.8000488281</ele>
        <time>2021-03-21T12:41:31.000Z</time>
      </trkpt>
      <trkpt lat="44.98251" lon="6.03347">
        <ele>2835.8000488281</ele>
        <time>2021-03-21T12:41:32.000Z</time>
      </trkpt>
      <trkpt lat="44.98251" lon="6.03346">
        <ele>2836</ele>
        <time>2021-03-21T12:41:33.000Z</time>
      </trkpt>
      <trkpt lat="44.98251" lon="6.03346">
        <ele>2836</ele>
        <time>2021-03-21T12:41:34.000Z</time>
      </trkpt>
      <trkpt lat="44.98251" lon="6.03346">
        <ele>2836</ele>
        <time>2021-03-21T12:41:35.000Z</time>
      </trkpt>
      <trkpt lat="44.98251" lon="6.03346">
        <ele>2836.1999511719</ele>
        <time>2021-03-21T12:41:36.000Z</time>
      </trkpt>
      <trkpt lat="44.9825" lon="6.03345">
        <ele>2836.1999511719</ele>
        <time>2021-03-21T12:41:37.000Z</time>
      </trkpt>
      <trkpt lat="44.9825" lon="6.03345">
        <ele>2836.3999023438</ele>
        <time>2021-03-21T12:41:38.000Z</time>
      </trkpt>
      <trkpt lat="44.9825" lon="6.03345">
        <ele>2836.3999023438</ele>
        <time>2021-03-21T12:41:39.000Z</time>
      </trkpt>
      <trkpt lat="44.9825" lon="6.03344">
        <ele>2836.3999023438</ele>
        <time>2021-03-21T12:41:40.000Z</time>
      </trkpt>
      <trkpt lat="44.9825" lon="6.03344">
        <ele>2836.6000976562</ele>
        <time>2021-03-21T12:41:41.000Z</time>
      </trkpt>
      <trkpt lat="44.9825" lon="6.03344">
        <ele>2836.6000976562</ele>
        <time>2021-03-21T12:41:42.000Z</time>
      </trkpt>
      <trkpt lat="44.98249" lon="6.03344">
        <ele>2836.6000976562</ele>
        <time>2021-03-21T12:41:43.000Z</time>
      </trkpt>
      <trkpt lat="44.98249" lon="6.03344">
        <ele>2836.8000488281</ele>
        <time>2021-03-21T12:41:44.000Z</time>
      </trkpt>
      <trkpt lat="44.98249" lon="6.03343">
        <ele>2836.8000488281</ele>
        <time>2021-03-21T12:41:45.000Z</time>
      </trkpt>
      <trkpt lat="44.98249" lon="6.03343">
        <ele>2836.8000488281</ele>
        <time>2021-03-21T12:41:46.000Z</time>
      </trkpt>
      <trkpt lat="44.98249" lon="6.03343">
        <ele>2836.8000488281</ele>
        <time>2021-03-21T12:41:47.000Z</time>
      </trkpt>
      <trkpt lat="44.98249" lon="6.03343">
        <ele>2837</ele>
        <time>2021-03-21T12:41:48.000Z</time>
      </trkpt>
      <trkpt lat="44.98248" lon="6.03343">
        <ele>2837</ele>
        <time>2021-03-21T12:41:49.000Z</time>
      </trkpt>
      <trkpt lat="44.98248" lon="6.03342">
        <ele>2837.1999511719</ele>
        <time>2021-03-21T12:41:50.000Z</time>
      </trkpt>
      <trkpt lat="44.98248" lon="6.03342">
        <ele>2837.1999511719</ele>
        <time>2021-03-21T12:41:51.000Z</time>
      </trkpt>
      <trkpt lat="44.98248" lon="6.03342">
        <ele>2837.1999511719</ele>
        <time>2021-03-21T12:41:52.000Z</time>
      </trkpt>
      <trkpt lat="44.98248" lon="6.03342">
        <ele>2837.1999511719</ele>
        <time>2021-03-21T12:41:53.000Z</time>
      </trkpt>
      <trkpt lat="44.98248" lon="6.03342">
        <ele>2837.1999511719</ele>
        <time>2021-03-21T12:41:54.000Z</time>
      </trkpt>
      <trkpt lat="44.98248" lon="6.03341">
        <ele>2837.3999023438</ele>
        <time>2021-03-21T12:41:55.000Z</time>
      </trkpt>
      <trkpt lat="44.98248" lon="6.03341">
        <ele>2837.3999023438</ele>
        <time>2021-03-21T12:41:56.000Z</time>
      </trkpt>
      <trkpt lat="44.98248" lon="6.03341">
        <ele>2837.3999023438</ele>
        <time>2021-03-21T12:41:57.000Z</time>
      </trkpt>
      <trkpt lat="44.98248" lon="6.03341">
        <ele>2837.3999023438</ele>
        <time>2021-03-21T12:41:58.000Z</time>
      </trkpt>
      <trkpt lat="44.98248" lon="6.03341">
        <ele>2837.3999023438</ele>
        <time>2021-03-21T12:41:59.000Z</time>
      </trkpt>
      <trkpt lat="44.98248" lon="6.03341">
        <ele>2837.3999023438</ele>
        <time>2021-03-21T12:42:00.000Z</time>
      </trkpt>
      <trkpt lat="44.98248" lon="6.03341">
        <ele>2837.3999023438</ele>
        <time>2021-03-21T12:42:01.000Z</time>
      </trkpt>
      <trkpt lat="44.98247" lon="6.03341">
        <ele>2837.6000976562</ele>
        <time>2021-03-21T12:42:02.000Z</time>
      </trkpt>
      <trkpt lat="44.98247" lon="6.03341">
        <ele>2837.6000976562</ele>
        <time>2021-03-21T12:42:03.000Z</time>
      </trkpt>
      <trkpt lat="44.98247" lon="6.03341">
        <ele>2837.6000976562</ele>
        <time>2021-03-21T12:42:04.000Z</time>
      </trkpt>
      <trkpt lat="44.98247" lon="6.03341">
        <ele>2837.6000976562</ele>
        <time>2021-03-21T12:42:05.000Z</time>
      </trkpt>
      <trkpt lat="44.98247" lon="6.03341">
        <ele>2837.8000488281</ele>
        <time>2021-03-21T12:42:06.000Z</time>
      </trkpt>
      <trkpt lat="44.98246" lon="6.03341">
        <ele>2837.8000488281</ele>
        <time>2021-03-21T12:42:07.000Z</time>
      </trkpt>
      <trkpt lat="44.98246" lon="6.03341">
        <ele>2837.8000488281</ele>
        <time>2021-03-21T12:42:08.000Z</time>
      </trkpt>
      <trkpt lat="44.98246" lon="6.0334">
        <ele>2837.8000488281</ele>
        <time>2021-03-21T12:42:09.000Z</time>
      </trkpt>
      <trkpt lat="44.98246" lon="6.0334">
        <ele>2838</ele>
        <time>2021-03-21T12:42:10.000Z</time>
      </trkpt>
      <trkpt lat="44.98246" lon="6.0334">
        <ele>2838</ele>
        <time>2021-03-21T12:42:11.000Z</time>
      </trkpt>
      <trkpt lat="44.98246" lon="6.0334">
        <ele>2838</ele>
        <time>2021-03-21T12:42:12.000Z</time>
      </trkpt>
      <trkpt lat="44.98245" lon="6.0334">
        <ele>2838</ele>
        <time>2021-03-21T12:42:13.000Z</time>
      </trkpt>
      <trkpt lat="44.98245" lon="6.0334">
        <ele>2838</ele>
        <time>2021-03-21T12:42:14.000Z</time>
      </trkpt>
      <trkpt lat="44.98245" lon="6.0334">
        <ele>2838.1999511719</ele>
        <time>2021-03-21T12:42:15.000Z</time>
      </trkpt>
      <trkpt lat="44.98245" lon="6.0334">
        <ele>2838.1999511719</ele>
        <time>2021-03-21T12:42:16.000Z</time>
      </trkpt>
      <trkpt lat="44.98245" lon="6.0334">
        <ele>2838.1999511719</ele>
        <time>2021-03-21T12:42:17.000Z</time>
      </trkpt>
      <trkpt lat="44.98245" lon="6.0334">
        <ele>2838.1999511719</ele>
        <time>2021-03-21T12:42:18.000Z</time>
      </trkpt>
      <trkpt lat="44.98245" lon="6.0334">
        <ele>2838.1999511719</ele>
        <time>2021-03-21T12:42:19.000Z</time>
      </trkpt>
      <trkpt lat="44.98245" lon="6.0334">
        <ele>2838.1999511719</ele>
        <time>2021-03-21T12:42:20.000Z</time>
      </trkpt>
      <trkpt lat="44.98245" lon="6.0334">
        <ele>2838.1999511719</ele>
        <time>2021-03-21T12:42:21.000Z</time>
      </trkpt>
      <trkpt lat="44.98245" lon="6.0334">
        <ele>2838.1999511719</ele>
        <time>2021-03-21T12:42:22.000Z</time>
      </trkpt>
      <trkpt lat="44.98245" lon="6.0334">
        <ele>2838.1999511719</ele>
        <time>2021-03-21T12:42:23.000Z</time>
      </trkpt>
      <trkpt lat="44.98245" lon="6.0334">
        <ele>2838.1999511719</ele>
        <time>2021-03-21T12:42:24.000Z</time>
      </trkpt>
      <trkpt lat="44.98245" lon="6.0334">
        <ele>2838.1999511719</ele>
        <time>2021-03-21T12:42:25.000Z</time>
      </trkpt>
      <trkpt lat="44.98245" lon="6.0334">
        <ele>2838.1999511719</ele>
        <time>2021-03-21T12:42:26.000Z</time>
      </trkpt>
      <trkpt lat="44.98245" lon="6.0334">
        <ele>2838</ele>
        <time>2021-03-21T12:42:27.000Z</time>
      </trkpt>
      <trkpt lat="44.98246" lon="6.0334">
        <ele>2838</ele>
        <time>2021-03-21T12:42:28.000Z</time>
      </trkpt>
      <trkpt lat="44.98245" lon="6.0334">
        <ele>2838</ele>
        <time>2021-03-21T12:42:29.000Z</time>
      </trkpt>
      <trkpt lat="44.98245" lon="6.0334">
        <ele>2838</ele>
        <time>2021-03-21T12:42:30.000Z</time>
      </trkpt>
      <trkpt lat="44.98245" lon="6.0334">
        <ele>2838</ele>
        <time>2021-03-21T12:42:31.000Z</time>
      </trkpt>
      <trkpt lat="44.98245" lon="6.0334">
        <ele>2838</ele>
        <time>2021-03-21T12:42:32.000Z</time>
      </trkpt>
      <trkpt lat="44.98245" lon="6.0334">
        <ele>2838.1999511719</ele>
        <time>2021-03-21T12:42:33.000Z</time>
      </trkpt>
      <trkpt lat="44.98245" lon="6.0334">
        <ele>2838.1999511719</ele>
        <time>2021-03-21T12:42:34.000Z</time>
      </trkpt>
      <trkpt lat="44.98245" lon="6.0334">
        <ele>2838.1999511719</ele>
        <time>2021-03-21T12:42:35.000Z</time>
      </trkpt>
      <trkpt lat="44.98245" lon="6.0334">
        <ele>2838.1999511719</ele>
        <time>2021-03-21T12:42:36.000Z</time>
      </trkpt>
      <trkpt lat="44.98245" lon="6.0334">
        <ele>2838.1999511719</ele>
        <time>2021-03-21T12:42:37.000Z</time>
      </trkpt>
      <trkpt lat="44.98245" lon="6.0334">
        <ele>2838.1999511719</ele>
        <time>2021-03-21T12:42:38.000Z</time>
      </trkpt>
      <trkpt lat="44.98244" lon="6.0334">
        <ele>2838.3999023438</ele>
        <time>2021-03-21T12:42:39.000Z</time>
      </trkpt>
      <trkpt lat="44.98245" lon="6.03339">
        <ele>2838.3999023438</ele>
        <time>2021-03-21T12:42:40.000Z</time>
      </trkpt>
      <trkpt lat="44.98245" lon="6.03339">
        <ele>2838.3999023438</ele>
        <time>2021-03-21T12:42:41.000Z</time>
      </trkpt>
      <trkpt lat="44.98244" lon="6.03339">
        <ele>2838.3999023438</ele>
        <time>2021-03-21T12:42:42.000Z</time>
      </trkpt>
      <trkpt lat="44.98244" lon="6.03339">
        <ele>2838.3999023438</ele>
        <time>2021-03-21T12:42:43.000Z</time>
      </trkpt>
      <trkpt lat="44.98244" lon="6.03339">
        <ele>2838.3999023438</ele>
        <time>2021-03-21T12:42:44.000Z</time>
      </trkpt>
      <trkpt lat="44.98244" lon="6.03339">
        <ele>2838.3999023438</ele>
        <time>2021-03-21T12:42:45.000Z</time>
      </trkpt>
      <trkpt lat="44.98244" lon="6.0334">
        <ele>2838.3999023438</ele>
        <time>2021-03-21T12:42:46.000Z</time>
      </trkpt>
      <trkpt lat="44.98244" lon="6.03339">
        <ele>2838.6000976562</ele>
        <time>2021-03-21T12:42:47.000Z</time>
      </trkpt>
      <trkpt lat="44.98244" lon="6.0334">
        <ele>2838.6000976562</ele>
        <time>2021-03-21T12:42:48.000Z</time>
      </trkpt>
      <trkpt lat="44.98244" lon="6.0334">
        <ele>2838.6000976562</ele>
        <time>2021-03-21T12:42:49.000Z</time>
      </trkpt>
      <trkpt lat="44.98243" lon="6.03339">
        <ele>2838.6000976562</ele>
        <time>2021-03-21T12:42:50.000Z</time>
      </trkpt>
      <trkpt lat="44.98243" lon="6.03339">
        <ele>2838.8000488281</ele>
        <time>2021-03-21T12:42:51.000Z</time>
      </trkpt>
      <trkpt lat="44.98243" lon="6.03339">
        <ele>2838.8000488281</ele>
        <time>2021-03-21T12:42:52.000Z</time>
      </trkpt>
      <trkpt lat="44.98243" lon="6.03339">
        <ele>2838.8000488281</ele>
        <time>2021-03-21T12:42:53.000Z</time>
      </trkpt>
      <trkpt lat="44.98243" lon="6.03339">
        <ele>2838.8000488281</ele>
        <time>2021-03-21T12:42:54.000Z</time>
      </trkpt>
      <trkpt lat="44.98242" lon="6.03339">
        <ele>2839</ele>
        <time>2021-03-21T12:42:55.000Z</time>
      </trkpt>
      <trkpt lat="44.98242" lon="6.03339">
        <ele>2839</ele>
        <time>2021-03-21T12:42:56.000Z</time>
      </trkpt>
      <trkpt lat="44.98242" lon="6.03339">
        <ele>2839</ele>
        <time>2021-03-21T12:42:57.000Z</time>
      </trkpt>
      <trkpt lat="44.98242" lon="6.03339">
        <ele>2839</ele>
        <time>2021-03-21T12:42:58.000Z</time>
      </trkpt>
      <trkpt lat="44.98242" lon="6.03339">
        <ele>2839</ele>
        <time>2021-03-21T12:42:59.000Z</time>
      </trkpt>
      <trkpt lat="44.98242" lon="6.03339">
        <ele>2839</ele>
        <time>2021-03-21T12:43:00.000Z</time>
      </trkpt>
      <trkpt lat="44.98242" lon="6.03339">
        <ele>2839</ele>
        <time>2021-03-21T12:43:01.000Z</time>
      </trkpt>
      <trkpt lat="44.98242" lon="6.03339">
        <ele>2839</ele>
        <time>2021-03-21T12:43:02.000Z</time>
      </trkpt>
      <trkpt lat="44.98242" lon="6.03339">
        <ele>2839</ele>
        <time>2021-03-21T12:43:03.000Z</time>
      </trkpt>
      <trkpt lat="44.98242" lon="6.03339">
        <ele>2839</ele>
        <time>2021-03-21T12:43:04.000Z</time>
      </trkpt>
      <trkpt lat="44.98241" lon="6.03339">
        <ele>2839</ele>
        <time>2021-03-21T12:43:05.000Z</time>
      </trkpt>
      <trkpt lat="44.98241" lon="6.03339">
        <ele>2839.1999511719</ele>
        <time>2021-03-21T12:43:06.000Z</time>
      </trkpt>
      <trkpt lat="44.98241" lon="6.03339">
        <ele>2839.1999511719</ele>
        <time>2021-03-21T12:43:07.000Z</time>
      </trkpt>
      <trkpt lat="44.98241" lon="6.03339">
        <ele>2839.1999511719</ele>
        <time>2021-03-21T12:43:08.000Z</time>
      </trkpt>
      <trkpt lat="44.98241" lon="6.03339">
        <ele>2839.1999511719</ele>
        <time>2021-03-21T12:43:09.000Z</time>
      </trkpt>
      <trkpt lat="44.98241" lon="6.03339">
        <ele>2839.1999511719</ele>
        <time>2021-03-21T12:43:10.000Z</time>
      </trkpt>
      <trkpt lat="44.9824" lon="6.03339">
        <ele>2839.1999511719</ele>
        <time>2021-03-21T12:43:11.000Z</time>
      </trkpt>
      <trkpt lat="44.9824" lon="6.0334">
        <ele>2839.1999511719</ele>
        <time>2021-03-21T12:43:12.000Z</time>
      </trkpt>
      <trkpt lat="44.9824" lon="6.0334">
        <ele>2839.1999511719</ele>
        <time>2021-03-21T12:43:13.000Z</time>
      </trkpt>
      <trkpt lat="44.9824" lon="6.03341">
        <ele>2839.1999511719</ele>
        <time>2021-03-21T12:43:14.000Z</time>
      </trkpt>
      <trkpt lat="44.9824" lon="6.03341">
        <ele>2839.1999511719</ele>
        <time>2021-03-21T12:43:15.000Z</time>
      </trkpt>
      <trkpt lat="44.9824" lon="6.03341">
        <ele>2839.1999511719</ele>
        <time>2021-03-21T12:43:16.000Z</time>
      </trkpt>
      <trkpt lat="44.9824" lon="6.03341">
        <ele>2839.1999511719</ele>
        <time>2021-03-21T12:43:17.000Z</time>
      </trkpt>
      <trkpt lat="44.9824" lon="6.03341">
        <ele>2839.1999511719</ele>
        <time>2021-03-21T12:43:18.000Z</time>
      </trkpt>
      <trkpt lat="44.9824" lon="6.03341">
        <ele>2839.1999511719</ele>
        <time>2021-03-21T12:43:19.000Z</time>
      </trkpt>
      <trkpt lat="44.9824" lon="6.03341">
        <ele>2839.1999511719</ele>
        <time>2021-03-21T12:43:20.000Z</time>
      </trkpt>
      <trkpt lat="44.9824" lon="6.03341">
        <ele>2839.1999511719</ele>
        <time>2021-03-21T12:43:21.000Z</time>
      </trkpt>
      <trkpt lat="44.9824" lon="6.03341">
        <ele>2839.1999511719</ele>
        <time>2021-03-21T12:43:22.000Z</time>
      </trkpt>
      <trkpt lat="44.9824" lon="6.03341">
        <ele>2839</ele>
        <time>2021-03-21T12:43:23.000Z</time>
      </trkpt>
      <trkpt lat="44.9824" lon="6.03341">
        <ele>2839</ele>
        <time>2021-03-21T12:43:24.000Z</time>
      </trkpt>
      <trkpt lat="44.9824" lon="6.03341">
        <ele>2839</ele>
        <time>2021-03-21T12:43:25.000Z</time>
      </trkpt>
      <trkpt lat="44.9824" lon="6.03341">
        <ele>2839</ele>
        <time>2021-03-21T12:43:26.000Z</time>
      </trkpt>
      <trkpt lat="44.9824" lon="6.03342">
        <ele>2839</ele>
        <time>2021-03-21T12:43:27.000Z</time>
      </trkpt>
      <trkpt lat="44.9824" lon="6.03342">
        <ele>2839</ele>
        <time>2021-03-21T12:43:28.000Z</time>
      </trkpt>
      <trkpt lat="44.9824" lon="6.03342">
        <ele>2839</ele>
        <time>2021-03-21T12:43:29.000Z</time>
      </trkpt>
      <trkpt lat="44.98241" lon="6.03342">
        <ele>2838.8000488281</ele>
        <time>2021-03-21T12:43:30.000Z</time>
      </trkpt>
      <trkpt lat="44.98241" lon="6.03342">
        <ele>2838.8000488281</ele>
        <time>2021-03-21T12:43:31.000Z</time>
      </trkpt>
      <trkpt lat="44.98241" lon="6.03342">
        <ele>2838.8000488281</ele>
        <time>2021-03-21T12:43:32.000Z</time>
      </trkpt>
      <trkpt lat="44.98241" lon="6.03342">
        <ele>2838.8000488281</ele>
        <time>2021-03-21T12:43:33.000Z</time>
      </trkpt>
      <trkpt lat="44.98241" lon="6.03342">
        <ele>2838.8000488281</ele>
        <time>2021-03-21T12:43:34.000Z</time>
      </trkpt>
      <trkpt lat="44.98241" lon="6.03342">
        <ele>2838.8000488281</ele>
        <time>2021-03-21T12:43:35.000Z</time>
      </trkpt>
      <trkpt lat="44.98241" lon="6.03342">
        <ele>2838.8000488281</ele>
        <time>2021-03-21T12:43:36.000Z</time>
      </trkpt>
      <trkpt lat="44.98241" lon="6.03342">
        <ele>2838.8000488281</ele>
        <time>2021-03-21T12:43:37.000Z</time>
      </trkpt>
      <trkpt lat="44.98241" lon="6.03341">
        <ele>2838.8000488281</ele>
        <time>2021-03-21T12:43:38.000Z</time>
      </trkpt>
      <trkpt lat="44.98241" lon="6.03341">
        <ele>2838.8000488281</ele>
        <time>2021-03-21T12:43:39.000Z</time>
      </trkpt>
      <trkpt lat="44.98241" lon="6.03341">
        <ele>2838.8000488281</ele>
        <time>2021-03-21T12:43:40.000Z</time>
      </trkpt>
      <trkpt lat="44.98241" lon="6.03341">
        <ele>2838.8000488281</ele>
        <time>2021-03-21T12:43:41.000Z</time>
      </trkpt>
      <trkpt lat="44.98241" lon="6.03341">
        <ele>2838.8000488281</ele>
        <time>2021-03-21T12:43:42.000Z</time>
      </trkpt>
      <trkpt lat="44.98242" lon="6.03341">
        <ele>2838.8000488281</ele>
        <time>2021-03-21T12:43:43.000Z</time>
      </trkpt>
      <trkpt lat="44.98242" lon="6.03341">
        <ele>2838.8000488281</ele>
        <time>2021-03-21T12:43:44.000Z</time>
      </trkpt>
      <trkpt lat="44.98242" lon="6.03341">
        <ele>2838.8000488281</ele>
        <time>2021-03-21T12:43:45.000Z</time>
      </trkpt>
      <trkpt lat="44.98241" lon="6.03341">
        <ele>2838.8000488281</ele>
        <time>2021-03-21T12:43:46.000Z</time>
      </trkpt>
      <trkpt lat="44.98242" lon="6.03341">
        <ele>2838.8000488281</ele>
        <time>2021-03-21T12:43:47.000Z</time>
      </trkpt>
      <trkpt lat="44.98242" lon="6.03341">
        <ele>2838.8000488281</ele>
        <time>2021-03-21T12:43:48.000Z</time>
      </trkpt>
      <trkpt lat="44.98242" lon="6.03341">
        <ele>2838.8000488281</ele>
        <time>2021-03-21T12:43:49.000Z</time>
      </trkpt>
      <trkpt lat="44.98242" lon="6.03341">
        <ele>2838.8000488281</ele>
        <time>2021-03-21T12:43:50.000Z</time>
      </trkpt>
      <trkpt lat="44.98242" lon="6.03341">
        <ele>2838.6000976562</ele>
        <time>2021-03-21T12:43:51.000Z</time>
      </trkpt>
      <trkpt lat="44.98242" lon="6.03341">
        <ele>2838.6000976562</ele>
        <time>2021-03-21T12:43:52.000Z</time>
      </trkpt>
      <trkpt lat="44.98242" lon="6.03341">
        <ele>2838.6000976562</ele>
        <time>2021-03-21T12:43:53.000Z</time>
      </trkpt>
      <trkpt lat="44.98242" lon="6.03341">
        <ele>2838.6000976562</ele>
        <time>2021-03-21T12:43:54.000Z</time>
      </trkpt>
      <trkpt lat="44.98242" lon="6.03341">
        <ele>2838.6000976562</ele>
        <time>2021-03-21T12:43:55.000Z</time>
      </trkpt>
      <trkpt lat="44.98242" lon="6.03341">
        <ele>2838.6000976562</ele>
        <time>2021-03-21T12:43:56.000Z</time>
      </trkpt>
      <trkpt lat="44.98242" lon="6.03341">
        <ele>2838.6000976562</ele>
        <time>2021-03-21T12:43:57.000Z</time>
      </trkpt>
      <trkpt lat="44.98242" lon="6.03341">
        <ele>2838.6000976562</ele>
        <time>2021-03-21T12:43:58.000Z</time>
      </trkpt>
      <trkpt lat="44.98243" lon="6.03341">
        <ele>2838.6000976562</ele>
        <time>2021-03-21T12:43:59.000Z</time>
      </trkpt>
      <trkpt lat="44.98243" lon="6.03341">
        <ele>2838.3999023438</ele>
        <time>2021-03-21T12:44:00.000Z</time>
      </trkpt>
      <trkpt lat="44.98243" lon="6.03342">
        <ele>2838.3999023438</ele>
        <time>2021-03-21T12:44:01.000Z</time>
      </trkpt>
      <trkpt lat="44.98243" lon="6.03342">
        <ele>2838.3999023438</ele>
        <time>2021-03-21T12:44:02.000Z</time>
      </trkpt>
      <trkpt lat="44.98243" lon="6.03342">
        <ele>2838.3999023438</ele>
        <time>2021-03-21T12:44:03.000Z</time>
      </trkpt>
      <trkpt lat="44.98243" lon="6.03342">
        <ele>2838.1999511719</ele>
        <time>2021-03-21T12:44:04.000Z</time>
      </trkpt>
      <trkpt lat="44.98243" lon="6.03342">
        <ele>2838.1999511719</ele>
        <time>2021-03-21T12:44:05.000Z</time>
      </trkpt>
      <trkpt lat="44.98243" lon="6.03342">
        <ele>2838.1999511719</ele>
        <time>2021-03-21T12:44:06.000Z</time>
      </trkpt>
      <trkpt lat="44.98243" lon="6.03342">
        <ele>2838.1999511719</ele>
        <time>2021-03-21T12:44:07.000Z</time>
      </trkpt>
      <trkpt lat="44.98243" lon="6.03341">
        <ele>2838.3999023438</ele>
        <time>2021-03-21T12:44:08.000Z</time>
      </trkpt>
      <trkpt lat="44.98243" lon="6.03341">
        <ele>2838.3999023438</ele>
        <time>2021-03-21T12:44:09.000Z</time>
      </trkpt>
      <trkpt lat="44.98243" lon="6.03341">
        <ele>2838.3999023438</ele>
        <time>2021-03-21T12:44:10.000Z</time>
      </trkpt>
      <trkpt lat="44.98243" lon="6.03341">
        <ele>2838.3999023438</ele>
        <time>2021-03-21T12:44:11.000Z</time>
      </trkpt>
      <trkpt lat="44.98243" lon="6.03341">
        <ele>2838.3999023438</ele>
        <time>2021-03-21T12:44:12.000Z</time>
      </trkpt>
      <trkpt lat="44.98243" lon="6.03341">
        <ele>2838.3999023438</ele>
        <time>2021-03-21T12:44:13.000Z</time>
      </trkpt>
      <trkpt lat="44.98243" lon="6.03341">
        <ele>2838.3999023438</ele>
        <time>2021-03-21T12:44:14.000Z</time>
      </trkpt>
      <trkpt lat="44.98243" lon="6.03341">
        <ele>2838.3999023438</ele>
        <time>2021-03-21T12:44:15.000Z</time>
      </trkpt>
      <trkpt lat="44.98243" lon="6.03341">
        <ele>2838.3999023438</ele>
        <time>2021-03-21T12:44:16.000Z</time>
      </trkpt>
      <trkpt lat="44.98243" lon="6.03341">
        <ele>2838.3999023438</ele>
        <time>2021-03-21T12:44:17.000Z</time>
      </trkpt>
      <trkpt lat="44.98243" lon="6.03341">
        <ele>2838.3999023438</ele>
        <time>2021-03-21T12:44:18.000Z</time>
      </trkpt>
      <trkpt lat="44.98243" lon="6.03341">
        <ele>2838.3999023438</ele>
        <time>2021-03-21T12:44:19.000Z</time>
      </trkpt>
      <trkpt lat="44.98243" lon="6.03341">
        <ele>2838.3999023438</ele>
        <time>2021-03-21T12:44:20.000Z</time>
      </trkpt>
      <trkpt lat="44.98243" lon="6.03341">
        <ele>2838.3999023438</ele>
        <time>2021-03-21T12:44:21.000Z</time>
      </trkpt>
      <trkpt lat="44.98243" lon="6.03341">
        <ele>2838.3999023438</ele>
        <time>2021-03-21T12:44:22.000Z</time>
      </trkpt>
      <trkpt lat="44.98243" lon="6.03341">
        <ele>2838.3999023438</ele>
        <time>2021-03-21T12:44:23.000Z</time>
      </trkpt>
      <trkpt lat="44.98243" lon="6.03341">
        <ele>2838.3999023438</ele>
        <time>2021-03-21T12:44:24.000Z</time>
      </trkpt>
      <trkpt lat="44.98243" lon="6.03341">
        <ele>2838.3999023438</ele>
        <time>2021-03-21T12:44:25.000Z</time>
      </trkpt>
      <trkpt lat="44.98243" lon="6.03342">
        <ele>2838.3999023438</ele>
        <time>2021-03-21T12:44:26.000Z</time>
      </trkpt>
      <trkpt lat="44.98243" lon="6.03342">
        <ele>2838.3999023438</ele>
        <time>2021-03-21T12:44:27.000Z</time>
      </trkpt>
      <trkpt lat="44.98243" lon="6.03342">
        <ele>2838.3999023438</ele>
        <time>2021-03-21T12:44:28.000Z</time>
      </trkpt>
      <trkpt lat="44.98243" lon="6.03342">
        <ele>2838.3999023438</ele>
        <time>2021-03-21T12:44:29.000Z</time>
      </trkpt>
      <trkpt lat="44.98243" lon="6.03342">
        <ele>2838.3999023438</ele>
        <time>2021-03-21T12:44:30.000Z</time>
      </trkpt>
      <trkpt lat="44.98243" lon="6.03342">
        <ele>2838.3999023438</ele>
        <time>2021-03-21T12:44:31.000Z</time>
      </trkpt>
      <trkpt lat="44.98243" lon="6.03342">
        <ele>2838.3999023438</ele>
        <time>2021-03-21T12:44:32.000Z</time>
      </trkpt>
      <trkpt lat="44.98243" lon="6.03342">
        <ele>2838.3999023438</ele>
        <time>2021-03-21T12:44:33.000Z</time>
      </trkpt>
      <trkpt lat="44.98243" lon="6.03342">
        <ele>2838.3999023438</ele>
        <time>2021-03-21T12:44:34.000Z</time>
      </trkpt>
      <trkpt lat="44.98243" lon="6.03342">
        <ele>2838.3999023438</ele>
        <time>2021-03-21T12:44:35.000Z</time>
      </trkpt>
      <trkpt lat="44.98243" lon="6.03342">
        <ele>2838.3999023438</ele>
        <time>2021-03-21T12:44:36.000Z</time>
      </trkpt>
      <trkpt lat="44.98243" lon="6.03342">
        <ele>2838.3999023438</ele>
        <time>2021-03-21T12:44:37.000Z</time>
      </trkpt>
      <trkpt lat="44.98243" lon="6.03343">
        <ele>2838.1999511719</ele>
        <time>2021-03-21T12:44:38.000Z</time>
      </trkpt>
      <trkpt lat="44.98243" lon="6.03343">
        <ele>2838.1999511719</ele>
        <time>2021-03-21T12:44:39.000Z</time>
      </trkpt>
      <trkpt lat="44.98243" lon="6.03343">
        <ele>2838.1999511719</ele>
        <time>2021-03-21T12:44:40.000Z</time>
      </trkpt>
      <trkpt lat="44.98243" lon="6.03343">
        <ele>2838.1999511719</ele>
        <time>2021-03-21T12:44:41.000Z</time>
      </trkpt>
      <trkpt lat="44.98243" lon="6.03343">
        <ele>2838.1999511719</ele>
        <time>2021-03-21T12:44:42.000Z</time>
      </trkpt>
      <trkpt lat="44.98242" lon="6.03343">
        <ele>2838.1999511719</ele>
        <time>2021-03-21T12:44:43.000Z</time>
      </trkpt>
      <trkpt lat="44.98242" lon="6.03343">
        <ele>2838.1999511719</ele>
        <time>2021-03-21T12:44:44.000Z</time>
      </trkpt>
      <trkpt lat="44.98242" lon="6.03344">
        <ele>2838.1999511719</ele>
        <time>2021-03-21T12:44:45.000Z</time>
      </trkpt>
      <trkpt lat="44.98242" lon="6.03344">
        <ele>2838.1999511719</ele>
        <time>2021-03-21T12:44:46.000Z</time>
      </trkpt>
      <trkpt lat="44.98242" lon="6.03344">
        <ele>2838.1999511719</ele>
        <time>2021-03-21T12:44:47.000Z</time>
      </trkpt>
      <trkpt lat="44.98242" lon="6.03344">
        <ele>2838.3999023438</ele>
        <time>2021-03-21T12:44:48.000Z</time>
      </trkpt>
      <trkpt lat="44.98242" lon="6.03344">
        <ele>2838.3999023438</ele>
        <time>2021-03-21T12:44:49.000Z</time>
      </trkpt>
      <trkpt lat="44.98242" lon="6.03344">
        <ele>2838.3999023438</ele>
        <time>2021-03-21T12:44:50.000Z</time>
      </trkpt>
      <trkpt lat="44.98242" lon="6.03344">
        <ele>2838.3999023438</ele>
        <time>2021-03-21T12:44:51.000Z</time>
      </trkpt>
      <trkpt lat="44.98242" lon="6.03344">
        <ele>2838.1999511719</ele>
        <time>2021-03-21T12:44:52.000Z</time>
      </trkpt>
      <trkpt lat="44.98242" lon="6.03344">
        <ele>2838.3999023438</ele>
        <time>2021-03-21T12:44:53.000Z</time>
      </trkpt>
      <trkpt lat="44.98242" lon="6.03344">
        <ele>2838.1999511719</ele>
        <time>2021-03-21T12:44:54.000Z</time>
      </trkpt>
      <trkpt lat="44.98242" lon="6.03344">
        <ele>2838.1999511719</ele>
        <time>2021-03-21T12:44:55.000Z</time>
      </trkpt>
      <trkpt lat="44.98241" lon="6.03344">
        <ele>2838.3999023438</ele>
        <time>2021-03-21T12:44:56.000Z</time>
      </trkpt>
      <trkpt lat="44.98241" lon="6.03344">
        <ele>2838.3999023438</ele>
        <time>2021-03-21T12:44:57.000Z</time>
      </trkpt>
      <trkpt lat="44.98241" lon="6.03344">
        <ele>2838.3999023438</ele>
        <time>2021-03-21T12:44:58.000Z</time>
      </trkpt>
      <trkpt lat="44.98241" lon="6.03344">
        <ele>2838.3999023438</ele>
        <time>2021-03-21T12:44:59.000Z</time>
      </trkpt>
      <trkpt lat="44.98241" lon="6.03344">
        <ele>2838.3999023438</ele>
        <time>2021-03-21T12:45:00.000Z</time>
      </trkpt>
      <trkpt lat="44.98241" lon="6.03344">
        <ele>2838.3999023438</ele>
        <time>2021-03-21T12:45:01.000Z</time>
      </trkpt>
      <trkpt lat="44.98241" lon="6.03344">
        <ele>2838.3999023438</ele>
        <time>2021-03-21T12:45:02.000Z</time>
      </trkpt>
      <trkpt lat="44.98241" lon="6.03343">
        <ele>2838.6000976562</ele>
        <time>2021-03-21T12:45:03.000Z</time>
      </trkpt>
      <trkpt lat="44.98241" lon="6.03343">
        <ele>2838.6000976562</ele>
        <time>2021-03-21T12:45:04.000Z</time>
      </trkpt>
      <trkpt lat="44.98241" lon="6.03343">
        <ele>2838.6000976562</ele>
        <time>2021-03-21T12:45:05.000Z</time>
      </trkpt>
      <trkpt lat="44.98241" lon="6.03343">
        <ele>2838.6000976562</ele>
        <time>2021-03-21T12:45:06.000Z</time>
      </trkpt>
      <trkpt lat="44.98242" lon="6.03343">
        <ele>2838.6000976562</ele>
        <time>2021-03-21T12:45:07.000Z</time>
      </trkpt>
      <trkpt lat="44.98241" lon="6.03343">
        <ele>2838.6000976562</ele>
        <time>2021-03-21T12:45:08.000Z</time>
      </trkpt>
      <trkpt lat="44.98242" lon="6.03342">
        <ele>2838.6000976562</ele>
        <time>2021-03-21T12:45:09.000Z</time>
      </trkpt>
      <trkpt lat="44.98242" lon="6.03342">
        <ele>2838.6000976562</ele>
        <time>2021-03-21T12:45:10.000Z</time>
      </trkpt>
      <trkpt lat="44.98242" lon="6.03341">
        <ele>2838.6000976562</ele>
        <time>2021-03-21T12:45:11.000Z</time>
      </trkpt>
      <trkpt lat="44.98242" lon="6.03341">
        <ele>2838.6000976562</ele>
        <time>2021-03-21T12:45:12.000Z</time>
      </trkpt>
      <trkpt lat="44.98243" lon="6.03341">
        <ele>2838.6000976562</ele>
        <time>2021-03-21T12:45:13.000Z</time>
      </trkpt>
      <trkpt lat="44.98243" lon="6.0334">
        <ele>2838.6000976562</ele>
        <time>2021-03-21T12:45:14.000Z</time>
      </trkpt>
      <trkpt lat="44.98243" lon="6.0334">
        <ele>2838.3999023438</ele>
        <time>2021-03-21T12:45:15.000Z</time>
      </trkpt>
      <trkpt lat="44.98243" lon="6.0334">
        <ele>2838.3999023438</ele>
        <time>2021-03-21T12:45:16.000Z</time>
      </trkpt>
      <trkpt lat="44.98244" lon="6.0334">
        <ele>2838.3999023438</ele>
        <time>2021-03-21T12:45:17.000Z</time>
      </trkpt>
      <trkpt lat="44.98244" lon="6.0334">
        <ele>2838.3999023438</ele>
        <time>2021-03-21T12:45:18.000Z</time>
      </trkpt>
      <trkpt lat="44.98243" lon="6.03341">
        <ele>2838.3999023438</ele>
        <time>2021-03-21T12:45:19.000Z</time>
      </trkpt>
      <trkpt lat="44.98243" lon="6.03341">
        <ele>2838.3999023438</ele>
        <time>2021-03-21T12:45:20.000Z</time>
      </trkpt>
      <trkpt lat="44.98243" lon="6.03341">
        <ele>2838.3999023438</ele>
        <time>2021-03-21T12:45:21.000Z</time>
      </trkpt>
      <trkpt lat="44.98243" lon="6.03341">
        <ele>2838.3999023438</ele>
        <time>2021-03-21T12:45:22.000Z</time>
      </trkpt>
      <trkpt lat="44.98243" lon="6.03341">
        <ele>2838.3999023438</ele>
        <time>2021-03-21T12:45:23.000Z</time>
      </trkpt>
      <trkpt lat="44.98243" lon="6.03341">
        <ele>2838.3999023438</ele>
        <time>2021-03-21T12:45:24.000Z</time>
      </trkpt>
      <trkpt lat="44.98243" lon="6.03341">
        <ele>2838.3999023438</ele>
        <time>2021-03-21T12:45:25.000Z</time>
      </trkpt>
      <trkpt lat="44.98243" lon="6.03341">
        <ele>2838.3999023438</ele>
        <time>2021-03-21T12:45:26.000Z</time>
      </trkpt>
      <trkpt lat="44.98243" lon="6.03341">
        <ele>2838.3999023438</ele>
        <time>2021-03-21T12:45:27.000Z</time>
      </trkpt>
      <trkpt lat="44.98243" lon="6.03341">
        <ele>2838.3999023438</ele>
        <time>2021-03-21T12:45:28.000Z</time>
      </trkpt>
      <trkpt lat="44.98242" lon="6.03341">
        <ele>2838.6000976562</ele>
        <time>2021-03-21T12:45:29.000Z</time>
      </trkpt>
      <trkpt lat="44.98242" lon="6.03341">
        <ele>2838.6000976562</ele>
        <time>2021-03-21T12:45:30.000Z</time>
      </trkpt>
      <trkpt lat="44.98242" lon="6.03341">
        <ele>2838.6000976562</ele>
        <time>2021-03-21T12:45:31.000Z</time>
      </trkpt>
      <trkpt lat="44.98242" lon="6.03341">
        <ele>2838.6000976562</ele>
        <time>2021-03-21T12:45:32.000Z</time>
      </trkpt>
      <trkpt lat="44.98242" lon="6.03341">
        <ele>2838.6000976562</ele>
        <time>2021-03-21T12:45:33.000Z</time>
      </trkpt>
      <trkpt lat="44.98242" lon="6.03341">
        <ele>2838.6000976562</ele>
        <time>2021-03-21T12:45:34.000Z</time>
      </trkpt>
      <trkpt lat="44.98242" lon="6.03341">
        <ele>2838.8000488281</ele>
        <time>2021-03-21T12:45:35.000Z</time>
      </trkpt>
      <trkpt lat="44.98242" lon="6.03341">
        <ele>2838.8000488281</ele>
        <time>2021-03-21T12:45:36.000Z</time>
      </trkpt>
      <trkpt lat="44.98241" lon="6.03341">
        <ele>2838.8000488281</ele>
        <time>2021-03-21T12:45:37.000Z</time>
      </trkpt>
      <trkpt lat="44.98241" lon="6.03341">
        <ele>2838.8000488281</ele>
        <time>2021-03-21T12:45:38.000Z</time>
      </trkpt>
      <trkpt lat="44.98241" lon="6.03341">
        <ele>2838.8000488281</ele>
        <time>2021-03-21T12:45:39.000Z</time>
      </trkpt>
      <trkpt lat="44.98241" lon="6.03341">
        <ele>2838.8000488281</ele>
        <time>2021-03-21T12:45:40.000Z</time>
      </trkpt>
      <trkpt lat="44.98241" lon="6.03341">
        <ele>2838.8000488281</ele>
        <time>2021-03-21T12:45:41.000Z</time>
      </trkpt>
      <trkpt lat="44.98242" lon="6.03341">
        <ele>2838.8000488281</ele>
        <time>2021-03-21T12:45:42.000Z</time>
      </trkpt>
      <trkpt lat="44.98241" lon="6.03341">
        <ele>2838.8000488281</ele>
        <time>2021-03-21T12:45:43.000Z</time>
      </trkpt>
      <trkpt lat="44.98241" lon="6.03341">
        <ele>2838.8000488281</ele>
        <time>2021-03-21T12:45:44.000Z</time>
      </trkpt>
      <trkpt lat="44.98242" lon="6.03341">
        <ele>2838.8000488281</ele>
        <time>2021-03-21T12:45:45.000Z</time>
      </trkpt>
      <trkpt lat="44.98242" lon="6.03341">
        <ele>2838.8000488281</ele>
        <time>2021-03-21T12:45:46.000Z</time>
      </trkpt>
      <trkpt lat="44.98242" lon="6.0334">
        <ele>2838.8000488281</ele>
        <time>2021-03-21T12:45:47.000Z</time>
      </trkpt>
      <trkpt lat="44.98242" lon="6.03341">
        <ele>2838.8000488281</ele>
        <time>2021-03-21T12:45:48.000Z</time>
      </trkpt>
      <trkpt lat="44.98242" lon="6.0334">
        <ele>2838.8000488281</ele>
        <time>2021-03-21T12:45:49.000Z</time>
      </trkpt>
      <trkpt lat="44.98242" lon="6.0334">
        <ele>2838.8000488281</ele>
        <time>2021-03-21T12:45:50.000Z</time>
      </trkpt>
      <trkpt lat="44.98242" lon="6.0334">
        <ele>2838.8000488281</ele>
        <time>2021-03-21T12:45:51.000Z</time>
      </trkpt>
      <trkpt lat="44.98242" lon="6.0334">
        <ele>2838.8000488281</ele>
        <time>2021-03-21T12:45:52.000Z</time>
      </trkpt>
      <trkpt lat="44.98242" lon="6.03341">
        <ele>2838.6000976562</ele>
        <time>2021-03-21T12:45:53.000Z</time>
      </trkpt>
      <trkpt lat="44.98242" lon="6.03342">
        <ele>2838.3999023438</ele>
        <time>2021-03-21T12:45:54.000Z</time>
      </trkpt>
      <trkpt lat="44.98243" lon="6.03342">
        <ele>2838.3999023438</ele>
        <time>2021-03-21T12:45:55.000Z</time>
      </trkpt>
      <trkpt lat="44.98242" lon="6.03343">
        <ele>2838.1999511719</ele>
        <time>2021-03-21T12:45:56.000Z</time>
      </trkpt>
      <trkpt lat="44.98243" lon="6.03344">
        <ele>2838</ele>
        <time>2021-03-21T12:45:57.000Z</time>
      </trkpt>
      <trkpt lat="44.98243" lon="6.03347">
        <ele>2837.6000976562</ele>
        <time>2021-03-21T12:45:58.000Z</time>
      </trkpt>
      <trkpt lat="44.98243" lon="6.03349">
        <ele>2837.1999511719</ele>
        <time>2021-03-21T12:45:59.000Z</time>
      </trkpt>
      <trkpt lat="44.98244" lon="6.03352">
        <ele>2836.6000976562</ele>
        <time>2021-03-21T12:46:00.000Z</time>
      </trkpt>
      <trkpt lat="44.98244" lon="6.03357">
        <ele>2835.6000976562</ele>
        <time>2021-03-21T12:46:01.000Z</time>
      </trkpt>
      <trkpt lat="44.98245" lon="6.03363">
        <ele>2835.3999023438</ele>
        <time>2021-03-21T12:46:02.000Z</time>
      </trkpt>
      <trkpt lat="44.98247" lon="6.03371">
        <ele>2835.3999023438</ele>
        <time>2021-03-21T12:46:03.000Z</time>
      </trkpt>
      <trkpt lat="44.98248" lon="6.0338">
        <ele>2835</ele>
        <time>2021-03-21T12:46:04.000Z</time>
      </trkpt>
      <trkpt lat="44.9825" lon="6.03389">
        <ele>2833.6000976562</ele>
        <time>2021-03-21T12:46:05.000Z</time>
      </trkpt>
      <trkpt lat="44.98255" lon="6.03392">
        <ele>2831.6000976562</ele>
        <time>2021-03-21T12:46:06.000Z</time>
      </trkpt>
      <trkpt lat="44.9826" lon="6.03394">
        <ele>2828.8000488281</ele>
        <time>2021-03-21T12:46:07.000Z</time>
      </trkpt>
      <trkpt lat="44.98266" lon="6.03396">
        <ele>2826</ele>
        <time>2021-03-21T12:46:08.000Z</time>
      </trkpt>
      <trkpt lat="44.98273" lon="6.03397">
        <ele>2823</ele>
        <time>2021-03-21T12:46:09.000Z</time>
      </trkpt>
      <trkpt lat="44.9828" lon="6.03398">
        <ele>2820.1999511719</ele>
        <time>2021-03-21T12:46:10.000Z</time>
      </trkpt>
      <trkpt lat="44.98286" lon="6.03399">
        <ele>2817.3999023438</ele>
        <time>2021-03-21T12:46:11.000Z</time>
      </trkpt>
      <trkpt lat="44.98293" lon="6.034">
        <ele>2814</ele>
        <time>2021-03-21T12:46:12.000Z</time>
      </trkpt>
      <trkpt lat="44.98299" lon="6.03402">
        <ele>2809.3999023438</ele>
        <time>2021-03-21T12:46:13.000Z</time>
      </trkpt>
      <trkpt lat="44.98306" lon="6.03406">
        <ele>2804.8000488281</ele>
        <time>2021-03-21T12:46:14.000Z</time>
      </trkpt>
      <trkpt lat="44.98312" lon="6.03409">
        <ele>2800.3999023438</ele>
        <time>2021-03-21T12:46:15.000Z</time>
      </trkpt>
      <trkpt lat="44.98317" lon="6.03412">
        <ele>2797</ele>
        <time>2021-03-21T12:46:16.000Z</time>
      </trkpt>
      <trkpt lat="44.98322" lon="6.03411">
        <ele>2792.8000488281</ele>
        <time>2021-03-21T12:46:17.000Z</time>
      </trkpt>
      <trkpt lat="44.98327" lon="6.03408">
        <ele>2787</ele>
        <time>2021-03-21T12:46:18.000Z</time>
      </trkpt>
      <trkpt lat="44.98332" lon="6.03409">
        <ele>2781.6000976562</ele>
        <time>2021-03-21T12:46:19.000Z</time>
      </trkpt>
      <trkpt lat="44.98335" lon="6.03414">
        <ele>2778.1999511719</ele>
        <time>2021-03-21T12:46:20.000Z</time>
      </trkpt>
      <trkpt lat="44.98339" lon="6.03421">
        <ele>2774.8000488281</ele>
        <time>2021-03-21T12:46:21.000Z</time>
      </trkpt>
      <trkpt lat="44.98342" lon="6.03426">
        <ele>2770.8000488281</ele>
        <time>2021-03-21T12:46:22.000Z</time>
      </trkpt>
      <trkpt lat="44.98346" lon="6.03431">
        <ele>2766.8000488281</ele>
        <time>2021-03-21T12:46:23.000Z</time>
      </trkpt>
      <trkpt lat="44.98349" lon="6.03436">
        <ele>2764.3999023438</ele>
        <time>2021-03-21T12:46:24.000Z</time>
      </trkpt>
      <trkpt lat="44.98351" lon="6.03441">
        <ele>2763</ele>
        <time>2021-03-21T12:46:25.000Z</time>
      </trkpt>
      <trkpt lat="44.98353" lon="6.03444">
        <ele>2761.8000488281</ele>
        <time>2021-03-21T12:46:26.000Z</time>
      </trkpt>
      <trkpt lat="44.98354" lon="6.03448">
        <ele>2761</ele>
        <time>2021-03-21T12:46:27.000Z</time>
      </trkpt>
      <trkpt lat="44.98354" lon="6.0345">
        <ele>2760.3999023438</ele>
        <time>2021-03-21T12:46:28.000Z</time>
      </trkpt>
      <trkpt lat="44.98355" lon="6.03451">
        <ele>2760</ele>
        <time>2021-03-21T12:46:29.000Z</time>
      </trkpt>
      <trkpt lat="44.98354" lon="6.03451">
        <ele>2760.3999023438</ele>
        <time>2021-03-21T12:46:30.000Z</time>
      </trkpt>
      <trkpt lat="44.98355" lon="6.03451">
        <ele>2759.8000488281</ele>
        <time>2021-03-21T12:46:31.000Z</time>
      </trkpt>
      <trkpt lat="44.98356" lon="6.03451">
        <ele>2759.6000976562</ele>
        <time>2021-03-21T12:46:32.000Z</time>
      </trkpt>
      <trkpt lat="44.98356" lon="6.03451">
        <ele>2759.3999023438</ele>
        <time>2021-03-21T12:46:33.000Z</time>
      </trkpt>
      <trkpt lat="44.98356" lon="6.03451">
        <ele>2759.1999511719</ele>
        <time>2021-03-21T12:46:34.000Z</time>
      </trkpt>
      <trkpt lat="44.98356" lon="6.03451">
        <ele>2759.1999511719</ele>
        <time>2021-03-21T12:46:35.000Z</time>
      </trkpt>
      <trkpt lat="44.98358" lon="6.03451">
        <ele>2758.1999511719</ele>
        <time>2021-03-21T12:46:36.000Z</time>
      </trkpt>
      <trkpt lat="44.98358" lon="6.03451">
        <ele>2758.1999511719</ele>
        <time>2021-03-21T12:46:37.000Z</time>
      </trkpt>
      <trkpt lat="44.98358" lon="6.03451">
        <ele>2758.1999511719</ele>
        <time>2021-03-21T12:46:38.000Z</time>
      </trkpt>
      <trkpt lat="44.98358" lon="6.03451">
        <ele>2758.1999511719</ele>
        <time>2021-03-21T12:46:39.000Z</time>
      </trkpt>
      <trkpt lat="44.98358" lon="6.03451">
        <ele>2758.1999511719</ele>
        <time>2021-03-21T12:46:40.000Z</time>
      </trkpt>
      <trkpt lat="44.98358" lon="6.03451">
        <ele>2758.3999023438</ele>
        <time>2021-03-21T12:46:41.000Z</time>
      </trkpt>
      <trkpt lat="44.98358" lon="6.03451">
        <ele>2758.3999023438</ele>
        <time>2021-03-21T12:46:42.000Z</time>
      </trkpt>
      <trkpt lat="44.98357" lon="6.03451">
        <ele>2758.6000976562</ele>
        <time>2021-03-21T12:46:43.000Z</time>
      </trkpt>
      <trkpt lat="44.98357" lon="6.03451">
        <ele>2758.8000488281</ele>
        <time>2021-03-21T12:46:44.000Z</time>
      </trkpt>
      <trkpt lat="44.98356" lon="6.03452">
        <ele>2759.1999511719</ele>
        <time>2021-03-21T12:46:45.000Z</time>
      </trkpt>
      <trkpt lat="44.98356" lon="6.03452">
        <ele>2759.1999511719</ele>
        <time>2021-03-21T12:46:46.000Z</time>
      </trkpt>
      <trkpt lat="44.98356" lon="6.03452">
        <ele>2759.3999023438</ele>
        <time>2021-03-21T12:46:47.000Z</time>
      </trkpt>
      <trkpt lat="44.98356" lon="6.03452">
        <ele>2759.6000976562</ele>
        <time>2021-03-21T12:46:48.000Z</time>
      </trkpt>
      <trkpt lat="44.98355" lon="6.03453">
        <ele>2760</ele>
        <time>2021-03-21T12:46:49.000Z</time>
      </trkpt>
      <trkpt lat="44.98355" lon="6.03453">
        <ele>2760.1999511719</ele>
        <time>2021-03-21T12:46:50.000Z</time>
      </trkpt>
      <trkpt lat="44.98355" lon="6.03453">
        <ele>2760.1999511719</ele>
        <time>2021-03-21T12:46:51.000Z</time>
      </trkpt>
      <trkpt lat="44.98355" lon="6.03453">
        <ele>2760.1999511719</ele>
        <time>2021-03-21T12:46:52.000Z</time>
      </trkpt>
      <trkpt lat="44.98355" lon="6.03453">
        <ele>2760</ele>
        <time>2021-03-21T12:46:53.000Z</time>
      </trkpt>
      <trkpt lat="44.98355" lon="6.03453">
        <ele>2760</ele>
        <time>2021-03-21T12:46:54.000Z</time>
      </trkpt>
      <trkpt lat="44.98354" lon="6.03453">
        <ele>2760.3999023438</ele>
        <time>2021-03-21T12:46:55.000Z</time>
      </trkpt>
      <trkpt lat="44.98354" lon="6.03453">
        <ele>2760.3999023438</ele>
        <time>2021-03-21T12:46:56.000Z</time>
      </trkpt>
      <trkpt lat="44.98354" lon="6.03453">
        <ele>2760.8000488281</ele>
        <time>2021-03-21T12:46:57.000Z</time>
      </trkpt>
      <trkpt lat="44.98354" lon="6.03452">
        <ele>2760.8000488281</ele>
        <time>2021-03-21T12:46:58.000Z</time>
      </trkpt>
      <trkpt lat="44.98354" lon="6.03452">
        <ele>2760.8000488281</ele>
        <time>2021-03-21T12:46:59.000Z</time>
      </trkpt>
      <trkpt lat="44.98354" lon="6.03452">
        <ele>2760.8000488281</ele>
        <time>2021-03-21T12:47:00.000Z</time>
      </trkpt>
      <trkpt lat="44.98353" lon="6.03452">
        <ele>2761</ele>
        <time>2021-03-21T12:47:01.000Z</time>
      </trkpt>
      <trkpt lat="44.98353" lon="6.03453">
        <ele>2761.1999511719</ele>
        <time>2021-03-21T12:47:02.000Z</time>
      </trkpt>
      <trkpt lat="44.98353" lon="6.03453">
        <ele>2761.3999023438</ele>
        <time>2021-03-21T12:47:03.000Z</time>
      </trkpt>
      <trkpt lat="44.98352" lon="6.03453">
        <ele>2761.8000488281</ele>
        <time>2021-03-21T12:47:04.000Z</time>
      </trkpt>
      <trkpt lat="44.98352" lon="6.03453">
        <ele>2762</ele>
        <time>2021-03-21T12:47:05.000Z</time>
      </trkpt>
      <trkpt lat="44.98351" lon="6.03453">
        <ele>2762.1999511719</ele>
        <time>2021-03-21T12:47:06.000Z</time>
      </trkpt>
      <trkpt lat="44.98351" lon="6.03454">
        <ele>2762.3999023438</ele>
        <time>2021-03-21T12:47:07.000Z</time>
      </trkpt>
      <trkpt lat="44.98351" lon="6.03454">
        <ele>2762.6000976562</ele>
        <time>2021-03-21T12:47:08.000Z</time>
      </trkpt>
      <trkpt lat="44.98351" lon="6.03454">
        <ele>2762.6000976562</ele>
        <time>2021-03-21T12:47:09.000Z</time>
      </trkpt>
      <trkpt lat="44.9835" lon="6.03454">
        <ele>2762.8000488281</ele>
        <time>2021-03-21T12:47:10.000Z</time>
      </trkpt>
      <trkpt lat="44.9835" lon="6.03455">
        <ele>2763</ele>
        <time>2021-03-21T12:47:11.000Z</time>
      </trkpt>
      <trkpt lat="44.9835" lon="6.03455">
        <ele>2763.1999511719</ele>
        <time>2021-03-21T12:47:12.000Z</time>
      </trkpt>
      <trkpt lat="44.9835" lon="6.03455">
        <ele>2763.3999023438</ele>
        <time>2021-03-21T12:47:13.000Z</time>
      </trkpt>
      <trkpt lat="44.98349" lon="6.03455">
        <ele>2763.6000976562</ele>
        <time>2021-03-21T12:47:15.000Z</time>
      </trkpt>
      <trkpt lat="44.98349" lon="6.03455">
        <ele>2763.6000976562</ele>
        <time>2021-03-21T12:47:16.000Z</time>
      </trkpt>
      <trkpt lat="44.98349" lon="6.03455">
        <ele>2763.8000488281</ele>
        <time>2021-03-21T12:47:17.000Z</time>
      </trkpt>
      <trkpt lat="44.98349" lon="6.03455">
        <ele>2763.8000488281</ele>
        <time>2021-03-21T12:47:18.000Z</time>
      </trkpt>
      <trkpt lat="44.98349" lon="6.03455">
        <ele>2763.8000488281</ele>
        <time>2021-03-21T12:47:19.000Z</time>
      </trkpt>
      <trkpt lat="44.98349" lon="6.03455">
        <ele>2763.6000976562</ele>
        <time>2021-03-21T12:47:20.000Z</time>
      </trkpt>
      <trkpt lat="44.98349" lon="6.03455">
        <ele>2763.6000976562</ele>
        <time>2021-03-21T12:47:21.000Z</time>
      </trkpt>
      <trkpt lat="44.98349" lon="6.03456">
        <ele>2763.6000976562</ele>
        <time>2021-03-21T12:47:23.000Z</time>
      </trkpt>
      <trkpt lat="44.98349" lon="6.03456">
        <ele>2763.6000976562</ele>
        <time>2021-03-21T12:47:24.000Z</time>
      </trkpt>
      <trkpt lat="44.98349" lon="6.03457">
        <ele>2763.8000488281</ele>
        <time>2021-03-21T12:47:25.000Z</time>
      </trkpt>
      <trkpt lat="44.98349" lon="6.03456">
        <ele>2763.6000976562</ele>
        <time>2021-03-21T12:47:26.000Z</time>
      </trkpt>
      <trkpt lat="44.98349" lon="6.03456">
        <ele>2763.6000976562</ele>
        <time>2021-03-21T12:47:27.000Z</time>
      </trkpt>
      <trkpt lat="44.9835" lon="6.03456">
        <ele>2763.3999023438</ele>
        <time>2021-03-21T12:47:28.000Z</time>
      </trkpt>
      <trkpt lat="44.98351" lon="6.03454">
        <ele>2762.6000976562</ele>
        <time>2021-03-21T12:47:29.000Z</time>
      </trkpt>
      <trkpt lat="44.98351" lon="6.03454">
        <ele>2762.8000488281</ele>
        <time>2021-03-21T12:47:30.000Z</time>
      </trkpt>
      <trkpt lat="44.98352" lon="6.03453">
        <ele>2762.1999511719</ele>
        <time>2021-03-21T12:47:31.000Z</time>
      </trkpt>
      <trkpt lat="44.98352" lon="6.03453">
        <ele>2762</ele>
        <time>2021-03-21T12:47:32.000Z</time>
      </trkpt>
      <trkpt lat="44.98352" lon="6.03453">
        <ele>2761.8000488281</ele>
        <time>2021-03-21T12:47:33.000Z</time>
      </trkpt>
      <trkpt lat="44.98352" lon="6.03454">
        <ele>2762.1999511719</ele>
        <time>2021-03-21T12:47:34.000Z</time>
      </trkpt>
      <trkpt lat="44.98351" lon="6.03453">
        <ele>2762.1999511719</ele>
        <time>2021-03-21T12:47:35.000Z</time>
      </trkpt>
      <trkpt lat="44.98351" lon="6.03453">
        <ele>2762.1999511719</ele>
        <time>2021-03-21T12:47:36.000Z</time>
      </trkpt>
      <trkpt lat="44.98351" lon="6.03454">
        <ele>2762.1999511719</ele>
        <time>2021-03-21T12:47:37.000Z</time>
      </trkpt>
      <trkpt lat="44.98352" lon="6.03453">
        <ele>2762</ele>
        <time>2021-03-21T12:47:38.000Z</time>
      </trkpt>
      <trkpt lat="44.98352" lon="6.03453">
        <ele>2761.8000488281</ele>
        <time>2021-03-21T12:47:39.000Z</time>
      </trkpt>
      <trkpt lat="44.98352" lon="6.03452">
        <ele>2761.8000488281</ele>
        <time>2021-03-21T12:47:40.000Z</time>
      </trkpt>
      <trkpt lat="44.98353" lon="6.03452">
        <ele>2761.6000976562</ele>
        <time>2021-03-21T12:47:41.000Z</time>
      </trkpt>
      <trkpt lat="44.98353" lon="6.03451">
        <ele>2761.3999023438</ele>
        <time>2021-03-21T12:47:42.000Z</time>
      </trkpt>
      <trkpt lat="44.98353" lon="6.03451">
        <ele>2761.3999023438</ele>
        <time>2021-03-21T12:47:43.000Z</time>
      </trkpt>
      <trkpt lat="44.98353" lon="6.03451">
        <ele>2761</ele>
        <time>2021-03-21T12:47:44.000Z</time>
      </trkpt>
      <trkpt lat="44.98354" lon="6.03451">
        <ele>2761</ele>
        <time>2021-03-21T12:47:45.000Z</time>
      </trkpt>
      <trkpt lat="44.98354" lon="6.03451">
        <ele>2761</ele>
        <time>2021-03-21T12:47:46.000Z</time>
      </trkpt>
      <trkpt lat="44.98354" lon="6.03451">
        <ele>2761</ele>
        <time>2021-03-21T12:47:47.000Z</time>
      </trkpt>
      <trkpt lat="44.98353" lon="6.03451">
        <ele>2761</ele>
        <time>2021-03-21T12:47:48.000Z</time>
      </trkpt>
      <trkpt lat="44.98353" lon="6.03452">
        <ele>2761.1999511719</ele>
        <time>2021-03-21T12:47:49.000Z</time>
      </trkpt>
      <trkpt lat="44.98353" lon="6.03452">
        <ele>2761.1999511719</ele>
        <time>2021-03-21T12:47:50.000Z</time>
      </trkpt>
      <trkpt lat="44.98353" lon="6.03451">
        <ele>2761.3999023438</ele>
        <time>2021-03-21T12:47:51.000Z</time>
      </trkpt>
      <trkpt lat="44.98353" lon="6.03451">
        <ele>2761.3999023438</ele>
        <time>2021-03-21T12:47:52.000Z</time>
      </trkpt>
      <trkpt lat="44.98353" lon="6.03451">
        <ele>2761.3999023438</ele>
        <time>2021-03-21T12:47:53.000Z</time>
      </trkpt>
      <trkpt lat="44.98353" lon="6.03451">
        <ele>2761.3999023438</ele>
        <time>2021-03-21T12:47:54.000Z</time>
      </trkpt>
      <trkpt lat="44.98353" lon="6.03451">
        <ele>2761.3999023438</ele>
        <time>2021-03-21T12:47:55.000Z</time>
      </trkpt>
      <trkpt lat="44.98353" lon="6.03451">
        <ele>2761.1999511719</ele>
        <time>2021-03-21T12:47:56.000Z</time>
      </trkpt>
      <trkpt lat="44.98353" lon="6.03451">
        <ele>2761.1999511719</ele>
        <time>2021-03-21T12:47:57.000Z</time>
      </trkpt>
      <trkpt lat="44.98353" lon="6.0345">
        <ele>2761</ele>
        <time>2021-03-21T12:47:58.000Z</time>
      </trkpt>
      <trkpt lat="44.98353" lon="6.0345">
        <ele>2761</ele>
        <time>2021-03-21T12:47:59.000Z</time>
      </trkpt>
      <trkpt lat="44.98353" lon="6.03451">
        <ele>2761.3999023438</ele>
        <time>2021-03-21T12:48:00.000Z</time>
      </trkpt>
      <trkpt lat="44.98353" lon="6.03451">
        <ele>2761.3999023438</ele>
        <time>2021-03-21T12:48:01.000Z</time>
      </trkpt>
      <trkpt lat="44.98353" lon="6.03451">
        <ele>2761.6000976562</ele>
        <time>2021-03-21T12:48:02.000Z</time>
      </trkpt>
      <trkpt lat="44.98353" lon="6.03451">
        <ele>2761.6000976562</ele>
        <time>2021-03-21T12:48:03.000Z</time>
      </trkpt>
      <trkpt lat="44.98352" lon="6.03451">
        <ele>2761.8000488281</ele>
        <time>2021-03-21T12:48:04.000Z</time>
      </trkpt>
      <trkpt lat="44.98352" lon="6.03451">
        <ele>2761.8000488281</ele>
        <time>2021-03-21T12:48:05.000Z</time>
      </trkpt>
      <trkpt lat="44.98352" lon="6.03451">
        <ele>2762</ele>
        <time>2021-03-21T12:48:06.000Z</time>
      </trkpt>
      <trkpt lat="44.98352" lon="6.03451">
        <ele>2762.1999511719</ele>
        <time>2021-03-21T12:48:07.000Z</time>
      </trkpt>
      <trkpt lat="44.98351" lon="6.03451">
        <ele>2762.3999023438</ele>
        <time>2021-03-21T12:48:08.000Z</time>
      </trkpt>
      <trkpt lat="44.98351" lon="6.03451">
        <ele>2762.3999023438</ele>
        <time>2021-03-21T12:48:09.000Z</time>
      </trkpt>
      <trkpt lat="44.98351" lon="6.03451">
        <ele>2762.3999023438</ele>
        <time>2021-03-21T12:48:10.000Z</time>
      </trkpt>
      <trkpt lat="44.98351" lon="6.03451">
        <ele>2762.6000976562</ele>
        <time>2021-03-21T12:48:11.000Z</time>
      </trkpt>
      <trkpt lat="44.98351" lon="6.03451">
        <ele>2762.8000488281</ele>
        <time>2021-03-21T12:48:12.000Z</time>
      </trkpt>
      <trkpt lat="44.98351" lon="6.03451">
        <ele>2762.8000488281</ele>
        <time>2021-03-21T12:48:13.000Z</time>
      </trkpt>
      <trkpt lat="44.98351" lon="6.03451">
        <ele>2762.8000488281</ele>
        <time>2021-03-21T12:48:14.000Z</time>
      </trkpt>
      <trkpt lat="44.98351" lon="6.03451">
        <ele>2762.6000976562</ele>
        <time>2021-03-21T12:48:15.000Z</time>
      </trkpt>
      <trkpt lat="44.98351" lon="6.03451">
        <ele>2762.6000976562</ele>
        <time>2021-03-21T12:48:16.000Z</time>
      </trkpt>
      <trkpt lat="44.98351" lon="6.03451">
        <ele>2762.6000976562</ele>
        <time>2021-03-21T12:48:17.000Z</time>
      </trkpt>
      <trkpt lat="44.98351" lon="6.03451">
        <ele>2762.3999023438</ele>
        <time>2021-03-21T12:48:18.000Z</time>
      </trkpt>
      <trkpt lat="44.98351" lon="6.03451">
        <ele>2762.6000976562</ele>
        <time>2021-03-21T12:48:19.000Z</time>
      </trkpt>
      <trkpt lat="44.98351" lon="6.03451">
        <ele>2762.6000976562</ele>
        <time>2021-03-21T12:48:20.000Z</time>
      </trkpt>
      <trkpt lat="44.98351" lon="6.03451">
        <ele>2762.6000976562</ele>
        <time>2021-03-21T12:48:21.000Z</time>
      </trkpt>
      <trkpt lat="44.98351" lon="6.03451">
        <ele>2762.6000976562</ele>
        <time>2021-03-21T12:48:22.000Z</time>
      </trkpt>
      <trkpt lat="44.98351" lon="6.03451">
        <ele>2762.8000488281</ele>
        <time>2021-03-21T12:48:23.000Z</time>
      </trkpt>
      <trkpt lat="44.98351" lon="6.03451">
        <ele>2762.6000976562</ele>
        <time>2021-03-21T12:48:24.000Z</time>
      </trkpt>
      <trkpt lat="44.98351" lon="6.03451">
        <ele>2762.8000488281</ele>
        <time>2021-03-21T12:48:25.000Z</time>
      </trkpt>
      <trkpt lat="44.98351" lon="6.03451">
        <ele>2762.8000488281</ele>
        <time>2021-03-21T12:48:26.000Z</time>
      </trkpt>
      <trkpt lat="44.9835" lon="6.03451">
        <ele>2763</ele>
        <time>2021-03-21T12:48:27.000Z</time>
      </trkpt>
      <trkpt lat="44.9835" lon="6.03451">
        <ele>2763.1999511719</ele>
        <time>2021-03-21T12:48:28.000Z</time>
      </trkpt>
      <trkpt lat="44.9835" lon="6.03451">
        <ele>2763.1999511719</ele>
        <time>2021-03-21T12:48:29.000Z</time>
      </trkpt>
      <trkpt lat="44.9835" lon="6.03451">
        <ele>2763.3999023438</ele>
        <time>2021-03-21T12:48:30.000Z</time>
      </trkpt>
      <trkpt lat="44.9835" lon="6.03451">
        <ele>2763.3999023438</ele>
        <time>2021-03-21T12:48:31.000Z</time>
      </trkpt>
      <trkpt lat="44.98349" lon="6.03451">
        <ele>2763.6000976562</ele>
        <time>2021-03-21T12:48:32.000Z</time>
      </trkpt>
      <trkpt lat="44.98349" lon="6.03451">
        <ele>2763.8000488281</ele>
        <time>2021-03-21T12:48:33.000Z</time>
      </trkpt>
      <trkpt lat="44.98349" lon="6.03451">
        <ele>2763.6000976562</ele>
        <time>2021-03-21T12:48:34.000Z</time>
      </trkpt>
      <trkpt lat="44.98349" lon="6.03452">
        <ele>2763.8000488281</ele>
        <time>2021-03-21T12:48:35.000Z</time>
      </trkpt>
      <trkpt lat="44.98349" lon="6.03452">
        <ele>2763.6000976562</ele>
        <time>2021-03-21T12:48:36.000Z</time>
      </trkpt>
      <trkpt lat="44.98349" lon="6.03452">
        <ele>2763.8000488281</ele>
        <time>2021-03-21T12:48:37.000Z</time>
      </trkpt>
      <trkpt lat="44.98349" lon="6.03452">
        <ele>2763.8000488281</ele>
        <time>2021-03-21T12:48:38.000Z</time>
      </trkpt>
      <trkpt lat="44.98349" lon="6.03452">
        <ele>2764</ele>
        <time>2021-03-21T12:48:39.000Z</time>
      </trkpt>
      <trkpt lat="44.98349" lon="6.03452">
        <ele>2763.8000488281</ele>
        <time>2021-03-21T12:48:40.000Z</time>
      </trkpt>
      <trkpt lat="44.98349" lon="6.03452">
        <ele>2763.8000488281</ele>
        <time>2021-03-21T12:48:41.000Z</time>
      </trkpt>
      <trkpt lat="44.98349" lon="6.03452">
        <ele>2763.8000488281</ele>
        <time>2021-03-21T12:48:42.000Z</time>
      </trkpt>
      <trkpt lat="44.98349" lon="6.03452">
        <ele>2763.8000488281</ele>
        <time>2021-03-21T12:48:43.000Z</time>
      </trkpt>
      <trkpt lat="44.98349" lon="6.03451">
        <ele>2763.8000488281</ele>
        <time>2021-03-21T12:48:44.000Z</time>
      </trkpt>
      <trkpt lat="44.98349" lon="6.03451">
        <ele>2764</ele>
        <time>2021-03-21T12:48:45.000Z</time>
      </trkpt>
      <trkpt lat="44.98348" lon="6.03451">
        <ele>2764.1999511719</ele>
        <time>2021-03-21T12:48:46.000Z</time>
      </trkpt>
      <trkpt lat="44.98348" lon="6.03451">
        <ele>2764.3999023438</ele>
        <time>2021-03-21T12:48:47.000Z</time>
      </trkpt>
      <trkpt lat="44.98348" lon="6.03452">
        <ele>2764.3999023438</ele>
        <time>2021-03-21T12:48:48.000Z</time>
      </trkpt>
      <trkpt lat="44.98348" lon="6.03452">
        <ele>2764.8000488281</ele>
        <time>2021-03-21T12:48:49.000Z</time>
      </trkpt>
      <trkpt lat="44.98347" lon="6.03452">
        <ele>2765</ele>
        <time>2021-03-21T12:48:50.000Z</time>
      </trkpt>
      <trkpt lat="44.98346" lon="6.03453">
        <ele>2766</ele>
        <time>2021-03-21T12:48:51.000Z</time>
      </trkpt>
      <trkpt lat="44.98346" lon="6.03453">
        <ele>2766.6000976562</ele>
        <time>2021-03-21T12:48:52.000Z</time>
      </trkpt>
      <trkpt lat="44.98345" lon="6.03453">
        <ele>2766.8000488281</ele>
        <time>2021-03-21T12:48:53.000Z</time>
      </trkpt>
      <trkpt lat="44.98345" lon="6.03453">
        <ele>2767</ele>
        <time>2021-03-21T12:48:54.000Z</time>
      </trkpt>
      <trkpt lat="44.98345" lon="6.03453">
        <ele>2767</ele>
        <time>2021-03-21T12:48:55.000Z</time>
      </trkpt>
      <trkpt lat="44.98346" lon="6.03452">
        <ele>2766.6000976562</ele>
        <time>2021-03-21T12:48:56.000Z</time>
      </trkpt>
      <trkpt lat="44.98346" lon="6.03452">
        <ele>2766.3999023438</ele>
        <time>2021-03-21T12:48:57.000Z</time>
      </trkpt>
      <trkpt lat="44.98346" lon="6.03452">
        <ele>2766.1999511719</ele>
        <time>2021-03-21T12:48:58.000Z</time>
      </trkpt>
      <trkpt lat="44.98346" lon="6.03452">
        <ele>2765.8000488281</ele>
        <time>2021-03-21T12:48:59.000Z</time>
      </trkpt>
      <trkpt lat="44.98346" lon="6.03452">
        <ele>2765.8000488281</ele>
        <time>2021-03-21T12:49:00.000Z</time>
      </trkpt>
      <trkpt lat="44.98346" lon="6.03452">
        <ele>2765.8000488281</ele>
        <time>2021-03-21T12:49:01.000Z</time>
      </trkpt>
      <trkpt lat="44.98346" lon="6.03452">
        <ele>2765.8000488281</ele>
        <time>2021-03-21T12:49:02.000Z</time>
      </trkpt>
      <trkpt lat="44.98346" lon="6.03452">
        <ele>2765.8000488281</ele>
        <time>2021-03-21T12:49:03.000Z</time>
      </trkpt>
      <trkpt lat="44.98346" lon="6.03452">
        <ele>2766</ele>
        <time>2021-03-21T12:49:04.000Z</time>
      </trkpt>
      <trkpt lat="44.98346" lon="6.03452">
        <ele>2766.3999023438</ele>
        <time>2021-03-21T12:49:05.000Z</time>
      </trkpt>
      <trkpt lat="44.98345" lon="6.03452">
        <ele>2767</ele>
        <time>2021-03-21T12:49:06.000Z</time>
      </trkpt>
      <trkpt lat="44.98345" lon="6.03452">
        <ele>2766.8000488281</ele>
        <time>2021-03-21T12:49:07.000Z</time>
      </trkpt>
      <trkpt lat="44.98345" lon="6.03452">
        <ele>2767</ele>
        <time>2021-03-21T12:49:08.000Z</time>
      </trkpt>
      <trkpt lat="44.98345" lon="6.03452">
        <ele>2767</ele>
        <time>2021-03-21T12:49:09.000Z</time>
      </trkpt>
      <trkpt lat="44.98345" lon="6.03452">
        <ele>2767.1999511719</ele>
        <time>2021-03-21T12:49:10.000Z</time>
      </trkpt>
      <trkpt lat="44.98345" lon="6.03452">
        <ele>2767.1999511719</ele>
        <time>2021-03-21T12:49:11.000Z</time>
      </trkpt>
      <trkpt lat="44.98345" lon="6.03452">
        <ele>2767.1999511719</ele>
        <time>2021-03-21T12:49:12.000Z</time>
      </trkpt>
      <trkpt lat="44.98345" lon="6.03453">
        <ele>2767.3999023438</ele>
        <time>2021-03-21T12:49:13.000Z</time>
      </trkpt>
      <trkpt lat="44.98345" lon="6.03453">
        <ele>2767.3999023438</ele>
        <time>2021-03-21T12:49:14.000Z</time>
      </trkpt>
      <trkpt lat="44.98345" lon="6.03453">
        <ele>2767.3999023438</ele>
        <time>2021-03-21T12:49:15.000Z</time>
      </trkpt>
      <trkpt lat="44.98345" lon="6.03453">
        <ele>2767.6000976562</ele>
        <time>2021-03-21T12:49:16.000Z</time>
      </trkpt>
      <trkpt lat="44.98344" lon="6.03453">
        <ele>2767.8000488281</ele>
        <time>2021-03-21T12:49:17.000Z</time>
      </trkpt>
      <trkpt lat="44.98344" lon="6.03453">
        <ele>2768.1999511719</ele>
        <time>2021-03-21T12:49:18.000Z</time>
      </trkpt>
      <trkpt lat="44.98344" lon="6.03453">
        <ele>2768.1999511719</ele>
        <time>2021-03-21T12:49:19.000Z</time>
      </trkpt>
      <trkpt lat="44.98344" lon="6.03453">
        <ele>2768.1999511719</ele>
        <time>2021-03-21T12:49:20.000Z</time>
      </trkpt>
      <trkpt lat="44.98344" lon="6.03453">
        <ele>2767.8000488281</ele>
        <time>2021-03-21T12:49:21.000Z</time>
      </trkpt>
      <trkpt lat="44.98345" lon="6.03454">
        <ele>2767.6000976562</ele>
        <time>2021-03-21T12:49:22.000Z</time>
      </trkpt>
      <trkpt lat="44.98346" lon="6.03452">
        <ele>2766.3999023438</ele>
        <time>2021-03-21T12:49:23.000Z</time>
      </trkpt>
      <trkpt lat="44.98346" lon="6.03451">
        <ele>2765.6000976562</ele>
        <time>2021-03-21T12:49:24.000Z</time>
      </trkpt>
      <trkpt lat="44.98346" lon="6.03451">
        <ele>2765.8000488281</ele>
        <time>2021-03-21T12:49:25.000Z</time>
      </trkpt>
      <trkpt lat="44.98347" lon="6.03451">
        <ele>2765.6000976562</ele>
        <time>2021-03-21T12:49:26.000Z</time>
      </trkpt>
      <trkpt lat="44.98347" lon="6.03452">
        <ele>2765.6000976562</ele>
        <time>2021-03-21T12:49:27.000Z</time>
      </trkpt>
      <trkpt lat="44.98347" lon="6.03451">
        <ele>2765</ele>
        <time>2021-03-21T12:49:28.000Z</time>
      </trkpt>
      <trkpt lat="44.98348" lon="6.03451">
        <ele>2764.8000488281</ele>
        <time>2021-03-21T12:49:29.000Z</time>
      </trkpt>
      <trkpt lat="44.98348" lon="6.03451">
        <ele>2764.6000976562</ele>
        <time>2021-03-21T12:49:30.000Z</time>
      </trkpt>
      <trkpt lat="44.98348" lon="6.03451">
        <ele>2764.6000976562</ele>
        <time>2021-03-21T12:49:31.000Z</time>
      </trkpt>
      <trkpt lat="44.98348" lon="6.03451">
        <ele>2764.3999023438</ele>
        <time>2021-03-21T12:49:32.000Z</time>
      </trkpt>
      <trkpt lat="44.98348" lon="6.03451">
        <ele>2764.1999511719</ele>
        <time>2021-03-21T12:49:33.000Z</time>
      </trkpt>
      <trkpt lat="44.98348" lon="6.03451">
        <ele>2764.1999511719</ele>
        <time>2021-03-21T12:49:34.000Z</time>
      </trkpt>
      <trkpt lat="44.98349" lon="6.03451">
        <ele>2764.1999511719</ele>
        <time>2021-03-21T12:49:35.000Z</time>
      </trkpt>
      <trkpt lat="44.98349" lon="6.03451">
        <ele>2764</ele>
        <time>2021-03-21T12:49:36.000Z</time>
      </trkpt>
      <trkpt lat="44.98349" lon="6.03451">
        <ele>2764</ele>
        <time>2021-03-21T12:49:37.000Z</time>
      </trkpt>
      <trkpt lat="44.98349" lon="6.03451">
        <ele>2763.8000488281</ele>
        <time>2021-03-21T12:49:38.000Z</time>
      </trkpt>
      <trkpt lat="44.98349" lon="6.03451">
        <ele>2763.8000488281</ele>
        <time>2021-03-21T12:49:39.000Z</time>
      </trkpt>
      <trkpt lat="44.98349" lon="6.03451">
        <ele>2763.6000976562</ele>
        <time>2021-03-21T12:49:40.000Z</time>
      </trkpt>
      <trkpt lat="44.9835" lon="6.0345">
        <ele>2763.3999023438</ele>
        <time>2021-03-21T12:49:41.000Z</time>
      </trkpt>
      <trkpt lat="44.9835" lon="6.0345">
        <ele>2763.3999023438</ele>
        <time>2021-03-21T12:49:42.000Z</time>
      </trkpt>
      <trkpt lat="44.9835" lon="6.0345">
        <ele>2763</ele>
        <time>2021-03-21T12:49:43.000Z</time>
      </trkpt>
      <trkpt lat="44.9835" lon="6.0345">
        <ele>2763</ele>
        <time>2021-03-21T12:49:44.000Z</time>
      </trkpt>
      <trkpt lat="44.9835" lon="6.03451">
        <ele>2763.1999511719</ele>
        <time>2021-03-21T12:49:45.000Z</time>
      </trkpt>
      <trkpt lat="44.9835" lon="6.03451">
        <ele>2763.1999511719</ele>
        <time>2021-03-21T12:49:46.000Z</time>
      </trkpt>
      <trkpt lat="44.9835" lon="6.0345">
        <ele>2763.1999511719</ele>
        <time>2021-03-21T12:49:47.000Z</time>
      </trkpt>
      <trkpt lat="44.98351" lon="6.0345">
        <ele>2762.8000488281</ele>
        <time>2021-03-21T12:49:48.000Z</time>
      </trkpt>
      <trkpt lat="44.98351" lon="6.0345">
        <ele>2762.8000488281</ele>
        <time>2021-03-21T12:49:49.000Z</time>
      </trkpt>
      <trkpt lat="44.9835" lon="6.0345">
        <ele>2763</ele>
        <time>2021-03-21T12:49:50.000Z</time>
      </trkpt>
      <trkpt lat="44.9835" lon="6.0345">
        <ele>2763</ele>
        <time>2021-03-21T12:49:51.000Z</time>
      </trkpt>
      <trkpt lat="44.9835" lon="6.03449">
        <ele>2763</ele>
        <time>2021-03-21T12:49:52.000Z</time>
      </trkpt>
      <trkpt lat="44.98351" lon="6.03449">
        <ele>2763</ele>
        <time>2021-03-21T12:49:53.000Z</time>
      </trkpt>
      <trkpt lat="44.98351" lon="6.03449">
        <ele>2762.8000488281</ele>
        <time>2021-03-21T12:49:54.000Z</time>
      </trkpt>
      <trkpt lat="44.98351" lon="6.03449">
        <ele>2762.8000488281</ele>
        <time>2021-03-21T12:49:55.000Z</time>
      </trkpt>
      <trkpt lat="44.98351" lon="6.03448">
        <ele>2762.6000976562</ele>
        <time>2021-03-21T12:49:56.000Z</time>
      </trkpt>
      <trkpt lat="44.98351" lon="6.03448">
        <ele>2762.6000976562</ele>
        <time>2021-03-21T12:49:57.000Z</time>
      </trkpt>
      <trkpt lat="44.98351" lon="6.03448">
        <ele>2762.6000976562</ele>
        <time>2021-03-21T12:49:58.000Z</time>
      </trkpt>
      <trkpt lat="44.98351" lon="6.03448">
        <ele>2762.6000976562</ele>
        <time>2021-03-21T12:49:59.000Z</time>
      </trkpt>
      <trkpt lat="44.98351" lon="6.03448">
        <ele>2762.8000488281</ele>
        <time>2021-03-21T12:50:00.000Z</time>
      </trkpt>
      <trkpt lat="44.98351" lon="6.03448">
        <ele>2762.8000488281</ele>
        <time>2021-03-21T12:50:01.000Z</time>
      </trkpt>
      <trkpt lat="44.98351" lon="6.03448">
        <ele>2762.8000488281</ele>
        <time>2021-03-21T12:50:02.000Z</time>
      </trkpt>
      <trkpt lat="44.98351" lon="6.03448">
        <ele>2762.8000488281</ele>
        <time>2021-03-21T12:50:03.000Z</time>
      </trkpt>
      <trkpt lat="44.98351" lon="6.03448">
        <ele>2762.8000488281</ele>
        <time>2021-03-21T12:50:04.000Z</time>
      </trkpt>
      <trkpt lat="44.98351" lon="6.03448">
        <ele>2763</ele>
        <time>2021-03-21T12:50:05.000Z</time>
      </trkpt>
      <trkpt lat="44.9835" lon="6.03448">
        <ele>2763</ele>
        <time>2021-03-21T12:50:06.000Z</time>
      </trkpt>
      <trkpt lat="44.9835" lon="6.03448">
        <ele>2763.1999511719</ele>
        <time>2021-03-21T12:50:07.000Z</time>
      </trkpt>
      <trkpt lat="44.9835" lon="6.03448">
        <ele>2763.1999511719</ele>
        <time>2021-03-21T12:50:08.000Z</time>
      </trkpt>
      <trkpt lat="44.9835" lon="6.03448">
        <ele>2763.1999511719</ele>
        <time>2021-03-21T12:50:09.000Z</time>
      </trkpt>
      <trkpt lat="44.9835" lon="6.03448">
        <ele>2763.1999511719</ele>
        <time>2021-03-21T12:50:10.000Z</time>
      </trkpt>
      <trkpt lat="44.9835" lon="6.03448">
        <ele>2763.1999511719</ele>
        <time>2021-03-21T12:50:11.000Z</time>
      </trkpt>
      <trkpt lat="44.9835" lon="6.03448">
        <ele>2763.1999511719</ele>
        <time>2021-03-21T12:50:12.000Z</time>
      </trkpt>
      <trkpt lat="44.9835" lon="6.03448">
        <ele>2763.1999511719</ele>
        <time>2021-03-21T12:50:13.000Z</time>
      </trkpt>
      <trkpt lat="44.9835" lon="6.03449">
        <ele>2763</ele>
        <time>2021-03-21T12:50:14.000Z</time>
      </trkpt>
      <trkpt lat="44.98351" lon="6.03449">
        <ele>2762.8000488281</ele>
        <time>2021-03-21T12:50:15.000Z</time>
      </trkpt>
      <trkpt lat="44.98351" lon="6.03449">
        <ele>2762.8000488281</ele>
        <time>2021-03-21T12:50:16.000Z</time>
      </trkpt>
      <trkpt lat="44.98351" lon="6.03449">
        <ele>2762.8000488281</ele>
        <time>2021-03-21T12:50:17.000Z</time>
      </trkpt>
      <trkpt lat="44.98351" lon="6.03449">
        <ele>2762.8000488281</ele>
        <time>2021-03-21T12:50:18.000Z</time>
      </trkpt>
      <trkpt lat="44.98351" lon="6.03449">
        <ele>2762.8000488281</ele>
        <time>2021-03-21T12:50:19.000Z</time>
      </trkpt>
      <trkpt lat="44.98351" lon="6.03449">
        <ele>2762.8000488281</ele>
        <time>2021-03-21T12:50:20.000Z</time>
      </trkpt>
      <trkpt lat="44.98351" lon="6.03449">
        <ele>2762.8000488281</ele>
        <time>2021-03-21T12:50:21.000Z</time>
      </trkpt>
      <trkpt lat="44.98351" lon="6.03449">
        <ele>2762.8000488281</ele>
        <time>2021-03-21T12:50:22.000Z</time>
      </trkpt>
      <trkpt lat="44.98351" lon="6.03449">
        <ele>2762.8000488281</ele>
        <time>2021-03-21T12:50:23.000Z</time>
      </trkpt>
      <trkpt lat="44.98351" lon="6.03449">
        <ele>2762.6000976562</ele>
        <time>2021-03-21T12:50:24.000Z</time>
      </trkpt>
      <trkpt lat="44.98351" lon="6.03449">
        <ele>2762.8000488281</ele>
        <time>2021-03-21T12:50:25.000Z</time>
      </trkpt>
      <trkpt lat="44.98351" lon="6.03449">
        <ele>2762.6000976562</ele>
        <time>2021-03-21T12:50:26.000Z</time>
      </trkpt>
      <trkpt lat="44.98351" lon="6.03449">
        <ele>2762.8000488281</ele>
        <time>2021-03-21T12:50:27.000Z</time>
      </trkpt>
      <trkpt lat="44.98351" lon="6.03449">
        <ele>2762.8000488281</ele>
        <time>2021-03-21T12:50:28.000Z</time>
      </trkpt>
      <trkpt lat="44.98351" lon="6.03448">
        <ele>2762.8000488281</ele>
        <time>2021-03-21T12:50:29.000Z</time>
      </trkpt>
      <trkpt lat="44.98351" lon="6.03448">
        <ele>2762.8000488281</ele>
        <time>2021-03-21T12:50:30.000Z</time>
      </trkpt>
      <trkpt lat="44.98351" lon="6.03448">
        <ele>2763</ele>
        <time>2021-03-21T12:50:31.000Z</time>
      </trkpt>
      <trkpt lat="44.9835" lon="6.03448">
        <ele>2763</ele>
        <time>2021-03-21T12:50:32.000Z</time>
      </trkpt>
      <trkpt lat="44.98351" lon="6.03448">
        <ele>2762.8000488281</ele>
        <time>2021-03-21T12:50:33.000Z</time>
      </trkpt>
      <trkpt lat="44.98351" lon="6.03449">
        <ele>2763</ele>
        <time>2021-03-21T12:50:34.000Z</time>
      </trkpt>
      <trkpt lat="44.98351" lon="6.03448">
        <ele>2762.8000488281</ele>
        <time>2021-03-21T12:50:35.000Z</time>
      </trkpt>
      <trkpt lat="44.98351" lon="6.03448">
        <ele>2762.8000488281</ele>
        <time>2021-03-21T12:50:36.000Z</time>
      </trkpt>
      <trkpt lat="44.98351" lon="6.03449">
        <ele>2762.8000488281</ele>
        <time>2021-03-21T12:50:37.000Z</time>
      </trkpt>
      <trkpt lat="44.9835" lon="6.03449">
        <ele>2763</ele>
        <time>2021-03-21T12:50:38.000Z</time>
      </trkpt>
      <trkpt lat="44.9835" lon="6.03449">
        <ele>2763</ele>
        <time>2021-03-21T12:50:39.000Z</time>
      </trkpt>
      <trkpt lat="44.9835" lon="6.03449">
        <ele>2763.1999511719</ele>
        <time>2021-03-21T12:50:40.000Z</time>
      </trkpt>
      <trkpt lat="44.9835" lon="6.03449">
        <ele>2763.1999511719</ele>
        <time>2021-03-21T12:50:41.000Z</time>
      </trkpt>
      <trkpt lat="44.9835" lon="6.03449">
        <ele>2763.3999023438</ele>
        <time>2021-03-21T12:50:42.000Z</time>
      </trkpt>
      <trkpt lat="44.9835" lon="6.03449">
        <ele>2763.3999023438</ele>
        <time>2021-03-21T12:50:43.000Z</time>
      </trkpt>
      <trkpt lat="44.9835" lon="6.03449">
        <ele>2763.3999023438</ele>
        <time>2021-03-21T12:50:44.000Z</time>
      </trkpt>
      <trkpt lat="44.9835" lon="6.03449">
        <ele>2763.1999511719</ele>
        <time>2021-03-21T12:50:45.000Z</time>
      </trkpt>
      <trkpt lat="44.9835" lon="6.03449">
        <ele>2763.1999511719</ele>
        <time>2021-03-21T12:50:46.000Z</time>
      </trkpt>
      <trkpt lat="44.9835" lon="6.03449">
        <ele>2763.1999511719</ele>
        <time>2021-03-21T12:50:47.000Z</time>
      </trkpt>
      <trkpt lat="44.98351" lon="6.03449">
        <ele>2762.8000488281</ele>
        <time>2021-03-21T12:50:48.000Z</time>
      </trkpt>
      <trkpt lat="44.98351" lon="6.0345">
        <ele>2762.3999023438</ele>
        <time>2021-03-21T12:50:49.000Z</time>
      </trkpt>
      <trkpt lat="44.98353" lon="6.03451">
        <ele>2761.1999511719</ele>
        <time>2021-03-21T12:50:50.000Z</time>
      </trkpt>
      <trkpt lat="44.98356" lon="6.03453">
        <ele>2759.6000976562</ele>
        <time>2021-03-21T12:50:51.000Z</time>
      </trkpt>
      <trkpt lat="44.98358" lon="6.03457">
        <ele>2757.6000976562</ele>
        <time>2021-03-21T12:50:52.000Z</time>
      </trkpt>
      <trkpt lat="44.98361" lon="6.03459">
        <ele>2755.8000488281</ele>
        <time>2021-03-21T12:50:53.000Z</time>
      </trkpt>
      <trkpt lat="44.98365" lon="6.03458">
        <ele>2753</ele>
        <time>2021-03-21T12:50:54.000Z</time>
      </trkpt>
      <trkpt lat="44.9837" lon="6.03458">
        <ele>2749.8000488281</ele>
        <time>2021-03-21T12:50:55.000Z</time>
      </trkpt>
      <trkpt lat="44.98377" lon="6.03458">
        <ele>2745.8000488281</ele>
        <time>2021-03-21T12:50:56.000Z</time>
      </trkpt>
      <trkpt lat="44.98382" lon="6.03461">
        <ele>2743.6000976562</ele>
        <time>2021-03-21T12:50:57.000Z</time>
      </trkpt>
      <trkpt lat="44.98386" lon="6.03466">
        <ele>2742</ele>
        <time>2021-03-21T12:50:58.000Z</time>
      </trkpt>
      <trkpt lat="44.98391" lon="6.03468">
        <ele>2739.8000488281</ele>
        <time>2021-03-21T12:50:59.000Z</time>
      </trkpt>
      <trkpt lat="44.98396" lon="6.03471">
        <ele>2737.8000488281</ele>
        <time>2021-03-21T12:51:00.000Z</time>
      </trkpt>
      <trkpt lat="44.984" lon="6.03477">
        <ele>2736.1999511719</ele>
        <time>2021-03-21T12:51:01.000Z</time>
      </trkpt>
      <trkpt lat="44.98406" lon="6.03479">
        <ele>2733.3999023438</ele>
        <time>2021-03-21T12:51:02.000Z</time>
      </trkpt>
      <trkpt lat="44.98412" lon="6.03483">
        <ele>2730.1999511719</ele>
        <time>2021-03-21T12:51:03.000Z</time>
      </trkpt>
      <trkpt lat="44.98417" lon="6.03487">
        <ele>2727.6000976562</ele>
        <time>2021-03-21T12:51:04.000Z</time>
      </trkpt>
      <trkpt lat="44.98423" lon="6.03492">
        <ele>2725.3999023438</ele>
        <time>2021-03-21T12:51:05.000Z</time>
      </trkpt>
      <trkpt lat="44.98427" lon="6.035">
        <ele>2724</ele>
        <time>2021-03-21T12:51:06.000Z</time>
      </trkpt>
      <trkpt lat="44.98432" lon="6.03506">
        <ele>2722.3999023438</ele>
        <time>2021-03-21T12:51:07.000Z</time>
      </trkpt>
      <trkpt lat="44.98438" lon="6.03513">
        <ele>2721</ele>
        <time>2021-03-21T12:51:08.000Z</time>
      </trkpt>
      <trkpt lat="44.98444" lon="6.0352">
        <ele>2718</ele>
        <time>2021-03-21T12:51:09.000Z</time>
      </trkpt>
      <trkpt lat="44.98451" lon="6.03526">
        <ele>2714</ele>
        <time>2021-03-21T12:51:10.000Z</time>
      </trkpt>
      <trkpt lat="44.9846" lon="6.03529">
        <ele>2709.1999511719</ele>
        <time>2021-03-21T12:51:11.000Z</time>
      </trkpt>
      <trkpt lat="44.98469" lon="6.03532">
        <ele>2703</ele>
        <time>2021-03-21T12:51:12.000Z</time>
      </trkpt>
      <trkpt lat="44.98477" lon="6.03535">
        <ele>2697.3999023438</ele>
        <time>2021-03-21T12:51:13.000Z</time>
      </trkpt>
      <trkpt lat="44.98485" lon="6.03538">
        <ele>2691.1999511719</ele>
        <time>2021-03-21T12:51:14.000Z</time>
      </trkpt>
      <trkpt lat="44.98491" lon="6.03541">
        <ele>2687.8000488281</ele>
        <time>2021-03-21T12:51:15.000Z</time>
      </trkpt>
      <trkpt lat="44.98496" lon="6.03544">
        <ele>2686</ele>
        <time>2021-03-21T12:51:16.000Z</time>
      </trkpt>
      <trkpt lat="44.98499" lon="6.03546">
        <ele>2685</ele>
        <time>2021-03-21T12:51:17.000Z</time>
      </trkpt>
      <trkpt lat="44.98502" lon="6.03548">
        <ele>2684.1999511719</ele>
        <time>2021-03-21T12:51:18.000Z</time>
      </trkpt>
      <trkpt lat="44.98504" lon="6.03549">
        <ele>2683.3999023438</ele>
        <time>2021-03-21T12:51:19.000Z</time>
      </trkpt>
      <trkpt lat="44.98507" lon="6.03551">
        <ele>2682.6000976562</ele>
        <time>2021-03-21T12:51:20.000Z</time>
      </trkpt>
      <trkpt lat="44.9851" lon="6.03553">
        <ele>2681.8000488281</ele>
        <time>2021-03-21T12:51:21.000Z</time>
      </trkpt>
      <trkpt lat="44.98513" lon="6.03556">
        <ele>2681.1999511719</ele>
        <time>2021-03-21T12:51:22.000Z</time>
      </trkpt>
      <trkpt lat="44.98516" lon="6.0356">
        <ele>2681</ele>
        <time>2021-03-21T12:51:23.000Z</time>
      </trkpt>
      <trkpt lat="44.98519" lon="6.03564">
        <ele>2681.1999511719</ele>
        <time>2021-03-21T12:51:24.000Z</time>
      </trkpt>
      <trkpt lat="44.98522" lon="6.03569">
        <ele>2681.6000976562</ele>
        <time>2021-03-21T12:51:25.000Z</time>
      </trkpt>
      <trkpt lat="44.98523" lon="6.03572">
        <ele>2682.1999511719</ele>
        <time>2021-03-21T12:51:26.000Z</time>
      </trkpt>
      <trkpt lat="44.98524" lon="6.03574">
        <ele>2682.3999023438</ele>
        <time>2021-03-21T12:51:27.000Z</time>
      </trkpt>
      <trkpt lat="44.98524" lon="6.03575">
        <ele>2682.3999023438</ele>
        <time>2021-03-21T12:51:28.000Z</time>
      </trkpt>
      <trkpt lat="44.98524" lon="6.03574">
        <ele>2682</ele>
        <time>2021-03-21T12:51:29.000Z</time>
      </trkpt>
      <trkpt lat="44.98525" lon="6.03573">
        <ele>2681.8000488281</ele>
        <time>2021-03-21T12:51:30.000Z</time>
      </trkpt>
      <trkpt lat="44.98525" lon="6.03573">
        <ele>2681.8000488281</ele>
        <time>2021-03-21T12:51:31.000Z</time>
      </trkpt>
      <trkpt lat="44.98525" lon="6.03573">
        <ele>2681.6000976562</ele>
        <time>2021-03-21T12:51:32.000Z</time>
      </trkpt>
      <trkpt lat="44.98524" lon="6.03572">
        <ele>2681.8000488281</ele>
        <time>2021-03-21T12:51:33.000Z</time>
      </trkpt>
      <trkpt lat="44.98524" lon="6.03572">
        <ele>2681.8000488281</ele>
        <time>2021-03-21T12:51:34.000Z</time>
      </trkpt>
      <trkpt lat="44.98524" lon="6.03572">
        <ele>2681.8000488281</ele>
        <time>2021-03-21T12:51:35.000Z</time>
      </trkpt>
      <trkpt lat="44.98524" lon="6.03572">
        <ele>2681.8000488281</ele>
        <time>2021-03-21T12:51:36.000Z</time>
      </trkpt>
      <trkpt lat="44.98524" lon="6.03572">
        <ele>2681.8000488281</ele>
        <time>2021-03-21T12:51:37.000Z</time>
      </trkpt>
      <trkpt lat="44.98523" lon="6.03572">
        <ele>2682</ele>
        <time>2021-03-21T12:51:38.000Z</time>
      </trkpt>
      <trkpt lat="44.98523" lon="6.03571">
        <ele>2682</ele>
        <time>2021-03-21T12:51:39.000Z</time>
      </trkpt>
      <trkpt lat="44.98523" lon="6.03572">
        <ele>2682.1999511719</ele>
        <time>2021-03-21T12:51:40.000Z</time>
      </trkpt>
      <trkpt lat="44.98523" lon="6.03572">
        <ele>2682.1999511719</ele>
        <time>2021-03-21T12:51:41.000Z</time>
      </trkpt>
      <trkpt lat="44.98523" lon="6.03572">
        <ele>2682.3999023438</ele>
        <time>2021-03-21T12:51:42.000Z</time>
      </trkpt>
      <trkpt lat="44.98522" lon="6.03572">
        <ele>2682.3999023438</ele>
        <time>2021-03-21T12:51:43.000Z</time>
      </trkpt>
      <trkpt lat="44.98522" lon="6.03572">
        <ele>2682.3999023438</ele>
        <time>2021-03-21T12:51:44.000Z</time>
      </trkpt>
      <trkpt lat="44.98522" lon="6.03572">
        <ele>2682.3999023438</ele>
        <time>2021-03-21T12:51:45.000Z</time>
      </trkpt>
      <trkpt lat="44.98522" lon="6.03572">
        <ele>2682.3999023438</ele>
        <time>2021-03-21T12:51:46.000Z</time>
      </trkpt>
      <trkpt lat="44.98522" lon="6.03571">
        <ele>2682.3999023438</ele>
        <time>2021-03-21T12:51:47.000Z</time>
      </trkpt>
      <trkpt lat="44.98522" lon="6.03571">
        <ele>2682.3999023438</ele>
        <time>2021-03-21T12:51:48.000Z</time>
      </trkpt>
      <trkpt lat="44.98523" lon="6.03571">
        <ele>2682.1999511719</ele>
        <time>2021-03-21T12:51:49.000Z</time>
      </trkpt>
      <trkpt lat="44.98523" lon="6.03573">
        <ele>2682.3999023438</ele>
        <time>2021-03-21T12:51:50.000Z</time>
      </trkpt>
      <trkpt lat="44.98523" lon="6.03574">
        <ele>2682.6000976562</ele>
        <time>2021-03-21T12:51:51.000Z</time>
      </trkpt>
      <trkpt lat="44.98524" lon="6.03575">
        <ele>2682.6000976562</ele>
        <time>2021-03-21T12:51:52.000Z</time>
      </trkpt>
      <trkpt lat="44.98525" lon="6.03578">
        <ele>2682.6000976562</ele>
        <time>2021-03-21T12:51:53.000Z</time>
      </trkpt>
      <trkpt lat="44.98526" lon="6.03581">
        <ele>2682.6000976562</ele>
        <time>2021-03-21T12:51:54.000Z</time>
      </trkpt>
      <trkpt lat="44.98528" lon="6.03584">
        <ele>2682.8000488281</ele>
        <time>2021-03-21T12:51:55.000Z</time>
      </trkpt>
      <trkpt lat="44.98529" lon="6.03587">
        <ele>2683.1999511719</ele>
        <time>2021-03-21T12:51:56.000Z</time>
      </trkpt>
      <trkpt lat="44.9853" lon="6.0359">
        <ele>2683.6000976562</ele>
        <time>2021-03-21T12:51:57.000Z</time>
      </trkpt>
      <trkpt lat="44.98531" lon="6.03593">
        <ele>2684.1999511719</ele>
        <time>2021-03-21T12:51:58.000Z</time>
      </trkpt>
      <trkpt lat="44.98532" lon="6.03596">
        <ele>2684.8000488281</ele>
        <time>2021-03-21T12:51:59.000Z</time>
      </trkpt>
      <trkpt lat="44.98534" lon="6.03601">
        <ele>2685.3999023438</ele>
        <time>2021-03-21T12:52:00.000Z</time>
      </trkpt>
      <trkpt lat="44.98536" lon="6.03606">
        <ele>2686</ele>
        <time>2021-03-21T12:52:01.000Z</time>
      </trkpt>
      <trkpt lat="44.98539" lon="6.03611">
        <ele>2686.1999511719</ele>
        <time>2021-03-21T12:52:02.000Z</time>
      </trkpt>
      <trkpt lat="44.98543" lon="6.03617">
        <ele>2685.6000976562</ele>
        <time>2021-03-21T12:52:03.000Z</time>
      </trkpt>
      <trkpt lat="44.98547" lon="6.03622">
        <ele>2684.3999023438</ele>
        <time>2021-03-21T12:52:04.000Z</time>
      </trkpt>
      <trkpt lat="44.98551" lon="6.03626">
        <ele>2682.8000488281</ele>
        <time>2021-03-21T12:52:05.000Z</time>
      </trkpt>
      <trkpt lat="44.98555" lon="6.03628">
        <ele>2681.1999511719</ele>
        <time>2021-03-21T12:52:06.000Z</time>
      </trkpt>
      <trkpt lat="44.98558" lon="6.0363">
        <ele>2679.6000976562</ele>
        <time>2021-03-21T12:52:07.000Z</time>
      </trkpt>
      <trkpt lat="44.98562" lon="6.03633">
        <ele>2677.8000488281</ele>
        <time>2021-03-21T12:52:08.000Z</time>
      </trkpt>
      <trkpt lat="44.98565" lon="6.03636">
        <ele>2676.1999511719</ele>
        <time>2021-03-21T12:52:09.000Z</time>
      </trkpt>
      <trkpt lat="44.98569" lon="6.0364">
        <ele>2674.6000976562</ele>
        <time>2021-03-21T12:52:10.000Z</time>
      </trkpt>
      <trkpt lat="44.98572" lon="6.03643">
        <ele>2674</ele>
        <time>2021-03-21T12:52:11.000Z</time>
      </trkpt>
      <trkpt lat="44.98575" lon="6.03646">
        <ele>2673.3999023438</ele>
        <time>2021-03-21T12:52:12.000Z</time>
      </trkpt>
      <trkpt lat="44.98577" lon="6.03649">
        <ele>2672.8000488281</ele>
        <time>2021-03-21T12:52:13.000Z</time>
      </trkpt>
      <trkpt lat="44.98579" lon="6.03651">
        <ele>2672.6000976562</ele>
        <time>2021-03-21T12:52:14.000Z</time>
      </trkpt>
      <trkpt lat="44.98581" lon="6.03653">
        <ele>2672</ele>
        <time>2021-03-21T12:52:15.000Z</time>
      </trkpt>
      <trkpt lat="44.98584" lon="6.03655">
        <ele>2671.3999023438</ele>
        <time>2021-03-21T12:52:16.000Z</time>
      </trkpt>
      <trkpt lat="44.98586" lon="6.03656">
        <ele>2670.3999023438</ele>
        <time>2021-03-21T12:52:17.000Z</time>
      </trkpt>
      <trkpt lat="44.98589" lon="6.03658">
        <ele>2669.3999023438</ele>
        <time>2021-03-21T12:52:18.000Z</time>
      </trkpt>
      <trkpt lat="44.98592" lon="6.03661">
        <ele>2668.3999023438</ele>
        <time>2021-03-21T12:52:19.000Z</time>
      </trkpt>
      <trkpt lat="44.98595" lon="6.03665">
        <ele>2667.6000976562</ele>
        <time>2021-03-21T12:52:20.000Z</time>
      </trkpt>
      <trkpt lat="44.98598" lon="6.0367">
        <ele>2666.8000488281</ele>
        <time>2021-03-21T12:52:21.000Z</time>
      </trkpt>
      <trkpt lat="44.986" lon="6.03675">
        <ele>2666.6000976562</ele>
        <time>2021-03-21T12:52:22.000Z</time>
      </trkpt>
      <trkpt lat="44.98602" lon="6.03681">
        <ele>2666.8000488281</ele>
        <time>2021-03-21T12:52:23.000Z</time>
      </trkpt>
      <trkpt lat="44.98603" lon="6.03686">
        <ele>2667.1999511719</ele>
        <time>2021-03-21T12:52:24.000Z</time>
      </trkpt>
      <trkpt lat="44.98603" lon="6.03692">
        <ele>2667.6000976562</ele>
        <time>2021-03-21T12:52:25.000Z</time>
      </trkpt>
      <trkpt lat="44.98604" lon="6.03697">
        <ele>2668</ele>
        <time>2021-03-21T12:52:26.000Z</time>
      </trkpt>
      <trkpt lat="44.98604" lon="6.03703">
        <ele>2668.3999023438</ele>
        <time>2021-03-21T12:52:27.000Z</time>
      </trkpt>
      <trkpt lat="44.98605" lon="6.03708">
        <ele>2668.3999023438</ele>
        <time>2021-03-21T12:52:28.000Z</time>
      </trkpt>
      <trkpt lat="44.98607" lon="6.03712">
        <ele>2668.1999511719</ele>
        <time>2021-03-21T12:52:29.000Z</time>
      </trkpt>
      <trkpt lat="44.98611" lon="6.03715">
        <ele>2667.3999023438</ele>
        <time>2021-03-21T12:52:30.000Z</time>
      </trkpt>
      <trkpt lat="44.98616" lon="6.0372">
        <ele>2666.6000976562</ele>
        <time>2021-03-21T12:52:31.000Z</time>
      </trkpt>
      <trkpt lat="44.98619" lon="6.03725">
        <ele>2666.1999511719</ele>
        <time>2021-03-21T12:52:32.000Z</time>
      </trkpt>
      <trkpt lat="44.98623" lon="6.0373">
        <ele>2665.6000976562</ele>
        <time>2021-03-21T12:52:33.000Z</time>
      </trkpt>
      <trkpt lat="44.98628" lon="6.03733">
        <ele>2663.8000488281</ele>
        <time>2021-03-21T12:52:34.000Z</time>
      </trkpt>
      <trkpt lat="44.98633" lon="6.03737">
        <ele>2662.1999511719</ele>
        <time>2021-03-21T12:52:35.000Z</time>
      </trkpt>
      <trkpt lat="44.98638" lon="6.03742">
        <ele>2660.1999511719</ele>
        <time>2021-03-21T12:52:36.000Z</time>
      </trkpt>
      <trkpt lat="44.98643" lon="6.03745">
        <ele>2658</ele>
        <time>2021-03-21T12:52:37.000Z</time>
      </trkpt>
      <trkpt lat="44.98649" lon="6.0375">
        <ele>2656.1999511719</ele>
        <time>2021-03-21T12:52:38.000Z</time>
      </trkpt>
      <trkpt lat="44.98652" lon="6.03756">
        <ele>2655.1999511719</ele>
        <time>2021-03-21T12:52:39.000Z</time>
      </trkpt>
      <trkpt lat="44.98654" lon="6.0376">
        <ele>2654.6000976562</ele>
        <time>2021-03-21T12:52:40.000Z</time>
      </trkpt>
      <trkpt lat="44.98656" lon="6.03762">
        <ele>2654</ele>
        <time>2021-03-21T12:52:41.000Z</time>
      </trkpt>
      <trkpt lat="44.98658" lon="6.03765">
        <ele>2653.3999023438</ele>
        <time>2021-03-21T12:52:42.000Z</time>
      </trkpt>
      <trkpt lat="44.98661" lon="6.03768">
        <ele>2653</ele>
        <time>2021-03-21T12:52:43.000Z</time>
      </trkpt>
      <trkpt lat="44.98663" lon="6.03771">
        <ele>2652.3999023438</ele>
        <time>2021-03-21T12:52:44.000Z</time>
      </trkpt>
      <trkpt lat="44.98666" lon="6.03775">
        <ele>2652.1999511719</ele>
        <time>2021-03-21T12:52:45.000Z</time>
      </trkpt>
      <trkpt lat="44.98668" lon="6.0378">
        <ele>2651.8000488281</ele>
        <time>2021-03-21T12:52:46.000Z</time>
      </trkpt>
      <trkpt lat="44.98671" lon="6.03785">
        <ele>2651.6000976562</ele>
        <time>2021-03-21T12:52:47.000Z</time>
      </trkpt>
      <trkpt lat="44.98674" lon="6.03787">
        <ele>2650.3999023438</ele>
        <time>2021-03-21T12:52:48.000Z</time>
      </trkpt>
      <trkpt lat="44.98678" lon="6.03785">
        <ele>2648.6000976562</ele>
        <time>2021-03-21T12:52:49.000Z</time>
      </trkpt>
      <trkpt lat="44.98683" lon="6.03784">
        <ele>2645.8000488281</ele>
        <time>2021-03-21T12:52:50.000Z</time>
      </trkpt>
      <trkpt lat="44.9869" lon="6.03782">
        <ele>2642</ele>
        <time>2021-03-21T12:52:51.000Z</time>
      </trkpt>
      <trkpt lat="44.98697" lon="6.03779">
        <ele>2637.8000488281</ele>
        <time>2021-03-21T12:52:52.000Z</time>
      </trkpt>
      <trkpt lat="44.98704" lon="6.03777">
        <ele>2633.6000976562</ele>
        <time>2021-03-21T12:52:53.000Z</time>
      </trkpt>
      <trkpt lat="44.98712" lon="6.03775">
        <ele>2629.6000976562</ele>
        <time>2021-03-21T12:52:54.000Z</time>
      </trkpt>
      <trkpt lat="44.98719" lon="6.03774">
        <ele>2626.3999023438</ele>
        <time>2021-03-21T12:52:55.000Z</time>
      </trkpt>
      <trkpt lat="44.98725" lon="6.03776">
        <ele>2623.8000488281</ele>
        <time>2021-03-21T12:52:56.000Z</time>
      </trkpt>
      <trkpt lat="44.9873" lon="6.03781">
        <ele>2622.1999511719</ele>
        <time>2021-03-21T12:52:57.000Z</time>
      </trkpt>
      <trkpt lat="44.98734" lon="6.03787">
        <ele>2621.6000976562</ele>
        <time>2021-03-21T12:52:58.000Z</time>
      </trkpt>
      <trkpt lat="44.98738" lon="6.03794">
        <ele>2620.6000976562</ele>
        <time>2021-03-21T12:52:59.000Z</time>
      </trkpt>
      <trkpt lat="44.98742" lon="6.03801">
        <ele>2619</ele>
        <time>2021-03-21T12:53:00.000Z</time>
      </trkpt>
      <trkpt lat="44.98747" lon="6.03808">
        <ele>2617.1999511719</ele>
        <time>2021-03-21T12:53:01.000Z</time>
      </trkpt>
      <trkpt lat="44.98752" lon="6.03816">
        <ele>2615.1999511719</ele>
        <time>2021-03-21T12:53:02.000Z</time>
      </trkpt>
      <trkpt lat="44.98757" lon="6.03825">
        <ele>2613.8000488281</ele>
        <time>2021-03-21T12:53:03.000Z</time>
      </trkpt>
      <trkpt lat="44.98762" lon="6.03833">
        <ele>2612.8000488281</ele>
        <time>2021-03-21T12:53:04.000Z</time>
      </trkpt>
      <trkpt lat="44.98766" lon="6.0384">
        <ele>2612</ele>
        <time>2021-03-21T12:53:05.000Z</time>
      </trkpt>
      <trkpt lat="44.98769" lon="6.03844">
        <ele>2611.6000976562</ele>
        <time>2021-03-21T12:53:06.000Z</time>
      </trkpt>
      <trkpt lat="44.98772" lon="6.03847">
        <ele>2611</ele>
        <time>2021-03-21T12:53:07.000Z</time>
      </trkpt>
      <trkpt lat="44.98775" lon="6.0385">
        <ele>2610.6000976562</ele>
        <time>2021-03-21T12:53:08.000Z</time>
      </trkpt>
      <trkpt lat="44.98777" lon="6.03852">
        <ele>2610</ele>
        <time>2021-03-21T12:53:09.000Z</time>
      </trkpt>
      <trkpt lat="44.9878" lon="6.03854">
        <ele>2609.3999023438</ele>
        <time>2021-03-21T12:53:10.000Z</time>
      </trkpt>
      <trkpt lat="44.98783" lon="6.03855">
        <ele>2608.1999511719</ele>
        <time>2021-03-21T12:53:11.000Z</time>
      </trkpt>
      <trkpt lat="44.98785" lon="6.03852">
        <ele>2606.8000488281</ele>
        <time>2021-03-21T12:53:12.000Z</time>
      </trkpt>
      <trkpt lat="44.98784" lon="6.03848">
        <ele>2606</ele>
        <time>2021-03-21T12:53:13.000Z</time>
      </trkpt>
      <trkpt lat="44.98784" lon="6.03846">
        <ele>2605.6000976562</ele>
        <time>2021-03-21T12:53:14.000Z</time>
      </trkpt>
      <trkpt lat="44.98784" lon="6.03845">
        <ele>2605.6000976562</ele>
        <time>2021-03-21T12:53:15.000Z</time>
      </trkpt>
      <trkpt lat="44.98784" lon="6.03845">
        <ele>2605.8000488281</ele>
        <time>2021-03-21T12:53:16.000Z</time>
      </trkpt>
      <trkpt lat="44.98784" lon="6.03845">
        <ele>2605.6000976562</ele>
        <time>2021-03-21T12:53:17.000Z</time>
      </trkpt>
      <trkpt lat="44.98784" lon="6.03845">
        <ele>2605.3999023438</ele>
        <time>2021-03-21T12:53:18.000Z</time>
      </trkpt>
      <trkpt lat="44.98784" lon="6.03845">
        <ele>2605.1999511719</ele>
        <time>2021-03-21T12:53:19.000Z</time>
      </trkpt>
      <trkpt lat="44.98784" lon="6.03845">
        <ele>2605.3999023438</ele>
        <time>2021-03-21T12:53:20.000Z</time>
      </trkpt>
      <trkpt lat="44.98784" lon="6.03845">
        <ele>2605.3999023438</ele>
        <time>2021-03-21T12:53:21.000Z</time>
      </trkpt>
      <trkpt lat="44.98784" lon="6.03845">
        <ele>2605.3999023438</ele>
        <time>2021-03-21T12:53:22.000Z</time>
      </trkpt>
      <trkpt lat="44.98784" lon="6.03844">
        <ele>2605.3999023438</ele>
        <time>2021-03-21T12:53:23.000Z</time>
      </trkpt>
      <trkpt lat="44.98784" lon="6.03844">
        <ele>2605.3999023438</ele>
        <time>2021-03-21T12:53:24.000Z</time>
      </trkpt>
      <trkpt lat="44.98784" lon="6.03844">
        <ele>2605.3999023438</ele>
        <time>2021-03-21T12:53:25.000Z</time>
      </trkpt>
      <trkpt lat="44.98783" lon="6.03844">
        <ele>2605.3999023438</ele>
        <time>2021-03-21T12:53:26.000Z</time>
      </trkpt>
      <trkpt lat="44.98783" lon="6.03844">
        <ele>2605.6000976562</ele>
        <time>2021-03-21T12:53:27.000Z</time>
      </trkpt>
      <trkpt lat="44.98783" lon="6.03844">
        <ele>2605.8000488281</ele>
        <time>2021-03-21T12:53:28.000Z</time>
      </trkpt>
      <trkpt lat="44.98783" lon="6.03844">
        <ele>2605.8000488281</ele>
        <time>2021-03-21T12:53:29.000Z</time>
      </trkpt>
      <trkpt lat="44.98783" lon="6.03844">
        <ele>2605.8000488281</ele>
        <time>2021-03-21T12:53:30.000Z</time>
      </trkpt>
      <trkpt lat="44.98782" lon="6.03844">
        <ele>2606</ele>
        <time>2021-03-21T12:53:31.000Z</time>
      </trkpt>
      <trkpt lat="44.98782" lon="6.03844">
        <ele>2606.1999511719</ele>
        <time>2021-03-21T12:53:32.000Z</time>
      </trkpt>
      <trkpt lat="44.98782" lon="6.03844">
        <ele>2606.1999511719</ele>
        <time>2021-03-21T12:53:33.000Z</time>
      </trkpt>
      <trkpt lat="44.98782" lon="6.03845">
        <ele>2606.3999023438</ele>
        <time>2021-03-21T12:53:34.000Z</time>
      </trkpt>
      <trkpt lat="44.98782" lon="6.03845">
        <ele>2606.3999023438</ele>
        <time>2021-03-21T12:53:35.000Z</time>
      </trkpt>
      <trkpt lat="44.98781" lon="6.03845">
        <ele>2606.6000976562</ele>
        <time>2021-03-21T12:53:36.000Z</time>
      </trkpt>
      <trkpt lat="44.98781" lon="6.03845">
        <ele>2606.6000976562</ele>
        <time>2021-03-21T12:53:37.000Z</time>
      </trkpt>
      <trkpt lat="44.98781" lon="6.03845">
        <ele>2606.6000976562</ele>
        <time>2021-03-21T12:53:38.000Z</time>
      </trkpt>
      <trkpt lat="44.98781" lon="6.03845">
        <ele>2606.6000976562</ele>
        <time>2021-03-21T12:53:39.000Z</time>
      </trkpt>
      <trkpt lat="44.98781" lon="6.03845">
        <ele>2606.6000976562</ele>
        <time>2021-03-21T12:53:40.000Z</time>
      </trkpt>
      <trkpt lat="44.98782" lon="6.03844">
        <ele>2606.3999023438</ele>
        <time>2021-03-21T12:53:41.000Z</time>
      </trkpt>
      <trkpt lat="44.98781" lon="6.03844">
        <ele>2606.3999023438</ele>
        <time>2021-03-21T12:53:42.000Z</time>
      </trkpt>
      <trkpt lat="44.98781" lon="6.03844">
        <ele>2606.3999023438</ele>
        <time>2021-03-21T12:53:43.000Z</time>
      </trkpt>
      <trkpt lat="44.98781" lon="6.03844">
        <ele>2606.3999023438</ele>
        <time>2021-03-21T12:53:44.000Z</time>
      </trkpt>
      <trkpt lat="44.98782" lon="6.03844">
        <ele>2606.3999023438</ele>
        <time>2021-03-21T12:53:45.000Z</time>
      </trkpt>
      <trkpt lat="44.98781" lon="6.03844">
        <ele>2606.1999511719</ele>
        <time>2021-03-21T12:53:46.000Z</time>
      </trkpt>
      <trkpt lat="44.98781" lon="6.03843">
        <ele>2606.3999023438</ele>
        <time>2021-03-21T12:53:47.000Z</time>
      </trkpt>
      <trkpt lat="44.98781" lon="6.03843">
        <ele>2606.1999511719</ele>
        <time>2021-03-21T12:53:48.000Z</time>
      </trkpt>
      <trkpt lat="44.98781" lon="6.03842">
        <ele>2606</ele>
        <time>2021-03-21T12:53:49.000Z</time>
      </trkpt>
      <trkpt lat="44.98783" lon="6.03839">
        <ele>2604.3999023438</ele>
        <time>2021-03-21T12:53:50.000Z</time>
      </trkpt>
      <trkpt lat="44.98788" lon="6.03837">
        <ele>2601.8000488281</ele>
        <time>2021-03-21T12:53:51.000Z</time>
      </trkpt>
      <trkpt lat="44.98794" lon="6.03836">
        <ele>2599.6000976562</ele>
        <time>2021-03-21T12:53:52.000Z</time>
      </trkpt>
      <trkpt lat="44.98798" lon="6.03831">
        <ele>2597.6000976562</ele>
        <time>2021-03-21T12:53:53.000Z</time>
      </trkpt>
      <trkpt lat="44.98803" lon="6.03824">
        <ele>2594.3999023438</ele>
        <time>2021-03-21T12:53:54.000Z</time>
      </trkpt>
      <trkpt lat="44.98809" lon="6.03821">
        <ele>2591.3999023438</ele>
        <time>2021-03-21T12:53:55.000Z</time>
      </trkpt>
      <trkpt lat="44.98816" lon="6.03824">
        <ele>2590</ele>
        <time>2021-03-21T12:53:56.000Z</time>
      </trkpt>
      <trkpt lat="44.98821" lon="6.03827">
        <ele>2589.3999023438</ele>
        <time>2021-03-21T12:53:57.000Z</time>
      </trkpt>
      <trkpt lat="44.98827" lon="6.03826">
        <ele>2587.6000976562</ele>
        <time>2021-03-21T12:53:58.000Z</time>
      </trkpt>
      <trkpt lat="44.98833" lon="6.03824">
        <ele>2584.8000488281</ele>
        <time>2021-03-21T12:53:59.000Z</time>
      </trkpt>
      <trkpt lat="44.9884" lon="6.03827">
        <ele>2583.6000976562</ele>
        <time>2021-03-21T12:54:00.000Z</time>
      </trkpt>
      <trkpt lat="44.98846" lon="6.03834">
        <ele>2583.8000488281</ele>
        <time>2021-03-21T12:54:01.000Z</time>
      </trkpt>
      <trkpt lat="44.98852" lon="6.03842">
        <ele>2582.3999023438</ele>
        <time>2021-03-21T12:54:02.000Z</time>
      </trkpt>
      <trkpt lat="44.98858" lon="6.03848">
        <ele>2579.3999023438</ele>
        <time>2021-03-21T12:54:03.000Z</time>
      </trkpt>
      <trkpt lat="44.98865" lon="6.03848">
        <ele>2573.6000976562</ele>
        <time>2021-03-21T12:54:04.000Z</time>
      </trkpt>
      <trkpt lat="44.98872" lon="6.03849">
        <ele>2567.6000976562</ele>
        <time>2021-03-21T12:54:06.000Z</time>
      </trkpt>
      <trkpt lat="44.98883" lon="6.03854">
        <ele>2559.6000976562</ele>
        <time>2021-03-21T12:54:08.000Z</time>
      </trkpt>
      <trkpt lat="44.98887" lon="6.03854">
        <ele>2556.1999511719</ele>
        <time>2021-03-21T12:54:09.000Z</time>
      </trkpt>
      <trkpt lat="44.98892" lon="6.03856">
        <ele>2553.3999023438</ele>
        <time>2021-03-21T12:54:10.000Z</time>
      </trkpt>
      <trkpt lat="44.98895" lon="6.03859">
        <ele>2551</ele>
        <time>2021-03-21T12:54:12.000Z</time>
      </trkpt>
      <trkpt lat="44.98896" lon="6.03859">
        <ele>2550.8000488281</ele>
        <time>2021-03-21T12:54:13.000Z</time>
      </trkpt>
      <trkpt lat="44.98896" lon="6.03858">
        <ele>2550.6000976562</ele>
        <time>2021-03-21T12:54:15.000Z</time>
      </trkpt>
      <trkpt lat="44.98896" lon="6.03858">
        <ele>2550.1999511719</ele>
        <time>2021-03-21T12:54:16.000Z</time>
      </trkpt>
      <trkpt lat="44.98896" lon="6.03858">
        <ele>2550.1999511719</ele>
        <time>2021-03-21T12:54:18.000Z</time>
      </trkpt>
      <trkpt lat="44.98896" lon="6.03857">
        <ele>2550.1999511719</ele>
        <time>2021-03-21T12:54:19.000Z</time>
      </trkpt>
      <trkpt lat="44.98896" lon="6.03857">
        <ele>2550.1999511719</ele>
        <time>2021-03-21T12:54:20.000Z</time>
      </trkpt>
      <trkpt lat="44.98895" lon="6.03857">
        <ele>2550.3999023438</ele>
        <time>2021-03-21T12:54:21.000Z</time>
      </trkpt>
      <trkpt lat="44.98895" lon="6.03857">
        <ele>2550.3999023438</ele>
        <time>2021-03-21T12:54:22.000Z</time>
      </trkpt>
      <trkpt lat="44.98895" lon="6.03857">
        <ele>2550.6000976562</ele>
        <time>2021-03-21T12:54:23.000Z</time>
      </trkpt>
      <trkpt lat="44.98895" lon="6.03857">
        <ele>2550.3999023438</ele>
        <time>2021-03-21T12:54:24.000Z</time>
      </trkpt>
      <trkpt lat="44.98895" lon="6.03857">
        <ele>2550.6000976562</ele>
        <time>2021-03-21T12:54:25.000Z</time>
      </trkpt>
      <trkpt lat="44.98894" lon="6.03856">
        <ele>2550.8000488281</ele>
        <time>2021-03-21T12:54:26.000Z</time>
      </trkpt>
      <trkpt lat="44.98894" lon="6.03856">
        <ele>2551</ele>
        <time>2021-03-21T12:54:27.000Z</time>
      </trkpt>
      <trkpt lat="44.98894" lon="6.03856">
        <ele>2551.3999023438</ele>
        <time>2021-03-21T12:54:28.000Z</time>
      </trkpt>
      <trkpt lat="44.98893" lon="6.03855">
        <ele>2551.6000976562</ele>
        <time>2021-03-21T12:54:29.000Z</time>
      </trkpt>
      <trkpt lat="44.98893" lon="6.03855">
        <ele>2551.6000976562</ele>
        <time>2021-03-21T12:54:30.000Z</time>
      </trkpt>
      <trkpt lat="44.98893" lon="6.03855">
        <ele>2551.6000976562</ele>
        <time>2021-03-21T12:54:31.000Z</time>
      </trkpt>
      <trkpt lat="44.98893" lon="6.03854">
        <ele>2551.6000976562</ele>
        <time>2021-03-21T12:54:32.000Z</time>
      </trkpt>
      <trkpt lat="44.98892" lon="6.03854">
        <ele>2551.8000488281</ele>
        <time>2021-03-21T12:54:33.000Z</time>
      </trkpt>
      <trkpt lat="44.98892" lon="6.03854">
        <ele>2552</ele>
        <time>2021-03-21T12:54:34.000Z</time>
      </trkpt>
      <trkpt lat="44.98892" lon="6.03854">
        <ele>2552</ele>
        <time>2021-03-21T12:54:35.000Z</time>
      </trkpt>
      <trkpt lat="44.98892" lon="6.03853">
        <ele>2552.1999511719</ele>
        <time>2021-03-21T12:54:36.000Z</time>
      </trkpt>
      <trkpt lat="44.98892" lon="6.03853">
        <ele>2552</ele>
        <time>2021-03-21T12:54:37.000Z</time>
      </trkpt>
      <trkpt lat="44.98892" lon="6.03853">
        <ele>2552</ele>
        <time>2021-03-21T12:54:38.000Z</time>
      </trkpt>
      <trkpt lat="44.98891" lon="6.03853">
        <ele>2552</ele>
        <time>2021-03-21T12:54:39.000Z</time>
      </trkpt>
      <trkpt lat="44.98891" lon="6.03853">
        <ele>2552.1999511719</ele>
        <time>2021-03-21T12:54:40.000Z</time>
      </trkpt>
      <trkpt lat="44.98891" lon="6.03853">
        <ele>2552.1999511719</ele>
        <time>2021-03-21T12:54:41.000Z</time>
      </trkpt>
      <trkpt lat="44.98891" lon="6.03853">
        <ele>2552.3999023438</ele>
        <time>2021-03-21T12:54:42.000Z</time>
      </trkpt>
      <trkpt lat="44.98891" lon="6.03853">
        <ele>2552.3999023438</ele>
        <time>2021-03-21T12:54:43.000Z</time>
      </trkpt>
      <trkpt lat="44.98891" lon="6.03853">
        <ele>2552.3999023438</ele>
        <time>2021-03-21T12:54:44.000Z</time>
      </trkpt>
      <trkpt lat="44.98891" lon="6.03853">
        <ele>2552.3999023438</ele>
        <time>2021-03-21T12:54:45.000Z</time>
      </trkpt>
      <trkpt lat="44.98892" lon="6.03853">
        <ele>2552.1999511719</ele>
        <time>2021-03-21T12:54:46.000Z</time>
      </trkpt>
      <trkpt lat="44.98892" lon="6.03853">
        <ele>2552</ele>
        <time>2021-03-21T12:54:47.000Z</time>
      </trkpt>
      <trkpt lat="44.98892" lon="6.03853">
        <ele>2551.8000488281</ele>
        <time>2021-03-21T12:54:48.000Z</time>
      </trkpt>
      <trkpt lat="44.98892" lon="6.03853">
        <ele>2551.8000488281</ele>
        <time>2021-03-21T12:54:49.000Z</time>
      </trkpt>
      <trkpt lat="44.98892" lon="6.03853">
        <ele>2551.8000488281</ele>
        <time>2021-03-21T12:54:50.000Z</time>
      </trkpt>
      <trkpt lat="44.98892" lon="6.03853">
        <ele>2551.8000488281</ele>
        <time>2021-03-21T12:54:51.000Z</time>
      </trkpt>
      <trkpt lat="44.98892" lon="6.03853">
        <ele>2551.8000488281</ele>
        <time>2021-03-21T12:54:52.000Z</time>
      </trkpt>
      <trkpt lat="44.98892" lon="6.03853">
        <ele>2551.8000488281</ele>
        <time>2021-03-21T12:54:53.000Z</time>
      </trkpt>
      <trkpt lat="44.98892" lon="6.03853">
        <ele>2551.6000976562</ele>
        <time>2021-03-21T12:54:54.000Z</time>
      </trkpt>
      <trkpt lat="44.98892" lon="6.03853">
        <ele>2551.3999023438</ele>
        <time>2021-03-21T12:54:55.000Z</time>
      </trkpt>
      <trkpt lat="44.98892" lon="6.03853">
        <ele>2551.6000976562</ele>
        <time>2021-03-21T12:54:56.000Z</time>
      </trkpt>
      <trkpt lat="44.98892" lon="6.03853">
        <ele>2551.6000976562</ele>
        <time>2021-03-21T12:54:57.000Z</time>
      </trkpt>
      <trkpt lat="44.98893" lon="6.03854">
        <ele>2551.3999023438</ele>
        <time>2021-03-21T12:54:58.000Z</time>
      </trkpt>
      <trkpt lat="44.98893" lon="6.03853">
        <ele>2551.3999023438</ele>
        <time>2021-03-21T12:54:59.000Z</time>
      </trkpt>
      <trkpt lat="44.98893" lon="6.03854">
        <ele>2551.6000976562</ele>
        <time>2021-03-21T12:55:00.000Z</time>
      </trkpt>
      <trkpt lat="44.98893" lon="6.03854">
        <ele>2551.6000976562</ele>
        <time>2021-03-21T12:55:01.000Z</time>
      </trkpt>
      <trkpt lat="44.98893" lon="6.03854">
        <ele>2551.6000976562</ele>
        <time>2021-03-21T12:55:02.000Z</time>
      </trkpt>
      <trkpt lat="44.98893" lon="6.03853">
        <ele>2551.3999023438</ele>
        <time>2021-03-21T12:55:03.000Z</time>
      </trkpt>
      <trkpt lat="44.98893" lon="6.03853">
        <ele>2551.3999023438</ele>
        <time>2021-03-21T12:55:04.000Z</time>
      </trkpt>
      <trkpt lat="44.98893" lon="6.03853">
        <ele>2551.3999023438</ele>
        <time>2021-03-21T12:55:05.000Z</time>
      </trkpt>
      <trkpt lat="44.98892" lon="6.03854">
        <ele>2551.6000976562</ele>
        <time>2021-03-21T12:55:06.000Z</time>
      </trkpt>
      <trkpt lat="44.98892" lon="6.03854">
        <ele>2551.8000488281</ele>
        <time>2021-03-21T12:55:07.000Z</time>
      </trkpt>
      <trkpt lat="44.98892" lon="6.03853">
        <ele>2551.8000488281</ele>
        <time>2021-03-21T12:55:08.000Z</time>
      </trkpt>
      <trkpt lat="44.98892" lon="6.03854">
        <ele>2552</ele>
        <time>2021-03-21T12:55:09.000Z</time>
      </trkpt>
      <trkpt lat="44.98892" lon="6.03854">
        <ele>2551.8000488281</ele>
        <time>2021-03-21T12:55:10.000Z</time>
      </trkpt>
      <trkpt lat="44.98892" lon="6.03854">
        <ele>2552</ele>
        <time>2021-03-21T12:55:11.000Z</time>
      </trkpt>
      <trkpt lat="44.98892" lon="6.03854">
        <ele>2551.8000488281</ele>
        <time>2021-03-21T12:55:12.000Z</time>
      </trkpt>
      <trkpt lat="44.98894" lon="6.03853">
        <ele>2550.1999511719</ele>
        <time>2021-03-21T12:55:13.000Z</time>
      </trkpt>
      <trkpt lat="44.98896" lon="6.03852">
        <ele>2548</ele>
        <time>2021-03-21T12:55:14.000Z</time>
      </trkpt>
      <trkpt lat="44.98898" lon="6.0385">
        <ele>2545.3999023438</ele>
        <time>2021-03-21T12:55:15.000Z</time>
      </trkpt>
      <trkpt lat="44.98898" lon="6.03846">
        <ele>2543.8000488281</ele>
        <time>2021-03-21T12:55:16.000Z</time>
      </trkpt>
      <trkpt lat="44.98898" lon="6.03842">
        <ele>2543.1999511719</ele>
        <time>2021-03-21T12:55:17.000Z</time>
      </trkpt>
      <trkpt lat="44.98898" lon="6.03841">
        <ele>2542.8000488281</ele>
        <time>2021-03-21T12:55:18.000Z</time>
      </trkpt>
      <trkpt lat="44.989" lon="6.03839">
        <ele>2541.1999511719</ele>
        <time>2021-03-21T12:55:19.000Z</time>
      </trkpt>
      <trkpt lat="44.98903" lon="6.03839">
        <ele>2539.3999023438</ele>
        <time>2021-03-21T12:55:20.000Z</time>
      </trkpt>
      <trkpt lat="44.98907" lon="6.03839">
        <ele>2538.3999023438</ele>
        <time>2021-03-21T12:55:21.000Z</time>
      </trkpt>
      <trkpt lat="44.98909" lon="6.03831">
        <ele>2536.3999023438</ele>
        <time>2021-03-21T12:55:23.000Z</time>
      </trkpt>
      <trkpt lat="44.98909" lon="6.03823">
        <ele>2533.3999023438</ele>
        <time>2021-03-21T12:55:25.000Z</time>
      </trkpt>
      <trkpt lat="44.9891" lon="6.03817">
        <ele>2529.8000488281</ele>
        <time>2021-03-21T12:55:26.000Z</time>
      </trkpt>
      <trkpt lat="44.98909" lon="6.03801">
        <ele>2529</ele>
        <time>2021-03-21T12:55:27.000Z</time>
      </trkpt>
      <trkpt lat="44.98907" lon="6.03796">
        <ele>2529</ele>
        <time>2021-03-21T12:55:28.000Z</time>
      </trkpt>
      <trkpt lat="44.98906" lon="6.0379">
        <ele>2527.8000488281</ele>
        <time>2021-03-21T12:55:29.000Z</time>
      </trkpt>
      <trkpt lat="44.98906" lon="6.03783">
        <ele>2525.6000976562</ele>
        <time>2021-03-21T12:55:30.000Z</time>
      </trkpt>
      <trkpt lat="44.98906" lon="6.03777">
        <ele>2523.1999511719</ele>
        <time>2021-03-21T12:55:31.000Z</time>
      </trkpt>
      <trkpt lat="44.98906" lon="6.03769">
        <ele>2520.6000976562</ele>
        <time>2021-03-21T12:55:32.000Z</time>
      </trkpt>
      <trkpt lat="44.98907" lon="6.03763">
        <ele>2519.3999023438</ele>
        <time>2021-03-21T12:55:33.000Z</time>
      </trkpt>
      <trkpt lat="44.98907" lon="6.03757">
        <ele>2516.6000976562</ele>
        <time>2021-03-21T12:55:34.000Z</time>
      </trkpt>
      <trkpt lat="44.98909" lon="6.03751">
        <ele>2513.3999023438</ele>
        <time>2021-03-21T12:55:35.000Z</time>
      </trkpt>
      <trkpt lat="44.9891" lon="6.03745">
        <ele>2510</ele>
        <time>2021-03-21T12:55:36.000Z</time>
      </trkpt>
      <trkpt lat="44.98912" lon="6.03739">
        <ele>2508.1999511719</ele>
        <time>2021-03-21T12:55:37.000Z</time>
      </trkpt>
      <trkpt lat="44.98913" lon="6.03734">
        <ele>2506.1999511719</ele>
        <time>2021-03-21T12:55:38.000Z</time>
      </trkpt>
      <trkpt lat="44.98913" lon="6.03731">
        <ele>2505</ele>
        <time>2021-03-21T12:55:39.000Z</time>
      </trkpt>
      <trkpt lat="44.98913" lon="6.03728">
        <ele>2503.6000976562</ele>
        <time>2021-03-21T12:55:40.000Z</time>
      </trkpt>
      <trkpt lat="44.98914" lon="6.03723">
        <ele>2501</ele>
        <time>2021-03-21T12:55:41.000Z</time>
      </trkpt>
      <trkpt lat="44.98917" lon="6.03721">
        <ele>2499.1999511719</ele>
        <time>2021-03-21T12:55:42.000Z</time>
      </trkpt>
      <trkpt lat="44.98919" lon="6.03723">
        <ele>2498.6000976562</ele>
        <time>2021-03-21T12:55:43.000Z</time>
      </trkpt>
      <trkpt lat="44.98921" lon="6.03726">
        <ele>2498.3999023438</ele>
        <time>2021-03-21T12:55:44.000Z</time>
      </trkpt>
      <trkpt lat="44.98923" lon="6.03728">
        <ele>2498.6000976562</ele>
        <time>2021-03-21T12:55:45.000Z</time>
      </trkpt>
      <trkpt lat="44.98924" lon="6.03729">
        <ele>2498.1999511719</ele>
        <time>2021-03-21T12:55:46.000Z</time>
      </trkpt>
      <trkpt lat="44.98926" lon="6.03726">
        <ele>2496.8000488281</ele>
        <time>2021-03-21T12:55:47.000Z</time>
      </trkpt>
      <trkpt lat="44.98927" lon="6.03723">
        <ele>2495.3999023438</ele>
        <time>2021-03-21T12:55:48.000Z</time>
      </trkpt>
      <trkpt lat="44.98927" lon="6.0372">
        <ele>2494.6000976562</ele>
        <time>2021-03-21T12:55:49.000Z</time>
      </trkpt>
      <trkpt lat="44.98926" lon="6.03716">
        <ele>2493.8000488281</ele>
        <time>2021-03-21T12:55:50.000Z</time>
      </trkpt>
      <trkpt lat="44.98925" lon="6.03712">
        <ele>2492.8000488281</ele>
        <time>2021-03-21T12:55:51.000Z</time>
      </trkpt>
      <trkpt lat="44.98924" lon="6.03706">
        <ele>2491.3999023438</ele>
        <time>2021-03-21T12:55:52.000Z</time>
      </trkpt>
      <trkpt lat="44.98922" lon="6.037">
        <ele>2490.1999511719</ele>
        <time>2021-03-21T12:55:53.000Z</time>
      </trkpt>
      <trkpt lat="44.98919" lon="6.03695">
        <ele>2489.8000488281</ele>
        <time>2021-03-21T12:55:54.000Z</time>
      </trkpt>
      <trkpt lat="44.98916" lon="6.03689">
        <ele>2489.1999511719</ele>
        <time>2021-03-21T12:55:55.000Z</time>
      </trkpt>
      <trkpt lat="44.98913" lon="6.03684">
        <ele>2488.8000488281</ele>
        <time>2021-03-21T12:55:56.000Z</time>
      </trkpt>
      <trkpt lat="44.9891" lon="6.03678">
        <ele>2488.6000976562</ele>
        <time>2021-03-21T12:55:57.000Z</time>
      </trkpt>
      <trkpt lat="44.98908" lon="6.03673">
        <ele>2488</ele>
        <time>2021-03-21T12:55:58.000Z</time>
      </trkpt>
      <trkpt lat="44.98909" lon="6.03667">
        <ele>2486.3999023438</ele>
        <time>2021-03-21T12:55:59.000Z</time>
      </trkpt>
      <trkpt lat="44.98914" lon="6.03664">
        <ele>2484.1999511719</ele>
        <time>2021-03-21T12:56:00.000Z</time>
      </trkpt>
      <trkpt lat="44.98918" lon="6.03664">
        <ele>2482</ele>
        <time>2021-03-21T12:56:01.000Z</time>
      </trkpt>
      <trkpt lat="44.98922" lon="6.03662">
        <ele>2480</ele>
        <time>2021-03-21T12:56:02.000Z</time>
      </trkpt>
      <trkpt lat="44.98925" lon="6.03653">
        <ele>2476.1999511719</ele>
        <time>2021-03-21T12:56:03.000Z</time>
      </trkpt>
      <trkpt lat="44.98931" lon="6.03645">
        <ele>2473</ele>
        <time>2021-03-21T12:56:04.000Z</time>
      </trkpt>
      <trkpt lat="44.98937" lon="6.03643">
        <ele>2470.8000488281</ele>
        <time>2021-03-21T12:56:05.000Z</time>
      </trkpt>
      <trkpt lat="44.98943" lon="6.03641">
        <ele>2469</ele>
        <time>2021-03-21T12:56:06.000Z</time>
      </trkpt>
      <trkpt lat="44.9895" lon="6.03641">
        <ele>2466.8000488281</ele>
        <time>2021-03-21T12:56:07.000Z</time>
      </trkpt>
      <trkpt lat="44.98955" lon="6.03643">
        <ele>2465.3999023438</ele>
        <time>2021-03-21T12:56:08.000Z</time>
      </trkpt>
      <trkpt lat="44.9896" lon="6.03645">
        <ele>2464</ele>
        <time>2021-03-21T12:56:09.000Z</time>
      </trkpt>
      <trkpt lat="44.98965" lon="6.03649">
        <ele>2462</ele>
        <time>2021-03-21T12:56:10.000Z</time>
      </trkpt>
      <trkpt lat="44.98971" lon="6.03654">
        <ele>2460.1999511719</ele>
        <time>2021-03-21T12:56:11.000Z</time>
      </trkpt>
      <trkpt lat="44.98977" lon="6.03658">
        <ele>2457.1999511719</ele>
        <time>2021-03-21T12:56:12.000Z</time>
      </trkpt>
      <trkpt lat="44.98982" lon="6.03664">
        <ele>2455.1999511719</ele>
        <time>2021-03-21T12:56:13.000Z</time>
      </trkpt>
      <trkpt lat="44.98986" lon="6.03671">
        <ele>2453.8000488281</ele>
        <time>2021-03-21T12:56:14.000Z</time>
      </trkpt>
      <trkpt lat="44.98988" lon="6.03679">
        <ele>2452.3999023438</ele>
        <time>2021-03-21T12:56:15.000Z</time>
      </trkpt>
      <trkpt lat="44.98991" lon="6.03686">
        <ele>2449.8000488281</ele>
        <time>2021-03-21T12:56:16.000Z</time>
      </trkpt>
      <trkpt lat="44.98994" lon="6.03693">
        <ele>2447.3999023438</ele>
        <time>2021-03-21T12:56:17.000Z</time>
      </trkpt>
      <trkpt lat="44.98998" lon="6.03697">
        <ele>2443.6000976562</ele>
        <time>2021-03-21T12:56:18.000Z</time>
      </trkpt>
      <trkpt lat="44.99005" lon="6.03698">
        <ele>2437.8000488281</ele>
        <time>2021-03-21T12:56:19.000Z</time>
      </trkpt>
      <trkpt lat="44.99012" lon="6.03702">
        <ele>2432.6000976562</ele>
        <time>2021-03-21T12:56:20.000Z</time>
      </trkpt>
      <trkpt lat="44.99018" lon="6.03709">
        <ele>2427.3999023438</ele>
        <time>2021-03-21T12:56:21.000Z</time>
      </trkpt>
      <trkpt lat="44.99025" lon="6.03714">
        <ele>2422.6000976562</ele>
        <time>2021-03-21T12:56:22.000Z</time>
      </trkpt>
      <trkpt lat="44.99032" lon="6.03715">
        <ele>2418</ele>
        <time>2021-03-21T12:56:23.000Z</time>
      </trkpt>
      <trkpt lat="44.99038" lon="6.03711">
        <ele>2414.1999511719</ele>
        <time>2021-03-21T12:56:24.000Z</time>
      </trkpt>
      <trkpt lat="44.99046" lon="6.03705">
        <ele>2411.6000976562</ele>
        <time>2021-03-21T12:56:25.000Z</time>
      </trkpt>
      <trkpt lat="44.99054" lon="6.03703">
        <ele>2409.6000976562</ele>
        <time>2021-03-21T12:56:26.000Z</time>
      </trkpt>
      <trkpt lat="44.99062" lon="6.03702">
        <ele>2407.1999511719</ele>
        <time>2021-03-21T12:56:27.000Z</time>
      </trkpt>
      <trkpt lat="44.9907" lon="6.03703">
        <ele>2401.6000976562</ele>
        <time>2021-03-21T12:56:28.000Z</time>
      </trkpt>
      <trkpt lat="44.99078" lon="6.03708">
        <ele>2397.8000488281</ele>
        <time>2021-03-21T12:56:29.000Z</time>
      </trkpt>
      <trkpt lat="44.99085" lon="6.03717">
        <ele>2396.1999511719</ele>
        <time>2021-03-21T12:56:30.000Z</time>
      </trkpt>
      <trkpt lat="44.99091" lon="6.03725">
        <ele>2394.6000976562</ele>
        <time>2021-03-21T12:56:31.000Z</time>
      </trkpt>
      <trkpt lat="44.99099" lon="6.0373">
        <ele>2390.8000488281</ele>
        <time>2021-03-21T12:56:32.000Z</time>
      </trkpt>
      <trkpt lat="44.99106" lon="6.03735">
        <ele>2387</ele>
        <time>2021-03-21T12:56:33.000Z</time>
      </trkpt>
      <trkpt lat="44.99113" lon="6.0374">
        <ele>2383.6000976562</ele>
        <time>2021-03-21T12:56:34.000Z</time>
      </trkpt>
      <trkpt lat="44.99122" lon="6.0374">
        <ele>2377.3999023438</ele>
        <time>2021-03-21T12:56:35.000Z</time>
      </trkpt>
      <trkpt lat="44.99132" lon="6.03742">
        <ele>2373</ele>
        <time>2021-03-21T12:56:36.000Z</time>
      </trkpt>
      <trkpt lat="44.99141" lon="6.03748">
        <ele>2370.3999023438</ele>
        <time>2021-03-21T12:56:37.000Z</time>
      </trkpt>
      <trkpt lat="44.99149" lon="6.03755">
        <ele>2368.3999023438</ele>
        <time>2021-03-21T12:56:38.000Z</time>
      </trkpt>
      <trkpt lat="44.99155" lon="6.03762">
        <ele>2367</ele>
        <time>2021-03-21T12:56:39.000Z</time>
      </trkpt>
      <trkpt lat="44.9916" lon="6.0377">
        <ele>2367</ele>
        <time>2021-03-21T12:56:40.000Z</time>
      </trkpt>
      <trkpt lat="44.99163" lon="6.03777">
        <ele>2368.1999511719</ele>
        <time>2021-03-21T12:56:41.000Z</time>
      </trkpt>
      <trkpt lat="44.99163" lon="6.0378">
        <ele>2369</ele>
        <time>2021-03-21T12:56:42.000Z</time>
      </trkpt>
      <trkpt lat="44.99164" lon="6.03782">
        <ele>2369.3999023438</ele>
        <time>2021-03-21T12:56:43.000Z</time>
      </trkpt>
      <trkpt lat="44.99164" lon="6.03782">
        <ele>2369.6000976562</ele>
        <time>2021-03-21T12:56:44.000Z</time>
      </trkpt>
      <trkpt lat="44.99164" lon="6.03782">
        <ele>2369.6000976562</ele>
        <time>2021-03-21T12:56:45.000Z</time>
      </trkpt>
      <trkpt lat="44.99164" lon="6.03781">
        <ele>2369.3999023438</ele>
        <time>2021-03-21T12:56:46.000Z</time>
      </trkpt>
      <trkpt lat="44.99163" lon="6.03781">
        <ele>2369.3999023438</ele>
        <time>2021-03-21T12:56:47.000Z</time>
      </trkpt>
      <trkpt lat="44.99163" lon="6.03782">
        <ele>2369.6000976562</ele>
        <time>2021-03-21T12:56:48.000Z</time>
      </trkpt>
      <trkpt lat="44.99164" lon="6.03781">
        <ele>2369</ele>
        <time>2021-03-21T12:56:49.000Z</time>
      </trkpt>
      <trkpt lat="44.99164" lon="6.0378">
        <ele>2369</ele>
        <time>2021-03-21T12:56:50.000Z</time>
      </trkpt>
      <trkpt lat="44.99164" lon="6.0378">
        <ele>2368.8000488281</ele>
        <time>2021-03-21T12:56:51.000Z</time>
      </trkpt>
      <trkpt lat="44.99165" lon="6.03778">
        <ele>2367.8000488281</ele>
        <time>2021-03-21T12:56:52.000Z</time>
      </trkpt>
      <trkpt lat="44.99166" lon="6.03776">
        <ele>2367</ele>
        <time>2021-03-21T12:56:53.000Z</time>
      </trkpt>
      <trkpt lat="44.99166" lon="6.03774">
        <ele>2366.6000976562</ele>
        <time>2021-03-21T12:56:54.000Z</time>
      </trkpt>
      <trkpt lat="44.99166" lon="6.03772">
        <ele>2366.1999511719</ele>
        <time>2021-03-21T12:56:55.000Z</time>
      </trkpt>
      <trkpt lat="44.99166" lon="6.03771">
        <ele>2366</ele>
        <time>2021-03-21T12:56:56.000Z</time>
      </trkpt>
      <trkpt lat="44.99166" lon="6.03771">
        <ele>2365.8000488281</ele>
        <time>2021-03-21T12:56:57.000Z</time>
      </trkpt>
      <trkpt lat="44.99166" lon="6.03769">
        <ele>2365.6000976562</ele>
        <time>2021-03-21T12:56:58.000Z</time>
      </trkpt>
      <trkpt lat="44.99166" lon="6.03769">
        <ele>2365.3999023438</ele>
        <time>2021-03-21T12:56:59.000Z</time>
      </trkpt>
      <trkpt lat="44.99166" lon="6.03768">
        <ele>2365.1999511719</ele>
        <time>2021-03-21T12:57:00.000Z</time>
      </trkpt>
      <trkpt lat="44.99166" lon="6.03767">
        <ele>2365</ele>
        <time>2021-03-21T12:57:01.000Z</time>
      </trkpt>
      <trkpt lat="44.99166" lon="6.03767">
        <ele>2365</ele>
        <time>2021-03-21T12:57:02.000Z</time>
      </trkpt>
      <trkpt lat="44.99166" lon="6.03767">
        <ele>2365</ele>
        <time>2021-03-21T12:57:03.000Z</time>
      </trkpt>
      <trkpt lat="44.99166" lon="6.03767">
        <ele>2365</ele>
        <time>2021-03-21T12:57:04.000Z</time>
      </trkpt>
      <trkpt lat="44.99166" lon="6.03767">
        <ele>2365</ele>
        <time>2021-03-21T12:57:05.000Z</time>
      </trkpt>
      <trkpt lat="44.99165" lon="6.03766">
        <ele>2365.1999511719</ele>
        <time>2021-03-21T12:57:06.000Z</time>
      </trkpt>
      <trkpt lat="44.99164" lon="6.03766">
        <ele>2365.1999511719</ele>
        <time>2021-03-21T12:57:07.000Z</time>
      </trkpt>
      <trkpt lat="44.99164" lon="6.03765">
        <ele>2365.1999511719</ele>
        <time>2021-03-21T12:57:08.000Z</time>
      </trkpt>
      <trkpt lat="44.99163" lon="6.03766">
        <ele>2365.6000976562</ele>
        <time>2021-03-21T12:57:09.000Z</time>
      </trkpt>
      <trkpt lat="44.99163" lon="6.03765">
        <ele>2365.3999023438</ele>
        <time>2021-03-21T12:57:10.000Z</time>
      </trkpt>
      <trkpt lat="44.99163" lon="6.03764">
        <ele>2365.3999023438</ele>
        <time>2021-03-21T12:57:11.000Z</time>
      </trkpt>
      <trkpt lat="44.99162" lon="6.03764">
        <ele>2365.3999023438</ele>
        <time>2021-03-21T12:57:12.000Z</time>
      </trkpt>
      <trkpt lat="44.99162" lon="6.03763">
        <ele>2365.3999023438</ele>
        <time>2021-03-21T12:57:13.000Z</time>
      </trkpt>
      <trkpt lat="44.99162" lon="6.03763">
        <ele>2365.6000976562</ele>
        <time>2021-03-21T12:57:14.000Z</time>
      </trkpt>
      <trkpt lat="44.99161" lon="6.03762">
        <ele>2365.6000976562</ele>
        <time>2021-03-21T12:57:15.000Z</time>
      </trkpt>
      <trkpt lat="44.9916" lon="6.03763">
        <ele>2366</ele>
        <time>2021-03-21T12:57:17.000Z</time>
      </trkpt>
      <trkpt lat="44.9916" lon="6.03763">
        <ele>2366</ele>
        <time>2021-03-21T12:57:18.000Z</time>
      </trkpt>
      <trkpt lat="44.9916" lon="6.03764">
        <ele>2366.1999511719</ele>
        <time>2021-03-21T12:57:19.000Z</time>
      </trkpt>
      <trkpt lat="44.9916" lon="6.03764">
        <ele>2366</ele>
        <time>2021-03-21T12:57:20.000Z</time>
      </trkpt>
      <trkpt lat="44.9916" lon="6.03765">
        <ele>2366</ele>
        <time>2021-03-21T12:57:21.000Z</time>
      </trkpt>
      <trkpt lat="44.9916" lon="6.03765">
        <ele>2366.1999511719</ele>
        <time>2021-03-21T12:57:22.000Z</time>
      </trkpt>
      <trkpt lat="44.9916" lon="6.03765">
        <ele>2366</ele>
        <time>2021-03-21T12:57:23.000Z</time>
      </trkpt>
      <trkpt lat="44.9916" lon="6.03765">
        <ele>2366.1999511719</ele>
        <time>2021-03-21T12:57:24.000Z</time>
      </trkpt>
      <trkpt lat="44.9916" lon="6.03766">
        <ele>2366.1999511719</ele>
        <time>2021-03-21T12:57:25.000Z</time>
      </trkpt>
      <trkpt lat="44.9916" lon="6.03766">
        <ele>2366.3999023438</ele>
        <time>2021-03-21T12:57:26.000Z</time>
      </trkpt>
      <trkpt lat="44.9916" lon="6.03765">
        <ele>2366.1999511719</ele>
        <time>2021-03-21T12:57:27.000Z</time>
      </trkpt>
      <trkpt lat="44.99161" lon="6.03765">
        <ele>2366</ele>
        <time>2021-03-21T12:57:28.000Z</time>
      </trkpt>
      <trkpt lat="44.99161" lon="6.03766">
        <ele>2366</ele>
        <time>2021-03-21T12:57:29.000Z</time>
      </trkpt>
      <trkpt lat="44.99161" lon="6.03765">
        <ele>2366</ele>
        <time>2021-03-21T12:57:30.000Z</time>
      </trkpt>
      <trkpt lat="44.99161" lon="6.03765">
        <ele>2366</ele>
        <time>2021-03-21T12:57:31.000Z</time>
      </trkpt>
      <trkpt lat="44.99161" lon="6.03765">
        <ele>2366</ele>
        <time>2021-03-21T12:57:32.000Z</time>
      </trkpt>
      <trkpt lat="44.99161" lon="6.03766">
        <ele>2366.1999511719</ele>
        <time>2021-03-21T12:57:33.000Z</time>
      </trkpt>
      <trkpt lat="44.9916" lon="6.03766">
        <ele>2366.3999023438</ele>
        <time>2021-03-21T12:57:36.000Z</time>
      </trkpt>
      <trkpt lat="44.99159" lon="6.03766">
        <ele>2366.6000976562</ele>
        <time>2021-03-21T12:57:37.000Z</time>
      </trkpt>
      <trkpt lat="44.99159" lon="6.03766">
        <ele>2366.8000488281</ele>
        <time>2021-03-21T12:57:39.000Z</time>
      </trkpt>
      <trkpt lat="44.99158" lon="6.03766">
        <ele>2367</ele>
        <time>2021-03-21T12:57:40.000Z</time>
      </trkpt>
      <trkpt lat="44.99157" lon="6.03766">
        <ele>2367.1999511719</ele>
        <time>2021-03-21T12:57:42.000Z</time>
      </trkpt>
      <trkpt lat="44.99156" lon="6.03767">
        <ele>2367.6000976562</ele>
        <time>2021-03-21T12:57:44.000Z</time>
      </trkpt>
      <trkpt lat="44.99155" lon="6.03768">
        <ele>2368.3999023438</ele>
        <time>2021-03-21T12:57:45.000Z</time>
      </trkpt>
      <trkpt lat="44.99154" lon="6.03769">
        <ele>2368.6000976562</ele>
        <time>2021-03-21T12:57:47.000Z</time>
      </trkpt>
      <trkpt lat="44.99153" lon="6.03769">
        <ele>2369.1999511719</ele>
        <time>2021-03-21T12:57:48.000Z</time>
      </trkpt>
      <trkpt lat="44.99152" lon="6.03769">
        <ele>2369.3999023438</ele>
        <time>2021-03-21T12:57:49.000Z</time>
      </trkpt>
      <trkpt lat="44.99152" lon="6.03769">
        <ele>2369.3999023438</ele>
        <time>2021-03-21T12:57:50.000Z</time>
      </trkpt>
      <trkpt lat="44.99152" lon="6.03768">
        <ele>2369.1999511719</ele>
        <time>2021-03-21T12:57:51.000Z</time>
      </trkpt>
      <trkpt lat="44.99153" lon="6.03768">
        <ele>2369</ele>
        <time>2021-03-21T12:57:52.000Z</time>
      </trkpt>
      <trkpt lat="44.99154" lon="6.03767">
        <ele>2368</ele>
        <time>2021-03-21T12:57:53.000Z</time>
      </trkpt>
      <trkpt lat="44.99154" lon="6.03766">
        <ele>2367.8000488281</ele>
        <time>2021-03-21T12:57:54.000Z</time>
      </trkpt>
      <trkpt lat="44.99155" lon="6.03765">
        <ele>2367.6000976562</ele>
        <time>2021-03-21T12:57:55.000Z</time>
      </trkpt>
      <trkpt lat="44.99155" lon="6.03765">
        <ele>2367.3999023438</ele>
        <time>2021-03-21T12:57:56.000Z</time>
      </trkpt>
      <trkpt lat="44.99155" lon="6.03764">
        <ele>2367.1999511719</ele>
        <time>2021-03-21T12:57:57.000Z</time>
      </trkpt>
      <trkpt lat="44.99155" lon="6.03763">
        <ele>2367</ele>
        <time>2021-03-21T12:57:58.000Z</time>
      </trkpt>
      <trkpt lat="44.99155" lon="6.03763">
        <ele>2367</ele>
        <time>2021-03-21T12:57:59.000Z</time>
      </trkpt>
      <trkpt lat="44.99156" lon="6.03763">
        <ele>2367</ele>
        <time>2021-03-21T12:58:00.000Z</time>
      </trkpt>
      <trkpt lat="44.99156" lon="6.03763">
        <ele>2366.8000488281</ele>
        <time>2021-03-21T12:58:01.000Z</time>
      </trkpt>
      <trkpt lat="44.99156" lon="6.03763">
        <ele>2366.8000488281</ele>
        <time>2021-03-21T12:58:02.000Z</time>
      </trkpt>
      <trkpt lat="44.99156" lon="6.03763">
        <ele>2366.8000488281</ele>
        <time>2021-03-21T12:58:03.000Z</time>
      </trkpt>
      <trkpt lat="44.99156" lon="6.03763">
        <ele>2366.8000488281</ele>
        <time>2021-03-21T12:58:04.000Z</time>
      </trkpt>
      <trkpt lat="44.99156" lon="6.03763">
        <ele>2366.8000488281</ele>
        <time>2021-03-21T12:58:05.000Z</time>
      </trkpt>
      <trkpt lat="44.99156" lon="6.03763">
        <ele>2367</ele>
        <time>2021-03-21T12:58:06.000Z</time>
      </trkpt>
      <trkpt lat="44.99156" lon="6.03764">
        <ele>2367</ele>
        <time>2021-03-21T12:58:07.000Z</time>
      </trkpt>
      <trkpt lat="44.99155" lon="6.03763">
        <ele>2367.1999511719</ele>
        <time>2021-03-21T12:58:08.000Z</time>
      </trkpt>
      <trkpt lat="44.99155" lon="6.03763">
        <ele>2367.1999511719</ele>
        <time>2021-03-21T12:58:09.000Z</time>
      </trkpt>
      <trkpt lat="44.99155" lon="6.03762">
        <ele>2367</ele>
        <time>2021-03-21T12:58:10.000Z</time>
      </trkpt>
      <trkpt lat="44.99155" lon="6.03762">
        <ele>2367</ele>
        <time>2021-03-21T12:58:11.000Z</time>
      </trkpt>
      <trkpt lat="44.99155" lon="6.03762">
        <ele>2367</ele>
        <time>2021-03-21T12:58:12.000Z</time>
      </trkpt>
      <trkpt lat="44.99155" lon="6.03761">
        <ele>2367</ele>
        <time>2021-03-21T12:58:13.000Z</time>
      </trkpt>
      <trkpt lat="44.99155" lon="6.03761">
        <ele>2366.8000488281</ele>
        <time>2021-03-21T12:58:14.000Z</time>
      </trkpt>
      <trkpt lat="44.99155" lon="6.03761">
        <ele>2366.8000488281</ele>
        <time>2021-03-21T12:58:15.000Z</time>
      </trkpt>
      <trkpt lat="44.99155" lon="6.03761">
        <ele>2366.8000488281</ele>
        <time>2021-03-21T12:58:16.000Z</time>
      </trkpt>
      <trkpt lat="44.99155" lon="6.0376">
        <ele>2366.8000488281</ele>
        <time>2021-03-21T12:58:17.000Z</time>
      </trkpt>
      <trkpt lat="44.99155" lon="6.0376">
        <ele>2366.8000488281</ele>
        <time>2021-03-21T12:58:18.000Z</time>
      </trkpt>
      <trkpt lat="44.99155" lon="6.0376">
        <ele>2366.8000488281</ele>
        <time>2021-03-21T12:58:19.000Z</time>
      </trkpt>
      <trkpt lat="44.99155" lon="6.0376">
        <ele>2366.8000488281</ele>
        <time>2021-03-21T12:58:20.000Z</time>
      </trkpt>
      <trkpt lat="44.99155" lon="6.0376">
        <ele>2366.8000488281</ele>
        <time>2021-03-21T12:58:21.000Z</time>
      </trkpt>
      <trkpt lat="44.99155" lon="6.03759">
        <ele>2366.8000488281</ele>
        <time>2021-03-21T12:58:22.000Z</time>
      </trkpt>
      <trkpt lat="44.99155" lon="6.03759">
        <ele>2366.6000976562</ele>
        <time>2021-03-21T12:58:23.000Z</time>
      </trkpt>
      <trkpt lat="44.99155" lon="6.03759">
        <ele>2366.6000976562</ele>
        <time>2021-03-21T12:58:24.000Z</time>
      </trkpt>
      <trkpt lat="44.99155" lon="6.03759">
        <ele>2366.6000976562</ele>
        <time>2021-03-21T12:58:25.000Z</time>
      </trkpt>
      <trkpt lat="44.99155" lon="6.03759">
        <ele>2366.6000976562</ele>
        <time>2021-03-21T12:58:26.000Z</time>
      </trkpt>
      <trkpt lat="44.99156" lon="6.03759">
        <ele>2366.6000976562</ele>
        <time>2021-03-21T12:58:27.000Z</time>
      </trkpt>
      <trkpt lat="44.99156" lon="6.03758">
        <ele>2366.3999023438</ele>
        <time>2021-03-21T12:58:28.000Z</time>
      </trkpt>
      <trkpt lat="44.99156" lon="6.03757">
        <ele>2366.1999511719</ele>
        <time>2021-03-21T12:58:29.000Z</time>
      </trkpt>
      <trkpt lat="44.99156" lon="6.03757">
        <ele>2366.1999511719</ele>
        <time>2021-03-21T12:58:30.000Z</time>
      </trkpt>
      <trkpt lat="44.99156" lon="6.03757">
        <ele>2366.1999511719</ele>
        <time>2021-03-21T12:58:31.000Z</time>
      </trkpt>
      <trkpt lat="44.99156" lon="6.03757">
        <ele>2366.1999511719</ele>
        <time>2021-03-21T12:58:32.000Z</time>
      </trkpt>
      <trkpt lat="44.99156" lon="6.03757">
        <ele>2366.1999511719</ele>
        <time>2021-03-21T12:58:33.000Z</time>
      </trkpt>
      <trkpt lat="44.99156" lon="6.03758">
        <ele>2366.1999511719</ele>
        <time>2021-03-21T12:58:34.000Z</time>
      </trkpt>
      <trkpt lat="44.99157" lon="6.03758">
        <ele>2366.1999511719</ele>
        <time>2021-03-21T12:58:35.000Z</time>
      </trkpt>
      <trkpt lat="44.99156" lon="6.03758">
        <ele>2366.3999023438</ele>
        <time>2021-03-21T12:58:36.000Z</time>
      </trkpt>
      <trkpt lat="44.99156" lon="6.03758">
        <ele>2366.3999023438</ele>
        <time>2021-03-21T12:58:37.000Z</time>
      </trkpt>
      <trkpt lat="44.99156" lon="6.03758">
        <ele>2366.3999023438</ele>
        <time>2021-03-21T12:58:38.000Z</time>
      </trkpt>
      <trkpt lat="44.99156" lon="6.03758">
        <ele>2366.1999511719</ele>
        <time>2021-03-21T12:58:39.000Z</time>
      </trkpt>
      <trkpt lat="44.99156" lon="6.03758">
        <ele>2366.1999511719</ele>
        <time>2021-03-21T12:58:40.000Z</time>
      </trkpt>
      <trkpt lat="44.99156" lon="6.03758">
        <ele>2366.3999023438</ele>
        <time>2021-03-21T12:58:41.000Z</time>
      </trkpt>
      <trkpt lat="44.99156" lon="6.03758">
        <ele>2366.3999023438</ele>
        <time>2021-03-21T12:58:42.000Z</time>
      </trkpt>
      <trkpt lat="44.99156" lon="6.03758">
        <ele>2366.3999023438</ele>
        <time>2021-03-21T12:58:43.000Z</time>
      </trkpt>
      <trkpt lat="44.99157" lon="6.03758">
        <ele>2366.1999511719</ele>
        <time>2021-03-21T12:58:44.000Z</time>
      </trkpt>
      <trkpt lat="44.99157" lon="6.03758">
        <ele>2366.1999511719</ele>
        <time>2021-03-21T12:58:45.000Z</time>
      </trkpt>
      <trkpt lat="44.99157" lon="6.03758">
        <ele>2366.1999511719</ele>
        <time>2021-03-21T12:58:46.000Z</time>
      </trkpt>
      <trkpt lat="44.99157" lon="6.03759">
        <ele>2366</ele>
        <time>2021-03-21T12:58:47.000Z</time>
      </trkpt>
      <trkpt lat="44.99158" lon="6.03759">
        <ele>2366</ele>
        <time>2021-03-21T12:58:48.000Z</time>
      </trkpt>
      <trkpt lat="44.99158" lon="6.03758">
        <ele>2366</ele>
        <time>2021-03-21T12:58:49.000Z</time>
      </trkpt>
      <trkpt lat="44.99158" lon="6.03758">
        <ele>2365.8000488281</ele>
        <time>2021-03-21T12:58:50.000Z</time>
      </trkpt>
      <trkpt lat="44.99158" lon="6.03758">
        <ele>2365.8000488281</ele>
        <time>2021-03-21T12:58:51.000Z</time>
      </trkpt>
      <trkpt lat="44.99158" lon="6.03757">
        <ele>2365.8000488281</ele>
        <time>2021-03-21T12:58:52.000Z</time>
      </trkpt>
      <trkpt lat="44.99158" lon="6.03757">
        <ele>2365.8000488281</ele>
        <time>2021-03-21T12:58:53.000Z</time>
      </trkpt>
      <trkpt lat="44.99158" lon="6.03757">
        <ele>2365.8000488281</ele>
        <time>2021-03-21T12:58:54.000Z</time>
      </trkpt>
      <trkpt lat="44.99158" lon="6.03756">
        <ele>2365.8000488281</ele>
        <time>2021-03-21T12:58:55.000Z</time>
      </trkpt>
      <trkpt lat="44.99157" lon="6.03756">
        <ele>2366</ele>
        <time>2021-03-21T12:58:56.000Z</time>
      </trkpt>
      <trkpt lat="44.99157" lon="6.03756">
        <ele>2366</ele>
        <time>2021-03-21T12:58:57.000Z</time>
      </trkpt>
      <trkpt lat="44.99157" lon="6.03756">
        <ele>2366</ele>
        <time>2021-03-21T12:58:58.000Z</time>
      </trkpt>
      <trkpt lat="44.99157" lon="6.03756">
        <ele>2366</ele>
        <time>2021-03-21T12:58:59.000Z</time>
      </trkpt>
      <trkpt lat="44.99157" lon="6.03756">
        <ele>2365.8000488281</ele>
        <time>2021-03-21T12:59:00.000Z</time>
      </trkpt>
      <trkpt lat="44.99157" lon="6.03756">
        <ele>2365.8000488281</ele>
        <time>2021-03-21T12:59:01.000Z</time>
      </trkpt>
      <trkpt lat="44.99158" lon="6.03756">
        <ele>2365.8000488281</ele>
        <time>2021-03-21T12:59:02.000Z</time>
      </trkpt>
      <trkpt lat="44.99158" lon="6.03756">
        <ele>2365.6000976562</ele>
        <time>2021-03-21T12:59:03.000Z</time>
      </trkpt>
      <trkpt lat="44.99158" lon="6.03755">
        <ele>2365.3999023438</ele>
        <time>2021-03-21T12:59:04.000Z</time>
      </trkpt>
      <trkpt lat="44.99158" lon="6.03755">
        <ele>2365.3999023438</ele>
        <time>2021-03-21T12:59:05.000Z</time>
      </trkpt>
      <trkpt lat="44.99159" lon="6.03755">
        <ele>2365.3999023438</ele>
        <time>2021-03-21T12:59:06.000Z</time>
      </trkpt>
      <trkpt lat="44.99159" lon="6.03755">
        <ele>2365.3999023438</ele>
        <time>2021-03-21T12:59:07.000Z</time>
      </trkpt>
      <trkpt lat="44.99159" lon="6.03756">
        <ele>2365.3999023438</ele>
        <time>2021-03-21T12:59:08.000Z</time>
      </trkpt>
      <trkpt lat="44.99159" lon="6.03757">
        <ele>2365.6000976562</ele>
        <time>2021-03-21T12:59:09.000Z</time>
      </trkpt>
      <trkpt lat="44.99159" lon="6.03757">
        <ele>2365.6000976562</ele>
        <time>2021-03-21T12:59:10.000Z</time>
      </trkpt>
      <trkpt lat="44.99159" lon="6.03758">
        <ele>2365.6000976562</ele>
        <time>2021-03-21T12:59:11.000Z</time>
      </trkpt>
      <trkpt lat="44.99159" lon="6.03758">
        <ele>2365.8000488281</ele>
        <time>2021-03-21T12:59:12.000Z</time>
      </trkpt>
      <trkpt lat="44.99159" lon="6.03758">
        <ele>2365.8000488281</ele>
        <time>2021-03-21T12:59:13.000Z</time>
      </trkpt>
      <trkpt lat="44.99159" lon="6.03758">
        <ele>2365.8000488281</ele>
        <time>2021-03-21T12:59:14.000Z</time>
      </trkpt>
      <trkpt lat="44.99158" lon="6.03759">
        <ele>2366</ele>
        <time>2021-03-21T12:59:15.000Z</time>
      </trkpt>
      <trkpt lat="44.99158" lon="6.03759">
        <ele>2366</ele>
        <time>2021-03-21T12:59:16.000Z</time>
      </trkpt>
      <trkpt lat="44.99158" lon="6.0376">
        <ele>2366.1999511719</ele>
        <time>2021-03-21T12:59:17.000Z</time>
      </trkpt>
      <trkpt lat="44.99158" lon="6.0376">
        <ele>2366.1999511719</ele>
        <time>2021-03-21T12:59:18.000Z</time>
      </trkpt>
      <trkpt lat="44.99157" lon="6.0376">
        <ele>2366.3999023438</ele>
        <time>2021-03-21T12:59:19.000Z</time>
      </trkpt>
      <trkpt lat="44.99157" lon="6.0376">
        <ele>2366.3999023438</ele>
        <time>2021-03-21T12:59:20.000Z</time>
      </trkpt>
      <trkpt lat="44.99157" lon="6.0376">
        <ele>2366.3999023438</ele>
        <time>2021-03-21T12:59:21.000Z</time>
      </trkpt>
      <trkpt lat="44.99157" lon="6.03761">
        <ele>2366.3999023438</ele>
        <time>2021-03-21T12:59:22.000Z</time>
      </trkpt>
      <trkpt lat="44.99157" lon="6.03761">
        <ele>2366.3999023438</ele>
        <time>2021-03-21T12:59:23.000Z</time>
      </trkpt>
      <trkpt lat="44.99158" lon="6.03761">
        <ele>2366.1999511719</ele>
        <time>2021-03-21T12:59:24.000Z</time>
      </trkpt>
      <trkpt lat="44.99158" lon="6.03761">
        <ele>2366.1999511719</ele>
        <time>2021-03-21T12:59:25.000Z</time>
      </trkpt>
      <trkpt lat="44.99158" lon="6.03761">
        <ele>2366.1999511719</ele>
        <time>2021-03-21T12:59:26.000Z</time>
      </trkpt>
      <trkpt lat="44.99158" lon="6.0376">
        <ele>2366</ele>
        <time>2021-03-21T12:59:27.000Z</time>
      </trkpt>
      <trkpt lat="44.99158" lon="6.0376">
        <ele>2366.1999511719</ele>
        <time>2021-03-21T12:59:28.000Z</time>
      </trkpt>
      <trkpt lat="44.99158" lon="6.03759">
        <ele>2366</ele>
        <time>2021-03-21T12:59:29.000Z</time>
      </trkpt>
      <trkpt lat="44.99159" lon="6.03759">
        <ele>2365.8000488281</ele>
        <time>2021-03-21T12:59:30.000Z</time>
      </trkpt>
      <trkpt lat="44.99159" lon="6.03758">
        <ele>2365.8000488281</ele>
        <time>2021-03-21T12:59:31.000Z</time>
      </trkpt>
      <trkpt lat="44.99159" lon="6.03759">
        <ele>2365.6000976562</ele>
        <time>2021-03-21T12:59:32.000Z</time>
      </trkpt>
      <trkpt lat="44.99159" lon="6.03758">
        <ele>2365.6000976562</ele>
        <time>2021-03-21T12:59:33.000Z</time>
      </trkpt>
      <trkpt lat="44.99159" lon="6.03758">
        <ele>2365.6000976562</ele>
        <time>2021-03-21T12:59:34.000Z</time>
      </trkpt>
      <trkpt lat="44.99159" lon="6.03758">
        <ele>2365.6000976562</ele>
        <time>2021-03-21T12:59:35.000Z</time>
      </trkpt>
      <trkpt lat="44.99159" lon="6.03758">
        <ele>2365.6000976562</ele>
        <time>2021-03-21T12:59:36.000Z</time>
      </trkpt>
      <trkpt lat="44.99159" lon="6.03758">
        <ele>2365.6000976562</ele>
        <time>2021-03-21T12:59:37.000Z</time>
      </trkpt>
      <trkpt lat="44.99159" lon="6.03758">
        <ele>2365.8000488281</ele>
        <time>2021-03-21T12:59:38.000Z</time>
      </trkpt>
      <trkpt lat="44.99159" lon="6.03759">
        <ele>2365.8000488281</ele>
        <time>2021-03-21T12:59:39.000Z</time>
      </trkpt>
      <trkpt lat="44.99158" lon="6.03759">
        <ele>2365.8000488281</ele>
        <time>2021-03-21T12:59:40.000Z</time>
      </trkpt>
      <trkpt lat="44.99158" lon="6.03759">
        <ele>2365.8000488281</ele>
        <time>2021-03-21T12:59:41.000Z</time>
      </trkpt>
      <trkpt lat="44.99158" lon="6.03758">
        <ele>2365.8000488281</ele>
        <time>2021-03-21T12:59:42.000Z</time>
      </trkpt>
      <trkpt lat="44.99158" lon="6.03757">
        <ele>2365.8000488281</ele>
        <time>2021-03-21T12:59:43.000Z</time>
      </trkpt>
      <trkpt lat="44.99158" lon="6.03757">
        <ele>2365.8000488281</ele>
        <time>2021-03-21T12:59:44.000Z</time>
      </trkpt>
      <trkpt lat="44.99158" lon="6.03757">
        <ele>2365.8000488281</ele>
        <time>2021-03-21T12:59:45.000Z</time>
      </trkpt>
      <trkpt lat="44.99158" lon="6.03756">
        <ele>2365.8000488281</ele>
        <time>2021-03-21T12:59:46.000Z</time>
      </trkpt>
      <trkpt lat="44.99158" lon="6.03757">
        <ele>2365.8000488281</ele>
        <time>2021-03-21T12:59:47.000Z</time>
      </trkpt>
      <trkpt lat="44.99158" lon="6.03757">
        <ele>2366</ele>
        <time>2021-03-21T12:59:48.000Z</time>
      </trkpt>
      <trkpt lat="44.99157" lon="6.03757">
        <ele>2366</ele>
        <time>2021-03-21T12:59:49.000Z</time>
      </trkpt>
      <trkpt lat="44.99157" lon="6.03758">
        <ele>2366</ele>
        <time>2021-03-21T12:59:50.000Z</time>
      </trkpt>
      <trkpt lat="44.99157" lon="6.03758">
        <ele>2366</ele>
        <time>2021-03-21T12:59:51.000Z</time>
      </trkpt>
      <trkpt lat="44.99157" lon="6.03758">
        <ele>2366</ele>
        <time>2021-03-21T12:59:52.000Z</time>
      </trkpt>
      <trkpt lat="44.99157" lon="6.03758">
        <ele>2366.1999511719</ele>
        <time>2021-03-21T12:59:53.000Z</time>
      </trkpt>
      <trkpt lat="44.99158" lon="6.03758">
        <ele>2366</ele>
        <time>2021-03-21T12:59:54.000Z</time>
      </trkpt>
      <trkpt lat="44.99157" lon="6.03758">
        <ele>2366</ele>
        <time>2021-03-21T12:59:55.000Z</time>
      </trkpt>
      <trkpt lat="44.99157" lon="6.03758">
        <ele>2366</ele>
        <time>2021-03-21T12:59:56.000Z</time>
      </trkpt>
      <trkpt lat="44.99157" lon="6.03758">
        <ele>2366</ele>
        <time>2021-03-21T12:59:57.000Z</time>
      </trkpt>
      <trkpt lat="44.99157" lon="6.03758">
        <ele>2366</ele>
        <time>2021-03-21T12:59:58.000Z</time>
      </trkpt>
      <trkpt lat="44.99158" lon="6.03757">
        <ele>2365.8000488281</ele>
        <time>2021-03-21T12:59:59.000Z</time>
      </trkpt>
      <trkpt lat="44.99157" lon="6.03757">
        <ele>2366</ele>
        <time>2021-03-21T13:00:00.000Z</time>
      </trkpt>
      <trkpt lat="44.99157" lon="6.03756">
        <ele>2365.8000488281</ele>
        <time>2021-03-21T13:00:01.000Z</time>
      </trkpt>
      <trkpt lat="44.99157" lon="6.03755">
        <ele>2365.8000488281</ele>
        <time>2021-03-21T13:00:02.000Z</time>
      </trkpt>
      <trkpt lat="44.99157" lon="6.03754">
        <ele>2365.6000976562</ele>
        <time>2021-03-21T13:00:03.000Z</time>
      </trkpt>
      <trkpt lat="44.99157" lon="6.03754">
        <ele>2365.8000488281</ele>
        <time>2021-03-21T13:00:04.000Z</time>
      </trkpt>
      <trkpt lat="44.99157" lon="6.03754">
        <ele>2365.8000488281</ele>
        <time>2021-03-21T13:00:05.000Z</time>
      </trkpt>
      <trkpt lat="44.99157" lon="6.03754">
        <ele>2365.8000488281</ele>
        <time>2021-03-21T13:00:06.000Z</time>
      </trkpt>
      <trkpt lat="44.99157" lon="6.03755">
        <ele>2365.8000488281</ele>
        <time>2021-03-21T13:00:07.000Z</time>
      </trkpt>
      <trkpt lat="44.99157" lon="6.03755">
        <ele>2365.8000488281</ele>
        <time>2021-03-21T13:00:08.000Z</time>
      </trkpt>
      <trkpt lat="44.99157" lon="6.03756">
        <ele>2365.8000488281</ele>
        <time>2021-03-21T13:00:09.000Z</time>
      </trkpt>
      <trkpt lat="44.99157" lon="6.03756">
        <ele>2365.8000488281</ele>
        <time>2021-03-21T13:00:10.000Z</time>
      </trkpt>
      <trkpt lat="44.99157" lon="6.03756">
        <ele>2365.8000488281</ele>
        <time>2021-03-21T13:00:11.000Z</time>
      </trkpt>
      <trkpt lat="44.99157" lon="6.03756">
        <ele>2365.8000488281</ele>
        <time>2021-03-21T13:00:12.000Z</time>
      </trkpt>
      <trkpt lat="44.99157" lon="6.03756">
        <ele>2365.8000488281</ele>
        <time>2021-03-21T13:00:13.000Z</time>
      </trkpt>
      <trkpt lat="44.99158" lon="6.03755">
        <ele>2365.6000976562</ele>
        <time>2021-03-21T13:00:14.000Z</time>
      </trkpt>
      <trkpt lat="44.99158" lon="6.03755">
        <ele>2365.6000976562</ele>
        <time>2021-03-21T13:00:15.000Z</time>
      </trkpt>
      <trkpt lat="44.99158" lon="6.03754">
        <ele>2365.3999023438</ele>
        <time>2021-03-21T13:00:16.000Z</time>
      </trkpt>
      <trkpt lat="44.99158" lon="6.03754">
        <ele>2365.3999023438</ele>
        <time>2021-03-21T13:00:17.000Z</time>
      </trkpt>
      <trkpt lat="44.99159" lon="6.03754">
        <ele>2365.1999511719</ele>
        <time>2021-03-21T13:00:18.000Z</time>
      </trkpt>
      <trkpt lat="44.99159" lon="6.03754">
        <ele>2365.1999511719</ele>
        <time>2021-03-21T13:00:19.000Z</time>
      </trkpt>
      <trkpt lat="44.99159" lon="6.03754">
        <ele>2365.1999511719</ele>
        <time>2021-03-21T13:00:20.000Z</time>
      </trkpt>
      <trkpt lat="44.99159" lon="6.03754">
        <ele>2365.1999511719</ele>
        <time>2021-03-21T13:00:21.000Z</time>
      </trkpt>
      <trkpt lat="44.9916" lon="6.03754">
        <ele>2365</ele>
        <time>2021-03-21T13:00:22.000Z</time>
      </trkpt>
      <trkpt lat="44.9916" lon="6.03754">
        <ele>2365</ele>
        <time>2021-03-21T13:00:23.000Z</time>
      </trkpt>
      <trkpt lat="44.9916" lon="6.03754">
        <ele>2365</ele>
        <time>2021-03-21T13:00:24.000Z</time>
      </trkpt>
      <trkpt lat="44.9916" lon="6.03754">
        <ele>2365</ele>
        <time>2021-03-21T13:00:25.000Z</time>
      </trkpt>
      <trkpt lat="44.9916" lon="6.03754">
        <ele>2365</ele>
        <time>2021-03-21T13:00:26.000Z</time>
      </trkpt>
      <trkpt lat="44.9916" lon="6.03754">
        <ele>2365</ele>
        <time>2021-03-21T13:00:27.000Z</time>
      </trkpt>
      <trkpt lat="44.9916" lon="6.03753">
        <ele>2364.8000488281</ele>
        <time>2021-03-21T13:00:28.000Z</time>
      </trkpt>
      <trkpt lat="44.9916" lon="6.03753">
        <ele>2364.8000488281</ele>
        <time>2021-03-21T13:00:29.000Z</time>
      </trkpt>
      <trkpt lat="44.9916" lon="6.03753">
        <ele>2364.8000488281</ele>
        <time>2021-03-21T13:00:30.000Z</time>
      </trkpt>
      <trkpt lat="44.99161" lon="6.03752">
        <ele>2364.6000976562</ele>
        <time>2021-03-21T13:00:31.000Z</time>
      </trkpt>
      <trkpt lat="44.99161" lon="6.03752">
        <ele>2364.6000976562</ele>
        <time>2021-03-21T13:00:32.000Z</time>
      </trkpt>
      <trkpt lat="44.99161" lon="6.03752">
        <ele>2364.6000976562</ele>
        <time>2021-03-21T13:00:33.000Z</time>
      </trkpt>
      <trkpt lat="44.99161" lon="6.03751">
        <ele>2364.3999023438</ele>
        <time>2021-03-21T13:00:34.000Z</time>
      </trkpt>
      <trkpt lat="44.99161" lon="6.03751">
        <ele>2364.3999023438</ele>
        <time>2021-03-21T13:00:35.000Z</time>
      </trkpt>
      <trkpt lat="44.99161" lon="6.03751">
        <ele>2364.1999511719</ele>
        <time>2021-03-21T13:00:36.000Z</time>
      </trkpt>
      <trkpt lat="44.99161" lon="6.03751">
        <ele>2364.1999511719</ele>
        <time>2021-03-21T13:00:37.000Z</time>
      </trkpt>
      <trkpt lat="44.99162" lon="6.03751">
        <ele>2364.1999511719</ele>
        <time>2021-03-21T13:00:38.000Z</time>
      </trkpt>
      <trkpt lat="44.99162" lon="6.03751">
        <ele>2364.1999511719</ele>
        <time>2021-03-21T13:00:39.000Z</time>
      </trkpt>
      <trkpt lat="44.99162" lon="6.03751">
        <ele>2364.1999511719</ele>
        <time>2021-03-21T13:00:40.000Z</time>
      </trkpt>
      <trkpt lat="44.99162" lon="6.03751">
        <ele>2364</ele>
        <time>2021-03-21T13:00:41.000Z</time>
      </trkpt>
      <trkpt lat="44.99162" lon="6.03751">
        <ele>2364</ele>
        <time>2021-03-21T13:00:42.000Z</time>
      </trkpt>
      <trkpt lat="44.99162" lon="6.03751">
        <ele>2364.1999511719</ele>
        <time>2021-03-21T13:00:43.000Z</time>
      </trkpt>
      <trkpt lat="44.99162" lon="6.03751">
        <ele>2364.1999511719</ele>
        <time>2021-03-21T13:00:44.000Z</time>
      </trkpt>
      <trkpt lat="44.99162" lon="6.03752">
        <ele>2364.1999511719</ele>
        <time>2021-03-21T13:00:45.000Z</time>
      </trkpt>
      <trkpt lat="44.99162" lon="6.03752">
        <ele>2364.1999511719</ele>
        <time>2021-03-21T13:00:46.000Z</time>
      </trkpt>
      <trkpt lat="44.99162" lon="6.03752">
        <ele>2364.1999511719</ele>
        <time>2021-03-21T13:00:47.000Z</time>
      </trkpt>
      <trkpt lat="44.99162" lon="6.03753">
        <ele>2364.1999511719</ele>
        <time>2021-03-21T13:00:48.000Z</time>
      </trkpt>
      <trkpt lat="44.99162" lon="6.03753">
        <ele>2364.1999511719</ele>
        <time>2021-03-21T13:00:49.000Z</time>
      </trkpt>
      <trkpt lat="44.99162" lon="6.03753">
        <ele>2364.3999023438</ele>
        <time>2021-03-21T13:00:50.000Z</time>
      </trkpt>
      <trkpt lat="44.99162" lon="6.03753">
        <ele>2364.3999023438</ele>
        <time>2021-03-21T13:00:51.000Z</time>
      </trkpt>
      <trkpt lat="44.99162" lon="6.03754">
        <ele>2364.3999023438</ele>
        <time>2021-03-21T13:00:52.000Z</time>
      </trkpt>
      <trkpt lat="44.99162" lon="6.03754">
        <ele>2364.3999023438</ele>
        <time>2021-03-21T13:00:53.000Z</time>
      </trkpt>
      <trkpt lat="44.99162" lon="6.03754">
        <ele>2364.3999023438</ele>
        <time>2021-03-21T13:00:54.000Z</time>
      </trkpt>
      <trkpt lat="44.99162" lon="6.03754">
        <ele>2364.3999023438</ele>
        <time>2021-03-21T13:00:55.000Z</time>
      </trkpt>
      <trkpt lat="44.99162" lon="6.03753">
        <ele>2364.3999023438</ele>
        <time>2021-03-21T13:00:56.000Z</time>
      </trkpt>
      <trkpt lat="44.99162" lon="6.03753">
        <ele>2364.3999023438</ele>
        <time>2021-03-21T13:00:57.000Z</time>
      </trkpt>
      <trkpt lat="44.99162" lon="6.03753">
        <ele>2364.3999023438</ele>
        <time>2021-03-21T13:00:58.000Z</time>
      </trkpt>
      <trkpt lat="44.99162" lon="6.03753">
        <ele>2364.3999023438</ele>
        <time>2021-03-21T13:00:59.000Z</time>
      </trkpt>
      <trkpt lat="44.99162" lon="6.03753">
        <ele>2364.3999023438</ele>
        <time>2021-03-21T13:01:00.000Z</time>
      </trkpt>
      <trkpt lat="44.99162" lon="6.03753">
        <ele>2364.3999023438</ele>
        <time>2021-03-21T13:01:01.000Z</time>
      </trkpt>
      <trkpt lat="44.99162" lon="6.03753">
        <ele>2364.3999023438</ele>
        <time>2021-03-21T13:01:02.000Z</time>
      </trkpt>
      <trkpt lat="44.99162" lon="6.03753">
        <ele>2364.3999023438</ele>
        <time>2021-03-21T13:01:03.000Z</time>
      </trkpt>
      <trkpt lat="44.99162" lon="6.03753">
        <ele>2364.1999511719</ele>
        <time>2021-03-21T13:01:04.000Z</time>
      </trkpt>
      <trkpt lat="44.99162" lon="6.03753">
        <ele>2364.1999511719</ele>
        <time>2021-03-21T13:01:05.000Z</time>
      </trkpt>
      <trkpt lat="44.99163" lon="6.03752">
        <ele>2364.1999511719</ele>
        <time>2021-03-21T13:01:06.000Z</time>
      </trkpt>
      <trkpt lat="44.99163" lon="6.03752">
        <ele>2364</ele>
        <time>2021-03-21T13:01:07.000Z</time>
      </trkpt>
      <trkpt lat="44.99163" lon="6.03752">
        <ele>2364</ele>
        <time>2021-03-21T13:01:08.000Z</time>
      </trkpt>
      <trkpt lat="44.99163" lon="6.03752">
        <ele>2364</ele>
        <time>2021-03-21T13:01:09.000Z</time>
      </trkpt>
      <trkpt lat="44.99163" lon="6.03751">
        <ele>2364</ele>
        <time>2021-03-21T13:01:10.000Z</time>
      </trkpt>
      <trkpt lat="44.99163" lon="6.03752">
        <ele>2364</ele>
        <time>2021-03-21T13:01:11.000Z</time>
      </trkpt>
      <trkpt lat="44.99163" lon="6.03751">
        <ele>2364</ele>
        <time>2021-03-21T13:01:12.000Z</time>
      </trkpt>
      <trkpt lat="44.99162" lon="6.03751">
        <ele>2364</ele>
        <time>2021-03-21T13:01:13.000Z</time>
      </trkpt>
      <trkpt lat="44.99162" lon="6.03751">
        <ele>2364.1999511719</ele>
        <time>2021-03-21T13:01:14.000Z</time>
      </trkpt>
      <trkpt lat="44.99162" lon="6.0375">
        <ele>2364.1999511719</ele>
        <time>2021-03-21T13:01:15.000Z</time>
      </trkpt>
      <trkpt lat="44.99161" lon="6.0375">
        <ele>2364.1999511719</ele>
        <time>2021-03-21T13:01:16.000Z</time>
      </trkpt>
      <trkpt lat="44.99161" lon="6.03751">
        <ele>2364.1999511719</ele>
        <time>2021-03-21T13:01:17.000Z</time>
      </trkpt>
      <trkpt lat="44.99161" lon="6.03751">
        <ele>2364.3999023438</ele>
        <time>2021-03-21T13:01:18.000Z</time>
      </trkpt>
      <trkpt lat="44.99161" lon="6.03751">
        <ele>2364.3999023438</ele>
        <time>2021-03-21T13:01:19.000Z</time>
      </trkpt>
      <trkpt lat="44.99161" lon="6.03751">
        <ele>2364.3999023438</ele>
        <time>2021-03-21T13:01:20.000Z</time>
      </trkpt>
      <trkpt lat="44.99161" lon="6.03751">
        <ele>2364.3999023438</ele>
        <time>2021-03-21T13:01:21.000Z</time>
      </trkpt>
      <trkpt lat="44.9916" lon="6.03751">
        <ele>2364.6000976562</ele>
        <time>2021-03-21T13:01:22.000Z</time>
      </trkpt>
      <trkpt lat="44.9916" lon="6.03751">
        <ele>2364.6000976562</ele>
        <time>2021-03-21T13:01:23.000Z</time>
      </trkpt>
      <trkpt lat="44.9916" lon="6.03751">
        <ele>2364.8000488281</ele>
        <time>2021-03-21T13:01:24.000Z</time>
      </trkpt>
      <trkpt lat="44.9916" lon="6.03752">
        <ele>2364.6000976562</ele>
        <time>2021-03-21T13:01:25.000Z</time>
      </trkpt>
      <trkpt lat="44.9916" lon="6.03752">
        <ele>2364.8000488281</ele>
        <time>2021-03-21T13:01:26.000Z</time>
      </trkpt>
      <trkpt lat="44.9916" lon="6.03753">
        <ele>2364.8000488281</ele>
        <time>2021-03-21T13:01:27.000Z</time>
      </trkpt>
      <trkpt lat="44.9916" lon="6.03753">
        <ele>2364.8000488281</ele>
        <time>2021-03-21T13:01:28.000Z</time>
      </trkpt>
      <trkpt lat="44.9916" lon="6.03753">
        <ele>2364.8000488281</ele>
        <time>2021-03-21T13:01:29.000Z</time>
      </trkpt>
      <trkpt lat="44.9916" lon="6.03754">
        <ele>2365</ele>
        <time>2021-03-21T13:01:30.000Z</time>
      </trkpt>
      <trkpt lat="44.99159" lon="6.03754">
        <ele>2365.1999511719</ele>
        <time>2021-03-21T13:01:31.000Z</time>
      </trkpt>
      <trkpt lat="44.99159" lon="6.03754">
        <ele>2365.1999511719</ele>
        <time>2021-03-21T13:01:32.000Z</time>
      </trkpt>
      <trkpt lat="44.99159" lon="6.03754">
        <ele>2365.1999511719</ele>
        <time>2021-03-21T13:01:33.000Z</time>
      </trkpt>
      <trkpt lat="44.99158" lon="6.03754">
        <ele>2365.3999023438</ele>
        <time>2021-03-21T13:01:34.000Z</time>
      </trkpt>
      <trkpt lat="44.99158" lon="6.03754">
        <ele>2365.3999023438</ele>
        <time>2021-03-21T13:01:35.000Z</time>
      </trkpt>
      <trkpt lat="44.99158" lon="6.03754">
        <ele>2365.3999023438</ele>
        <time>2021-03-21T13:01:36.000Z</time>
      </trkpt>
      <trkpt lat="44.99158" lon="6.03755">
        <ele>2365.3999023438</ele>
        <time>2021-03-21T13:01:37.000Z</time>
      </trkpt>
      <trkpt lat="44.99159" lon="6.03754">
        <ele>2365.3999023438</ele>
        <time>2021-03-21T13:01:38.000Z</time>
      </trkpt>
      <trkpt lat="44.9916" lon="6.03754">
        <ele>2365</ele>
        <time>2021-03-21T13:01:39.000Z</time>
      </trkpt>
      <trkpt lat="44.9916" lon="6.03754">
        <ele>2365</ele>
        <time>2021-03-21T13:01:40.000Z</time>
      </trkpt>
      <trkpt lat="44.9916" lon="6.03754">
        <ele>2364.8000488281</ele>
        <time>2021-03-21T13:01:41.000Z</time>
      </trkpt>
      <trkpt lat="44.9916" lon="6.03754">
        <ele>2364.8000488281</ele>
        <time>2021-03-21T13:01:42.000Z</time>
      </trkpt>
      <trkpt lat="44.99161" lon="6.03754">
        <ele>2364.8000488281</ele>
        <time>2021-03-21T13:01:43.000Z</time>
      </trkpt>
      <trkpt lat="44.99161" lon="6.03754">
        <ele>2364.8000488281</ele>
        <time>2021-03-21T13:01:44.000Z</time>
      </trkpt>
      <trkpt lat="44.99161" lon="6.03754">
        <ele>2364.8000488281</ele>
        <time>2021-03-21T13:01:45.000Z</time>
      </trkpt>
      <trkpt lat="44.99161" lon="6.03753">
        <ele>2364.8000488281</ele>
        <time>2021-03-21T13:01:46.000Z</time>
      </trkpt>
      <trkpt lat="44.9916" lon="6.03753">
        <ele>2364.8000488281</ele>
        <time>2021-03-21T13:01:47.000Z</time>
      </trkpt>
      <trkpt lat="44.9916" lon="6.03753">
        <ele>2364.8000488281</ele>
        <time>2021-03-21T13:01:48.000Z</time>
      </trkpt>
      <trkpt lat="44.9916" lon="6.03753">
        <ele>2364.8000488281</ele>
        <time>2021-03-21T13:01:49.000Z</time>
      </trkpt>
      <trkpt lat="44.9916" lon="6.03753">
        <ele>2364.8000488281</ele>
        <time>2021-03-21T13:01:50.000Z</time>
      </trkpt>
      <trkpt lat="44.9916" lon="6.03753">
        <ele>2364.8000488281</ele>
        <time>2021-03-21T13:01:51.000Z</time>
      </trkpt>
      <trkpt lat="44.99159" lon="6.03753">
        <ele>2365</ele>
        <time>2021-03-21T13:01:52.000Z</time>
      </trkpt>
      <trkpt lat="44.99159" lon="6.03753">
        <ele>2365.1999511719</ele>
        <time>2021-03-21T13:01:53.000Z</time>
      </trkpt>
      <trkpt lat="44.99159" lon="6.03753">
        <ele>2365.1999511719</ele>
        <time>2021-03-21T13:01:54.000Z</time>
      </trkpt>
      <trkpt lat="44.99159" lon="6.03753">
        <ele>2365.1999511719</ele>
        <time>2021-03-21T13:01:55.000Z</time>
      </trkpt>
      <trkpt lat="44.99158" lon="6.03753">
        <ele>2365.1999511719</ele>
        <time>2021-03-21T13:01:56.000Z</time>
      </trkpt>
      <trkpt lat="44.9916" lon="6.0375">
        <ele>2364.6000976562</ele>
        <time>2021-03-21T13:01:57.000Z</time>
      </trkpt>
      <trkpt lat="44.99163" lon="6.03745">
        <ele>2363.3999023438</ele>
        <time>2021-03-21T13:01:58.000Z</time>
      </trkpt>
      <trkpt lat="44.99166" lon="6.0374">
        <ele>2362.6000976562</ele>
        <time>2021-03-21T13:01:59.000Z</time>
      </trkpt>
      <trkpt lat="44.9917" lon="6.03735">
        <ele>2361.8000488281</ele>
        <time>2021-03-21T13:02:00.000Z</time>
      </trkpt>
      <trkpt lat="44.99174" lon="6.03732">
        <ele>2360.8000488281</ele>
        <time>2021-03-21T13:02:01.000Z</time>
      </trkpt>
      <trkpt lat="44.99179" lon="6.03728">
        <ele>2358.8000488281</ele>
        <time>2021-03-21T13:02:02.000Z</time>
      </trkpt>
      <trkpt lat="44.99184" lon="6.03724">
        <ele>2356.8000488281</ele>
        <time>2021-03-21T13:02:03.000Z</time>
      </trkpt>
      <trkpt lat="44.99189" lon="6.0372">
        <ele>2354.6000976562</ele>
        <time>2021-03-21T13:02:04.000Z</time>
      </trkpt>
      <trkpt lat="44.99195" lon="6.03716">
        <ele>2353</ele>
        <time>2021-03-21T13:02:05.000Z</time>
      </trkpt>
      <trkpt lat="44.99201" lon="6.03712">
        <ele>2351</ele>
        <time>2021-03-21T13:02:06.000Z</time>
      </trkpt>
      <trkpt lat="44.99208" lon="6.03709">
        <ele>2349</ele>
        <time>2021-03-21T13:02:07.000Z</time>
      </trkpt>
      <trkpt lat="44.99215" lon="6.03705">
        <ele>2346.3999023438</ele>
        <time>2021-03-21T13:02:08.000Z</time>
      </trkpt>
      <trkpt lat="44.99222" lon="6.03702">
        <ele>2344.1999511719</ele>
        <time>2021-03-21T13:02:09.000Z</time>
      </trkpt>
      <trkpt lat="44.99229" lon="6.03698">
        <ele>2341.6000976562</ele>
        <time>2021-03-21T13:02:10.000Z</time>
      </trkpt>
      <trkpt lat="44.99236" lon="6.03695">
        <ele>2339.8000488281</ele>
        <time>2021-03-21T13:02:11.000Z</time>
      </trkpt>
      <trkpt lat="44.99243" lon="6.03689">
        <ele>2336.1999511719</ele>
        <time>2021-03-21T13:02:12.000Z</time>
      </trkpt>
      <trkpt lat="44.99251" lon="6.03684">
        <ele>2332.1999511719</ele>
        <time>2021-03-21T13:02:13.000Z</time>
      </trkpt>
      <trkpt lat="44.99258" lon="6.03682">
        <ele>2329</ele>
        <time>2021-03-21T13:02:14.000Z</time>
      </trkpt>
      <trkpt lat="44.99265" lon="6.03678">
        <ele>2326.1999511719</ele>
        <time>2021-03-21T13:02:15.000Z</time>
      </trkpt>
      <trkpt lat="44.99272" lon="6.03678">
        <ele>2324.3999023438</ele>
        <time>2021-03-21T13:02:16.000Z</time>
      </trkpt>
      <trkpt lat="44.99279" lon="6.03681">
        <ele>2323</ele>
        <time>2021-03-21T13:02:17.000Z</time>
      </trkpt>
      <trkpt lat="44.99285" lon="6.03685">
        <ele>2321.3999023438</ele>
        <time>2021-03-21T13:02:18.000Z</time>
      </trkpt>
      <trkpt lat="44.99291" lon="6.03689">
        <ele>2319.8000488281</ele>
        <time>2021-03-21T13:02:19.000Z</time>
      </trkpt>
      <trkpt lat="44.99297" lon="6.0369">
        <ele>2316.8000488281</ele>
        <time>2021-03-21T13:02:20.000Z</time>
      </trkpt>
      <trkpt lat="44.99303" lon="6.03685">
        <ele>2312.3999023438</ele>
        <time>2021-03-21T13:02:21.000Z</time>
      </trkpt>
      <trkpt lat="44.99309" lon="6.03682">
        <ele>2307.1999511719</ele>
        <time>2021-03-21T13:02:22.000Z</time>
      </trkpt>
      <trkpt lat="44.99315" lon="6.0368">
        <ele>2301.8000488281</ele>
        <time>2021-03-21T13:02:23.000Z</time>
      </trkpt>
      <trkpt lat="44.99322" lon="6.03675">
        <ele>2296</ele>
        <time>2021-03-21T13:02:24.000Z</time>
      </trkpt>
      <trkpt lat="44.99328" lon="6.03674">
        <ele>2291.8000488281</ele>
        <time>2021-03-21T13:02:25.000Z</time>
      </trkpt>
      <trkpt lat="44.99334" lon="6.03675">
        <ele>2288.3999023438</ele>
        <time>2021-03-21T13:02:26.000Z</time>
      </trkpt>
      <trkpt lat="44.9934" lon="6.03669">
        <ele>2283.6000976562</ele>
        <time>2021-03-21T13:02:27.000Z</time>
      </trkpt>
      <trkpt lat="44.99347" lon="6.03665">
        <ele>2278.6000976562</ele>
        <time>2021-03-21T13:02:28.000Z</time>
      </trkpt>
      <trkpt lat="44.99353" lon="6.03667">
        <ele>2276.6000976562</ele>
        <time>2021-03-21T13:02:29.000Z</time>
      </trkpt>
      <trkpt lat="44.99358" lon="6.03667">
        <ele>2274.8000488281</ele>
        <time>2021-03-21T13:02:30.000Z</time>
      </trkpt>
      <trkpt lat="44.99364" lon="6.03665">
        <ele>2273</ele>
        <time>2021-03-21T13:02:31.000Z</time>
      </trkpt>
      <trkpt lat="44.99369" lon="6.03666">
        <ele>2271.8000488281</ele>
        <time>2021-03-21T13:02:32.000Z</time>
      </trkpt>
      <trkpt lat="44.99373" lon="6.03669">
        <ele>2271</ele>
        <time>2021-03-21T13:02:33.000Z</time>
      </trkpt>
      <trkpt lat="44.99377" lon="6.0367">
        <ele>2270</ele>
        <time>2021-03-21T13:02:34.000Z</time>
      </trkpt>
      <trkpt lat="44.99379" lon="6.03672">
        <ele>2269.1999511719</ele>
        <time>2021-03-21T13:02:35.000Z</time>
      </trkpt>
      <trkpt lat="44.9938" lon="6.03673">
        <ele>2268.6000976562</ele>
        <time>2021-03-21T13:02:36.000Z</time>
      </trkpt>
      <trkpt lat="44.99382" lon="6.03674">
        <ele>2267.6000976562</ele>
        <time>2021-03-21T13:02:37.000Z</time>
      </trkpt>
      <trkpt lat="44.99385" lon="6.03674">
        <ele>2266.1999511719</ele>
        <time>2021-03-21T13:02:38.000Z</time>
      </trkpt>
      <trkpt lat="44.99388" lon="6.03675">
        <ele>2264.6000976562</ele>
        <time>2021-03-21T13:02:39.000Z</time>
      </trkpt>
      <trkpt lat="44.99392" lon="6.03673">
        <ele>2262.1999511719</ele>
        <time>2021-03-21T13:02:40.000Z</time>
      </trkpt>
      <trkpt lat="44.99395" lon="6.03666">
        <ele>2260.3999023438</ele>
        <time>2021-03-21T13:02:41.000Z</time>
      </trkpt>
      <trkpt lat="44.99399" lon="6.03662">
        <ele>2258.8000488281</ele>
        <time>2021-03-21T13:02:42.000Z</time>
      </trkpt>
      <trkpt lat="44.99403" lon="6.03658">
        <ele>2256.8000488281</ele>
        <time>2021-03-21T13:02:43.000Z</time>
      </trkpt>
      <trkpt lat="44.99406" lon="6.0365">
        <ele>2251</ele>
        <time>2021-03-21T13:02:44.000Z</time>
      </trkpt>
      <trkpt lat="44.99411" lon="6.03645">
        <ele>2243.1999511719</ele>
        <time>2021-03-21T13:02:45.000Z</time>
      </trkpt>
      <trkpt lat="44.99416" lon="6.03644">
        <ele>2235.6000976562</ele>
        <time>2021-03-21T13:02:46.000Z</time>
      </trkpt>
      <trkpt lat="44.99419" lon="6.03638">
        <ele>2230.8000488281</ele>
        <time>2021-03-21T13:02:47.000Z</time>
      </trkpt>
      <trkpt lat="44.99423" lon="6.0363">
        <ele>2226.3999023438</ele>
        <time>2021-03-21T13:02:48.000Z</time>
      </trkpt>
      <trkpt lat="44.99429" lon="6.03623">
        <ele>2219.8000488281</ele>
        <time>2021-03-21T13:02:49.000Z</time>
      </trkpt>
      <trkpt lat="44.99432" lon="6.03615">
        <ele>2215.8000488281</ele>
        <time>2021-03-21T13:02:50.000Z</time>
      </trkpt>
      <trkpt lat="44.99432" lon="6.03603">
        <ele>2215.3999023438</ele>
        <time>2021-03-21T13:02:51.000Z</time>
      </trkpt>
      <trkpt lat="44.99429" lon="6.0359">
        <ele>2217.1999511719</ele>
        <time>2021-03-21T13:02:52.000Z</time>
      </trkpt>
      <trkpt lat="44.99425" lon="6.03581">
        <ele>2220.3999023438</ele>
        <time>2021-03-21T13:02:53.000Z</time>
      </trkpt>
      <trkpt lat="44.99422" lon="6.0357">
        <ele>2223.1999511719</ele>
        <time>2021-03-21T13:02:54.000Z</time>
      </trkpt>
      <trkpt lat="44.99419" lon="6.03565">
        <ele>2225</ele>
        <time>2021-03-21T13:02:55.000Z</time>
      </trkpt>
      <trkpt lat="44.99424" lon="6.03566">
        <ele>2220.8000488281</ele>
        <time>2021-03-21T13:02:56.000Z</time>
      </trkpt>
      <trkpt lat="44.99427" lon="6.03562">
        <ele>2218.8000488281</ele>
        <time>2021-03-21T13:02:57.000Z</time>
      </trkpt>
      <trkpt lat="44.99428" lon="6.03555">
        <ele>2217.8000488281</ele>
        <time>2021-03-21T13:02:58.000Z</time>
      </trkpt>
      <trkpt lat="44.99428" lon="6.03545">
        <ele>2217.6000976562</ele>
        <time>2021-03-21T13:02:59.000Z</time>
      </trkpt>
      <trkpt lat="44.99428" lon="6.03536">
        <ele>2218</ele>
        <time>2021-03-21T13:03:00.000Z</time>
      </trkpt>
      <trkpt lat="44.99427" lon="6.03528">
        <ele>2218</ele>
        <time>2021-03-21T13:03:01.000Z</time>
      </trkpt>
      <trkpt lat="44.9943" lon="6.03519">
        <ele>2216</ele>
        <time>2021-03-21T13:03:02.000Z</time>
      </trkpt>
      <trkpt lat="44.99433" lon="6.03514">
        <ele>2212.6000976562</ele>
        <time>2021-03-21T13:03:03.000Z</time>
      </trkpt>
      <trkpt lat="44.99438" lon="6.03509">
        <ele>2208</ele>
        <time>2021-03-21T13:03:04.000Z</time>
      </trkpt>
      <trkpt lat="44.99445" lon="6.03505">
        <ele>2202.1999511719</ele>
        <time>2021-03-21T13:03:05.000Z</time>
      </trkpt>
      <trkpt lat="44.99451" lon="6.03505">
        <ele>2197.1999511719</ele>
        <time>2021-03-21T13:03:06.000Z</time>
      </trkpt>
      <trkpt lat="44.99456" lon="6.03505">
        <ele>2192.1999511719</ele>
        <time>2021-03-21T13:03:07.000Z</time>
      </trkpt>
      <trkpt lat="44.99466" lon="6.03546">
        <ele>2183.8000488281</ele>
        <time>2021-03-21T13:03:08.000Z</time>
      </trkpt>
      <trkpt lat="44.99476" lon="6.03559">
        <ele>2176</ele>
        <time>2021-03-21T13:03:09.000Z</time>
      </trkpt>
      <trkpt lat="44.99489" lon="6.03588">
        <ele>2172.6000976562</ele>
        <time>2021-03-21T13:03:10.000Z</time>
      </trkpt>
      <trkpt lat="44.99507" lon="6.03611">
        <ele>2169.6000976562</ele>
        <time>2021-03-21T13:03:11.000Z</time>
      </trkpt>
      <trkpt lat="44.99518" lon="6.03623">
        <ele>2166.3999023438</ele>
        <time>2021-03-21T13:03:12.000Z</time>
      </trkpt>
      <trkpt lat="44.99524" lon="6.03636">
        <ele>2165.8000488281</ele>
        <time>2021-03-21T13:03:13.000Z</time>
      </trkpt>
      <trkpt lat="44.99525" lon="6.03634">
        <ele>2164.1999511719</ele>
        <time>2021-03-21T13:03:14.000Z</time>
      </trkpt>
      <trkpt lat="44.99528" lon="6.03629">
        <ele>2160.3999023438</ele>
        <time>2021-03-21T13:03:15.000Z</time>
      </trkpt>
      <trkpt lat="44.99533" lon="6.03626">
        <ele>2156</ele>
        <time>2021-03-21T13:03:16.000Z</time>
      </trkpt>
      <trkpt lat="44.99537" lon="6.03621">
        <ele>2151.3999023438</ele>
        <time>2021-03-21T13:03:17.000Z</time>
      </trkpt>
      <trkpt lat="44.99541" lon="6.03617">
        <ele>2148</ele>
        <time>2021-03-21T13:03:18.000Z</time>
      </trkpt>
      <trkpt lat="44.99546" lon="6.03621">
        <ele>2146.6000976562</ele>
        <time>2021-03-21T13:03:19.000Z</time>
      </trkpt>
      <trkpt lat="44.99547" lon="6.03626">
        <ele>2146.8000488281</ele>
        <time>2021-03-21T13:03:20.000Z</time>
      </trkpt>
      <trkpt lat="44.99546" lon="6.03627">
        <ele>2147.6000976562</ele>
        <time>2021-03-21T13:03:21.000Z</time>
      </trkpt>
      <trkpt lat="44.99547" lon="6.0363">
        <ele>2148</ele>
        <time>2021-03-21T13:03:22.000Z</time>
      </trkpt>
      <trkpt lat="44.99546" lon="6.03632">
        <ele>2149.1999511719</ele>
        <time>2021-03-21T13:03:23.000Z</time>
      </trkpt>
      <trkpt lat="44.99546" lon="6.03634">
        <ele>2149.8000488281</ele>
        <time>2021-03-21T13:03:24.000Z</time>
      </trkpt>
      <trkpt lat="44.99546" lon="6.03636">
        <ele>2150.3999023438</ele>
        <time>2021-03-21T13:03:25.000Z</time>
      </trkpt>
      <trkpt lat="44.99546" lon="6.03637">
        <ele>2150.8000488281</ele>
        <time>2021-03-21T13:03:26.000Z</time>
      </trkpt>
      <trkpt lat="44.99546" lon="6.03638">
        <ele>2151</ele>
        <time>2021-03-21T13:03:27.000Z</time>
      </trkpt>
      <trkpt lat="44.99546" lon="6.03638">
        <ele>2151.1999511719</ele>
        <time>2021-03-21T13:03:28.000Z</time>
      </trkpt>
      <trkpt lat="44.99546" lon="6.03639">
        <ele>2151.3999023438</ele>
        <time>2021-03-21T13:03:29.000Z</time>
      </trkpt>
      <trkpt lat="44.99545" lon="6.03638">
        <ele>2151.8000488281</ele>
        <time>2021-03-21T13:03:30.000Z</time>
      </trkpt>
      <trkpt lat="44.99543" lon="6.03638">
        <ele>2152.8000488281</ele>
        <time>2021-03-21T13:03:31.000Z</time>
      </trkpt>
      <trkpt lat="44.99543" lon="6.03639">
        <ele>2153.6000976562</ele>
        <time>2021-03-21T13:03:32.000Z</time>
      </trkpt>
      <trkpt lat="44.99542" lon="6.0364">
        <ele>2154</ele>
        <time>2021-03-21T13:03:33.000Z</time>
      </trkpt>
      <trkpt lat="44.99542" lon="6.03641">
        <ele>2154.3999023438</ele>
        <time>2021-03-21T13:03:34.000Z</time>
      </trkpt>
      <trkpt lat="44.99542" lon="6.03641">
        <ele>2154.3999023438</ele>
        <time>2021-03-21T13:03:35.000Z</time>
      </trkpt>
      <trkpt lat="44.99542" lon="6.03641">
        <ele>2154.6000976562</ele>
        <time>2021-03-21T13:03:36.000Z</time>
      </trkpt>
      <trkpt lat="44.99542" lon="6.03641">
        <ele>2154.6000976562</ele>
        <time>2021-03-21T13:03:39.000Z</time>
      </trkpt>
      <trkpt lat="44.99542" lon="6.03641">
        <ele>2154.8000488281</ele>
        <time>2021-03-21T13:03:40.000Z</time>
      </trkpt>
      <trkpt lat="44.99541" lon="6.03642">
        <ele>2155.1999511719</ele>
        <time>2021-03-21T13:03:42.000Z</time>
      </trkpt>
      <trkpt lat="44.9954" lon="6.03641">
        <ele>2156</ele>
        <time>2021-03-21T13:03:43.000Z</time>
      </trkpt>
      <trkpt lat="44.99538" lon="6.03641">
        <ele>2157.3999023438</ele>
        <time>2021-03-21T13:03:44.000Z</time>
      </trkpt>
      <trkpt lat="44.99537" lon="6.03641">
        <ele>2157.8000488281</ele>
        <time>2021-03-21T13:03:45.000Z</time>
      </trkpt>
      <trkpt lat="44.99537" lon="6.03641">
        <ele>2158</ele>
        <time>2021-03-21T13:03:46.000Z</time>
      </trkpt>
      <trkpt lat="44.99536" lon="6.0364">
        <ele>2158.3999023438</ele>
        <time>2021-03-21T13:03:47.000Z</time>
      </trkpt>
      <trkpt lat="44.99536" lon="6.03641">
        <ele>2159</ele>
        <time>2021-03-21T13:03:48.000Z</time>
      </trkpt>
      <trkpt lat="44.99535" lon="6.0364">
        <ele>2159.1999511719</ele>
        <time>2021-03-21T13:03:49.000Z</time>
      </trkpt>
      <trkpt lat="44.99535" lon="6.0364">
        <ele>2159.3999023438</ele>
        <time>2021-03-21T13:03:50.000Z</time>
      </trkpt>
      <trkpt lat="44.99535" lon="6.03641">
        <ele>2159.8000488281</ele>
        <time>2021-03-21T13:03:51.000Z</time>
      </trkpt>
      <trkpt lat="44.99535" lon="6.03641">
        <ele>2159.8000488281</ele>
        <time>2021-03-21T13:03:52.000Z</time>
      </trkpt>
      <trkpt lat="44.99534" lon="6.03641">
        <ele>2160.1999511719</ele>
        <time>2021-03-21T13:03:53.000Z</time>
      </trkpt>
      <trkpt lat="44.99534" lon="6.03641">
        <ele>2160.3999023438</ele>
        <time>2021-03-21T13:03:54.000Z</time>
      </trkpt>
      <trkpt lat="44.99533" lon="6.03641">
        <ele>2160.8000488281</ele>
        <time>2021-03-21T13:03:55.000Z</time>
      </trkpt>
      <trkpt lat="44.99532" lon="6.03639">
        <ele>2161.3999023438</ele>
        <time>2021-03-21T13:03:56.000Z</time>
      </trkpt>
      <trkpt lat="44.99528" lon="6.03636">
        <ele>2162.8000488281</ele>
        <time>2021-03-21T13:03:58.000Z</time>
      </trkpt>
      <trkpt lat="44.99527" lon="6.03635">
        <ele>2163.1999511719</ele>
        <time>2021-03-21T13:04:00.000Z</time>
      </trkpt>
      <trkpt lat="44.99527" lon="6.03635">
        <ele>2163.3999023438</ele>
        <time>2021-03-21T13:04:01.000Z</time>
      </trkpt>
      <trkpt lat="44.99527" lon="6.03634">
        <ele>2163.3999023438</ele>
        <time>2021-03-21T13:04:02.000Z</time>
      </trkpt>
      <trkpt lat="44.99528" lon="6.03635">
        <ele>2163</ele>
        <time>2021-03-21T13:04:03.000Z</time>
      </trkpt>
      <trkpt lat="44.99528" lon="6.03636">
        <ele>2162.6000976562</ele>
        <time>2021-03-21T13:04:04.000Z</time>
      </trkpt>
      <trkpt lat="44.9953" lon="6.03638">
        <ele>2162.3999023438</ele>
        <time>2021-03-21T13:04:05.000Z</time>
      </trkpt>
      <trkpt lat="44.9953" lon="6.03638">
        <ele>2162.3999023438</ele>
        <time>2021-03-21T13:04:06.000Z</time>
      </trkpt>
      <trkpt lat="44.9953" lon="6.03639">
        <ele>2162.6000976562</ele>
        <time>2021-03-21T13:04:07.000Z</time>
      </trkpt>
      <trkpt lat="44.9953" lon="6.0364">
        <ele>2162.8000488281</ele>
        <time>2021-03-21T13:04:08.000Z</time>
      </trkpt>
      <trkpt lat="44.9953" lon="6.0364">
        <ele>2162.8000488281</ele>
        <time>2021-03-21T13:04:09.000Z</time>
      </trkpt>
      <trkpt lat="44.9953" lon="6.03641">
        <ele>2163</ele>
        <time>2021-03-21T13:04:10.000Z</time>
      </trkpt>
      <trkpt lat="44.9953" lon="6.03641">
        <ele>2163.1999511719</ele>
        <time>2021-03-21T13:04:11.000Z</time>
      </trkpt>
      <trkpt lat="44.9953" lon="6.03641">
        <ele>2163.6000976562</ele>
        <time>2021-03-21T13:04:12.000Z</time>
      </trkpt>
      <trkpt lat="44.9953" lon="6.03641">
        <ele>2163.6000976562</ele>
        <time>2021-03-21T13:04:13.000Z</time>
      </trkpt>
      <trkpt lat="44.9953" lon="6.03641">
        <ele>2163.6000976562</ele>
        <time>2021-03-21T13:04:14.000Z</time>
      </trkpt>
      <trkpt lat="44.9953" lon="6.03642">
        <ele>2163.8000488281</ele>
        <time>2021-03-21T13:04:15.000Z</time>
      </trkpt>
      <trkpt lat="44.9953" lon="6.03642">
        <ele>2163.8000488281</ele>
        <time>2021-03-21T13:04:16.000Z</time>
      </trkpt>
      <trkpt lat="44.99529" lon="6.03642">
        <ele>2164</ele>
        <time>2021-03-21T13:04:17.000Z</time>
      </trkpt>
      <trkpt lat="44.99529" lon="6.03642">
        <ele>2164.3999023438</ele>
        <time>2021-03-21T13:04:18.000Z</time>
      </trkpt>
      <trkpt lat="44.99529" lon="6.03642">
        <ele>2164.3999023438</ele>
        <time>2021-03-21T13:04:19.000Z</time>
      </trkpt>
      <trkpt lat="44.99528" lon="6.03643">
        <ele>2164.6000976562</ele>
        <time>2021-03-21T13:04:20.000Z</time>
      </trkpt>
      <trkpt lat="44.99528" lon="6.03643">
        <ele>2164.6000976562</ele>
        <time>2021-03-21T13:04:21.000Z</time>
      </trkpt>
      <trkpt lat="44.99528" lon="6.03643">
        <ele>2164.6000976562</ele>
        <time>2021-03-21T13:04:22.000Z</time>
      </trkpt>
      <trkpt lat="44.99528" lon="6.03643">
        <ele>2164.8000488281</ele>
        <time>2021-03-21T13:04:23.000Z</time>
      </trkpt>
      <trkpt lat="44.99528" lon="6.03643">
        <ele>2164.8000488281</ele>
        <time>2021-03-21T13:04:24.000Z</time>
      </trkpt>
      <trkpt lat="44.99528" lon="6.03643">
        <ele>2165</ele>
        <time>2021-03-21T13:04:25.000Z</time>
      </trkpt>
      <trkpt lat="44.99528" lon="6.03644">
        <ele>2165.1999511719</ele>
        <time>2021-03-21T13:04:26.000Z</time>
      </trkpt>
      <trkpt lat="44.99528" lon="6.03644">
        <ele>2165.1999511719</ele>
        <time>2021-03-21T13:04:27.000Z</time>
      </trkpt>
      <trkpt lat="44.99528" lon="6.03644">
        <ele>2165.1999511719</ele>
        <time>2021-03-21T13:04:28.000Z</time>
      </trkpt>
      <trkpt lat="44.99528" lon="6.03644">
        <ele>2165.3999023438</ele>
        <time>2021-03-21T13:04:29.000Z</time>
      </trkpt>
      <trkpt lat="44.99527" lon="6.03644">
        <ele>2165.3999023438</ele>
        <time>2021-03-21T13:04:30.000Z</time>
      </trkpt>
      <trkpt lat="44.99527" lon="6.03644">
        <ele>2165.6000976562</ele>
        <time>2021-03-21T13:04:31.000Z</time>
      </trkpt>
      <trkpt lat="44.99527" lon="6.03644">
        <ele>2165.6000976562</ele>
        <time>2021-03-21T13:04:32.000Z</time>
      </trkpt>
      <trkpt lat="44.99527" lon="6.03645">
        <ele>2165.8000488281</ele>
        <time>2021-03-21T13:04:33.000Z</time>
      </trkpt>
      <trkpt lat="44.99527" lon="6.03645">
        <ele>2165.8000488281</ele>
        <time>2021-03-21T13:04:34.000Z</time>
      </trkpt>
      <trkpt lat="44.99527" lon="6.03645">
        <ele>2166</ele>
        <time>2021-03-21T13:04:35.000Z</time>
      </trkpt>
      <trkpt lat="44.99526" lon="6.03645">
        <ele>2166.1999511719</ele>
        <time>2021-03-21T13:04:36.000Z</time>
      </trkpt>
      <trkpt lat="44.99526" lon="6.03645">
        <ele>2166.1999511719</ele>
        <time>2021-03-21T13:04:37.000Z</time>
      </trkpt>
      <trkpt lat="44.99526" lon="6.03645">
        <ele>2166.3999023438</ele>
        <time>2021-03-21T13:04:38.000Z</time>
      </trkpt>
      <trkpt lat="44.99526" lon="6.03645">
        <ele>2166.6000976562</ele>
        <time>2021-03-21T13:04:39.000Z</time>
      </trkpt>
      <trkpt lat="44.99525" lon="6.03645">
        <ele>2166.8000488281</ele>
        <time>2021-03-21T13:04:40.000Z</time>
      </trkpt>
      <trkpt lat="44.99525" lon="6.03645">
        <ele>2166.8000488281</ele>
        <time>2021-03-21T13:04:41.000Z</time>
      </trkpt>
      <trkpt lat="44.99525" lon="6.03645">
        <ele>2166.8000488281</ele>
        <time>2021-03-21T13:04:42.000Z</time>
      </trkpt>
      <trkpt lat="44.99525" lon="6.03644">
        <ele>2166.8000488281</ele>
        <time>2021-03-21T13:04:43.000Z</time>
      </trkpt>
      <trkpt lat="44.99525" lon="6.03644">
        <ele>2166.8000488281</ele>
        <time>2021-03-21T13:04:44.000Z</time>
      </trkpt>
      <trkpt lat="44.99525" lon="6.03644">
        <ele>2166.8000488281</ele>
        <time>2021-03-21T13:04:45.000Z</time>
      </trkpt>
      <trkpt lat="44.99525" lon="6.03644">
        <ele>2166.8000488281</ele>
        <time>2021-03-21T13:04:46.000Z</time>
      </trkpt>
      <trkpt lat="44.99525" lon="6.03644">
        <ele>2166.8000488281</ele>
        <time>2021-03-21T13:04:47.000Z</time>
      </trkpt>
      <trkpt lat="44.99525" lon="6.03643">
        <ele>2166.8000488281</ele>
        <time>2021-03-21T13:04:48.000Z</time>
      </trkpt>
      <trkpt lat="44.99525" lon="6.03643">
        <ele>2166.8000488281</ele>
        <time>2021-03-21T13:04:49.000Z</time>
      </trkpt>
      <trkpt lat="44.99525" lon="6.03643">
        <ele>2166.6000976562</ele>
        <time>2021-03-21T13:04:50.000Z</time>
      </trkpt>
      <trkpt lat="44.99525" lon="6.03643">
        <ele>2166.6000976562</ele>
        <time>2021-03-21T13:04:51.000Z</time>
      </trkpt>
      <trkpt lat="44.99525" lon="6.03643">
        <ele>2166.6000976562</ele>
        <time>2021-03-21T13:04:52.000Z</time>
      </trkpt>
      <trkpt lat="44.99525" lon="6.03643">
        <ele>2166.3999023438</ele>
        <time>2021-03-21T13:04:53.000Z</time>
      </trkpt>
      <trkpt lat="44.99526" lon="6.03644">
        <ele>2166.1999511719</ele>
        <time>2021-03-21T13:04:54.000Z</time>
      </trkpt>
      <trkpt lat="44.99527" lon="6.03645">
        <ele>2165.8000488281</ele>
        <time>2021-03-21T13:04:55.000Z</time>
      </trkpt>
      <trkpt lat="44.99528" lon="6.03646">
        <ele>2165.1999511719</ele>
        <time>2021-03-21T13:04:56.000Z</time>
      </trkpt>
      <trkpt lat="44.99531" lon="6.03649">
        <ele>2164.1999511719</ele>
        <time>2021-03-21T13:04:57.000Z</time>
      </trkpt>
      <trkpt lat="44.99534" lon="6.03655">
        <ele>2163.3999023438</ele>
        <time>2021-03-21T13:04:58.000Z</time>
      </trkpt>
      <trkpt lat="44.99538" lon="6.03661">
        <ele>2163.3999023438</ele>
        <time>2021-03-21T13:04:59.000Z</time>
      </trkpt>
      <trkpt lat="44.99541" lon="6.03668">
        <ele>2163.6000976562</ele>
        <time>2021-03-21T13:05:00.000Z</time>
      </trkpt>
      <trkpt lat="44.99543" lon="6.03676">
        <ele>2164.6000976562</ele>
        <time>2021-03-21T13:05:01.000Z</time>
      </trkpt>
      <trkpt lat="44.99546" lon="6.03682">
        <ele>2165.3999023438</ele>
        <time>2021-03-21T13:05:02.000Z</time>
      </trkpt>
      <trkpt lat="44.99549" lon="6.03687">
        <ele>2166.3999023438</ele>
        <time>2021-03-21T13:05:03.000Z</time>
      </trkpt>
      <trkpt lat="44.99551" lon="6.03692">
        <ele>2167.3999023438</ele>
        <time>2021-03-21T13:05:04.000Z</time>
      </trkpt>
      <trkpt lat="44.99554" lon="6.03696">
        <ele>2167.6000976562</ele>
        <time>2021-03-21T13:05:05.000Z</time>
      </trkpt>
      <trkpt lat="44.99558" lon="6.03694">
        <ele>2165.3999023438</ele>
        <time>2021-03-21T13:05:06.000Z</time>
      </trkpt>
      <trkpt lat="44.99564" lon="6.03692">
        <ele>2162.6000976562</ele>
        <time>2021-03-21T13:05:07.000Z</time>
      </trkpt>
      <trkpt lat="44.99571" lon="6.03693">
        <ele>2160.3999023438</ele>
        <time>2021-03-21T13:05:08.000Z</time>
      </trkpt>
      <trkpt lat="44.99577" lon="6.03697">
        <ele>2158.8000488281</ele>
        <time>2021-03-21T13:05:09.000Z</time>
      </trkpt>
      <trkpt lat="44.99583" lon="6.03702">
        <ele>2157.8000488281</ele>
        <time>2021-03-21T13:05:10.000Z</time>
      </trkpt>
      <trkpt lat="44.99587" lon="6.03707">
        <ele>2157</ele>
        <time>2021-03-21T13:05:11.000Z</time>
      </trkpt>
      <trkpt lat="44.99591" lon="6.03709">
        <ele>2156</ele>
        <time>2021-03-21T13:05:12.000Z</time>
      </trkpt>
      <trkpt lat="44.99596" lon="6.03706">
        <ele>2152.1999511719</ele>
        <time>2021-03-21T13:05:13.000Z</time>
      </trkpt>
      <trkpt lat="44.99603" lon="6.03704">
        <ele>2147.8000488281</ele>
        <time>2021-03-21T13:05:14.000Z</time>
      </trkpt>
      <trkpt lat="44.9961" lon="6.03704">
        <ele>2144.8000488281</ele>
        <time>2021-03-21T13:05:15.000Z</time>
      </trkpt>
      <trkpt lat="44.99616" lon="6.03706">
        <ele>2143.3999023438</ele>
        <time>2021-03-21T13:05:16.000Z</time>
      </trkpt>
      <trkpt lat="44.99621" lon="6.03708">
        <ele>2142.1999511719</ele>
        <time>2021-03-21T13:05:17.000Z</time>
      </trkpt>
      <trkpt lat="44.99624" lon="6.03707">
        <ele>2140.3999023438</ele>
        <time>2021-03-21T13:05:18.000Z</time>
      </trkpt>
      <trkpt lat="44.99625" lon="6.03702">
        <ele>2136.1999511719</ele>
        <time>2021-03-21T13:05:19.000Z</time>
      </trkpt>
      <trkpt lat="44.99627" lon="6.03697">
        <ele>2131.6000976562</ele>
        <time>2021-03-21T13:05:20.000Z</time>
      </trkpt>
      <trkpt lat="44.99629" lon="6.03695">
        <ele>2128.1999511719</ele>
        <time>2021-03-21T13:05:21.000Z</time>
      </trkpt>
      <trkpt lat="44.99632" lon="6.03694">
        <ele>2126.3999023438</ele>
        <time>2021-03-21T13:05:22.000Z</time>
      </trkpt>
      <trkpt lat="44.99632" lon="6.03695">
        <ele>2126.6000976562</ele>
        <time>2021-03-21T13:05:23.000Z</time>
      </trkpt>
      <trkpt lat="44.99632" lon="6.03695">
        <ele>2126.8000488281</ele>
        <time>2021-03-21T13:05:24.000Z</time>
      </trkpt>
      <trkpt lat="44.99633" lon="6.03693">
        <ele>2124.8000488281</ele>
        <time>2021-03-21T13:05:25.000Z</time>
      </trkpt>
      <trkpt lat="44.99636" lon="6.03693">
        <ele>2122.8000488281</ele>
        <time>2021-03-21T13:05:26.000Z</time>
      </trkpt>
      <trkpt lat="44.9964" lon="6.03691">
        <ele>2119</ele>
        <time>2021-03-21T13:05:27.000Z</time>
      </trkpt>
      <trkpt lat="44.99646" lon="6.03689">
        <ele>2113.6000976562</ele>
        <time>2021-03-21T13:05:28.000Z</time>
      </trkpt>
      <trkpt lat="44.99653" lon="6.03689">
        <ele>2109.3999023438</ele>
        <time>2021-03-21T13:05:29.000Z</time>
      </trkpt>
      <trkpt lat="44.99658" lon="6.03689">
        <ele>2105</ele>
        <time>2021-03-21T13:05:30.000Z</time>
      </trkpt>
      <trkpt lat="44.99662" lon="6.03684">
        <ele>2101.3999023438</ele>
        <time>2021-03-21T13:05:31.000Z</time>
      </trkpt>
      <trkpt lat="44.99667" lon="6.03681">
        <ele>2098.1999511719</ele>
        <time>2021-03-21T13:05:32.000Z</time>
      </trkpt>
      <trkpt lat="44.99672" lon="6.03682">
        <ele>2096.1999511719</ele>
        <time>2021-03-21T13:05:33.000Z</time>
      </trkpt>
      <trkpt lat="44.99675" lon="6.03685">
        <ele>2095.3999023438</ele>
        <time>2021-03-21T13:05:34.000Z</time>
      </trkpt>
      <trkpt lat="44.99679" lon="6.03689">
        <ele>2095.1999511719</ele>
        <time>2021-03-21T13:05:35.000Z</time>
      </trkpt>
      <trkpt lat="44.99682" lon="6.03694">
        <ele>2095</ele>
        <time>2021-03-21T13:05:36.000Z</time>
      </trkpt>
      <trkpt lat="44.99686" lon="6.037">
        <ele>2095</ele>
        <time>2021-03-21T13:05:37.000Z</time>
      </trkpt>
      <trkpt lat="44.99689" lon="6.03705">
        <ele>2094.6000976562</ele>
        <time>2021-03-21T13:05:38.000Z</time>
      </trkpt>
      <trkpt lat="44.99692" lon="6.0371">
        <ele>2094.6000976562</ele>
        <time>2021-03-21T13:05:39.000Z</time>
      </trkpt>
      <trkpt lat="44.99694" lon="6.03714">
        <ele>2094.8000488281</ele>
        <time>2021-03-21T13:05:40.000Z</time>
      </trkpt>
      <trkpt lat="44.99696" lon="6.03717">
        <ele>2094.6000976562</ele>
        <time>2021-03-21T13:05:41.000Z</time>
      </trkpt>
      <trkpt lat="44.99698" lon="6.0372">
        <ele>2094.8000488281</ele>
        <time>2021-03-21T13:05:42.000Z</time>
      </trkpt>
      <trkpt lat="44.997" lon="6.03724">
        <ele>2094.6000976562</ele>
        <time>2021-03-21T13:05:43.000Z</time>
      </trkpt>
      <trkpt lat="44.99703" lon="6.03728">
        <ele>2094.8000488281</ele>
        <time>2021-03-21T13:05:44.000Z</time>
      </trkpt>
      <trkpt lat="44.99706" lon="6.03733">
        <ele>2095.1999511719</ele>
        <time>2021-03-21T13:05:45.000Z</time>
      </trkpt>
      <trkpt lat="44.99709" lon="6.0374">
        <ele>2095.6000976562</ele>
        <time>2021-03-21T13:05:46.000Z</time>
      </trkpt>
      <trkpt lat="44.99713" lon="6.03746">
        <ele>2095.8000488281</ele>
        <time>2021-03-21T13:05:47.000Z</time>
      </trkpt>
      <trkpt lat="44.99717" lon="6.03754">
        <ele>2095.8000488281</ele>
        <time>2021-03-21T13:05:48.000Z</time>
      </trkpt>
      <trkpt lat="44.99721" lon="6.03762">
        <ele>2096.1999511719</ele>
        <time>2021-03-21T13:05:49.000Z</time>
      </trkpt>
      <trkpt lat="44.99726" lon="6.03769">
        <ele>2095.1999511719</ele>
        <time>2021-03-21T13:05:50.000Z</time>
      </trkpt>
      <trkpt lat="44.9973" lon="6.03776">
        <ele>2093.6000976562</ele>
        <time>2021-03-21T13:05:51.000Z</time>
      </trkpt>
      <trkpt lat="44.99734" lon="6.0378">
        <ele>2091.8000488281</ele>
        <time>2021-03-21T13:05:52.000Z</time>
      </trkpt>
      <trkpt lat="44.99739" lon="6.03782">
        <ele>2088.6000976562</ele>
        <time>2021-03-21T13:05:53.000Z</time>
      </trkpt>
      <trkpt lat="44.99743" lon="6.03779">
        <ele>2084</ele>
        <time>2021-03-21T13:05:54.000Z</time>
      </trkpt>
      <trkpt lat="44.99748" lon="6.03777">
        <ele>2079.8000488281</ele>
        <time>2021-03-21T13:05:55.000Z</time>
      </trkpt>
      <trkpt lat="44.99753" lon="6.03773">
        <ele>2074.3999023438</ele>
        <time>2021-03-21T13:05:56.000Z</time>
      </trkpt>
      <trkpt lat="44.99758" lon="6.03766">
        <ele>2067.1999511719</ele>
        <time>2021-03-21T13:05:57.000Z</time>
      </trkpt>
      <trkpt lat="44.99765" lon="6.0376">
        <ele>2059.8000488281</ele>
        <time>2021-03-21T13:05:58.000Z</time>
      </trkpt>
      <trkpt lat="44.99773" lon="6.03756">
        <ele>2053</ele>
        <time>2021-03-21T13:05:59.000Z</time>
      </trkpt>
      <trkpt lat="44.99781" lon="6.03757">
        <ele>2048</ele>
        <time>2021-03-21T13:06:00.000Z</time>
      </trkpt>
      <trkpt lat="44.99786" lon="6.03761">
        <ele>2045.5999755859</ele>
        <time>2021-03-21T13:06:01.000Z</time>
      </trkpt>
      <trkpt lat="44.9979" lon="6.03766">
        <ele>2044</ele>
        <time>2021-03-21T13:06:02.000Z</time>
      </trkpt>
      <trkpt lat="44.99796" lon="6.03768">
        <ele>2041.5999755859</ele>
        <time>2021-03-21T13:06:03.000Z</time>
      </trkpt>
      <trkpt lat="44.99802" lon="6.0377">
        <ele>2038.8000488281</ele>
        <time>2021-03-21T13:06:04.000Z</time>
      </trkpt>
      <trkpt lat="44.99808" lon="6.03774">
        <ele>2037</ele>
        <time>2021-03-21T13:06:05.000Z</time>
      </trkpt>
      <trkpt lat="44.99813" lon="6.03779">
        <ele>2036</ele>
        <time>2021-03-21T13:06:06.000Z</time>
      </trkpt>
      <trkpt lat="44.99818" lon="6.03782">
        <ele>2034.1999511719</ele>
        <time>2021-03-21T13:06:07.000Z</time>
      </trkpt>
      <trkpt lat="44.99821" lon="6.03781">
        <ele>2032</ele>
        <time>2021-03-21T13:06:08.000Z</time>
      </trkpt>
      <trkpt lat="44.99823" lon="6.03777">
        <ele>2030</ele>
        <time>2021-03-21T13:06:09.000Z</time>
      </trkpt>
      <trkpt lat="44.99821" lon="6.03773">
        <ele>2029.8000488281</ele>
        <time>2021-03-21T13:06:10.000Z</time>
      </trkpt>
      <trkpt lat="44.9982" lon="6.0377">
        <ele>2029</ele>
        <time>2021-03-21T13:06:11.000Z</time>
      </trkpt>
      <trkpt lat="44.99819" lon="6.03766">
        <ele>2028.5999755859</ele>
        <time>2021-03-21T13:06:12.000Z</time>
      </trkpt>
      <trkpt lat="44.9982" lon="6.03763">
        <ele>2026.8000488281</ele>
        <time>2021-03-21T13:06:13.000Z</time>
      </trkpt>
      <trkpt lat="44.99822" lon="6.03764">
        <ele>2026.1999511719</ele>
        <time>2021-03-21T13:06:14.000Z</time>
      </trkpt>
      <trkpt lat="44.99825" lon="6.03767">
        <ele>2025.4000244141</ele>
        <time>2021-03-21T13:06:15.000Z</time>
      </trkpt>
      <trkpt lat="44.99827" lon="6.0377">
        <ele>2024.8000488281</ele>
        <time>2021-03-21T13:06:16.000Z</time>
      </trkpt>
      <trkpt lat="44.9983" lon="6.03772">
        <ele>2024</ele>
        <time>2021-03-21T13:06:17.000Z</time>
      </trkpt>
      <trkpt lat="44.99832" lon="6.03773">
        <ele>2022.8000488281</ele>
        <time>2021-03-21T13:06:18.000Z</time>
      </trkpt>
      <trkpt lat="44.99835" lon="6.03771">
        <ele>2020.1999511719</ele>
        <time>2021-03-21T13:06:19.000Z</time>
      </trkpt>
      <trkpt lat="44.99841" lon="6.03769">
        <ele>2015.8000488281</ele>
        <time>2021-03-21T13:06:20.000Z</time>
      </trkpt>
      <trkpt lat="44.99848" lon="6.03771">
        <ele>2011.4000244141</ele>
        <time>2021-03-21T13:06:21.000Z</time>
      </trkpt>
      <trkpt lat="44.99855" lon="6.03775">
        <ele>2009.1999511719</ele>
        <time>2021-03-21T13:06:22.000Z</time>
      </trkpt>
      <trkpt lat="44.99862" lon="6.03781">
        <ele>2008</ele>
        <time>2021-03-21T13:06:23.000Z</time>
      </trkpt>
      <trkpt lat="44.99866" lon="6.03785">
        <ele>2007</ele>
        <time>2021-03-21T13:06:24.000Z</time>
      </trkpt>
      <trkpt lat="44.9987" lon="6.03788">
        <ele>2006.1999511719</ele>
        <time>2021-03-21T13:06:25.000Z</time>
      </trkpt>
      <trkpt lat="44.99871" lon="6.03789">
        <ele>2006</ele>
        <time>2021-03-21T13:06:26.000Z</time>
      </trkpt>
      <trkpt lat="44.9987" lon="6.03789">
        <ele>2006.1999511719</ele>
        <time>2021-03-21T13:06:27.000Z</time>
      </trkpt>
      <trkpt lat="44.9987" lon="6.03788">
        <ele>2006</ele>
        <time>2021-03-21T13:06:28.000Z</time>
      </trkpt>
      <trkpt lat="44.9987" lon="6.03788">
        <ele>2006</ele>
        <time>2021-03-21T13:06:29.000Z</time>
      </trkpt>
      <trkpt lat="44.9987" lon="6.03788">
        <ele>2006</ele>
        <time>2021-03-21T13:06:30.000Z</time>
      </trkpt>
      <trkpt lat="44.9987" lon="6.03788">
        <ele>2006</ele>
        <time>2021-03-21T13:06:31.000Z</time>
      </trkpt>
      <trkpt lat="44.9987" lon="6.03789">
        <ele>2006.1999511719</ele>
        <time>2021-03-21T13:06:32.000Z</time>
      </trkpt>
      <trkpt lat="44.9987" lon="6.03789">
        <ele>2006.4000244141</ele>
        <time>2021-03-21T13:06:33.000Z</time>
      </trkpt>
      <trkpt lat="44.9987" lon="6.03789">
        <ele>2006.4000244141</ele>
        <time>2021-03-21T13:06:34.000Z</time>
      </trkpt>
      <trkpt lat="44.9987" lon="6.03789">
        <ele>2006.4000244141</ele>
        <time>2021-03-21T13:06:35.000Z</time>
      </trkpt>
      <trkpt lat="44.99869" lon="6.03789">
        <ele>2006.5999755859</ele>
        <time>2021-03-21T13:06:36.000Z</time>
      </trkpt>
      <trkpt lat="44.99869" lon="6.03789">
        <ele>2006.5999755859</ele>
        <time>2021-03-21T13:06:37.000Z</time>
      </trkpt>
      <trkpt lat="44.99869" lon="6.03789">
        <ele>2006.5999755859</ele>
        <time>2021-03-21T13:06:38.000Z</time>
      </trkpt>
      <trkpt lat="44.99869" lon="6.03789">
        <ele>2006.5999755859</ele>
        <time>2021-03-21T13:06:39.000Z</time>
      </trkpt>
      <trkpt lat="44.99869" lon="6.03789">
        <ele>2006.8000488281</ele>
        <time>2021-03-21T13:06:40.000Z</time>
      </trkpt>
      <trkpt lat="44.99869" lon="6.03789">
        <ele>2006.8000488281</ele>
        <time>2021-03-21T13:06:41.000Z</time>
      </trkpt>
      <trkpt lat="44.99869" lon="6.03788">
        <ele>2006.8000488281</ele>
        <time>2021-03-21T13:06:42.000Z</time>
      </trkpt>
      <trkpt lat="44.99869" lon="6.03788">
        <ele>2006.8000488281</ele>
        <time>2021-03-21T13:06:43.000Z</time>
      </trkpt>
      <trkpt lat="44.99869" lon="6.03789">
        <ele>2007</ele>
        <time>2021-03-21T13:06:44.000Z</time>
      </trkpt>
      <trkpt lat="44.99868" lon="6.03788">
        <ele>2007</ele>
        <time>2021-03-21T13:06:45.000Z</time>
      </trkpt>
      <trkpt lat="44.99868" lon="6.03788">
        <ele>2006.8000488281</ele>
        <time>2021-03-21T13:06:46.000Z</time>
      </trkpt>
      <trkpt lat="44.99869" lon="6.03786">
        <ele>2005.8000488281</ele>
        <time>2021-03-21T13:06:47.000Z</time>
      </trkpt>
      <trkpt lat="44.99869" lon="6.03783">
        <ele>2004.8000488281</ele>
        <time>2021-03-21T13:06:48.000Z</time>
      </trkpt>
      <trkpt lat="44.99872" lon="6.03778">
        <ele>2001.5999755859</ele>
        <time>2021-03-21T13:06:49.000Z</time>
      </trkpt>
      <trkpt lat="44.99875" lon="6.03776">
        <ele>1998.5999755859</ele>
        <time>2021-03-21T13:06:50.000Z</time>
      </trkpt>
      <trkpt lat="44.99879" lon="6.03777">
        <ele>1997.8000488281</ele>
        <time>2021-03-21T13:06:51.000Z</time>
      </trkpt>
      <trkpt lat="44.99881" lon="6.03779">
        <ele>1997.8000488281</ele>
        <time>2021-03-21T13:06:52.000Z</time>
      </trkpt>
      <trkpt lat="44.99881" lon="6.0378">
        <ele>1998.1999511719</ele>
        <time>2021-03-21T13:06:53.000Z</time>
      </trkpt>
      <trkpt lat="44.99881" lon="6.0378">
        <ele>1998.1999511719</ele>
        <time>2021-03-21T13:06:54.000Z</time>
      </trkpt>
      <trkpt lat="44.99881" lon="6.0378">
        <ele>1998</ele>
        <time>2021-03-21T13:06:55.000Z</time>
      </trkpt>
      <trkpt lat="44.99882" lon="6.0378">
        <ele>1998</ele>
        <time>2021-03-21T13:06:56.000Z</time>
      </trkpt>
      <trkpt lat="44.99882" lon="6.0378">
        <ele>1998</ele>
        <time>2021-03-21T13:06:57.000Z</time>
      </trkpt>
      <trkpt lat="44.99881" lon="6.03781">
        <ele>1998</ele>
        <time>2021-03-21T13:06:58.000Z</time>
      </trkpt>
      <trkpt lat="44.99882" lon="6.0378">
        <ele>1997.8000488281</ele>
        <time>2021-03-21T13:06:59.000Z</time>
      </trkpt>
      <trkpt lat="44.99883" lon="6.03781">
        <ele>1997.5999755859</ele>
        <time>2021-03-21T13:07:00.000Z</time>
      </trkpt>
      <trkpt lat="44.99885" lon="6.03783">
        <ele>1997.1999511719</ele>
        <time>2021-03-21T13:07:01.000Z</time>
      </trkpt>
      <trkpt lat="44.99888" lon="6.03786">
        <ele>1997.1999511719</ele>
        <time>2021-03-21T13:07:03.000Z</time>
      </trkpt>
      <trkpt lat="44.99892" lon="6.0379">
        <ele>1997.4000244141</ele>
        <time>2021-03-21T13:07:04.000Z</time>
      </trkpt>
      <trkpt lat="44.99896" lon="6.03796">
        <ele>1997.8000488281</ele>
        <time>2021-03-21T13:07:05.000Z</time>
      </trkpt>
      <trkpt lat="44.99913" lon="6.03801">
        <ele>1991.4000244141</ele>
        <time>2021-03-21T13:07:07.000Z</time>
      </trkpt>
      <trkpt lat="44.99918" lon="6.03795">
        <ele>1983.8000488281</ele>
        <time>2021-03-21T13:07:08.000Z</time>
      </trkpt>
      <trkpt lat="44.99921" lon="6.03788">
        <ele>1977</ele>
        <time>2021-03-21T13:07:09.000Z</time>
      </trkpt>
      <trkpt lat="44.99924" lon="6.03779">
        <ele>1971.5999755859</ele>
        <time>2021-03-21T13:07:10.000Z</time>
      </trkpt>
      <trkpt lat="44.99928" lon="6.03773">
        <ele>1966.5999755859</ele>
        <time>2021-03-21T13:07:11.000Z</time>
      </trkpt>
      <trkpt lat="44.99933" lon="6.03772">
        <ele>1962.8000488281</ele>
        <time>2021-03-21T13:07:12.000Z</time>
      </trkpt>
      <trkpt lat="44.99937" lon="6.03769">
        <ele>1958.5999755859</ele>
        <time>2021-03-21T13:07:13.000Z</time>
      </trkpt>
      <trkpt lat="44.99937" lon="6.03764">
        <ele>1956.1999511719</ele>
        <time>2021-03-21T13:07:14.000Z</time>
      </trkpt>
      <trkpt lat="44.99938" lon="6.03759">
        <ele>1955</ele>
        <time>2021-03-21T13:07:15.000Z</time>
      </trkpt>
      <trkpt lat="44.9994" lon="6.03757">
        <ele>1953</ele>
        <time>2021-03-21T13:07:16.000Z</time>
      </trkpt>
      <trkpt lat="44.99944" lon="6.03759">
        <ele>1950.5999755859</ele>
        <time>2021-03-21T13:07:17.000Z</time>
      </trkpt>
      <trkpt lat="44.99947" lon="6.03762">
        <ele>1948.4000244141</ele>
        <time>2021-03-21T13:07:18.000Z</time>
      </trkpt>
      <trkpt lat="44.99948" lon="6.03764">
        <ele>1947.1999511719</ele>
        <time>2021-03-21T13:07:20.000Z</time>
      </trkpt>
      <trkpt lat="44.99951" lon="6.03764">
        <ele>1944.5999755859</ele>
        <time>2021-03-21T13:07:22.000Z</time>
      </trkpt>
      <trkpt lat="44.99954" lon="6.03761">
        <ele>1942.4000244141</ele>
        <time>2021-03-21T13:07:23.000Z</time>
      </trkpt>
      <trkpt lat="44.99958" lon="6.03757">
        <ele>1939.1999511719</ele>
        <time>2021-03-21T13:07:24.000Z</time>
      </trkpt>
      <trkpt lat="44.99963" lon="6.03756">
        <ele>1935</ele>
        <time>2021-03-21T13:07:25.000Z</time>
      </trkpt>
      <trkpt lat="44.9997" lon="6.0376">
        <ele>1929.8000488281</ele>
        <time>2021-03-21T13:07:26.000Z</time>
      </trkpt>
      <trkpt lat="44.99975" lon="6.03765">
        <ele>1926</ele>
        <time>2021-03-21T13:07:27.000Z</time>
      </trkpt>
      <trkpt lat="44.9998" lon="6.0377">
        <ele>1923.8000488281</ele>
        <time>2021-03-21T13:07:28.000Z</time>
      </trkpt>
      <trkpt lat="44.99985" lon="6.03776">
        <ele>1922</ele>
        <time>2021-03-21T13:07:29.000Z</time>
      </trkpt>
      <trkpt lat="44.99988" lon="6.03782">
        <ele>1922</ele>
        <time>2021-03-21T13:07:30.000Z</time>
      </trkpt>
      <trkpt lat="44.99991" lon="6.03787">
        <ele>1922.8000488281</ele>
        <time>2021-03-21T13:07:31.000Z</time>
      </trkpt>
      <trkpt lat="44.99992" lon="6.03792">
        <ele>1923.5999755859</ele>
        <time>2021-03-21T13:07:32.000Z</time>
      </trkpt>
      <trkpt lat="44.99993" lon="6.03797">
        <ele>1924.8000488281</ele>
        <time>2021-03-21T13:07:33.000Z</time>
      </trkpt>
      <trkpt lat="44.99995" lon="6.03802">
        <ele>1926</ele>
        <time>2021-03-21T13:07:34.000Z</time>
      </trkpt>
      <trkpt lat="44.99998" lon="6.03808">
        <ele>1928.4000244141</ele>
        <time>2021-03-21T13:07:35.000Z</time>
      </trkpt>
      <trkpt lat="45.00002" lon="6.03815">
        <ele>1930.1999511719</ele>
        <time>2021-03-21T13:07:36.000Z</time>
      </trkpt>
      <trkpt lat="45.00005" lon="6.03821">
        <ele>1931</ele>
        <time>2021-03-21T13:07:37.000Z</time>
      </trkpt>
      <trkpt lat="45.00009" lon="6.03825">
        <ele>1928.5999755859</ele>
        <time>2021-03-21T13:07:38.000Z</time>
      </trkpt>
      <trkpt lat="45.00013" lon="6.03829">
        <ele>1926.1999511719</ele>
        <time>2021-03-21T13:07:39.000Z</time>
      </trkpt>
      <trkpt lat="45.00016" lon="6.03833">
        <ele>1904.4000244141</ele>
        <time>2021-03-21T13:07:40.000Z</time>
      </trkpt>
      <trkpt lat="45.00019" lon="6.03836">
        <ele>1903.8000488281</ele>
        <time>2021-03-21T13:07:41.000Z</time>
      </trkpt>
      <trkpt lat="45.00022" lon="6.03839">
        <ele>1903.1999511719</ele>
        <time>2021-03-21T13:07:42.000Z</time>
      </trkpt>
      <trkpt lat="45.00024" lon="6.03843">
        <ele>1902.8000488281</ele>
        <time>2021-03-21T13:07:43.000Z</time>
      </trkpt>
      <trkpt lat="45.00026" lon="6.03847">
        <ele>1902.8000488281</ele>
        <time>2021-03-21T13:07:44.000Z</time>
      </trkpt>
      <trkpt lat="45.00028" lon="6.0385">
        <ele>1902.8000488281</ele>
        <time>2021-03-21T13:07:45.000Z</time>
      </trkpt>
      <trkpt lat="45.00029" lon="6.03853">
        <ele>1903</ele>
        <time>2021-03-21T13:07:46.000Z</time>
      </trkpt>
      <trkpt lat="45.0003" lon="6.03857">
        <ele>1903.1999511719</ele>
        <time>2021-03-21T13:07:47.000Z</time>
      </trkpt>
      <trkpt lat="45.00031" lon="6.03859">
        <ele>1903.1999511719</ele>
        <time>2021-03-21T13:07:48.000Z</time>
      </trkpt>
      <trkpt lat="45.00032" lon="6.0386">
        <ele>1903.1999511719</ele>
        <time>2021-03-21T13:07:49.000Z</time>
      </trkpt>
      <trkpt lat="45.00032" lon="6.03859">
        <ele>1903</ele>
        <time>2021-03-21T13:07:50.000Z</time>
      </trkpt>
      <trkpt lat="45.00032" lon="6.03859">
        <ele>1903</ele>
        <time>2021-03-21T13:07:51.000Z</time>
      </trkpt>
      <trkpt lat="45.00032" lon="6.03859">
        <ele>1903.1999511719</ele>
        <time>2021-03-21T13:07:52.000Z</time>
      </trkpt>
      <trkpt lat="45.00032" lon="6.03859">
        <ele>1903.1999511719</ele>
        <time>2021-03-21T13:07:53.000Z</time>
      </trkpt>
      <trkpt lat="45.00031" lon="6.03859">
        <ele>1903.5999755859</ele>
        <time>2021-03-21T13:07:54.000Z</time>
      </trkpt>
      <trkpt lat="45.00031" lon="6.03859">
        <ele>1903.4000244141</ele>
        <time>2021-03-21T13:07:55.000Z</time>
      </trkpt>
      <trkpt lat="45.00031" lon="6.03859">
        <ele>1903.5999755859</ele>
        <time>2021-03-21T13:07:56.000Z</time>
      </trkpt>
      <trkpt lat="45.00031" lon="6.03859">
        <ele>1903.5999755859</ele>
        <time>2021-03-21T13:07:57.000Z</time>
      </trkpt>
      <trkpt lat="45.00031" lon="6.03859">
        <ele>1903.5999755859</ele>
        <time>2021-03-21T13:07:58.000Z</time>
      </trkpt>
      <trkpt lat="45.0003" lon="6.03859">
        <ele>1903.8000488281</ele>
        <time>2021-03-21T13:07:59.000Z</time>
      </trkpt>
      <trkpt lat="45.0003" lon="6.0386">
        <ele>1904</ele>
        <time>2021-03-21T13:08:00.000Z</time>
      </trkpt>
      <trkpt lat="45.0003" lon="6.0386">
        <ele>1904.1999511719</ele>
        <time>2021-03-21T13:08:01.000Z</time>
      </trkpt>
      <trkpt lat="45.0003" lon="6.0386">
        <ele>1904.1999511719</ele>
        <time>2021-03-21T13:08:02.000Z</time>
      </trkpt>
      <trkpt lat="45.0003" lon="6.03859">
        <ele>1904.1999511719</ele>
        <time>2021-03-21T13:08:03.000Z</time>
      </trkpt>
      <trkpt lat="45.0003" lon="6.03859">
        <ele>1904.1999511719</ele>
        <time>2021-03-21T13:08:04.000Z</time>
      </trkpt>
      <trkpt lat="45.0003" lon="6.0386">
        <ele>1904.4000244141</ele>
        <time>2021-03-21T13:08:05.000Z</time>
      </trkpt>
      <trkpt lat="45.0003" lon="6.0386">
        <ele>1904.1999511719</ele>
        <time>2021-03-21T13:08:06.000Z</time>
      </trkpt>
      <trkpt lat="45.0003" lon="6.0386">
        <ele>1904.4000244141</ele>
        <time>2021-03-21T13:08:07.000Z</time>
      </trkpt>
      <trkpt lat="45.0003" lon="6.0386">
        <ele>1904.1999511719</ele>
        <time>2021-03-21T13:08:08.000Z</time>
      </trkpt>
      <trkpt lat="45.0003" lon="6.03859">
        <ele>1904.1999511719</ele>
        <time>2021-03-21T13:08:09.000Z</time>
      </trkpt>
      <trkpt lat="45.0003" lon="6.03859">
        <ele>1904.1999511719</ele>
        <time>2021-03-21T13:08:10.000Z</time>
      </trkpt>
      <trkpt lat="45.0003" lon="6.03859">
        <ele>1904.1999511719</ele>
        <time>2021-03-21T13:08:11.000Z</time>
      </trkpt>
      <trkpt lat="45.0003" lon="6.03859">
        <ele>1903.8000488281</ele>
        <time>2021-03-21T13:08:12.000Z</time>
      </trkpt>
      <trkpt lat="45.00031" lon="6.03858">
        <ele>1903.5999755859</ele>
        <time>2021-03-21T13:08:13.000Z</time>
      </trkpt>
      <trkpt lat="45.00032" lon="6.0386">
        <ele>1903.1999511719</ele>
        <time>2021-03-21T13:08:14.000Z</time>
      </trkpt>
      <trkpt lat="45.00034" lon="6.03863">
        <ele>1903</ele>
        <time>2021-03-21T13:08:15.000Z</time>
      </trkpt>
      <trkpt lat="45.00036" lon="6.03866">
        <ele>1902.5999755859</ele>
        <time>2021-03-21T13:08:16.000Z</time>
      </trkpt>
      <trkpt lat="45.00039" lon="6.0387">
        <ele>1902</ele>
        <time>2021-03-21T13:08:17.000Z</time>
      </trkpt>
      <trkpt lat="45.00042" lon="6.03874">
        <ele>1901.4000244141</ele>
        <time>2021-03-21T13:08:18.000Z</time>
      </trkpt>
      <trkpt lat="45.00044" lon="6.03878">
        <ele>1900.5999755859</ele>
        <time>2021-03-21T13:08:19.000Z</time>
      </trkpt>
      <trkpt lat="45.00048" lon="6.03881">
        <ele>1899.1999511719</ele>
        <time>2021-03-21T13:08:20.000Z</time>
      </trkpt>
      <trkpt lat="45.00051" lon="6.03879">
        <ele>1896.1999511719</ele>
        <time>2021-03-21T13:08:21.000Z</time>
      </trkpt>
      <trkpt lat="45.00057" lon="6.03871">
        <ele>1889.1999511719</ele>
        <time>2021-03-21T13:08:23.000Z</time>
      </trkpt>
      <trkpt lat="45.00061" lon="6.03873">
        <ele>1886.4000244141</ele>
        <time>2021-03-21T13:08:24.000Z</time>
      </trkpt>
      <trkpt lat="45.00066" lon="6.03872">
        <ele>1882.5999755859</ele>
        <time>2021-03-21T13:08:25.000Z</time>
      </trkpt>
      <trkpt lat="45.00071" lon="6.03869">
        <ele>1877</ele>
        <time>2021-03-21T13:08:26.000Z</time>
      </trkpt>
      <trkpt lat="45.00077" lon="6.03867">
        <ele>1872</ele>
        <time>2021-03-21T13:08:27.000Z</time>
      </trkpt>
      <trkpt lat="45.00082" lon="6.03872">
        <ele>1870.1999511719</ele>
        <time>2021-03-21T13:08:28.000Z</time>
      </trkpt>
      <trkpt lat="45.00085" lon="6.03878">
        <ele>1869.1999511719</ele>
        <time>2021-03-21T13:08:29.000Z</time>
      </trkpt>
      <trkpt lat="45.00088" lon="6.03882">
        <ele>1869</ele>
        <time>2021-03-21T13:08:30.000Z</time>
      </trkpt>
      <trkpt lat="45.0009" lon="6.03886">
        <ele>1868.5999755859</ele>
        <time>2021-03-21T13:08:31.000Z</time>
      </trkpt>
      <trkpt lat="45.00093" lon="6.03888">
        <ele>1867.4000244141</ele>
        <time>2021-03-21T13:08:32.000Z</time>
      </trkpt>
      <trkpt lat="45.00097" lon="6.03892">
        <ele>1865.8000488281</ele>
        <time>2021-03-21T13:08:33.000Z</time>
      </trkpt>
      <trkpt lat="45.00102" lon="6.03897">
        <ele>1865.4000244141</ele>
        <time>2021-03-21T13:08:34.000Z</time>
      </trkpt>
      <trkpt lat="45.00108" lon="6.03902">
        <ele>1864</ele>
        <time>2021-03-21T13:08:35.000Z</time>
      </trkpt>
      <trkpt lat="45.00116" lon="6.03906">
        <ele>1861.4000244141</ele>
        <time>2021-03-21T13:08:36.000Z</time>
      </trkpt>
      <trkpt lat="45.00123" lon="6.0391">
        <ele>1858.8000488281</ele>
        <time>2021-03-21T13:08:37.000Z</time>
      </trkpt>
      <trkpt lat="45.0013" lon="6.03915">
        <ele>1856.8000488281</ele>
        <time>2021-03-21T13:08:38.000Z</time>
      </trkpt>
      <trkpt lat="45.00135" lon="6.03919">
        <ele>1855.1999511719</ele>
        <time>2021-03-21T13:08:39.000Z</time>
      </trkpt>
      <trkpt lat="45.00142" lon="6.03921">
        <ele>1852.4000244141</ele>
        <time>2021-03-21T13:08:40.000Z</time>
      </trkpt>
      <trkpt lat="45.00149" lon="6.03924">
        <ele>1849.4000244141</ele>
        <time>2021-03-21T13:08:41.000Z</time>
      </trkpt>
      <trkpt lat="45.00157" lon="6.03929">
        <ele>1846.8000488281</ele>
        <time>2021-03-21T13:08:42.000Z</time>
      </trkpt>
      <trkpt lat="45.00164" lon="6.03935">
        <ele>1845.8000488281</ele>
        <time>2021-03-21T13:08:43.000Z</time>
      </trkpt>
      <trkpt lat="45.00169" lon="6.03941">
        <ele>1846</ele>
        <time>2021-03-21T13:08:44.000Z</time>
      </trkpt>
      <trkpt lat="45.00173" lon="6.03946">
        <ele>1846.4000244141</ele>
        <time>2021-03-21T13:08:45.000Z</time>
      </trkpt>
      <trkpt lat="45.00175" lon="6.03949">
        <ele>1847</ele>
        <time>2021-03-21T13:08:46.000Z</time>
      </trkpt>
      <trkpt lat="45.00177" lon="6.03952">
        <ele>1847.1999511719</ele>
        <time>2021-03-21T13:08:47.000Z</time>
      </trkpt>
      <trkpt lat="45.00178" lon="6.03954">
        <ele>1847.8000488281</ele>
        <time>2021-03-21T13:08:48.000Z</time>
      </trkpt>
      <trkpt lat="45.00178" lon="6.03955">
        <ele>1848</ele>
        <time>2021-03-21T13:08:49.000Z</time>
      </trkpt>
      <trkpt lat="45.00178" lon="6.03955">
        <ele>1848.4000244141</ele>
        <time>2021-03-21T13:08:50.000Z</time>
      </trkpt>
      <trkpt lat="45.00178" lon="6.03955">
        <ele>1848.4000244141</ele>
        <time>2021-03-21T13:08:51.000Z</time>
      </trkpt>
      <trkpt lat="45.00177" lon="6.03955">
        <ele>1848.5999755859</ele>
        <time>2021-03-21T13:08:52.000Z</time>
      </trkpt>
      <trkpt lat="45.00177" lon="6.03956">
        <ele>1849</ele>
        <time>2021-03-21T13:08:53.000Z</time>
      </trkpt>
      <trkpt lat="45.00177" lon="6.03955">
        <ele>1848.8000488281</ele>
        <time>2021-03-21T13:08:54.000Z</time>
      </trkpt>
      <trkpt lat="45.00177" lon="6.03955">
        <ele>1848.5999755859</ele>
        <time>2021-03-21T13:08:55.000Z</time>
      </trkpt>
      <trkpt lat="45.00177" lon="6.03955">
        <ele>1849</ele>
        <time>2021-03-21T13:08:56.000Z</time>
      </trkpt>
      <trkpt lat="45.00176" lon="6.03955">
        <ele>1849</ele>
        <time>2021-03-21T13:08:57.000Z</time>
      </trkpt>
      <trkpt lat="45.00176" lon="6.03956">
        <ele>1849.5999755859</ele>
        <time>2021-03-21T13:08:58.000Z</time>
      </trkpt>
      <trkpt lat="45.00176" lon="6.03956">
        <ele>1849.5999755859</ele>
        <time>2021-03-21T13:08:59.000Z</time>
      </trkpt>
      <trkpt lat="45.00176" lon="6.03955">
        <ele>1849.1999511719</ele>
        <time>2021-03-21T13:09:00.000Z</time>
      </trkpt>
      <trkpt lat="45.00176" lon="6.03955">
        <ele>1849</ele>
        <time>2021-03-21T13:09:01.000Z</time>
      </trkpt>
      <trkpt lat="45.00176" lon="6.03955">
        <ele>1849</ele>
        <time>2021-03-21T13:09:02.000Z</time>
      </trkpt>
      <trkpt lat="45.00176" lon="6.03954">
        <ele>1848.8000488281</ele>
        <time>2021-03-21T13:09:03.000Z</time>
      </trkpt>
      <trkpt lat="45.00176" lon="6.03954">
        <ele>1848.8000488281</ele>
        <time>2021-03-21T13:09:04.000Z</time>
      </trkpt>
      <trkpt lat="45.00177" lon="6.03954">
        <ele>1848.5999755859</ele>
        <time>2021-03-21T13:09:05.000Z</time>
      </trkpt>
      <trkpt lat="45.00176" lon="6.03954">
        <ele>1848.5999755859</ele>
        <time>2021-03-21T13:09:06.000Z</time>
      </trkpt>
      <trkpt lat="45.00176" lon="6.03954">
        <ele>1848.5999755859</ele>
        <time>2021-03-21T13:09:07.000Z</time>
      </trkpt>
      <trkpt lat="45.00176" lon="6.03954">
        <ele>1848.5999755859</ele>
        <time>2021-03-21T13:09:08.000Z</time>
      </trkpt>
      <trkpt lat="45.00177" lon="6.03954">
        <ele>1848.5999755859</ele>
        <time>2021-03-21T13:09:09.000Z</time>
      </trkpt>
      <trkpt lat="45.00176" lon="6.03954">
        <ele>1848.5999755859</ele>
        <time>2021-03-21T13:09:10.000Z</time>
      </trkpt>
      <trkpt lat="45.00176" lon="6.03954">
        <ele>1848.5999755859</ele>
        <time>2021-03-21T13:09:11.000Z</time>
      </trkpt>
      <trkpt lat="45.00176" lon="6.03954">
        <ele>1848.5999755859</ele>
        <time>2021-03-21T13:09:12.000Z</time>
      </trkpt>
      <trkpt lat="45.00176" lon="6.03954">
        <ele>1848.4000244141</ele>
        <time>2021-03-21T13:09:13.000Z</time>
      </trkpt>
      <trkpt lat="45.00176" lon="6.03954">
        <ele>1848.4000244141</ele>
        <time>2021-03-21T13:09:14.000Z</time>
      </trkpt>
      <trkpt lat="45.00176" lon="6.03953">
        <ele>1848.4000244141</ele>
        <time>2021-03-21T13:09:15.000Z</time>
      </trkpt>
      <trkpt lat="45.00176" lon="6.03953">
        <ele>1848.4000244141</ele>
        <time>2021-03-21T13:09:16.000Z</time>
      </trkpt>
      <trkpt lat="45.00176" lon="6.03954">
        <ele>1848.5999755859</ele>
        <time>2021-03-21T13:09:17.000Z</time>
      </trkpt>
      <trkpt lat="45.00176" lon="6.03954">
        <ele>1848.8000488281</ele>
        <time>2021-03-21T13:09:18.000Z</time>
      </trkpt>
      <trkpt lat="45.00176" lon="6.03954">
        <ele>1848.8000488281</ele>
        <time>2021-03-21T13:09:19.000Z</time>
      </trkpt>
      <trkpt lat="45.00176" lon="6.03954">
        <ele>1848.5999755859</ele>
        <time>2021-03-21T13:09:20.000Z</time>
      </trkpt>
      <trkpt lat="45.00176" lon="6.03954">
        <ele>1848.8000488281</ele>
        <time>2021-03-21T13:09:21.000Z</time>
      </trkpt>
      <trkpt lat="45.00176" lon="6.03954">
        <ele>1848.8000488281</ele>
        <time>2021-03-21T13:09:22.000Z</time>
      </trkpt>
      <trkpt lat="45.00176" lon="6.03954">
        <ele>1849</ele>
        <time>2021-03-21T13:09:23.000Z</time>
      </trkpt>
      <trkpt lat="45.00176" lon="6.03954">
        <ele>1849.1999511719</ele>
        <time>2021-03-21T13:09:24.000Z</time>
      </trkpt>
      <trkpt lat="45.00176" lon="6.03954">
        <ele>1848.8000488281</ele>
        <time>2021-03-21T13:09:25.000Z</time>
      </trkpt>
      <trkpt lat="45.00176" lon="6.03954">
        <ele>1848.8000488281</ele>
        <time>2021-03-21T13:09:26.000Z</time>
      </trkpt>
      <trkpt lat="45.00176" lon="6.03954">
        <ele>1848.5999755859</ele>
        <time>2021-03-21T13:09:27.000Z</time>
      </trkpt>
      <trkpt lat="45.00176" lon="6.03954">
        <ele>1848.5999755859</ele>
        <time>2021-03-21T13:09:28.000Z</time>
      </trkpt>
      <trkpt lat="45.00176" lon="6.03954">
        <ele>1848.5999755859</ele>
        <time>2021-03-21T13:09:29.000Z</time>
      </trkpt>
      <trkpt lat="45.00176" lon="6.03954">
        <ele>1848.5999755859</ele>
        <time>2021-03-21T13:09:30.000Z</time>
      </trkpt>
      <trkpt lat="45.00176" lon="6.03954">
        <ele>1848.8000488281</ele>
        <time>2021-03-21T13:09:31.000Z</time>
      </trkpt>
      <trkpt lat="45.00176" lon="6.03953">
        <ele>1848.5999755859</ele>
        <time>2021-03-21T13:09:32.000Z</time>
      </trkpt>
      <trkpt lat="45.00176" lon="6.03954">
        <ele>1848.8000488281</ele>
        <time>2021-03-21T13:09:33.000Z</time>
      </trkpt>
      <trkpt lat="45.00175" lon="6.03954">
        <ele>1849</ele>
        <time>2021-03-21T13:09:34.000Z</time>
      </trkpt>
      <trkpt lat="45.00175" lon="6.03954">
        <ele>1849</ele>
        <time>2021-03-21T13:09:35.000Z</time>
      </trkpt>
      <trkpt lat="45.00175" lon="6.03954">
        <ele>1849</ele>
        <time>2021-03-21T13:09:36.000Z</time>
      </trkpt>
      <trkpt lat="45.00175" lon="6.03954">
        <ele>1849</ele>
        <time>2021-03-21T13:09:37.000Z</time>
      </trkpt>
      <trkpt lat="45.00175" lon="6.03954">
        <ele>1849.1999511719</ele>
        <time>2021-03-21T13:09:38.000Z</time>
      </trkpt>
      <trkpt lat="45.00174" lon="6.03954">
        <ele>1849.4000244141</ele>
        <time>2021-03-21T13:09:39.000Z</time>
      </trkpt>
      <trkpt lat="45.00174" lon="6.03954">
        <ele>1849.5999755859</ele>
        <time>2021-03-21T13:09:40.000Z</time>
      </trkpt>
      <trkpt lat="45.00174" lon="6.03954">
        <ele>1849.5999755859</ele>
        <time>2021-03-21T13:09:41.000Z</time>
      </trkpt>
      <trkpt lat="45.00174" lon="6.03954">
        <ele>1849.8000488281</ele>
        <time>2021-03-21T13:09:42.000Z</time>
      </trkpt>
      <trkpt lat="45.00174" lon="6.03954">
        <ele>1849.5999755859</ele>
        <time>2021-03-21T13:09:43.000Z</time>
      </trkpt>
      <trkpt lat="45.00174" lon="6.03953">
        <ele>1849.1999511719</ele>
        <time>2021-03-21T13:09:44.000Z</time>
      </trkpt>
      <trkpt lat="45.00174" lon="6.03953">
        <ele>1849</ele>
        <time>2021-03-21T13:09:45.000Z</time>
      </trkpt>
      <trkpt lat="45.00175" lon="6.03953">
        <ele>1848.8000488281</ele>
        <time>2021-03-21T13:09:46.000Z</time>
      </trkpt>
      <trkpt lat="45.00175" lon="6.03953">
        <ele>1848.5999755859</ele>
        <time>2021-03-21T13:09:47.000Z</time>
      </trkpt>
      <trkpt lat="45.00175" lon="6.03952">
        <ele>1848.5999755859</ele>
        <time>2021-03-21T13:09:48.000Z</time>
      </trkpt>
      <trkpt lat="45.00175" lon="6.03952">
        <ele>1848.5999755859</ele>
        <time>2021-03-21T13:09:49.000Z</time>
      </trkpt>
      <trkpt lat="45.00175" lon="6.03953">
        <ele>1848.5999755859</ele>
        <time>2021-03-21T13:09:50.000Z</time>
      </trkpt>
      <trkpt lat="45.00175" lon="6.03953">
        <ele>1848.5999755859</ele>
        <time>2021-03-21T13:09:51.000Z</time>
      </trkpt>
      <trkpt lat="45.00175" lon="6.03953">
        <ele>1848.5999755859</ele>
        <time>2021-03-21T13:09:52.000Z</time>
      </trkpt>
      <trkpt lat="45.00175" lon="6.03952">
        <ele>1848.4000244141</ele>
        <time>2021-03-21T13:09:53.000Z</time>
      </trkpt>
      <trkpt lat="45.00175" lon="6.03952">
        <ele>1848.4000244141</ele>
        <time>2021-03-21T13:09:54.000Z</time>
      </trkpt>
      <trkpt lat="45.00175" lon="6.03952">
        <ele>1848.4000244141</ele>
        <time>2021-03-21T13:09:55.000Z</time>
      </trkpt>
      <trkpt lat="45.00175" lon="6.03953">
        <ele>1848.4000244141</ele>
        <time>2021-03-21T13:09:56.000Z</time>
      </trkpt>
      <trkpt lat="45.00175" lon="6.03953">
        <ele>1848.5999755859</ele>
        <time>2021-03-21T13:09:57.000Z</time>
      </trkpt>
      <trkpt lat="45.00175" lon="6.03953">
        <ele>1848.5999755859</ele>
        <time>2021-03-21T13:09:58.000Z</time>
      </trkpt>
      <trkpt lat="45.00175" lon="6.03953">
        <ele>1848.8000488281</ele>
        <time>2021-03-21T13:09:59.000Z</time>
      </trkpt>
      <trkpt lat="45.00175" lon="6.03953">
        <ele>1848.8000488281</ele>
        <time>2021-03-21T13:10:00.000Z</time>
      </trkpt>
      <trkpt lat="45.00175" lon="6.03953">
        <ele>1848.8000488281</ele>
        <time>2021-03-21T13:10:01.000Z</time>
      </trkpt>
      <trkpt lat="45.00175" lon="6.03953">
        <ele>1848.8000488281</ele>
        <time>2021-03-21T13:10:02.000Z</time>
      </trkpt>
      <trkpt lat="45.00175" lon="6.03953">
        <ele>1848.8000488281</ele>
        <time>2021-03-21T13:10:03.000Z</time>
      </trkpt>
      <trkpt lat="45.00175" lon="6.03953">
        <ele>1848.5999755859</ele>
        <time>2021-03-21T13:10:04.000Z</time>
      </trkpt>
      <trkpt lat="45.00175" lon="6.03953">
        <ele>1848.8000488281</ele>
        <time>2021-03-21T13:10:05.000Z</time>
      </trkpt>
      <trkpt lat="45.00175" lon="6.03953">
        <ele>1848.8000488281</ele>
        <time>2021-03-21T13:10:06.000Z</time>
      </trkpt>
      <trkpt lat="45.00175" lon="6.03953">
        <ele>1848.8000488281</ele>
        <time>2021-03-21T13:10:07.000Z</time>
      </trkpt>
      <trkpt lat="45.00175" lon="6.03953">
        <ele>1848.8000488281</ele>
        <time>2021-03-21T13:10:08.000Z</time>
      </trkpt>
      <trkpt lat="45.00175" lon="6.03953">
        <ele>1849</ele>
        <time>2021-03-21T13:10:09.000Z</time>
      </trkpt>
      <trkpt lat="45.00175" lon="6.03953">
        <ele>1849</ele>
        <time>2021-03-21T13:10:10.000Z</time>
      </trkpt>
      <trkpt lat="45.00175" lon="6.03954">
        <ele>1849</ele>
        <time>2021-03-21T13:10:11.000Z</time>
      </trkpt>
      <trkpt lat="45.00175" lon="6.03954">
        <ele>1849</ele>
        <time>2021-03-21T13:10:12.000Z</time>
      </trkpt>
      <trkpt lat="45.00175" lon="6.03954">
        <ele>1849.1999511719</ele>
        <time>2021-03-21T13:10:13.000Z</time>
      </trkpt>
      <trkpt lat="45.00175" lon="6.03954">
        <ele>1849.1999511719</ele>
        <time>2021-03-21T13:10:14.000Z</time>
      </trkpt>
      <trkpt lat="45.00176" lon="6.03955">
        <ele>1849.1999511719</ele>
        <time>2021-03-21T13:10:15.000Z</time>
      </trkpt>
      <trkpt lat="45.00176" lon="6.03955">
        <ele>1849.1999511719</ele>
        <time>2021-03-21T13:10:16.000Z</time>
      </trkpt>
      <trkpt lat="45.00176" lon="6.03954">
        <ele>1849</ele>
        <time>2021-03-21T13:10:17.000Z</time>
      </trkpt>
      <trkpt lat="45.00176" lon="6.03955">
        <ele>1849</ele>
        <time>2021-03-21T13:10:18.000Z</time>
      </trkpt>
      <trkpt lat="45.00176" lon="6.03955">
        <ele>1849</ele>
        <time>2021-03-21T13:10:19.000Z</time>
      </trkpt>
      <trkpt lat="45.00176" lon="6.03955">
        <ele>1849.4000244141</ele>
        <time>2021-03-21T13:10:20.000Z</time>
      </trkpt>
      <trkpt lat="45.00176" lon="6.03956">
        <ele>1849.5999755859</ele>
        <time>2021-03-21T13:10:21.000Z</time>
      </trkpt>
      <trkpt lat="45.00176" lon="6.03956">
        <ele>1849.8000488281</ele>
        <time>2021-03-21T13:10:22.000Z</time>
      </trkpt>
      <trkpt lat="45.00177" lon="6.03955">
        <ele>1848.8000488281</ele>
        <time>2021-03-21T13:10:23.000Z</time>
      </trkpt>
      <trkpt lat="45.00177" lon="6.03955">
        <ele>1848.8000488281</ele>
        <time>2021-03-21T13:10:24.000Z</time>
      </trkpt>
      <trkpt lat="45.00177" lon="6.03954">
        <ele>1848.8000488281</ele>
        <time>2021-03-21T13:10:25.000Z</time>
      </trkpt>
      <trkpt lat="45.00177" lon="6.03955">
        <ele>1848.8000488281</ele>
        <time>2021-03-21T13:10:26.000Z</time>
      </trkpt>
      <trkpt lat="45.00177" lon="6.03955">
        <ele>1848.8000488281</ele>
        <time>2021-03-21T13:10:27.000Z</time>
      </trkpt>
      <trkpt lat="45.00176" lon="6.03954">
        <ele>1848.8000488281</ele>
        <time>2021-03-21T13:10:28.000Z</time>
      </trkpt>
      <trkpt lat="45.00176" lon="6.03954">
        <ele>1848.5999755859</ele>
        <time>2021-03-21T13:10:29.000Z</time>
      </trkpt>
      <trkpt lat="45.00176" lon="6.03954">
        <ele>1848.5999755859</ele>
        <time>2021-03-21T13:10:30.000Z</time>
      </trkpt>
      <trkpt lat="45.00176" lon="6.03954">
        <ele>1848.8000488281</ele>
        <time>2021-03-21T13:10:31.000Z</time>
      </trkpt>
      <trkpt lat="45.00177" lon="6.03954">
        <ele>1848.4000244141</ele>
        <time>2021-03-21T13:10:32.000Z</time>
      </trkpt>
      <trkpt lat="45.00176" lon="6.03954">
        <ele>1848.5999755859</ele>
        <time>2021-03-21T13:10:33.000Z</time>
      </trkpt>
      <trkpt lat="45.00176" lon="6.03954">
        <ele>1848.8000488281</ele>
        <time>2021-03-21T13:10:34.000Z</time>
      </trkpt>
      <trkpt lat="45.00176" lon="6.03954">
        <ele>1849</ele>
        <time>2021-03-21T13:10:35.000Z</time>
      </trkpt>
      <trkpt lat="45.00176" lon="6.03955">
        <ele>1849</ele>
        <time>2021-03-21T13:10:36.000Z</time>
      </trkpt>
      <trkpt lat="45.00176" lon="6.03955">
        <ele>1849.1999511719</ele>
        <time>2021-03-21T13:10:37.000Z</time>
      </trkpt>
      <trkpt lat="45.00176" lon="6.03955">
        <ele>1849.1999511719</ele>
        <time>2021-03-21T13:10:38.000Z</time>
      </trkpt>
      <trkpt lat="45.00176" lon="6.03955">
        <ele>1849.4000244141</ele>
        <time>2021-03-21T13:10:39.000Z</time>
      </trkpt>
      <trkpt lat="45.00175" lon="6.03955">
        <ele>1849.5999755859</ele>
        <time>2021-03-21T13:10:40.000Z</time>
      </trkpt>
      <trkpt lat="45.00175" lon="6.03955">
        <ele>1849.5999755859</ele>
        <time>2021-03-21T13:10:41.000Z</time>
      </trkpt>
      <trkpt lat="45.00175" lon="6.03955">
        <ele>1849.8000488281</ele>
        <time>2021-03-21T13:10:42.000Z</time>
      </trkpt>
      <trkpt lat="45.00175" lon="6.03955">
        <ele>1850.1999511719</ele>
        <time>2021-03-21T13:10:43.000Z</time>
      </trkpt>
      <trkpt lat="45.00175" lon="6.03955">
        <ele>1850.1999511719</ele>
        <time>2021-03-21T13:10:44.000Z</time>
      </trkpt>
      <trkpt lat="45.00175" lon="6.03956">
        <ele>1850.4000244141</ele>
        <time>2021-03-21T13:10:45.000Z</time>
      </trkpt>
      <trkpt lat="45.00175" lon="6.03956">
        <ele>1850.4000244141</ele>
        <time>2021-03-21T13:10:46.000Z</time>
      </trkpt>
      <trkpt lat="45.00175" lon="6.03956">
        <ele>1850.5999755859</ele>
        <time>2021-03-21T13:10:47.000Z</time>
      </trkpt>
      <trkpt lat="45.00175" lon="6.03956">
        <ele>1850.5999755859</ele>
        <time>2021-03-21T13:10:48.000Z</time>
      </trkpt>
      <trkpt lat="45.00174" lon="6.03956">
        <ele>1850.8000488281</ele>
        <time>2021-03-21T13:10:49.000Z</time>
      </trkpt>
      <trkpt lat="45.00174" lon="6.03956">
        <ele>1850.8000488281</ele>
        <time>2021-03-21T13:10:50.000Z</time>
      </trkpt>
      <trkpt lat="45.00174" lon="6.03956">
        <ele>1850.5999755859</ele>
        <time>2021-03-21T13:10:51.000Z</time>
      </trkpt>
      <trkpt lat="45.00174" lon="6.03956">
        <ele>1850.8000488281</ele>
        <time>2021-03-21T13:10:52.000Z</time>
      </trkpt>
      <trkpt lat="45.00175" lon="6.03956">
        <ele>1850.4000244141</ele>
        <time>2021-03-21T13:10:53.000Z</time>
      </trkpt>
      <trkpt lat="45.00175" lon="6.03955">
        <ele>1850.1999511719</ele>
        <time>2021-03-21T13:10:54.000Z</time>
      </trkpt>
      <trkpt lat="45.00175" lon="6.03955">
        <ele>1849.8000488281</ele>
        <time>2021-03-21T13:10:55.000Z</time>
      </trkpt>
      <trkpt lat="45.00175" lon="6.03955">
        <ele>1849.5999755859</ele>
        <time>2021-03-21T13:10:56.000Z</time>
      </trkpt>
      <trkpt lat="45.00175" lon="6.03955">
        <ele>1849.8000488281</ele>
        <time>2021-03-21T13:10:57.000Z</time>
      </trkpt>
      <trkpt lat="45.00175" lon="6.03955">
        <ele>1849.8000488281</ele>
        <time>2021-03-21T13:10:58.000Z</time>
      </trkpt>
      <trkpt lat="45.00175" lon="6.03955">
        <ele>1849.5999755859</ele>
        <time>2021-03-21T13:10:59.000Z</time>
      </trkpt>
      <trkpt lat="45.00175" lon="6.03955">
        <ele>1850</ele>
        <time>2021-03-21T13:11:00.000Z</time>
      </trkpt>
      <trkpt lat="45.00175" lon="6.03954">
        <ele>1849.5999755859</ele>
        <time>2021-03-21T13:11:01.000Z</time>
      </trkpt>
      <trkpt lat="45.00175" lon="6.03954">
        <ele>1849.1999511719</ele>
        <time>2021-03-21T13:11:02.000Z</time>
      </trkpt>
      <trkpt lat="45.00175" lon="6.03954">
        <ele>1849</ele>
        <time>2021-03-21T13:11:03.000Z</time>
      </trkpt>
      <trkpt lat="45.00175" lon="6.03953">
        <ele>1848.8000488281</ele>
        <time>2021-03-21T13:11:04.000Z</time>
      </trkpt>
      <trkpt lat="45.00175" lon="6.03953">
        <ele>1848.8000488281</ele>
        <time>2021-03-21T13:11:05.000Z</time>
      </trkpt>
      <trkpt lat="45.00175" lon="6.03953">
        <ele>1848.8000488281</ele>
        <time>2021-03-21T13:11:06.000Z</time>
      </trkpt>
      <trkpt lat="45.00175" lon="6.03953">
        <ele>1849.1999511719</ele>
        <time>2021-03-21T13:11:07.000Z</time>
      </trkpt>
      <trkpt lat="45.00175" lon="6.03954">
        <ele>1849.4000244141</ele>
        <time>2021-03-21T13:11:08.000Z</time>
      </trkpt>
      <trkpt lat="45.00174" lon="6.03954">
        <ele>1849.4000244141</ele>
        <time>2021-03-21T13:11:09.000Z</time>
      </trkpt>
      <trkpt lat="45.00174" lon="6.03954">
        <ele>1849.4000244141</ele>
        <time>2021-03-21T13:11:10.000Z</time>
      </trkpt>
      <trkpt lat="45.00174" lon="6.03954">
        <ele>1849.4000244141</ele>
        <time>2021-03-21T13:11:11.000Z</time>
      </trkpt>
      <trkpt lat="45.00175" lon="6.03954">
        <ele>1849.4000244141</ele>
        <time>2021-03-21T13:11:12.000Z</time>
      </trkpt>
      <trkpt lat="45.00175" lon="6.03954">
        <ele>1849.8000488281</ele>
        <time>2021-03-21T13:11:13.000Z</time>
      </trkpt>
      <trkpt lat="45.00175" lon="6.03955">
        <ele>1849.8000488281</ele>
        <time>2021-03-21T13:11:14.000Z</time>
      </trkpt>
      <trkpt lat="45.00175" lon="6.03955">
        <ele>1849.8000488281</ele>
        <time>2021-03-21T13:11:15.000Z</time>
      </trkpt>
      <trkpt lat="45.00175" lon="6.03955">
        <ele>1850</ele>
        <time>2021-03-21T13:11:16.000Z</time>
      </trkpt>
      <trkpt lat="45.00175" lon="6.03956">
        <ele>1850.1999511719</ele>
        <time>2021-03-21T13:11:17.000Z</time>
      </trkpt>
      <trkpt lat="45.00175" lon="6.03956">
        <ele>1850.4000244141</ele>
        <time>2021-03-21T13:11:18.000Z</time>
      </trkpt>
      <trkpt lat="45.00175" lon="6.03956">
        <ele>1850.1999511719</ele>
        <time>2021-03-21T13:11:19.000Z</time>
      </trkpt>
      <trkpt lat="45.00175" lon="6.03956">
        <ele>1850.1999511719</ele>
        <time>2021-03-21T13:11:20.000Z</time>
      </trkpt>
      <trkpt lat="45.00175" lon="6.03956">
        <ele>1850.4000244141</ele>
        <time>2021-03-21T13:11:21.000Z</time>
      </trkpt>
      <trkpt lat="45.00175" lon="6.03956">
        <ele>1850.4000244141</ele>
        <time>2021-03-21T13:11:22.000Z</time>
      </trkpt>
      <trkpt lat="45.00175" lon="6.03956">
        <ele>1850.4000244141</ele>
        <time>2021-03-21T13:11:23.000Z</time>
      </trkpt>
      <trkpt lat="45.00175" lon="6.03956">
        <ele>1850.4000244141</ele>
        <time>2021-03-21T13:11:24.000Z</time>
      </trkpt>
      <trkpt lat="45.00175" lon="6.03956">
        <ele>1850.4000244141</ele>
        <time>2021-03-21T13:11:25.000Z</time>
      </trkpt>
      <trkpt lat="45.00175" lon="6.03956">
        <ele>1850.1999511719</ele>
        <time>2021-03-21T13:11:26.000Z</time>
      </trkpt>
      <trkpt lat="45.00175" lon="6.03956">
        <ele>1850</ele>
        <time>2021-03-21T13:11:27.000Z</time>
      </trkpt>
      <trkpt lat="45.00176" lon="6.03956">
        <ele>1849.8000488281</ele>
        <time>2021-03-21T13:11:28.000Z</time>
      </trkpt>
      <trkpt lat="45.00176" lon="6.03955">
        <ele>1849.4000244141</ele>
        <time>2021-03-21T13:11:29.000Z</time>
      </trkpt>
      <trkpt lat="45.00176" lon="6.03955">
        <ele>1849.1999511719</ele>
        <time>2021-03-21T13:11:30.000Z</time>
      </trkpt>
      <trkpt lat="45.00177" lon="6.03955">
        <ele>1848.8000488281</ele>
        <time>2021-03-21T13:11:31.000Z</time>
      </trkpt>
      <trkpt lat="45.00177" lon="6.03955">
        <ele>1849</ele>
        <time>2021-03-21T13:11:32.000Z</time>
      </trkpt>
      <trkpt lat="45.00177" lon="6.03955">
        <ele>1848.8000488281</ele>
        <time>2021-03-21T13:11:33.000Z</time>
      </trkpt>
      <trkpt lat="45.00177" lon="6.03954">
        <ele>1848.5999755859</ele>
        <time>2021-03-21T13:11:34.000Z</time>
      </trkpt>
      <trkpt lat="45.00177" lon="6.03954">
        <ele>1848.1999511719</ele>
        <time>2021-03-21T13:11:35.000Z</time>
      </trkpt>
      <trkpt lat="45.00178" lon="6.03954">
        <ele>1848.1999511719</ele>
        <time>2021-03-21T13:11:36.000Z</time>
      </trkpt>
      <trkpt lat="45.00178" lon="6.03954">
        <ele>1848</ele>
        <time>2021-03-21T13:11:37.000Z</time>
      </trkpt>
      <trkpt lat="45.00177" lon="6.03954">
        <ele>1848.1999511719</ele>
        <time>2021-03-21T13:11:38.000Z</time>
      </trkpt>
      <trkpt lat="45.00177" lon="6.03954">
        <ele>1848.1999511719</ele>
        <time>2021-03-21T13:11:39.000Z</time>
      </trkpt>
      <trkpt lat="45.00176" lon="6.03954">
        <ele>1848.4000244141</ele>
        <time>2021-03-21T13:11:40.000Z</time>
      </trkpt>
      <trkpt lat="45.00177" lon="6.03953">
        <ele>1847.8000488281</ele>
        <time>2021-03-21T13:11:41.000Z</time>
      </trkpt>
      <trkpt lat="45.00177" lon="6.03952">
        <ele>1847.5999755859</ele>
        <time>2021-03-21T13:11:42.000Z</time>
      </trkpt>
      <trkpt lat="45.00176" lon="6.03952">
        <ele>1847.8000488281</ele>
        <time>2021-03-21T13:11:43.000Z</time>
      </trkpt>
      <trkpt lat="45.00177" lon="6.03952">
        <ele>1847.5999755859</ele>
        <time>2021-03-21T13:11:44.000Z</time>
      </trkpt>
      <trkpt lat="45.00177" lon="6.03952">
        <ele>1847.4000244141</ele>
        <time>2021-03-21T13:11:45.000Z</time>
      </trkpt>
      <trkpt lat="45.00176" lon="6.03952">
        <ele>1847.5999755859</ele>
        <time>2021-03-21T13:11:46.000Z</time>
      </trkpt>
      <trkpt lat="45.00176" lon="6.03952">
        <ele>1848.1999511719</ele>
        <time>2021-03-21T13:11:47.000Z</time>
      </trkpt>
      <trkpt lat="45.00176" lon="6.03952">
        <ele>1847.5999755859</ele>
        <time>2021-03-21T13:11:48.000Z</time>
      </trkpt>
      <trkpt lat="45.00176" lon="6.03952">
        <ele>1847.8000488281</ele>
        <time>2021-03-21T13:11:49.000Z</time>
      </trkpt>
      <trkpt lat="45.00176" lon="6.03952">
        <ele>1847.8000488281</ele>
        <time>2021-03-21T13:11:50.000Z</time>
      </trkpt>
      <trkpt lat="45.00176" lon="6.03952">
        <ele>1848</ele>
        <time>2021-03-21T13:11:51.000Z</time>
      </trkpt>
      <trkpt lat="45.00175" lon="6.03952">
        <ele>1848.1999511719</ele>
        <time>2021-03-21T13:11:52.000Z</time>
      </trkpt>
      <trkpt lat="45.00175" lon="6.03952">
        <ele>1848.1999511719</ele>
        <time>2021-03-21T13:11:53.000Z</time>
      </trkpt>
      <trkpt lat="45.00175" lon="6.03952">
        <ele>1848.1999511719</ele>
        <time>2021-03-21T13:11:54.000Z</time>
      </trkpt>
      <trkpt lat="45.00175" lon="6.03952">
        <ele>1848.1999511719</ele>
        <time>2021-03-21T13:11:55.000Z</time>
      </trkpt>
      <trkpt lat="45.00175" lon="6.03951">
        <ele>1848</ele>
        <time>2021-03-21T13:11:56.000Z</time>
      </trkpt>
      <trkpt lat="45.00175" lon="6.03951">
        <ele>1848</ele>
        <time>2021-03-21T13:11:57.000Z</time>
      </trkpt>
      <trkpt lat="45.00175" lon="6.03951">
        <ele>1848</ele>
        <time>2021-03-21T13:11:58.000Z</time>
      </trkpt>
      <trkpt lat="45.00175" lon="6.03951">
        <ele>1848</ele>
        <time>2021-03-21T13:11:59.000Z</time>
      </trkpt>
      <trkpt lat="45.00175" lon="6.03951">
        <ele>1848</ele>
        <time>2021-03-21T13:12:00.000Z</time>
      </trkpt>
      <trkpt lat="45.00175" lon="6.03951">
        <ele>1848</ele>
        <time>2021-03-21T13:12:01.000Z</time>
      </trkpt>
      <trkpt lat="45.00175" lon="6.03951">
        <ele>1848</ele>
        <time>2021-03-21T13:12:02.000Z</time>
      </trkpt>
      <trkpt lat="45.00175" lon="6.03951">
        <ele>1848</ele>
        <time>2021-03-21T13:12:03.000Z</time>
      </trkpt>
      <trkpt lat="45.00175" lon="6.03951">
        <ele>1848</ele>
        <time>2021-03-21T13:12:04.000Z</time>
      </trkpt>
      <trkpt lat="45.00175" lon="6.03951">
        <ele>1847.8000488281</ele>
        <time>2021-03-21T13:12:05.000Z</time>
      </trkpt>
      <trkpt lat="45.00175" lon="6.03951">
        <ele>1847.8000488281</ele>
        <time>2021-03-21T13:12:06.000Z</time>
      </trkpt>
      <trkpt lat="45.00175" lon="6.03951">
        <ele>1848</ele>
        <time>2021-03-21T13:12:07.000Z</time>
      </trkpt>
      <trkpt lat="45.00175" lon="6.03952">
        <ele>1848.1999511719</ele>
        <time>2021-03-21T13:12:08.000Z</time>
      </trkpt>
      <trkpt lat="45.00175" lon="6.03952">
        <ele>1848.5999755859</ele>
        <time>2021-03-21T13:12:09.000Z</time>
      </trkpt>
      <trkpt lat="45.00174" lon="6.03952">
        <ele>1848.8000488281</ele>
        <time>2021-03-21T13:12:10.000Z</time>
      </trkpt>
      <trkpt lat="45.00174" lon="6.03952">
        <ele>1849</ele>
        <time>2021-03-21T13:12:11.000Z</time>
      </trkpt>
      <trkpt lat="45.00174" lon="6.03952">
        <ele>1849</ele>
        <time>2021-03-21T13:12:12.000Z</time>
      </trkpt>
      <trkpt lat="45.00174" lon="6.03952">
        <ele>1848.8000488281</ele>
        <time>2021-03-21T13:12:13.000Z</time>
      </trkpt>
      <trkpt lat="45.00174" lon="6.03952">
        <ele>1848.8000488281</ele>
        <time>2021-03-21T13:12:14.000Z</time>
      </trkpt>
      <trkpt lat="45.00174" lon="6.03951">
        <ele>1848.4000244141</ele>
        <time>2021-03-21T13:12:15.000Z</time>
      </trkpt>
      <trkpt lat="45.00175" lon="6.03951">
        <ele>1848.1999511719</ele>
        <time>2021-03-21T13:12:16.000Z</time>
      </trkpt>
      <trkpt lat="45.00175" lon="6.03951">
        <ele>1848</ele>
        <time>2021-03-21T13:12:17.000Z</time>
      </trkpt>
      <trkpt lat="45.00175" lon="6.03951">
        <ele>1848</ele>
        <time>2021-03-21T13:12:18.000Z</time>
      </trkpt>
      <trkpt lat="45.00175" lon="6.03951">
        <ele>1847.8000488281</ele>
        <time>2021-03-21T13:12:19.000Z</time>
      </trkpt>
      <trkpt lat="45.00175" lon="6.03951">
        <ele>1848</ele>
        <time>2021-03-21T13:12:20.000Z</time>
      </trkpt>
      <trkpt lat="45.00175" lon="6.03952">
        <ele>1848.4000244141</ele>
        <time>2021-03-21T13:12:21.000Z</time>
      </trkpt>
      <trkpt lat="45.00175" lon="6.03953">
        <ele>1848.8000488281</ele>
        <time>2021-03-21T13:12:22.000Z</time>
      </trkpt>
      <trkpt lat="45.00175" lon="6.03953">
        <ele>1849</ele>
        <time>2021-03-21T13:12:23.000Z</time>
      </trkpt>
      <trkpt lat="45.00175" lon="6.03953">
        <ele>1849.1999511719</ele>
        <time>2021-03-21T13:12:24.000Z</time>
      </trkpt>
      <trkpt lat="45.00175" lon="6.03954">
        <ele>1849.4000244141</ele>
        <time>2021-03-21T13:12:25.000Z</time>
      </trkpt>
      <trkpt lat="45.00175" lon="6.03954">
        <ele>1849.1999511719</ele>
        <time>2021-03-21T13:12:26.000Z</time>
      </trkpt>
      <trkpt lat="45.00175" lon="6.03954">
        <ele>1849.1999511719</ele>
        <time>2021-03-21T13:12:27.000Z</time>
      </trkpt>
      <trkpt lat="45.00174" lon="6.03954">
        <ele>1849.4000244141</ele>
        <time>2021-03-21T13:12:28.000Z</time>
      </trkpt>
      <trkpt lat="45.00174" lon="6.03954">
        <ele>1849.4000244141</ele>
        <time>2021-03-21T13:12:29.000Z</time>
      </trkpt>
      <trkpt lat="45.00174" lon="6.03953">
        <ele>1849.1999511719</ele>
        <time>2021-03-21T13:12:30.000Z</time>
      </trkpt>
      <trkpt lat="45.00174" lon="6.03953">
        <ele>1849.1999511719</ele>
        <time>2021-03-21T13:12:31.000Z</time>
      </trkpt>
      <trkpt lat="45.00174" lon="6.03953">
        <ele>1849.4000244141</ele>
        <time>2021-03-21T13:12:32.000Z</time>
      </trkpt>
      <trkpt lat="45.00174" lon="6.03953">
        <ele>1849.4000244141</ele>
        <time>2021-03-21T13:12:33.000Z</time>
      </trkpt>
      <trkpt lat="45.00174" lon="6.03953">
        <ele>1849.5999755859</ele>
        <time>2021-03-21T13:12:34.000Z</time>
      </trkpt>
      <trkpt lat="45.00174" lon="6.03953">
        <ele>1849.5999755859</ele>
        <time>2021-03-21T13:12:35.000Z</time>
      </trkpt>
      <trkpt lat="45.00174" lon="6.03953">
        <ele>1849.4000244141</ele>
        <time>2021-03-21T13:12:36.000Z</time>
      </trkpt>
      <trkpt lat="45.00174" lon="6.03953">
        <ele>1849</ele>
        <time>2021-03-21T13:12:37.000Z</time>
      </trkpt>
      <trkpt lat="45.00174" lon="6.03952">
        <ele>1849</ele>
        <time>2021-03-21T13:12:38.000Z</time>
      </trkpt>
      <trkpt lat="45.00174" lon="6.03953">
        <ele>1849</ele>
        <time>2021-03-21T13:12:39.000Z</time>
      </trkpt>
      <trkpt lat="45.00174" lon="6.03953">
        <ele>1849.1999511719</ele>
        <time>2021-03-21T13:12:40.000Z</time>
      </trkpt>
      <trkpt lat="45.00174" lon="6.03953">
        <ele>1849</ele>
        <time>2021-03-21T13:12:41.000Z</time>
      </trkpt>
      <trkpt lat="45.00174" lon="6.03953">
        <ele>1849</ele>
        <time>2021-03-21T13:12:42.000Z</time>
      </trkpt>
      <trkpt lat="45.00175" lon="6.03953">
        <ele>1849</ele>
        <time>2021-03-21T13:12:43.000Z</time>
      </trkpt>
      <trkpt lat="45.00175" lon="6.03953">
        <ele>1849</ele>
        <time>2021-03-21T13:12:44.000Z</time>
      </trkpt>
      <trkpt lat="45.00175" lon="6.03953">
        <ele>1849</ele>
        <time>2021-03-21T13:12:45.000Z</time>
      </trkpt>
      <trkpt lat="45.00175" lon="6.03953">
        <ele>1849</ele>
        <time>2021-03-21T13:12:46.000Z</time>
      </trkpt>
      <trkpt lat="45.00175" lon="6.03953">
        <ele>1848.8000488281</ele>
        <time>2021-03-21T13:12:47.000Z</time>
      </trkpt>
      <trkpt lat="45.00175" lon="6.03953">
        <ele>1848.5999755859</ele>
        <time>2021-03-21T13:12:48.000Z</time>
      </trkpt>
      <trkpt lat="45.00175" lon="6.03952">
        <ele>1848.5999755859</ele>
        <time>2021-03-21T13:12:49.000Z</time>
      </trkpt>
      <trkpt lat="45.00175" lon="6.03952">
        <ele>1848.5999755859</ele>
        <time>2021-03-21T13:12:50.000Z</time>
      </trkpt>
      <trkpt lat="45.00175" lon="6.03952">
        <ele>1848.8000488281</ele>
        <time>2021-03-21T13:12:51.000Z</time>
      </trkpt>
      <trkpt lat="45.00175" lon="6.03952">
        <ele>1848.5999755859</ele>
        <time>2021-03-21T13:12:52.000Z</time>
      </trkpt>
      <trkpt lat="45.00175" lon="6.03952">
        <ele>1848.5999755859</ele>
        <time>2021-03-21T13:12:53.000Z</time>
      </trkpt>
      <trkpt lat="45.00175" lon="6.03952">
        <ele>1848.5999755859</ele>
        <time>2021-03-21T13:12:54.000Z</time>
      </trkpt>
      <trkpt lat="45.00175" lon="6.03952">
        <ele>1848.5999755859</ele>
        <time>2021-03-21T13:12:55.000Z</time>
      </trkpt>
      <trkpt lat="45.00174" lon="6.03952">
        <ele>1848.5999755859</ele>
        <time>2021-03-21T13:12:56.000Z</time>
      </trkpt>
      <trkpt lat="45.00174" lon="6.03952">
        <ele>1848.8000488281</ele>
        <time>2021-03-21T13:12:57.000Z</time>
      </trkpt>
      <trkpt lat="45.00174" lon="6.03953">
        <ele>1849.1999511719</ele>
        <time>2021-03-21T13:12:58.000Z</time>
      </trkpt>
      <trkpt lat="45.00174" lon="6.03953">
        <ele>1849.4000244141</ele>
        <time>2021-03-21T13:12:59.000Z</time>
      </trkpt>
      <trkpt lat="45.00174" lon="6.03953">
        <ele>1849.4000244141</ele>
        <time>2021-03-21T13:13:00.000Z</time>
      </trkpt>
      <trkpt lat="45.00174" lon="6.03953">
        <ele>1849.4000244141</ele>
        <time>2021-03-21T13:13:01.000Z</time>
      </trkpt>
      <trkpt lat="45.00174" lon="6.03953">
        <ele>1849.4000244141</ele>
        <time>2021-03-21T13:13:02.000Z</time>
      </trkpt>
      <trkpt lat="45.00174" lon="6.03954">
        <ele>1849.5999755859</ele>
        <time>2021-03-21T13:13:03.000Z</time>
      </trkpt>
      <trkpt lat="45.00174" lon="6.03954">
        <ele>1850</ele>
        <time>2021-03-21T13:13:04.000Z</time>
      </trkpt>
      <trkpt lat="45.00174" lon="6.03954">
        <ele>1850.1999511719</ele>
        <time>2021-03-21T13:13:05.000Z</time>
      </trkpt>
      <trkpt lat="45.00174" lon="6.03954">
        <ele>1849.5999755859</ele>
        <time>2021-03-21T13:13:06.000Z</time>
      </trkpt>
      <trkpt lat="45.00174" lon="6.03954">
        <ele>1849.5999755859</ele>
        <time>2021-03-21T13:13:07.000Z</time>
      </trkpt>
      <trkpt lat="45.00174" lon="6.03954">
        <ele>1849.8000488281</ele>
        <time>2021-03-21T13:13:08.000Z</time>
      </trkpt>
      <trkpt lat="45.00175" lon="6.03954">
        <ele>1849</ele>
        <time>2021-03-21T13:13:09.000Z</time>
      </trkpt>
      <trkpt lat="45.00178" lon="6.03952">
        <ele>1847</ele>
        <time>2021-03-21T13:13:10.000Z</time>
      </trkpt>
      <trkpt lat="45.0018" lon="6.03953">
        <ele>1846</ele>
        <time>2021-03-21T13:13:11.000Z</time>
      </trkpt>
      <trkpt lat="45.00183" lon="6.03955">
        <ele>1845.5999755859</ele>
        <time>2021-03-21T13:13:12.000Z</time>
      </trkpt>
      <trkpt lat="45.00185" lon="6.03957">
        <ele>1845</ele>
        <time>2021-03-21T13:13:13.000Z</time>
      </trkpt>
      <trkpt lat="45.00189" lon="6.03959">
        <ele>1844.1999511719</ele>
        <time>2021-03-21T13:13:14.000Z</time>
      </trkpt>
      <trkpt lat="45.00193" lon="6.03962">
        <ele>1842</ele>
        <time>2021-03-21T13:13:15.000Z</time>
      </trkpt>
      <trkpt lat="45.00198" lon="6.03966">
        <ele>1839.8000488281</ele>
        <time>2021-03-21T13:13:16.000Z</time>
      </trkpt>
      <trkpt lat="45.00203" lon="6.03969">
        <ele>1837.4000244141</ele>
        <time>2021-03-21T13:13:17.000Z</time>
      </trkpt>
      <trkpt lat="45.00208" lon="6.03972">
        <ele>1835</ele>
        <time>2021-03-21T13:13:18.000Z</time>
      </trkpt>
      <trkpt lat="45.00212" lon="6.03974">
        <ele>1832</ele>
        <time>2021-03-21T13:13:19.000Z</time>
      </trkpt>
      <trkpt lat="45.00216" lon="6.03973">
        <ele>1828.8000488281</ele>
        <time>2021-03-21T13:13:20.000Z</time>
      </trkpt>
      <trkpt lat="45.00219" lon="6.03969">
        <ele>1826.1999511719</ele>
        <time>2021-03-21T13:13:21.000Z</time>
      </trkpt>
      <trkpt lat="45.00222" lon="6.03964">
        <ele>1824</ele>
        <time>2021-03-21T13:13:22.000Z</time>
      </trkpt>
      <trkpt lat="45.00224" lon="6.03958">
        <ele>1822</ele>
        <time>2021-03-21T13:13:23.000Z</time>
      </trkpt>
      <trkpt lat="45.00228" lon="6.03951">
        <ele>1818.8000488281</ele>
        <time>2021-03-21T13:13:24.000Z</time>
      </trkpt>
      <trkpt lat="45.00232" lon="6.03948">
        <ele>1815</ele>
        <time>2021-03-21T13:13:25.000Z</time>
      </trkpt>
      <trkpt lat="45.00235" lon="6.03949">
        <ele>1813</ele>
        <time>2021-03-21T13:13:26.000Z</time>
      </trkpt>
      <trkpt lat="45.00238" lon="6.03951">
        <ele>1811.4000244141</ele>
        <time>2021-03-21T13:13:27.000Z</time>
      </trkpt>
      <trkpt lat="45.00241" lon="6.03953">
        <ele>1809.5999755859</ele>
        <time>2021-03-21T13:13:28.000Z</time>
      </trkpt>
      <trkpt lat="45.00244" lon="6.03956">
        <ele>1808</ele>
        <time>2021-03-21T13:13:29.000Z</time>
      </trkpt>
      <trkpt lat="45.00246" lon="6.03958">
        <ele>1807</ele>
        <time>2021-03-21T13:13:30.000Z</time>
      </trkpt>
      <trkpt lat="45.00248" lon="6.0396">
        <ele>1806</ele>
        <time>2021-03-21T13:13:31.000Z</time>
      </trkpt>
      <trkpt lat="45.00252" lon="6.03961">
        <ele>1803.5999755859</ele>
        <time>2021-03-21T13:13:32.000Z</time>
      </trkpt>
      <trkpt lat="45.00258" lon="6.03963">
        <ele>1799.5999755859</ele>
        <time>2021-03-21T13:13:33.000Z</time>
      </trkpt>
      <trkpt lat="45.00265" lon="6.03968">
        <ele>1795.5999755859</ele>
        <time>2021-03-21T13:13:34.000Z</time>
      </trkpt>
      <trkpt lat="45.00271" lon="6.03974">
        <ele>1793.5999755859</ele>
        <time>2021-03-21T13:13:35.000Z</time>
      </trkpt>
      <trkpt lat="45.00274" lon="6.03977">
        <ele>1792.8000488281</ele>
        <time>2021-03-21T13:13:36.000Z</time>
      </trkpt>
      <trkpt lat="45.00275" lon="6.03977">
        <ele>1791.8000488281</ele>
        <time>2021-03-21T13:13:37.000Z</time>
      </trkpt>
      <trkpt lat="45.00276" lon="6.03975">
        <ele>1790.4000244141</ele>
        <time>2021-03-21T13:13:38.000Z</time>
      </trkpt>
      <trkpt lat="45.00277" lon="6.0397">
        <ele>1788.8000488281</ele>
        <time>2021-03-21T13:13:39.000Z</time>
      </trkpt>
      <trkpt lat="45.00276" lon="6.03966">
        <ele>1789</ele>
        <time>2021-03-21T13:13:40.000Z</time>
      </trkpt>
      <trkpt lat="45.00273" lon="6.03962">
        <ele>1789.4000244141</ele>
        <time>2021-03-21T13:13:41.000Z</time>
      </trkpt>
      <trkpt lat="45.00272" lon="6.03961">
        <ele>1789.8000488281</ele>
        <time>2021-03-21T13:13:42.000Z</time>
      </trkpt>
      <trkpt lat="45.00272" lon="6.0396">
        <ele>1789.8000488281</ele>
        <time>2021-03-21T13:13:43.000Z</time>
      </trkpt>
      <trkpt lat="45.00271" lon="6.03959">
        <ele>1790.1999511719</ele>
        <time>2021-03-21T13:13:44.000Z</time>
      </trkpt>
      <trkpt lat="45.00271" lon="6.03958">
        <ele>1790.1999511719</ele>
        <time>2021-03-21T13:13:45.000Z</time>
      </trkpt>
      <trkpt lat="45.00273" lon="6.03952">
        <ele>1788.1999511719</ele>
        <time>2021-03-21T13:13:46.000Z</time>
      </trkpt>
      <trkpt lat="45.00274" lon="6.0395">
        <ele>1787.4000244141</ele>
        <time>2021-03-21T13:13:47.000Z</time>
      </trkpt>
      <trkpt lat="45.00277" lon="6.03948">
        <ele>1785.5999755859</ele>
        <time>2021-03-21T13:13:48.000Z</time>
      </trkpt>
      <trkpt lat="45.00279" lon="6.03946">
        <ele>1783.8000488281</ele>
        <time>2021-03-21T13:13:49.000Z</time>
      </trkpt>
      <trkpt lat="45.0028" lon="6.03941">
        <ele>1782.5999755859</ele>
        <time>2021-03-21T13:13:50.000Z</time>
      </trkpt>
      <trkpt lat="45.00279" lon="6.03934">
        <ele>1781.5999755859</ele>
        <time>2021-03-21T13:13:51.000Z</time>
      </trkpt>
      <trkpt lat="45.00278" lon="6.03927">
        <ele>1781</ele>
        <time>2021-03-21T13:13:52.000Z</time>
      </trkpt>
      <trkpt lat="45.00276" lon="6.03922">
        <ele>1780.5999755859</ele>
        <time>2021-03-21T13:13:53.000Z</time>
      </trkpt>
      <trkpt lat="45.00275" lon="6.0392">
        <ele>1780.5999755859</ele>
        <time>2021-03-21T13:13:54.000Z</time>
      </trkpt>
      <trkpt lat="45.00275" lon="6.03919">
        <ele>1780.5999755859</ele>
        <time>2021-03-21T13:13:55.000Z</time>
      </trkpt>
      <trkpt lat="45.00275" lon="6.0392">
        <ele>1781</ele>
        <time>2021-03-21T13:13:56.000Z</time>
      </trkpt>
      <trkpt lat="45.00274" lon="6.0392">
        <ele>1781.1999511719</ele>
        <time>2021-03-21T13:13:57.000Z</time>
      </trkpt>
      <trkpt lat="45.00274" lon="6.0392">
        <ele>1781</ele>
        <time>2021-03-21T13:13:58.000Z</time>
      </trkpt>
      <trkpt lat="45.00274" lon="6.0392">
        <ele>1781.1999511719</ele>
        <time>2021-03-21T13:13:59.000Z</time>
      </trkpt>
      <trkpt lat="45.00274" lon="6.0392">
        <ele>1781.1999511719</ele>
        <time>2021-03-21T13:14:00.000Z</time>
      </trkpt>
      <trkpt lat="45.00274" lon="6.0392">
        <ele>1781.4000244141</ele>
        <time>2021-03-21T13:14:01.000Z</time>
      </trkpt>
      <trkpt lat="45.00274" lon="6.0392">
        <ele>1781.4000244141</ele>
        <time>2021-03-21T13:14:02.000Z</time>
      </trkpt>
      <trkpt lat="45.00274" lon="6.0392">
        <ele>1781.1999511719</ele>
        <time>2021-03-21T13:14:03.000Z</time>
      </trkpt>
      <trkpt lat="45.00274" lon="6.0392">
        <ele>1781.1999511719</ele>
        <time>2021-03-21T13:14:04.000Z</time>
      </trkpt>
      <trkpt lat="45.00274" lon="6.0392">
        <ele>1781.4000244141</ele>
        <time>2021-03-21T13:14:05.000Z</time>
      </trkpt>
      <trkpt lat="45.00276" lon="6.0392">
        <ele>1780</ele>
        <time>2021-03-21T13:14:06.000Z</time>
      </trkpt>
      <trkpt lat="45.00279" lon="6.03922">
        <ele>1778.8000488281</ele>
        <time>2021-03-21T13:14:07.000Z</time>
      </trkpt>
      <trkpt lat="45.00282" lon="6.03924">
        <ele>1777.8000488281</ele>
        <time>2021-03-21T13:14:08.000Z</time>
      </trkpt>
      <trkpt lat="45.00284" lon="6.03926">
        <ele>1777.1999511719</ele>
        <time>2021-03-21T13:14:09.000Z</time>
      </trkpt>
      <trkpt lat="45.00288" lon="6.03927">
        <ele>1775.1999511719</ele>
        <time>2021-03-21T13:14:10.000Z</time>
      </trkpt>
      <trkpt lat="45.00291" lon="6.03925">
        <ele>1772</ele>
        <time>2021-03-21T13:14:11.000Z</time>
      </trkpt>
      <trkpt lat="45.00293" lon="6.03923">
        <ele>1769</ele>
        <time>2021-03-21T13:14:12.000Z</time>
      </trkpt>
      <trkpt lat="45.00297" lon="6.03921">
        <ele>1765.1999511719</ele>
        <time>2021-03-21T13:14:13.000Z</time>
      </trkpt>
      <trkpt lat="45.00301" lon="6.03921">
        <ele>1762</ele>
        <time>2021-03-21T13:14:14.000Z</time>
      </trkpt>
      <trkpt lat="45.00304" lon="6.03923">
        <ele>1760.1999511719</ele>
        <time>2021-03-21T13:14:15.000Z</time>
      </trkpt>
      <trkpt lat="45.00306" lon="6.03924">
        <ele>1759.1999511719</ele>
        <time>2021-03-21T13:14:16.000Z</time>
      </trkpt>
      <trkpt lat="45.00308" lon="6.03924">
        <ele>1757</ele>
        <time>2021-03-21T13:14:17.000Z</time>
      </trkpt>
      <trkpt lat="45.00311" lon="6.03923">
        <ele>1754.5999755859</ele>
        <time>2021-03-21T13:14:18.000Z</time>
      </trkpt>
      <trkpt lat="45.00311" lon="6.03919">
        <ele>1753.4000244141</ele>
        <time>2021-03-21T13:14:19.000Z</time>
      </trkpt>
      <trkpt lat="45.00313" lon="6.03914">
        <ele>1750.5999755859</ele>
        <time>2021-03-21T13:14:20.000Z</time>
      </trkpt>
      <trkpt lat="45.00315" lon="6.03911">
        <ele>1748.1999511719</ele>
        <time>2021-03-21T13:14:21.000Z</time>
      </trkpt>
      <trkpt lat="45.00318" lon="6.03909">
        <ele>1745.8000488281</ele>
        <time>2021-03-21T13:14:22.000Z</time>
      </trkpt>
      <trkpt lat="45.00319" lon="6.03903">
        <ele>1743.1999511719</ele>
        <time>2021-03-21T13:14:23.000Z</time>
      </trkpt>
      <trkpt lat="45.00322" lon="6.03898">
        <ele>1738.8000488281</ele>
        <time>2021-03-21T13:14:24.000Z</time>
      </trkpt>
      <trkpt lat="45.00325" lon="6.03895">
        <ele>1735.8000488281</ele>
        <time>2021-03-21T13:14:25.000Z</time>
      </trkpt>
      <trkpt lat="45.00329" lon="6.03897">
        <ele>1734.8000488281</ele>
        <time>2021-03-21T13:14:26.000Z</time>
      </trkpt>
      <trkpt lat="45.00333" lon="6.03898">
        <ele>1733</ele>
        <time>2021-03-21T13:14:27.000Z</time>
      </trkpt>
      <trkpt lat="45.00336" lon="6.03895">
        <ele>1730.1999511719</ele>
        <time>2021-03-21T13:14:28.000Z</time>
      </trkpt>
      <trkpt lat="45.00343" lon="6.03892">
        <ele>1726</ele>
        <time>2021-03-21T13:14:29.000Z</time>
      </trkpt>
      <trkpt lat="45.0035" lon="6.03892">
        <ele>1723</ele>
        <time>2021-03-21T13:14:30.000Z</time>
      </trkpt>
      <trkpt lat="45.00353" lon="6.03894">
        <ele>1722.1999511719</ele>
        <time>2021-03-21T13:14:31.000Z</time>
      </trkpt>
      <trkpt lat="45.00353" lon="6.03895">
        <ele>1722.4000244141</ele>
        <time>2021-03-21T13:14:32.000Z</time>
      </trkpt>
      <trkpt lat="45.00354" lon="6.03895">
        <ele>1722.1999511719</ele>
        <time>2021-03-21T13:14:33.000Z</time>
      </trkpt>
      <trkpt lat="45.00355" lon="6.03896">
        <ele>1722.1999511719</ele>
        <time>2021-03-21T13:14:34.000Z</time>
      </trkpt>
      <trkpt lat="45.00356" lon="6.03896">
        <ele>1722</ele>
        <time>2021-03-21T13:14:35.000Z</time>
      </trkpt>
      <trkpt lat="45.00356" lon="6.03896">
        <ele>1722.1999511719</ele>
        <time>2021-03-21T13:14:36.000Z</time>
      </trkpt>
      <trkpt lat="45.00355" lon="6.03896">
        <ele>1722.1999511719</ele>
        <time>2021-03-21T13:14:37.000Z</time>
      </trkpt>
      <trkpt lat="45.00354" lon="6.03896">
        <ele>1722.8000488281</ele>
        <time>2021-03-21T13:14:38.000Z</time>
      </trkpt>
      <trkpt lat="45.00353" lon="6.03895">
        <ele>1722.8000488281</ele>
        <time>2021-03-21T13:14:39.000Z</time>
      </trkpt>
      <trkpt lat="45.00354" lon="6.03894">
        <ele>1722</ele>
        <time>2021-03-21T13:14:40.000Z</time>
      </trkpt>
      <trkpt lat="45.00353" lon="6.03892">
        <ele>1721.8000488281</ele>
        <time>2021-03-21T13:14:41.000Z</time>
      </trkpt>
      <trkpt lat="45.00353" lon="6.03888">
        <ele>1720</ele>
        <time>2021-03-21T13:14:42.000Z</time>
      </trkpt>
      <trkpt lat="45.00357" lon="6.03885">
        <ele>1717</ele>
        <time>2021-03-21T13:14:43.000Z</time>
      </trkpt>
      <trkpt lat="45.00362" lon="6.03886">
        <ele>1715.1999511719</ele>
        <time>2021-03-21T13:14:44.000Z</time>
      </trkpt>
      <trkpt lat="45.00367" lon="6.03888">
        <ele>1713.5999755859</ele>
        <time>2021-03-21T13:14:45.000Z</time>
      </trkpt>
      <trkpt lat="45.00373" lon="6.0389">
        <ele>1712</ele>
        <time>2021-03-21T13:14:46.000Z</time>
      </trkpt>
      <trkpt lat="45.00377" lon="6.03891">
        <ele>1710.8000488281</ele>
        <time>2021-03-21T13:14:47.000Z</time>
      </trkpt>
      <trkpt lat="45.0038" lon="6.03892">
        <ele>1709</ele>
        <time>2021-03-21T13:14:48.000Z</time>
      </trkpt>
      <trkpt lat="45.00383" lon="6.0389">
        <ele>1706.8000488281</ele>
        <time>2021-03-21T13:14:49.000Z</time>
      </trkpt>
      <trkpt lat="45.00383" lon="6.03885">
        <ele>1705</ele>
        <time>2021-03-21T13:14:50.000Z</time>
      </trkpt>
      <trkpt lat="45.00382" lon="6.0388">
        <ele>1703.5999755859</ele>
        <time>2021-03-21T13:14:51.000Z</time>
      </trkpt>
      <trkpt lat="45.00381" lon="6.03873">
        <ele>1702</ele>
        <time>2021-03-21T13:14:52.000Z</time>
      </trkpt>
      <trkpt lat="45.00379" lon="6.03865">
        <ele>1700.4000244141</ele>
        <time>2021-03-21T13:14:53.000Z</time>
      </trkpt>
      <trkpt lat="45.00376" lon="6.03858">
        <ele>1699.8000488281</ele>
        <time>2021-03-21T13:14:54.000Z</time>
      </trkpt>
      <trkpt lat="45.00374" lon="6.03854">
        <ele>1699.4000244141</ele>
        <time>2021-03-21T13:14:55.000Z</time>
      </trkpt>
      <trkpt lat="45.00372" lon="6.03853">
        <ele>1699.5999755859</ele>
        <time>2021-03-21T13:14:56.000Z</time>
      </trkpt>
      <trkpt lat="45.00372" lon="6.03853">
        <ele>1699.8000488281</ele>
        <time>2021-03-21T13:14:57.000Z</time>
      </trkpt>
      <trkpt lat="45.00371" lon="6.03852">
        <ele>1699.8000488281</ele>
        <time>2021-03-21T13:14:58.000Z</time>
      </trkpt>
      <trkpt lat="45.00371" lon="6.03852">
        <ele>1700</ele>
        <time>2021-03-21T13:14:59.000Z</time>
      </trkpt>
      <trkpt lat="45.00371" lon="6.03853">
        <ele>1700</ele>
        <time>2021-03-21T13:15:00.000Z</time>
      </trkpt>
      <trkpt lat="45.00371" lon="6.03853">
        <ele>1700</ele>
        <time>2021-03-21T13:15:01.000Z</time>
      </trkpt>
      <trkpt lat="45.00372" lon="6.03853">
        <ele>1700</ele>
        <time>2021-03-21T13:15:02.000Z</time>
      </trkpt>
      <trkpt lat="45.00372" lon="6.03853">
        <ele>1700</ele>
        <time>2021-03-21T13:15:03.000Z</time>
      </trkpt>
      <trkpt lat="45.00372" lon="6.03854">
        <ele>1700</ele>
        <time>2021-03-21T13:15:04.000Z</time>
      </trkpt>
      <trkpt lat="45.00372" lon="6.03853">
        <ele>1699.8000488281</ele>
        <time>2021-03-21T13:15:05.000Z</time>
      </trkpt>
      <trkpt lat="45.00374" lon="6.03851">
        <ele>1698.1999511719</ele>
        <time>2021-03-21T13:15:06.000Z</time>
      </trkpt>
      <trkpt lat="45.00379" lon="6.03848">
        <ele>1695</ele>
        <time>2021-03-21T13:15:07.000Z</time>
      </trkpt>
      <trkpt lat="45.00384" lon="6.03846">
        <ele>1692.1999511719</ele>
        <time>2021-03-21T13:15:08.000Z</time>
      </trkpt>
      <trkpt lat="45.00389" lon="6.03846">
        <ele>1690</ele>
        <time>2021-03-21T13:15:09.000Z</time>
      </trkpt>
      <trkpt lat="45.00392" lon="6.03843">
        <ele>1687.4000244141</ele>
        <time>2021-03-21T13:15:10.000Z</time>
      </trkpt>
      <trkpt lat="45.00394" lon="6.03835">
        <ele>1683.1999511719</ele>
        <time>2021-03-21T13:15:11.000Z</time>
      </trkpt>
      <trkpt lat="45.004" lon="6.03829">
        <ele>1678.1999511719</ele>
        <time>2021-03-21T13:15:12.000Z</time>
      </trkpt>
      <trkpt lat="45.00406" lon="6.03824">
        <ele>1673.5999755859</ele>
        <time>2021-03-21T13:15:13.000Z</time>
      </trkpt>
      <trkpt lat="45.00411" lon="6.03815">
        <ele>1672.1999511719</ele>
        <time>2021-03-21T13:15:14.000Z</time>
      </trkpt>
      <trkpt lat="45.00414" lon="6.03805">
        <ele>1670.5999755859</ele>
        <time>2021-03-21T13:15:15.000Z</time>
      </trkpt>
      <trkpt lat="45.00417" lon="6.03794">
        <ele>1668.1999511719</ele>
        <time>2021-03-21T13:15:16.000Z</time>
      </trkpt>
      <trkpt lat="45.00422" lon="6.03784">
        <ele>1665</ele>
        <time>2021-03-21T13:15:17.000Z</time>
      </trkpt>
      <trkpt lat="45.00429" lon="6.03779">
        <ele>1664.1999511719</ele>
        <time>2021-03-21T13:15:18.000Z</time>
      </trkpt>
      <trkpt lat="45.00436" lon="6.03779">
        <ele>1663.4000244141</ele>
        <time>2021-03-21T13:15:19.000Z</time>
      </trkpt>
      <trkpt lat="45.00443" lon="6.03787">
        <ele>1663.1999511719</ele>
        <time>2021-03-21T13:15:20.000Z</time>
      </trkpt>
      <trkpt lat="45.0045" lon="6.03791">
        <ele>1662.8000488281</ele>
        <time>2021-03-21T13:15:21.000Z</time>
      </trkpt>
      <trkpt lat="45.00455" lon="6.03795">
        <ele>1662</ele>
        <time>2021-03-21T13:15:22.000Z</time>
      </trkpt>
      <trkpt lat="45.00458" lon="6.03797">
        <ele>1661.5999755859</ele>
        <time>2021-03-21T13:15:23.000Z</time>
      </trkpt>
      <trkpt lat="45.0046" lon="6.03796">
        <ele>1661.4000244141</ele>
        <time>2021-03-21T13:15:24.000Z</time>
      </trkpt>
      <trkpt lat="45.00464" lon="6.03794">
        <ele>1660.5999755859</ele>
        <time>2021-03-21T13:15:25.000Z</time>
      </trkpt>
      <trkpt lat="45.00467" lon="6.03792">
        <ele>1660.1999511719</ele>
        <time>2021-03-21T13:15:26.000Z</time>
      </trkpt>
      <trkpt lat="45.00472" lon="6.03788">
        <ele>1659.1999511719</ele>
        <time>2021-03-21T13:15:27.000Z</time>
      </trkpt>
      <trkpt lat="45.00478" lon="6.03782">
        <ele>1658.1999511719</ele>
        <time>2021-03-21T13:15:28.000Z</time>
      </trkpt>
      <trkpt lat="45.00485" lon="6.0378">
        <ele>1659</ele>
        <time>2021-03-21T13:15:29.000Z</time>
      </trkpt>
      <trkpt lat="45.00491" lon="6.03781">
        <ele>1659</ele>
        <time>2021-03-21T13:15:30.000Z</time>
      </trkpt>
      <trkpt lat="45.00496" lon="6.03781">
        <ele>1658.8000488281</ele>
        <time>2021-03-21T13:15:31.000Z</time>
      </trkpt>
      <trkpt lat="45.00501" lon="6.03782">
        <ele>1658.8000488281</ele>
        <time>2021-03-21T13:15:32.000Z</time>
      </trkpt>
      <trkpt lat="45.00503" lon="6.03784">
        <ele>1658.1999511719</ele>
        <time>2021-03-21T13:15:33.000Z</time>
      </trkpt>
      <trkpt lat="45.00504" lon="6.03788">
        <ele>1657.1999511719</ele>
        <time>2021-03-21T13:15:34.000Z</time>
      </trkpt>
      <trkpt lat="45.00505" lon="6.03791">
        <ele>1656.5999755859</ele>
        <time>2021-03-21T13:15:35.000Z</time>
      </trkpt>
      <trkpt lat="45.00506" lon="6.03792">
        <ele>1656.1999511719</ele>
        <time>2021-03-21T13:15:36.000Z</time>
      </trkpt>
      <trkpt lat="45.00504" lon="6.03794">
        <ele>1655.8000488281</ele>
        <time>2021-03-21T13:15:37.000Z</time>
      </trkpt>
      <trkpt lat="45.00501" lon="6.03796">
        <ele>1655.5999755859</ele>
        <time>2021-03-21T13:15:38.000Z</time>
      </trkpt>
      <trkpt lat="45.005" lon="6.03797">
        <ele>1655.4000244141</ele>
        <time>2021-03-21T13:15:39.000Z</time>
      </trkpt>
      <trkpt lat="45.00497" lon="6.03798">
        <ele>1655.4000244141</ele>
        <time>2021-03-21T13:15:40.000Z</time>
      </trkpt>
      <trkpt lat="45.00495" lon="6.03797">
        <ele>1655.4000244141</ele>
        <time>2021-03-21T13:15:41.000Z</time>
      </trkpt>
      <trkpt lat="45.00494" lon="6.03797">
        <ele>1655.4000244141</ele>
        <time>2021-03-21T13:15:42.000Z</time>
      </trkpt>
      <trkpt lat="45.00492" lon="6.03798">
        <ele>1655.1999511719</ele>
        <time>2021-03-21T13:15:43.000Z</time>
      </trkpt>
      <trkpt lat="45.00491" lon="6.03798">
        <ele>1655.1999511719</ele>
        <time>2021-03-21T13:15:44.000Z</time>
      </trkpt>
      <trkpt lat="45.0049" lon="6.03798">
        <ele>1655.4000244141</ele>
        <time>2021-03-21T13:15:45.000Z</time>
      </trkpt>
      <trkpt lat="45.00489" lon="6.03797">
        <ele>1655.4000244141</ele>
        <time>2021-03-21T13:15:46.000Z</time>
      </trkpt>
      <trkpt lat="45.00488" lon="6.03798">
        <ele>1655.4000244141</ele>
        <time>2021-03-21T13:15:47.000Z</time>
      </trkpt>
      <trkpt lat="45.00488" lon="6.03797">
        <ele>1655.5999755859</ele>
        <time>2021-03-21T13:15:48.000Z</time>
      </trkpt>
      <trkpt lat="45.00489" lon="6.03796">
        <ele>1655.5999755859</ele>
        <time>2021-03-21T13:15:49.000Z</time>
      </trkpt>
      <trkpt lat="45.00489" lon="6.03795">
        <ele>1655.5999755859</ele>
        <time>2021-03-21T13:15:50.000Z</time>
      </trkpt>
      <trkpt lat="45.0049" lon="6.03795">
        <ele>1655.8000488281</ele>
        <time>2021-03-21T13:15:51.000Z</time>
      </trkpt>
      <trkpt lat="45.0049" lon="6.03794">
        <ele>1655.8000488281</ele>
        <time>2021-03-21T13:15:52.000Z</time>
      </trkpt>
      <trkpt lat="45.0049" lon="6.03793">
        <ele>1656</ele>
        <time>2021-03-21T13:15:53.000Z</time>
      </trkpt>
      <trkpt lat="45.00489" lon="6.03792">
        <ele>1656.1999511719</ele>
        <time>2021-03-21T13:15:54.000Z</time>
      </trkpt>
      <trkpt lat="45.00489" lon="6.03792">
        <ele>1656.1999511719</ele>
        <time>2021-03-21T13:15:55.000Z</time>
      </trkpt>
      <trkpt lat="45.00489" lon="6.03792">
        <ele>1656.1999511719</ele>
        <time>2021-03-21T13:15:56.000Z</time>
      </trkpt>
      <trkpt lat="45.00488" lon="6.03792">
        <ele>1656</ele>
        <time>2021-03-21T13:15:57.000Z</time>
      </trkpt>
      <trkpt lat="45.00487" lon="6.03793">
        <ele>1656</ele>
        <time>2021-03-21T13:15:58.000Z</time>
      </trkpt>
      <trkpt lat="45.00486" lon="6.03793">
        <ele>1656</ele>
        <time>2021-03-21T13:15:59.000Z</time>
      </trkpt>
      <trkpt lat="45.00485" lon="6.03794">
        <ele>1656.1999511719</ele>
        <time>2021-03-21T13:16:00.000Z</time>
      </trkpt>
      <trkpt lat="45.00484" lon="6.03794">
        <ele>1656.4000244141</ele>
        <time>2021-03-21T13:16:01.000Z</time>
      </trkpt>
      <trkpt lat="45.00483" lon="6.03795">
        <ele>1656.4000244141</ele>
        <time>2021-03-21T13:16:02.000Z</time>
      </trkpt>
      <trkpt lat="45.00483" lon="6.03795">
        <ele>1656.5999755859</ele>
        <time>2021-03-21T13:16:03.000Z</time>
      </trkpt>
      <trkpt lat="45.00482" lon="6.03795">
        <ele>1656.5999755859</ele>
        <time>2021-03-21T13:16:04.000Z</time>
      </trkpt>
      <trkpt lat="45.00482" lon="6.03795">
        <ele>1656.8000488281</ele>
        <time>2021-03-21T13:16:05.000Z</time>
      </trkpt>
      <trkpt lat="45.00482" lon="6.03794">
        <ele>1656.8000488281</ele>
        <time>2021-03-21T13:16:06.000Z</time>
      </trkpt>
      <trkpt lat="45.00482" lon="6.03794">
        <ele>1656.8000488281</ele>
        <time>2021-03-21T13:16:07.000Z</time>
      </trkpt>
      <trkpt lat="45.00482" lon="6.03793">
        <ele>1656.8000488281</ele>
        <time>2021-03-21T13:16:08.000Z</time>
      </trkpt>
      <trkpt lat="45.00482" lon="6.03793">
        <ele>1656.8000488281</ele>
        <time>2021-03-21T13:16:09.000Z</time>
      </trkpt>
      <trkpt lat="45.00482" lon="6.03793">
        <ele>1657</ele>
        <time>2021-03-21T13:16:10.000Z</time>
      </trkpt>
      <trkpt lat="45.00482" lon="6.03793">
        <ele>1657</ele>
        <time>2021-03-21T13:16:11.000Z</time>
      </trkpt>
      <trkpt lat="45.00482" lon="6.03793">
        <ele>1657</ele>
        <time>2021-03-21T13:16:12.000Z</time>
      </trkpt>
      <trkpt lat="45.00482" lon="6.03792">
        <ele>1657</ele>
        <time>2021-03-21T13:16:13.000Z</time>
      </trkpt>
      <trkpt lat="45.00481" lon="6.03792">
        <ele>1657</ele>
        <time>2021-03-21T13:16:14.000Z</time>
      </trkpt>
      <trkpt lat="45.00481" lon="6.03792">
        <ele>1657</ele>
        <time>2021-03-21T13:16:15.000Z</time>
      </trkpt>
      <trkpt lat="45.00481" lon="6.03792">
        <ele>1657</ele>
        <time>2021-03-21T13:16:16.000Z</time>
      </trkpt>
      <trkpt lat="45.00481" lon="6.03792">
        <ele>1657.1999511719</ele>
        <time>2021-03-21T13:16:17.000Z</time>
      </trkpt>
      <trkpt lat="45.00481" lon="6.03793">
        <ele>1657.1999511719</ele>
        <time>2021-03-21T13:16:18.000Z</time>
      </trkpt>
      <trkpt lat="45.0048" lon="6.03793">
        <ele>1657.1999511719</ele>
        <time>2021-03-21T13:16:19.000Z</time>
      </trkpt>
      <trkpt lat="45.0048" lon="6.03793">
        <ele>1657.1999511719</ele>
        <time>2021-03-21T13:16:20.000Z</time>
      </trkpt>
      <trkpt lat="45.00479" lon="6.03793">
        <ele>1657.4000244141</ele>
        <time>2021-03-21T13:16:21.000Z</time>
      </trkpt>
      <trkpt lat="45.00479" lon="6.03793">
        <ele>1657.4000244141</ele>
        <time>2021-03-21T13:16:22.000Z</time>
      </trkpt>
      <trkpt lat="45.00479" lon="6.03793">
        <ele>1657.5999755859</ele>
        <time>2021-03-21T13:16:23.000Z</time>
      </trkpt>
      <trkpt lat="45.00478" lon="6.03792">
        <ele>1657.8000488281</ele>
        <time>2021-03-21T13:16:24.000Z</time>
      </trkpt>
      <trkpt lat="45.00478" lon="6.03792">
        <ele>1657.8000488281</ele>
        <time>2021-03-21T13:16:25.000Z</time>
      </trkpt>
      <trkpt lat="45.00477" lon="6.03792">
        <ele>1658</ele>
        <time>2021-03-21T13:16:26.000Z</time>
      </trkpt>
      <trkpt lat="45.00477" lon="6.03791">
        <ele>1658</ele>
        <time>2021-03-21T13:16:27.000Z</time>
      </trkpt>
      <trkpt lat="45.00477" lon="6.03791">
        <ele>1658</ele>
        <time>2021-03-21T13:16:28.000Z</time>
      </trkpt>
      <trkpt lat="45.00476" lon="6.03792">
        <ele>1658.1999511719</ele>
        <time>2021-03-21T13:16:29.000Z</time>
      </trkpt>
      <trkpt lat="45.00476" lon="6.03791">
        <ele>1658.1999511719</ele>
        <time>2021-03-21T13:16:30.000Z</time>
      </trkpt>
      <trkpt lat="45.00476" lon="6.03791">
        <ele>1658.1999511719</ele>
        <time>2021-03-21T13:16:31.000Z</time>
      </trkpt>
      <trkpt lat="45.00476" lon="6.03791">
        <ele>1658.1999511719</ele>
        <time>2021-03-21T13:16:32.000Z</time>
      </trkpt>
      <trkpt lat="45.00476" lon="6.03791">
        <ele>1658.1999511719</ele>
        <time>2021-03-21T13:16:33.000Z</time>
      </trkpt>
      <trkpt lat="45.00476" lon="6.03791">
        <ele>1658.4000244141</ele>
        <time>2021-03-21T13:16:34.000Z</time>
      </trkpt>
      <trkpt lat="45.00476" lon="6.0379">
        <ele>1658.4000244141</ele>
        <time>2021-03-21T13:16:35.000Z</time>
      </trkpt>
      <trkpt lat="45.00476" lon="6.0379">
        <ele>1658.4000244141</ele>
        <time>2021-03-21T13:16:36.000Z</time>
      </trkpt>
      <trkpt lat="45.00475" lon="6.03791">
        <ele>1658.4000244141</ele>
        <time>2021-03-21T13:16:37.000Z</time>
      </trkpt>
      <trkpt lat="45.00475" lon="6.03791">
        <ele>1658.4000244141</ele>
        <time>2021-03-21T13:16:38.000Z</time>
      </trkpt>
      <trkpt lat="45.00475" lon="6.03791">
        <ele>1658.4000244141</ele>
        <time>2021-03-21T13:16:39.000Z</time>
      </trkpt>
      <trkpt lat="45.00475" lon="6.03791">
        <ele>1658.4000244141</ele>
        <time>2021-03-21T13:16:40.000Z</time>
      </trkpt>
      <trkpt lat="45.00475" lon="6.03791">
        <ele>1658.4000244141</ele>
        <time>2021-03-21T13:16:41.000Z</time>
      </trkpt>
      <trkpt lat="45.00474" lon="6.03791">
        <ele>1658.5999755859</ele>
        <time>2021-03-21T13:16:42.000Z</time>
      </trkpt>
      <trkpt lat="45.00474" lon="6.03791">
        <ele>1658.5999755859</ele>
        <time>2021-03-21T13:16:43.000Z</time>
      </trkpt>
      <trkpt lat="45.00473" lon="6.03791">
        <ele>1658.8000488281</ele>
        <time>2021-03-21T13:16:44.000Z</time>
      </trkpt>
      <trkpt lat="45.00473" lon="6.03791">
        <ele>1659</ele>
        <time>2021-03-21T13:16:45.000Z</time>
      </trkpt>
      <trkpt lat="45.00472" lon="6.03792">
        <ele>1659</ele>
        <time>2021-03-21T13:16:46.000Z</time>
      </trkpt>
      <trkpt lat="45.00472" lon="6.03792">
        <ele>1659</ele>
        <time>2021-03-21T13:16:47.000Z</time>
      </trkpt>
      <trkpt lat="45.00473" lon="6.03791">
        <ele>1658.8000488281</ele>
        <time>2021-03-21T13:16:48.000Z</time>
      </trkpt>
      <trkpt lat="45.00473" lon="6.03791">
        <ele>1659</ele>
        <time>2021-03-21T13:16:49.000Z</time>
      </trkpt>
      <trkpt lat="45.00472" lon="6.03791">
        <ele>1659</ele>
        <time>2021-03-21T13:16:50.000Z</time>
      </trkpt>
      <trkpt lat="45.00472" lon="6.03791">
        <ele>1659</ele>
        <time>2021-03-21T13:16:51.000Z</time>
      </trkpt>
      <trkpt lat="45.00471" lon="6.03792">
        <ele>1659.1999511719</ele>
        <time>2021-03-21T13:16:52.000Z</time>
      </trkpt>
      <trkpt lat="45.00471" lon="6.03791">
        <ele>1659.1999511719</ele>
        <time>2021-03-21T13:16:53.000Z</time>
      </trkpt>
      <trkpt lat="45.00471" lon="6.0379">
        <ele>1659.1999511719</ele>
        <time>2021-03-21T13:16:54.000Z</time>
      </trkpt>
      <trkpt lat="45.00471" lon="6.0379">
        <ele>1659.4000244141</ele>
        <time>2021-03-21T13:16:55.000Z</time>
      </trkpt>
      <trkpt lat="45.00471" lon="6.0379">
        <ele>1659.4000244141</ele>
        <time>2021-03-21T13:16:56.000Z</time>
      </trkpt>
      <trkpt lat="45.00471" lon="6.0379">
        <ele>1659.4000244141</ele>
        <time>2021-03-21T13:16:57.000Z</time>
      </trkpt>
      <trkpt lat="45.0047" lon="6.03789">
        <ele>1659.5999755859</ele>
        <time>2021-03-21T13:16:58.000Z</time>
      </trkpt>
      <trkpt lat="45.00469" lon="6.03789">
        <ele>1659.5999755859</ele>
        <time>2021-03-21T13:16:59.000Z</time>
      </trkpt>
      <trkpt lat="45.00469" lon="6.03789">
        <ele>1659.8000488281</ele>
        <time>2021-03-21T13:17:00.000Z</time>
      </trkpt>
      <trkpt lat="45.00469" lon="6.03788">
        <ele>1659.8000488281</ele>
        <time>2021-03-21T13:17:01.000Z</time>
      </trkpt>
      <trkpt lat="45.0047" lon="6.03788">
        <ele>1659.5999755859</ele>
        <time>2021-03-21T13:17:02.000Z</time>
      </trkpt>
      <trkpt lat="45.0047" lon="6.03787">
        <ele>1659.5999755859</ele>
        <time>2021-03-21T13:17:03.000Z</time>
      </trkpt>
      <trkpt lat="45.0047" lon="6.03787">
        <ele>1659.5999755859</ele>
        <time>2021-03-21T13:17:04.000Z</time>
      </trkpt>
      <trkpt lat="45.0047" lon="6.03785">
        <ele>1659.4000244141</ele>
        <time>2021-03-21T13:17:05.000Z</time>
      </trkpt>
      <trkpt lat="45.00472" lon="6.03784">
        <ele>1659.1999511719</ele>
        <time>2021-03-21T13:17:06.000Z</time>
      </trkpt>
      <trkpt lat="45.00471" lon="6.03784">
        <ele>1659.1999511719</ele>
        <time>2021-03-21T13:17:07.000Z</time>
      </trkpt>
      <trkpt lat="45.00471" lon="6.03784">
        <ele>1659.1999511719</ele>
        <time>2021-03-21T13:17:08.000Z</time>
      </trkpt>
      <trkpt lat="45.00472" lon="6.03784">
        <ele>1659.1999511719</ele>
        <time>2021-03-21T13:17:09.000Z</time>
      </trkpt>
      <trkpt lat="45.00471" lon="6.03784">
        <ele>1659.1999511719</ele>
        <time>2021-03-21T13:17:10.000Z</time>
      </trkpt>
      <trkpt lat="45.00471" lon="6.03784">
        <ele>1659.1999511719</ele>
        <time>2021-03-21T13:17:11.000Z</time>
      </trkpt>
      <trkpt lat="45.00472" lon="6.03784">
        <ele>1659</ele>
        <time>2021-03-21T13:17:12.000Z</time>
      </trkpt>
      <trkpt lat="45.00472" lon="6.03784">
        <ele>1659</ele>
        <time>2021-03-21T13:17:13.000Z</time>
      </trkpt>
      <trkpt lat="45.00472" lon="6.03784">
        <ele>1659.1999511719</ele>
        <time>2021-03-21T13:17:14.000Z</time>
      </trkpt>
      <trkpt lat="45.00472" lon="6.03784">
        <ele>1659</ele>
        <time>2021-03-21T13:17:15.000Z</time>
      </trkpt>
      <trkpt lat="45.00472" lon="6.03784">
        <ele>1659</ele>
        <time>2021-03-21T13:17:16.000Z</time>
      </trkpt>
      <trkpt lat="45.00473" lon="6.03783">
        <ele>1658.8000488281</ele>
        <time>2021-03-21T13:17:17.000Z</time>
      </trkpt>
      <trkpt lat="45.00473" lon="6.03783">
        <ele>1658.8000488281</ele>
        <time>2021-03-21T13:17:18.000Z</time>
      </trkpt>
      <trkpt lat="45.00473" lon="6.03783">
        <ele>1658.8000488281</ele>
        <time>2021-03-21T13:17:19.000Z</time>
      </trkpt>
      <trkpt lat="45.00474" lon="6.03783">
        <ele>1658.8000488281</ele>
        <time>2021-03-21T13:17:20.000Z</time>
      </trkpt>
      <trkpt lat="45.00474" lon="6.03783">
        <ele>1658.5999755859</ele>
        <time>2021-03-21T13:17:21.000Z</time>
      </trkpt>
      <trkpt lat="45.00475" lon="6.03782">
        <ele>1658.4000244141</ele>
        <time>2021-03-21T13:17:22.000Z</time>
      </trkpt>
      <trkpt lat="45.00473" lon="6.03785">
        <ele>1658.8000488281</ele>
        <time>2021-03-21T13:17:23.000Z</time>
      </trkpt>
      <trkpt lat="45.00474" lon="6.03785">
        <ele>1658.8000488281</ele>
        <time>2021-03-21T13:17:24.000Z</time>
      </trkpt>
      <trkpt lat="45.00474" lon="6.03784">
        <ele>1658.8000488281</ele>
        <time>2021-03-21T13:17:25.000Z</time>
      </trkpt>
      <trkpt lat="45.00474" lon="6.03785">
        <ele>1658.5999755859</ele>
        <time>2021-03-21T13:17:26.000Z</time>
      </trkpt>
      <trkpt lat="45.00474" lon="6.03785">
        <ele>1658.8000488281</ele>
        <time>2021-03-21T13:17:27.000Z</time>
      </trkpt>
      <trkpt lat="45.00474" lon="6.03785">
        <ele>1658.8000488281</ele>
        <time>2021-03-21T13:17:28.000Z</time>
      </trkpt>
      <trkpt lat="45.00474" lon="6.03785">
        <ele>1658.5999755859</ele>
        <time>2021-03-21T13:17:29.000Z</time>
      </trkpt>
      <trkpt lat="45.00473" lon="6.03785">
        <ele>1658.8000488281</ele>
        <time>2021-03-21T13:17:30.000Z</time>
      </trkpt>
      <trkpt lat="45.00473" lon="6.03785">
        <ele>1658.8000488281</ele>
        <time>2021-03-21T13:17:31.000Z</time>
      </trkpt>
      <trkpt lat="45.00473" lon="6.03785">
        <ele>1658.8000488281</ele>
        <time>2021-03-21T13:17:32.000Z</time>
      </trkpt>
      <trkpt lat="45.00473" lon="6.03785">
        <ele>1658.8000488281</ele>
        <time>2021-03-21T13:17:33.000Z</time>
      </trkpt>
      <trkpt lat="45.00473" lon="6.03785">
        <ele>1658.8000488281</ele>
        <time>2021-03-21T13:17:34.000Z</time>
      </trkpt>
      <trkpt lat="45.00473" lon="6.03785">
        <ele>1658.8000488281</ele>
        <time>2021-03-21T13:17:35.000Z</time>
      </trkpt>
      <trkpt lat="45.00473" lon="6.03784">
        <ele>1658.8000488281</ele>
        <time>2021-03-21T13:17:36.000Z</time>
      </trkpt>
      <trkpt lat="45.00474" lon="6.03783">
        <ele>1658.5999755859</ele>
        <time>2021-03-21T13:17:37.000Z</time>
      </trkpt>
      <trkpt lat="45.00473" lon="6.03785">
        <ele>1658.8000488281</ele>
        <time>2021-03-21T13:17:38.000Z</time>
      </trkpt>
      <trkpt lat="45.00473" lon="6.03785">
        <ele>1659</ele>
        <time>2021-03-21T13:17:39.000Z</time>
      </trkpt>
      <trkpt lat="45.00473" lon="6.03784">
        <ele>1658.8000488281</ele>
        <time>2021-03-21T13:17:40.000Z</time>
      </trkpt>
      <trkpt lat="45.00473" lon="6.03784">
        <ele>1658.8000488281</ele>
        <time>2021-03-21T13:17:41.000Z</time>
      </trkpt>
      <trkpt lat="45.00473" lon="6.03784">
        <ele>1658.8000488281</ele>
        <time>2021-03-21T13:17:42.000Z</time>
      </trkpt>
      <trkpt lat="45.00473" lon="6.03784">
        <ele>1658.8000488281</ele>
        <time>2021-03-21T13:17:43.000Z</time>
      </trkpt>
      <trkpt lat="45.00473" lon="6.03784">
        <ele>1659</ele>
        <time>2021-03-21T13:17:44.000Z</time>
      </trkpt>
      <trkpt lat="45.00472" lon="6.03784">
        <ele>1659</ele>
        <time>2021-03-21T13:17:45.000Z</time>
      </trkpt>
      <trkpt lat="45.00473" lon="6.03784">
        <ele>1659</ele>
        <time>2021-03-21T13:17:46.000Z</time>
      </trkpt>
      <trkpt lat="45.00472" lon="6.03784">
        <ele>1659</ele>
        <time>2021-03-21T13:17:47.000Z</time>
      </trkpt>
      <trkpt lat="45.00473" lon="6.03783">
        <ele>1659</ele>
        <time>2021-03-21T13:17:48.000Z</time>
      </trkpt>
      <trkpt lat="45.00474" lon="6.03782">
        <ele>1658.5999755859</ele>
        <time>2021-03-21T13:17:49.000Z</time>
      </trkpt>
      <trkpt lat="45.00474" lon="6.03782">
        <ele>1658.8000488281</ele>
        <time>2021-03-21T13:17:50.000Z</time>
      </trkpt>
      <trkpt lat="45.00473" lon="6.03783">
        <ele>1658.8000488281</ele>
        <time>2021-03-21T13:17:51.000Z</time>
      </trkpt>
      <trkpt lat="45.00474" lon="6.03782">
        <ele>1658.8000488281</ele>
        <time>2021-03-21T13:17:52.000Z</time>
      </trkpt>
      <trkpt lat="45.00474" lon="6.03782">
        <ele>1658.5999755859</ele>
        <time>2021-03-21T13:17:53.000Z</time>
      </trkpt>
      <trkpt lat="45.00474" lon="6.03782">
        <ele>1658.5999755859</ele>
        <time>2021-03-21T13:17:54.000Z</time>
      </trkpt>
      <trkpt lat="45.00474" lon="6.03781">
        <ele>1658.5999755859</ele>
        <time>2021-03-21T13:17:55.000Z</time>
      </trkpt>
      <trkpt lat="45.00474" lon="6.03781">
        <ele>1658.5999755859</ele>
        <time>2021-03-21T13:17:56.000Z</time>
      </trkpt>
      <trkpt lat="45.00474" lon="6.0378">
        <ele>1658.8000488281</ele>
        <time>2021-03-21T13:17:57.000Z</time>
      </trkpt>
      <trkpt lat="45.00474" lon="6.0378">
        <ele>1658.8000488281</ele>
        <time>2021-03-21T13:17:58.000Z</time>
      </trkpt>
      <trkpt lat="45.00475" lon="6.0378">
        <ele>1658.8000488281</ele>
        <time>2021-03-21T13:17:59.000Z</time>
      </trkpt>
      <trkpt lat="45.00475" lon="6.0378">
        <ele>1659</ele>
        <time>2021-03-21T13:18:00.000Z</time>
      </trkpt>
      <trkpt lat="45.00476" lon="6.0378">
        <ele>1659</ele>
        <time>2021-03-21T13:18:01.000Z</time>
      </trkpt>
      <trkpt lat="45.00476" lon="6.03779">
        <ele>1659</ele>
        <time>2021-03-21T13:18:02.000Z</time>
      </trkpt>
      <trkpt lat="45.00475" lon="6.03779">
        <ele>1659.1999511719</ele>
        <time>2021-03-21T13:18:03.000Z</time>
      </trkpt>
      <trkpt lat="45.00475" lon="6.03778">
        <ele>1659.1999511719</ele>
        <time>2021-03-21T13:18:04.000Z</time>
      </trkpt>
      <trkpt lat="45.00475" lon="6.03778">
        <ele>1659.1999511719</ele>
        <time>2021-03-21T13:18:05.000Z</time>
      </trkpt>
      <trkpt lat="45.00475" lon="6.03778">
        <ele>1659.1999511719</ele>
        <time>2021-03-21T13:18:06.000Z</time>
      </trkpt>
      <trkpt lat="45.00475" lon="6.03779">
        <ele>1659</ele>
        <time>2021-03-21T13:18:07.000Z</time>
      </trkpt>
      <trkpt lat="45.00476" lon="6.03778">
        <ele>1659.1999511719</ele>
        <time>2021-03-21T13:18:08.000Z</time>
      </trkpt>
      <trkpt lat="45.00476" lon="6.03778">
        <ele>1659.4000244141</ele>
        <time>2021-03-21T13:18:09.000Z</time>
      </trkpt>
      <trkpt lat="45.00476" lon="6.03777">
        <ele>1659.5999755859</ele>
        <time>2021-03-21T13:18:10.000Z</time>
      </trkpt>
      <trkpt lat="45.00476" lon="6.03778">
        <ele>1659.4000244141</ele>
        <time>2021-03-21T13:18:11.000Z</time>
      </trkpt>
      <trkpt lat="45.00476" lon="6.03778">
        <ele>1659.1999511719</ele>
        <time>2021-03-21T13:18:12.000Z</time>
      </trkpt>
      <trkpt lat="45.00476" lon="6.03779">
        <ele>1659.1999511719</ele>
        <time>2021-03-21T13:18:13.000Z</time>
      </trkpt>
      <trkpt lat="45.00476" lon="6.0378">
        <ele>1659</ele>
        <time>2021-03-21T13:18:14.000Z</time>
      </trkpt>
      <trkpt lat="45.00476" lon="6.03781">
        <ele>1658.5999755859</ele>
        <time>2021-03-21T13:18:15.000Z</time>
      </trkpt>
      <trkpt lat="45.00479" lon="6.03784">
        <ele>1658</ele>
        <time>2021-03-21T13:18:16.000Z</time>
      </trkpt>
      <trkpt lat="45.0048" lon="6.03788">
        <ele>1657.1999511719</ele>
        <time>2021-03-21T13:18:17.000Z</time>
      </trkpt>
      <trkpt lat="45.00482" lon="6.0379">
        <ele>1656.8000488281</ele>
        <time>2021-03-21T13:18:18.000Z</time>
      </trkpt>
      <trkpt lat="45.00484" lon="6.03792">
        <ele>1656.4000244141</ele>
        <time>2021-03-21T13:18:19.000Z</time>
      </trkpt>
      <trkpt lat="45.00485" lon="6.03793">
        <ele>1656.1999511719</ele>
        <time>2021-03-21T13:18:20.000Z</time>
      </trkpt>
      <trkpt lat="45.00486" lon="6.03794">
        <ele>1656</ele>
        <time>2021-03-21T13:18:21.000Z</time>
      </trkpt>
      <trkpt lat="45.00486" lon="6.03795">
        <ele>1655.8000488281</ele>
        <time>2021-03-21T13:18:22.000Z</time>
      </trkpt>
      <trkpt lat="45.00486" lon="6.03795">
        <ele>1655.8000488281</ele>
        <time>2021-03-21T13:18:23.000Z</time>
      </trkpt>
      <trkpt lat="45.00487" lon="6.03796">
        <ele>1655.5999755859</ele>
        <time>2021-03-21T13:18:24.000Z</time>
      </trkpt>
      <trkpt lat="45.00489" lon="6.03796">
        <ele>1655.5999755859</ele>
        <time>2021-03-21T13:18:25.000Z</time>
      </trkpt>
      <trkpt lat="45.0049" lon="6.03797">
        <ele>1655.4000244141</ele>
        <time>2021-03-21T13:18:26.000Z</time>
      </trkpt>
      <trkpt lat="45.00491" lon="6.03798">
        <ele>1655.1999511719</ele>
        <time>2021-03-21T13:18:27.000Z</time>
      </trkpt>
      <trkpt lat="45.00493" lon="6.03799">
        <ele>1655.1999511719</ele>
        <time>2021-03-21T13:18:28.000Z</time>
      </trkpt>
      <trkpt lat="45.00496" lon="6.038">
        <ele>1655</ele>
        <time>2021-03-21T13:18:29.000Z</time>
      </trkpt>
      <trkpt lat="45.00498" lon="6.03802">
        <ele>1654.8000488281</ele>
        <time>2021-03-21T13:18:30.000Z</time>
      </trkpt>
      <trkpt lat="45.00501" lon="6.03804">
        <ele>1654.4000244141</ele>
        <time>2021-03-21T13:18:31.000Z</time>
      </trkpt>
      <trkpt lat="45.00505" lon="6.03806">
        <ele>1654.1999511719</ele>
        <time>2021-03-21T13:18:32.000Z</time>
      </trkpt>
      <trkpt lat="45.00508" lon="6.03809">
        <ele>1653.5999755859</ele>
        <time>2021-03-21T13:18:33.000Z</time>
      </trkpt>
      <trkpt lat="45.00512" lon="6.03812">
        <ele>1653.1999511719</ele>
        <time>2021-03-21T13:18:34.000Z</time>
      </trkpt>
      <trkpt lat="45.00516" lon="6.03816">
        <ele>1652.5999755859</ele>
        <time>2021-03-21T13:18:35.000Z</time>
      </trkpt>
      <trkpt lat="45.00519" lon="6.03819">
        <ele>1652.1999511719</ele>
        <time>2021-03-21T13:18:36.000Z</time>
      </trkpt>
      <trkpt lat="45.00523" lon="6.03823">
        <ele>1651.1999511719</ele>
        <time>2021-03-21T13:18:37.000Z</time>
      </trkpt>
      <trkpt lat="45.00526" lon="6.03826">
        <ele>1650.1999511719</ele>
        <time>2021-03-21T13:18:38.000Z</time>
      </trkpt>
      <trkpt lat="45.0053" lon="6.0383">
        <ele>1649</ele>
        <time>2021-03-21T13:18:39.000Z</time>
      </trkpt>
      <trkpt lat="45.00534" lon="6.03832">
        <ele>1648.1999511719</ele>
        <time>2021-03-21T13:18:40.000Z</time>
      </trkpt>
      <trkpt lat="45.00539" lon="6.03834">
        <ele>1647.4000244141</ele>
        <time>2021-03-21T13:18:41.000Z</time>
      </trkpt>
      <trkpt lat="45.00543" lon="6.03837">
        <ele>1646.1999511719</ele>
        <time>2021-03-21T13:18:42.000Z</time>
      </trkpt>
      <trkpt lat="45.00548" lon="6.03839">
        <ele>1644</ele>
        <time>2021-03-21T13:18:43.000Z</time>
      </trkpt>
      <trkpt lat="45.00551" lon="6.03841">
        <ele>1642</ele>
        <time>2021-03-21T13:18:44.000Z</time>
      </trkpt>
      <trkpt lat="45.00555" lon="6.03842">
        <ele>1640.1999511719</ele>
        <time>2021-03-21T13:18:45.000Z</time>
      </trkpt>
      <trkpt lat="45.00559" lon="6.03844">
        <ele>1638.4000244141</ele>
        <time>2021-03-21T13:18:46.000Z</time>
      </trkpt>
      <trkpt lat="45.00562" lon="6.03845">
        <ele>1636.5999755859</ele>
        <time>2021-03-21T13:18:47.000Z</time>
      </trkpt>
      <trkpt lat="45.00566" lon="6.03846">
        <ele>1635.1999511719</ele>
        <time>2021-03-21T13:18:48.000Z</time>
      </trkpt>
      <trkpt lat="45.00569" lon="6.03847">
        <ele>1634.1999511719</ele>
        <time>2021-03-21T13:18:49.000Z</time>
      </trkpt>
      <trkpt lat="45.00572" lon="6.03847">
        <ele>1634</ele>
        <time>2021-03-21T13:18:50.000Z</time>
      </trkpt>
      <trkpt lat="45.00575" lon="6.03846">
        <ele>1634.1999511719</ele>
        <time>2021-03-21T13:18:51.000Z</time>
      </trkpt>
      <trkpt lat="45.00577" lon="6.03846">
        <ele>1634.1999511719</ele>
        <time>2021-03-21T13:18:52.000Z</time>
      </trkpt>
      <trkpt lat="45.00579" lon="6.03845">
        <ele>1634.5999755859</ele>
        <time>2021-03-21T13:18:53.000Z</time>
      </trkpt>
      <trkpt lat="45.00581" lon="6.03845">
        <ele>1634.5999755859</ele>
        <time>2021-03-21T13:18:54.000Z</time>
      </trkpt>
      <trkpt lat="45.00583" lon="6.03845">
        <ele>1635</ele>
        <time>2021-03-21T13:18:55.000Z</time>
      </trkpt>
      <trkpt lat="45.00586" lon="6.03844">
        <ele>1635</ele>
        <time>2021-03-21T13:18:56.000Z</time>
      </trkpt>
      <trkpt lat="45.00587" lon="6.03845">
        <ele>1634.4000244141</ele>
        <time>2021-03-21T13:18:57.000Z</time>
      </trkpt>
      <trkpt lat="45.0059" lon="6.03847">
        <ele>1633.1999511719</ele>
        <time>2021-03-21T13:18:58.000Z</time>
      </trkpt>
      <trkpt lat="45.00594" lon="6.03851">
        <ele>1630.8000488281</ele>
        <time>2021-03-21T13:18:59.000Z</time>
      </trkpt>
      <trkpt lat="45.00599" lon="6.03855">
        <ele>1628.5999755859</ele>
        <time>2021-03-21T13:19:00.000Z</time>
      </trkpt>
      <trkpt lat="45.00604" lon="6.03858">
        <ele>1627.1999511719</ele>
        <time>2021-03-21T13:19:01.000Z</time>
      </trkpt>
      <trkpt lat="45.00609" lon="6.0386">
        <ele>1626.8000488281</ele>
        <time>2021-03-21T13:19:02.000Z</time>
      </trkpt>
      <trkpt lat="45.00613" lon="6.03861">
        <ele>1626.4000244141</ele>
        <time>2021-03-21T13:19:03.000Z</time>
      </trkpt>
      <trkpt lat="45.00614" lon="6.03862">
        <ele>1626.4000244141</ele>
        <time>2021-03-21T13:19:04.000Z</time>
      </trkpt>
      <trkpt lat="45.00616" lon="6.03861">
        <ele>1627</ele>
        <time>2021-03-21T13:19:05.000Z</time>
      </trkpt>
      <trkpt lat="45.00616" lon="6.0386">
        <ele>1627.1999511719</ele>
        <time>2021-03-21T13:19:06.000Z</time>
      </trkpt>
      <trkpt lat="45.00617" lon="6.03859">
        <ele>1627.4000244141</ele>
        <time>2021-03-21T13:19:07.000Z</time>
      </trkpt>
      <trkpt lat="45.00617" lon="6.03858">
        <ele>1628</ele>
        <time>2021-03-21T13:19:08.000Z</time>
      </trkpt>
      <trkpt lat="45.00617" lon="6.03858">
        <ele>1628.4000244141</ele>
        <time>2021-03-21T13:19:09.000Z</time>
      </trkpt>
      <trkpt lat="45.00617" lon="6.03857">
        <ele>1628.5999755859</ele>
        <time>2021-03-21T13:19:10.000Z</time>
      </trkpt>
      <trkpt lat="45.00617" lon="6.03857">
        <ele>1628.5999755859</ele>
        <time>2021-03-21T13:19:11.000Z</time>
      </trkpt>
      <trkpt lat="45.00617" lon="6.03857">
        <ele>1628.8000488281</ele>
        <time>2021-03-21T13:19:12.000Z</time>
      </trkpt>
      <trkpt lat="45.00616" lon="6.03857">
        <ele>1628.5999755859</ele>
        <time>2021-03-21T13:19:13.000Z</time>
      </trkpt>
      <trkpt lat="45.00615" lon="6.03857">
        <ele>1628.5999755859</ele>
        <time>2021-03-21T13:19:14.000Z</time>
      </trkpt>
      <trkpt lat="45.00614" lon="6.03857">
        <ele>1628.5999755859</ele>
        <time>2021-03-21T13:19:15.000Z</time>
      </trkpt>
      <trkpt lat="45.00613" lon="6.03857">
        <ele>1628.5999755859</ele>
        <time>2021-03-21T13:19:16.000Z</time>
      </trkpt>
      <trkpt lat="45.00612" lon="6.03857">
        <ele>1628.4000244141</ele>
        <time>2021-03-21T13:19:17.000Z</time>
      </trkpt>
      <trkpt lat="45.00612" lon="6.03858">
        <ele>1628.1999511719</ele>
        <time>2021-03-21T13:19:18.000Z</time>
      </trkpt>
      <trkpt lat="45.00612" lon="6.03857">
        <ele>1628.4000244141</ele>
        <time>2021-03-21T13:19:19.000Z</time>
      </trkpt>
      <trkpt lat="45.00612" lon="6.03857">
        <ele>1628.5999755859</ele>
        <time>2021-03-21T13:19:20.000Z</time>
      </trkpt>
      <trkpt lat="45.00613" lon="6.03856">
        <ele>1628.8000488281</ele>
        <time>2021-03-21T13:19:21.000Z</time>
      </trkpt>
      <trkpt lat="45.00613" lon="6.03856">
        <ele>1628.8000488281</ele>
        <time>2021-03-21T13:19:22.000Z</time>
      </trkpt>
      <trkpt lat="45.00613" lon="6.03856">
        <ele>1629.1999511719</ele>
        <time>2021-03-21T13:19:23.000Z</time>
      </trkpt>
      <trkpt lat="45.00613" lon="6.03856">
        <ele>1629.1999511719</ele>
        <time>2021-03-21T13:19:24.000Z</time>
      </trkpt>
      <trkpt lat="45.00614" lon="6.03855">
        <ele>1629.4000244141</ele>
        <time>2021-03-21T13:19:25.000Z</time>
      </trkpt>
      <trkpt lat="45.00614" lon="6.03855">
        <ele>1629.5999755859</ele>
        <time>2021-03-21T13:19:26.000Z</time>
      </trkpt>
      <trkpt lat="45.00615" lon="6.03855">
        <ele>1629.8000488281</ele>
        <time>2021-03-21T13:19:27.000Z</time>
      </trkpt>
      <trkpt lat="45.00615" lon="6.03855">
        <ele>1629.5999755859</ele>
        <time>2021-03-21T13:19:28.000Z</time>
      </trkpt>
      <trkpt lat="45.00615" lon="6.03855">
        <ele>1629.4000244141</ele>
        <time>2021-03-21T13:19:29.000Z</time>
      </trkpt>
      <trkpt lat="45.00616" lon="6.03855">
        <ele>1629.5999755859</ele>
        <time>2021-03-21T13:19:30.000Z</time>
      </trkpt>
      <trkpt lat="45.00616" lon="6.03855">
        <ele>1629.5999755859</ele>
        <time>2021-03-21T13:19:31.000Z</time>
      </trkpt>
      <trkpt lat="45.00616" lon="6.03855">
        <ele>1629.5999755859</ele>
        <time>2021-03-21T13:19:32.000Z</time>
      </trkpt>
      <trkpt lat="45.00617" lon="6.03855">
        <ele>1629.4000244141</ele>
        <time>2021-03-21T13:19:33.000Z</time>
      </trkpt>
      <trkpt lat="45.00617" lon="6.03856">
        <ele>1629.1999511719</ele>
        <time>2021-03-21T13:19:34.000Z</time>
      </trkpt>
      <trkpt lat="45.00617" lon="6.03856">
        <ele>1629.1999511719</ele>
        <time>2021-03-21T13:19:35.000Z</time>
      </trkpt>
      <trkpt lat="45.00618" lon="6.03856">
        <ele>1629.1999511719</ele>
        <time>2021-03-21T13:19:36.000Z</time>
      </trkpt>
      <trkpt lat="45.00619" lon="6.03856">
        <ele>1629.4000244141</ele>
        <time>2021-03-21T13:19:37.000Z</time>
      </trkpt>
      <trkpt lat="45.0062" lon="6.03856">
        <ele>1629.1999511719</ele>
        <time>2021-03-21T13:19:38.000Z</time>
      </trkpt>
      <trkpt lat="45.00622" lon="6.03857">
        <ele>1629</ele>
        <time>2021-03-21T13:19:39.000Z</time>
      </trkpt>
      <trkpt lat="45.00623" lon="6.03858">
        <ele>1628.4000244141</ele>
        <time>2021-03-21T13:19:40.000Z</time>
      </trkpt>
      <trkpt lat="45.00624" lon="6.0386">
        <ele>1627.5999755859</ele>
        <time>2021-03-21T13:19:41.000Z</time>
      </trkpt>
      <trkpt lat="45.00624" lon="6.0386">
        <ele>1627.4000244141</ele>
        <time>2021-03-21T13:19:42.000Z</time>
      </trkpt>
      <trkpt lat="45.00625" lon="6.03863">
        <ele>1626.4000244141</ele>
        <time>2021-03-21T13:19:43.000Z</time>
      </trkpt>
      <trkpt lat="45.00627" lon="6.03865">
        <ele>1625.1999511719</ele>
        <time>2021-03-21T13:19:44.000Z</time>
      </trkpt>
      <trkpt lat="45.0063" lon="6.03866">
        <ele>1624.8000488281</ele>
        <time>2021-03-21T13:19:45.000Z</time>
      </trkpt>
      <trkpt lat="45.00629" lon="6.03866">
        <ele>1624.5999755859</ele>
        <time>2021-03-21T13:19:46.000Z</time>
      </trkpt>
      <trkpt lat="45.00628" lon="6.03866">
        <ele>1624.4000244141</ele>
        <time>2021-03-21T13:19:47.000Z</time>
      </trkpt>
      <trkpt lat="45.00628" lon="6.03866">
        <ele>1624.5999755859</ele>
        <time>2021-03-21T13:19:48.000Z</time>
      </trkpt>
      <trkpt lat="45.00627" lon="6.03867">
        <ele>1624.4000244141</ele>
        <time>2021-03-21T13:19:49.000Z</time>
      </trkpt>
      <trkpt lat="45.00627" lon="6.03868">
        <ele>1623.8000488281</ele>
        <time>2021-03-21T13:19:50.000Z</time>
      </trkpt>
      <trkpt lat="45.00628" lon="6.03869">
        <ele>1623.1999511719</ele>
        <time>2021-03-21T13:19:51.000Z</time>
      </trkpt>
      <trkpt lat="45.0063" lon="6.0387">
        <ele>1623</ele>
        <time>2021-03-21T13:19:52.000Z</time>
      </trkpt>
      <trkpt lat="45.00631" lon="6.03871">
        <ele>1622.4000244141</ele>
        <time>2021-03-21T13:19:53.000Z</time>
      </trkpt>
      <trkpt lat="45.00634" lon="6.03872">
        <ele>1621.4000244141</ele>
        <time>2021-03-21T13:19:54.000Z</time>
      </trkpt>
      <trkpt lat="45.00637" lon="6.03875">
        <ele>1620</ele>
        <time>2021-03-21T13:19:55.000Z</time>
      </trkpt>
      <trkpt lat="45.00639" lon="6.03877">
        <ele>1618.8000488281</ele>
        <time>2021-03-21T13:19:56.000Z</time>
      </trkpt>
      <trkpt lat="45.00642" lon="6.03877">
        <ele>1619</ele>
        <time>2021-03-21T13:19:57.000Z</time>
      </trkpt>
      <trkpt lat="45.00644" lon="6.03877">
        <ele>1619</ele>
        <time>2021-03-21T13:19:58.000Z</time>
      </trkpt>
      <trkpt lat="45.00645" lon="6.03877">
        <ele>1618.8000488281</ele>
        <time>2021-03-21T13:19:59.000Z</time>
      </trkpt>
      <trkpt lat="45.00645" lon="6.03877">
        <ele>1618.8000488281</ele>
        <time>2021-03-21T13:20:00.000Z</time>
      </trkpt>
      <trkpt lat="45.00646" lon="6.03877">
        <ele>1619</ele>
        <time>2021-03-21T13:20:01.000Z</time>
      </trkpt>
      <trkpt lat="45.00646" lon="6.03878">
        <ele>1618.4000244141</ele>
        <time>2021-03-21T13:20:02.000Z</time>
      </trkpt>
      <trkpt lat="45.00649" lon="6.03881">
        <ele>1616.4000244141</ele>
        <time>2021-03-21T13:20:03.000Z</time>
      </trkpt>
      <trkpt lat="45.00652" lon="6.03884">
        <ele>1614.4000244141</ele>
        <time>2021-03-21T13:20:04.000Z</time>
      </trkpt>
      <trkpt lat="45.00655" lon="6.03885">
        <ele>1614.1999511719</ele>
        <time>2021-03-21T13:20:05.000Z</time>
      </trkpt>
      <trkpt lat="45.00657" lon="6.03887">
        <ele>1613.5999755859</ele>
        <time>2021-03-21T13:20:06.000Z</time>
      </trkpt>
      <trkpt lat="45.00661" lon="6.0389">
        <ele>1612.5999755859</ele>
        <time>2021-03-21T13:20:07.000Z</time>
      </trkpt>
      <trkpt lat="45.00664" lon="6.03893">
        <ele>1611.8000488281</ele>
        <time>2021-03-21T13:20:08.000Z</time>
      </trkpt>
      <trkpt lat="45.00667" lon="6.03893">
        <ele>1612.1999511719</ele>
        <time>2021-03-21T13:20:09.000Z</time>
      </trkpt>
      <trkpt lat="45.0067" lon="6.03894">
        <ele>1612.4000244141</ele>
        <time>2021-03-21T13:20:10.000Z</time>
      </trkpt>
      <trkpt lat="45.0067" lon="6.03894">
        <ele>1612.4000244141</ele>
        <time>2021-03-21T13:20:11.000Z</time>
      </trkpt>
      <trkpt lat="45.0067" lon="6.03894">
        <ele>1612.4000244141</ele>
        <time>2021-03-21T13:20:12.000Z</time>
      </trkpt>
      <trkpt lat="45.00671" lon="6.03895">
        <ele>1611.8000488281</ele>
        <time>2021-03-21T13:20:13.000Z</time>
      </trkpt>
      <trkpt lat="45.0067" lon="6.03897">
        <ele>1610.4000244141</ele>
        <time>2021-03-21T13:20:14.000Z</time>
      </trkpt>
      <trkpt lat="45.00669" lon="6.03899">
        <ele>1609.4000244141</ele>
        <time>2021-03-21T13:20:15.000Z</time>
      </trkpt>
      <trkpt lat="45.00668" lon="6.03899">
        <ele>1609</ele>
        <time>2021-03-21T13:20:16.000Z</time>
      </trkpt>
      <trkpt lat="45.00668" lon="6.03899">
        <ele>1608.8000488281</ele>
        <time>2021-03-21T13:20:17.000Z</time>
      </trkpt>
      <trkpt lat="45.00668" lon="6.039">
        <ele>1608.4000244141</ele>
        <time>2021-03-21T13:20:18.000Z</time>
      </trkpt>
      <trkpt lat="45.00671" lon="6.03902">
        <ele>1607.5999755859</ele>
        <time>2021-03-21T13:20:19.000Z</time>
      </trkpt>
      <trkpt lat="45.00673" lon="6.03904">
        <ele>1607</ele>
        <time>2021-03-21T13:20:20.000Z</time>
      </trkpt>
      <trkpt lat="45.00674" lon="6.03906">
        <ele>1606.1999511719</ele>
        <time>2021-03-21T13:20:21.000Z</time>
      </trkpt>
      <trkpt lat="45.00675" lon="6.03906">
        <ele>1606.1999511719</ele>
        <time>2021-03-21T13:20:22.000Z</time>
      </trkpt>
      <trkpt lat="45.00675" lon="6.03906">
        <ele>1606.1999511719</ele>
        <time>2021-03-21T13:20:23.000Z</time>
      </trkpt>
      <trkpt lat="45.00675" lon="6.03906">
        <ele>1606</ele>
        <time>2021-03-21T13:20:24.000Z</time>
      </trkpt>
      <trkpt lat="45.00674" lon="6.03907">
        <ele>1605.4000244141</ele>
        <time>2021-03-21T13:20:25.000Z</time>
      </trkpt>
      <trkpt lat="45.00674" lon="6.03907">
        <ele>1605</ele>
        <time>2021-03-21T13:20:26.000Z</time>
      </trkpt>
      <trkpt lat="45.00673" lon="6.03907">
        <ele>1605.1999511719</ele>
        <time>2021-03-21T13:20:27.000Z</time>
      </trkpt>
      <trkpt lat="45.00673" lon="6.03907">
        <ele>1605</ele>
        <time>2021-03-21T13:20:28.000Z</time>
      </trkpt>
      <trkpt lat="45.00673" lon="6.03907">
        <ele>1605</ele>
        <time>2021-03-21T13:20:29.000Z</time>
      </trkpt>
      <trkpt lat="45.00672" lon="6.03907">
        <ele>1605.1999511719</ele>
        <time>2021-03-21T13:20:30.000Z</time>
      </trkpt>
      <trkpt lat="45.00672" lon="6.03907">
        <ele>1605</ele>
        <time>2021-03-21T13:20:31.000Z</time>
      </trkpt>
      <trkpt lat="45.00673" lon="6.03907">
        <ele>1604.5999755859</ele>
        <time>2021-03-21T13:20:32.000Z</time>
      </trkpt>
      <trkpt lat="45.00674" lon="6.0391">
        <ele>1603.5999755859</ele>
        <time>2021-03-21T13:20:33.000Z</time>
      </trkpt>
      <trkpt lat="45.00677" lon="6.03913">
        <ele>1601.8000488281</ele>
        <time>2021-03-21T13:20:34.000Z</time>
      </trkpt>
      <trkpt lat="45.00681" lon="6.03916">
        <ele>1600</ele>
        <time>2021-03-21T13:20:35.000Z</time>
      </trkpt>
      <trkpt lat="45.00682" lon="6.03918">
        <ele>1598.8000488281</ele>
        <time>2021-03-21T13:20:36.000Z</time>
      </trkpt>
      <trkpt lat="45.00683" lon="6.03919">
        <ele>1598.8000488281</ele>
        <time>2021-03-21T13:20:37.000Z</time>
      </trkpt>
      <trkpt lat="45.00683" lon="6.03919">
        <ele>1599</ele>
        <time>2021-03-21T13:20:38.000Z</time>
      </trkpt>
      <trkpt lat="45.00683" lon="6.03918">
        <ele>1599.1999511719</ele>
        <time>2021-03-21T13:20:39.000Z</time>
      </trkpt>
      <trkpt lat="45.00683" lon="6.03918">
        <ele>1599.5999755859</ele>
        <time>2021-03-21T13:20:40.000Z</time>
      </trkpt>
      <trkpt lat="45.00683" lon="6.03917">
        <ele>1599.8000488281</ele>
        <time>2021-03-21T13:20:41.000Z</time>
      </trkpt>
      <trkpt lat="45.00683" lon="6.03918">
        <ele>1599.8000488281</ele>
        <time>2021-03-21T13:20:42.000Z</time>
      </trkpt>
      <trkpt lat="45.00684" lon="6.03918">
        <ele>1599.8000488281</ele>
        <time>2021-03-21T13:20:43.000Z</time>
      </trkpt>
      <trkpt lat="45.00686" lon="6.03918">
        <ele>1600.1999511719</ele>
        <time>2021-03-21T13:20:44.000Z</time>
      </trkpt>
      <trkpt lat="45.00688" lon="6.03918">
        <ele>1600.4000244141</ele>
        <time>2021-03-21T13:20:45.000Z</time>
      </trkpt>
      <trkpt lat="45.0069" lon="6.03918">
        <ele>1600.5999755859</ele>
        <time>2021-03-21T13:20:46.000Z</time>
      </trkpt>
      <trkpt lat="45.00691" lon="6.03919">
        <ele>1600.8000488281</ele>
        <time>2021-03-21T13:20:47.000Z</time>
      </trkpt>
      <trkpt lat="45.00693" lon="6.03919">
        <ele>1601</ele>
        <time>2021-03-21T13:20:48.000Z</time>
      </trkpt>
      <trkpt lat="45.00695" lon="6.03919">
        <ele>1601</ele>
        <time>2021-03-21T13:20:49.000Z</time>
      </trkpt>
      <trkpt lat="45.00698" lon="6.03921">
        <ele>1600.4000244141</ele>
        <time>2021-03-21T13:20:50.000Z</time>
      </trkpt>
      <trkpt lat="45.00701" lon="6.03923">
        <ele>1599.5999755859</ele>
        <time>2021-03-21T13:20:51.000Z</time>
      </trkpt>
      <trkpt lat="45.00704" lon="6.03924">
        <ele>1598.8000488281</ele>
        <time>2021-03-21T13:20:52.000Z</time>
      </trkpt>
      <trkpt lat="45.00707" lon="6.03926">
        <ele>1597.8000488281</ele>
        <time>2021-03-21T13:20:53.000Z</time>
      </trkpt>
      <trkpt lat="45.00711" lon="6.03928">
        <ele>1596.5999755859</ele>
        <time>2021-03-21T13:20:54.000Z</time>
      </trkpt>
      <trkpt lat="45.00713" lon="6.03929">
        <ele>1595.4000244141</ele>
        <time>2021-03-21T13:20:55.000Z</time>
      </trkpt>
      <trkpt lat="45.00716" lon="6.0393">
        <ele>1594.4000244141</ele>
        <time>2021-03-21T13:20:56.000Z</time>
      </trkpt>
      <trkpt lat="45.00719" lon="6.0393">
        <ele>1593.5999755859</ele>
        <time>2021-03-21T13:20:57.000Z</time>
      </trkpt>
      <trkpt lat="45.0072" lon="6.0393">
        <ele>1593.4000244141</ele>
        <time>2021-03-21T13:20:58.000Z</time>
      </trkpt>
      <trkpt lat="45.00719" lon="6.0393">
        <ele>1593.5999755859</ele>
        <time>2021-03-21T13:20:59.000Z</time>
      </trkpt>
      <trkpt lat="45.0072" lon="6.0393">
        <ele>1593.5999755859</ele>
        <time>2021-03-21T13:21:00.000Z</time>
      </trkpt>
      <trkpt lat="45.0072" lon="6.03929">
        <ele>1593.8000488281</ele>
        <time>2021-03-21T13:21:01.000Z</time>
      </trkpt>
      <trkpt lat="45.0072" lon="6.03929">
        <ele>1593.8000488281</ele>
        <time>2021-03-21T13:21:02.000Z</time>
      </trkpt>
      <trkpt lat="45.0072" lon="6.03928">
        <ele>1594.1999511719</ele>
        <time>2021-03-21T13:21:03.000Z</time>
      </trkpt>
      <trkpt lat="45.00719" lon="6.03928">
        <ele>1594.4000244141</ele>
        <time>2021-03-21T13:21:04.000Z</time>
      </trkpt>
      <trkpt lat="45.00719" lon="6.03928">
        <ele>1594.5999755859</ele>
        <time>2021-03-21T13:21:05.000Z</time>
      </trkpt>
      <trkpt lat="45.00719" lon="6.03928">
        <ele>1594.5999755859</ele>
        <time>2021-03-21T13:21:06.000Z</time>
      </trkpt>
      <trkpt lat="45.00719" lon="6.03928">
        <ele>1594.5999755859</ele>
        <time>2021-03-21T13:21:07.000Z</time>
      </trkpt>
      <trkpt lat="45.00719" lon="6.03929">
        <ele>1593.8000488281</ele>
        <time>2021-03-21T13:21:08.000Z</time>
      </trkpt>
      <trkpt lat="45.00718" lon="6.0393">
        <ele>1593.8000488281</ele>
        <time>2021-03-21T13:21:09.000Z</time>
      </trkpt>
      <trkpt lat="45.00717" lon="6.03931">
        <ele>1593.5999755859</ele>
        <time>2021-03-21T13:21:10.000Z</time>
      </trkpt>
      <trkpt lat="45.00717" lon="6.03931">
        <ele>1593.5999755859</ele>
        <time>2021-03-21T13:21:11.000Z</time>
      </trkpt>
      <trkpt lat="45.00717" lon="6.03931">
        <ele>1593.5999755859</ele>
        <time>2021-03-21T13:21:12.000Z</time>
      </trkpt>
      <trkpt lat="45.00717" lon="6.03931">
        <ele>1593.5999755859</ele>
        <time>2021-03-21T13:21:13.000Z</time>
      </trkpt>
      <trkpt lat="45.0072" lon="6.03933">
        <ele>1591.8000488281</ele>
        <time>2021-03-21T13:21:14.000Z</time>
      </trkpt>
      <trkpt lat="45.00721" lon="6.03936">
        <ele>1590.1999511719</ele>
        <time>2021-03-21T13:21:15.000Z</time>
      </trkpt>
      <trkpt lat="45.00724" lon="6.03938">
        <ele>1588.5999755859</ele>
        <time>2021-03-21T13:21:16.000Z</time>
      </trkpt>
      <trkpt lat="45.00727" lon="6.03939">
        <ele>1587.1999511719</ele>
        <time>2021-03-21T13:21:17.000Z</time>
      </trkpt>
      <trkpt lat="45.00729" lon="6.0394">
        <ele>1586.1999511719</ele>
        <time>2021-03-21T13:21:18.000Z</time>
      </trkpt>
      <trkpt lat="45.00727" lon="6.0394">
        <ele>1586.8000488281</ele>
        <time>2021-03-21T13:21:19.000Z</time>
      </trkpt>
      <trkpt lat="45.00727" lon="6.0394">
        <ele>1586.8000488281</ele>
        <time>2021-03-21T13:21:20.000Z</time>
      </trkpt>
      <trkpt lat="45.00727" lon="6.0394">
        <ele>1587.1999511719</ele>
        <time>2021-03-21T13:21:21.000Z</time>
      </trkpt>
      <trkpt lat="45.00726" lon="6.0394">
        <ele>1587</ele>
        <time>2021-03-21T13:21:22.000Z</time>
      </trkpt>
      <trkpt lat="45.00726" lon="6.0394">
        <ele>1586.8000488281</ele>
        <time>2021-03-21T13:21:23.000Z</time>
      </trkpt>
      <trkpt lat="45.00726" lon="6.03941">
        <ele>1586.5999755859</ele>
        <time>2021-03-21T13:21:24.000Z</time>
      </trkpt>
      <trkpt lat="45.00726" lon="6.03941">
        <ele>1586.5999755859</ele>
        <time>2021-03-21T13:21:25.000Z</time>
      </trkpt>
      <trkpt lat="45.00725" lon="6.03942">
        <ele>1586.4000244141</ele>
        <time>2021-03-21T13:21:26.000Z</time>
      </trkpt>
      <trkpt lat="45.00725" lon="6.03942">
        <ele>1586.4000244141</ele>
        <time>2021-03-21T13:21:27.000Z</time>
      </trkpt>
      <trkpt lat="45.00725" lon="6.03942">
        <ele>1586.4000244141</ele>
        <time>2021-03-21T13:21:28.000Z</time>
      </trkpt>
      <trkpt lat="45.00726" lon="6.03942">
        <ele>1586</ele>
        <time>2021-03-21T13:21:29.000Z</time>
      </trkpt>
      <trkpt lat="45.00726" lon="6.03942">
        <ele>1585.8000488281</ele>
        <time>2021-03-21T13:21:30.000Z</time>
      </trkpt>
      <trkpt lat="45.00727" lon="6.03943">
        <ele>1585.4000244141</ele>
        <time>2021-03-21T13:21:31.000Z</time>
      </trkpt>
      <trkpt lat="45.00729" lon="6.03946">
        <ele>1583.4000244141</ele>
        <time>2021-03-21T13:21:32.000Z</time>
      </trkpt>
      <trkpt lat="45.00732" lon="6.03947">
        <ele>1582.4000244141</ele>
        <time>2021-03-21T13:21:33.000Z</time>
      </trkpt>
      <trkpt lat="45.00734" lon="6.03947">
        <ele>1582</ele>
        <time>2021-03-21T13:21:34.000Z</time>
      </trkpt>
      <trkpt lat="45.00734" lon="6.03947">
        <ele>1581.5999755859</ele>
        <time>2021-03-21T13:21:35.000Z</time>
      </trkpt>
      <trkpt lat="45.00734" lon="6.03947">
        <ele>1581.8000488281</ele>
        <time>2021-03-21T13:21:36.000Z</time>
      </trkpt>
      <trkpt lat="45.00734" lon="6.03947">
        <ele>1581.5999755859</ele>
        <time>2021-03-21T13:21:37.000Z</time>
      </trkpt>
      <trkpt lat="45.00734" lon="6.03947">
        <ele>1581.5999755859</ele>
        <time>2021-03-21T13:21:38.000Z</time>
      </trkpt>
      <trkpt lat="45.00734" lon="6.03947">
        <ele>1581.8000488281</ele>
        <time>2021-03-21T13:21:39.000Z</time>
      </trkpt>
      <trkpt lat="45.00734" lon="6.03947">
        <ele>1582</ele>
        <time>2021-03-21T13:21:40.000Z</time>
      </trkpt>
      <trkpt lat="45.00734" lon="6.03947">
        <ele>1582</ele>
        <time>2021-03-21T13:21:41.000Z</time>
      </trkpt>
      <trkpt lat="45.00734" lon="6.03947">
        <ele>1582</ele>
        <time>2021-03-21T13:21:42.000Z</time>
      </trkpt>
      <trkpt lat="45.00734" lon="6.03946">
        <ele>1582.1999511719</ele>
        <time>2021-03-21T13:21:43.000Z</time>
      </trkpt>
      <trkpt lat="45.00734" lon="6.03946">
        <ele>1582.1999511719</ele>
        <time>2021-03-21T13:21:44.000Z</time>
      </trkpt>
      <trkpt lat="45.00734" lon="6.03946">
        <ele>1582.1999511719</ele>
        <time>2021-03-21T13:21:45.000Z</time>
      </trkpt>
      <trkpt lat="45.00733" lon="6.03946">
        <ele>1582.4000244141</ele>
        <time>2021-03-21T13:21:46.000Z</time>
      </trkpt>
      <trkpt lat="45.00733" lon="6.03946">
        <ele>1582.8000488281</ele>
        <time>2021-03-21T13:21:47.000Z</time>
      </trkpt>
      <trkpt lat="45.00732" lon="6.03945">
        <ele>1583</ele>
        <time>2021-03-21T13:21:48.000Z</time>
      </trkpt>
      <trkpt lat="45.00732" lon="6.03945">
        <ele>1583</ele>
        <time>2021-03-21T13:21:49.000Z</time>
      </trkpt>
      <trkpt lat="45.00732" lon="6.03945">
        <ele>1583.1999511719</ele>
        <time>2021-03-21T13:21:50.000Z</time>
      </trkpt>
      <trkpt lat="45.00733" lon="6.03945">
        <ele>1583.1999511719</ele>
        <time>2021-03-21T13:21:51.000Z</time>
      </trkpt>
      <trkpt lat="45.00733" lon="6.03945">
        <ele>1583.1999511719</ele>
        <time>2021-03-21T13:21:52.000Z</time>
      </trkpt>
      <trkpt lat="45.00732" lon="6.03945">
        <ele>1583</ele>
        <time>2021-03-21T13:21:53.000Z</time>
      </trkpt>
      <trkpt lat="45.00732" lon="6.03945">
        <ele>1583</ele>
        <time>2021-03-21T13:21:54.000Z</time>
      </trkpt>
      <trkpt lat="45.00732" lon="6.03945">
        <ele>1583.1999511719</ele>
        <time>2021-03-21T13:21:55.000Z</time>
      </trkpt>
      <trkpt lat="45.00733" lon="6.03945">
        <ele>1583.1999511719</ele>
        <time>2021-03-21T13:21:56.000Z</time>
      </trkpt>
      <trkpt lat="45.00732" lon="6.03945">
        <ele>1583.1999511719</ele>
        <time>2021-03-21T13:21:57.000Z</time>
      </trkpt>
      <trkpt lat="45.00733" lon="6.03945">
        <ele>1583.1999511719</ele>
        <time>2021-03-21T13:21:58.000Z</time>
      </trkpt>
      <trkpt lat="45.00732" lon="6.03945">
        <ele>1583</ele>
        <time>2021-03-21T13:21:59.000Z</time>
      </trkpt>
      <trkpt lat="45.00732" lon="6.03945">
        <ele>1583</ele>
        <time>2021-03-21T13:22:00.000Z</time>
      </trkpt>
      <trkpt lat="45.00733" lon="6.03946">
        <ele>1582.1999511719</ele>
        <time>2021-03-21T13:22:01.000Z</time>
      </trkpt>
      <trkpt lat="45.00736" lon="6.03949">
        <ele>1580.5999755859</ele>
        <time>2021-03-21T13:22:02.000Z</time>
      </trkpt>
      <trkpt lat="45.00736" lon="6.03949">
        <ele>1580.1999511719</ele>
        <time>2021-03-21T13:22:03.000Z</time>
      </trkpt>
      <trkpt lat="45.00736" lon="6.03949">
        <ele>1580.1999511719</ele>
        <time>2021-03-21T13:22:04.000Z</time>
      </trkpt>
      <trkpt lat="45.00736" lon="6.0395">
        <ele>1580</ele>
        <time>2021-03-21T13:22:05.000Z</time>
      </trkpt>
      <trkpt lat="45.00736" lon="6.03949">
        <ele>1580.1999511719</ele>
        <time>2021-03-21T13:22:06.000Z</time>
      </trkpt>
      <trkpt lat="45.00736" lon="6.0395">
        <ele>1580</ele>
        <time>2021-03-21T13:22:07.000Z</time>
      </trkpt>
      <trkpt lat="45.00737" lon="6.0395">
        <ele>1579.8000488281</ele>
        <time>2021-03-21T13:22:08.000Z</time>
      </trkpt>
      <trkpt lat="45.00738" lon="6.03951">
        <ele>1579.1999511719</ele>
        <time>2021-03-21T13:22:09.000Z</time>
      </trkpt>
      <trkpt lat="45.00741" lon="6.03953">
        <ele>1577.8000488281</ele>
        <time>2021-03-21T13:22:10.000Z</time>
      </trkpt>
      <trkpt lat="45.00743" lon="6.03955">
        <ele>1576.8000488281</ele>
        <time>2021-03-21T13:22:11.000Z</time>
      </trkpt>
      <trkpt lat="45.00745" lon="6.03956">
        <ele>1576</ele>
        <time>2021-03-21T13:22:12.000Z</time>
      </trkpt>
      <trkpt lat="45.00744" lon="6.03957">
        <ele>1575.8000488281</ele>
        <time>2021-03-21T13:22:13.000Z</time>
      </trkpt>
      <trkpt lat="45.00744" lon="6.03957">
        <ele>1576</ele>
        <time>2021-03-21T13:22:14.000Z</time>
      </trkpt>
      <trkpt lat="45.00743" lon="6.03956">
        <ele>1576</ele>
        <time>2021-03-21T13:22:15.000Z</time>
      </trkpt>
      <trkpt lat="45.00743" lon="6.03956">
        <ele>1576</ele>
        <time>2021-03-21T13:22:16.000Z</time>
      </trkpt>
      <trkpt lat="45.00742" lon="6.03957">
        <ele>1575.8000488281</ele>
        <time>2021-03-21T13:22:17.000Z</time>
      </trkpt>
      <trkpt lat="45.00741" lon="6.03958">
        <ele>1575.4000244141</ele>
        <time>2021-03-21T13:22:18.000Z</time>
      </trkpt>
      <trkpt lat="45.00739" lon="6.0396">
        <ele>1574.8000488281</ele>
        <time>2021-03-21T13:22:19.000Z</time>
      </trkpt>
      <trkpt lat="45.00738" lon="6.0396">
        <ele>1574.5999755859</ele>
        <time>2021-03-21T13:22:20.000Z</time>
      </trkpt>
      <trkpt lat="45.00738" lon="6.03961">
        <ele>1574.1999511719</ele>
        <time>2021-03-21T13:22:21.000Z</time>
      </trkpt>
      <trkpt lat="45.00739" lon="6.03961">
        <ele>1573.8000488281</ele>
        <time>2021-03-21T13:22:22.000Z</time>
      </trkpt>
      <trkpt lat="45.00739" lon="6.03961">
        <ele>1574.1999511719</ele>
        <time>2021-03-21T13:22:23.000Z</time>
      </trkpt>
      <trkpt lat="45.0074" lon="6.03961">
        <ele>1574.1999511719</ele>
        <time>2021-03-21T13:22:24.000Z</time>
      </trkpt>
      <trkpt lat="45.0074" lon="6.03961">
        <ele>1574.1999511719</ele>
        <time>2021-03-21T13:22:25.000Z</time>
      </trkpt>
      <trkpt lat="45.0074" lon="6.03961">
        <ele>1573.8000488281</ele>
        <time>2021-03-21T13:22:26.000Z</time>
      </trkpt>
      <trkpt lat="45.0074" lon="6.03961">
        <ele>1573.8000488281</ele>
        <time>2021-03-21T13:22:27.000Z</time>
      </trkpt>
      <trkpt lat="45.0074" lon="6.03961">
        <ele>1573.5999755859</ele>
        <time>2021-03-21T13:22:28.000Z</time>
      </trkpt>
      <trkpt lat="45.0074" lon="6.03962">
        <ele>1573.5999755859</ele>
        <time>2021-03-21T13:22:29.000Z</time>
      </trkpt>
      <trkpt lat="45.00741" lon="6.03962">
        <ele>1573.1999511719</ele>
        <time>2021-03-21T13:22:30.000Z</time>
      </trkpt>
      <trkpt lat="45.00741" lon="6.03963">
        <ele>1572.8000488281</ele>
        <time>2021-03-21T13:22:31.000Z</time>
      </trkpt>
      <trkpt lat="45.00741" lon="6.03963">
        <ele>1572.8000488281</ele>
        <time>2021-03-21T13:22:32.000Z</time>
      </trkpt>
      <trkpt lat="45.00741" lon="6.03965">
        <ele>1571.5999755859</ele>
        <time>2021-03-21T13:22:33.000Z</time>
      </trkpt>
      <trkpt lat="45.00739" lon="6.03967">
        <ele>1569.8000488281</ele>
        <time>2021-03-21T13:22:34.000Z</time>
      </trkpt>
      <trkpt lat="45.00737" lon="6.03968">
        <ele>1569</ele>
        <time>2021-03-21T13:22:35.000Z</time>
      </trkpt>
      <trkpt lat="45.00736" lon="6.03968">
        <ele>1568.8000488281</ele>
        <time>2021-03-21T13:22:36.000Z</time>
      </trkpt>
      <trkpt lat="45.00736" lon="6.03968">
        <ele>1569</ele>
        <time>2021-03-21T13:22:37.000Z</time>
      </trkpt>
      <trkpt lat="45.00736" lon="6.03968">
        <ele>1568.8000488281</ele>
        <time>2021-03-21T13:22:38.000Z</time>
      </trkpt>
      <trkpt lat="45.00735" lon="6.03968">
        <ele>1568.5999755859</ele>
        <time>2021-03-21T13:22:39.000Z</time>
      </trkpt>
      <trkpt lat="45.00734" lon="6.0397">
        <ele>1567.5999755859</ele>
        <time>2021-03-21T13:22:40.000Z</time>
      </trkpt>
      <trkpt lat="45.00731" lon="6.0397">
        <ele>1567</ele>
        <time>2021-03-21T13:22:41.000Z</time>
      </trkpt>
      <trkpt lat="45.00731" lon="6.03971">
        <ele>1566.4000244141</ele>
        <time>2021-03-21T13:22:42.000Z</time>
      </trkpt>
      <trkpt lat="45.00731" lon="6.03973">
        <ele>1564.8000488281</ele>
        <time>2021-03-21T13:22:43.000Z</time>
      </trkpt>
      <trkpt lat="45.00732" lon="6.03975">
        <ele>1563.4000244141</ele>
        <time>2021-03-21T13:22:44.000Z</time>
      </trkpt>
      <trkpt lat="45.00734" lon="6.03976">
        <ele>1562.5999755859</ele>
        <time>2021-03-21T13:22:45.000Z</time>
      </trkpt>
      <trkpt lat="45.00734" lon="6.03977">
        <ele>1562.4000244141</ele>
        <time>2021-03-21T13:22:46.000Z</time>
      </trkpt>
      <trkpt lat="45.00734" lon="6.03977">
        <ele>1562.5999755859</ele>
        <time>2021-03-21T13:22:47.000Z</time>
      </trkpt>
      <trkpt lat="45.00733" lon="6.03977">
        <ele>1562.4000244141</ele>
        <time>2021-03-21T13:22:48.000Z</time>
      </trkpt>
      <trkpt lat="45.00733" lon="6.03977">
        <ele>1562</ele>
        <time>2021-03-21T13:22:49.000Z</time>
      </trkpt>
      <trkpt lat="45.00737" lon="6.03981">
        <ele>1559.8000488281</ele>
        <time>2021-03-21T13:22:50.000Z</time>
      </trkpt>
      <trkpt lat="45.0074" lon="6.03982">
        <ele>1559</ele>
        <time>2021-03-21T13:22:51.000Z</time>
      </trkpt>
      <trkpt lat="45.00744" lon="6.03984">
        <ele>1558.4000244141</ele>
        <time>2021-03-21T13:22:52.000Z</time>
      </trkpt>
      <trkpt lat="45.00749" lon="6.03985">
        <ele>1557.8000488281</ele>
        <time>2021-03-21T13:22:53.000Z</time>
      </trkpt>
      <trkpt lat="45.00754" lon="6.03987">
        <ele>1557.1999511719</ele>
        <time>2021-03-21T13:22:54.000Z</time>
      </trkpt>
      <trkpt lat="45.00757" lon="6.03988">
        <ele>1556.8000488281</ele>
        <time>2021-03-21T13:22:55.000Z</time>
      </trkpt>
      <trkpt lat="45.00759" lon="6.03989">
        <ele>1556.5999755859</ele>
        <time>2021-03-21T13:22:56.000Z</time>
      </trkpt>
      <trkpt lat="45.00759" lon="6.03989">
        <ele>1556.8000488281</ele>
        <time>2021-03-21T13:22:57.000Z</time>
      </trkpt>
      <trkpt lat="45.00759" lon="6.03989">
        <ele>1556.8000488281</ele>
        <time>2021-03-21T13:22:58.000Z</time>
      </trkpt>
      <trkpt lat="45.00758" lon="6.03989">
        <ele>1556.8000488281</ele>
        <time>2021-03-21T13:22:59.000Z</time>
      </trkpt>
      <trkpt lat="45.00758" lon="6.03988">
        <ele>1557</ele>
        <time>2021-03-21T13:23:00.000Z</time>
      </trkpt>
      <trkpt lat="45.00758" lon="6.03987">
        <ele>1557.4000244141</ele>
        <time>2021-03-21T13:23:01.000Z</time>
      </trkpt>
      <trkpt lat="45.00758" lon="6.03987">
        <ele>1557.4000244141</ele>
        <time>2021-03-21T13:23:02.000Z</time>
      </trkpt>
      <trkpt lat="45.00758" lon="6.03987">
        <ele>1557.4000244141</ele>
        <time>2021-03-21T13:23:03.000Z</time>
      </trkpt>
      <trkpt lat="45.00757" lon="6.03987">
        <ele>1557.4000244141</ele>
        <time>2021-03-21T13:23:04.000Z</time>
      </trkpt>
      <trkpt lat="45.00757" lon="6.03987">
        <ele>1557.4000244141</ele>
        <time>2021-03-21T13:23:05.000Z</time>
      </trkpt>
      <trkpt lat="45.00757" lon="6.03987">
        <ele>1557.4000244141</ele>
        <time>2021-03-21T13:23:06.000Z</time>
      </trkpt>
      <trkpt lat="45.00757" lon="6.03987">
        <ele>1557.5999755859</ele>
        <time>2021-03-21T13:23:07.000Z</time>
      </trkpt>
      <trkpt lat="45.00757" lon="6.03986">
        <ele>1557.8000488281</ele>
        <time>2021-03-21T13:23:08.000Z</time>
      </trkpt>
      <trkpt lat="45.00756" lon="6.03986">
        <ele>1557.8000488281</ele>
        <time>2021-03-21T13:23:09.000Z</time>
      </trkpt>
      <trkpt lat="45.00756" lon="6.03987">
        <ele>1557.5999755859</ele>
        <time>2021-03-21T13:23:10.000Z</time>
      </trkpt>
      <trkpt lat="45.00756" lon="6.03987">
        <ele>1557.5999755859</ele>
        <time>2021-03-21T13:23:11.000Z</time>
      </trkpt>
      <trkpt lat="45.00757" lon="6.03987">
        <ele>1557.4000244141</ele>
        <time>2021-03-21T13:23:12.000Z</time>
      </trkpt>
      <trkpt lat="45.00758" lon="6.03989">
        <ele>1556.8000488281</ele>
        <time>2021-03-21T13:23:13.000Z</time>
      </trkpt>
      <trkpt lat="45.0076" lon="6.0399">
        <ele>1556.4000244141</ele>
        <time>2021-03-21T13:23:14.000Z</time>
      </trkpt>
      <trkpt lat="45.00763" lon="6.03992">
        <ele>1556</ele>
        <time>2021-03-21T13:23:15.000Z</time>
      </trkpt>
      <trkpt lat="45.00765" lon="6.03993">
        <ele>1555.8000488281</ele>
        <time>2021-03-21T13:23:16.000Z</time>
      </trkpt>
      <trkpt lat="45.00764" lon="6.03992">
        <ele>1556</ele>
        <time>2021-03-21T13:23:17.000Z</time>
      </trkpt>
      <trkpt lat="45.00764" lon="6.03992">
        <ele>1556</ele>
        <time>2021-03-21T13:23:18.000Z</time>
      </trkpt>
      <trkpt lat="45.00764" lon="6.03992">
        <ele>1555.8000488281</ele>
        <time>2021-03-21T13:23:19.000Z</time>
      </trkpt>
      <trkpt lat="45.00764" lon="6.03993">
        <ele>1555.8000488281</ele>
        <time>2021-03-21T13:23:20.000Z</time>
      </trkpt>
      <trkpt lat="45.00764" lon="6.03993">
        <ele>1555.8000488281</ele>
        <time>2021-03-21T13:23:21.000Z</time>
      </trkpt>
      <trkpt lat="45.00764" lon="6.03993">
        <ele>1555.5999755859</ele>
        <time>2021-03-21T13:23:22.000Z</time>
      </trkpt>
      <trkpt lat="45.00763" lon="6.03993">
        <ele>1555.5999755859</ele>
        <time>2021-03-21T13:23:23.000Z</time>
      </trkpt>
      <trkpt lat="45.00763" lon="6.03993">
        <ele>1555.5999755859</ele>
        <time>2021-03-21T13:23:24.000Z</time>
      </trkpt>
      <trkpt lat="45.00763" lon="6.03993">
        <ele>1555.5999755859</ele>
        <time>2021-03-21T13:23:25.000Z</time>
      </trkpt>
      <trkpt lat="45.00763" lon="6.03994">
        <ele>1555.4000244141</ele>
        <time>2021-03-21T13:23:26.000Z</time>
      </trkpt>
      <trkpt lat="45.00765" lon="6.03995">
        <ele>1555</ele>
        <time>2021-03-21T13:23:27.000Z</time>
      </trkpt>
      <trkpt lat="45.00767" lon="6.03996">
        <ele>1555</ele>
        <time>2021-03-21T13:23:28.000Z</time>
      </trkpt>
      <trkpt lat="45.00768" lon="6.03997">
        <ele>1554.8000488281</ele>
        <time>2021-03-21T13:23:29.000Z</time>
      </trkpt>
      <trkpt lat="45.00769" lon="6.03997">
        <ele>1554.5999755859</ele>
        <time>2021-03-21T13:23:30.000Z</time>
      </trkpt>
      <trkpt lat="45.0077" lon="6.03998">
        <ele>1554.5999755859</ele>
        <time>2021-03-21T13:23:31.000Z</time>
      </trkpt>
      <trkpt lat="45.00771" lon="6.03999">
        <ele>1554.4000244141</ele>
        <time>2021-03-21T13:23:32.000Z</time>
      </trkpt>
      <trkpt lat="45.00771" lon="6.03999">
        <ele>1554.4000244141</ele>
        <time>2021-03-21T13:23:33.000Z</time>
      </trkpt>
      <trkpt lat="45.00771" lon="6.03999">
        <ele>1554.1999511719</ele>
        <time>2021-03-21T13:23:34.000Z</time>
      </trkpt>
      <trkpt lat="45.0077" lon="6.03999">
        <ele>1554</ele>
        <time>2021-03-21T13:23:35.000Z</time>
      </trkpt>
      <trkpt lat="45.0077" lon="6.04">
        <ele>1554</ele>
        <time>2021-03-21T13:23:36.000Z</time>
      </trkpt>
      <trkpt lat="45.0077" lon="6.04">
        <ele>1553.5999755859</ele>
        <time>2021-03-21T13:23:37.000Z</time>
      </trkpt>
      <trkpt lat="45.00772" lon="6.04001">
        <ele>1553.5999755859</ele>
        <time>2021-03-21T13:23:38.000Z</time>
      </trkpt>
      <trkpt lat="45.00773" lon="6.04001">
        <ele>1553.8000488281</ele>
        <time>2021-03-21T13:23:39.000Z</time>
      </trkpt>
      <trkpt lat="45.00774" lon="6.04002">
        <ele>1553.5999755859</ele>
        <time>2021-03-21T13:23:40.000Z</time>
      </trkpt>
      <trkpt lat="45.00776" lon="6.04003">
        <ele>1553.5999755859</ele>
        <time>2021-03-21T13:23:41.000Z</time>
      </trkpt>
      <trkpt lat="45.00777" lon="6.04003">
        <ele>1553.5999755859</ele>
        <time>2021-03-21T13:23:42.000Z</time>
      </trkpt>
      <trkpt lat="45.00778" lon="6.04004">
        <ele>1553.4000244141</ele>
        <time>2021-03-21T13:23:43.000Z</time>
      </trkpt>
      <trkpt lat="45.00779" lon="6.04004">
        <ele>1553.4000244141</ele>
        <time>2021-03-21T13:23:44.000Z</time>
      </trkpt>
      <trkpt lat="45.0078" lon="6.04004">
        <ele>1553.5999755859</ele>
        <time>2021-03-21T13:23:45.000Z</time>
      </trkpt>
      <trkpt lat="45.00782" lon="6.04005">
        <ele>1553.5999755859</ele>
        <time>2021-03-21T13:23:46.000Z</time>
      </trkpt>
      <trkpt lat="45.00786" lon="6.04007">
        <ele>1553.1999511719</ele>
        <time>2021-03-21T13:23:47.000Z</time>
      </trkpt>
      <trkpt lat="45.00789" lon="6.04008">
        <ele>1553.1999511719</ele>
        <time>2021-03-21T13:23:48.000Z</time>
      </trkpt>
      <trkpt lat="45.00792" lon="6.04009">
        <ele>1553</ele>
        <time>2021-03-21T13:23:49.000Z</time>
      </trkpt>
      <trkpt lat="45.00792" lon="6.04009">
        <ele>1553</ele>
        <time>2021-03-21T13:23:50.000Z</time>
      </trkpt>
      <trkpt lat="45.00793" lon="6.04008">
        <ele>1553</ele>
        <time>2021-03-21T13:23:51.000Z</time>
      </trkpt>
      <trkpt lat="45.00793" lon="6.04009">
        <ele>1553</ele>
        <time>2021-03-21T13:23:52.000Z</time>
      </trkpt>
      <trkpt lat="45.00793" lon="6.04009">
        <ele>1553</ele>
        <time>2021-03-21T13:23:53.000Z</time>
      </trkpt>
      <trkpt lat="45.00792" lon="6.04009">
        <ele>1553</ele>
        <time>2021-03-21T13:23:54.000Z</time>
      </trkpt>
      <trkpt lat="45.00792" lon="6.04009">
        <ele>1553</ele>
        <time>2021-03-21T13:23:55.000Z</time>
      </trkpt>
      <trkpt lat="45.00793" lon="6.04009">
        <ele>1552.8000488281</ele>
        <time>2021-03-21T13:23:56.000Z</time>
      </trkpt>
      <trkpt lat="45.00792" lon="6.04012">
        <ele>1551.8000488281</ele>
        <time>2021-03-21T13:23:57.000Z</time>
      </trkpt>
      <trkpt lat="45.00791" lon="6.04015">
        <ele>1551</ele>
        <time>2021-03-21T13:23:58.000Z</time>
      </trkpt>
      <trkpt lat="45.00789" lon="6.04016">
        <ele>1550.1999511719</ele>
        <time>2021-03-21T13:23:59.000Z</time>
      </trkpt>
      <trkpt lat="45.00787" lon="6.04018">
        <ele>1548.8000488281</ele>
        <time>2021-03-21T13:24:00.000Z</time>
      </trkpt>
      <trkpt lat="45.00784" lon="6.0402">
        <ele>1547.4000244141</ele>
        <time>2021-03-21T13:24:01.000Z</time>
      </trkpt>
      <trkpt lat="45.00781" lon="6.04021">
        <ele>1546.5999755859</ele>
        <time>2021-03-21T13:24:02.000Z</time>
      </trkpt>
      <trkpt lat="45.00779" lon="6.04022">
        <ele>1545.5999755859</ele>
        <time>2021-03-21T13:24:03.000Z</time>
      </trkpt>
      <trkpt lat="45.00776" lon="6.04024">
        <ele>1544.4000244141</ele>
        <time>2021-03-21T13:24:04.000Z</time>
      </trkpt>
      <trkpt lat="45.00775" lon="6.04027">
        <ele>1542.5999755859</ele>
        <time>2021-03-21T13:24:05.000Z</time>
      </trkpt>
      <trkpt lat="45.00776" lon="6.04031">
        <ele>1541.4000244141</ele>
        <time>2021-03-21T13:24:06.000Z</time>
      </trkpt>
      <trkpt lat="45.00777" lon="6.04034">
        <ele>1540.4000244141</ele>
        <time>2021-03-21T13:24:07.000Z</time>
      </trkpt>
      <trkpt lat="45.0078" lon="6.04034">
        <ele>1540.1999511719</ele>
        <time>2021-03-21T13:24:08.000Z</time>
      </trkpt>
      <trkpt lat="45.00781" lon="6.04034">
        <ele>1540.1999511719</ele>
        <time>2021-03-21T13:24:09.000Z</time>
      </trkpt>
      <trkpt lat="45.00782" lon="6.04034">
        <ele>1540.1999511719</ele>
        <time>2021-03-21T13:24:10.000Z</time>
      </trkpt>
      <trkpt lat="45.00781" lon="6.04034">
        <ele>1540.1999511719</ele>
        <time>2021-03-21T13:24:11.000Z</time>
      </trkpt>
      <trkpt lat="45.00781" lon="6.04034">
        <ele>1540.1999511719</ele>
        <time>2021-03-21T13:24:12.000Z</time>
      </trkpt>
      <trkpt lat="45.00781" lon="6.04034">
        <ele>1540.1999511719</ele>
        <time>2021-03-21T13:24:13.000Z</time>
      </trkpt>
      <trkpt lat="45.00781" lon="6.04034">
        <ele>1540.1999511719</ele>
        <time>2021-03-21T13:24:14.000Z</time>
      </trkpt>
      <trkpt lat="45.00781" lon="6.04034">
        <ele>1540.1999511719</ele>
        <time>2021-03-21T13:24:15.000Z</time>
      </trkpt>
      <trkpt lat="45.0078" lon="6.04034">
        <ele>1540.1999511719</ele>
        <time>2021-03-21T13:24:16.000Z</time>
      </trkpt>
      <trkpt lat="45.0078" lon="6.04034">
        <ele>1540</ele>
        <time>2021-03-21T13:24:17.000Z</time>
      </trkpt>
      <trkpt lat="45.00779" lon="6.04034">
        <ele>1540.1999511719</ele>
        <time>2021-03-21T13:24:18.000Z</time>
      </trkpt>
      <trkpt lat="45.00779" lon="6.04034">
        <ele>1540</ele>
        <time>2021-03-21T13:24:19.000Z</time>
      </trkpt>
      <trkpt lat="45.00779" lon="6.04034">
        <ele>1540</ele>
        <time>2021-03-21T13:24:20.000Z</time>
      </trkpt>
      <trkpt lat="45.00778" lon="6.04035">
        <ele>1540</ele>
        <time>2021-03-21T13:24:21.000Z</time>
      </trkpt>
      <trkpt lat="45.00779" lon="6.04034">
        <ele>1540</ele>
        <time>2021-03-21T13:24:22.000Z</time>
      </trkpt>
      <trkpt lat="45.00778" lon="6.04035">
        <ele>1540</ele>
        <time>2021-03-21T13:24:23.000Z</time>
      </trkpt>
      <trkpt lat="45.00778" lon="6.04035">
        <ele>1540</ele>
        <time>2021-03-21T13:24:24.000Z</time>
      </trkpt>
      <trkpt lat="45.00779" lon="6.04035">
        <ele>1540</ele>
        <time>2021-03-21T13:24:25.000Z</time>
      </trkpt>
      <trkpt lat="45.00779" lon="6.04034">
        <ele>1540</ele>
        <time>2021-03-21T13:24:26.000Z</time>
      </trkpt>
      <trkpt lat="45.00779" lon="6.04034">
        <ele>1540.1999511719</ele>
        <time>2021-03-21T13:24:27.000Z</time>
      </trkpt>
      <trkpt lat="45.00779" lon="6.04034">
        <ele>1540.1999511719</ele>
        <time>2021-03-21T13:24:28.000Z</time>
      </trkpt>
      <trkpt lat="45.00779" lon="6.04034">
        <ele>1540.1999511719</ele>
        <time>2021-03-21T13:24:29.000Z</time>
      </trkpt>
      <trkpt lat="45.00779" lon="6.04034">
        <ele>1540.1999511719</ele>
        <time>2021-03-21T13:24:30.000Z</time>
      </trkpt>
      <trkpt lat="45.00779" lon="6.04034">
        <ele>1540.1999511719</ele>
        <time>2021-03-21T13:24:31.000Z</time>
      </trkpt>
      <trkpt lat="45.00779" lon="6.04034">
        <ele>1540.1999511719</ele>
        <time>2021-03-21T13:24:32.000Z</time>
      </trkpt>
      <trkpt lat="45.00779" lon="6.04034">
        <ele>1540.1999511719</ele>
        <time>2021-03-21T13:24:33.000Z</time>
      </trkpt>
      <trkpt lat="45.0078" lon="6.04034">
        <ele>1540.1999511719</ele>
        <time>2021-03-21T13:24:34.000Z</time>
      </trkpt>
      <trkpt lat="45.0078" lon="6.04034">
        <ele>1540.1999511719</ele>
        <time>2021-03-21T13:24:35.000Z</time>
      </trkpt>
      <trkpt lat="45.0078" lon="6.04034">
        <ele>1540.4000244141</ele>
        <time>2021-03-21T13:24:36.000Z</time>
      </trkpt>
      <trkpt lat="45.0078" lon="6.04033">
        <ele>1540.4000244141</ele>
        <time>2021-03-21T13:24:37.000Z</time>
      </trkpt>
      <trkpt lat="45.0078" lon="6.04033">
        <ele>1540.4000244141</ele>
        <time>2021-03-21T13:24:38.000Z</time>
      </trkpt>
      <trkpt lat="45.0078" lon="6.04033">
        <ele>1540.4000244141</ele>
        <time>2021-03-21T13:24:39.000Z</time>
      </trkpt>
      <trkpt lat="45.0078" lon="6.04033">
        <ele>1540.5999755859</ele>
        <time>2021-03-21T13:24:40.000Z</time>
      </trkpt>
      <trkpt lat="45.0078" lon="6.04033">
        <ele>1540.5999755859</ele>
        <time>2021-03-21T13:24:41.000Z</time>
      </trkpt>
      <trkpt lat="45.0078" lon="6.04033">
        <ele>1540.5999755859</ele>
        <time>2021-03-21T13:24:42.000Z</time>
      </trkpt>
      <trkpt lat="45.0078" lon="6.04033">
        <ele>1540.5999755859</ele>
        <time>2021-03-21T13:24:43.000Z</time>
      </trkpt>
      <trkpt lat="45.0078" lon="6.04032">
        <ele>1540.8000488281</ele>
        <time>2021-03-21T13:24:44.000Z</time>
      </trkpt>
      <trkpt lat="45.0078" lon="6.04032">
        <ele>1540.8000488281</ele>
        <time>2021-03-21T13:24:45.000Z</time>
      </trkpt>
      <trkpt lat="45.00779" lon="6.04031">
        <ele>1541.1999511719</ele>
        <time>2021-03-21T13:24:46.000Z</time>
      </trkpt>
      <trkpt lat="45.00779" lon="6.04031">
        <ele>1541.1999511719</ele>
        <time>2021-03-21T13:24:47.000Z</time>
      </trkpt>
      <trkpt lat="45.00779" lon="6.04031">
        <ele>1541.1999511719</ele>
        <time>2021-03-21T13:24:48.000Z</time>
      </trkpt>
      <trkpt lat="45.00779" lon="6.04031">
        <ele>1541.1999511719</ele>
        <time>2021-03-21T13:24:49.000Z</time>
      </trkpt>
      <trkpt lat="45.00779" lon="6.04031">
        <ele>1541.4000244141</ele>
        <time>2021-03-21T13:24:50.000Z</time>
      </trkpt>
      <trkpt lat="45.00778" lon="6.0403">
        <ele>1541.4000244141</ele>
        <time>2021-03-21T13:24:51.000Z</time>
      </trkpt>
      <trkpt lat="45.00778" lon="6.0403">
        <ele>1541.5999755859</ele>
        <time>2021-03-21T13:24:52.000Z</time>
      </trkpt>
      <trkpt lat="45.00778" lon="6.0403">
        <ele>1541.8000488281</ele>
        <time>2021-03-21T13:24:53.000Z</time>
      </trkpt>
      <trkpt lat="45.00778" lon="6.0403">
        <ele>1541.8000488281</ele>
        <time>2021-03-21T13:24:54.000Z</time>
      </trkpt>
      <trkpt lat="45.00778" lon="6.0403">
        <ele>1541.8000488281</ele>
        <time>2021-03-21T13:24:55.000Z</time>
      </trkpt>
      <trkpt lat="45.00777" lon="6.04029">
        <ele>1541.8000488281</ele>
        <time>2021-03-21T13:24:56.000Z</time>
      </trkpt>
      <trkpt lat="45.00778" lon="6.04029">
        <ele>1541.8000488281</ele>
        <time>2021-03-21T13:24:57.000Z</time>
      </trkpt>
      <trkpt lat="45.00778" lon="6.04029">
        <ele>1541.8000488281</ele>
        <time>2021-03-21T13:24:58.000Z</time>
      </trkpt>
      <trkpt lat="45.00779" lon="6.04029">
        <ele>1541.8000488281</ele>
        <time>2021-03-21T13:24:59.000Z</time>
      </trkpt>
      <trkpt lat="45.00779" lon="6.04029">
        <ele>1542</ele>
        <time>2021-03-21T13:25:00.000Z</time>
      </trkpt>
      <trkpt lat="45.00779" lon="6.04029">
        <ele>1542</ele>
        <time>2021-03-21T13:25:01.000Z</time>
      </trkpt>
      <trkpt lat="45.0078" lon="6.04029">
        <ele>1542.1999511719</ele>
        <time>2021-03-21T13:25:02.000Z</time>
      </trkpt>
      <trkpt lat="45.0078" lon="6.04029">
        <ele>1542.4000244141</ele>
        <time>2021-03-21T13:25:03.000Z</time>
      </trkpt>
      <trkpt lat="45.0078" lon="6.04029">
        <ele>1542.4000244141</ele>
        <time>2021-03-21T13:25:04.000Z</time>
      </trkpt>
      <trkpt lat="45.0078" lon="6.04029">
        <ele>1542.4000244141</ele>
        <time>2021-03-21T13:25:05.000Z</time>
      </trkpt>
      <trkpt lat="45.00779" lon="6.04028">
        <ele>1542.5999755859</ele>
        <time>2021-03-21T13:25:06.000Z</time>
      </trkpt>
      <trkpt lat="45.00779" lon="6.04028">
        <ele>1542.5999755859</ele>
        <time>2021-03-21T13:25:07.000Z</time>
      </trkpt>
      <trkpt lat="45.00779" lon="6.04029">
        <ele>1542.4000244141</ele>
        <time>2021-03-21T13:25:08.000Z</time>
      </trkpt>
      <trkpt lat="45.0078" lon="6.04029">
        <ele>1542.1999511719</ele>
        <time>2021-03-21T13:25:09.000Z</time>
      </trkpt>
      <trkpt lat="45.00779" lon="6.04029">
        <ele>1542.1999511719</ele>
        <time>2021-03-21T13:25:10.000Z</time>
      </trkpt>
      <trkpt lat="45.0078" lon="6.04029">
        <ele>1542.4000244141</ele>
        <time>2021-03-21T13:25:11.000Z</time>
      </trkpt>
      <trkpt lat="45.0078" lon="6.04029">
        <ele>1542.4000244141</ele>
        <time>2021-03-21T13:25:12.000Z</time>
      </trkpt>
      <trkpt lat="45.0078" lon="6.04029">
        <ele>1542.4000244141</ele>
        <time>2021-03-21T13:25:13.000Z</time>
      </trkpt>
      <trkpt lat="45.0078" lon="6.04029">
        <ele>1542.4000244141</ele>
        <time>2021-03-21T13:25:14.000Z</time>
      </trkpt>
      <trkpt lat="45.0078" lon="6.04029">
        <ele>1542.4000244141</ele>
        <time>2021-03-21T13:25:15.000Z</time>
      </trkpt>
      <trkpt lat="45.0078" lon="6.0403">
        <ele>1542</ele>
        <time>2021-03-21T13:25:16.000Z</time>
      </trkpt>
      <trkpt lat="45.0078" lon="6.0403">
        <ele>1541.8000488281</ele>
        <time>2021-03-21T13:25:17.000Z</time>
      </trkpt>
      <trkpt lat="45.0078" lon="6.0403">
        <ele>1541.5999755859</ele>
        <time>2021-03-21T13:25:18.000Z</time>
      </trkpt>
      <trkpt lat="45.0078" lon="6.0403">
        <ele>1541.5999755859</ele>
        <time>2021-03-21T13:25:19.000Z</time>
      </trkpt>
      <trkpt lat="45.0078" lon="6.04031">
        <ele>1541.4000244141</ele>
        <time>2021-03-21T13:25:20.000Z</time>
      </trkpt>
      <trkpt lat="45.0078" lon="6.04031">
        <ele>1541.4000244141</ele>
        <time>2021-03-21T13:25:21.000Z</time>
      </trkpt>
      <trkpt lat="45.0078" lon="6.04031">
        <ele>1541.1999511719</ele>
        <time>2021-03-21T13:25:22.000Z</time>
      </trkpt>
      <trkpt lat="45.0078" lon="6.04031">
        <ele>1541.1999511719</ele>
        <time>2021-03-21T13:25:23.000Z</time>
      </trkpt>
      <trkpt lat="45.0078" lon="6.04031">
        <ele>1541.1999511719</ele>
        <time>2021-03-21T13:25:24.000Z</time>
      </trkpt>
      <trkpt lat="45.0078" lon="6.04032">
        <ele>1541</ele>
        <time>2021-03-21T13:25:25.000Z</time>
      </trkpt>
      <trkpt lat="45.0078" lon="6.04032">
        <ele>1541</ele>
        <time>2021-03-21T13:25:26.000Z</time>
      </trkpt>
      <trkpt lat="45.00781" lon="6.04032">
        <ele>1541</ele>
        <time>2021-03-21T13:25:27.000Z</time>
      </trkpt>
      <trkpt lat="45.00781" lon="6.04032">
        <ele>1541</ele>
        <time>2021-03-21T13:25:28.000Z</time>
      </trkpt>
      <trkpt lat="45.00781" lon="6.04032">
        <ele>1541</ele>
        <time>2021-03-21T13:25:29.000Z</time>
      </trkpt>
      <trkpt lat="45.00781" lon="6.04032">
        <ele>1541</ele>
        <time>2021-03-21T13:25:30.000Z</time>
      </trkpt>
      <trkpt lat="45.00781" lon="6.04032">
        <ele>1541</ele>
        <time>2021-03-21T13:25:31.000Z</time>
      </trkpt>
      <trkpt lat="45.00781" lon="6.04032">
        <ele>1541</ele>
        <time>2021-03-21T13:25:32.000Z</time>
      </trkpt>
      <trkpt lat="45.00781" lon="6.04032">
        <ele>1541</ele>
        <time>2021-03-21T13:25:33.000Z</time>
      </trkpt>
      <trkpt lat="45.0078" lon="6.04032">
        <ele>1541</ele>
        <time>2021-03-21T13:25:34.000Z</time>
      </trkpt>
      <trkpt lat="45.0078" lon="6.04032">
        <ele>1541</ele>
        <time>2021-03-21T13:25:35.000Z</time>
      </trkpt>
      <trkpt lat="45.0078" lon="6.04032">
        <ele>1541</ele>
        <time>2021-03-21T13:25:36.000Z</time>
      </trkpt>
      <trkpt lat="45.00779" lon="6.04032">
        <ele>1541</ele>
        <time>2021-03-21T13:25:37.000Z</time>
      </trkpt>
      <trkpt lat="45.00779" lon="6.04032">
        <ele>1541</ele>
        <time>2021-03-21T13:25:38.000Z</time>
      </trkpt>
      <trkpt lat="45.00779" lon="6.04032">
        <ele>1541</ele>
        <time>2021-03-21T13:25:39.000Z</time>
      </trkpt>
      <trkpt lat="45.00779" lon="6.04032">
        <ele>1541</ele>
        <time>2021-03-21T13:25:40.000Z</time>
      </trkpt>
      <trkpt lat="45.00779" lon="6.04032">
        <ele>1541</ele>
        <time>2021-03-21T13:25:41.000Z</time>
      </trkpt>
      <trkpt lat="45.00779" lon="6.04031">
        <ele>1541</ele>
        <time>2021-03-21T13:25:42.000Z</time>
      </trkpt>
      <trkpt lat="45.00779" lon="6.04031">
        <ele>1541.1999511719</ele>
        <time>2021-03-21T13:25:43.000Z</time>
      </trkpt>
      <trkpt lat="45.0078" lon="6.04031">
        <ele>1541.4000244141</ele>
        <time>2021-03-21T13:25:44.000Z</time>
      </trkpt>
      <trkpt lat="45.0078" lon="6.04031">
        <ele>1541.4000244141</ele>
        <time>2021-03-21T13:25:45.000Z</time>
      </trkpt>
      <trkpt lat="45.00779" lon="6.0403">
        <ele>1541.5999755859</ele>
        <time>2021-03-21T13:25:46.000Z</time>
      </trkpt>
      <trkpt lat="45.00779" lon="6.0403">
        <ele>1541.5999755859</ele>
        <time>2021-03-21T13:25:47.000Z</time>
      </trkpt>
      <trkpt lat="45.00779" lon="6.0403">
        <ele>1541.5999755859</ele>
        <time>2021-03-21T13:25:48.000Z</time>
      </trkpt>
      <trkpt lat="45.00779" lon="6.0403">
        <ele>1541.5999755859</ele>
        <time>2021-03-21T13:25:49.000Z</time>
      </trkpt>
      <trkpt lat="45.00779" lon="6.0403">
        <ele>1541.5999755859</ele>
        <time>2021-03-21T13:25:50.000Z</time>
      </trkpt>
      <trkpt lat="45.00779" lon="6.04029">
        <ele>1542</ele>
        <time>2021-03-21T13:25:51.000Z</time>
      </trkpt>
      <trkpt lat="45.00779" lon="6.04029">
        <ele>1542</ele>
        <time>2021-03-21T13:25:52.000Z</time>
      </trkpt>
      <trkpt lat="45.00779" lon="6.04029">
        <ele>1542</ele>
        <time>2021-03-21T13:25:53.000Z</time>
      </trkpt>
      <trkpt lat="45.00779" lon="6.0403">
        <ele>1541.8000488281</ele>
        <time>2021-03-21T13:25:54.000Z</time>
      </trkpt>
      <trkpt lat="45.0078" lon="6.0403">
        <ele>1541.8000488281</ele>
        <time>2021-03-21T13:25:55.000Z</time>
      </trkpt>
      <trkpt lat="45.0078" lon="6.0403">
        <ele>1541.8000488281</ele>
        <time>2021-03-21T13:25:56.000Z</time>
      </trkpt>
      <trkpt lat="45.00779" lon="6.04029">
        <ele>1542.1999511719</ele>
        <time>2021-03-21T13:25:57.000Z</time>
      </trkpt>
      <trkpt lat="45.0078" lon="6.04029">
        <ele>1542.1999511719</ele>
        <time>2021-03-21T13:25:58.000Z</time>
      </trkpt>
      <trkpt lat="45.00779" lon="6.04029">
        <ele>1542.1999511719</ele>
        <time>2021-03-21T13:25:59.000Z</time>
      </trkpt>
      <trkpt lat="45.00779" lon="6.04029">
        <ele>1542.1999511719</ele>
        <time>2021-03-21T13:26:00.000Z</time>
      </trkpt>
      <trkpt lat="45.0078" lon="6.04029">
        <ele>1542.1999511719</ele>
        <time>2021-03-21T13:26:01.000Z</time>
      </trkpt>
      <trkpt lat="45.0078" lon="6.04029">
        <ele>1542.1999511719</ele>
        <time>2021-03-21T13:26:02.000Z</time>
      </trkpt>
      <trkpt lat="45.00778" lon="6.04029">
        <ele>1542.1999511719</ele>
        <time>2021-03-21T13:26:03.000Z</time>
      </trkpt>
      <trkpt lat="45.00778" lon="6.04029">
        <ele>1542.1999511719</ele>
        <time>2021-03-21T13:26:04.000Z</time>
      </trkpt>
      <trkpt lat="45.00778" lon="6.04029">
        <ele>1542.1999511719</ele>
        <time>2021-03-21T13:26:05.000Z</time>
      </trkpt>
      <trkpt lat="45.00777" lon="6.04029">
        <ele>1542.1999511719</ele>
        <time>2021-03-21T13:26:06.000Z</time>
      </trkpt>
      <trkpt lat="45.00777" lon="6.04029">
        <ele>1542.1999511719</ele>
        <time>2021-03-21T13:26:07.000Z</time>
      </trkpt>
      <trkpt lat="45.00777" lon="6.04028">
        <ele>1542.1999511719</ele>
        <time>2021-03-21T13:26:08.000Z</time>
      </trkpt>
      <trkpt lat="45.00777" lon="6.04028">
        <ele>1542.1999511719</ele>
        <time>2021-03-21T13:26:09.000Z</time>
      </trkpt>
      <trkpt lat="45.00776" lon="6.04028">
        <ele>1542.4000244141</ele>
        <time>2021-03-21T13:26:10.000Z</time>
      </trkpt>
      <trkpt lat="45.00776" lon="6.04028">
        <ele>1542.4000244141</ele>
        <time>2021-03-21T13:26:11.000Z</time>
      </trkpt>
      <trkpt lat="45.00776" lon="6.04028">
        <ele>1542.1999511719</ele>
        <time>2021-03-21T13:26:12.000Z</time>
      </trkpt>
      <trkpt lat="45.00776" lon="6.04028">
        <ele>1542.4000244141</ele>
        <time>2021-03-21T13:26:13.000Z</time>
      </trkpt>
      <trkpt lat="45.00775" lon="6.04028">
        <ele>1542.4000244141</ele>
        <time>2021-03-21T13:26:14.000Z</time>
      </trkpt>
      <trkpt lat="45.00774" lon="6.04027">
        <ele>1542.5999755859</ele>
        <time>2021-03-21T13:26:15.000Z</time>
      </trkpt>
      <trkpt lat="45.00774" lon="6.04028">
        <ele>1542.5999755859</ele>
        <time>2021-03-21T13:26:16.000Z</time>
      </trkpt>
      <trkpt lat="45.00773" lon="6.04027">
        <ele>1542.5999755859</ele>
        <time>2021-03-21T13:26:17.000Z</time>
      </trkpt>
      <trkpt lat="45.00772" lon="6.04027">
        <ele>1542.8000488281</ele>
        <time>2021-03-21T13:26:18.000Z</time>
      </trkpt>
      <trkpt lat="45.00772" lon="6.04027">
        <ele>1542.5999755859</ele>
        <time>2021-03-21T13:26:19.000Z</time>
      </trkpt>
      <trkpt lat="45.00772" lon="6.04027">
        <ele>1542.5999755859</ele>
        <time>2021-03-21T13:26:20.000Z</time>
      </trkpt>
      <trkpt lat="45.00772" lon="6.04027">
        <ele>1542.5999755859</ele>
        <time>2021-03-21T13:26:21.000Z</time>
      </trkpt>
      <trkpt lat="45.00772" lon="6.04027">
        <ele>1542.5999755859</ele>
        <time>2021-03-21T13:26:22.000Z</time>
      </trkpt>
      <trkpt lat="45.00772" lon="6.04027">
        <ele>1542.8000488281</ele>
        <time>2021-03-21T13:26:23.000Z</time>
      </trkpt>
      <trkpt lat="45.00772" lon="6.04027">
        <ele>1542.8000488281</ele>
        <time>2021-03-21T13:26:24.000Z</time>
      </trkpt>
      <trkpt lat="45.00772" lon="6.04027">
        <ele>1542.5999755859</ele>
        <time>2021-03-21T13:26:25.000Z</time>
      </trkpt>
      <trkpt lat="45.00772" lon="6.04028">
        <ele>1542.4000244141</ele>
        <time>2021-03-21T13:26:26.000Z</time>
      </trkpt>
      <trkpt lat="45.00772" lon="6.04028">
        <ele>1542.4000244141</ele>
        <time>2021-03-21T13:26:27.000Z</time>
      </trkpt>
      <trkpt lat="45.00772" lon="6.04028">
        <ele>1542.1999511719</ele>
        <time>2021-03-21T13:26:28.000Z</time>
      </trkpt>
      <trkpt lat="45.00773" lon="6.04029">
        <ele>1542.1999511719</ele>
        <time>2021-03-21T13:26:29.000Z</time>
      </trkpt>
      <trkpt lat="45.00773" lon="6.04029">
        <ele>1542</ele>
        <time>2021-03-21T13:26:30.000Z</time>
      </trkpt>
      <trkpt lat="45.00773" lon="6.04029">
        <ele>1541.8000488281</ele>
        <time>2021-03-21T13:26:31.000Z</time>
      </trkpt>
      <trkpt lat="45.00773" lon="6.04029">
        <ele>1541.8000488281</ele>
        <time>2021-03-21T13:26:32.000Z</time>
      </trkpt>
      <trkpt lat="45.00773" lon="6.04029">
        <ele>1541.8000488281</ele>
        <time>2021-03-21T13:26:33.000Z</time>
      </trkpt>
      <trkpt lat="45.00773" lon="6.04029">
        <ele>1541.8000488281</ele>
        <time>2021-03-21T13:26:34.000Z</time>
      </trkpt>
      <trkpt lat="45.00774" lon="6.0403">
        <ele>1541.8000488281</ele>
        <time>2021-03-21T13:26:35.000Z</time>
      </trkpt>
      <trkpt lat="45.00774" lon="6.0403">
        <ele>1541.8000488281</ele>
        <time>2021-03-21T13:26:36.000Z</time>
      </trkpt>
      <trkpt lat="45.00774" lon="6.0403">
        <ele>1541.8000488281</ele>
        <time>2021-03-21T13:26:37.000Z</time>
      </trkpt>
      <trkpt lat="45.00774" lon="6.04029">
        <ele>1541.8000488281</ele>
        <time>2021-03-21T13:26:38.000Z</time>
      </trkpt>
      <trkpt lat="45.00774" lon="6.04029">
        <ele>1541.8000488281</ele>
        <time>2021-03-21T13:26:39.000Z</time>
      </trkpt>
      <trkpt lat="45.00774" lon="6.04029">
        <ele>1541.8000488281</ele>
        <time>2021-03-21T13:26:40.000Z</time>
      </trkpt>
      <trkpt lat="45.00774" lon="6.04029">
        <ele>1542</ele>
        <time>2021-03-21T13:26:41.000Z</time>
      </trkpt>
      <trkpt lat="45.00774" lon="6.04029">
        <ele>1542</ele>
        <time>2021-03-21T13:26:42.000Z</time>
      </trkpt>
      <trkpt lat="45.00775" lon="6.04029">
        <ele>1542.1999511719</ele>
        <time>2021-03-21T13:26:43.000Z</time>
      </trkpt>
      <trkpt lat="45.00774" lon="6.04028">
        <ele>1542.1999511719</ele>
        <time>2021-03-21T13:26:44.000Z</time>
      </trkpt>
      <trkpt lat="45.00774" lon="6.04028">
        <ele>1542.1999511719</ele>
        <time>2021-03-21T13:26:45.000Z</time>
      </trkpt>
      <trkpt lat="45.00774" lon="6.04028">
        <ele>1542.4000244141</ele>
        <time>2021-03-21T13:26:46.000Z</time>
      </trkpt>
      <trkpt lat="45.00774" lon="6.04027">
        <ele>1542.5999755859</ele>
        <time>2021-03-21T13:26:47.000Z</time>
      </trkpt>
      <trkpt lat="45.00775" lon="6.04027">
        <ele>1542.8000488281</ele>
        <time>2021-03-21T13:26:48.000Z</time>
      </trkpt>
      <trkpt lat="45.00775" lon="6.04027">
        <ele>1542.8000488281</ele>
        <time>2021-03-21T13:26:49.000Z</time>
      </trkpt>
      <trkpt lat="45.00775" lon="6.04026">
        <ele>1542.8000488281</ele>
        <time>2021-03-21T13:26:50.000Z</time>
      </trkpt>
      <trkpt lat="45.00775" lon="6.04026">
        <ele>1543</ele>
        <time>2021-03-21T13:26:51.000Z</time>
      </trkpt>
      <trkpt lat="45.00775" lon="6.04026">
        <ele>1543</ele>
        <time>2021-03-21T13:26:52.000Z</time>
      </trkpt>
      <trkpt lat="45.00775" lon="6.04026">
        <ele>1543</ele>
        <time>2021-03-21T13:26:53.000Z</time>
      </trkpt>
      <trkpt lat="45.00775" lon="6.04026">
        <ele>1543.1999511719</ele>
        <time>2021-03-21T13:26:54.000Z</time>
      </trkpt>
      <trkpt lat="45.00774" lon="6.04026">
        <ele>1543.1999511719</ele>
        <time>2021-03-21T13:26:55.000Z</time>
      </trkpt>
      <trkpt lat="45.00775" lon="6.04026">
        <ele>1543</ele>
        <time>2021-03-21T13:26:56.000Z</time>
      </trkpt>
      <trkpt lat="45.00775" lon="6.04027">
        <ele>1542.8000488281</ele>
        <time>2021-03-21T13:26:57.000Z</time>
      </trkpt>
      <trkpt lat="45.00775" lon="6.04026">
        <ele>1542.8000488281</ele>
        <time>2021-03-21T13:26:58.000Z</time>
      </trkpt>
      <trkpt lat="45.00775" lon="6.04027">
        <ele>1542.8000488281</ele>
        <time>2021-03-21T13:26:59.000Z</time>
      </trkpt>
      <trkpt lat="45.00775" lon="6.04027">
        <ele>1542.8000488281</ele>
        <time>2021-03-21T13:27:00.000Z</time>
      </trkpt>
      <trkpt lat="45.00775" lon="6.04027">
        <ele>1542.8000488281</ele>
        <time>2021-03-21T13:27:01.000Z</time>
      </trkpt>
      <trkpt lat="45.00775" lon="6.04026">
        <ele>1543</ele>
        <time>2021-03-21T13:27:02.000Z</time>
      </trkpt>
      <trkpt lat="45.00775" lon="6.04026">
        <ele>1543.1999511719</ele>
        <time>2021-03-21T13:27:03.000Z</time>
      </trkpt>
      <trkpt lat="45.00775" lon="6.04026">
        <ele>1543.1999511719</ele>
        <time>2021-03-21T13:27:04.000Z</time>
      </trkpt>
      <trkpt lat="45.00775" lon="6.04026">
        <ele>1543.1999511719</ele>
        <time>2021-03-21T13:27:05.000Z</time>
      </trkpt>
      <trkpt lat="45.00775" lon="6.04026">
        <ele>1543.1999511719</ele>
        <time>2021-03-21T13:27:06.000Z</time>
      </trkpt>
      <trkpt lat="45.00774" lon="6.04026">
        <ele>1543</ele>
        <time>2021-03-21T13:27:07.000Z</time>
      </trkpt>
      <trkpt lat="45.00774" lon="6.04026">
        <ele>1543</ele>
        <time>2021-03-21T13:27:08.000Z</time>
      </trkpt>
      <trkpt lat="45.00774" lon="6.04026">
        <ele>1543.1999511719</ele>
        <time>2021-03-21T13:27:09.000Z</time>
      </trkpt>
      <trkpt lat="45.00774" lon="6.04027">
        <ele>1542.8000488281</ele>
        <time>2021-03-21T13:27:10.000Z</time>
      </trkpt>
      <trkpt lat="45.00774" lon="6.04026">
        <ele>1542.8000488281</ele>
        <time>2021-03-21T13:27:11.000Z</time>
      </trkpt>
      <trkpt lat="45.00774" lon="6.04026">
        <ele>1543</ele>
        <time>2021-03-21T13:27:12.000Z</time>
      </trkpt>
      <trkpt lat="45.00774" lon="6.04026">
        <ele>1543</ele>
        <time>2021-03-21T13:27:13.000Z</time>
      </trkpt>
      <trkpt lat="45.00774" lon="6.04026">
        <ele>1543</ele>
        <time>2021-03-21T13:27:14.000Z</time>
      </trkpt>
      <trkpt lat="45.00774" lon="6.04026">
        <ele>1543</ele>
        <time>2021-03-21T13:27:15.000Z</time>
      </trkpt>
      <trkpt lat="45.00774" lon="6.04026">
        <ele>1543</ele>
        <time>2021-03-21T13:27:16.000Z</time>
      </trkpt>
      <trkpt lat="45.00774" lon="6.04026">
        <ele>1543.1999511719</ele>
        <time>2021-03-21T13:27:17.000Z</time>
      </trkpt>
      <trkpt lat="45.00774" lon="6.04026">
        <ele>1543.1999511719</ele>
        <time>2021-03-21T13:27:18.000Z</time>
      </trkpt>
      <trkpt lat="45.00774" lon="6.04026">
        <ele>1543</ele>
        <time>2021-03-21T13:27:19.000Z</time>
      </trkpt>
      <trkpt lat="45.00774" lon="6.04026">
        <ele>1543</ele>
        <time>2021-03-21T13:27:20.000Z</time>
      </trkpt>
      <trkpt lat="45.00774" lon="6.04026">
        <ele>1542.8000488281</ele>
        <time>2021-03-21T13:27:21.000Z</time>
      </trkpt>
      <trkpt lat="45.00774" lon="6.04027">
        <ele>1542.8000488281</ele>
        <time>2021-03-21T13:27:22.000Z</time>
      </trkpt>
      <trkpt lat="45.00775" lon="6.04027">
        <ele>1542.8000488281</ele>
        <time>2021-03-21T13:27:23.000Z</time>
      </trkpt>
      <trkpt lat="45.00775" lon="6.04027">
        <ele>1542.8000488281</ele>
        <time>2021-03-21T13:27:24.000Z</time>
      </trkpt>
      <trkpt lat="45.00775" lon="6.04027">
        <ele>1542.8000488281</ele>
        <time>2021-03-21T13:27:25.000Z</time>
      </trkpt>
      <trkpt lat="45.00775" lon="6.04027">
        <ele>1542.5999755859</ele>
        <time>2021-03-21T13:27:26.000Z</time>
      </trkpt>
      <trkpt lat="45.00775" lon="6.04028">
        <ele>1542.4000244141</ele>
        <time>2021-03-21T13:27:27.000Z</time>
      </trkpt>
      <trkpt lat="45.00775" lon="6.04028">
        <ele>1542.4000244141</ele>
        <time>2021-03-21T13:27:28.000Z</time>
      </trkpt>
      <trkpt lat="45.00776" lon="6.04028">
        <ele>1542.4000244141</ele>
        <time>2021-03-21T13:27:29.000Z</time>
      </trkpt>
      <trkpt lat="45.00776" lon="6.04028">
        <ele>1542.4000244141</ele>
        <time>2021-03-21T13:27:30.000Z</time>
      </trkpt>
      <trkpt lat="45.00776" lon="6.04028">
        <ele>1542.4000244141</ele>
        <time>2021-03-21T13:27:31.000Z</time>
      </trkpt>
      <trkpt lat="45.00776" lon="6.04028">
        <ele>1542.4000244141</ele>
        <time>2021-03-21T13:27:32.000Z</time>
      </trkpt>
      <trkpt lat="45.00777" lon="6.04028">
        <ele>1542.1999511719</ele>
        <time>2021-03-21T13:27:33.000Z</time>
      </trkpt>
      <trkpt lat="45.00776" lon="6.04028">
        <ele>1542.1999511719</ele>
        <time>2021-03-21T13:27:34.000Z</time>
      </trkpt>
      <trkpt lat="45.00776" lon="6.04028">
        <ele>1542.4000244141</ele>
        <time>2021-03-21T13:27:35.000Z</time>
      </trkpt>
      <trkpt lat="45.00776" lon="6.04028">
        <ele>1542.1999511719</ele>
        <time>2021-03-21T13:27:36.000Z</time>
      </trkpt>
      <trkpt lat="45.00776" lon="6.04028">
        <ele>1542.1999511719</ele>
        <time>2021-03-21T13:27:37.000Z</time>
      </trkpt>
      <trkpt lat="45.00776" lon="6.04029">
        <ele>1542.1999511719</ele>
        <time>2021-03-21T13:27:38.000Z</time>
      </trkpt>
      <trkpt lat="45.00775" lon="6.04029">
        <ele>1542.1999511719</ele>
        <time>2021-03-21T13:27:39.000Z</time>
      </trkpt>
      <trkpt lat="45.00776" lon="6.04029">
        <ele>1542.1999511719</ele>
        <time>2021-03-21T13:27:40.000Z</time>
      </trkpt>
      <trkpt lat="45.00775" lon="6.04029">
        <ele>1542</ele>
        <time>2021-03-21T13:27:41.000Z</time>
      </trkpt>
      <trkpt lat="45.00775" lon="6.04029">
        <ele>1542</ele>
        <time>2021-03-21T13:27:42.000Z</time>
      </trkpt>
      <trkpt lat="45.00774" lon="6.04029">
        <ele>1542</ele>
        <time>2021-03-21T13:27:43.000Z</time>
      </trkpt>
      <trkpt lat="45.00773" lon="6.04029">
        <ele>1542</ele>
        <time>2021-03-21T13:27:44.000Z</time>
      </trkpt>
      <trkpt lat="45.00773" lon="6.04029">
        <ele>1542</ele>
        <time>2021-03-21T13:27:45.000Z</time>
      </trkpt>
      <trkpt lat="45.00772" lon="6.04029">
        <ele>1542</ele>
        <time>2021-03-21T13:27:46.000Z</time>
      </trkpt>
      <trkpt lat="45.00772" lon="6.04029">
        <ele>1542</ele>
        <time>2021-03-21T13:27:47.000Z</time>
      </trkpt>
      <trkpt lat="45.00771" lon="6.04029">
        <ele>1542</ele>
        <time>2021-03-21T13:27:48.000Z</time>
      </trkpt>
      <trkpt lat="45.00771" lon="6.04028">
        <ele>1542.1999511719</ele>
        <time>2021-03-21T13:27:49.000Z</time>
      </trkpt>
      <trkpt lat="45.00771" lon="6.04029">
        <ele>1542</ele>
        <time>2021-03-21T13:27:50.000Z</time>
      </trkpt>
      <trkpt lat="45.00771" lon="6.04029">
        <ele>1542.1999511719</ele>
        <time>2021-03-21T13:27:51.000Z</time>
      </trkpt>
      <trkpt lat="45.00771" lon="6.04028">
        <ele>1542.1999511719</ele>
        <time>2021-03-21T13:27:52.000Z</time>
      </trkpt>
      <trkpt lat="45.00771" lon="6.04028">
        <ele>1542.1999511719</ele>
        <time>2021-03-21T13:27:53.000Z</time>
      </trkpt>
      <trkpt lat="45.00771" lon="6.04028">
        <ele>1542.1999511719</ele>
        <time>2021-03-21T13:27:54.000Z</time>
      </trkpt>
      <trkpt lat="45.00771" lon="6.04028">
        <ele>1542.1999511719</ele>
        <time>2021-03-21T13:27:55.000Z</time>
      </trkpt>
      <trkpt lat="45.00771" lon="6.04029">
        <ele>1542.1999511719</ele>
        <time>2021-03-21T13:27:56.000Z</time>
      </trkpt>
      <trkpt lat="45.00771" lon="6.04029">
        <ele>1542.1999511719</ele>
        <time>2021-03-21T13:27:57.000Z</time>
      </trkpt>
      <trkpt lat="45.00771" lon="6.04029">
        <ele>1542</ele>
        <time>2021-03-21T13:27:58.000Z</time>
      </trkpt>
      <trkpt lat="45.00772" lon="6.04029">
        <ele>1542</ele>
        <time>2021-03-21T13:27:59.000Z</time>
      </trkpt>
      <trkpt lat="45.00773" lon="6.04029">
        <ele>1541.8000488281</ele>
        <time>2021-03-21T13:28:00.000Z</time>
      </trkpt>
      <trkpt lat="45.00773" lon="6.04029">
        <ele>1541.8000488281</ele>
        <time>2021-03-21T13:28:01.000Z</time>
      </trkpt>
      <trkpt lat="45.00773" lon="6.04029">
        <ele>1541.8000488281</ele>
        <time>2021-03-21T13:28:02.000Z</time>
      </trkpt>
      <trkpt lat="45.00774" lon="6.04029">
        <ele>1541.8000488281</ele>
        <time>2021-03-21T13:28:03.000Z</time>
      </trkpt>
      <trkpt lat="45.00774" lon="6.04029">
        <ele>1541.8000488281</ele>
        <time>2021-03-21T13:28:04.000Z</time>
      </trkpt>
      <trkpt lat="45.00775" lon="6.04029">
        <ele>1541.8000488281</ele>
        <time>2021-03-21T13:28:05.000Z</time>
      </trkpt>
      <trkpt lat="45.00775" lon="6.0403">
        <ele>1541.8000488281</ele>
        <time>2021-03-21T13:28:06.000Z</time>
      </trkpt>
      <trkpt lat="45.00775" lon="6.04029">
        <ele>1541.8000488281</ele>
        <time>2021-03-21T13:28:07.000Z</time>
      </trkpt>
      <trkpt lat="45.00775" lon="6.0403">
        <ele>1541.5999755859</ele>
        <time>2021-03-21T13:28:08.000Z</time>
      </trkpt>
      <trkpt lat="45.00776" lon="6.0403">
        <ele>1541.8000488281</ele>
        <time>2021-03-21T13:28:09.000Z</time>
      </trkpt>
      <trkpt lat="45.00776" lon="6.0403">
        <ele>1541.8000488281</ele>
        <time>2021-03-21T13:28:10.000Z</time>
      </trkpt>
      <trkpt lat="45.00776" lon="6.04029">
        <ele>1541.8000488281</ele>
        <time>2021-03-21T13:28:11.000Z</time>
      </trkpt>
      <trkpt lat="45.00777" lon="6.0403">
        <ele>1541.8000488281</ele>
        <time>2021-03-21T13:28:12.000Z</time>
      </trkpt>
      <trkpt lat="45.00777" lon="6.0403">
        <ele>1541.8000488281</ele>
        <time>2021-03-21T13:28:13.000Z</time>
      </trkpt>
      <trkpt lat="45.00777" lon="6.0403">
        <ele>1541.5999755859</ele>
        <time>2021-03-21T13:28:14.000Z</time>
      </trkpt>
      <trkpt lat="45.00777" lon="6.0403">
        <ele>1541.5999755859</ele>
        <time>2021-03-21T13:28:15.000Z</time>
      </trkpt>
      <trkpt lat="45.00778" lon="6.0403">
        <ele>1541.5999755859</ele>
        <time>2021-03-21T13:28:16.000Z</time>
      </trkpt>
      <trkpt lat="45.00778" lon="6.0403">
        <ele>1541.4000244141</ele>
        <time>2021-03-21T13:28:17.000Z</time>
      </trkpt>
      <trkpt lat="45.00778" lon="6.0403">
        <ele>1541.5999755859</ele>
        <time>2021-03-21T13:28:18.000Z</time>
      </trkpt>
      <trkpt lat="45.00777" lon="6.0403">
        <ele>1541.5999755859</ele>
        <time>2021-03-21T13:28:19.000Z</time>
      </trkpt>
      <trkpt lat="45.00777" lon="6.0403">
        <ele>1541.8000488281</ele>
        <time>2021-03-21T13:28:20.000Z</time>
      </trkpt>
      <trkpt lat="45.00777" lon="6.04029">
        <ele>1541.8000488281</ele>
        <time>2021-03-21T13:28:21.000Z</time>
      </trkpt>
      <trkpt lat="45.00776" lon="6.04029">
        <ele>1542</ele>
        <time>2021-03-21T13:28:22.000Z</time>
      </trkpt>
      <trkpt lat="45.00775" lon="6.04029">
        <ele>1542</ele>
        <time>2021-03-21T13:28:23.000Z</time>
      </trkpt>
      <trkpt lat="45.00775" lon="6.04029">
        <ele>1542.1999511719</ele>
        <time>2021-03-21T13:28:24.000Z</time>
      </trkpt>
      <trkpt lat="45.00775" lon="6.04029">
        <ele>1542.1999511719</ele>
        <time>2021-03-21T13:28:25.000Z</time>
      </trkpt>
      <trkpt lat="45.00773" lon="6.04028">
        <ele>1542.1999511719</ele>
        <time>2021-03-21T13:28:26.000Z</time>
      </trkpt>
      <trkpt lat="45.00773" lon="6.04028">
        <ele>1542.4000244141</ele>
        <time>2021-03-21T13:28:27.000Z</time>
      </trkpt>
      <trkpt lat="45.00772" lon="6.04027">
        <ele>1542.5999755859</ele>
        <time>2021-03-21T13:28:28.000Z</time>
      </trkpt>
      <trkpt lat="45.00771" lon="6.04027">
        <ele>1542.8000488281</ele>
        <time>2021-03-21T13:28:29.000Z</time>
      </trkpt>
      <trkpt lat="45.00771" lon="6.04027">
        <ele>1542.8000488281</ele>
        <time>2021-03-21T13:28:30.000Z</time>
      </trkpt>
      <trkpt lat="45.0077" lon="6.04027">
        <ele>1542.8000488281</ele>
        <time>2021-03-21T13:28:31.000Z</time>
      </trkpt>
      <trkpt lat="45.0077" lon="6.04026">
        <ele>1542.8000488281</ele>
        <time>2021-03-21T13:28:32.000Z</time>
      </trkpt>
      <trkpt lat="45.00769" lon="6.04026">
        <ele>1543</ele>
        <time>2021-03-21T13:28:33.000Z</time>
      </trkpt>
      <trkpt lat="45.00769" lon="6.04027">
        <ele>1542.8000488281</ele>
        <time>2021-03-21T13:28:34.000Z</time>
      </trkpt>
      <trkpt lat="45.00769" lon="6.04027">
        <ele>1542.8000488281</ele>
        <time>2021-03-21T13:28:35.000Z</time>
      </trkpt>
      <trkpt lat="45.00769" lon="6.04027">
        <ele>1542.8000488281</ele>
        <time>2021-03-21T13:28:36.000Z</time>
      </trkpt>
      <trkpt lat="45.00769" lon="6.04027">
        <ele>1542.8000488281</ele>
        <time>2021-03-21T13:28:37.000Z</time>
      </trkpt>
      <trkpt lat="45.00769" lon="6.04027">
        <ele>1542.8000488281</ele>
        <time>2021-03-21T13:28:38.000Z</time>
      </trkpt>
      <trkpt lat="45.00769" lon="6.04027">
        <ele>1542.8000488281</ele>
        <time>2021-03-21T13:28:39.000Z</time>
      </trkpt>
      <trkpt lat="45.0077" lon="6.04027">
        <ele>1542.8000488281</ele>
        <time>2021-03-21T13:28:40.000Z</time>
      </trkpt>
      <trkpt lat="45.0077" lon="6.04027">
        <ele>1542.5999755859</ele>
        <time>2021-03-21T13:28:41.000Z</time>
      </trkpt>
      <trkpt lat="45.0077" lon="6.04027">
        <ele>1542.5999755859</ele>
        <time>2021-03-21T13:28:42.000Z</time>
      </trkpt>
      <trkpt lat="45.0077" lon="6.04027">
        <ele>1542.5999755859</ele>
        <time>2021-03-21T13:28:43.000Z</time>
      </trkpt>
      <trkpt lat="45.0077" lon="6.04027">
        <ele>1542.5999755859</ele>
        <time>2021-03-21T13:28:44.000Z</time>
      </trkpt>
      <trkpt lat="45.0077" lon="6.04028">
        <ele>1542.4000244141</ele>
        <time>2021-03-21T13:28:45.000Z</time>
      </trkpt>
      <trkpt lat="45.0077" lon="6.04027">
        <ele>1542.5999755859</ele>
        <time>2021-03-21T13:28:46.000Z</time>
      </trkpt>
      <trkpt lat="45.0077" lon="6.04027">
        <ele>1542.5999755859</ele>
        <time>2021-03-21T13:28:47.000Z</time>
      </trkpt>
      <trkpt lat="45.0077" lon="6.04027">
        <ele>1542.5999755859</ele>
        <time>2021-03-21T13:28:48.000Z</time>
      </trkpt>
      <trkpt lat="45.0077" lon="6.04027">
        <ele>1542.5999755859</ele>
        <time>2021-03-21T13:28:49.000Z</time>
      </trkpt>
      <trkpt lat="45.00769" lon="6.04028">
        <ele>1542.4000244141</ele>
        <time>2021-03-21T13:28:50.000Z</time>
      </trkpt>
      <trkpt lat="45.00769" lon="6.04028">
        <ele>1542.4000244141</ele>
        <time>2021-03-21T13:28:51.000Z</time>
      </trkpt>
      <trkpt lat="45.00769" lon="6.04028">
        <ele>1542.4000244141</ele>
        <time>2021-03-21T13:28:52.000Z</time>
      </trkpt>
      <trkpt lat="45.00769" lon="6.04028">
        <ele>1542.5999755859</ele>
        <time>2021-03-21T13:28:53.000Z</time>
      </trkpt>
      <trkpt lat="45.00769" lon="6.04027">
        <ele>1542.5999755859</ele>
        <time>2021-03-21T13:28:54.000Z</time>
      </trkpt>
      <trkpt lat="45.0077" lon="6.04027">
        <ele>1542.5999755859</ele>
        <time>2021-03-21T13:28:55.000Z</time>
      </trkpt>
      <trkpt lat="45.00771" lon="6.04027">
        <ele>1542.5999755859</ele>
        <time>2021-03-21T13:28:56.000Z</time>
      </trkpt>
      <trkpt lat="45.00771" lon="6.04027">
        <ele>1542.5999755859</ele>
        <time>2021-03-21T13:28:57.000Z</time>
      </trkpt>
      <trkpt lat="45.00771" lon="6.04027">
        <ele>1542.5999755859</ele>
        <time>2021-03-21T13:28:58.000Z</time>
      </trkpt>
      <trkpt lat="45.00771" lon="6.04027">
        <ele>1542.8000488281</ele>
        <time>2021-03-21T13:28:59.000Z</time>
      </trkpt>
      <trkpt lat="45.0077" lon="6.04027">
        <ele>1542.8000488281</ele>
        <time>2021-03-21T13:29:00.000Z</time>
      </trkpt>
      <trkpt lat="45.0077" lon="6.04026">
        <ele>1542.8000488281</ele>
        <time>2021-03-21T13:29:01.000Z</time>
      </trkpt>
      <trkpt lat="45.0077" lon="6.04027">
        <ele>1542.8000488281</ele>
        <time>2021-03-21T13:29:02.000Z</time>
      </trkpt>
      <trkpt lat="45.0077" lon="6.04026">
        <ele>1543</ele>
        <time>2021-03-21T13:29:03.000Z</time>
      </trkpt>
      <trkpt lat="45.0077" lon="6.04026">
        <ele>1543</ele>
        <time>2021-03-21T13:29:04.000Z</time>
      </trkpt>
      <trkpt lat="45.0077" lon="6.04026">
        <ele>1543</ele>
        <time>2021-03-21T13:29:05.000Z</time>
      </trkpt>
      <trkpt lat="45.0077" lon="6.04027">
        <ele>1542.8000488281</ele>
        <time>2021-03-21T13:29:06.000Z</time>
      </trkpt>
      <trkpt lat="45.0077" lon="6.04027">
        <ele>1542.8000488281</ele>
        <time>2021-03-21T13:29:07.000Z</time>
      </trkpt>
      <trkpt lat="45.0077" lon="6.04027">
        <ele>1542.5999755859</ele>
        <time>2021-03-21T13:29:08.000Z</time>
      </trkpt>
      <trkpt lat="45.0077" lon="6.04027">
        <ele>1542.5999755859</ele>
        <time>2021-03-21T13:29:09.000Z</time>
      </trkpt>
      <trkpt lat="45.0077" lon="6.04027">
        <ele>1542.5999755859</ele>
        <time>2021-03-21T13:29:10.000Z</time>
      </trkpt>
      <trkpt lat="45.00771" lon="6.04028">
        <ele>1542.4000244141</ele>
        <time>2021-03-21T13:29:11.000Z</time>
      </trkpt>
      <trkpt lat="45.00771" lon="6.04028">
        <ele>1542.1999511719</ele>
        <time>2021-03-21T13:29:12.000Z</time>
      </trkpt>
      <trkpt lat="45.00771" lon="6.04028">
        <ele>1542.1999511719</ele>
        <time>2021-03-21T13:29:13.000Z</time>
      </trkpt>
      <trkpt lat="45.00772" lon="6.04029">
        <ele>1542.1999511719</ele>
        <time>2021-03-21T13:29:14.000Z</time>
      </trkpt>
      <trkpt lat="45.00772" lon="6.04029">
        <ele>1542.1999511719</ele>
        <time>2021-03-21T13:29:15.000Z</time>
      </trkpt>
      <trkpt lat="45.00773" lon="6.04028">
        <ele>1542.1999511719</ele>
        <time>2021-03-21T13:29:16.000Z</time>
      </trkpt>
      <trkpt lat="45.00773" lon="6.04028">
        <ele>1542.1999511719</ele>
        <time>2021-03-21T13:29:17.000Z</time>
      </trkpt>
      <trkpt lat="45.00773" lon="6.04028">
        <ele>1542.4000244141</ele>
        <time>2021-03-21T13:29:18.000Z</time>
      </trkpt>
      <trkpt lat="45.00773" lon="6.04028">
        <ele>1542.4000244141</ele>
        <time>2021-03-21T13:29:19.000Z</time>
      </trkpt>
      <trkpt lat="45.00773" lon="6.04027">
        <ele>1542.5999755859</ele>
        <time>2021-03-21T13:29:20.000Z</time>
      </trkpt>
      <trkpt lat="45.00773" lon="6.04027">
        <ele>1542.5999755859</ele>
        <time>2021-03-21T13:29:21.000Z</time>
      </trkpt>
      <trkpt lat="45.00773" lon="6.04027">
        <ele>1542.5999755859</ele>
        <time>2021-03-21T13:29:22.000Z</time>
      </trkpt>
      <trkpt lat="45.00774" lon="6.04027">
        <ele>1542.8000488281</ele>
        <time>2021-03-21T13:29:23.000Z</time>
      </trkpt>
      <trkpt lat="45.00774" lon="6.04027">
        <ele>1542.8000488281</ele>
        <time>2021-03-21T13:29:24.000Z</time>
      </trkpt>
      <trkpt lat="45.00774" lon="6.04027">
        <ele>1542.8000488281</ele>
        <time>2021-03-21T13:29:25.000Z</time>
      </trkpt>
      <trkpt lat="45.00774" lon="6.04027">
        <ele>1542.8000488281</ele>
        <time>2021-03-21T13:29:26.000Z</time>
      </trkpt>
      <trkpt lat="45.00774" lon="6.04027">
        <ele>1542.8000488281</ele>
        <time>2021-03-21T13:29:27.000Z</time>
      </trkpt>
      <trkpt lat="45.00774" lon="6.04027">
        <ele>1542.8000488281</ele>
        <time>2021-03-21T13:29:28.000Z</time>
      </trkpt>
      <trkpt lat="45.00774" lon="6.04027">
        <ele>1542.8000488281</ele>
        <time>2021-03-21T13:29:29.000Z</time>
      </trkpt>
      <trkpt lat="45.00774" lon="6.04027">
        <ele>1542.8000488281</ele>
        <time>2021-03-21T13:29:30.000Z</time>
      </trkpt>
      <trkpt lat="45.00775" lon="6.04027">
        <ele>1542.8000488281</ele>
        <time>2021-03-21T13:29:31.000Z</time>
      </trkpt>
      <trkpt lat="45.00775" lon="6.04027">
        <ele>1542.5999755859</ele>
        <time>2021-03-21T13:29:32.000Z</time>
      </trkpt>
      <trkpt lat="45.00774" lon="6.04027">
        <ele>1542.8000488281</ele>
        <time>2021-03-21T13:29:33.000Z</time>
      </trkpt>
      <trkpt lat="45.00774" lon="6.04027">
        <ele>1542.8000488281</ele>
        <time>2021-03-21T13:29:34.000Z</time>
      </trkpt>
      <trkpt lat="45.00773" lon="6.04027">
        <ele>1542.8000488281</ele>
        <time>2021-03-21T13:29:35.000Z</time>
      </trkpt>
      <trkpt lat="45.00773" lon="6.04026">
        <ele>1542.8000488281</ele>
        <time>2021-03-21T13:29:36.000Z</time>
      </trkpt>
      <trkpt lat="45.00773" lon="6.04027">
        <ele>1542.8000488281</ele>
        <time>2021-03-21T13:29:37.000Z</time>
      </trkpt>
      <trkpt lat="45.00773" lon="6.04026">
        <ele>1542.8000488281</ele>
        <time>2021-03-21T13:29:38.000Z</time>
      </trkpt>
      <trkpt lat="45.00772" lon="6.04026">
        <ele>1542.8000488281</ele>
        <time>2021-03-21T13:29:39.000Z</time>
      </trkpt>
      <trkpt lat="45.00772" lon="6.04026">
        <ele>1543</ele>
        <time>2021-03-21T13:29:40.000Z</time>
      </trkpt>
      <trkpt lat="45.00771" lon="6.04027">
        <ele>1542.8000488281</ele>
        <time>2021-03-21T13:29:41.000Z</time>
      </trkpt>
      <trkpt lat="45.0077" lon="6.04027">
        <ele>1542.8000488281</ele>
        <time>2021-03-21T13:29:42.000Z</time>
      </trkpt>
      <trkpt lat="45.0077" lon="6.04027">
        <ele>1542.8000488281</ele>
        <time>2021-03-21T13:29:43.000Z</time>
      </trkpt>
      <trkpt lat="45.0077" lon="6.04027">
        <ele>1542.5999755859</ele>
        <time>2021-03-21T13:29:44.000Z</time>
      </trkpt>
      <trkpt lat="45.00769" lon="6.04027">
        <ele>1542.5999755859</ele>
        <time>2021-03-21T13:29:45.000Z</time>
      </trkpt>
      <trkpt lat="45.00769" lon="6.04027">
        <ele>1542.5999755859</ele>
        <time>2021-03-21T13:29:46.000Z</time>
      </trkpt>
      <trkpt lat="45.00768" lon="6.04027">
        <ele>1542.5999755859</ele>
        <time>2021-03-21T13:29:47.000Z</time>
      </trkpt>
      <trkpt lat="45.00768" lon="6.04027">
        <ele>1542.5999755859</ele>
        <time>2021-03-21T13:29:48.000Z</time>
      </trkpt>
      <trkpt lat="45.00768" lon="6.04027">
        <ele>1542.5999755859</ele>
        <time>2021-03-21T13:29:49.000Z</time>
      </trkpt>
      <trkpt lat="45.00768" lon="6.04028">
        <ele>1542.4000244141</ele>
        <time>2021-03-21T13:29:50.000Z</time>
      </trkpt>
      <trkpt lat="45.00769" lon="6.04028">
        <ele>1542.4000244141</ele>
        <time>2021-03-21T13:29:51.000Z</time>
      </trkpt>
      <trkpt lat="45.00768" lon="6.04028">
        <ele>1542.4000244141</ele>
        <time>2021-03-21T13:29:52.000Z</time>
      </trkpt>
      <trkpt lat="45.00768" lon="6.04028">
        <ele>1542.4000244141</ele>
        <time>2021-03-21T13:29:53.000Z</time>
      </trkpt>
      <trkpt lat="45.00768" lon="6.04028">
        <ele>1542.1999511719</ele>
        <time>2021-03-21T13:29:54.000Z</time>
      </trkpt>
      <trkpt lat="45.00768" lon="6.04029">
        <ele>1542</ele>
        <time>2021-03-21T13:29:55.000Z</time>
      </trkpt>
      <trkpt lat="45.00768" lon="6.04029">
        <ele>1541.8000488281</ele>
        <time>2021-03-21T13:29:56.000Z</time>
      </trkpt>
      <trkpt lat="45.00768" lon="6.0403">
        <ele>1541.5999755859</ele>
        <time>2021-03-21T13:29:57.000Z</time>
      </trkpt>
      <trkpt lat="45.00768" lon="6.0403">
        <ele>1541.5999755859</ele>
        <time>2021-03-21T13:29:58.000Z</time>
      </trkpt>
      <trkpt lat="45.00767" lon="6.0403">
        <ele>1541.5999755859</ele>
        <time>2021-03-21T13:29:59.000Z</time>
      </trkpt>
      <trkpt lat="45.00768" lon="6.0403">
        <ele>1541.5999755859</ele>
        <time>2021-03-21T13:30:00.000Z</time>
      </trkpt>
      <trkpt lat="45.00768" lon="6.0403">
        <ele>1541.5999755859</ele>
        <time>2021-03-21T13:30:01.000Z</time>
      </trkpt>
      <trkpt lat="45.00768" lon="6.0403">
        <ele>1541.5999755859</ele>
        <time>2021-03-21T13:30:02.000Z</time>
      </trkpt>
      <trkpt lat="45.00768" lon="6.0403">
        <ele>1541.5999755859</ele>
        <time>2021-03-21T13:30:03.000Z</time>
      </trkpt>
      <trkpt lat="45.00768" lon="6.0403">
        <ele>1541.5999755859</ele>
        <time>2021-03-21T13:30:04.000Z</time>
      </trkpt>
      <trkpt lat="45.00769" lon="6.0403">
        <ele>1541.8000488281</ele>
        <time>2021-03-21T13:30:05.000Z</time>
      </trkpt>
      <trkpt lat="45.00769" lon="6.0403">
        <ele>1541.8000488281</ele>
        <time>2021-03-21T13:30:06.000Z</time>
      </trkpt>
      <trkpt lat="45.0077" lon="6.0403">
        <ele>1541.5999755859</ele>
        <time>2021-03-21T13:30:07.000Z</time>
      </trkpt>
      <trkpt lat="45.0077" lon="6.0403">
        <ele>1541.8000488281</ele>
        <time>2021-03-21T13:30:08.000Z</time>
      </trkpt>
      <trkpt lat="45.0077" lon="6.0403">
        <ele>1541.8000488281</ele>
        <time>2021-03-21T13:30:09.000Z</time>
      </trkpt>
      <trkpt lat="45.00771" lon="6.0403">
        <ele>1541.5999755859</ele>
        <time>2021-03-21T13:30:10.000Z</time>
      </trkpt>
      <trkpt lat="45.00771" lon="6.0403">
        <ele>1541.8000488281</ele>
        <time>2021-03-21T13:30:11.000Z</time>
      </trkpt>
      <trkpt lat="45.00771" lon="6.0403">
        <ele>1541.5999755859</ele>
        <time>2021-03-21T13:30:12.000Z</time>
      </trkpt>
      <trkpt lat="45.00771" lon="6.0403">
        <ele>1541.8000488281</ele>
        <time>2021-03-21T13:30:13.000Z</time>
      </trkpt>
      <trkpt lat="45.00771" lon="6.04029">
        <ele>1541.8000488281</ele>
        <time>2021-03-21T13:30:14.000Z</time>
      </trkpt>
      <trkpt lat="45.00771" lon="6.04029">
        <ele>1542</ele>
        <time>2021-03-21T13:30:15.000Z</time>
      </trkpt>
      <trkpt lat="45.00771" lon="6.04029">
        <ele>1542.1999511719</ele>
        <time>2021-03-21T13:30:16.000Z</time>
      </trkpt>
      <trkpt lat="45.0077" lon="6.04028">
        <ele>1542.1999511719</ele>
        <time>2021-03-21T13:30:17.000Z</time>
      </trkpt>
      <trkpt lat="45.0077" lon="6.04028">
        <ele>1542.4000244141</ele>
        <time>2021-03-21T13:30:18.000Z</time>
      </trkpt>
      <trkpt lat="45.0077" lon="6.04028">
        <ele>1542.4000244141</ele>
        <time>2021-03-21T13:30:19.000Z</time>
      </trkpt>
      <trkpt lat="45.0077" lon="6.04028">
        <ele>1542.4000244141</ele>
        <time>2021-03-21T13:30:20.000Z</time>
      </trkpt>
      <trkpt lat="45.00769" lon="6.04027">
        <ele>1542.5999755859</ele>
        <time>2021-03-21T13:30:21.000Z</time>
      </trkpt>
      <trkpt lat="45.00769" lon="6.04027">
        <ele>1542.5999755859</ele>
        <time>2021-03-21T13:30:22.000Z</time>
      </trkpt>
      <trkpt lat="45.00769" lon="6.04027">
        <ele>1542.5999755859</ele>
        <time>2021-03-21T13:30:23.000Z</time>
      </trkpt>
      <trkpt lat="45.00769" lon="6.04027">
        <ele>1542.5999755859</ele>
        <time>2021-03-21T13:30:24.000Z</time>
      </trkpt>
      <trkpt lat="45.00769" lon="6.04027">
        <ele>1542.5999755859</ele>
        <time>2021-03-21T13:30:25.000Z</time>
      </trkpt>
      <trkpt lat="45.00769" lon="6.04027">
        <ele>1542.5999755859</ele>
        <time>2021-03-21T13:30:26.000Z</time>
      </trkpt>
      <trkpt lat="45.00769" lon="6.04027">
        <ele>1542.5999755859</ele>
        <time>2021-03-21T13:30:27.000Z</time>
      </trkpt>
      <trkpt lat="45.00769" lon="6.04027">
        <ele>1542.5999755859</ele>
        <time>2021-03-21T13:30:28.000Z</time>
      </trkpt>
      <trkpt lat="45.0077" lon="6.04027">
        <ele>1542.5999755859</ele>
        <time>2021-03-21T13:30:29.000Z</time>
      </trkpt>
      <trkpt lat="45.0077" lon="6.04027">
        <ele>1542.5999755859</ele>
        <time>2021-03-21T13:30:30.000Z</time>
      </trkpt>
      <trkpt lat="45.0077" lon="6.04027">
        <ele>1542.8000488281</ele>
        <time>2021-03-21T13:30:31.000Z</time>
      </trkpt>
      <trkpt lat="45.0077" lon="6.04027">
        <ele>1542.5999755859</ele>
        <time>2021-03-21T13:30:32.000Z</time>
      </trkpt>
      <trkpt lat="45.0077" lon="6.04027">
        <ele>1542.8000488281</ele>
        <time>2021-03-21T13:30:33.000Z</time>
      </trkpt>
      <trkpt lat="45.0077" lon="6.04027">
        <ele>1542.8000488281</ele>
        <time>2021-03-21T13:30:34.000Z</time>
      </trkpt>
      <trkpt lat="45.00771" lon="6.04027">
        <ele>1542.8000488281</ele>
        <time>2021-03-21T13:30:35.000Z</time>
      </trkpt>
      <trkpt lat="45.00771" lon="6.04027">
        <ele>1542.8000488281</ele>
        <time>2021-03-21T13:30:36.000Z</time>
      </trkpt>
      <trkpt lat="45.00771" lon="6.04027">
        <ele>1542.8000488281</ele>
        <time>2021-03-21T13:30:37.000Z</time>
      </trkpt>
      <trkpt lat="45.0077" lon="6.04027">
        <ele>1542.8000488281</ele>
        <time>2021-03-21T13:30:38.000Z</time>
      </trkpt>
      <trkpt lat="45.0077" lon="6.04027">
        <ele>1542.8000488281</ele>
        <time>2021-03-21T13:30:39.000Z</time>
      </trkpt>
      <trkpt lat="45.0077" lon="6.04027">
        <ele>1542.8000488281</ele>
        <time>2021-03-21T13:30:40.000Z</time>
      </trkpt>
      <trkpt lat="45.00771" lon="6.04027">
        <ele>1542.8000488281</ele>
        <time>2021-03-21T13:30:41.000Z</time>
      </trkpt>
      <trkpt lat="45.00771" lon="6.04027">
        <ele>1542.8000488281</ele>
        <time>2021-03-21T13:30:42.000Z</time>
      </trkpt>
      <trkpt lat="45.0077" lon="6.04027">
        <ele>1542.8000488281</ele>
        <time>2021-03-21T13:30:43.000Z</time>
      </trkpt>
      <trkpt lat="45.0077" lon="6.04027">
        <ele>1542.8000488281</ele>
        <time>2021-03-21T13:30:44.000Z</time>
      </trkpt>
      <trkpt lat="45.0077" lon="6.04027">
        <ele>1542.8000488281</ele>
        <time>2021-03-21T13:30:45.000Z</time>
      </trkpt>
      <trkpt lat="45.0077" lon="6.04027">
        <ele>1542.8000488281</ele>
        <time>2021-03-21T13:30:46.000Z</time>
      </trkpt>
      <trkpt lat="45.0077" lon="6.04027">
        <ele>1542.8000488281</ele>
        <time>2021-03-21T13:30:47.000Z</time>
      </trkpt>
      <trkpt lat="45.00771" lon="6.04026">
        <ele>1542.8000488281</ele>
        <time>2021-03-21T13:30:48.000Z</time>
      </trkpt>
      <trkpt lat="45.00771" lon="6.04026">
        <ele>1542.8000488281</ele>
        <time>2021-03-21T13:30:49.000Z</time>
      </trkpt>
      <trkpt lat="45.00771" lon="6.04027">
        <ele>1542.8000488281</ele>
        <time>2021-03-21T13:30:50.000Z</time>
      </trkpt>
      <trkpt lat="45.00772" lon="6.04027">
        <ele>1542.5999755859</ele>
        <time>2021-03-21T13:30:51.000Z</time>
      </trkpt>
      <trkpt lat="45.00775" lon="6.04029">
        <ele>1542</ele>
        <time>2021-03-21T13:30:52.000Z</time>
      </trkpt>
      <trkpt lat="45.00778" lon="6.04031">
        <ele>1541.1999511719</ele>
        <time>2021-03-21T13:30:53.000Z</time>
      </trkpt>
      <trkpt lat="45.00781" lon="6.04033">
        <ele>1540.5999755859</ele>
        <time>2021-03-21T13:30:54.000Z</time>
      </trkpt>
      <trkpt lat="45.00784" lon="6.04035">
        <ele>1540</ele>
        <time>2021-03-21T13:30:55.000Z</time>
      </trkpt>
      <trkpt lat="45.00789" lon="6.04037">
        <ele>1539.4000244141</ele>
        <time>2021-03-21T13:30:56.000Z</time>
      </trkpt>
      <trkpt lat="45.00792" lon="6.04038">
        <ele>1539.1999511719</ele>
        <time>2021-03-21T13:30:57.000Z</time>
      </trkpt>
      <trkpt lat="45.00795" lon="6.04039">
        <ele>1539.1999511719</ele>
        <time>2021-03-21T13:30:58.000Z</time>
      </trkpt>
      <trkpt lat="45.00799" lon="6.04041">
        <ele>1538.4000244141</ele>
        <time>2021-03-21T13:30:59.000Z</time>
      </trkpt>
      <trkpt lat="45.00804" lon="6.04044">
        <ele>1537</ele>
        <time>2021-03-21T13:31:00.000Z</time>
      </trkpt>
      <trkpt lat="45.00808" lon="6.0405">
        <ele>1534.5999755859</ele>
        <time>2021-03-21T13:31:01.000Z</time>
      </trkpt>
      <trkpt lat="45.00813" lon="6.04055">
        <ele>1532.1999511719</ele>
        <time>2021-03-21T13:31:02.000Z</time>
      </trkpt>
      <trkpt lat="45.00819" lon="6.04059">
        <ele>1530.4000244141</ele>
        <time>2021-03-21T13:31:03.000Z</time>
      </trkpt>
      <trkpt lat="45.00825" lon="6.04061">
        <ele>1528.8000488281</ele>
        <time>2021-03-21T13:31:04.000Z</time>
      </trkpt>
      <trkpt lat="45.0083" lon="6.04063">
        <ele>1527.5999755859</ele>
        <time>2021-03-21T13:31:05.000Z</time>
      </trkpt>
      <trkpt lat="45.00833" lon="6.04065">
        <ele>1526.8000488281</ele>
        <time>2021-03-21T13:31:06.000Z</time>
      </trkpt>
      <trkpt lat="45.00836" lon="6.04066">
        <ele>1525.8000488281</ele>
        <time>2021-03-21T13:31:07.000Z</time>
      </trkpt>
      <trkpt lat="45.00839" lon="6.04067">
        <ele>1525</ele>
        <time>2021-03-21T13:31:08.000Z</time>
      </trkpt>
      <trkpt lat="45.00842" lon="6.04069">
        <ele>1524.1999511719</ele>
        <time>2021-03-21T13:31:09.000Z</time>
      </trkpt>
      <trkpt lat="45.00846" lon="6.0407">
        <ele>1523.1999511719</ele>
        <time>2021-03-21T13:31:10.000Z</time>
      </trkpt>
      <trkpt lat="45.0085" lon="6.04071">
        <ele>1521.4000244141</ele>
        <time>2021-03-21T13:31:11.000Z</time>
      </trkpt>
      <trkpt lat="45.00852" lon="6.04071">
        <ele>1519.5999755859</ele>
        <time>2021-03-21T13:31:12.000Z</time>
      </trkpt>
      <trkpt lat="45.00853" lon="6.04071">
        <ele>1519.1999511719</ele>
        <time>2021-03-21T13:31:13.000Z</time>
      </trkpt>
      <trkpt lat="45.00853" lon="6.04071">
        <ele>1519</ele>
        <time>2021-03-21T13:31:14.000Z</time>
      </trkpt>
      <trkpt lat="45.00853" lon="6.04071">
        <ele>1519.1999511719</ele>
        <time>2021-03-21T13:31:15.000Z</time>
      </trkpt>
      <trkpt lat="45.00853" lon="6.04071">
        <ele>1519</ele>
        <time>2021-03-21T13:31:16.000Z</time>
      </trkpt>
      <trkpt lat="45.00852" lon="6.04071">
        <ele>1519.1999511719</ele>
        <time>2021-03-21T13:31:17.000Z</time>
      </trkpt>
      <trkpt lat="45.00852" lon="6.04072">
        <ele>1519.1999511719</ele>
        <time>2021-03-21T13:31:18.000Z</time>
      </trkpt>
      <trkpt lat="45.00853" lon="6.04072">
        <ele>1518.5999755859</ele>
        <time>2021-03-21T13:31:19.000Z</time>
      </trkpt>
      <trkpt lat="45.00854" lon="6.04074">
        <ele>1517.1999511719</ele>
        <time>2021-03-21T13:31:20.000Z</time>
      </trkpt>
      <trkpt lat="45.00854" lon="6.04077">
        <ele>1516.5999755859</ele>
        <time>2021-03-21T13:31:21.000Z</time>
      </trkpt>
      <trkpt lat="45.00852" lon="6.04081">
        <ele>1516.1999511719</ele>
        <time>2021-03-21T13:31:22.000Z</time>
      </trkpt>
      <trkpt lat="45.00848" lon="6.04084">
        <ele>1516.5999755859</ele>
        <time>2021-03-21T13:31:23.000Z</time>
      </trkpt>
      <trkpt lat="45.00845" lon="6.04086">
        <ele>1516.5999755859</ele>
        <time>2021-03-21T13:31:24.000Z</time>
      </trkpt>
      <trkpt lat="45.00844" lon="6.04088">
        <ele>1515.8000488281</ele>
        <time>2021-03-21T13:31:25.000Z</time>
      </trkpt>
      <trkpt lat="45.00844" lon="6.04091">
        <ele>1514.4000244141</ele>
        <time>2021-03-21T13:31:26.000Z</time>
      </trkpt>
      <trkpt lat="45.00845" lon="6.04094">
        <ele>1513</ele>
        <time>2021-03-21T13:31:27.000Z</time>
      </trkpt>
      <trkpt lat="45.00847" lon="6.04097">
        <ele>1511.5999755859</ele>
        <time>2021-03-21T13:31:28.000Z</time>
      </trkpt>
      <trkpt lat="45.0085" lon="6.041">
        <ele>1509</ele>
        <time>2021-03-21T13:31:29.000Z</time>
      </trkpt>
      <trkpt lat="45.00854" lon="6.04102">
        <ele>1506.4000244141</ele>
        <time>2021-03-21T13:31:30.000Z</time>
      </trkpt>
      <trkpt lat="45.00858" lon="6.04105">
        <ele>1503.4000244141</ele>
        <time>2021-03-21T13:31:31.000Z</time>
      </trkpt>
      <trkpt lat="45.00863" lon="6.04106">
        <ele>1500.1999511719</ele>
        <time>2021-03-21T13:31:32.000Z</time>
      </trkpt>
      <trkpt lat="45.00865" lon="6.04105">
        <ele>1499</ele>
        <time>2021-03-21T13:31:33.000Z</time>
      </trkpt>
      <trkpt lat="45.00866" lon="6.04105">
        <ele>1498.5999755859</ele>
        <time>2021-03-21T13:31:34.000Z</time>
      </trkpt>
      <trkpt lat="45.00867" lon="6.04105">
        <ele>1498.1999511719</ele>
        <time>2021-03-21T13:31:35.000Z</time>
      </trkpt>
      <trkpt lat="45.00868" lon="6.04104">
        <ele>1497.8000488281</ele>
        <time>2021-03-21T13:31:36.000Z</time>
      </trkpt>
      <trkpt lat="45.00869" lon="6.04103">
        <ele>1497</ele>
        <time>2021-03-21T13:31:37.000Z</time>
      </trkpt>
      <trkpt lat="45.00872" lon="6.04105">
        <ele>1495.1999511719</ele>
        <time>2021-03-21T13:31:38.000Z</time>
      </trkpt>
      <trkpt lat="45.00872" lon="6.04108">
        <ele>1494</ele>
        <time>2021-03-21T13:31:39.000Z</time>
      </trkpt>
      <trkpt lat="45.00871" lon="6.0411">
        <ele>1494</ele>
        <time>2021-03-21T13:31:40.000Z</time>
      </trkpt>
      <trkpt lat="45.00871" lon="6.0411">
        <ele>1493.8000488281</ele>
        <time>2021-03-21T13:31:41.000Z</time>
      </trkpt>
      <trkpt lat="45.00871" lon="6.0411">
        <ele>1493.8000488281</ele>
        <time>2021-03-21T13:31:42.000Z</time>
      </trkpt>
      <trkpt lat="45.00872" lon="6.04111">
        <ele>1493</ele>
        <time>2021-03-21T13:31:43.000Z</time>
      </trkpt>
      <trkpt lat="45.00876" lon="6.04111">
        <ele>1490.8000488281</ele>
        <time>2021-03-21T13:31:44.000Z</time>
      </trkpt>
      <trkpt lat="45.0088" lon="6.04111">
        <ele>1488.8000488281</ele>
        <time>2021-03-21T13:31:45.000Z</time>
      </trkpt>
      <trkpt lat="45.00883" lon="6.04112">
        <ele>1487</ele>
        <time>2021-03-21T13:31:46.000Z</time>
      </trkpt>
      <trkpt lat="45.00887" lon="6.04111">
        <ele>1484.8000488281</ele>
        <time>2021-03-21T13:31:47.000Z</time>
      </trkpt>
      <trkpt lat="45.00889" lon="6.0411">
        <ele>1483.8000488281</ele>
        <time>2021-03-21T13:31:48.000Z</time>
      </trkpt>
      <trkpt lat="45.0089" lon="6.04108">
        <ele>1482.8000488281</ele>
        <time>2021-03-21T13:31:49.000Z</time>
      </trkpt>
      <trkpt lat="45.0089" lon="6.04106">
        <ele>1483.1999511719</ele>
        <time>2021-03-21T13:31:50.000Z</time>
      </trkpt>
      <trkpt lat="45.0089" lon="6.04104">
        <ele>1483.1999511719</ele>
        <time>2021-03-21T13:31:51.000Z</time>
      </trkpt>
      <trkpt lat="45.00891" lon="6.04104">
        <ele>1482.8000488281</ele>
        <time>2021-03-21T13:31:52.000Z</time>
      </trkpt>
      <trkpt lat="45.00892" lon="6.04103">
        <ele>1482.5999755859</ele>
        <time>2021-03-21T13:31:53.000Z</time>
      </trkpt>
      <trkpt lat="45.00892" lon="6.04103">
        <ele>1482.1999511719</ele>
        <time>2021-03-21T13:31:54.000Z</time>
      </trkpt>
      <trkpt lat="45.00893" lon="6.04102">
        <ele>1481.8000488281</ele>
        <time>2021-03-21T13:31:55.000Z</time>
      </trkpt>
      <trkpt lat="45.00894" lon="6.04102">
        <ele>1480.5999755859</ele>
        <time>2021-03-21T13:31:56.000Z</time>
      </trkpt>
      <trkpt lat="45.00896" lon="6.04101">
        <ele>1479.4000244141</ele>
        <time>2021-03-21T13:31:57.000Z</time>
      </trkpt>
      <trkpt lat="45.00897" lon="6.04099">
        <ele>1479.4000244141</ele>
        <time>2021-03-21T13:31:58.000Z</time>
      </trkpt>
      <trkpt lat="45.00898" lon="6.04097">
        <ele>1479.1999511719</ele>
        <time>2021-03-21T13:31:59.000Z</time>
      </trkpt>
      <trkpt lat="45.009" lon="6.04095">
        <ele>1478.4000244141</ele>
        <time>2021-03-21T13:32:00.000Z</time>
      </trkpt>
      <trkpt lat="45.00901" lon="6.04093">
        <ele>1477.5999755859</ele>
        <time>2021-03-21T13:32:01.000Z</time>
      </trkpt>
      <trkpt lat="45.00902" lon="6.0409">
        <ele>1477.4000244141</ele>
        <time>2021-03-21T13:32:02.000Z</time>
      </trkpt>
      <trkpt lat="45.00904" lon="6.04088">
        <ele>1477.1999511719</ele>
        <time>2021-03-21T13:32:03.000Z</time>
      </trkpt>
      <trkpt lat="45.00905" lon="6.04086">
        <ele>1477.4000244141</ele>
        <time>2021-03-21T13:32:04.000Z</time>
      </trkpt>
      <trkpt lat="45.00905" lon="6.04084">
        <ele>1477.5999755859</ele>
        <time>2021-03-21T13:32:05.000Z</time>
      </trkpt>
      <trkpt lat="45.00907" lon="6.04083">
        <ele>1477.8000488281</ele>
        <time>2021-03-21T13:32:06.000Z</time>
      </trkpt>
      <trkpt lat="45.00907" lon="6.04082">
        <ele>1478</ele>
        <time>2021-03-21T13:32:07.000Z</time>
      </trkpt>
      <trkpt lat="45.00908" lon="6.04081">
        <ele>1478</ele>
        <time>2021-03-21T13:32:08.000Z</time>
      </trkpt>
      <trkpt lat="45.00908" lon="6.0408">
        <ele>1478.1999511719</ele>
        <time>2021-03-21T13:32:09.000Z</time>
      </trkpt>
      <trkpt lat="45.00908" lon="6.0408">
        <ele>1478.1999511719</ele>
        <time>2021-03-21T13:32:10.000Z</time>
      </trkpt>
      <trkpt lat="45.00909" lon="6.04079">
        <ele>1478.4000244141</ele>
        <time>2021-03-21T13:32:11.000Z</time>
      </trkpt>
      <trkpt lat="45.00909" lon="6.04078">
        <ele>1478.5999755859</ele>
        <time>2021-03-21T13:32:12.000Z</time>
      </trkpt>
      <trkpt lat="45.00909" lon="6.04078">
        <ele>1478.5999755859</ele>
        <time>2021-03-21T13:32:13.000Z</time>
      </trkpt>
      <trkpt lat="45.00909" lon="6.04077">
        <ele>1478.8000488281</ele>
        <time>2021-03-21T13:32:14.000Z</time>
      </trkpt>
      <trkpt lat="45.00909" lon="6.04076">
        <ele>1478.8000488281</ele>
        <time>2021-03-21T13:32:15.000Z</time>
      </trkpt>
      <trkpt lat="45.00909" lon="6.04076">
        <ele>1479</ele>
        <time>2021-03-21T13:32:16.000Z</time>
      </trkpt>
      <trkpt lat="45.00909" lon="6.04076">
        <ele>1479</ele>
        <time>2021-03-21T13:32:17.000Z</time>
      </trkpt>
      <trkpt lat="45.00909" lon="6.04076">
        <ele>1479</ele>
        <time>2021-03-21T13:32:18.000Z</time>
      </trkpt>
      <trkpt lat="45.00909" lon="6.04075">
        <ele>1479</ele>
        <time>2021-03-21T13:32:19.000Z</time>
      </trkpt>
      <trkpt lat="45.00909" lon="6.04075">
        <ele>1479</ele>
        <time>2021-03-21T13:32:20.000Z</time>
      </trkpt>
      <trkpt lat="45.0091" lon="6.04075">
        <ele>1479</ele>
        <time>2021-03-21T13:32:21.000Z</time>
      </trkpt>
      <trkpt lat="45.0091" lon="6.04074">
        <ele>1479</ele>
        <time>2021-03-21T13:32:22.000Z</time>
      </trkpt>
      <trkpt lat="45.00909" lon="6.04073">
        <ele>1479.1999511719</ele>
        <time>2021-03-21T13:32:23.000Z</time>
      </trkpt>
      <trkpt lat="45.0091" lon="6.04073">
        <ele>1479.1999511719</ele>
        <time>2021-03-21T13:32:24.000Z</time>
      </trkpt>
      <trkpt lat="45.0091" lon="6.04072">
        <ele>1479.1999511719</ele>
        <time>2021-03-21T13:32:25.000Z</time>
      </trkpt>
      <trkpt lat="45.00911" lon="6.04072">
        <ele>1479.1999511719</ele>
        <time>2021-03-21T13:32:26.000Z</time>
      </trkpt>
      <trkpt lat="45.00911" lon="6.04072">
        <ele>1479.1999511719</ele>
        <time>2021-03-21T13:32:27.000Z</time>
      </trkpt>
      <trkpt lat="45.00911" lon="6.04072">
        <ele>1479.1999511719</ele>
        <time>2021-03-21T13:32:28.000Z</time>
      </trkpt>
      <trkpt lat="45.00911" lon="6.04071">
        <ele>1479.1999511719</ele>
        <time>2021-03-21T13:32:29.000Z</time>
      </trkpt>
      <trkpt lat="45.00912" lon="6.04071">
        <ele>1479.1999511719</ele>
        <time>2021-03-21T13:32:30.000Z</time>
      </trkpt>
      <trkpt lat="45.00912" lon="6.04071">
        <ele>1479.1999511719</ele>
        <time>2021-03-21T13:32:31.000Z</time>
      </trkpt>
      <trkpt lat="45.00912" lon="6.04071">
        <ele>1479.1999511719</ele>
        <time>2021-03-21T13:32:32.000Z</time>
      </trkpt>
      <trkpt lat="45.00911" lon="6.04071">
        <ele>1479.1999511719</ele>
        <time>2021-03-21T13:32:33.000Z</time>
      </trkpt>
      <trkpt lat="45.00912" lon="6.04071">
        <ele>1479.1999511719</ele>
        <time>2021-03-21T13:32:34.000Z</time>
      </trkpt>
      <trkpt lat="45.00911" lon="6.04071">
        <ele>1479.1999511719</ele>
        <time>2021-03-21T13:32:35.000Z</time>
      </trkpt>
      <trkpt lat="45.00911" lon="6.04071">
        <ele>1479.4000244141</ele>
        <time>2021-03-21T13:32:36.000Z</time>
      </trkpt>
      <trkpt lat="45.00909" lon="6.04072">
        <ele>1479.4000244141</ele>
        <time>2021-03-21T13:32:37.000Z</time>
      </trkpt>
      <trkpt lat="45.00908" lon="6.04073">
        <ele>1479.5999755859</ele>
        <time>2021-03-21T13:32:38.000Z</time>
      </trkpt>
      <trkpt lat="45.00907" lon="6.04074">
        <ele>1479.5999755859</ele>
        <time>2021-03-21T13:32:39.000Z</time>
      </trkpt>
      <trkpt lat="45.00906" lon="6.04075">
        <ele>1479.8000488281</ele>
        <time>2021-03-21T13:32:40.000Z</time>
      </trkpt>
      <trkpt lat="45.00905" lon="6.04075">
        <ele>1479.8000488281</ele>
        <time>2021-03-21T13:32:41.000Z</time>
      </trkpt>
      <trkpt lat="45.00905" lon="6.04075">
        <ele>1479.8000488281</ele>
        <time>2021-03-21T13:32:42.000Z</time>
      </trkpt>
      <trkpt lat="45.00904" lon="6.04076">
        <ele>1479.8000488281</ele>
        <time>2021-03-21T13:32:43.000Z</time>
      </trkpt>
      <trkpt lat="45.00904" lon="6.04076">
        <ele>1479.8000488281</ele>
        <time>2021-03-21T13:32:44.000Z</time>
      </trkpt>
      <trkpt lat="45.00903" lon="6.04076">
        <ele>1479.8000488281</ele>
        <time>2021-03-21T13:32:45.000Z</time>
      </trkpt>
      <trkpt lat="45.00903" lon="6.04076">
        <ele>1480</ele>
        <time>2021-03-21T13:32:46.000Z</time>
      </trkpt>
      <trkpt lat="45.00903" lon="6.04075">
        <ele>1480</ele>
        <time>2021-03-21T13:32:47.000Z</time>
      </trkpt>
      <trkpt lat="45.00903" lon="6.04075">
        <ele>1480</ele>
        <time>2021-03-21T13:32:48.000Z</time>
      </trkpt>
      <trkpt lat="45.00905" lon="6.04074">
        <ele>1480</ele>
        <time>2021-03-21T13:32:49.000Z</time>
      </trkpt>
      <trkpt lat="45.00906" lon="6.04073">
        <ele>1480</ele>
        <time>2021-03-21T13:32:50.000Z</time>
      </trkpt>
      <trkpt lat="45.00906" lon="6.04073">
        <ele>1480</ele>
        <time>2021-03-21T13:32:51.000Z</time>
      </trkpt>
      <trkpt lat="45.00906" lon="6.04073">
        <ele>1480.1999511719</ele>
        <time>2021-03-21T13:32:52.000Z</time>
      </trkpt>
      <trkpt lat="45.00906" lon="6.04072">
        <ele>1480</ele>
        <time>2021-03-21T13:32:53.000Z</time>
      </trkpt>
      <trkpt lat="45.00906" lon="6.04071">
        <ele>1480.1999511719</ele>
        <time>2021-03-21T13:32:54.000Z</time>
      </trkpt>
      <trkpt lat="45.00905" lon="6.04071">
        <ele>1480.4000244141</ele>
        <time>2021-03-21T13:32:55.000Z</time>
      </trkpt>
      <trkpt lat="45.00907" lon="6.0407">
        <ele>1480.5999755859</ele>
        <time>2021-03-21T13:32:56.000Z</time>
      </trkpt>
      <trkpt lat="45.00907" lon="6.04069">
        <ele>1481.4000244141</ele>
        <time>2021-03-21T13:32:57.000Z</time>
      </trkpt>
      <trkpt lat="45.00908" lon="6.04068">
        <ele>1481.8000488281</ele>
        <time>2021-03-21T13:32:58.000Z</time>
      </trkpt>
      <trkpt lat="45.00908" lon="6.04068">
        <ele>1481.8000488281</ele>
        <time>2021-03-21T13:32:59.000Z</time>
      </trkpt>
      <trkpt lat="45.00907" lon="6.04068">
        <ele>1481.8000488281</ele>
        <time>2021-03-21T13:33:00.000Z</time>
      </trkpt>
      <trkpt lat="45.00907" lon="6.04068">
        <ele>1481.8000488281</ele>
        <time>2021-03-21T13:33:01.000Z</time>
      </trkpt>
      <trkpt lat="45.00908" lon="6.04068">
        <ele>1481.5999755859</ele>
        <time>2021-03-21T13:33:02.000Z</time>
      </trkpt>
      <trkpt lat="45.00908" lon="6.04068">
        <ele>1481.5999755859</ele>
        <time>2021-03-21T13:33:03.000Z</time>
      </trkpt>
      <trkpt lat="45.00908" lon="6.04068">
        <ele>1481.5999755859</ele>
        <time>2021-03-21T13:33:04.000Z</time>
      </trkpt>
      <trkpt lat="45.00908" lon="6.04068">
        <ele>1481.4000244141</ele>
        <time>2021-03-21T13:33:05.000Z</time>
      </trkpt>
      <trkpt lat="45.00908" lon="6.04069">
        <ele>1481</ele>
        <time>2021-03-21T13:33:06.000Z</time>
      </trkpt>
      <trkpt lat="45.00908" lon="6.04069">
        <ele>1481.1999511719</ele>
        <time>2021-03-21T13:33:07.000Z</time>
      </trkpt>
      <trkpt lat="45.00908" lon="6.04069">
        <ele>1481</ele>
        <time>2021-03-21T13:33:08.000Z</time>
      </trkpt>
      <trkpt lat="45.00908" lon="6.04069">
        <ele>1480.5999755859</ele>
        <time>2021-03-21T13:33:09.000Z</time>
      </trkpt>
      <trkpt lat="45.00908" lon="6.04069">
        <ele>1480.8000488281</ele>
        <time>2021-03-21T13:33:10.000Z</time>
      </trkpt>
      <trkpt lat="45.00908" lon="6.04069">
        <ele>1481</ele>
        <time>2021-03-21T13:33:11.000Z</time>
      </trkpt>
      <trkpt lat="45.00907" lon="6.0407">
        <ele>1480.8000488281</ele>
        <time>2021-03-21T13:33:12.000Z</time>
      </trkpt>
      <trkpt lat="45.00907" lon="6.0407">
        <ele>1480.8000488281</ele>
        <time>2021-03-21T13:33:13.000Z</time>
      </trkpt>
      <trkpt lat="45.00907" lon="6.0407">
        <ele>1480.5999755859</ele>
        <time>2021-03-21T13:33:14.000Z</time>
      </trkpt>
      <trkpt lat="45.00908" lon="6.04069">
        <ele>1481</ele>
        <time>2021-03-21T13:33:15.000Z</time>
      </trkpt>
      <trkpt lat="45.00908" lon="6.04069">
        <ele>1481</ele>
        <time>2021-03-21T13:33:16.000Z</time>
      </trkpt>
      <trkpt lat="45.0091" lon="6.04068">
        <ele>1481</ele>
        <time>2021-03-21T13:33:17.000Z</time>
      </trkpt>
      <trkpt lat="45.00911" lon="6.04068">
        <ele>1481.1999511719</ele>
        <time>2021-03-21T13:33:18.000Z</time>
      </trkpt>
      <trkpt lat="45.00912" lon="6.04067">
        <ele>1481.4000244141</ele>
        <time>2021-03-21T13:33:19.000Z</time>
      </trkpt>
      <trkpt lat="45.00912" lon="6.04067">
        <ele>1481.5999755859</ele>
        <time>2021-03-21T13:33:20.000Z</time>
      </trkpt>
      <trkpt lat="45.00912" lon="6.04067">
        <ele>1481.5999755859</ele>
        <time>2021-03-21T13:33:21.000Z</time>
      </trkpt>
      <trkpt lat="45.00912" lon="6.04067">
        <ele>1481.8000488281</ele>
        <time>2021-03-21T13:33:22.000Z</time>
      </trkpt>
      <trkpt lat="45.00912" lon="6.04067">
        <ele>1482</ele>
        <time>2021-03-21T13:33:23.000Z</time>
      </trkpt>
      <trkpt lat="45.00912" lon="6.04067">
        <ele>1482</ele>
        <time>2021-03-21T13:33:24.000Z</time>
      </trkpt>
      <trkpt lat="45.00912" lon="6.04067">
        <ele>1481.8000488281</ele>
        <time>2021-03-21T13:33:25.000Z</time>
      </trkpt>
      <trkpt lat="45.00911" lon="6.04067">
        <ele>1482.1999511719</ele>
        <time>2021-03-21T13:33:26.000Z</time>
      </trkpt>
      <trkpt lat="45.00911" lon="6.04067">
        <ele>1482.1999511719</ele>
        <time>2021-03-21T13:33:27.000Z</time>
      </trkpt>
      <trkpt lat="45.00911" lon="6.04067">
        <ele>1482.1999511719</ele>
        <time>2021-03-21T13:33:28.000Z</time>
      </trkpt>
      <trkpt lat="45.00911" lon="6.04067">
        <ele>1482</ele>
        <time>2021-03-21T13:33:29.000Z</time>
      </trkpt>
      <trkpt lat="45.00912" lon="6.04066">
        <ele>1482</ele>
        <time>2021-03-21T13:33:30.000Z</time>
      </trkpt>
      <trkpt lat="45.00912" lon="6.04065">
        <ele>1483</ele>
        <time>2021-03-21T13:33:31.000Z</time>
      </trkpt>
      <trkpt lat="45.00912" lon="6.04064">
        <ele>1483.1999511719</ele>
        <time>2021-03-21T13:33:32.000Z</time>
      </trkpt>
      <trkpt lat="45.00912" lon="6.04065">
        <ele>1483</ele>
        <time>2021-03-21T13:33:33.000Z</time>
      </trkpt>
      <trkpt lat="45.00911" lon="6.04067">
        <ele>1482.1999511719</ele>
        <time>2021-03-21T13:33:34.000Z</time>
      </trkpt>
      <trkpt lat="45.00911" lon="6.04066">
        <ele>1482.4000244141</ele>
        <time>2021-03-21T13:33:35.000Z</time>
      </trkpt>
      <trkpt lat="45.00912" lon="6.04065">
        <ele>1483</ele>
        <time>2021-03-21T13:33:36.000Z</time>
      </trkpt>
      <trkpt lat="45.00911" lon="6.04066">
        <ele>1482.5999755859</ele>
        <time>2021-03-21T13:33:37.000Z</time>
      </trkpt>
      <trkpt lat="45.0091" lon="6.04066">
        <ele>1482.5999755859</ele>
        <time>2021-03-21T13:33:38.000Z</time>
      </trkpt>
      <trkpt lat="45.00909" lon="6.04068">
        <ele>1481.5999755859</ele>
        <time>2021-03-21T13:33:39.000Z</time>
      </trkpt>
      <trkpt lat="45.00909" lon="6.04069">
        <ele>1481</ele>
        <time>2021-03-21T13:33:40.000Z</time>
      </trkpt>
      <trkpt lat="45.00909" lon="6.04068">
        <ele>1481.1999511719</ele>
        <time>2021-03-21T13:33:41.000Z</time>
      </trkpt>
      <trkpt lat="45.00908" lon="6.04069">
        <ele>1481.4000244141</ele>
        <time>2021-03-21T13:33:42.000Z</time>
      </trkpt>
      <trkpt lat="45.00907" lon="6.04069">
        <ele>1481.1999511719</ele>
        <time>2021-03-21T13:33:43.000Z</time>
      </trkpt>
      <trkpt lat="45.00907" lon="6.04069">
        <ele>1481.1999511719</ele>
        <time>2021-03-21T13:33:44.000Z</time>
      </trkpt>
      <trkpt lat="45.00907" lon="6.04069">
        <ele>1481.4000244141</ele>
        <time>2021-03-21T13:33:45.000Z</time>
      </trkpt>
      <trkpt lat="45.00907" lon="6.04069">
        <ele>1481.5999755859</ele>
        <time>2021-03-21T13:33:46.000Z</time>
      </trkpt>
      <trkpt lat="45.00906" lon="6.04068">
        <ele>1481.8000488281</ele>
        <time>2021-03-21T13:33:47.000Z</time>
      </trkpt>
      <trkpt lat="45.00906" lon="6.04068">
        <ele>1482</ele>
        <time>2021-03-21T13:33:48.000Z</time>
      </trkpt>
      <trkpt lat="45.00904" lon="6.04069">
        <ele>1481.8000488281</ele>
        <time>2021-03-21T13:33:49.000Z</time>
      </trkpt>
      <trkpt lat="45.00904" lon="6.04069">
        <ele>1481.5999755859</ele>
        <time>2021-03-21T13:33:50.000Z</time>
      </trkpt>
      <trkpt lat="45.00904" lon="6.04069">
        <ele>1482</ele>
        <time>2021-03-21T13:33:51.000Z</time>
      </trkpt>
      <trkpt lat="45.00904" lon="6.04069">
        <ele>1482</ele>
        <time>2021-03-21T13:33:52.000Z</time>
      </trkpt>
      <trkpt lat="45.00904" lon="6.04069">
        <ele>1482.4000244141</ele>
        <time>2021-03-21T13:33:53.000Z</time>
      </trkpt>
      <trkpt lat="45.00903" lon="6.04068">
        <ele>1482.4000244141</ele>
        <time>2021-03-21T13:33:54.000Z</time>
      </trkpt>
      <trkpt lat="45.00903" lon="6.04067">
        <ele>1483.1999511719</ele>
        <time>2021-03-21T13:33:55.000Z</time>
      </trkpt>
      <trkpt lat="45.00903" lon="6.04066">
        <ele>1483.8000488281</ele>
        <time>2021-03-21T13:33:56.000Z</time>
      </trkpt>
      <trkpt lat="45.00903" lon="6.04066">
        <ele>1484.1999511719</ele>
        <time>2021-03-21T13:33:57.000Z</time>
      </trkpt>
      <trkpt lat="45.00903" lon="6.04066">
        <ele>1484.4000244141</ele>
        <time>2021-03-21T13:33:58.000Z</time>
      </trkpt>
      <trkpt lat="45.00903" lon="6.04066">
        <ele>1484.5999755859</ele>
        <time>2021-03-21T13:33:59.000Z</time>
      </trkpt>
      <trkpt lat="45.00902" lon="6.04066">
        <ele>1484.8000488281</ele>
        <time>2021-03-21T13:34:00.000Z</time>
      </trkpt>
      <trkpt lat="45.00903" lon="6.04066">
        <ele>1484.4000244141</ele>
        <time>2021-03-21T13:34:01.000Z</time>
      </trkpt>
      <trkpt lat="45.00903" lon="6.04066">
        <ele>1484.4000244141</ele>
        <time>2021-03-21T13:34:02.000Z</time>
      </trkpt>
      <trkpt lat="45.00903" lon="6.04066">
        <ele>1484.4000244141</ele>
        <time>2021-03-21T13:34:03.000Z</time>
      </trkpt>
      <trkpt lat="45.00904" lon="6.04066">
        <ele>1484.4000244141</ele>
        <time>2021-03-21T13:34:04.000Z</time>
      </trkpt>
      <trkpt lat="45.00904" lon="6.04066">
        <ele>1484.1999511719</ele>
        <time>2021-03-21T13:34:05.000Z</time>
      </trkpt>
      <trkpt lat="45.00904" lon="6.04066">
        <ele>1484.1999511719</ele>
        <time>2021-03-21T13:34:06.000Z</time>
      </trkpt>
      <trkpt lat="45.00904" lon="6.04066">
        <ele>1484</ele>
        <time>2021-03-21T13:34:07.000Z</time>
      </trkpt>
      <trkpt lat="45.00904" lon="6.04066">
        <ele>1484</ele>
        <time>2021-03-21T13:34:08.000Z</time>
      </trkpt>
      <trkpt lat="45.00904" lon="6.04066">
        <ele>1484.1999511719</ele>
        <time>2021-03-21T13:34:09.000Z</time>
      </trkpt>
      <trkpt lat="45.00904" lon="6.04066">
        <ele>1483.8000488281</ele>
        <time>2021-03-21T13:34:10.000Z</time>
      </trkpt>
      <trkpt lat="45.00904" lon="6.04066">
        <ele>1483.8000488281</ele>
        <time>2021-03-21T13:34:11.000Z</time>
      </trkpt>
      <trkpt lat="45.00904" lon="6.04066">
        <ele>1484</ele>
        <time>2021-03-21T13:34:12.000Z</time>
      </trkpt>
      <trkpt lat="45.00904" lon="6.04066">
        <ele>1483.8000488281</ele>
        <time>2021-03-21T13:34:13.000Z</time>
      </trkpt>
      <trkpt lat="45.00905" lon="6.04066">
        <ele>1483.5999755859</ele>
        <time>2021-03-21T13:34:14.000Z</time>
      </trkpt>
      <trkpt lat="45.00904" lon="6.04066">
        <ele>1483.5999755859</ele>
        <time>2021-03-21T13:34:15.000Z</time>
      </trkpt>
      <trkpt lat="45.00903" lon="6.04067">
        <ele>1483.1999511719</ele>
        <time>2021-03-21T13:34:16.000Z</time>
      </trkpt>
      <trkpt lat="45.00903" lon="6.04067">
        <ele>1483.1999511719</ele>
        <time>2021-03-21T13:34:17.000Z</time>
      </trkpt>
      <trkpt lat="45.00903" lon="6.04067">
        <ele>1483.4000244141</ele>
        <time>2021-03-21T13:34:18.000Z</time>
      </trkpt>
      <trkpt lat="45.00902" lon="6.04067">
        <ele>1484</ele>
        <time>2021-03-21T13:34:19.000Z</time>
      </trkpt>
      <trkpt lat="45.00901" lon="6.04068">
        <ele>1484.1999511719</ele>
        <time>2021-03-21T13:34:20.000Z</time>
      </trkpt>
      <trkpt lat="45.009" lon="6.04068">
        <ele>1485</ele>
        <time>2021-03-21T13:34:21.000Z</time>
      </trkpt>
      <trkpt lat="45.00899" lon="6.04068">
        <ele>1485.5999755859</ele>
        <time>2021-03-21T13:34:22.000Z</time>
      </trkpt>
      <trkpt lat="45.00899" lon="6.04068">
        <ele>1485.8000488281</ele>
        <time>2021-03-21T13:34:23.000Z</time>
      </trkpt>
      <trkpt lat="45.009" lon="6.04067">
        <ele>1485.4000244141</ele>
        <time>2021-03-21T13:34:24.000Z</time>
      </trkpt>
      <trkpt lat="45.00899" lon="6.04068">
        <ele>1486</ele>
        <time>2021-03-21T13:34:25.000Z</time>
      </trkpt>
      <trkpt lat="45.00899" lon="6.04068">
        <ele>1486</ele>
        <time>2021-03-21T13:34:26.000Z</time>
      </trkpt>
      <trkpt lat="45.00899" lon="6.04068">
        <ele>1485.8000488281</ele>
        <time>2021-03-21T13:34:27.000Z</time>
      </trkpt>
      <trkpt lat="45.00899" lon="6.04068">
        <ele>1485.8000488281</ele>
        <time>2021-03-21T13:34:28.000Z</time>
      </trkpt>
      <trkpt lat="45.00899" lon="6.04068">
        <ele>1485.8000488281</ele>
        <time>2021-03-21T13:34:29.000Z</time>
      </trkpt>
      <trkpt lat="45.009" lon="6.04067">
        <ele>1485.5999755859</ele>
        <time>2021-03-21T13:34:30.000Z</time>
      </trkpt>
      <trkpt lat="45.00901" lon="6.04066">
        <ele>1485.4000244141</ele>
        <time>2021-03-21T13:34:31.000Z</time>
      </trkpt>
      <trkpt lat="45.00902" lon="6.04064">
        <ele>1486.4000244141</ele>
        <time>2021-03-21T13:34:32.000Z</time>
      </trkpt>
      <trkpt lat="45.00904" lon="6.04062">
        <ele>1486.8000488281</ele>
        <time>2021-03-21T13:34:33.000Z</time>
      </trkpt>
      <trkpt lat="45.00905" lon="6.04062">
        <ele>1486.8000488281</ele>
        <time>2021-03-21T13:34:34.000Z</time>
      </trkpt>
      <trkpt lat="45.00905" lon="6.04062">
        <ele>1486.5999755859</ele>
        <time>2021-03-21T13:34:35.000Z</time>
      </trkpt>
      <trkpt lat="45.00906" lon="6.04062">
        <ele>1486.4000244141</ele>
        <time>2021-03-21T13:34:36.000Z</time>
      </trkpt>
      <trkpt lat="45.00906" lon="6.04062">
        <ele>1486.4000244141</ele>
        <time>2021-03-21T13:34:37.000Z</time>
      </trkpt>
      <trkpt lat="45.00906" lon="6.04062">
        <ele>1486.4000244141</ele>
        <time>2021-03-21T13:34:38.000Z</time>
      </trkpt>
      <trkpt lat="45.00907" lon="6.04061">
        <ele>1486.5999755859</ele>
        <time>2021-03-21T13:34:39.000Z</time>
      </trkpt>
      <trkpt lat="45.00907" lon="6.04061">
        <ele>1486.4000244141</ele>
        <time>2021-03-21T13:34:40.000Z</time>
      </trkpt>
      <trkpt lat="45.00906" lon="6.04062">
        <ele>1486.1999511719</ele>
        <time>2021-03-21T13:34:41.000Z</time>
      </trkpt>
      <trkpt lat="45.00907" lon="6.04061">
        <ele>1486.5999755859</ele>
        <time>2021-03-21T13:34:42.000Z</time>
      </trkpt>
      <trkpt lat="45.00907" lon="6.04061">
        <ele>1487</ele>
        <time>2021-03-21T13:34:43.000Z</time>
      </trkpt>
      <trkpt lat="45.00907" lon="6.0406">
        <ele>1487.1999511719</ele>
        <time>2021-03-21T13:34:44.000Z</time>
      </trkpt>
      <trkpt lat="45.00905" lon="6.04061">
        <ele>1487</ele>
        <time>2021-03-21T13:34:45.000Z</time>
      </trkpt>
      <trkpt lat="45.00905" lon="6.04061">
        <ele>1487.1999511719</ele>
        <time>2021-03-21T13:34:46.000Z</time>
      </trkpt>
      <trkpt lat="45.00906" lon="6.0406">
        <ele>1487.4000244141</ele>
        <time>2021-03-21T13:34:47.000Z</time>
      </trkpt>
      <trkpt lat="45.00907" lon="6.0406">
        <ele>1487.8000488281</ele>
        <time>2021-03-21T13:34:48.000Z</time>
      </trkpt>
      <trkpt lat="45.00908" lon="6.04058">
        <ele>1488.5999755859</ele>
        <time>2021-03-21T13:34:49.000Z</time>
      </trkpt>
      <trkpt lat="45.00909" lon="6.04057">
        <ele>1489.1999511719</ele>
        <time>2021-03-21T13:34:50.000Z</time>
      </trkpt>
      <trkpt lat="45.0091" lon="6.04056">
        <ele>1489.5999755859</ele>
        <time>2021-03-21T13:34:51.000Z</time>
      </trkpt>
      <trkpt lat="45.00911" lon="6.04055">
        <ele>1489.8000488281</ele>
        <time>2021-03-21T13:34:52.000Z</time>
      </trkpt>
      <trkpt lat="45.00912" lon="6.04055">
        <ele>1489.8000488281</ele>
        <time>2021-03-21T13:34:53.000Z</time>
      </trkpt>
      <trkpt lat="45.00912" lon="6.04054">
        <ele>1490</ele>
        <time>2021-03-21T13:34:54.000Z</time>
      </trkpt>
      <trkpt lat="45.00913" lon="6.04054">
        <ele>1490.5999755859</ele>
        <time>2021-03-21T13:34:55.000Z</time>
      </trkpt>
      <trkpt lat="45.00914" lon="6.04053">
        <ele>1490.4000244141</ele>
        <time>2021-03-21T13:34:56.000Z</time>
      </trkpt>
      <trkpt lat="45.00915" lon="6.04053">
        <ele>1490.4000244141</ele>
        <time>2021-03-21T13:34:57.000Z</time>
      </trkpt>
      <trkpt lat="45.00916" lon="6.04052">
        <ele>1490</ele>
        <time>2021-03-21T13:34:58.000Z</time>
      </trkpt>
      <trkpt lat="45.00918" lon="6.04051">
        <ele>1490</ele>
        <time>2021-03-21T13:34:59.000Z</time>
      </trkpt>
      <trkpt lat="45.00919" lon="6.04051">
        <ele>1489.8000488281</ele>
        <time>2021-03-21T13:35:00.000Z</time>
      </trkpt>
      <trkpt lat="45.00919" lon="6.04051">
        <ele>1489.8000488281</ele>
        <time>2021-03-21T13:35:01.000Z</time>
      </trkpt>
      <trkpt lat="45.00919" lon="6.04052">
        <ele>1489.4000244141</ele>
        <time>2021-03-21T13:35:02.000Z</time>
      </trkpt>
      <trkpt lat="45.0092" lon="6.04051">
        <ele>1489.4000244141</ele>
        <time>2021-03-21T13:35:03.000Z</time>
      </trkpt>
      <trkpt lat="45.00921" lon="6.04051">
        <ele>1489.1999511719</ele>
        <time>2021-03-21T13:35:04.000Z</time>
      </trkpt>
      <trkpt lat="45.00922" lon="6.04051">
        <ele>1489</ele>
        <time>2021-03-21T13:35:05.000Z</time>
      </trkpt>
      <trkpt lat="45.00924" lon="6.0405">
        <ele>1488.5999755859</ele>
        <time>2021-03-21T13:35:06.000Z</time>
      </trkpt>
      <trkpt lat="45.00924" lon="6.04051">
        <ele>1488</ele>
        <time>2021-03-21T13:35:07.000Z</time>
      </trkpt>
      <trkpt lat="45.00926" lon="6.04051">
        <ele>1487.1999511719</ele>
        <time>2021-03-21T13:35:08.000Z</time>
      </trkpt>
      <trkpt lat="45.00926" lon="6.04052">
        <ele>1486.8000488281</ele>
        <time>2021-03-21T13:35:09.000Z</time>
      </trkpt>
      <trkpt lat="45.00927" lon="6.04052">
        <ele>1486.4000244141</ele>
        <time>2021-03-21T13:35:10.000Z</time>
      </trkpt>
      <trkpt lat="45.00927" lon="6.04053">
        <ele>1486</ele>
        <time>2021-03-21T13:35:11.000Z</time>
      </trkpt>
      <trkpt lat="45.00928" lon="6.04053">
        <ele>1485.8000488281</ele>
        <time>2021-03-21T13:35:12.000Z</time>
      </trkpt>
      <trkpt lat="45.0093" lon="6.04053">
        <ele>1485.1999511719</ele>
        <time>2021-03-21T13:35:13.000Z</time>
      </trkpt>
      <trkpt lat="45.00932" lon="6.04052">
        <ele>1485</ele>
        <time>2021-03-21T13:35:14.000Z</time>
      </trkpt>
      <trkpt lat="45.00934" lon="6.04052">
        <ele>1485.1999511719</ele>
        <time>2021-03-21T13:35:15.000Z</time>
      </trkpt>
      <trkpt lat="45.00935" lon="6.04052">
        <ele>1485.4000244141</ele>
        <time>2021-03-21T13:35:16.000Z</time>
      </trkpt>
      <trkpt lat="45.00935" lon="6.04052">
        <ele>1485.1999511719</ele>
        <time>2021-03-21T13:35:17.000Z</time>
      </trkpt>
      <trkpt lat="45.00936" lon="6.04053">
        <ele>1484.8000488281</ele>
        <time>2021-03-21T13:35:18.000Z</time>
      </trkpt>
      <trkpt lat="45.00938" lon="6.04052">
        <ele>1485.4000244141</ele>
        <time>2021-03-21T13:35:19.000Z</time>
      </trkpt>
      <trkpt lat="45.00939" lon="6.04053">
        <ele>1485.1999511719</ele>
        <time>2021-03-21T13:35:20.000Z</time>
      </trkpt>
      <trkpt lat="45.0094" lon="6.04052">
        <ele>1485.4000244141</ele>
        <time>2021-03-21T13:35:21.000Z</time>
      </trkpt>
      <trkpt lat="45.00941" lon="6.04052">
        <ele>1485.5999755859</ele>
        <time>2021-03-21T13:35:22.000Z</time>
      </trkpt>
      <trkpt lat="45.00941" lon="6.04052">
        <ele>1485.5999755859</ele>
        <time>2021-03-21T13:35:23.000Z</time>
      </trkpt>
      <trkpt lat="45.00941" lon="6.04052">
        <ele>1485.8000488281</ele>
        <time>2021-03-21T13:35:24.000Z</time>
      </trkpt>
      <trkpt lat="45.00941" lon="6.04051">
        <ele>1486</ele>
        <time>2021-03-21T13:35:25.000Z</time>
      </trkpt>
      <trkpt lat="45.00941" lon="6.04051">
        <ele>1486</ele>
        <time>2021-03-21T13:35:26.000Z</time>
      </trkpt>
      <trkpt lat="45.00941" lon="6.04051">
        <ele>1486</ele>
        <time>2021-03-21T13:35:27.000Z</time>
      </trkpt>
      <trkpt lat="45.00941" lon="6.04052">
        <ele>1486</ele>
        <time>2021-03-21T13:35:28.000Z</time>
      </trkpt>
      <trkpt lat="45.0094" lon="6.04052">
        <ele>1485.8000488281</ele>
        <time>2021-03-21T13:35:29.000Z</time>
      </trkpt>
      <trkpt lat="45.0094" lon="6.04052">
        <ele>1485.5999755859</ele>
        <time>2021-03-21T13:35:30.000Z</time>
      </trkpt>
      <trkpt lat="45.00939" lon="6.04052">
        <ele>1485.5999755859</ele>
        <time>2021-03-21T13:35:31.000Z</time>
      </trkpt>
      <trkpt lat="45.0094" lon="6.04052">
        <ele>1485.5999755859</ele>
        <time>2021-03-21T13:35:32.000Z</time>
      </trkpt>
      <trkpt lat="45.0094" lon="6.04052">
        <ele>1485.8000488281</ele>
        <time>2021-03-21T13:35:33.000Z</time>
      </trkpt>
      <trkpt lat="45.0094" lon="6.04052">
        <ele>1485.5999755859</ele>
        <time>2021-03-21T13:35:34.000Z</time>
      </trkpt>
      <trkpt lat="45.0094" lon="6.04052">
        <ele>1485.5999755859</ele>
        <time>2021-03-21T13:35:35.000Z</time>
      </trkpt>
      <trkpt lat="45.0094" lon="6.04052">
        <ele>1485.4000244141</ele>
        <time>2021-03-21T13:35:36.000Z</time>
      </trkpt>
      <trkpt lat="45.0094" lon="6.04053">
        <ele>1485.1999511719</ele>
        <time>2021-03-21T13:35:37.000Z</time>
      </trkpt>
      <trkpt lat="45.0094" lon="6.04054">
        <ele>1484.8000488281</ele>
        <time>2021-03-21T13:35:38.000Z</time>
      </trkpt>
      <trkpt lat="45.00939" lon="6.04054">
        <ele>1484.5999755859</ele>
        <time>2021-03-21T13:35:39.000Z</time>
      </trkpt>
      <trkpt lat="45.00939" lon="6.04054">
        <ele>1484.5999755859</ele>
        <time>2021-03-21T13:35:40.000Z</time>
      </trkpt>
      <trkpt lat="45.00939" lon="6.04054">
        <ele>1484.5999755859</ele>
        <time>2021-03-21T13:35:41.000Z</time>
      </trkpt>
      <trkpt lat="45.0094" lon="6.04054">
        <ele>1484.5999755859</ele>
        <time>2021-03-21T13:35:42.000Z</time>
      </trkpt>
      <trkpt lat="45.00941" lon="6.04054">
        <ele>1484.5999755859</ele>
        <time>2021-03-21T13:35:43.000Z</time>
      </trkpt>
      <trkpt lat="45.00943" lon="6.04054">
        <ele>1485</ele>
        <time>2021-03-21T13:35:44.000Z</time>
      </trkpt>
      <trkpt lat="45.00943" lon="6.04054">
        <ele>1484.8000488281</ele>
        <time>2021-03-21T13:35:45.000Z</time>
      </trkpt>
      <trkpt lat="45.00943" lon="6.04055">
        <ele>1484.4000244141</ele>
        <time>2021-03-21T13:35:46.000Z</time>
      </trkpt>
      <trkpt lat="45.00943" lon="6.04055">
        <ele>1484.1999511719</ele>
        <time>2021-03-21T13:35:47.000Z</time>
      </trkpt>
      <trkpt lat="45.00943" lon="6.04055">
        <ele>1484.1999511719</ele>
        <time>2021-03-21T13:35:48.000Z</time>
      </trkpt>
      <trkpt lat="45.00943" lon="6.04055">
        <ele>1484</ele>
        <time>2021-03-21T13:35:49.000Z</time>
      </trkpt>
      <trkpt lat="45.00943" lon="6.04055">
        <ele>1484</ele>
        <time>2021-03-21T13:35:50.000Z</time>
      </trkpt>
      <trkpt lat="45.00943" lon="6.04055">
        <ele>1484.1999511719</ele>
        <time>2021-03-21T13:35:51.000Z</time>
      </trkpt>
      <trkpt lat="45.00943" lon="6.04055">
        <ele>1484.4000244141</ele>
        <time>2021-03-21T13:35:52.000Z</time>
      </trkpt>
      <trkpt lat="45.00943" lon="6.04054">
        <ele>1484.8000488281</ele>
        <time>2021-03-21T13:35:53.000Z</time>
      </trkpt>
      <trkpt lat="45.00943" lon="6.04054">
        <ele>1484.8000488281</ele>
        <time>2021-03-21T13:35:54.000Z</time>
      </trkpt>
      <trkpt lat="45.00943" lon="6.04054">
        <ele>1484.8000488281</ele>
        <time>2021-03-21T13:35:55.000Z</time>
      </trkpt>
      <trkpt lat="45.00942" lon="6.04054">
        <ele>1484.8000488281</ele>
        <time>2021-03-21T13:35:56.000Z</time>
      </trkpt>
      <trkpt lat="45.00942" lon="6.04054">
        <ele>1485</ele>
        <time>2021-03-21T13:35:57.000Z</time>
      </trkpt>
      <trkpt lat="45.00942" lon="6.04053">
        <ele>1485.1999511719</ele>
        <time>2021-03-21T13:35:58.000Z</time>
      </trkpt>
      <trkpt lat="45.00943" lon="6.04052">
        <ele>1485.5999755859</ele>
        <time>2021-03-21T13:35:59.000Z</time>
      </trkpt>
      <trkpt lat="45.00945" lon="6.04052">
        <ele>1485.8000488281</ele>
        <time>2021-03-21T13:36:00.000Z</time>
      </trkpt>
      <trkpt lat="45.00946" lon="6.04051">
        <ele>1486.1999511719</ele>
        <time>2021-03-21T13:36:01.000Z</time>
      </trkpt>
      <trkpt lat="45.00947" lon="6.0405">
        <ele>1486.5999755859</ele>
        <time>2021-03-21T13:36:02.000Z</time>
      </trkpt>
      <trkpt lat="45.00947" lon="6.04049">
        <ele>1487.1999511719</ele>
        <time>2021-03-21T13:36:03.000Z</time>
      </trkpt>
      <trkpt lat="45.00949" lon="6.04048">
        <ele>1487.5999755859</ele>
        <time>2021-03-21T13:36:04.000Z</time>
      </trkpt>
      <trkpt lat="45.0095" lon="6.04046">
        <ele>1488.4000244141</ele>
        <time>2021-03-21T13:36:05.000Z</time>
      </trkpt>
      <trkpt lat="45.00952" lon="6.04045">
        <ele>1488.8000488281</ele>
        <time>2021-03-21T13:36:06.000Z</time>
      </trkpt>
      <trkpt lat="45.00954" lon="6.04044">
        <ele>1489.5999755859</ele>
        <time>2021-03-21T13:36:07.000Z</time>
      </trkpt>
      <trkpt lat="45.00954" lon="6.04044">
        <ele>1489.1999511719</ele>
        <time>2021-03-21T13:36:08.000Z</time>
      </trkpt>
      <trkpt lat="45.00954" lon="6.04044">
        <ele>1489.4000244141</ele>
        <time>2021-03-21T13:36:09.000Z</time>
      </trkpt>
      <trkpt lat="45.00954" lon="6.04044">
        <ele>1489.5999755859</ele>
        <time>2021-03-21T13:36:10.000Z</time>
      </trkpt>
      <trkpt lat="45.00955" lon="6.04043">
        <ele>1490</ele>
        <time>2021-03-21T13:36:11.000Z</time>
      </trkpt>
      <trkpt lat="45.00955" lon="6.04042">
        <ele>1490.5999755859</ele>
        <time>2021-03-21T13:36:12.000Z</time>
      </trkpt>
      <trkpt lat="45.00955" lon="6.04041">
        <ele>1491.1999511719</ele>
        <time>2021-03-21T13:36:13.000Z</time>
      </trkpt>
      <trkpt lat="45.00955" lon="6.04041">
        <ele>1491.4000244141</ele>
        <time>2021-03-21T13:36:14.000Z</time>
      </trkpt>
      <trkpt lat="45.00956" lon="6.0404">
        <ele>1492</ele>
        <time>2021-03-21T13:36:15.000Z</time>
      </trkpt>
      <trkpt lat="45.00956" lon="6.04041">
        <ele>1491.5999755859</ele>
        <time>2021-03-21T13:36:16.000Z</time>
      </trkpt>
      <trkpt lat="45.00955" lon="6.04042">
        <ele>1491</ele>
        <time>2021-03-21T13:36:17.000Z</time>
      </trkpt>
      <trkpt lat="45.00955" lon="6.04041">
        <ele>1491.1999511719</ele>
        <time>2021-03-21T13:36:18.000Z</time>
      </trkpt>
      <trkpt lat="45.00954" lon="6.04041">
        <ele>1491</ele>
        <time>2021-03-21T13:36:19.000Z</time>
      </trkpt>
      <trkpt lat="45.00954" lon="6.04041">
        <ele>1491.4000244141</ele>
        <time>2021-03-21T13:36:20.000Z</time>
      </trkpt>
      <trkpt lat="45.00955" lon="6.0404">
        <ele>1492.5999755859</ele>
        <time>2021-03-21T13:36:21.000Z</time>
      </trkpt>
      <trkpt lat="45.00956" lon="6.04039">
        <ele>1493</ele>
        <time>2021-03-21T13:36:22.000Z</time>
      </trkpt>
      <trkpt lat="45.00956" lon="6.04039">
        <ele>1493</ele>
        <time>2021-03-21T13:36:23.000Z</time>
      </trkpt>
      <trkpt lat="45.00956" lon="6.04039">
        <ele>1493</ele>
        <time>2021-03-21T13:36:24.000Z</time>
      </trkpt>
      <trkpt lat="45.00956" lon="6.04039">
        <ele>1493.1999511719</ele>
        <time>2021-03-21T13:36:25.000Z</time>
      </trkpt>
      <trkpt lat="45.00957" lon="6.04038">
        <ele>1493.5999755859</ele>
        <time>2021-03-21T13:36:26.000Z</time>
      </trkpt>
      <trkpt lat="45.00958" lon="6.04037">
        <ele>1494.4000244141</ele>
        <time>2021-03-21T13:36:27.000Z</time>
      </trkpt>
      <trkpt lat="45.00957" lon="6.04038">
        <ele>1493.4000244141</ele>
        <time>2021-03-21T13:36:28.000Z</time>
      </trkpt>
      <trkpt lat="45.00957" lon="6.04038">
        <ele>1493.5999755859</ele>
        <time>2021-03-21T13:36:29.000Z</time>
      </trkpt>
      <trkpt lat="45.00957" lon="6.04038">
        <ele>1493.5999755859</ele>
        <time>2021-03-21T13:36:30.000Z</time>
      </trkpt>
      <trkpt lat="45.00956" lon="6.04038">
        <ele>1493.4000244141</ele>
        <time>2021-03-21T13:36:31.000Z</time>
      </trkpt>
      <trkpt lat="45.00957" lon="6.04038">
        <ele>1493.8000488281</ele>
        <time>2021-03-21T13:36:32.000Z</time>
      </trkpt>
      <trkpt lat="45.00958" lon="6.04036">
        <ele>1494.4000244141</ele>
        <time>2021-03-21T13:36:33.000Z</time>
      </trkpt>
      <trkpt lat="45.00959" lon="6.04034">
        <ele>1496</ele>
        <time>2021-03-21T13:36:34.000Z</time>
      </trkpt>
      <trkpt lat="45.0096" lon="6.04032">
        <ele>1497.1999511719</ele>
        <time>2021-03-21T13:36:35.000Z</time>
      </trkpt>
      <trkpt lat="45.00961" lon="6.04031">
        <ele>1498</ele>
        <time>2021-03-21T13:36:36.000Z</time>
      </trkpt>
      <trkpt lat="45.00963" lon="6.0403">
        <ele>1499</ele>
        <time>2021-03-21T13:36:37.000Z</time>
      </trkpt>
      <trkpt lat="45.00964" lon="6.04029">
        <ele>1499.4000244141</ele>
        <time>2021-03-21T13:36:38.000Z</time>
      </trkpt>
      <trkpt lat="45.00964" lon="6.04028">
        <ele>1500</ele>
        <time>2021-03-21T13:36:39.000Z</time>
      </trkpt>
      <trkpt lat="45.00965" lon="6.04028">
        <ele>1500.8000488281</ele>
        <time>2021-03-21T13:36:40.000Z</time>
      </trkpt>
      <trkpt lat="45.00966" lon="6.04026">
        <ele>1501.5999755859</ele>
        <time>2021-03-21T13:36:41.000Z</time>
      </trkpt>
      <trkpt lat="45.00966" lon="6.04024">
        <ele>1503.1999511719</ele>
        <time>2021-03-21T13:36:42.000Z</time>
      </trkpt>
      <trkpt lat="45.00967" lon="6.04022">
        <ele>1504</ele>
        <time>2021-03-21T13:36:43.000Z</time>
      </trkpt>
      <trkpt lat="45.00967" lon="6.04021">
        <ele>1504.1999511719</ele>
        <time>2021-03-21T13:36:44.000Z</time>
      </trkpt>
      <trkpt lat="45.00968" lon="6.0402">
        <ele>1504.1999511719</ele>
        <time>2021-03-21T13:36:45.000Z</time>
      </trkpt>
      <trkpt lat="45.00968" lon="6.04019">
        <ele>1504.1999511719</ele>
        <time>2021-03-21T13:36:46.000Z</time>
      </trkpt>
      <trkpt lat="45.00969" lon="6.04018">
        <ele>1504.4000244141</ele>
        <time>2021-03-21T13:36:47.000Z</time>
      </trkpt>
      <trkpt lat="45.00969" lon="6.04017">
        <ele>1504.4000244141</ele>
        <time>2021-03-21T13:36:48.000Z</time>
      </trkpt>
      <trkpt lat="45.0097" lon="6.04016">
        <ele>1504.4000244141</ele>
        <time>2021-03-21T13:36:49.000Z</time>
      </trkpt>
      <trkpt lat="45.00971" lon="6.04016">
        <ele>1504.1999511719</ele>
        <time>2021-03-21T13:36:50.000Z</time>
      </trkpt>
      <trkpt lat="45.00972" lon="6.04015">
        <ele>1504.1999511719</ele>
        <time>2021-03-21T13:36:51.000Z</time>
      </trkpt>
      <trkpt lat="45.00974" lon="6.04014">
        <ele>1503.8000488281</ele>
        <time>2021-03-21T13:36:52.000Z</time>
      </trkpt>
      <trkpt lat="45.00974" lon="6.04014">
        <ele>1504</ele>
        <time>2021-03-21T13:36:53.000Z</time>
      </trkpt>
      <trkpt lat="45.00975" lon="6.04013">
        <ele>1503.8000488281</ele>
        <time>2021-03-21T13:36:54.000Z</time>
      </trkpt>
      <trkpt lat="45.00975" lon="6.04013">
        <ele>1503.5999755859</ele>
        <time>2021-03-21T13:36:55.000Z</time>
      </trkpt>
      <trkpt lat="45.00976" lon="6.04013">
        <ele>1503.4000244141</ele>
        <time>2021-03-21T13:36:56.000Z</time>
      </trkpt>
      <trkpt lat="45.00977" lon="6.04013">
        <ele>1503.1999511719</ele>
        <time>2021-03-21T13:36:57.000Z</time>
      </trkpt>
      <trkpt lat="45.00977" lon="6.04013">
        <ele>1503.1999511719</ele>
        <time>2021-03-21T13:36:58.000Z</time>
      </trkpt>
      <trkpt lat="45.00977" lon="6.04012">
        <ele>1503.4000244141</ele>
        <time>2021-03-21T13:36:59.000Z</time>
      </trkpt>
      <trkpt lat="45.00977" lon="6.04012">
        <ele>1503.4000244141</ele>
        <time>2021-03-21T13:37:00.000Z</time>
      </trkpt>
      <trkpt lat="45.00977" lon="6.04012">
        <ele>1503.4000244141</ele>
        <time>2021-03-21T13:37:01.000Z</time>
      </trkpt>
      <trkpt lat="45.00977" lon="6.04012">
        <ele>1503.4000244141</ele>
        <time>2021-03-21T13:37:02.000Z</time>
      </trkpt>
      <trkpt lat="45.00977" lon="6.04013">
        <ele>1503.4000244141</ele>
        <time>2021-03-21T13:37:03.000Z</time>
      </trkpt>
      <trkpt lat="45.00977" lon="6.04013">
        <ele>1503.1999511719</ele>
        <time>2021-03-21T13:37:04.000Z</time>
      </trkpt>
      <trkpt lat="45.00977" lon="6.04013">
        <ele>1503</ele>
        <time>2021-03-21T13:37:05.000Z</time>
      </trkpt>
      <trkpt lat="45.00977" lon="6.04013">
        <ele>1503</ele>
        <time>2021-03-21T13:37:06.000Z</time>
      </trkpt>
      <trkpt lat="45.00977" lon="6.04014">
        <ele>1503</ele>
        <time>2021-03-21T13:37:07.000Z</time>
      </trkpt>
      <trkpt lat="45.00977" lon="6.04013">
        <ele>1503.4000244141</ele>
        <time>2021-03-21T13:37:08.000Z</time>
      </trkpt>
      <trkpt lat="45.00977" lon="6.04012">
        <ele>1503.8000488281</ele>
        <time>2021-03-21T13:37:09.000Z</time>
      </trkpt>
      <trkpt lat="45.00977" lon="6.04011">
        <ele>1504</ele>
        <time>2021-03-21T13:37:10.000Z</time>
      </trkpt>
      <trkpt lat="45.00977" lon="6.04011">
        <ele>1504</ele>
        <time>2021-03-21T13:37:11.000Z</time>
      </trkpt>
      <trkpt lat="45.00976" lon="6.04012">
        <ele>1504</ele>
        <time>2021-03-21T13:37:12.000Z</time>
      </trkpt>
      <trkpt lat="45.00976" lon="6.04012">
        <ele>1504</ele>
        <time>2021-03-21T13:37:13.000Z</time>
      </trkpt>
      <trkpt lat="45.00975" lon="6.04012">
        <ele>1504.4000244141</ele>
        <time>2021-03-21T13:37:14.000Z</time>
      </trkpt>
      <trkpt lat="45.00975" lon="6.04012">
        <ele>1504.4000244141</ele>
        <time>2021-03-21T13:37:15.000Z</time>
      </trkpt>
      <trkpt lat="45.00974" lon="6.04012">
        <ele>1504.5999755859</ele>
        <time>2021-03-21T13:37:16.000Z</time>
      </trkpt>
      <trkpt lat="45.00974" lon="6.04012">
        <ele>1504.5999755859</ele>
        <time>2021-03-21T13:37:17.000Z</time>
      </trkpt>
      <trkpt lat="45.00974" lon="6.04012">
        <ele>1504.4000244141</ele>
        <time>2021-03-21T13:37:18.000Z</time>
      </trkpt>
      <trkpt lat="45.00974" lon="6.04012">
        <ele>1504.5999755859</ele>
        <time>2021-03-21T13:37:19.000Z</time>
      </trkpt>
      <trkpt lat="45.00974" lon="6.04013">
        <ele>1504.4000244141</ele>
        <time>2021-03-21T13:37:20.000Z</time>
      </trkpt>
      <trkpt lat="45.00974" lon="6.04013">
        <ele>1504.4000244141</ele>
        <time>2021-03-21T13:37:21.000Z</time>
      </trkpt>
      <trkpt lat="45.00974" lon="6.04013">
        <ele>1504.1999511719</ele>
        <time>2021-03-21T13:37:22.000Z</time>
      </trkpt>
      <trkpt lat="45.00975" lon="6.04013">
        <ele>1503.8000488281</ele>
        <time>2021-03-21T13:37:23.000Z</time>
      </trkpt>
      <trkpt lat="45.00975" lon="6.04014">
        <ele>1503.5999755859</ele>
        <time>2021-03-21T13:37:24.000Z</time>
      </trkpt>
      <trkpt lat="45.00975" lon="6.04014">
        <ele>1503.5999755859</ele>
        <time>2021-03-21T13:37:25.000Z</time>
      </trkpt>
      <trkpt lat="45.00975" lon="6.04014">
        <ele>1503.5999755859</ele>
        <time>2021-03-21T13:37:26.000Z</time>
      </trkpt>
      <trkpt lat="45.00976" lon="6.04014">
        <ele>1503.4000244141</ele>
        <time>2021-03-21T13:37:27.000Z</time>
      </trkpt>
      <trkpt lat="45.00977" lon="6.04012">
        <ele>1503.5999755859</ele>
        <time>2021-03-21T13:37:28.000Z</time>
      </trkpt>
      <trkpt lat="45.00977" lon="6.04012">
        <ele>1503.5999755859</ele>
        <time>2021-03-21T13:37:29.000Z</time>
      </trkpt>
      <trkpt lat="45.00977" lon="6.04012">
        <ele>1503.8000488281</ele>
        <time>2021-03-21T13:37:30.000Z</time>
      </trkpt>
      <trkpt lat="45.00977" lon="6.04012">
        <ele>1503.5999755859</ele>
        <time>2021-03-21T13:37:31.000Z</time>
      </trkpt>
      <trkpt lat="45.00977" lon="6.04012">
        <ele>1503.5999755859</ele>
        <time>2021-03-21T13:37:32.000Z</time>
      </trkpt>
      <trkpt lat="45.00977" lon="6.04012">
        <ele>1503.5999755859</ele>
        <time>2021-03-21T13:37:33.000Z</time>
      </trkpt>
      <trkpt lat="45.00977" lon="6.04012">
        <ele>1503.5999755859</ele>
        <time>2021-03-21T13:37:34.000Z</time>
      </trkpt>
      <trkpt lat="45.00977" lon="6.04012">
        <ele>1503.5999755859</ele>
        <time>2021-03-21T13:37:35.000Z</time>
      </trkpt>
      <trkpt lat="45.00976" lon="6.04013">
        <ele>1503.4000244141</ele>
        <time>2021-03-21T13:37:36.000Z</time>
      </trkpt>
      <trkpt lat="45.00976" lon="6.04014">
        <ele>1503</ele>
        <time>2021-03-21T13:37:37.000Z</time>
      </trkpt>
      <trkpt lat="45.00976" lon="6.04015">
        <ele>1502.8000488281</ele>
        <time>2021-03-21T13:37:38.000Z</time>
      </trkpt>
      <trkpt lat="45.00976" lon="6.04016">
        <ele>1502.5999755859</ele>
        <time>2021-03-21T13:37:39.000Z</time>
      </trkpt>
      <trkpt lat="45.00976" lon="6.04016">
        <ele>1502.4000244141</ele>
        <time>2021-03-21T13:37:40.000Z</time>
      </trkpt>
      <trkpt lat="45.00976" lon="6.04016">
        <ele>1502.1999511719</ele>
        <time>2021-03-21T13:37:41.000Z</time>
      </trkpt>
      <trkpt lat="45.00976" lon="6.04017">
        <ele>1502.1999511719</ele>
        <time>2021-03-21T13:37:42.000Z</time>
      </trkpt>
      <trkpt lat="45.00976" lon="6.04017">
        <ele>1502</ele>
        <time>2021-03-21T13:37:43.000Z</time>
      </trkpt>
      <trkpt lat="45.00977" lon="6.04017">
        <ele>1501.8000488281</ele>
        <time>2021-03-21T13:37:44.000Z</time>
      </trkpt>
      <trkpt lat="45.00976" lon="6.04017">
        <ele>1502</ele>
        <time>2021-03-21T13:37:45.000Z</time>
      </trkpt>
      <trkpt lat="45.00976" lon="6.04018">
        <ele>1501.8000488281</ele>
        <time>2021-03-21T13:37:46.000Z</time>
      </trkpt>
      <trkpt lat="45.00976" lon="6.04018">
        <ele>1501.8000488281</ele>
        <time>2021-03-21T13:37:47.000Z</time>
      </trkpt>
      <trkpt lat="45.00976" lon="6.04019">
        <ele>1501.5999755859</ele>
        <time>2021-03-21T13:37:48.000Z</time>
      </trkpt>
      <trkpt lat="45.00976" lon="6.0402">
        <ele>1501.4000244141</ele>
        <time>2021-03-21T13:37:49.000Z</time>
      </trkpt>
      <trkpt lat="45.00976" lon="6.04021">
        <ele>1501</ele>
        <time>2021-03-21T13:37:50.000Z</time>
      </trkpt>
      <trkpt lat="45.00976" lon="6.04022">
        <ele>1500.8000488281</ele>
        <time>2021-03-21T13:37:51.000Z</time>
      </trkpt>
      <trkpt lat="45.00976" lon="6.04022">
        <ele>1500.5999755859</ele>
        <time>2021-03-21T13:37:52.000Z</time>
      </trkpt>
      <trkpt lat="45.00976" lon="6.04023">
        <ele>1500.5999755859</ele>
        <time>2021-03-21T13:37:53.000Z</time>
      </trkpt>
      <trkpt lat="45.00977" lon="6.04023">
        <ele>1500.4000244141</ele>
        <time>2021-03-21T13:37:54.000Z</time>
      </trkpt>
      <trkpt lat="45.00978" lon="6.04022">
        <ele>1500</ele>
        <time>2021-03-21T13:37:55.000Z</time>
      </trkpt>
      <trkpt lat="45.00979" lon="6.04022">
        <ele>1499.8000488281</ele>
        <time>2021-03-21T13:37:56.000Z</time>
      </trkpt>
      <trkpt lat="45.00979" lon="6.04023">
        <ele>1499.5999755859</ele>
        <time>2021-03-21T13:37:57.000Z</time>
      </trkpt>
      <trkpt lat="45.00979" lon="6.04023">
        <ele>1499.1999511719</ele>
        <time>2021-03-21T13:37:58.000Z</time>
      </trkpt>
      <trkpt lat="45.00979" lon="6.04024">
        <ele>1499</ele>
        <time>2021-03-21T13:37:59.000Z</time>
      </trkpt>
      <trkpt lat="45.0098" lon="6.04024">
        <ele>1498.8000488281</ele>
        <time>2021-03-21T13:38:00.000Z</time>
      </trkpt>
      <trkpt lat="45.0098" lon="6.04024">
        <ele>1498.5999755859</ele>
        <time>2021-03-21T13:38:01.000Z</time>
      </trkpt>
      <trkpt lat="45.0098" lon="6.04025">
        <ele>1498.4000244141</ele>
        <time>2021-03-21T13:38:02.000Z</time>
      </trkpt>
      <trkpt lat="45.00981" lon="6.04025">
        <ele>1498</ele>
        <time>2021-03-21T13:38:03.000Z</time>
      </trkpt>
      <trkpt lat="45.00981" lon="6.04026">
        <ele>1497.8000488281</ele>
        <time>2021-03-21T13:38:04.000Z</time>
      </trkpt>
      <trkpt lat="45.00981" lon="6.04027">
        <ele>1497.4000244141</ele>
        <time>2021-03-21T13:38:05.000Z</time>
      </trkpt>
      <trkpt lat="45.00982" lon="6.04027">
        <ele>1497.1999511719</ele>
        <time>2021-03-21T13:38:06.000Z</time>
      </trkpt>
      <trkpt lat="45.00984" lon="6.04026">
        <ele>1496.5999755859</ele>
        <time>2021-03-21T13:38:07.000Z</time>
      </trkpt>
      <trkpt lat="45.00984" lon="6.04027">
        <ele>1496.4000244141</ele>
        <time>2021-03-21T13:38:08.000Z</time>
      </trkpt>
      <trkpt lat="45.00985" lon="6.04026">
        <ele>1496.1999511719</ele>
        <time>2021-03-21T13:38:09.000Z</time>
      </trkpt>
      <trkpt lat="45.00985" lon="6.04027">
        <ele>1496</ele>
        <time>2021-03-21T13:38:10.000Z</time>
      </trkpt>
      <trkpt lat="45.00985" lon="6.04028">
        <ele>1495.8000488281</ele>
        <time>2021-03-21T13:38:11.000Z</time>
      </trkpt>
      <trkpt lat="45.00985" lon="6.04028">
        <ele>1495.5999755859</ele>
        <time>2021-03-21T13:38:12.000Z</time>
      </trkpt>
      <trkpt lat="45.00986" lon="6.04028">
        <ele>1495.5999755859</ele>
        <time>2021-03-21T13:38:13.000Z</time>
      </trkpt>
      <trkpt lat="45.00987" lon="6.04027">
        <ele>1495.1999511719</ele>
        <time>2021-03-21T13:38:14.000Z</time>
      </trkpt>
      <trkpt lat="45.00988" lon="6.04027">
        <ele>1495.1999511719</ele>
        <time>2021-03-21T13:38:15.000Z</time>
      </trkpt>
      <trkpt lat="45.00989" lon="6.04027">
        <ele>1495</ele>
        <time>2021-03-21T13:38:16.000Z</time>
      </trkpt>
      <trkpt lat="45.0099" lon="6.04027">
        <ele>1494.5999755859</ele>
        <time>2021-03-21T13:38:17.000Z</time>
      </trkpt>
      <trkpt lat="45.00991" lon="6.04027">
        <ele>1494.4000244141</ele>
        <time>2021-03-21T13:38:18.000Z</time>
      </trkpt>
      <trkpt lat="45.00993" lon="6.04027">
        <ele>1494</ele>
        <time>2021-03-21T13:38:19.000Z</time>
      </trkpt>
      <trkpt lat="45.00995" lon="6.04026">
        <ele>1493.8000488281</ele>
        <time>2021-03-21T13:38:20.000Z</time>
      </trkpt>
      <trkpt lat="45.00998" lon="6.04025">
        <ele>1493.4000244141</ele>
        <time>2021-03-21T13:38:21.000Z</time>
      </trkpt>
      <trkpt lat="45.00999" lon="6.04025">
        <ele>1493.1999511719</ele>
        <time>2021-03-21T13:38:22.000Z</time>
      </trkpt>
      <trkpt lat="45.01" lon="6.04025">
        <ele>1493</ele>
        <time>2021-03-21T13:38:23.000Z</time>
      </trkpt>
      <trkpt lat="45.01001" lon="6.04026">
        <ele>1492.5999755859</ele>
        <time>2021-03-21T13:38:24.000Z</time>
      </trkpt>
      <trkpt lat="45.01002" lon="6.04025">
        <ele>1492.5999755859</ele>
        <time>2021-03-21T13:38:25.000Z</time>
      </trkpt>
      <trkpt lat="45.01003" lon="6.04025">
        <ele>1492.4000244141</ele>
        <time>2021-03-21T13:38:26.000Z</time>
      </trkpt>
      <trkpt lat="45.01005" lon="6.04024">
        <ele>1492.4000244141</ele>
        <time>2021-03-21T13:38:27.000Z</time>
      </trkpt>
      <trkpt lat="45.01007" lon="6.04023">
        <ele>1492.1999511719</ele>
        <time>2021-03-21T13:38:28.000Z</time>
      </trkpt>
      <trkpt lat="45.01008" lon="6.04023">
        <ele>1492.1999511719</ele>
        <time>2021-03-21T13:38:29.000Z</time>
      </trkpt>
      <trkpt lat="45.0101" lon="6.04023">
        <ele>1492</ele>
        <time>2021-03-21T13:38:30.000Z</time>
      </trkpt>
      <trkpt lat="45.01011" lon="6.04022">
        <ele>1491.8000488281</ele>
        <time>2021-03-21T13:38:31.000Z</time>
      </trkpt>
      <trkpt lat="45.01012" lon="6.04023">
        <ele>1491.5999755859</ele>
        <time>2021-03-21T13:38:32.000Z</time>
      </trkpt>
      <trkpt lat="45.01014" lon="6.04022">
        <ele>1491.5999755859</ele>
        <time>2021-03-21T13:38:33.000Z</time>
      </trkpt>
      <trkpt lat="45.01015" lon="6.04022">
        <ele>1491</ele>
        <time>2021-03-21T13:38:34.000Z</time>
      </trkpt>
      <trkpt lat="45.01017" lon="6.04022">
        <ele>1490</ele>
        <time>2021-03-21T13:38:35.000Z</time>
      </trkpt>
      <trkpt lat="45.01019" lon="6.04022">
        <ele>1489.1999511719</ele>
        <time>2021-03-21T13:38:36.000Z</time>
      </trkpt>
      <trkpt lat="45.0102" lon="6.04023">
        <ele>1488</ele>
        <time>2021-03-21T13:38:37.000Z</time>
      </trkpt>
      <trkpt lat="45.01021" lon="6.04023">
        <ele>1487.4000244141</ele>
        <time>2021-03-21T13:38:38.000Z</time>
      </trkpt>
      <trkpt lat="45.01022" lon="6.04023">
        <ele>1486.8000488281</ele>
        <time>2021-03-21T13:38:39.000Z</time>
      </trkpt>
      <trkpt lat="45.01022" lon="6.04024">
        <ele>1486.4000244141</ele>
        <time>2021-03-21T13:38:40.000Z</time>
      </trkpt>
      <trkpt lat="45.01023" lon="6.04024">
        <ele>1486</ele>
        <time>2021-03-21T13:38:41.000Z</time>
      </trkpt>
      <trkpt lat="45.01025" lon="6.04024">
        <ele>1485</ele>
        <time>2021-03-21T13:38:42.000Z</time>
      </trkpt>
      <trkpt lat="45.01026" lon="6.04025">
        <ele>1484.1999511719</ele>
        <time>2021-03-21T13:38:43.000Z</time>
      </trkpt>
      <trkpt lat="45.01026" lon="6.04025">
        <ele>1483.8000488281</ele>
        <time>2021-03-21T13:38:44.000Z</time>
      </trkpt>
      <trkpt lat="45.01028" lon="6.04024">
        <ele>1483</ele>
        <time>2021-03-21T13:38:45.000Z</time>
      </trkpt>
      <trkpt lat="45.01029" lon="6.04023">
        <ele>1482.5999755859</ele>
        <time>2021-03-21T13:38:46.000Z</time>
      </trkpt>
      <trkpt lat="45.0103" lon="6.04023">
        <ele>1482</ele>
        <time>2021-03-21T13:38:47.000Z</time>
      </trkpt>
      <trkpt lat="45.01031" lon="6.04022">
        <ele>1481.8000488281</ele>
        <time>2021-03-21T13:38:48.000Z</time>
      </trkpt>
      <trkpt lat="45.01033" lon="6.04021">
        <ele>1481</ele>
        <time>2021-03-21T13:38:49.000Z</time>
      </trkpt>
      <trkpt lat="45.01034" lon="6.04021">
        <ele>1480.4000244141</ele>
        <time>2021-03-21T13:38:50.000Z</time>
      </trkpt>
      <trkpt lat="45.01035" lon="6.0402">
        <ele>1479.5999755859</ele>
        <time>2021-03-21T13:38:51.000Z</time>
      </trkpt>
      <trkpt lat="45.01037" lon="6.04019">
        <ele>1478.8000488281</ele>
        <time>2021-03-21T13:38:52.000Z</time>
      </trkpt>
      <trkpt lat="45.01038" lon="6.04018">
        <ele>1478.4000244141</ele>
        <time>2021-03-21T13:38:53.000Z</time>
      </trkpt>
      <trkpt lat="45.01039" lon="6.04018">
        <ele>1478.1999511719</ele>
        <time>2021-03-21T13:38:54.000Z</time>
      </trkpt>
      <trkpt lat="45.0104" lon="6.04017">
        <ele>1477.8000488281</ele>
        <time>2021-03-21T13:38:55.000Z</time>
      </trkpt>
      <trkpt lat="45.01041" lon="6.04017">
        <ele>1477.4000244141</ele>
        <time>2021-03-21T13:38:56.000Z</time>
      </trkpt>
      <trkpt lat="45.01042" lon="6.04016">
        <ele>1476.5999755859</ele>
        <time>2021-03-21T13:38:57.000Z</time>
      </trkpt>
      <trkpt lat="45.01043" lon="6.04016">
        <ele>1476.4000244141</ele>
        <time>2021-03-21T13:38:58.000Z</time>
      </trkpt>
      <trkpt lat="45.01045" lon="6.04015">
        <ele>1474.5999755859</ele>
        <time>2021-03-21T13:38:59.000Z</time>
      </trkpt>
      <trkpt lat="45.01046" lon="6.04015">
        <ele>1474</ele>
        <time>2021-03-21T13:39:00.000Z</time>
      </trkpt>
      <trkpt lat="45.01047" lon="6.04014">
        <ele>1473.1999511719</ele>
        <time>2021-03-21T13:39:01.000Z</time>
      </trkpt>
      <trkpt lat="45.01049" lon="6.04013">
        <ele>1472.4000244141</ele>
        <time>2021-03-21T13:39:02.000Z</time>
      </trkpt>
      <trkpt lat="45.01049" lon="6.04012">
        <ele>1472.4000244141</ele>
        <time>2021-03-21T13:39:03.000Z</time>
      </trkpt>
      <trkpt lat="45.0105" lon="6.04012">
        <ele>1472</ele>
        <time>2021-03-21T13:39:04.000Z</time>
      </trkpt>
      <trkpt lat="45.0105" lon="6.04012">
        <ele>1471.5999755859</ele>
        <time>2021-03-21T13:39:05.000Z</time>
      </trkpt>
      <trkpt lat="45.01051" lon="6.04012">
        <ele>1471.4000244141</ele>
        <time>2021-03-21T13:39:06.000Z</time>
      </trkpt>
      <trkpt lat="45.01052" lon="6.04011">
        <ele>1470.5999755859</ele>
        <time>2021-03-21T13:39:07.000Z</time>
      </trkpt>
      <trkpt lat="45.01053" lon="6.0401">
        <ele>1470</ele>
        <time>2021-03-21T13:39:08.000Z</time>
      </trkpt>
      <trkpt lat="45.01055" lon="6.04009">
        <ele>1469.4000244141</ele>
        <time>2021-03-21T13:39:09.000Z</time>
      </trkpt>
      <trkpt lat="45.01056" lon="6.04008">
        <ele>1468.8000488281</ele>
        <time>2021-03-21T13:39:10.000Z</time>
      </trkpt>
      <trkpt lat="45.01057" lon="6.04008">
        <ele>1468.5999755859</ele>
        <time>2021-03-21T13:39:11.000Z</time>
      </trkpt>
      <trkpt lat="45.01059" lon="6.04007">
        <ele>1467.1999511719</ele>
        <time>2021-03-21T13:39:12.000Z</time>
      </trkpt>
      <trkpt lat="45.0106" lon="6.04007">
        <ele>1466.5999755859</ele>
        <time>2021-03-21T13:39:13.000Z</time>
      </trkpt>
      <trkpt lat="45.0106" lon="6.04007">
        <ele>1465.8000488281</ele>
        <time>2021-03-21T13:39:14.000Z</time>
      </trkpt>
      <trkpt lat="45.01061" lon="6.04008">
        <ele>1465</ele>
        <time>2021-03-21T13:39:15.000Z</time>
      </trkpt>
      <trkpt lat="45.01062" lon="6.04007">
        <ele>1464.4000244141</ele>
        <time>2021-03-21T13:39:16.000Z</time>
      </trkpt>
      <trkpt lat="45.01063" lon="6.04008">
        <ele>1464</ele>
        <time>2021-03-21T13:39:17.000Z</time>
      </trkpt>
      <trkpt lat="45.01063" lon="6.04008">
        <ele>1463.4000244141</ele>
        <time>2021-03-21T13:39:18.000Z</time>
      </trkpt>
      <trkpt lat="45.01063" lon="6.04009">
        <ele>1463.1999511719</ele>
        <time>2021-03-21T13:39:19.000Z</time>
      </trkpt>
      <trkpt lat="45.01064" lon="6.04008">
        <ele>1463.1999511719</ele>
        <time>2021-03-21T13:39:20.000Z</time>
      </trkpt>
      <trkpt lat="45.01065" lon="6.04008">
        <ele>1463.4000244141</ele>
        <time>2021-03-21T13:39:21.000Z</time>
      </trkpt>
      <trkpt lat="45.01066" lon="6.04008">
        <ele>1463.8000488281</ele>
        <time>2021-03-21T13:39:22.000Z</time>
      </trkpt>
      <trkpt lat="45.01067" lon="6.04007">
        <ele>1464.1999511719</ele>
        <time>2021-03-21T13:39:23.000Z</time>
      </trkpt>
      <trkpt lat="45.01067" lon="6.04007">
        <ele>1464</ele>
        <time>2021-03-21T13:39:24.000Z</time>
      </trkpt>
      <trkpt lat="45.01067" lon="6.04008">
        <ele>1463.5999755859</ele>
        <time>2021-03-21T13:39:25.000Z</time>
      </trkpt>
      <trkpt lat="45.01066" lon="6.04009">
        <ele>1462.8000488281</ele>
        <time>2021-03-21T13:39:26.000Z</time>
      </trkpt>
      <trkpt lat="45.01067" lon="6.0401">
        <ele>1461.5999755859</ele>
        <time>2021-03-21T13:39:27.000Z</time>
      </trkpt>
      <trkpt lat="45.01066" lon="6.0401">
        <ele>1461.1999511719</ele>
        <time>2021-03-21T13:39:28.000Z</time>
      </trkpt>
      <trkpt lat="45.01067" lon="6.0401">
        <ele>1460.8000488281</ele>
        <time>2021-03-21T13:39:29.000Z</time>
      </trkpt>
      <trkpt lat="45.01066" lon="6.04011">
        <ele>1460.4000244141</ele>
        <time>2021-03-21T13:39:30.000Z</time>
      </trkpt>
      <trkpt lat="45.01066" lon="6.04011">
        <ele>1460</ele>
        <time>2021-03-21T13:39:31.000Z</time>
      </trkpt>
      <trkpt lat="45.01067" lon="6.04012">
        <ele>1459.4000244141</ele>
        <time>2021-03-21T13:39:32.000Z</time>
      </trkpt>
      <trkpt lat="45.01066" lon="6.04012">
        <ele>1459</ele>
        <time>2021-03-21T13:39:33.000Z</time>
      </trkpt>
      <trkpt lat="45.01066" lon="6.04013">
        <ele>1458.5999755859</ele>
        <time>2021-03-21T13:39:34.000Z</time>
      </trkpt>
      <trkpt lat="45.01066" lon="6.04013">
        <ele>1458.5999755859</ele>
        <time>2021-03-21T13:39:35.000Z</time>
      </trkpt>
      <trkpt lat="45.01068" lon="6.04013">
        <ele>1457</ele>
        <time>2021-03-21T13:39:36.000Z</time>
      </trkpt>
      <trkpt lat="45.01069" lon="6.04014">
        <ele>1456</ele>
        <time>2021-03-21T13:39:37.000Z</time>
      </trkpt>
      <trkpt lat="45.0107" lon="6.04016">
        <ele>1455.4000244141</ele>
        <time>2021-03-21T13:39:38.000Z</time>
      </trkpt>
      <trkpt lat="45.0107" lon="6.04016">
        <ele>1454.8000488281</ele>
        <time>2021-03-21T13:39:39.000Z</time>
      </trkpt>
      <trkpt lat="45.01071" lon="6.04016">
        <ele>1454.8000488281</ele>
        <time>2021-03-21T13:39:40.000Z</time>
      </trkpt>
      <trkpt lat="45.01073" lon="6.04015">
        <ele>1455.4000244141</ele>
        <time>2021-03-21T13:39:41.000Z</time>
      </trkpt>
      <trkpt lat="45.01074" lon="6.04015">
        <ele>1455.1999511719</ele>
        <time>2021-03-21T13:39:42.000Z</time>
      </trkpt>
      <trkpt lat="45.01075" lon="6.04016">
        <ele>1455</ele>
        <time>2021-03-21T13:39:43.000Z</time>
      </trkpt>
      <trkpt lat="45.01076" lon="6.04016">
        <ele>1455.1999511719</ele>
        <time>2021-03-21T13:39:44.000Z</time>
      </trkpt>
      <trkpt lat="45.01076" lon="6.04016">
        <ele>1455</ele>
        <time>2021-03-21T13:39:45.000Z</time>
      </trkpt>
      <trkpt lat="45.01077" lon="6.04016">
        <ele>1455.1999511719</ele>
        <time>2021-03-21T13:39:46.000Z</time>
      </trkpt>
      <trkpt lat="45.01078" lon="6.04016">
        <ele>1454.8000488281</ele>
        <time>2021-03-21T13:39:47.000Z</time>
      </trkpt>
      <trkpt lat="45.01078" lon="6.04017">
        <ele>1454.8000488281</ele>
        <time>2021-03-21T13:39:48.000Z</time>
      </trkpt>
      <trkpt lat="45.01079" lon="6.04016">
        <ele>1455.1999511719</ele>
        <time>2021-03-21T13:39:49.000Z</time>
      </trkpt>
      <trkpt lat="45.01081" lon="6.04016">
        <ele>1455.4000244141</ele>
        <time>2021-03-21T13:39:50.000Z</time>
      </trkpt>
      <trkpt lat="45.01082" lon="6.04016">
        <ele>1455.5999755859</ele>
        <time>2021-03-21T13:39:51.000Z</time>
      </trkpt>
      <trkpt lat="45.01083" lon="6.04016">
        <ele>1455.5999755859</ele>
        <time>2021-03-21T13:39:52.000Z</time>
      </trkpt>
      <trkpt lat="45.01084" lon="6.04016">
        <ele>1455.5999755859</ele>
        <time>2021-03-21T13:39:53.000Z</time>
      </trkpt>
      <trkpt lat="45.01085" lon="6.04016">
        <ele>1455.8000488281</ele>
        <time>2021-03-21T13:39:54.000Z</time>
      </trkpt>
      <trkpt lat="45.01086" lon="6.04015">
        <ele>1456.1999511719</ele>
        <time>2021-03-21T13:39:55.000Z</time>
      </trkpt>
      <trkpt lat="45.01088" lon="6.04015">
        <ele>1457</ele>
        <time>2021-03-21T13:39:56.000Z</time>
      </trkpt>
      <trkpt lat="45.0109" lon="6.04014">
        <ele>1457.8000488281</ele>
        <time>2021-03-21T13:39:57.000Z</time>
      </trkpt>
      <trkpt lat="45.01093" lon="6.04012">
        <ele>1459.8000488281</ele>
        <time>2021-03-21T13:39:58.000Z</time>
      </trkpt>
      <trkpt lat="45.01094" lon="6.04011">
        <ele>1461</ele>
        <time>2021-03-21T13:39:59.000Z</time>
      </trkpt>
      <trkpt lat="45.01097" lon="6.04009">
        <ele>1465.4000244141</ele>
        <time>2021-03-21T13:40:00.000Z</time>
      </trkpt>
      <trkpt lat="45.01098" lon="6.04008">
        <ele>1468.1999511719</ele>
        <time>2021-03-21T13:40:01.000Z</time>
      </trkpt>
      <trkpt lat="45.01099" lon="6.04008">
        <ele>1469.5999755859</ele>
        <time>2021-03-21T13:40:02.000Z</time>
      </trkpt>
      <trkpt lat="45.01101" lon="6.04007">
        <ele>1472.4000244141</ele>
        <time>2021-03-21T13:40:03.000Z</time>
      </trkpt>
      <trkpt lat="45.01102" lon="6.04006">
        <ele>1473.8000488281</ele>
        <time>2021-03-21T13:40:04.000Z</time>
      </trkpt>
      <trkpt lat="45.01103" lon="6.04005">
        <ele>1475.5999755859</ele>
        <time>2021-03-21T13:40:05.000Z</time>
      </trkpt>
      <trkpt lat="45.01104" lon="6.04005">
        <ele>1478</ele>
        <time>2021-03-21T13:40:06.000Z</time>
      </trkpt>
      <trkpt lat="45.01105" lon="6.04004">
        <ele>1480</ele>
        <time>2021-03-21T13:40:07.000Z</time>
      </trkpt>
      <trkpt lat="45.01105" lon="6.04002">
        <ele>1482.8000488281</ele>
        <time>2021-03-21T13:40:08.000Z</time>
      </trkpt>
      <trkpt lat="45.01107" lon="6.04001">
        <ele>1485.8000488281</ele>
        <time>2021-03-21T13:40:09.000Z</time>
      </trkpt>
      <trkpt lat="45.01108" lon="6.04">
        <ele>1488.8000488281</ele>
        <time>2021-03-21T13:40:10.000Z</time>
      </trkpt>
      <trkpt lat="45.01109" lon="6.03999">
        <ele>1490.4000244141</ele>
        <time>2021-03-21T13:40:11.000Z</time>
      </trkpt>
      <trkpt lat="45.0111" lon="6.03998">
        <ele>1491</ele>
        <time>2021-03-21T13:40:12.000Z</time>
      </trkpt>
      <trkpt lat="45.01111" lon="6.03996">
        <ele>1491.5999755859</ele>
        <time>2021-03-21T13:40:13.000Z</time>
      </trkpt>
      <trkpt lat="45.01112" lon="6.03995">
        <ele>1491.8000488281</ele>
        <time>2021-03-21T13:40:14.000Z</time>
      </trkpt>
      <trkpt lat="45.01112" lon="6.03995">
        <ele>1492</ele>
        <time>2021-03-21T13:40:15.000Z</time>
      </trkpt>
      <trkpt lat="45.01113" lon="6.03994">
        <ele>1492.4000244141</ele>
        <time>2021-03-21T13:40:16.000Z</time>
      </trkpt>
      <trkpt lat="45.01114" lon="6.03993">
        <ele>1492.5999755859</ele>
        <time>2021-03-21T13:40:17.000Z</time>
      </trkpt>
      <trkpt lat="45.01115" lon="6.03991">
        <ele>1493</ele>
        <time>2021-03-21T13:40:18.000Z</time>
      </trkpt>
      <trkpt lat="45.01116" lon="6.03991">
        <ele>1493.1999511719</ele>
        <time>2021-03-21T13:40:19.000Z</time>
      </trkpt>
      <trkpt lat="45.01117" lon="6.0399">
        <ele>1493.4000244141</ele>
        <time>2021-03-21T13:40:20.000Z</time>
      </trkpt>
      <trkpt lat="45.01117" lon="6.0399">
        <ele>1493.1999511719</ele>
        <time>2021-03-21T13:40:21.000Z</time>
      </trkpt>
      <trkpt lat="45.01117" lon="6.0399">
        <ele>1493.1999511719</ele>
        <time>2021-03-21T13:40:22.000Z</time>
      </trkpt>
      <trkpt lat="45.01118" lon="6.03991">
        <ele>1493</ele>
        <time>2021-03-21T13:40:23.000Z</time>
      </trkpt>
      <trkpt lat="45.01119" lon="6.0399">
        <ele>1493</ele>
        <time>2021-03-21T13:40:24.000Z</time>
      </trkpt>
      <trkpt lat="45.01122" lon="6.03988">
        <ele>1493.4000244141</ele>
        <time>2021-03-21T13:40:25.000Z</time>
      </trkpt>
      <trkpt lat="45.01124" lon="6.03987">
        <ele>1494.8000488281</ele>
        <time>2021-03-21T13:40:26.000Z</time>
      </trkpt>
      <trkpt lat="45.01125" lon="6.03987">
        <ele>1494.1999511719</ele>
        <time>2021-03-21T13:40:27.000Z</time>
      </trkpt>
      <trkpt lat="45.01128" lon="6.03985">
        <ele>1497</ele>
        <time>2021-03-21T13:40:28.000Z</time>
      </trkpt>
      <trkpt lat="45.0113" lon="6.03983">
        <ele>1499.5999755859</ele>
        <time>2021-03-21T13:40:29.000Z</time>
      </trkpt>
      <trkpt lat="45.01131" lon="6.03983">
        <ele>1500.8000488281</ele>
        <time>2021-03-21T13:40:30.000Z</time>
      </trkpt>
      <trkpt lat="45.01131" lon="6.03982">
        <ele>1501.4000244141</ele>
        <time>2021-03-21T13:40:31.000Z</time>
      </trkpt>
      <trkpt lat="45.01133" lon="6.03982">
        <ele>1502.1999511719</ele>
        <time>2021-03-21T13:40:32.000Z</time>
      </trkpt>
      <trkpt lat="45.01132" lon="6.03983">
        <ele>1500.4000244141</ele>
        <time>2021-03-21T13:40:33.000Z</time>
      </trkpt>
      <trkpt lat="45.01132" lon="6.03983">
        <ele>1500.4000244141</ele>
        <time>2021-03-21T13:40:34.000Z</time>
      </trkpt>
      <trkpt lat="45.01132" lon="6.03983">
        <ele>1500.5999755859</ele>
        <time>2021-03-21T13:40:35.000Z</time>
      </trkpt>
      <trkpt lat="45.01133" lon="6.03983">
        <ele>1501.4000244141</ele>
        <time>2021-03-21T13:40:36.000Z</time>
      </trkpt>
      <trkpt lat="45.01134" lon="6.03982">
        <ele>1502</ele>
        <time>2021-03-21T13:40:37.000Z</time>
      </trkpt>
      <trkpt lat="45.01135" lon="6.03981">
        <ele>1503.8000488281</ele>
        <time>2021-03-21T13:40:38.000Z</time>
      </trkpt>
      <trkpt lat="45.01136" lon="6.03981">
        <ele>1504.1999511719</ele>
        <time>2021-03-21T13:40:39.000Z</time>
      </trkpt>
      <trkpt lat="45.01136" lon="6.0398">
        <ele>1505.5999755859</ele>
        <time>2021-03-21T13:40:40.000Z</time>
      </trkpt>
      <trkpt lat="45.01137" lon="6.03979">
        <ele>1507.4000244141</ele>
        <time>2021-03-21T13:40:41.000Z</time>
      </trkpt>
      <trkpt lat="45.01137" lon="6.03979">
        <ele>1507.8000488281</ele>
        <time>2021-03-21T13:40:42.000Z</time>
      </trkpt>
      <trkpt lat="45.01138" lon="6.03978">
        <ele>1508.8000488281</ele>
        <time>2021-03-21T13:40:43.000Z</time>
      </trkpt>
      <trkpt lat="45.01139" lon="6.03977">
        <ele>1510.4000244141</ele>
        <time>2021-03-21T13:40:44.000Z</time>
      </trkpt>
      <trkpt lat="45.0114" lon="6.03976">
        <ele>1512.5999755859</ele>
        <time>2021-03-21T13:40:45.000Z</time>
      </trkpt>
      <trkpt lat="45.0114" lon="6.03974">
        <ele>1514.4000244141</ele>
        <time>2021-03-21T13:40:46.000Z</time>
      </trkpt>
      <trkpt lat="45.01141" lon="6.03973">
        <ele>1516.1999511719</ele>
        <time>2021-03-21T13:40:47.000Z</time>
      </trkpt>
      <trkpt lat="45.01141" lon="6.03972">
        <ele>1517.1999511719</ele>
        <time>2021-03-21T13:40:48.000Z</time>
      </trkpt>
      <trkpt lat="45.01142" lon="6.03971">
        <ele>1519.4000244141</ele>
        <time>2021-03-21T13:40:49.000Z</time>
      </trkpt>
      <trkpt lat="45.01143" lon="6.0397">
        <ele>1521.4000244141</ele>
        <time>2021-03-21T13:40:50.000Z</time>
      </trkpt>
      <trkpt lat="45.01144" lon="6.03968">
        <ele>1523.4000244141</ele>
        <time>2021-03-21T13:40:51.000Z</time>
      </trkpt>
      <trkpt lat="45.01145" lon="6.03968">
        <ele>1524</ele>
        <time>2021-03-21T13:40:52.000Z</time>
      </trkpt>
      <trkpt lat="45.01146" lon="6.03967">
        <ele>1525.4000244141</ele>
        <time>2021-03-21T13:40:53.000Z</time>
      </trkpt>
      <trkpt lat="45.01147" lon="6.03966">
        <ele>1526.8000488281</ele>
        <time>2021-03-21T13:40:54.000Z</time>
      </trkpt>
      <trkpt lat="45.01148" lon="6.03965">
        <ele>1528</ele>
        <time>2021-03-21T13:40:55.000Z</time>
      </trkpt>
      <trkpt lat="45.01148" lon="6.03965">
        <ele>1529</ele>
        <time>2021-03-21T13:40:56.000Z</time>
      </trkpt>
      <trkpt lat="45.01148" lon="6.03965">
        <ele>1528.5999755859</ele>
        <time>2021-03-21T13:40:57.000Z</time>
      </trkpt>
      <trkpt lat="45.01146" lon="6.03966">
        <ele>1526.8000488281</ele>
        <time>2021-03-21T13:40:58.000Z</time>
      </trkpt>
      <trkpt lat="45.01146" lon="6.03966">
        <ele>1527.1999511719</ele>
        <time>2021-03-21T13:40:59.000Z</time>
      </trkpt>
      <trkpt lat="45.01146" lon="6.03966">
        <ele>1527.1999511719</ele>
        <time>2021-03-21T13:41:00.000Z</time>
      </trkpt>
      <trkpt lat="45.01147" lon="6.03965">
        <ele>1528.1999511719</ele>
        <time>2021-03-21T13:41:01.000Z</time>
      </trkpt>
      <trkpt lat="45.01149" lon="6.03964">
        <ele>1529.8000488281</ele>
        <time>2021-03-21T13:41:02.000Z</time>
      </trkpt>
      <trkpt lat="45.01151" lon="6.03963">
        <ele>1531.4000244141</ele>
        <time>2021-03-21T13:41:03.000Z</time>
      </trkpt>
      <trkpt lat="45.01152" lon="6.03963">
        <ele>1532</ele>
        <time>2021-03-21T13:41:04.000Z</time>
      </trkpt>
      <trkpt lat="45.01153" lon="6.03962">
        <ele>1533.1999511719</ele>
        <time>2021-03-21T13:41:05.000Z</time>
      </trkpt>
      <trkpt lat="45.01154" lon="6.03962">
        <ele>1533.5999755859</ele>
        <time>2021-03-21T13:41:06.000Z</time>
      </trkpt>
      <trkpt lat="45.01154" lon="6.03963">
        <ele>1533.1999511719</ele>
        <time>2021-03-21T13:41:07.000Z</time>
      </trkpt>
      <trkpt lat="45.01155" lon="6.03963">
        <ele>1533.4000244141</ele>
        <time>2021-03-21T13:41:08.000Z</time>
      </trkpt>
      <trkpt lat="45.01155" lon="6.03963">
        <ele>1533.8000488281</ele>
        <time>2021-03-21T13:41:09.000Z</time>
      </trkpt>
      <trkpt lat="45.01156" lon="6.03962">
        <ele>1534.1999511719</ele>
        <time>2021-03-21T13:41:10.000Z</time>
      </trkpt>
      <trkpt lat="45.01157" lon="6.03962">
        <ele>1534.5999755859</ele>
        <time>2021-03-21T13:41:11.000Z</time>
      </trkpt>
      <trkpt lat="45.01159" lon="6.03962">
        <ele>1535.1999511719</ele>
        <time>2021-03-21T13:41:12.000Z</time>
      </trkpt>
      <trkpt lat="45.0116" lon="6.03961">
        <ele>1535.4000244141</ele>
        <time>2021-03-21T13:41:13.000Z</time>
      </trkpt>
      <trkpt lat="45.0116" lon="6.03961">
        <ele>1535.4000244141</ele>
        <time>2021-03-21T13:41:14.000Z</time>
      </trkpt>
      <trkpt lat="45.01161" lon="6.03962">
        <ele>1535</ele>
        <time>2021-03-21T13:41:15.000Z</time>
      </trkpt>
      <trkpt lat="45.01161" lon="6.03962">
        <ele>1535.1999511719</ele>
        <time>2021-03-21T13:41:16.000Z</time>
      </trkpt>
      <trkpt lat="45.01161" lon="6.03961">
        <ele>1535.5999755859</ele>
        <time>2021-03-21T13:41:17.000Z</time>
      </trkpt>
      <trkpt lat="45.01162" lon="6.03961">
        <ele>1535.5999755859</ele>
        <time>2021-03-21T13:41:18.000Z</time>
      </trkpt>
      <trkpt lat="45.01163" lon="6.0396">
        <ele>1536.8000488281</ele>
        <time>2021-03-21T13:41:19.000Z</time>
      </trkpt>
      <trkpt lat="45.01163" lon="6.0396">
        <ele>1536.8000488281</ele>
        <time>2021-03-21T13:41:20.000Z</time>
      </trkpt>
      <trkpt lat="45.01164" lon="6.0396">
        <ele>1537.1999511719</ele>
        <time>2021-03-21T13:41:21.000Z</time>
      </trkpt>
      <trkpt lat="45.01164" lon="6.0396">
        <ele>1537.1999511719</ele>
        <time>2021-03-21T13:41:22.000Z</time>
      </trkpt>
      <trkpt lat="45.01164" lon="6.03959">
        <ele>1537.5999755859</ele>
        <time>2021-03-21T13:41:23.000Z</time>
      </trkpt>
      <trkpt lat="45.01164" lon="6.03958">
        <ele>1538.5999755859</ele>
        <time>2021-03-21T13:41:24.000Z</time>
      </trkpt>
      <trkpt lat="45.01164" lon="6.03957">
        <ele>1539.1999511719</ele>
        <time>2021-03-21T13:41:25.000Z</time>
      </trkpt>
      <trkpt lat="45.01164" lon="6.03958">
        <ele>1539</ele>
        <time>2021-03-21T13:41:26.000Z</time>
      </trkpt>
      <trkpt lat="45.01165" lon="6.03957">
        <ele>1539.1999511719</ele>
        <time>2021-03-21T13:41:27.000Z</time>
      </trkpt>
      <trkpt lat="45.01166" lon="6.03957">
        <ele>1539.4000244141</ele>
        <time>2021-03-21T13:41:28.000Z</time>
      </trkpt>
      <trkpt lat="45.01166" lon="6.03957">
        <ele>1539.8000488281</ele>
        <time>2021-03-21T13:41:29.000Z</time>
      </trkpt>
      <trkpt lat="45.01166" lon="6.03956">
        <ele>1540.4000244141</ele>
        <time>2021-03-21T13:41:30.000Z</time>
      </trkpt>
      <trkpt lat="45.01166" lon="6.03956">
        <ele>1540.8000488281</ele>
        <time>2021-03-21T13:41:31.000Z</time>
      </trkpt>
      <trkpt lat="45.01166" lon="6.03956">
        <ele>1540.5999755859</ele>
        <time>2021-03-21T13:41:32.000Z</time>
      </trkpt>
      <trkpt lat="45.01169" lon="6.03955">
        <ele>1541.5999755859</ele>
        <time>2021-03-21T13:41:33.000Z</time>
      </trkpt>
      <trkpt lat="45.01169" lon="6.03955">
        <ele>1541.5999755859</ele>
        <time>2021-03-21T13:41:34.000Z</time>
      </trkpt>
      <trkpt lat="45.01169" lon="6.03955">
        <ele>1541.8000488281</ele>
        <time>2021-03-21T13:41:35.000Z</time>
      </trkpt>
      <trkpt lat="45.01169" lon="6.03955">
        <ele>1541.1999511719</ele>
        <time>2021-03-21T13:41:36.000Z</time>
      </trkpt>
      <trkpt lat="45.0117" lon="6.03955">
        <ele>1541.1999511719</ele>
        <time>2021-03-21T13:41:37.000Z</time>
      </trkpt>
      <trkpt lat="45.01171" lon="6.03955">
        <ele>1541.4000244141</ele>
        <time>2021-03-21T13:41:38.000Z</time>
      </trkpt>
      <trkpt lat="45.01171" lon="6.03955">
        <ele>1541.5999755859</ele>
        <time>2021-03-21T13:41:39.000Z</time>
      </trkpt>
      <trkpt lat="45.01172" lon="6.03955">
        <ele>1541.8000488281</ele>
        <time>2021-03-21T13:41:40.000Z</time>
      </trkpt>
      <trkpt lat="45.01173" lon="6.03954">
        <ele>1542</ele>
        <time>2021-03-21T13:41:41.000Z</time>
      </trkpt>
      <trkpt lat="45.01174" lon="6.03954">
        <ele>1542.5999755859</ele>
        <time>2021-03-21T13:41:42.000Z</time>
      </trkpt>
      <trkpt lat="45.01175" lon="6.03953">
        <ele>1543.5999755859</ele>
        <time>2021-03-21T13:41:43.000Z</time>
      </trkpt>
      <trkpt lat="45.01176" lon="6.03952">
        <ele>1544.5999755859</ele>
        <time>2021-03-21T13:41:44.000Z</time>
      </trkpt>
      <trkpt lat="45.01176" lon="6.03952">
        <ele>1545</ele>
        <time>2021-03-21T13:41:45.000Z</time>
      </trkpt>
      <trkpt lat="45.01177" lon="6.03951">
        <ele>1545.4000244141</ele>
        <time>2021-03-21T13:41:46.000Z</time>
      </trkpt>
      <trkpt lat="45.01177" lon="6.03951">
        <ele>1545.5999755859</ele>
        <time>2021-03-21T13:41:47.000Z</time>
      </trkpt>
      <trkpt lat="45.01177" lon="6.03951">
        <ele>1545.8000488281</ele>
        <time>2021-03-21T13:41:48.000Z</time>
      </trkpt>
      <trkpt lat="45.01178" lon="6.03951">
        <ele>1545.8000488281</ele>
        <time>2021-03-21T13:41:49.000Z</time>
      </trkpt>
      <trkpt lat="45.01178" lon="6.03951">
        <ele>1546.4000244141</ele>
        <time>2021-03-21T13:41:50.000Z</time>
      </trkpt>
      <trkpt lat="45.01178" lon="6.03951">
        <ele>1545.8000488281</ele>
        <time>2021-03-21T13:41:51.000Z</time>
      </trkpt>
      <trkpt lat="45.01179" lon="6.03951">
        <ele>1546</ele>
        <time>2021-03-21T13:41:52.000Z</time>
      </trkpt>
      <trkpt lat="45.01179" lon="6.03953">
        <ele>1544.5999755859</ele>
        <time>2021-03-21T13:41:53.000Z</time>
      </trkpt>
      <trkpt lat="45.01179" lon="6.03953">
        <ele>1544</ele>
        <time>2021-03-21T13:41:54.000Z</time>
      </trkpt>
      <trkpt lat="45.0118" lon="6.03954">
        <ele>1543.5999755859</ele>
        <time>2021-03-21T13:41:55.000Z</time>
      </trkpt>
      <trkpt lat="45.01181" lon="6.03953">
        <ele>1544.5999755859</ele>
        <time>2021-03-21T13:41:56.000Z</time>
      </trkpt>
      <trkpt lat="45.01181" lon="6.03953">
        <ele>1544.8000488281</ele>
        <time>2021-03-21T13:41:57.000Z</time>
      </trkpt>
      <trkpt lat="45.01182" lon="6.03953">
        <ele>1545</ele>
        <time>2021-03-21T13:41:58.000Z</time>
      </trkpt>
      <trkpt lat="45.01183" lon="6.03953">
        <ele>1545.4000244141</ele>
        <time>2021-03-21T13:41:59.000Z</time>
      </trkpt>
      <trkpt lat="45.01185" lon="6.03952">
        <ele>1546.4000244141</ele>
        <time>2021-03-21T13:42:00.000Z</time>
      </trkpt>
      <trkpt lat="45.01186" lon="6.03952">
        <ele>1546.4000244141</ele>
        <time>2021-03-21T13:42:01.000Z</time>
      </trkpt>
      <trkpt lat="45.01188" lon="6.03951">
        <ele>1547</ele>
        <time>2021-03-21T13:42:02.000Z</time>
      </trkpt>
      <trkpt lat="45.01189" lon="6.03951">
        <ele>1547.4000244141</ele>
        <time>2021-03-21T13:42:03.000Z</time>
      </trkpt>
      <trkpt lat="45.0119" lon="6.03951">
        <ele>1547.8000488281</ele>
        <time>2021-03-21T13:42:04.000Z</time>
      </trkpt>
      <trkpt lat="45.01191" lon="6.03951">
        <ele>1548.1999511719</ele>
        <time>2021-03-21T13:42:05.000Z</time>
      </trkpt>
      <trkpt lat="45.01192" lon="6.0395">
        <ele>1549</ele>
        <time>2021-03-21T13:42:06.000Z</time>
      </trkpt>
      <trkpt lat="45.01193" lon="6.03951">
        <ele>1548.5999755859</ele>
        <time>2021-03-21T13:42:07.000Z</time>
      </trkpt>
      <trkpt lat="45.01193" lon="6.0395">
        <ele>1549</ele>
        <time>2021-03-21T13:42:08.000Z</time>
      </trkpt>
      <trkpt lat="45.01193" lon="6.03951">
        <ele>1548.1999511719</ele>
        <time>2021-03-21T13:42:09.000Z</time>
      </trkpt>
      <trkpt lat="45.01193" lon="6.03952">
        <ele>1547.5999755859</ele>
        <time>2021-03-21T13:42:10.000Z</time>
      </trkpt>
      <trkpt lat="45.01194" lon="6.03951">
        <ele>1548.4000244141</ele>
        <time>2021-03-21T13:42:11.000Z</time>
      </trkpt>
      <trkpt lat="45.01193" lon="6.03951">
        <ele>1548</ele>
        <time>2021-03-21T13:42:12.000Z</time>
      </trkpt>
      <trkpt lat="45.01193" lon="6.03951">
        <ele>1548.1999511719</ele>
        <time>2021-03-21T13:42:13.000Z</time>
      </trkpt>
      <trkpt lat="45.01194" lon="6.0395">
        <ele>1549.1999511719</ele>
        <time>2021-03-21T13:42:14.000Z</time>
      </trkpt>
      <trkpt lat="45.01195" lon="6.03949">
        <ele>1550.1999511719</ele>
        <time>2021-03-21T13:42:15.000Z</time>
      </trkpt>
      <trkpt lat="45.01196" lon="6.03949">
        <ele>1550.8000488281</ele>
        <time>2021-03-21T13:42:16.000Z</time>
      </trkpt>
      <trkpt lat="45.01196" lon="6.03949">
        <ele>1550.8000488281</ele>
        <time>2021-03-21T13:42:17.000Z</time>
      </trkpt>
      <trkpt lat="45.01196" lon="6.03949">
        <ele>1550.8000488281</ele>
        <time>2021-03-21T13:42:18.000Z</time>
      </trkpt>
      <trkpt lat="45.01196" lon="6.03949">
        <ele>1550.8000488281</ele>
        <time>2021-03-21T13:42:19.000Z</time>
      </trkpt>
      <trkpt lat="45.01196" lon="6.03949">
        <ele>1550.8000488281</ele>
        <time>2021-03-21T13:42:20.000Z</time>
      </trkpt>
      <trkpt lat="45.01196" lon="6.03949">
        <ele>1550.5999755859</ele>
        <time>2021-03-21T13:42:21.000Z</time>
      </trkpt>
      <trkpt lat="45.01196" lon="6.0395">
        <ele>1550</ele>
        <time>2021-03-21T13:42:22.000Z</time>
      </trkpt>
      <trkpt lat="45.01196" lon="6.0395">
        <ele>1549.8000488281</ele>
        <time>2021-03-21T13:42:23.000Z</time>
      </trkpt>
      <trkpt lat="45.01196" lon="6.0395">
        <ele>1550</ele>
        <time>2021-03-21T13:42:24.000Z</time>
      </trkpt>
      <trkpt lat="45.01196" lon="6.0395">
        <ele>1550</ele>
        <time>2021-03-21T13:42:25.000Z</time>
      </trkpt>
      <trkpt lat="45.0119" lon="6.03954">
        <ele>1544.8000488281</ele>
        <time>2021-03-21T13:42:26.000Z</time>
      </trkpt>
      <trkpt lat="45.01184" lon="6.03959">
        <ele>1539</ele>
        <time>2021-03-21T13:42:27.000Z</time>
      </trkpt>
      <trkpt lat="45.0118" lon="6.03961">
        <ele>1536</ele>
        <time>2021-03-21T13:42:28.000Z</time>
      </trkpt>
      <trkpt lat="45.01164" lon="6.03973">
        <ele>1523.8000488281</ele>
        <time>2021-03-21T13:42:29.000Z</time>
      </trkpt>
      <trkpt lat="45.01163" lon="6.03973">
        <ele>1522.5999755859</ele>
        <time>2021-03-21T13:42:30.000Z</time>
      </trkpt>
      <trkpt lat="45.0116" lon="6.03975">
        <ele>1519.5999755859</ele>
        <time>2021-03-21T13:42:31.000Z</time>
      </trkpt>
      <trkpt lat="45.0116" lon="6.03976">
        <ele>1518.1999511719</ele>
        <time>2021-03-21T13:42:32.000Z</time>
      </trkpt>
      <trkpt lat="45.01157" lon="6.03979">
        <ele>1514.1999511719</ele>
        <time>2021-03-21T13:42:33.000Z</time>
      </trkpt>
      <trkpt lat="45.01156" lon="6.0398">
        <ele>1511.8000488281</ele>
        <time>2021-03-21T13:42:34.000Z</time>
      </trkpt>
      <trkpt lat="45.01154" lon="6.03982">
        <ele>1509.4000244141</ele>
        <time>2021-03-21T13:42:35.000Z</time>
      </trkpt>
      <trkpt lat="45.01153" lon="6.03982">
        <ele>1508.5999755859</ele>
        <time>2021-03-21T13:42:36.000Z</time>
      </trkpt>
      <trkpt lat="45.01153" lon="6.03982">
        <ele>1508.5999755859</ele>
        <time>2021-03-21T13:42:37.000Z</time>
      </trkpt>
      <trkpt lat="45.01153" lon="6.03982">
        <ele>1508.5999755859</ele>
        <time>2021-03-21T13:42:38.000Z</time>
      </trkpt>
      <trkpt lat="45.01153" lon="6.03982">
        <ele>1509</ele>
        <time>2021-03-21T13:42:39.000Z</time>
      </trkpt>
      <trkpt lat="45.01153" lon="6.03982">
        <ele>1508.5999755859</ele>
        <time>2021-03-21T13:42:40.000Z</time>
      </trkpt>
      <trkpt lat="45.01152" lon="6.03982">
        <ele>1508.4000244141</ele>
        <time>2021-03-21T13:42:41.000Z</time>
      </trkpt>
      <trkpt lat="45.01152" lon="6.03981">
        <ele>1509.1999511719</ele>
        <time>2021-03-21T13:42:42.000Z</time>
      </trkpt>
      <trkpt lat="45.01153" lon="6.03981">
        <ele>1510.1999511719</ele>
        <time>2021-03-21T13:42:43.000Z</time>
      </trkpt>
      <trkpt lat="45.01152" lon="6.03979">
        <ele>1511.8000488281</ele>
        <time>2021-03-21T13:42:44.000Z</time>
      </trkpt>
      <trkpt lat="45.01152" lon="6.03979">
        <ele>1512.8000488281</ele>
        <time>2021-03-21T13:42:45.000Z</time>
      </trkpt>
      <trkpt lat="45.01152" lon="6.03978">
        <ele>1513.8000488281</ele>
        <time>2021-03-21T13:42:46.000Z</time>
      </trkpt>
      <trkpt lat="45.01153" lon="6.03977">
        <ele>1514.5999755859</ele>
        <time>2021-03-21T13:42:47.000Z</time>
      </trkpt>
      <trkpt lat="45.01153" lon="6.03977">
        <ele>1515.1999511719</ele>
        <time>2021-03-21T13:42:48.000Z</time>
      </trkpt>
      <trkpt lat="45.01153" lon="6.03977">
        <ele>1514.8000488281</ele>
        <time>2021-03-21T13:42:49.000Z</time>
      </trkpt>
      <trkpt lat="45.01154" lon="6.03977">
        <ele>1515</ele>
        <time>2021-03-21T13:42:50.000Z</time>
      </trkpt>
      <trkpt lat="45.01154" lon="6.03978">
        <ele>1514.1999511719</ele>
        <time>2021-03-21T13:42:51.000Z</time>
      </trkpt>
      <trkpt lat="45.01155" lon="6.03978">
        <ele>1514.1999511719</ele>
        <time>2021-03-21T13:42:52.000Z</time>
      </trkpt>
      <trkpt lat="45.01155" lon="6.03978">
        <ele>1514</ele>
        <time>2021-03-21T13:42:53.000Z</time>
      </trkpt>
      <trkpt lat="45.01156" lon="6.03979">
        <ele>1513.8000488281</ele>
        <time>2021-03-21T13:42:54.000Z</time>
      </trkpt>
      <trkpt lat="45.01158" lon="6.03979">
        <ele>1514.4000244141</ele>
        <time>2021-03-21T13:42:55.000Z</time>
      </trkpt>
      <trkpt lat="45.01159" lon="6.03979">
        <ele>1514.1999511719</ele>
        <time>2021-03-21T13:42:56.000Z</time>
      </trkpt>
      <trkpt lat="45.0116" lon="6.03979">
        <ele>1514.4000244141</ele>
        <time>2021-03-21T13:42:57.000Z</time>
      </trkpt>
      <trkpt lat="45.01161" lon="6.0398">
        <ele>1514.1999511719</ele>
        <time>2021-03-21T13:42:58.000Z</time>
      </trkpt>
      <trkpt lat="45.01162" lon="6.03979">
        <ele>1514.5999755859</ele>
        <time>2021-03-21T13:42:59.000Z</time>
      </trkpt>
      <trkpt lat="45.01162" lon="6.03979">
        <ele>1515</ele>
        <time>2021-03-21T13:43:00.000Z</time>
      </trkpt>
      <trkpt lat="45.01163" lon="6.03979">
        <ele>1515.1999511719</ele>
        <time>2021-03-21T13:43:01.000Z</time>
      </trkpt>
      <trkpt lat="45.01165" lon="6.0398">
        <ele>1515.4000244141</ele>
        <time>2021-03-21T13:43:02.000Z</time>
      </trkpt>
      <trkpt lat="45.01166" lon="6.0398">
        <ele>1515.1999511719</ele>
        <time>2021-03-21T13:43:03.000Z</time>
      </trkpt>
      <trkpt lat="45.01167" lon="6.0398">
        <ele>1515.4000244141</ele>
        <time>2021-03-21T13:43:04.000Z</time>
      </trkpt>
      <trkpt lat="45.01168" lon="6.0398">
        <ele>1515.8000488281</ele>
        <time>2021-03-21T13:43:05.000Z</time>
      </trkpt>
      <trkpt lat="45.01169" lon="6.0398">
        <ele>1516.4000244141</ele>
        <time>2021-03-21T13:43:06.000Z</time>
      </trkpt>
      <trkpt lat="45.01169" lon="6.0398">
        <ele>1516.5999755859</ele>
        <time>2021-03-21T13:43:07.000Z</time>
      </trkpt>
      <trkpt lat="45.01172" lon="6.03979">
        <ele>1519</ele>
        <time>2021-03-21T13:43:08.000Z</time>
      </trkpt>
      <trkpt lat="45.01174" lon="6.03978">
        <ele>1519.8000488281</ele>
        <time>2021-03-21T13:43:09.000Z</time>
      </trkpt>
      <trkpt lat="45.01175" lon="6.03978">
        <ele>1520.1999511719</ele>
        <time>2021-03-21T13:43:10.000Z</time>
      </trkpt>
      <trkpt lat="45.01176" lon="6.03978">
        <ele>1520</ele>
        <time>2021-03-21T13:43:11.000Z</time>
      </trkpt>
      <trkpt lat="45.01178" lon="6.03977">
        <ele>1520.5999755859</ele>
        <time>2021-03-21T13:43:12.000Z</time>
      </trkpt>
      <trkpt lat="45.0118" lon="6.03977">
        <ele>1520.8000488281</ele>
        <time>2021-03-21T13:43:13.000Z</time>
      </trkpt>
      <trkpt lat="45.01181" lon="6.03977">
        <ele>1520.5999755859</ele>
        <time>2021-03-21T13:43:14.000Z</time>
      </trkpt>
      <trkpt lat="45.01182" lon="6.03978">
        <ele>1520.4000244141</ele>
        <time>2021-03-21T13:43:15.000Z</time>
      </trkpt>
      <trkpt lat="45.01184" lon="6.03978">
        <ele>1519.8000488281</ele>
        <time>2021-03-21T13:43:16.000Z</time>
      </trkpt>
      <trkpt lat="45.01185" lon="6.03979">
        <ele>1519.5999755859</ele>
        <time>2021-03-21T13:43:17.000Z</time>
      </trkpt>
      <trkpt lat="45.01186" lon="6.03979">
        <ele>1519.4000244141</ele>
        <time>2021-03-21T13:43:18.000Z</time>
      </trkpt>
      <trkpt lat="45.01187" lon="6.0398">
        <ele>1518.4000244141</ele>
        <time>2021-03-21T13:43:19.000Z</time>
      </trkpt>
      <trkpt lat="45.01187" lon="6.03982">
        <ele>1516.5999755859</ele>
        <time>2021-03-21T13:43:20.000Z</time>
      </trkpt>
      <trkpt lat="45.01188" lon="6.03983">
        <ele>1516.1999511719</ele>
        <time>2021-03-21T13:43:21.000Z</time>
      </trkpt>
      <trkpt lat="45.01189" lon="6.03983">
        <ele>1515.5999755859</ele>
        <time>2021-03-21T13:43:22.000Z</time>
      </trkpt>
      <trkpt lat="45.0119" lon="6.03984">
        <ele>1515</ele>
        <time>2021-03-21T13:43:23.000Z</time>
      </trkpt>
      <trkpt lat="45.01191" lon="6.03985">
        <ele>1514.5999755859</ele>
        <time>2021-03-21T13:43:24.000Z</time>
      </trkpt>
      <trkpt lat="45.01192" lon="6.03986">
        <ele>1513.8000488281</ele>
        <time>2021-03-21T13:43:25.000Z</time>
      </trkpt>
      <trkpt lat="45.01192" lon="6.03986">
        <ele>1513</ele>
        <time>2021-03-21T13:43:26.000Z</time>
      </trkpt>
      <trkpt lat="45.01193" lon="6.03987">
        <ele>1512.4000244141</ele>
        <time>2021-03-21T13:43:27.000Z</time>
      </trkpt>
      <trkpt lat="45.01193" lon="6.03988">
        <ele>1511.8000488281</ele>
        <time>2021-03-21T13:43:28.000Z</time>
      </trkpt>
      <trkpt lat="45.01194" lon="6.03988">
        <ele>1511.5999755859</ele>
        <time>2021-03-21T13:43:29.000Z</time>
      </trkpt>
      <trkpt lat="45.01194" lon="6.03989">
        <ele>1510.5999755859</ele>
        <time>2021-03-21T13:43:30.000Z</time>
      </trkpt>
      <trkpt lat="45.01194" lon="6.03991">
        <ele>1509.1999511719</ele>
        <time>2021-03-21T13:43:31.000Z</time>
      </trkpt>
      <trkpt lat="45.01195" lon="6.03992">
        <ele>1508</ele>
        <time>2021-03-21T13:43:32.000Z</time>
      </trkpt>
      <trkpt lat="45.01195" lon="6.03994">
        <ele>1507</ele>
        <time>2021-03-21T13:43:33.000Z</time>
      </trkpt>
      <trkpt lat="45.01196" lon="6.03994">
        <ele>1506.4000244141</ele>
        <time>2021-03-21T13:43:34.000Z</time>
      </trkpt>
      <trkpt lat="45.01196" lon="6.03995">
        <ele>1506</ele>
        <time>2021-03-21T13:43:35.000Z</time>
      </trkpt>
      <trkpt lat="45.01197" lon="6.03996">
        <ele>1505.5999755859</ele>
        <time>2021-03-21T13:43:36.000Z</time>
      </trkpt>
      <trkpt lat="45.01198" lon="6.03997">
        <ele>1504.8000488281</ele>
        <time>2021-03-21T13:43:37.000Z</time>
      </trkpt>
      <trkpt lat="45.01199" lon="6.03997">
        <ele>1504.1999511719</ele>
        <time>2021-03-21T13:43:38.000Z</time>
      </trkpt>
      <trkpt lat="45.01199" lon="6.03998">
        <ele>1503.8000488281</ele>
        <time>2021-03-21T13:43:39.000Z</time>
      </trkpt>
      <trkpt lat="45.012" lon="6.03999">
        <ele>1503</ele>
        <time>2021-03-21T13:43:40.000Z</time>
      </trkpt>
      <trkpt lat="45.01201" lon="6.04">
        <ele>1502.4000244141</ele>
        <time>2021-03-21T13:43:41.000Z</time>
      </trkpt>
      <trkpt lat="45.01202" lon="6.04">
        <ele>1502</ele>
        <time>2021-03-21T13:43:42.000Z</time>
      </trkpt>
      <trkpt lat="45.01202" lon="6.04001">
        <ele>1501.5999755859</ele>
        <time>2021-03-21T13:43:43.000Z</time>
      </trkpt>
      <trkpt lat="45.01203" lon="6.04001">
        <ele>1501.5999755859</ele>
        <time>2021-03-21T13:43:44.000Z</time>
      </trkpt>
      <trkpt lat="45.01204" lon="6.04002">
        <ele>1501</ele>
        <time>2021-03-21T13:43:45.000Z</time>
      </trkpt>
      <trkpt lat="45.01204" lon="6.04002">
        <ele>1500.8000488281</ele>
        <time>2021-03-21T13:43:46.000Z</time>
      </trkpt>
      <trkpt lat="45.01205" lon="6.04003">
        <ele>1500.4000244141</ele>
        <time>2021-03-21T13:43:47.000Z</time>
      </trkpt>
      <trkpt lat="45.01205" lon="6.04003">
        <ele>1500</ele>
        <time>2021-03-21T13:43:48.000Z</time>
      </trkpt>
      <trkpt lat="45.01205" lon="6.04004">
        <ele>1499.4000244141</ele>
        <time>2021-03-21T13:43:49.000Z</time>
      </trkpt>
      <trkpt lat="45.01205" lon="6.04004">
        <ele>1499</ele>
        <time>2021-03-21T13:43:50.000Z</time>
      </trkpt>
      <trkpt lat="45.01204" lon="6.04004">
        <ele>1498.8000488281</ele>
        <time>2021-03-21T13:43:51.000Z</time>
      </trkpt>
      <trkpt lat="45.01204" lon="6.04005">
        <ele>1498.4000244141</ele>
        <time>2021-03-21T13:43:52.000Z</time>
      </trkpt>
      <trkpt lat="45.01204" lon="6.04005">
        <ele>1498</ele>
        <time>2021-03-21T13:43:53.000Z</time>
      </trkpt>
      <trkpt lat="45.01204" lon="6.04005">
        <ele>1498</ele>
        <time>2021-03-21T13:43:54.000Z</time>
      </trkpt>
      <trkpt lat="45.01204" lon="6.04005">
        <ele>1498.1999511719</ele>
        <time>2021-03-21T13:43:55.000Z</time>
      </trkpt>
      <trkpt lat="45.01204" lon="6.04005">
        <ele>1498</ele>
        <time>2021-03-21T13:43:56.000Z</time>
      </trkpt>
      <trkpt lat="45.01204" lon="6.04005">
        <ele>1498</ele>
        <time>2021-03-21T13:43:57.000Z</time>
      </trkpt>
      <trkpt lat="45.01205" lon="6.04005">
        <ele>1498.4000244141</ele>
        <time>2021-03-21T13:43:58.000Z</time>
      </trkpt>
      <trkpt lat="45.01205" lon="6.04005">
        <ele>1498.5999755859</ele>
        <time>2021-03-21T13:43:59.000Z</time>
      </trkpt>
      <trkpt lat="45.01206" lon="6.04005">
        <ele>1498.5999755859</ele>
        <time>2021-03-21T13:44:00.000Z</time>
      </trkpt>
      <trkpt lat="45.01206" lon="6.04005">
        <ele>1498.4000244141</ele>
        <time>2021-03-21T13:44:01.000Z</time>
      </trkpt>
      <trkpt lat="45.01206" lon="6.04005">
        <ele>1498</ele>
        <time>2021-03-21T13:44:02.000Z</time>
      </trkpt>
      <trkpt lat="45.01206" lon="6.04006">
        <ele>1497.8000488281</ele>
        <time>2021-03-21T13:44:03.000Z</time>
      </trkpt>
      <trkpt lat="45.01205" lon="6.04006">
        <ele>1497.1999511719</ele>
        <time>2021-03-21T13:44:04.000Z</time>
      </trkpt>
      <trkpt lat="45.01206" lon="6.04006">
        <ele>1497.5999755859</ele>
        <time>2021-03-21T13:44:05.000Z</time>
      </trkpt>
      <trkpt lat="45.01206" lon="6.04006">
        <ele>1497.8000488281</ele>
        <time>2021-03-21T13:44:06.000Z</time>
      </trkpt>
      <trkpt lat="45.01206" lon="6.04005">
        <ele>1498</ele>
        <time>2021-03-21T13:44:07.000Z</time>
      </trkpt>
      <trkpt lat="45.01206" lon="6.04005">
        <ele>1498.4000244141</ele>
        <time>2021-03-21T13:44:08.000Z</time>
      </trkpt>
      <trkpt lat="45.01206" lon="6.04004">
        <ele>1499</ele>
        <time>2021-03-21T13:44:09.000Z</time>
      </trkpt>
      <trkpt lat="45.01206" lon="6.04004">
        <ele>1499.4000244141</ele>
        <time>2021-03-21T13:44:10.000Z</time>
      </trkpt>
      <trkpt lat="45.01206" lon="6.04004">
        <ele>1499.5999755859</ele>
        <time>2021-03-21T13:44:11.000Z</time>
      </trkpt>
      <trkpt lat="45.01207" lon="6.04004">
        <ele>1499.8000488281</ele>
        <time>2021-03-21T13:44:12.000Z</time>
      </trkpt>
      <trkpt lat="45.01207" lon="6.04003">
        <ele>1499.8000488281</ele>
        <time>2021-03-21T13:44:13.000Z</time>
      </trkpt>
      <trkpt lat="45.01207" lon="6.04003">
        <ele>1499.8000488281</ele>
        <time>2021-03-21T13:44:14.000Z</time>
      </trkpt>
      <trkpt lat="45.01208" lon="6.04004">
        <ele>1499.5999755859</ele>
        <time>2021-03-21T13:44:15.000Z</time>
      </trkpt>
      <trkpt lat="45.01208" lon="6.04004">
        <ele>1499.1999511719</ele>
        <time>2021-03-21T13:44:16.000Z</time>
      </trkpt>
      <trkpt lat="45.01208" lon="6.04004">
        <ele>1499</ele>
        <time>2021-03-21T13:44:17.000Z</time>
      </trkpt>
      <trkpt lat="45.01208" lon="6.04005">
        <ele>1499</ele>
        <time>2021-03-21T13:44:18.000Z</time>
      </trkpt>
      <trkpt lat="45.01208" lon="6.04005">
        <ele>1498.8000488281</ele>
        <time>2021-03-21T13:44:19.000Z</time>
      </trkpt>
      <trkpt lat="45.01207" lon="6.04005">
        <ele>1498.4000244141</ele>
        <time>2021-03-21T13:44:20.000Z</time>
      </trkpt>
      <trkpt lat="45.01207" lon="6.04006">
        <ele>1498</ele>
        <time>2021-03-21T13:44:21.000Z</time>
      </trkpt>
      <trkpt lat="45.01207" lon="6.04006">
        <ele>1497.8000488281</ele>
        <time>2021-03-21T13:44:22.000Z</time>
      </trkpt>
      <trkpt lat="45.01207" lon="6.04006">
        <ele>1497.1999511719</ele>
        <time>2021-03-21T13:44:23.000Z</time>
      </trkpt>
      <trkpt lat="45.01206" lon="6.04007">
        <ele>1497</ele>
        <time>2021-03-21T13:44:24.000Z</time>
      </trkpt>
      <trkpt lat="45.01206" lon="6.04007">
        <ele>1496.5999755859</ele>
        <time>2021-03-21T13:44:25.000Z</time>
      </trkpt>
      <trkpt lat="45.01206" lon="6.04007">
        <ele>1496.4000244141</ele>
        <time>2021-03-21T13:44:26.000Z</time>
      </trkpt>
      <trkpt lat="45.01205" lon="6.04008">
        <ele>1496.1999511719</ele>
        <time>2021-03-21T13:44:27.000Z</time>
      </trkpt>
      <trkpt lat="45.01205" lon="6.04008">
        <ele>1495.8000488281</ele>
        <time>2021-03-21T13:44:28.000Z</time>
      </trkpt>
      <trkpt lat="45.01205" lon="6.04008">
        <ele>1495.5999755859</ele>
        <time>2021-03-21T13:44:29.000Z</time>
      </trkpt>
      <trkpt lat="45.01205" lon="6.04009">
        <ele>1495.1999511719</ele>
        <time>2021-03-21T13:44:30.000Z</time>
      </trkpt>
      <trkpt lat="45.01206" lon="6.04009">
        <ele>1494.5999755859</ele>
        <time>2021-03-21T13:44:31.000Z</time>
      </trkpt>
      <trkpt lat="45.01206" lon="6.0401">
        <ele>1493.8000488281</ele>
        <time>2021-03-21T13:44:32.000Z</time>
      </trkpt>
      <trkpt lat="45.01206" lon="6.04011">
        <ele>1493.1999511719</ele>
        <time>2021-03-21T13:44:33.000Z</time>
      </trkpt>
      <trkpt lat="45.01206" lon="6.04011">
        <ele>1493</ele>
        <time>2021-03-21T13:44:34.000Z</time>
      </trkpt>
      <trkpt lat="45.01207" lon="6.04011">
        <ele>1493</ele>
        <time>2021-03-21T13:44:35.000Z</time>
      </trkpt>
      <trkpt lat="45.01206" lon="6.04011">
        <ele>1493.1999511719</ele>
        <time>2021-03-21T13:44:36.000Z</time>
      </trkpt>
      <trkpt lat="45.01206" lon="6.0401">
        <ele>1493.5999755859</ele>
        <time>2021-03-21T13:44:37.000Z</time>
      </trkpt>
      <trkpt lat="45.01206" lon="6.0401">
        <ele>1493.8000488281</ele>
        <time>2021-03-21T13:44:38.000Z</time>
      </trkpt>
      <trkpt lat="45.01206" lon="6.04011">
        <ele>1493.5999755859</ele>
        <time>2021-03-21T13:44:39.000Z</time>
      </trkpt>
      <trkpt lat="45.01206" lon="6.0401">
        <ele>1494.4000244141</ele>
        <time>2021-03-21T13:44:40.000Z</time>
      </trkpt>
      <trkpt lat="45.01206" lon="6.04009">
        <ele>1495.4000244141</ele>
        <time>2021-03-21T13:44:41.000Z</time>
      </trkpt>
      <trkpt lat="45.01206" lon="6.04008">
        <ele>1495.5999755859</ele>
        <time>2021-03-21T13:44:42.000Z</time>
      </trkpt>
      <trkpt lat="45.01206" lon="6.04008">
        <ele>1495.5999755859</ele>
        <time>2021-03-21T13:44:43.000Z</time>
      </trkpt>
      <trkpt lat="45.01206" lon="6.04008">
        <ele>1495.8000488281</ele>
        <time>2021-03-21T13:44:44.000Z</time>
      </trkpt>
      <trkpt lat="45.01206" lon="6.04007">
        <ele>1496.5999755859</ele>
        <time>2021-03-21T13:44:45.000Z</time>
      </trkpt>
      <trkpt lat="45.01206" lon="6.04007">
        <ele>1496.8000488281</ele>
        <time>2021-03-21T13:44:46.000Z</time>
      </trkpt>
      <trkpt lat="45.01207" lon="6.04007">
        <ele>1497.1999511719</ele>
        <time>2021-03-21T13:44:47.000Z</time>
      </trkpt>
      <trkpt lat="45.01207" lon="6.04006">
        <ele>1497.1999511719</ele>
        <time>2021-03-21T13:44:48.000Z</time>
      </trkpt>
      <trkpt lat="45.01207" lon="6.04006">
        <ele>1497.5999755859</ele>
        <time>2021-03-21T13:44:49.000Z</time>
      </trkpt>
      <trkpt lat="45.01207" lon="6.04006">
        <ele>1497.8000488281</ele>
        <time>2021-03-21T13:44:50.000Z</time>
      </trkpt>
      <trkpt lat="45.01209" lon="6.04006">
        <ele>1498.1999511719</ele>
        <time>2021-03-21T13:44:51.000Z</time>
      </trkpt>
      <trkpt lat="45.01209" lon="6.04005">
        <ele>1498.5999755859</ele>
        <time>2021-03-21T13:44:52.000Z</time>
      </trkpt>
      <trkpt lat="45.01209" lon="6.04005">
        <ele>1498.8000488281</ele>
        <time>2021-03-21T13:44:53.000Z</time>
      </trkpt>
      <trkpt lat="45.01209" lon="6.04005">
        <ele>1499</ele>
        <time>2021-03-21T13:44:54.000Z</time>
      </trkpt>
      <trkpt lat="45.0121" lon="6.04005">
        <ele>1499.1999511719</ele>
        <time>2021-03-21T13:44:55.000Z</time>
      </trkpt>
      <trkpt lat="45.0121" lon="6.04004">
        <ele>1499.1999511719</ele>
        <time>2021-03-21T13:44:56.000Z</time>
      </trkpt>
      <trkpt lat="45.0121" lon="6.04004">
        <ele>1499.4000244141</ele>
        <time>2021-03-21T13:44:57.000Z</time>
      </trkpt>
      <trkpt lat="45.01211" lon="6.04004">
        <ele>1499.4000244141</ele>
        <time>2021-03-21T13:44:58.000Z</time>
      </trkpt>
      <trkpt lat="45.01211" lon="6.04004">
        <ele>1499.4000244141</ele>
        <time>2021-03-21T13:44:59.000Z</time>
      </trkpt>
      <trkpt lat="45.01211" lon="6.04004">
        <ele>1499.5999755859</ele>
        <time>2021-03-21T13:45:00.000Z</time>
      </trkpt>
      <trkpt lat="45.01211" lon="6.04004">
        <ele>1499.5999755859</ele>
        <time>2021-03-21T13:45:01.000Z</time>
      </trkpt>
      <trkpt lat="45.01212" lon="6.04004">
        <ele>1500</ele>
        <time>2021-03-21T13:45:02.000Z</time>
      </trkpt>
      <trkpt lat="45.01211" lon="6.04004">
        <ele>1500</ele>
        <time>2021-03-21T13:45:03.000Z</time>
      </trkpt>
      <trkpt lat="45.01212" lon="6.04004">
        <ele>1500</ele>
        <time>2021-03-21T13:45:04.000Z</time>
      </trkpt>
      <trkpt lat="45.01212" lon="6.04004">
        <ele>1500</ele>
        <time>2021-03-21T13:45:05.000Z</time>
      </trkpt>
      <trkpt lat="45.01212" lon="6.04004">
        <ele>1500.1999511719</ele>
        <time>2021-03-21T13:45:06.000Z</time>
      </trkpt>
      <trkpt lat="45.01212" lon="6.04004">
        <ele>1500.1999511719</ele>
        <time>2021-03-21T13:45:07.000Z</time>
      </trkpt>
      <trkpt lat="45.01211" lon="6.04004">
        <ele>1500</ele>
        <time>2021-03-21T13:45:08.000Z</time>
      </trkpt>
      <trkpt lat="45.01211" lon="6.04003">
        <ele>1500.4000244141</ele>
        <time>2021-03-21T13:45:09.000Z</time>
      </trkpt>
      <trkpt lat="45.0121" lon="6.04003">
        <ele>1500.1999511719</ele>
        <time>2021-03-21T13:45:10.000Z</time>
      </trkpt>
      <trkpt lat="45.01209" lon="6.04003">
        <ele>1500.4000244141</ele>
        <time>2021-03-21T13:45:11.000Z</time>
      </trkpt>
      <trkpt lat="45.01209" lon="6.04003">
        <ele>1500.5999755859</ele>
        <time>2021-03-21T13:45:12.000Z</time>
      </trkpt>
      <trkpt lat="45.01208" lon="6.04003">
        <ele>1500.1999511719</ele>
        <time>2021-03-21T13:45:13.000Z</time>
      </trkpt>
      <trkpt lat="45.01207" lon="6.04003">
        <ele>1500.5999755859</ele>
        <time>2021-03-21T13:45:14.000Z</time>
      </trkpt>
      <trkpt lat="45.01206" lon="6.04003">
        <ele>1500.4000244141</ele>
        <time>2021-03-21T13:45:15.000Z</time>
      </trkpt>
      <trkpt lat="45.01205" lon="6.04003">
        <ele>1500.4000244141</ele>
        <time>2021-03-21T13:45:16.000Z</time>
      </trkpt>
      <trkpt lat="45.01204" lon="6.04002">
        <ele>1500.5999755859</ele>
        <time>2021-03-21T13:45:17.000Z</time>
      </trkpt>
      <trkpt lat="45.01203" lon="6.04002">
        <ele>1500.5999755859</ele>
        <time>2021-03-21T13:45:18.000Z</time>
      </trkpt>
      <trkpt lat="45.01202" lon="6.04002">
        <ele>1500.5999755859</ele>
        <time>2021-03-21T13:45:19.000Z</time>
      </trkpt>
      <trkpt lat="45.01202" lon="6.04002">
        <ele>1500.1999511719</ele>
        <time>2021-03-21T13:45:20.000Z</time>
      </trkpt>
      <trkpt lat="45.01201" lon="6.04003">
        <ele>1499.8000488281</ele>
        <time>2021-03-21T13:45:21.000Z</time>
      </trkpt>
      <trkpt lat="45.01201" lon="6.04003">
        <ele>1499.5999755859</ele>
        <time>2021-03-21T13:45:22.000Z</time>
      </trkpt>
      <trkpt lat="45.012" lon="6.04003">
        <ele>1499.5999755859</ele>
        <time>2021-03-21T13:45:23.000Z</time>
      </trkpt>
      <trkpt lat="45.012" lon="6.04003">
        <ele>1499.1999511719</ele>
        <time>2021-03-21T13:45:24.000Z</time>
      </trkpt>
      <trkpt lat="45.012" lon="6.04003">
        <ele>1499.5999755859</ele>
        <time>2021-03-21T13:45:25.000Z</time>
      </trkpt>
      <trkpt lat="45.012" lon="6.04003">
        <ele>1499.5999755859</ele>
        <time>2021-03-21T13:45:26.000Z</time>
      </trkpt>
      <trkpt lat="45.012" lon="6.04003">
        <ele>1499.5999755859</ele>
        <time>2021-03-21T13:45:27.000Z</time>
      </trkpt>
      <trkpt lat="45.01199" lon="6.04003">
        <ele>1499.5999755859</ele>
        <time>2021-03-21T13:45:28.000Z</time>
      </trkpt>
      <trkpt lat="45.01199" lon="6.04003">
        <ele>1499.4000244141</ele>
        <time>2021-03-21T13:45:29.000Z</time>
      </trkpt>
      <trkpt lat="45.01199" lon="6.04003">
        <ele>1499.5999755859</ele>
        <time>2021-03-21T13:45:30.000Z</time>
      </trkpt>
      <trkpt lat="45.01198" lon="6.04003">
        <ele>1499.5999755859</ele>
        <time>2021-03-21T13:45:31.000Z</time>
      </trkpt>
      <trkpt lat="45.01198" lon="6.04002">
        <ele>1499.8000488281</ele>
        <time>2021-03-21T13:45:32.000Z</time>
      </trkpt>
      <trkpt lat="45.01197" lon="6.04003">
        <ele>1499.1999511719</ele>
        <time>2021-03-21T13:45:33.000Z</time>
      </trkpt>
      <trkpt lat="45.01197" lon="6.04003">
        <ele>1499</ele>
        <time>2021-03-21T13:45:34.000Z</time>
      </trkpt>
      <trkpt lat="45.01197" lon="6.04004">
        <ele>1498.5999755859</ele>
        <time>2021-03-21T13:45:35.000Z</time>
      </trkpt>
      <trkpt lat="45.01198" lon="6.04004">
        <ele>1498.4000244141</ele>
        <time>2021-03-21T13:45:36.000Z</time>
      </trkpt>
      <trkpt lat="45.01197" lon="6.04005">
        <ele>1498.1999511719</ele>
        <time>2021-03-21T13:45:37.000Z</time>
      </trkpt>
      <trkpt lat="45.01197" lon="6.04005">
        <ele>1497.8000488281</ele>
        <time>2021-03-21T13:45:38.000Z</time>
      </trkpt>
      <trkpt lat="45.01197" lon="6.04006">
        <ele>1497.5999755859</ele>
        <time>2021-03-21T13:45:39.000Z</time>
      </trkpt>
      <trkpt lat="45.01199" lon="6.04006">
        <ele>1496.8000488281</ele>
        <time>2021-03-21T13:45:40.000Z</time>
      </trkpt>
      <trkpt lat="45.012" lon="6.04007">
        <ele>1496.4000244141</ele>
        <time>2021-03-21T13:45:41.000Z</time>
      </trkpt>
      <trkpt lat="45.01201" lon="6.04007">
        <ele>1496.1999511719</ele>
        <time>2021-03-21T13:45:42.000Z</time>
      </trkpt>
      <trkpt lat="45.01202" lon="6.04007">
        <ele>1496.1999511719</ele>
        <time>2021-03-21T13:45:43.000Z</time>
      </trkpt>
      <trkpt lat="45.01202" lon="6.04007">
        <ele>1496</ele>
        <time>2021-03-21T13:45:44.000Z</time>
      </trkpt>
      <trkpt lat="45.01202" lon="6.04007">
        <ele>1495.8000488281</ele>
        <time>2021-03-21T13:45:45.000Z</time>
      </trkpt>
      <trkpt lat="45.01203" lon="6.04007">
        <ele>1496</ele>
        <time>2021-03-21T13:45:46.000Z</time>
      </trkpt>
      <trkpt lat="45.01203" lon="6.04007">
        <ele>1496</ele>
        <time>2021-03-21T13:45:47.000Z</time>
      </trkpt>
      <trkpt lat="45.01203" lon="6.04007">
        <ele>1496.1999511719</ele>
        <time>2021-03-21T13:45:48.000Z</time>
      </trkpt>
      <trkpt lat="45.01204" lon="6.04007">
        <ele>1496.1999511719</ele>
        <time>2021-03-21T13:45:49.000Z</time>
      </trkpt>
      <trkpt lat="45.01204" lon="6.04008">
        <ele>1495.8000488281</ele>
        <time>2021-03-21T13:45:50.000Z</time>
      </trkpt>
      <trkpt lat="45.01203" lon="6.04008">
        <ele>1495.5999755859</ele>
        <time>2021-03-21T13:45:51.000Z</time>
      </trkpt>
      <trkpt lat="45.01204" lon="6.04008">
        <ele>1495.1999511719</ele>
        <time>2021-03-21T13:45:52.000Z</time>
      </trkpt>
      <trkpt lat="45.01204" lon="6.04008">
        <ele>1495.1999511719</ele>
        <time>2021-03-21T13:45:53.000Z</time>
      </trkpt>
      <trkpt lat="45.01204" lon="6.04009">
        <ele>1495</ele>
        <time>2021-03-21T13:45:54.000Z</time>
      </trkpt>
      <trkpt lat="45.01204" lon="6.04009">
        <ele>1495</ele>
        <time>2021-03-21T13:45:55.000Z</time>
      </trkpt>
      <trkpt lat="45.01204" lon="6.04009">
        <ele>1495</ele>
        <time>2021-03-21T13:45:56.000Z</time>
      </trkpt>
      <trkpt lat="45.01204" lon="6.04009">
        <ele>1495</ele>
        <time>2021-03-21T13:45:57.000Z</time>
      </trkpt>
      <trkpt lat="45.01204" lon="6.04008">
        <ele>1495.1999511719</ele>
        <time>2021-03-21T13:45:58.000Z</time>
      </trkpt>
      <trkpt lat="45.01204" lon="6.04008">
        <ele>1495.4000244141</ele>
        <time>2021-03-21T13:45:59.000Z</time>
      </trkpt>
      <trkpt lat="45.01204" lon="6.04008">
        <ele>1495.4000244141</ele>
        <time>2021-03-21T13:46:00.000Z</time>
      </trkpt>
      <trkpt lat="45.01204" lon="6.04008">
        <ele>1495.4000244141</ele>
        <time>2021-03-21T13:46:01.000Z</time>
      </trkpt>
      <trkpt lat="45.01204" lon="6.04008">
        <ele>1495.8000488281</ele>
        <time>2021-03-21T13:46:02.000Z</time>
      </trkpt>
      <trkpt lat="45.01204" lon="6.04008">
        <ele>1495.8000488281</ele>
        <time>2021-03-21T13:46:03.000Z</time>
      </trkpt>
      <trkpt lat="45.01204" lon="6.04008">
        <ele>1495.8000488281</ele>
        <time>2021-03-21T13:46:04.000Z</time>
      </trkpt>
      <trkpt lat="45.01204" lon="6.04008">
        <ele>1496</ele>
        <time>2021-03-21T13:46:05.000Z</time>
      </trkpt>
      <trkpt lat="45.01204" lon="6.04008">
        <ele>1496</ele>
        <time>2021-03-21T13:46:06.000Z</time>
      </trkpt>
      <trkpt lat="45.01205" lon="6.04008">
        <ele>1495.8000488281</ele>
        <time>2021-03-21T13:46:07.000Z</time>
      </trkpt>
      <trkpt lat="45.01205" lon="6.04008">
        <ele>1495.5999755859</ele>
        <time>2021-03-21T13:46:08.000Z</time>
      </trkpt>
      <trkpt lat="45.01205" lon="6.04008">
        <ele>1495.8000488281</ele>
        <time>2021-03-21T13:46:09.000Z</time>
      </trkpt>
      <trkpt lat="45.01205" lon="6.04008">
        <ele>1496</ele>
        <time>2021-03-21T13:46:10.000Z</time>
      </trkpt>
      <trkpt lat="45.01205" lon="6.04008">
        <ele>1495.8000488281</ele>
        <time>2021-03-21T13:46:11.000Z</time>
      </trkpt>
      <trkpt lat="45.01205" lon="6.04008">
        <ele>1495.8000488281</ele>
        <time>2021-03-21T13:46:12.000Z</time>
      </trkpt>
      <trkpt lat="45.01205" lon="6.04008">
        <ele>1495.5999755859</ele>
        <time>2021-03-21T13:46:13.000Z</time>
      </trkpt>
      <trkpt lat="45.01205" lon="6.04008">
        <ele>1495.8000488281</ele>
        <time>2021-03-21T13:46:14.000Z</time>
      </trkpt>
      <trkpt lat="45.01205" lon="6.04007">
        <ele>1496.4000244141</ele>
        <time>2021-03-21T13:46:15.000Z</time>
      </trkpt>
      <trkpt lat="45.01205" lon="6.04007">
        <ele>1496.4000244141</ele>
        <time>2021-03-21T13:46:16.000Z</time>
      </trkpt>
      <trkpt lat="45.01206" lon="6.04007">
        <ele>1496.4000244141</ele>
        <time>2021-03-21T13:46:17.000Z</time>
      </trkpt>
      <trkpt lat="45.01206" lon="6.04007">
        <ele>1496.4000244141</ele>
        <time>2021-03-21T13:46:18.000Z</time>
      </trkpt>
      <trkpt lat="45.01206" lon="6.04007">
        <ele>1496.4000244141</ele>
        <time>2021-03-21T13:46:19.000Z</time>
      </trkpt>
      <trkpt lat="45.01206" lon="6.04008">
        <ele>1496.1999511719</ele>
        <time>2021-03-21T13:46:20.000Z</time>
      </trkpt>
      <trkpt lat="45.01206" lon="6.04007">
        <ele>1496.5999755859</ele>
        <time>2021-03-21T13:46:21.000Z</time>
      </trkpt>
      <trkpt lat="45.01206" lon="6.04007">
        <ele>1496.1999511719</ele>
        <time>2021-03-21T13:46:22.000Z</time>
      </trkpt>
      <trkpt lat="45.01206" lon="6.04008">
        <ele>1496.1999511719</ele>
        <time>2021-03-21T13:46:23.000Z</time>
      </trkpt>
      <trkpt lat="45.01206" lon="6.04008">
        <ele>1496</ele>
        <time>2021-03-21T13:46:24.000Z</time>
      </trkpt>
      <trkpt lat="45.01206" lon="6.04008">
        <ele>1496</ele>
        <time>2021-03-21T13:46:25.000Z</time>
      </trkpt>
      <trkpt lat="45.01206" lon="6.04008">
        <ele>1496</ele>
        <time>2021-03-21T13:46:26.000Z</time>
      </trkpt>
      <trkpt lat="45.01206" lon="6.04007">
        <ele>1496.1999511719</ele>
        <time>2021-03-21T13:46:27.000Z</time>
      </trkpt>
      <trkpt lat="45.01205" lon="6.04007">
        <ele>1496.4000244141</ele>
        <time>2021-03-21T13:46:28.000Z</time>
      </trkpt>
      <trkpt lat="45.01205" lon="6.04007">
        <ele>1496.5999755859</ele>
        <time>2021-03-21T13:46:29.000Z</time>
      </trkpt>
      <trkpt lat="45.01205" lon="6.04007">
        <ele>1496.8000488281</ele>
        <time>2021-03-21T13:46:30.000Z</time>
      </trkpt>
      <trkpt lat="45.01205" lon="6.04007">
        <ele>1497</ele>
        <time>2021-03-21T13:46:31.000Z</time>
      </trkpt>
      <trkpt lat="45.01205" lon="6.04006">
        <ele>1497</ele>
        <time>2021-03-21T13:46:32.000Z</time>
      </trkpt>
      <trkpt lat="45.01205" lon="6.04007">
        <ele>1496.8000488281</ele>
        <time>2021-03-21T13:46:33.000Z</time>
      </trkpt>
      <trkpt lat="45.01205" lon="6.04007">
        <ele>1496.5999755859</ele>
        <time>2021-03-21T13:46:34.000Z</time>
      </trkpt>
      <trkpt lat="45.01204" lon="6.04007">
        <ele>1496</ele>
        <time>2021-03-21T13:46:35.000Z</time>
      </trkpt>
      <trkpt lat="45.01204" lon="6.04008">
        <ele>1496</ele>
        <time>2021-03-21T13:46:36.000Z</time>
      </trkpt>
      <trkpt lat="45.01204" lon="6.04008">
        <ele>1495.8000488281</ele>
        <time>2021-03-21T13:46:37.000Z</time>
      </trkpt>
      <trkpt lat="45.01203" lon="6.04008">
        <ele>1495.4000244141</ele>
        <time>2021-03-21T13:46:38.000Z</time>
      </trkpt>
      <trkpt lat="45.01203" lon="6.04008">
        <ele>1495.1999511719</ele>
        <time>2021-03-21T13:46:39.000Z</time>
      </trkpt>
      <trkpt lat="45.01203" lon="6.04008">
        <ele>1495.1999511719</ele>
        <time>2021-03-21T13:46:40.000Z</time>
      </trkpt>
      <trkpt lat="45.01203" lon="6.04008">
        <ele>1495.1999511719</ele>
        <time>2021-03-21T13:46:41.000Z</time>
      </trkpt>
      <trkpt lat="45.01203" lon="6.04009">
        <ele>1495</ele>
        <time>2021-03-21T13:46:42.000Z</time>
      </trkpt>
      <trkpt lat="45.01203" lon="6.04009">
        <ele>1495</ele>
        <time>2021-03-21T13:46:43.000Z</time>
      </trkpt>
      <trkpt lat="45.01203" lon="6.04009">
        <ele>1494.8000488281</ele>
        <time>2021-03-21T13:46:44.000Z</time>
      </trkpt>
      <trkpt lat="45.01203" lon="6.04009">
        <ele>1494.8000488281</ele>
        <time>2021-03-21T13:46:45.000Z</time>
      </trkpt>
      <trkpt lat="45.01203" lon="6.04009">
        <ele>1494.5999755859</ele>
        <time>2021-03-21T13:46:46.000Z</time>
      </trkpt>
      <trkpt lat="45.01202" lon="6.04009">
        <ele>1494.5999755859</ele>
        <time>2021-03-21T13:46:47.000Z</time>
      </trkpt>
      <trkpt lat="45.01203" lon="6.04009">
        <ele>1494.8000488281</ele>
        <time>2021-03-21T13:46:48.000Z</time>
      </trkpt>
      <trkpt lat="45.01202" lon="6.04009">
        <ele>1494.8000488281</ele>
        <time>2021-03-21T13:46:49.000Z</time>
      </trkpt>
      <trkpt lat="45.01202" lon="6.04009">
        <ele>1494.8000488281</ele>
        <time>2021-03-21T13:46:50.000Z</time>
      </trkpt>
      <trkpt lat="45.01202" lon="6.04009">
        <ele>1494.8000488281</ele>
        <time>2021-03-21T13:46:51.000Z</time>
      </trkpt>
      <trkpt lat="45.01202" lon="6.04009">
        <ele>1495</ele>
        <time>2021-03-21T13:46:52.000Z</time>
      </trkpt>
      <trkpt lat="45.01203" lon="6.04008">
        <ele>1495</ele>
        <time>2021-03-21T13:46:53.000Z</time>
      </trkpt>
      <trkpt lat="45.01203" lon="6.04008">
        <ele>1495.4000244141</ele>
        <time>2021-03-21T13:46:54.000Z</time>
      </trkpt>
      <trkpt lat="45.01203" lon="6.04008">
        <ele>1495.8000488281</ele>
        <time>2021-03-21T13:46:55.000Z</time>
      </trkpt>
      <trkpt lat="45.01203" lon="6.04007">
        <ele>1496.1999511719</ele>
        <time>2021-03-21T13:46:56.000Z</time>
      </trkpt>
      <trkpt lat="45.01204" lon="6.04007">
        <ele>1496.8000488281</ele>
        <time>2021-03-21T13:46:57.000Z</time>
      </trkpt>
      <trkpt lat="45.01204" lon="6.04006">
        <ele>1497</ele>
        <time>2021-03-21T13:46:58.000Z</time>
      </trkpt>
      <trkpt lat="45.01203" lon="6.04005">
        <ele>1497.5999755859</ele>
        <time>2021-03-21T13:46:59.000Z</time>
      </trkpt>
      <trkpt lat="45.01207" lon="6.04005">
        <ele>1498.4000244141</ele>
        <time>2021-03-21T13:47:00.000Z</time>
      </trkpt>
      <trkpt lat="45.01208" lon="6.04005">
        <ele>1498.5999755859</ele>
        <time>2021-03-21T13:47:01.000Z</time>
      </trkpt>
      <trkpt lat="45.01209" lon="6.04005">
        <ele>1498.4000244141</ele>
        <time>2021-03-21T13:47:02.000Z</time>
      </trkpt>
      <trkpt lat="45.01209" lon="6.04005">
        <ele>1498.8000488281</ele>
        <time>2021-03-21T13:47:03.000Z</time>
      </trkpt>
      <trkpt lat="45.01211" lon="6.04005">
        <ele>1499.1999511719</ele>
        <time>2021-03-21T13:47:04.000Z</time>
      </trkpt>
      <trkpt lat="45.01212" lon="6.04004">
        <ele>1500</ele>
        <time>2021-03-21T13:47:05.000Z</time>
      </trkpt>
      <trkpt lat="45.01214" lon="6.04003">
        <ele>1500.8000488281</ele>
        <time>2021-03-21T13:47:06.000Z</time>
      </trkpt>
      <trkpt lat="45.01215" lon="6.04003">
        <ele>1501.1999511719</ele>
        <time>2021-03-21T13:47:07.000Z</time>
      </trkpt>
      <trkpt lat="45.01216" lon="6.04002">
        <ele>1501.8000488281</ele>
        <time>2021-03-21T13:47:08.000Z</time>
      </trkpt>
      <trkpt lat="45.01216" lon="6.04002">
        <ele>1502.1999511719</ele>
        <time>2021-03-21T13:47:09.000Z</time>
      </trkpt>
      <trkpt lat="45.01216" lon="6.04001">
        <ele>1502.5999755859</ele>
        <time>2021-03-21T13:47:10.000Z</time>
      </trkpt>
      <trkpt lat="45.01217" lon="6.04001">
        <ele>1503.4000244141</ele>
        <time>2021-03-21T13:47:11.000Z</time>
      </trkpt>
      <trkpt lat="45.01218" lon="6.04">
        <ele>1504.1999511719</ele>
        <time>2021-03-21T13:47:12.000Z</time>
      </trkpt>
      <trkpt lat="45.01219" lon="6.03999">
        <ele>1505.1999511719</ele>
        <time>2021-03-21T13:47:13.000Z</time>
      </trkpt>
      <trkpt lat="45.01219" lon="6.03998">
        <ele>1506</ele>
        <time>2021-03-21T13:47:14.000Z</time>
      </trkpt>
      <trkpt lat="45.0122" lon="6.03997">
        <ele>1506.5999755859</ele>
        <time>2021-03-21T13:47:15.000Z</time>
      </trkpt>
      <trkpt lat="45.0122" lon="6.03995">
        <ele>1507.5999755859</ele>
        <time>2021-03-21T13:47:16.000Z</time>
      </trkpt>
      <trkpt lat="45.01221" lon="6.03995">
        <ele>1507.4000244141</ele>
        <time>2021-03-21T13:47:17.000Z</time>
      </trkpt>
      <trkpt lat="45.01221" lon="6.03994">
        <ele>1508</ele>
        <time>2021-03-21T13:47:18.000Z</time>
      </trkpt>
      <trkpt lat="45.01222" lon="6.03993">
        <ele>1508.8000488281</ele>
        <time>2021-03-21T13:47:19.000Z</time>
      </trkpt>
      <trkpt lat="45.01221" lon="6.03992">
        <ele>1509.5999755859</ele>
        <time>2021-03-21T13:47:20.000Z</time>
      </trkpt>
      <trkpt lat="45.01222" lon="6.03991">
        <ele>1510.1999511719</ele>
        <time>2021-03-21T13:47:21.000Z</time>
      </trkpt>
      <trkpt lat="45.01222" lon="6.0399">
        <ele>1510.8000488281</ele>
        <time>2021-03-21T13:47:22.000Z</time>
      </trkpt>
      <trkpt lat="45.01222" lon="6.03988">
        <ele>1512</ele>
        <time>2021-03-21T13:47:23.000Z</time>
      </trkpt>
      <trkpt lat="45.01222" lon="6.03986">
        <ele>1514</ele>
        <time>2021-03-21T13:47:24.000Z</time>
      </trkpt>
      <trkpt lat="45.01222" lon="6.03984">
        <ele>1515.4000244141</ele>
        <time>2021-03-21T13:47:25.000Z</time>
      </trkpt>
      <trkpt lat="45.01222" lon="6.03983">
        <ele>1516.4000244141</ele>
        <time>2021-03-21T13:47:26.000Z</time>
      </trkpt>
      <trkpt lat="45.01222" lon="6.03982">
        <ele>1517.8000488281</ele>
        <time>2021-03-21T13:47:27.000Z</time>
      </trkpt>
      <trkpt lat="45.01223" lon="6.0398">
        <ele>1519.1999511719</ele>
        <time>2021-03-21T13:47:28.000Z</time>
      </trkpt>
      <trkpt lat="45.01223" lon="6.03979">
        <ele>1520.4000244141</ele>
        <time>2021-03-21T13:47:29.000Z</time>
      </trkpt>
      <trkpt lat="45.01222" lon="6.03978">
        <ele>1521.5999755859</ele>
        <time>2021-03-21T13:47:30.000Z</time>
      </trkpt>
      <trkpt lat="45.01222" lon="6.03977">
        <ele>1523</ele>
        <time>2021-03-21T13:47:31.000Z</time>
      </trkpt>
      <trkpt lat="45.01222" lon="6.03975">
        <ele>1524.1999511719</ele>
        <time>2021-03-21T13:47:32.000Z</time>
      </trkpt>
      <trkpt lat="45.01222" lon="6.03974">
        <ele>1525.4000244141</ele>
        <time>2021-03-21T13:47:33.000Z</time>
      </trkpt>
      <trkpt lat="45.01222" lon="6.03973">
        <ele>1526.4000244141</ele>
        <time>2021-03-21T13:47:34.000Z</time>
      </trkpt>
      <trkpt lat="45.01223" lon="6.03972">
        <ele>1527.1999511719</ele>
        <time>2021-03-21T13:47:35.000Z</time>
      </trkpt>
      <trkpt lat="45.01223" lon="6.0397">
        <ele>1528.4000244141</ele>
        <time>2021-03-21T13:47:36.000Z</time>
      </trkpt>
      <trkpt lat="45.01223" lon="6.03969">
        <ele>1529</ele>
        <time>2021-03-21T13:47:37.000Z</time>
      </trkpt>
      <trkpt lat="45.01223" lon="6.03968">
        <ele>1529.8000488281</ele>
        <time>2021-03-21T13:47:38.000Z</time>
      </trkpt>
      <trkpt lat="45.01223" lon="6.03967">
        <ele>1530.5999755859</ele>
        <time>2021-03-21T13:47:39.000Z</time>
      </trkpt>
      <trkpt lat="45.01223" lon="6.03966">
        <ele>1531.5999755859</ele>
        <time>2021-03-21T13:47:40.000Z</time>
      </trkpt>
      <trkpt lat="45.01223" lon="6.03965">
        <ele>1532.4000244141</ele>
        <time>2021-03-21T13:47:41.000Z</time>
      </trkpt>
      <trkpt lat="45.01222" lon="6.03965">
        <ele>1532.5999755859</ele>
        <time>2021-03-21T13:47:42.000Z</time>
      </trkpt>
      <trkpt lat="45.01221" lon="6.03965">
        <ele>1533.1999511719</ele>
        <time>2021-03-21T13:47:43.000Z</time>
      </trkpt>
      <trkpt lat="45.0122" lon="6.03964">
        <ele>1534</ele>
        <time>2021-03-21T13:47:44.000Z</time>
      </trkpt>
      <trkpt lat="45.0122" lon="6.03964">
        <ele>1534.1999511719</ele>
        <time>2021-03-21T13:47:45.000Z</time>
      </trkpt>
      <trkpt lat="45.0122" lon="6.03964">
        <ele>1533.8000488281</ele>
        <time>2021-03-21T13:47:46.000Z</time>
      </trkpt>
      <trkpt lat="45.0122" lon="6.03964">
        <ele>1534</ele>
        <time>2021-03-21T13:47:47.000Z</time>
      </trkpt>
      <trkpt lat="45.0122" lon="6.03964">
        <ele>1534.4000244141</ele>
        <time>2021-03-21T13:47:48.000Z</time>
      </trkpt>
      <trkpt lat="45.01221" lon="6.03963">
        <ele>1534.5999755859</ele>
        <time>2021-03-21T13:47:49.000Z</time>
      </trkpt>
      <trkpt lat="45.01221" lon="6.03963">
        <ele>1535</ele>
        <time>2021-03-21T13:47:50.000Z</time>
      </trkpt>
      <trkpt lat="45.01221" lon="6.03962">
        <ele>1535.1999511719</ele>
        <time>2021-03-21T13:47:51.000Z</time>
      </trkpt>
      <trkpt lat="45.01221" lon="6.03962">
        <ele>1535.4000244141</ele>
        <time>2021-03-21T13:47:52.000Z</time>
      </trkpt>
      <trkpt lat="45.01221" lon="6.03962">
        <ele>1535.5999755859</ele>
        <time>2021-03-21T13:47:53.000Z</time>
      </trkpt>
      <trkpt lat="45.0122" lon="6.03962">
        <ele>1536</ele>
        <time>2021-03-21T13:47:54.000Z</time>
      </trkpt>
      <trkpt lat="45.0122" lon="6.03961">
        <ele>1536.5999755859</ele>
        <time>2021-03-21T13:47:55.000Z</time>
      </trkpt>
      <trkpt lat="45.0122" lon="6.0396">
        <ele>1537.4000244141</ele>
        <time>2021-03-21T13:47:56.000Z</time>
      </trkpt>
      <trkpt lat="45.01221" lon="6.03959">
        <ele>1538</ele>
        <time>2021-03-21T13:47:57.000Z</time>
      </trkpt>
      <trkpt lat="45.01221" lon="6.03958">
        <ele>1539</ele>
        <time>2021-03-21T13:47:58.000Z</time>
      </trkpt>
      <trkpt lat="45.0122" lon="6.03958">
        <ele>1539</ele>
        <time>2021-03-21T13:47:59.000Z</time>
      </trkpt>
      <trkpt lat="45.0122" lon="6.03957">
        <ele>1539.5999755859</ele>
        <time>2021-03-21T13:48:00.000Z</time>
      </trkpt>
      <trkpt lat="45.0122" lon="6.03957">
        <ele>1539.4000244141</ele>
        <time>2021-03-21T13:48:01.000Z</time>
      </trkpt>
      <trkpt lat="45.01219" lon="6.03959">
        <ele>1538.5999755859</ele>
        <time>2021-03-21T13:48:02.000Z</time>
      </trkpt>
      <trkpt lat="45.01219" lon="6.03959">
        <ele>1538.8000488281</ele>
        <time>2021-03-21T13:48:03.000Z</time>
      </trkpt>
      <trkpt lat="45.01218" lon="6.03959">
        <ele>1539</ele>
        <time>2021-03-21T13:48:04.000Z</time>
      </trkpt>
      <trkpt lat="45.01218" lon="6.03958">
        <ele>1539.1999511719</ele>
        <time>2021-03-21T13:48:05.000Z</time>
      </trkpt>
      <trkpt lat="45.01218" lon="6.03958">
        <ele>1539.5999755859</ele>
        <time>2021-03-21T13:48:06.000Z</time>
      </trkpt>
      <trkpt lat="45.01218" lon="6.03958">
        <ele>1539.5999755859</ele>
        <time>2021-03-21T13:48:07.000Z</time>
      </trkpt>
      <trkpt lat="45.01217" lon="6.03959">
        <ele>1539.4000244141</ele>
        <time>2021-03-21T13:48:08.000Z</time>
      </trkpt>
      <trkpt lat="45.01215" lon="6.0396">
        <ele>1539</ele>
        <time>2021-03-21T13:48:09.000Z</time>
      </trkpt>
      <trkpt lat="45.01216" lon="6.03959">
        <ele>1539.1999511719</ele>
        <time>2021-03-21T13:48:10.000Z</time>
      </trkpt>
      <trkpt lat="45.01216" lon="6.03959">
        <ele>1539</ele>
        <time>2021-03-21T13:48:11.000Z</time>
      </trkpt>
      <trkpt lat="45.01216" lon="6.0396">
        <ele>1538.8000488281</ele>
        <time>2021-03-21T13:48:12.000Z</time>
      </trkpt>
      <trkpt lat="45.01216" lon="6.0396">
        <ele>1538.4000244141</ele>
        <time>2021-03-21T13:48:13.000Z</time>
      </trkpt>
      <trkpt lat="45.01216" lon="6.0396">
        <ele>1538.4000244141</ele>
        <time>2021-03-21T13:48:14.000Z</time>
      </trkpt>
      <trkpt lat="45.01217" lon="6.0396">
        <ele>1538.4000244141</ele>
        <time>2021-03-21T13:48:15.000Z</time>
      </trkpt>
      <trkpt lat="45.01217" lon="6.0396">
        <ele>1538.4000244141</ele>
        <time>2021-03-21T13:48:16.000Z</time>
      </trkpt>
      <trkpt lat="45.01217" lon="6.0396">
        <ele>1538.1999511719</ele>
        <time>2021-03-21T13:48:17.000Z</time>
      </trkpt>
      <trkpt lat="45.01217" lon="6.0396">
        <ele>1538.1999511719</ele>
        <time>2021-03-21T13:48:18.000Z</time>
      </trkpt>
      <trkpt lat="45.01217" lon="6.0396">
        <ele>1538</ele>
        <time>2021-03-21T13:48:19.000Z</time>
      </trkpt>
      <trkpt lat="45.01217" lon="6.03961">
        <ele>1537.5999755859</ele>
        <time>2021-03-21T13:48:20.000Z</time>
      </trkpt>
      <trkpt lat="45.01216" lon="6.03962">
        <ele>1537.1999511719</ele>
        <time>2021-03-21T13:48:21.000Z</time>
      </trkpt>
      <trkpt lat="45.01216" lon="6.03961">
        <ele>1537.1999511719</ele>
        <time>2021-03-21T13:48:22.000Z</time>
      </trkpt>
      <trkpt lat="45.01217" lon="6.0396">
        <ele>1538.4000244141</ele>
        <time>2021-03-21T13:48:23.000Z</time>
      </trkpt>
      <trkpt lat="45.01216" lon="6.0396">
        <ele>1538.5999755859</ele>
        <time>2021-03-21T13:48:24.000Z</time>
      </trkpt>
      <trkpt lat="45.01217" lon="6.03959">
        <ele>1539.4000244141</ele>
        <time>2021-03-21T13:48:25.000Z</time>
      </trkpt>
      <trkpt lat="45.01216" lon="6.03957">
        <ele>1540.4000244141</ele>
        <time>2021-03-21T13:48:26.000Z</time>
      </trkpt>
      <trkpt lat="45.01216" lon="6.03956">
        <ele>1541</ele>
        <time>2021-03-21T13:48:27.000Z</time>
      </trkpt>
      <trkpt lat="45.01216" lon="6.03956">
        <ele>1541.8000488281</ele>
        <time>2021-03-21T13:48:28.000Z</time>
      </trkpt>
      <trkpt lat="45.01216" lon="6.03955">
        <ele>1542.4000244141</ele>
        <time>2021-03-21T13:48:29.000Z</time>
      </trkpt>
      <trkpt lat="45.01217" lon="6.03954">
        <ele>1542.5999755859</ele>
        <time>2021-03-21T13:48:30.000Z</time>
      </trkpt>
      <trkpt lat="45.01217" lon="6.03953">
        <ele>1543.1999511719</ele>
        <time>2021-03-21T13:48:31.000Z</time>
      </trkpt>
      <trkpt lat="45.01218" lon="6.03953">
        <ele>1543.4000244141</ele>
        <time>2021-03-21T13:48:32.000Z</time>
      </trkpt>
      <trkpt lat="45.01218" lon="6.03952">
        <ele>1544.1999511719</ele>
        <time>2021-03-21T13:48:33.000Z</time>
      </trkpt>
      <trkpt lat="45.01218" lon="6.03951">
        <ele>1544.5999755859</ele>
        <time>2021-03-21T13:48:34.000Z</time>
      </trkpt>
      <trkpt lat="45.01218" lon="6.0395">
        <ele>1545.4000244141</ele>
        <time>2021-03-21T13:48:35.000Z</time>
      </trkpt>
      <trkpt lat="45.01218" lon="6.03949">
        <ele>1546.1999511719</ele>
        <time>2021-03-21T13:48:36.000Z</time>
      </trkpt>
      <trkpt lat="45.01219" lon="6.03948">
        <ele>1546.5999755859</ele>
        <time>2021-03-21T13:48:37.000Z</time>
      </trkpt>
      <trkpt lat="45.0122" lon="6.03947">
        <ele>1547.1999511719</ele>
        <time>2021-03-21T13:48:38.000Z</time>
      </trkpt>
      <trkpt lat="45.01221" lon="6.03946">
        <ele>1547.8000488281</ele>
        <time>2021-03-21T13:48:39.000Z</time>
      </trkpt>
      <trkpt lat="45.01222" lon="6.03945">
        <ele>1548</ele>
        <time>2021-03-21T13:48:40.000Z</time>
      </trkpt>
      <trkpt lat="45.01223" lon="6.03944">
        <ele>1549.1999511719</ele>
        <time>2021-03-21T13:48:41.000Z</time>
      </trkpt>
      <trkpt lat="45.01224" lon="6.03944">
        <ele>1550.5999755859</ele>
        <time>2021-03-21T13:48:42.000Z</time>
      </trkpt>
      <trkpt lat="45.01224" lon="6.03943">
        <ele>1552.5999755859</ele>
        <time>2021-03-21T13:48:43.000Z</time>
      </trkpt>
      <trkpt lat="45.01225" lon="6.03942">
        <ele>1554.1999511719</ele>
        <time>2021-03-21T13:48:44.000Z</time>
      </trkpt>
      <trkpt lat="45.01226" lon="6.03941">
        <ele>1556.4000244141</ele>
        <time>2021-03-21T13:48:45.000Z</time>
      </trkpt>
      <trkpt lat="45.01228" lon="6.0394">
        <ele>1558</ele>
        <time>2021-03-21T13:48:46.000Z</time>
      </trkpt>
      <trkpt lat="45.01229" lon="6.03939">
        <ele>1559.5999755859</ele>
        <time>2021-03-21T13:48:47.000Z</time>
      </trkpt>
      <trkpt lat="45.0123" lon="6.03939">
        <ele>1560.1999511719</ele>
        <time>2021-03-21T13:48:48.000Z</time>
      </trkpt>
      <trkpt lat="45.0123" lon="6.03939">
        <ele>1561.1999511719</ele>
        <time>2021-03-21T13:48:49.000Z</time>
      </trkpt>
      <trkpt lat="45.01231" lon="6.03938">
        <ele>1561.8000488281</ele>
        <time>2021-03-21T13:48:50.000Z</time>
      </trkpt>
      <trkpt lat="45.01232" lon="6.03938">
        <ele>1562.5999755859</ele>
        <time>2021-03-21T13:48:51.000Z</time>
      </trkpt>
      <trkpt lat="45.01233" lon="6.03938">
        <ele>1563.4000244141</ele>
        <time>2021-03-21T13:48:52.000Z</time>
      </trkpt>
      <trkpt lat="45.01233" lon="6.03937">
        <ele>1564.5999755859</ele>
        <time>2021-03-21T13:48:53.000Z</time>
      </trkpt>
      <trkpt lat="45.01234" lon="6.03937">
        <ele>1565.5999755859</ele>
        <time>2021-03-21T13:48:54.000Z</time>
      </trkpt>
      <trkpt lat="45.01235" lon="6.03937">
        <ele>1566</ele>
        <time>2021-03-21T13:48:55.000Z</time>
      </trkpt>
      <trkpt lat="45.01235" lon="6.03938">
        <ele>1564.4000244141</ele>
        <time>2021-03-21T13:48:56.000Z</time>
      </trkpt>
      <trkpt lat="45.01236" lon="6.03937">
        <ele>1565.4000244141</ele>
        <time>2021-03-21T13:48:57.000Z</time>
      </trkpt>
      <trkpt lat="45.01237" lon="6.03937">
        <ele>1566.5999755859</ele>
        <time>2021-03-21T13:48:58.000Z</time>
      </trkpt>
      <trkpt lat="45.01238" lon="6.03936">
        <ele>1568</ele>
        <time>2021-03-21T13:48:59.000Z</time>
      </trkpt>
      <trkpt lat="45.01239" lon="6.03935">
        <ele>1569.4000244141</ele>
        <time>2021-03-21T13:49:00.000Z</time>
      </trkpt>
      <trkpt lat="45.0124" lon="6.03935">
        <ele>1571</ele>
        <time>2021-03-21T13:49:01.000Z</time>
      </trkpt>
      <trkpt lat="45.0124" lon="6.03934">
        <ele>1571.1999511719</ele>
        <time>2021-03-21T13:49:02.000Z</time>
      </trkpt>
      <trkpt lat="45.0124" lon="6.03935">
        <ele>1570.8000488281</ele>
        <time>2021-03-21T13:49:03.000Z</time>
      </trkpt>
      <trkpt lat="45.0124" lon="6.03935">
        <ele>1570</ele>
        <time>2021-03-21T13:49:04.000Z</time>
      </trkpt>
      <trkpt lat="45.01241" lon="6.03936">
        <ele>1569.8000488281</ele>
        <time>2021-03-21T13:49:05.000Z</time>
      </trkpt>
      <trkpt lat="45.01241" lon="6.03936">
        <ele>1569.8000488281</ele>
        <time>2021-03-21T13:49:06.000Z</time>
      </trkpt>
      <trkpt lat="45.01241" lon="6.03937">
        <ele>1568.4000244141</ele>
        <time>2021-03-21T13:49:07.000Z</time>
      </trkpt>
      <trkpt lat="45.01241" lon="6.03937">
        <ele>1567.8000488281</ele>
        <time>2021-03-21T13:49:08.000Z</time>
      </trkpt>
      <trkpt lat="45.01241" lon="6.03937">
        <ele>1567.5999755859</ele>
        <time>2021-03-21T13:49:09.000Z</time>
      </trkpt>
      <trkpt lat="45.01241" lon="6.03937">
        <ele>1567.4000244141</ele>
        <time>2021-03-21T13:49:10.000Z</time>
      </trkpt>
      <trkpt lat="45.01241" lon="6.03938">
        <ele>1566.8000488281</ele>
        <time>2021-03-21T13:49:11.000Z</time>
      </trkpt>
      <trkpt lat="45.01242" lon="6.03938">
        <ele>1567.5999755859</ele>
        <time>2021-03-21T13:49:12.000Z</time>
      </trkpt>
      <trkpt lat="45.01243" lon="6.03938">
        <ele>1566.8000488281</ele>
        <time>2021-03-21T13:49:13.000Z</time>
      </trkpt>
      <trkpt lat="45.01245" lon="6.03938">
        <ele>1567.1999511719</ele>
        <time>2021-03-21T13:49:14.000Z</time>
      </trkpt>
      <trkpt lat="45.01246" lon="6.03938">
        <ele>1567.4000244141</ele>
        <time>2021-03-21T13:49:15.000Z</time>
      </trkpt>
      <trkpt lat="45.01247" lon="6.03938">
        <ele>1567.4000244141</ele>
        <time>2021-03-21T13:49:16.000Z</time>
      </trkpt>
      <trkpt lat="45.01248" lon="6.03938">
        <ele>1567.8000488281</ele>
        <time>2021-03-21T13:49:17.000Z</time>
      </trkpt>
      <trkpt lat="45.0125" lon="6.03938">
        <ele>1568.1999511719</ele>
        <time>2021-03-21T13:49:18.000Z</time>
      </trkpt>
      <trkpt lat="45.01252" lon="6.03939">
        <ele>1568</ele>
        <time>2021-03-21T13:49:19.000Z</time>
      </trkpt>
      <trkpt lat="45.01254" lon="6.03938">
        <ele>1568.8000488281</ele>
        <time>2021-03-21T13:49:20.000Z</time>
      </trkpt>
      <trkpt lat="45.01255" lon="6.03938">
        <ele>1569</ele>
        <time>2021-03-21T13:49:21.000Z</time>
      </trkpt>
      <trkpt lat="45.01257" lon="6.03939">
        <ele>1569</ele>
        <time>2021-03-21T13:49:22.000Z</time>
      </trkpt>
      <trkpt lat="45.01259" lon="6.03939">
        <ele>1569.1999511719</ele>
        <time>2021-03-21T13:49:23.000Z</time>
      </trkpt>
      <trkpt lat="45.0126" lon="6.03939">
        <ele>1569.5999755859</ele>
        <time>2021-03-21T13:49:24.000Z</time>
      </trkpt>
      <trkpt lat="45.01262" lon="6.03939">
        <ele>1569.1999511719</ele>
        <time>2021-03-21T13:49:25.000Z</time>
      </trkpt>
      <trkpt lat="45.01264" lon="6.03939">
        <ele>1569.1999511719</ele>
        <time>2021-03-21T13:49:26.000Z</time>
      </trkpt>
      <trkpt lat="45.01265" lon="6.03939">
        <ele>1570</ele>
        <time>2021-03-21T13:49:27.000Z</time>
      </trkpt>
      <trkpt lat="45.01267" lon="6.03939">
        <ele>1570.8000488281</ele>
        <time>2021-03-21T13:49:28.000Z</time>
      </trkpt>
      <trkpt lat="45.01268" lon="6.0394">
        <ele>1570.8000488281</ele>
        <time>2021-03-21T13:49:29.000Z</time>
      </trkpt>
      <trkpt lat="45.01269" lon="6.03942">
        <ele>1569.1999511719</ele>
        <time>2021-03-21T13:49:30.000Z</time>
      </trkpt>
      <trkpt lat="45.0127" lon="6.03943">
        <ele>1568.1999511719</ele>
        <time>2021-03-21T13:49:31.000Z</time>
      </trkpt>
      <trkpt lat="45.0127" lon="6.03945">
        <ele>1565</ele>
        <time>2021-03-21T13:49:32.000Z</time>
      </trkpt>
      <trkpt lat="45.0127" lon="6.03948">
        <ele>1562.4000244141</ele>
        <time>2021-03-21T13:49:33.000Z</time>
      </trkpt>
      <trkpt lat="45.0127" lon="6.0395">
        <ele>1560</ele>
        <time>2021-03-21T13:49:34.000Z</time>
      </trkpt>
      <trkpt lat="45.01271" lon="6.03951">
        <ele>1558.8000488281</ele>
        <time>2021-03-21T13:49:35.000Z</time>
      </trkpt>
      <trkpt lat="45.01271" lon="6.03952">
        <ele>1557.5999755859</ele>
        <time>2021-03-21T13:49:36.000Z</time>
      </trkpt>
      <trkpt lat="45.01272" lon="6.03953">
        <ele>1556.4000244141</ele>
        <time>2021-03-21T13:49:37.000Z</time>
      </trkpt>
      <trkpt lat="45.01272" lon="6.03954">
        <ele>1556</ele>
        <time>2021-03-21T13:49:38.000Z</time>
      </trkpt>
      <trkpt lat="45.01273" lon="6.03955">
        <ele>1555.1999511719</ele>
        <time>2021-03-21T13:49:39.000Z</time>
      </trkpt>
      <trkpt lat="45.01273" lon="6.03955">
        <ele>1554.4000244141</ele>
        <time>2021-03-21T13:49:40.000Z</time>
      </trkpt>
      <trkpt lat="45.01274" lon="6.03956">
        <ele>1553.5999755859</ele>
        <time>2021-03-21T13:49:41.000Z</time>
      </trkpt>
      <trkpt lat="45.01274" lon="6.03957">
        <ele>1553.1999511719</ele>
        <time>2021-03-21T13:49:42.000Z</time>
      </trkpt>
      <trkpt lat="45.01275" lon="6.03958">
        <ele>1552.1999511719</ele>
        <time>2021-03-21T13:49:43.000Z</time>
      </trkpt>
      <trkpt lat="45.01275" lon="6.03959">
        <ele>1551.5999755859</ele>
        <time>2021-03-21T13:49:44.000Z</time>
      </trkpt>
      <trkpt lat="45.01276" lon="6.0396">
        <ele>1550.4000244141</ele>
        <time>2021-03-21T13:49:45.000Z</time>
      </trkpt>
      <trkpt lat="45.01275" lon="6.03962">
        <ele>1548.1999511719</ele>
        <time>2021-03-21T13:49:46.000Z</time>
      </trkpt>
      <trkpt lat="45.01275" lon="6.03963">
        <ele>1547.1999511719</ele>
        <time>2021-03-21T13:49:47.000Z</time>
      </trkpt>
      <trkpt lat="45.01274" lon="6.03964">
        <ele>1546.4000244141</ele>
        <time>2021-03-21T13:49:48.000Z</time>
      </trkpt>
      <trkpt lat="45.01274" lon="6.03965">
        <ele>1545</ele>
        <time>2021-03-21T13:49:49.000Z</time>
      </trkpt>
      <trkpt lat="45.01273" lon="6.03967">
        <ele>1543.4000244141</ele>
        <time>2021-03-21T13:49:50.000Z</time>
      </trkpt>
      <trkpt lat="45.01273" lon="6.03968">
        <ele>1542</ele>
        <time>2021-03-21T13:49:51.000Z</time>
      </trkpt>
      <trkpt lat="45.01272" lon="6.0397">
        <ele>1540.4000244141</ele>
        <time>2021-03-21T13:49:52.000Z</time>
      </trkpt>
      <trkpt lat="45.01273" lon="6.03971">
        <ele>1540</ele>
        <time>2021-03-21T13:49:53.000Z</time>
      </trkpt>
      <trkpt lat="45.01272" lon="6.03972">
        <ele>1539.1999511719</ele>
        <time>2021-03-21T13:49:54.000Z</time>
      </trkpt>
      <trkpt lat="45.0127" lon="6.03973">
        <ele>1537.8000488281</ele>
        <time>2021-03-21T13:49:55.000Z</time>
      </trkpt>
      <trkpt lat="45.0127" lon="6.03974">
        <ele>1536.8000488281</ele>
        <time>2021-03-21T13:49:56.000Z</time>
      </trkpt>
      <trkpt lat="45.01269" lon="6.03975">
        <ele>1535.4000244141</ele>
        <time>2021-03-21T13:49:57.000Z</time>
      </trkpt>
      <trkpt lat="45.01268" lon="6.03976">
        <ele>1534.1999511719</ele>
        <time>2021-03-21T13:49:58.000Z</time>
      </trkpt>
      <trkpt lat="45.01268" lon="6.03976">
        <ele>1534.4000244141</ele>
        <time>2021-03-21T13:49:59.000Z</time>
      </trkpt>
      <trkpt lat="45.01267" lon="6.03978">
        <ele>1532.5999755859</ele>
        <time>2021-03-21T13:50:00.000Z</time>
      </trkpt>
      <trkpt lat="45.01266" lon="6.0398">
        <ele>1530.8000488281</ele>
        <time>2021-03-21T13:50:01.000Z</time>
      </trkpt>
      <trkpt lat="45.01265" lon="6.03982">
        <ele>1528.5999755859</ele>
        <time>2021-03-21T13:50:02.000Z</time>
      </trkpt>
      <trkpt lat="45.01264" lon="6.03985">
        <ele>1526.4000244141</ele>
        <time>2021-03-21T13:50:03.000Z</time>
      </trkpt>
      <trkpt lat="45.01263" lon="6.03987">
        <ele>1524.4000244141</ele>
        <time>2021-03-21T13:50:04.000Z</time>
      </trkpt>
      <trkpt lat="45.01263" lon="6.03989">
        <ele>1523.1999511719</ele>
        <time>2021-03-21T13:50:05.000Z</time>
      </trkpt>
      <trkpt lat="45.01263" lon="6.0399">
        <ele>1522.5999755859</ele>
        <time>2021-03-21T13:50:06.000Z</time>
      </trkpt>
      <trkpt lat="45.01262" lon="6.0399">
        <ele>1521.8000488281</ele>
        <time>2021-03-21T13:50:07.000Z</time>
      </trkpt>
      <trkpt lat="45.01261" lon="6.0399">
        <ele>1521.4000244141</ele>
        <time>2021-03-21T13:50:08.000Z</time>
      </trkpt>
      <trkpt lat="45.01263" lon="6.0399">
        <ele>1521.8000488281</ele>
        <time>2021-03-21T13:50:09.000Z</time>
      </trkpt>
      <trkpt lat="45.01263" lon="6.03991">
        <ele>1521.5999755859</ele>
        <time>2021-03-21T13:50:10.000Z</time>
      </trkpt>
      <trkpt lat="45.01262" lon="6.03991">
        <ele>1521.1999511719</ele>
        <time>2021-03-21T13:50:11.000Z</time>
      </trkpt>
      <trkpt lat="45.01261" lon="6.03991">
        <ele>1520.8000488281</ele>
        <time>2021-03-21T13:50:12.000Z</time>
      </trkpt>
      <trkpt lat="45.0126" lon="6.03991">
        <ele>1520</ele>
        <time>2021-03-21T13:50:13.000Z</time>
      </trkpt>
      <trkpt lat="45.01258" lon="6.03991">
        <ele>1518.5999755859</ele>
        <time>2021-03-21T13:50:14.000Z</time>
      </trkpt>
      <trkpt lat="45.01257" lon="6.03991">
        <ele>1518.4000244141</ele>
        <time>2021-03-21T13:50:15.000Z</time>
      </trkpt>
      <trkpt lat="45.01258" lon="6.03991">
        <ele>1518.8000488281</ele>
        <time>2021-03-21T13:50:16.000Z</time>
      </trkpt>
      <trkpt lat="45.01257" lon="6.03991">
        <ele>1518.5999755859</ele>
        <time>2021-03-21T13:50:17.000Z</time>
      </trkpt>
      <trkpt lat="45.01257" lon="6.03991">
        <ele>1518.4000244141</ele>
        <time>2021-03-21T13:50:18.000Z</time>
      </trkpt>
      <trkpt lat="45.01256" lon="6.0399">
        <ele>1518.4000244141</ele>
        <time>2021-03-21T13:50:19.000Z</time>
      </trkpt>
      <trkpt lat="45.01255" lon="6.03991">
        <ele>1517.8000488281</ele>
        <time>2021-03-21T13:50:20.000Z</time>
      </trkpt>
      <trkpt lat="45.01254" lon="6.0399">
        <ele>1517.5999755859</ele>
        <time>2021-03-21T13:50:21.000Z</time>
      </trkpt>
      <trkpt lat="45.01254" lon="6.0399">
        <ele>1517.4000244141</ele>
        <time>2021-03-21T13:50:22.000Z</time>
      </trkpt>
      <trkpt lat="45.01254" lon="6.0399">
        <ele>1517.4000244141</ele>
        <time>2021-03-21T13:50:23.000Z</time>
      </trkpt>
      <trkpt lat="45.01253" lon="6.0399">
        <ele>1517</ele>
        <time>2021-03-21T13:50:24.000Z</time>
      </trkpt>
      <trkpt lat="45.01252" lon="6.0399">
        <ele>1516.5999755859</ele>
        <time>2021-03-21T13:50:25.000Z</time>
      </trkpt>
      <trkpt lat="45.01252" lon="6.0399">
        <ele>1516.8000488281</ele>
        <time>2021-03-21T13:50:26.000Z</time>
      </trkpt>
      <trkpt lat="45.0125" lon="6.0399">
        <ele>1516.1999511719</ele>
        <time>2021-03-21T13:50:27.000Z</time>
      </trkpt>
      <trkpt lat="45.01251" lon="6.0399">
        <ele>1516.5999755859</ele>
        <time>2021-03-21T13:50:28.000Z</time>
      </trkpt>
      <trkpt lat="45.0125" lon="6.03989">
        <ele>1516.4000244141</ele>
        <time>2021-03-21T13:50:29.000Z</time>
      </trkpt>
      <trkpt lat="45.0125" lon="6.0399">
        <ele>1516</ele>
        <time>2021-03-21T13:50:30.000Z</time>
      </trkpt>
      <trkpt lat="45.01249" lon="6.0399">
        <ele>1515.1999511719</ele>
        <time>2021-03-21T13:50:31.000Z</time>
      </trkpt>
      <trkpt lat="45.01249" lon="6.0399">
        <ele>1514.8000488281</ele>
        <time>2021-03-21T13:50:32.000Z</time>
      </trkpt>
      <trkpt lat="45.01249" lon="6.03991">
        <ele>1514.1999511719</ele>
        <time>2021-03-21T13:50:33.000Z</time>
      </trkpt>
      <trkpt lat="45.0125" lon="6.03993">
        <ele>1513.5999755859</ele>
        <time>2021-03-21T13:50:34.000Z</time>
      </trkpt>
      <trkpt lat="45.0125" lon="6.03994">
        <ele>1512.8000488281</ele>
        <time>2021-03-21T13:50:35.000Z</time>
      </trkpt>
      <trkpt lat="45.01251" lon="6.03995">
        <ele>1512.4000244141</ele>
        <time>2021-03-21T13:50:36.000Z</time>
      </trkpt>
      <trkpt lat="45.0125" lon="6.03996">
        <ele>1511.1999511719</ele>
        <time>2021-03-21T13:50:37.000Z</time>
      </trkpt>
      <trkpt lat="45.0125" lon="6.03997">
        <ele>1510.4000244141</ele>
        <time>2021-03-21T13:50:38.000Z</time>
      </trkpt>
      <trkpt lat="45.01251" lon="6.03998">
        <ele>1510</ele>
        <time>2021-03-21T13:50:39.000Z</time>
      </trkpt>
      <trkpt lat="45.01252" lon="6.03998">
        <ele>1510.1999511719</ele>
        <time>2021-03-21T13:50:40.000Z</time>
      </trkpt>
      <trkpt lat="45.01254" lon="6.03999">
        <ele>1510.4000244141</ele>
        <time>2021-03-21T13:50:41.000Z</time>
      </trkpt>
      <trkpt lat="45.01256" lon="6.04">
        <ele>1510.8000488281</ele>
        <time>2021-03-21T13:50:42.000Z</time>
      </trkpt>
      <trkpt lat="45.01259" lon="6.04001">
        <ele>1511.8000488281</ele>
        <time>2021-03-21T13:50:43.000Z</time>
      </trkpt>
      <trkpt lat="45.0126" lon="6.04001">
        <ele>1511.8000488281</ele>
        <time>2021-03-21T13:50:44.000Z</time>
      </trkpt>
      <trkpt lat="45.01262" lon="6.04002">
        <ele>1512.4000244141</ele>
        <time>2021-03-21T13:50:45.000Z</time>
      </trkpt>
      <trkpt lat="45.01263" lon="6.04003">
        <ele>1512.1999511719</ele>
        <time>2021-03-21T13:50:46.000Z</time>
      </trkpt>
      <trkpt lat="45.01266" lon="6.04004">
        <ele>1512.5999755859</ele>
        <time>2021-03-21T13:50:47.000Z</time>
      </trkpt>
      <trkpt lat="45.01267" lon="6.04004">
        <ele>1513</ele>
        <time>2021-03-21T13:50:48.000Z</time>
      </trkpt>
      <trkpt lat="45.01268" lon="6.04005">
        <ele>1513.1999511719</ele>
        <time>2021-03-21T13:50:49.000Z</time>
      </trkpt>
      <trkpt lat="45.01269" lon="6.04006">
        <ele>1512.8000488281</ele>
        <time>2021-03-21T13:50:50.000Z</time>
      </trkpt>
      <trkpt lat="45.0127" lon="6.04006">
        <ele>1513</ele>
        <time>2021-03-21T13:50:51.000Z</time>
      </trkpt>
      <trkpt lat="45.0127" lon="6.04007">
        <ele>1513</ele>
        <time>2021-03-21T13:50:52.000Z</time>
      </trkpt>
      <trkpt lat="45.0127" lon="6.04006">
        <ele>1513.1999511719</ele>
        <time>2021-03-21T13:50:53.000Z</time>
      </trkpt>
      <trkpt lat="45.01271" lon="6.04007">
        <ele>1513.4000244141</ele>
        <time>2021-03-21T13:50:54.000Z</time>
      </trkpt>
      <trkpt lat="45.01272" lon="6.04007">
        <ele>1513.5999755859</ele>
        <time>2021-03-21T13:50:55.000Z</time>
      </trkpt>
      <trkpt lat="45.01273" lon="6.04007">
        <ele>1513.5999755859</ele>
        <time>2021-03-21T13:50:56.000Z</time>
      </trkpt>
      <trkpt lat="45.01273" lon="6.04008">
        <ele>1513.4000244141</ele>
        <time>2021-03-21T13:50:57.000Z</time>
      </trkpt>
      <trkpt lat="45.01273" lon="6.04009">
        <ele>1512.8000488281</ele>
        <time>2021-03-21T13:50:58.000Z</time>
      </trkpt>
      <trkpt lat="45.01275" lon="6.04009">
        <ele>1513.1999511719</ele>
        <time>2021-03-21T13:50:59.000Z</time>
      </trkpt>
      <trkpt lat="45.01276" lon="6.04011">
        <ele>1512.8000488281</ele>
        <time>2021-03-21T13:51:00.000Z</time>
      </trkpt>
      <trkpt lat="45.01279" lon="6.04011">
        <ele>1514.5999755859</ele>
        <time>2021-03-21T13:51:01.000Z</time>
      </trkpt>
      <trkpt lat="45.01282" lon="6.04012">
        <ele>1515</ele>
        <time>2021-03-21T13:51:02.000Z</time>
      </trkpt>
      <trkpt lat="45.01286" lon="6.04013">
        <ele>1516.8000488281</ele>
        <time>2021-03-21T13:51:03.000Z</time>
      </trkpt>
      <trkpt lat="45.01288" lon="6.04014">
        <ele>1516.5999755859</ele>
        <time>2021-03-21T13:51:04.000Z</time>
      </trkpt>
      <trkpt lat="45.01291" lon="6.04015">
        <ele>1517</ele>
        <time>2021-03-21T13:51:05.000Z</time>
      </trkpt>
      <trkpt lat="45.01292" lon="6.04017">
        <ele>1517</ele>
        <time>2021-03-21T13:51:06.000Z</time>
      </trkpt>
      <trkpt lat="45.01293" lon="6.04018">
        <ele>1516.8000488281</ele>
        <time>2021-03-21T13:51:07.000Z</time>
      </trkpt>
      <trkpt lat="45.01294" lon="6.04019">
        <ele>1516.8000488281</ele>
        <time>2021-03-21T13:51:08.000Z</time>
      </trkpt>
      <trkpt lat="45.01295" lon="6.0402">
        <ele>1516.8000488281</ele>
        <time>2021-03-21T13:51:09.000Z</time>
      </trkpt>
      <trkpt lat="45.01296" lon="6.04021">
        <ele>1516.8000488281</ele>
        <time>2021-03-21T13:51:10.000Z</time>
      </trkpt>
      <trkpt lat="45.01297" lon="6.04022">
        <ele>1516.5999755859</ele>
        <time>2021-03-21T13:51:11.000Z</time>
      </trkpt>
      <trkpt lat="45.01297" lon="6.04024">
        <ele>1516</ele>
        <time>2021-03-21T13:51:12.000Z</time>
      </trkpt>
      <trkpt lat="45.01297" lon="6.04025">
        <ele>1515.5999755859</ele>
        <time>2021-03-21T13:51:13.000Z</time>
      </trkpt>
      <trkpt lat="45.01297" lon="6.04025">
        <ele>1515.5999755859</ele>
        <time>2021-03-21T13:51:14.000Z</time>
      </trkpt>
      <trkpt lat="45.01297" lon="6.04025">
        <ele>1515.5999755859</ele>
        <time>2021-03-21T13:51:15.000Z</time>
      </trkpt>
      <trkpt lat="45.01297" lon="6.04025">
        <ele>1515.4000244141</ele>
        <time>2021-03-21T13:51:16.000Z</time>
      </trkpt>
      <trkpt lat="45.01297" lon="6.04025">
        <ele>1515.5999755859</ele>
        <time>2021-03-21T13:51:17.000Z</time>
      </trkpt>
      <trkpt lat="45.01298" lon="6.04025">
        <ele>1515.5999755859</ele>
        <time>2021-03-21T13:51:18.000Z</time>
      </trkpt>
      <trkpt lat="45.01298" lon="6.04025">
        <ele>1515.5999755859</ele>
        <time>2021-03-21T13:51:19.000Z</time>
      </trkpt>
      <trkpt lat="45.01298" lon="6.04026">
        <ele>1515.5999755859</ele>
        <time>2021-03-21T13:51:20.000Z</time>
      </trkpt>
      <trkpt lat="45.01298" lon="6.04026">
        <ele>1515.4000244141</ele>
        <time>2021-03-21T13:51:21.000Z</time>
      </trkpt>
      <trkpt lat="45.01298" lon="6.04026">
        <ele>1515.5999755859</ele>
        <time>2021-03-21T13:51:22.000Z</time>
      </trkpt>
      <trkpt lat="45.01298" lon="6.04026">
        <ele>1515.1999511719</ele>
        <time>2021-03-21T13:51:23.000Z</time>
      </trkpt>
      <trkpt lat="45.01297" lon="6.04026">
        <ele>1515.1999511719</ele>
        <time>2021-03-21T13:51:24.000Z</time>
      </trkpt>
      <trkpt lat="45.01297" lon="6.04026">
        <ele>1515</ele>
        <time>2021-03-21T13:51:25.000Z</time>
      </trkpt>
      <trkpt lat="45.01297" lon="6.04026">
        <ele>1514.8000488281</ele>
        <time>2021-03-21T13:51:26.000Z</time>
      </trkpt>
      <trkpt lat="45.01298" lon="6.04027">
        <ele>1515.1999511719</ele>
        <time>2021-03-21T13:51:27.000Z</time>
      </trkpt>
      <trkpt lat="45.01298" lon="6.04027">
        <ele>1514.8000488281</ele>
        <time>2021-03-21T13:51:28.000Z</time>
      </trkpt>
      <trkpt lat="45.01298" lon="6.04028">
        <ele>1514.5999755859</ele>
        <time>2021-03-21T13:51:29.000Z</time>
      </trkpt>
      <trkpt lat="45.01298" lon="6.04029">
        <ele>1514.4000244141</ele>
        <time>2021-03-21T13:51:30.000Z</time>
      </trkpt>
      <trkpt lat="45.01299" lon="6.04029">
        <ele>1514.1999511719</ele>
        <time>2021-03-21T13:51:31.000Z</time>
      </trkpt>
      <trkpt lat="45.01299" lon="6.0403">
        <ele>1514.1999511719</ele>
        <time>2021-03-21T13:51:32.000Z</time>
      </trkpt>
      <trkpt lat="45.013" lon="6.0403">
        <ele>1514.4000244141</ele>
        <time>2021-03-21T13:51:33.000Z</time>
      </trkpt>
      <trkpt lat="45.013" lon="6.0403">
        <ele>1514.5999755859</ele>
        <time>2021-03-21T13:51:34.000Z</time>
      </trkpt>
      <trkpt lat="45.01301" lon="6.0403">
        <ele>1514.5999755859</ele>
        <time>2021-03-21T13:51:35.000Z</time>
      </trkpt>
      <trkpt lat="45.01302" lon="6.0403">
        <ele>1515</ele>
        <time>2021-03-21T13:51:36.000Z</time>
      </trkpt>
      <trkpt lat="45.01302" lon="6.04031">
        <ele>1515</ele>
        <time>2021-03-21T13:51:37.000Z</time>
      </trkpt>
      <trkpt lat="45.01303" lon="6.04031">
        <ele>1515.1999511719</ele>
        <time>2021-03-21T13:51:38.000Z</time>
      </trkpt>
      <trkpt lat="45.01303" lon="6.04031">
        <ele>1515.4000244141</ele>
        <time>2021-03-21T13:51:39.000Z</time>
      </trkpt>
      <trkpt lat="45.01304" lon="6.04031">
        <ele>1515.5999755859</ele>
        <time>2021-03-21T13:51:40.000Z</time>
      </trkpt>
      <trkpt lat="45.01304" lon="6.04031">
        <ele>1515.8000488281</ele>
        <time>2021-03-21T13:51:41.000Z</time>
      </trkpt>
      <trkpt lat="45.01305" lon="6.04031">
        <ele>1516</ele>
        <time>2021-03-21T13:51:42.000Z</time>
      </trkpt>
      <trkpt lat="45.01305" lon="6.04032">
        <ele>1515.8000488281</ele>
        <time>2021-03-21T13:51:43.000Z</time>
      </trkpt>
      <trkpt lat="45.01306" lon="6.04032">
        <ele>1516.1999511719</ele>
        <time>2021-03-21T13:51:44.000Z</time>
      </trkpt>
      <trkpt lat="45.01307" lon="6.04032">
        <ele>1516.5999755859</ele>
        <time>2021-03-21T13:51:45.000Z</time>
      </trkpt>
      <trkpt lat="45.01308" lon="6.04032">
        <ele>1517</ele>
        <time>2021-03-21T13:51:46.000Z</time>
      </trkpt>
      <trkpt lat="45.01308" lon="6.04033">
        <ele>1516.4000244141</ele>
        <time>2021-03-21T13:51:47.000Z</time>
      </trkpt>
      <trkpt lat="45.01308" lon="6.04034">
        <ele>1516</ele>
        <time>2021-03-21T13:51:48.000Z</time>
      </trkpt>
      <trkpt lat="45.01308" lon="6.04036">
        <ele>1515.4000244141</ele>
        <time>2021-03-21T13:51:49.000Z</time>
      </trkpt>
      <trkpt lat="45.01309" lon="6.04036">
        <ele>1515.4000244141</ele>
        <time>2021-03-21T13:51:50.000Z</time>
      </trkpt>
      <trkpt lat="45.01308" lon="6.04038">
        <ele>1514.1999511719</ele>
        <time>2021-03-21T13:51:51.000Z</time>
      </trkpt>
      <trkpt lat="45.01308" lon="6.04039">
        <ele>1513.4000244141</ele>
        <time>2021-03-21T13:51:52.000Z</time>
      </trkpt>
      <trkpt lat="45.01307" lon="6.0404">
        <ele>1513</ele>
        <time>2021-03-21T13:51:53.000Z</time>
      </trkpt>
      <trkpt lat="45.01308" lon="6.04041">
        <ele>1512.5999755859</ele>
        <time>2021-03-21T13:51:54.000Z</time>
      </trkpt>
      <trkpt lat="45.01308" lon="6.04042">
        <ele>1512</ele>
        <time>2021-03-21T13:51:55.000Z</time>
      </trkpt>
      <trkpt lat="45.01308" lon="6.04043">
        <ele>1511.4000244141</ele>
        <time>2021-03-21T13:51:56.000Z</time>
      </trkpt>
      <trkpt lat="45.01308" lon="6.04044">
        <ele>1511.1999511719</ele>
        <time>2021-03-21T13:51:57.000Z</time>
      </trkpt>
      <trkpt lat="45.01309" lon="6.04043">
        <ele>1511.5999755859</ele>
        <time>2021-03-21T13:51:58.000Z</time>
      </trkpt>
      <trkpt lat="45.0131" lon="6.04044">
        <ele>1511.5999755859</ele>
        <time>2021-03-21T13:51:59.000Z</time>
      </trkpt>
      <trkpt lat="45.01311" lon="6.04044">
        <ele>1511.8000488281</ele>
        <time>2021-03-21T13:52:00.000Z</time>
      </trkpt>
      <trkpt lat="45.01311" lon="6.04044">
        <ele>1512</ele>
        <time>2021-03-21T13:52:01.000Z</time>
      </trkpt>
      <trkpt lat="45.01312" lon="6.04044">
        <ele>1511.8000488281</ele>
        <time>2021-03-21T13:52:02.000Z</time>
      </trkpt>
      <trkpt lat="45.01312" lon="6.04045">
        <ele>1511</ele>
        <time>2021-03-21T13:52:03.000Z</time>
      </trkpt>
      <trkpt lat="45.01312" lon="6.04046">
        <ele>1510.4000244141</ele>
        <time>2021-03-21T13:52:04.000Z</time>
      </trkpt>
      <trkpt lat="45.01312" lon="6.04046">
        <ele>1509.8000488281</ele>
        <time>2021-03-21T13:52:05.000Z</time>
      </trkpt>
      <trkpt lat="45.01313" lon="6.04047">
        <ele>1509.5999755859</ele>
        <time>2021-03-21T13:52:06.000Z</time>
      </trkpt>
      <trkpt lat="45.01313" lon="6.04047">
        <ele>1509</ele>
        <time>2021-03-21T13:52:07.000Z</time>
      </trkpt>
      <trkpt lat="45.01313" lon="6.04048">
        <ele>1508.5999755859</ele>
        <time>2021-03-21T13:52:08.000Z</time>
      </trkpt>
      <trkpt lat="45.01314" lon="6.04048">
        <ele>1508.1999511719</ele>
        <time>2021-03-21T13:52:09.000Z</time>
      </trkpt>
      <trkpt lat="45.01314" lon="6.04049">
        <ele>1508.1999511719</ele>
        <time>2021-03-21T13:52:10.000Z</time>
      </trkpt>
      <trkpt lat="45.01315" lon="6.04049">
        <ele>1508</ele>
        <time>2021-03-21T13:52:11.000Z</time>
      </trkpt>
      <trkpt lat="45.01315" lon="6.04049">
        <ele>1508</ele>
        <time>2021-03-21T13:52:12.000Z</time>
      </trkpt>
      <trkpt lat="45.01316" lon="6.04049">
        <ele>1508</ele>
        <time>2021-03-21T13:52:13.000Z</time>
      </trkpt>
      <trkpt lat="45.01317" lon="6.04049">
        <ele>1508.5999755859</ele>
        <time>2021-03-21T13:52:14.000Z</time>
      </trkpt>
      <trkpt lat="45.01317" lon="6.04049">
        <ele>1509.1999511719</ele>
        <time>2021-03-21T13:52:15.000Z</time>
      </trkpt>
      <trkpt lat="45.01318" lon="6.04049">
        <ele>1509</ele>
        <time>2021-03-21T13:52:16.000Z</time>
      </trkpt>
      <trkpt lat="45.01319" lon="6.04049">
        <ele>1509.4000244141</ele>
        <time>2021-03-21T13:52:17.000Z</time>
      </trkpt>
      <trkpt lat="45.01319" lon="6.04049">
        <ele>1509.8000488281</ele>
        <time>2021-03-21T13:52:18.000Z</time>
      </trkpt>
      <trkpt lat="45.01321" lon="6.04049">
        <ele>1510.4000244141</ele>
        <time>2021-03-21T13:52:19.000Z</time>
      </trkpt>
      <trkpt lat="45.01321" lon="6.04049">
        <ele>1510.8000488281</ele>
        <time>2021-03-21T13:52:20.000Z</time>
      </trkpt>
      <trkpt lat="45.01323" lon="6.04048">
        <ele>1512.4000244141</ele>
        <time>2021-03-21T13:52:21.000Z</time>
      </trkpt>
      <trkpt lat="45.01323" lon="6.04049">
        <ele>1512.8000488281</ele>
        <time>2021-03-21T13:52:22.000Z</time>
      </trkpt>
      <trkpt lat="45.01324" lon="6.04048">
        <ele>1513.1999511719</ele>
        <time>2021-03-21T13:52:23.000Z</time>
      </trkpt>
      <trkpt lat="45.01324" lon="6.04049">
        <ele>1513</ele>
        <time>2021-03-21T13:52:24.000Z</time>
      </trkpt>
      <trkpt lat="45.01324" lon="6.04049">
        <ele>1513</ele>
        <time>2021-03-21T13:52:25.000Z</time>
      </trkpt>
      <trkpt lat="45.01325" lon="6.04049">
        <ele>1513</ele>
        <time>2021-03-21T13:52:26.000Z</time>
      </trkpt>
      <trkpt lat="45.01325" lon="6.04049">
        <ele>1513.5999755859</ele>
        <time>2021-03-21T13:52:27.000Z</time>
      </trkpt>
      <trkpt lat="45.01325" lon="6.0405">
        <ele>1513</ele>
        <time>2021-03-21T13:52:28.000Z</time>
      </trkpt>
      <trkpt lat="45.01325" lon="6.0405">
        <ele>1512.1999511719</ele>
        <time>2021-03-21T13:52:29.000Z</time>
      </trkpt>
      <trkpt lat="45.01326" lon="6.0405">
        <ele>1513.1999511719</ele>
        <time>2021-03-21T13:52:30.000Z</time>
      </trkpt>
      <trkpt lat="45.01326" lon="6.04049">
        <ele>1514</ele>
        <time>2021-03-21T13:52:31.000Z</time>
      </trkpt>
      <trkpt lat="45.01327" lon="6.04049">
        <ele>1514.4000244141</ele>
        <time>2021-03-21T13:52:32.000Z</time>
      </trkpt>
      <trkpt lat="45.01327" lon="6.04049">
        <ele>1514.1999511719</ele>
        <time>2021-03-21T13:52:33.000Z</time>
      </trkpt>
      <trkpt lat="45.01327" lon="6.0405">
        <ele>1513.4000244141</ele>
        <time>2021-03-21T13:52:34.000Z</time>
      </trkpt>
      <trkpt lat="45.01328" lon="6.0405">
        <ele>1513.5999755859</ele>
        <time>2021-03-21T13:52:35.000Z</time>
      </trkpt>
      <trkpt lat="45.01328" lon="6.0405">
        <ele>1514.8000488281</ele>
        <time>2021-03-21T13:52:36.000Z</time>
      </trkpt>
      <trkpt lat="45.01329" lon="6.0405">
        <ele>1515.4000244141</ele>
        <time>2021-03-21T13:52:37.000Z</time>
      </trkpt>
      <trkpt lat="45.01329" lon="6.04049">
        <ele>1517</ele>
        <time>2021-03-21T13:52:38.000Z</time>
      </trkpt>
      <trkpt lat="45.0133" lon="6.04048">
        <ele>1518</ele>
        <time>2021-03-21T13:52:39.000Z</time>
      </trkpt>
      <trkpt lat="45.0133" lon="6.04048">
        <ele>1519</ele>
        <time>2021-03-21T13:52:40.000Z</time>
      </trkpt>
      <trkpt lat="45.01331" lon="6.04047">
        <ele>1520.1999511719</ele>
        <time>2021-03-21T13:52:41.000Z</time>
      </trkpt>
      <trkpt lat="45.01331" lon="6.04047">
        <ele>1520.4000244141</ele>
        <time>2021-03-21T13:52:42.000Z</time>
      </trkpt>
      <trkpt lat="45.01331" lon="6.04048">
        <ele>1519.8000488281</ele>
        <time>2021-03-21T13:52:43.000Z</time>
      </trkpt>
      <trkpt lat="45.01331" lon="6.04048">
        <ele>1519.4000244141</ele>
        <time>2021-03-21T13:52:44.000Z</time>
      </trkpt>
      <trkpt lat="45.0133" lon="6.04049">
        <ele>1517.8000488281</ele>
        <time>2021-03-21T13:52:45.000Z</time>
      </trkpt>
      <trkpt lat="45.0133" lon="6.04049">
        <ele>1517.1999511719</ele>
        <time>2021-03-21T13:52:46.000Z</time>
      </trkpt>
      <trkpt lat="45.0133" lon="6.0405">
        <ele>1516.1999511719</ele>
        <time>2021-03-21T13:52:47.000Z</time>
      </trkpt>
      <trkpt lat="45.0133" lon="6.0405">
        <ele>1516</ele>
        <time>2021-03-21T13:52:48.000Z</time>
      </trkpt>
      <trkpt lat="45.0133" lon="6.0405">
        <ele>1515.1999511719</ele>
        <time>2021-03-21T13:52:49.000Z</time>
      </trkpt>
      <trkpt lat="45.0133" lon="6.04051">
        <ele>1514.8000488281</ele>
        <time>2021-03-21T13:52:50.000Z</time>
      </trkpt>
      <trkpt lat="45.0133" lon="6.04051">
        <ele>1514.4000244141</ele>
        <time>2021-03-21T13:52:51.000Z</time>
      </trkpt>
      <trkpt lat="45.0133" lon="6.04052">
        <ele>1512.5999755859</ele>
        <time>2021-03-21T13:52:52.000Z</time>
      </trkpt>
      <trkpt lat="45.01329" lon="6.04053">
        <ele>1511.8000488281</ele>
        <time>2021-03-21T13:52:53.000Z</time>
      </trkpt>
      <trkpt lat="45.01329" lon="6.04053">
        <ele>1511.1999511719</ele>
        <time>2021-03-21T13:52:54.000Z</time>
      </trkpt>
      <trkpt lat="45.01329" lon="6.04054">
        <ele>1511</ele>
        <time>2021-03-21T13:52:55.000Z</time>
      </trkpt>
      <trkpt lat="45.01329" lon="6.04054">
        <ele>1511.1999511719</ele>
        <time>2021-03-21T13:52:56.000Z</time>
      </trkpt>
      <trkpt lat="45.01329" lon="6.04054">
        <ele>1510.1999511719</ele>
        <time>2021-03-21T13:52:57.000Z</time>
      </trkpt>
      <trkpt lat="45.01329" lon="6.04054">
        <ele>1510.1999511719</ele>
        <time>2021-03-21T13:52:58.000Z</time>
      </trkpt>
      <trkpt lat="45.01329" lon="6.04055">
        <ele>1509.8000488281</ele>
        <time>2021-03-21T13:52:59.000Z</time>
      </trkpt>
      <trkpt lat="45.01329" lon="6.04055">
        <ele>1509.4000244141</ele>
        <time>2021-03-21T13:53:00.000Z</time>
      </trkpt>
      <trkpt lat="45.0133" lon="6.04055">
        <ele>1509.4000244141</ele>
        <time>2021-03-21T13:53:01.000Z</time>
      </trkpt>
      <trkpt lat="45.0133" lon="6.04056">
        <ele>1509</ele>
        <time>2021-03-21T13:53:02.000Z</time>
      </trkpt>
      <trkpt lat="45.0133" lon="6.04056">
        <ele>1509.1999511719</ele>
        <time>2021-03-21T13:53:03.000Z</time>
      </trkpt>
      <trkpt lat="45.01331" lon="6.04056">
        <ele>1509.1999511719</ele>
        <time>2021-03-21T13:53:04.000Z</time>
      </trkpt>
      <trkpt lat="45.01331" lon="6.04057">
        <ele>1508.4000244141</ele>
        <time>2021-03-21T13:53:05.000Z</time>
      </trkpt>
      <trkpt lat="45.01332" lon="6.04058">
        <ele>1507.4000244141</ele>
        <time>2021-03-21T13:53:06.000Z</time>
      </trkpt>
      <trkpt lat="45.01332" lon="6.04059">
        <ele>1506.5999755859</ele>
        <time>2021-03-21T13:53:07.000Z</time>
      </trkpt>
      <trkpt lat="45.01333" lon="6.0406">
        <ele>1505.8000488281</ele>
        <time>2021-03-21T13:53:08.000Z</time>
      </trkpt>
      <trkpt lat="45.01332" lon="6.04061">
        <ele>1504.8000488281</ele>
        <time>2021-03-21T13:53:09.000Z</time>
      </trkpt>
      <trkpt lat="45.01333" lon="6.04062">
        <ele>1504.5999755859</ele>
        <time>2021-03-21T13:53:10.000Z</time>
      </trkpt>
      <trkpt lat="45.01333" lon="6.04062">
        <ele>1504.4000244141</ele>
        <time>2021-03-21T13:53:11.000Z</time>
      </trkpt>
      <trkpt lat="45.01333" lon="6.04063">
        <ele>1503.4000244141</ele>
        <time>2021-03-21T13:53:12.000Z</time>
      </trkpt>
      <trkpt lat="45.01333" lon="6.04063">
        <ele>1502.8000488281</ele>
        <time>2021-03-21T13:53:13.000Z</time>
      </trkpt>
      <trkpt lat="45.01334" lon="6.04064">
        <ele>1502.4000244141</ele>
        <time>2021-03-21T13:53:14.000Z</time>
      </trkpt>
      <trkpt lat="45.01335" lon="6.04065">
        <ele>1501.5999755859</ele>
        <time>2021-03-21T13:53:15.000Z</time>
      </trkpt>
      <trkpt lat="45.01335" lon="6.04066">
        <ele>1501.1999511719</ele>
        <time>2021-03-21T13:53:16.000Z</time>
      </trkpt>
      <trkpt lat="45.01336" lon="6.04067">
        <ele>1500.5999755859</ele>
        <time>2021-03-21T13:53:17.000Z</time>
      </trkpt>
      <trkpt lat="45.01337" lon="6.04068">
        <ele>1500</ele>
        <time>2021-03-21T13:53:18.000Z</time>
      </trkpt>
      <trkpt lat="45.01338" lon="6.04069">
        <ele>1499.5999755859</ele>
        <time>2021-03-21T13:53:19.000Z</time>
      </trkpt>
      <trkpt lat="45.01339" lon="6.0407">
        <ele>1499.1999511719</ele>
        <time>2021-03-21T13:53:20.000Z</time>
      </trkpt>
      <trkpt lat="45.01339" lon="6.0407">
        <ele>1498.5999755859</ele>
        <time>2021-03-21T13:53:21.000Z</time>
      </trkpt>
      <trkpt lat="45.01341" lon="6.04072">
        <ele>1499</ele>
        <time>2021-03-21T13:53:22.000Z</time>
      </trkpt>
      <trkpt lat="45.01342" lon="6.04073">
        <ele>1499.1999511719</ele>
        <time>2021-03-21T13:53:23.000Z</time>
      </trkpt>
      <trkpt lat="45.01343" lon="6.04074">
        <ele>1499.5999755859</ele>
        <time>2021-03-21T13:53:24.000Z</time>
      </trkpt>
      <trkpt lat="45.01343" lon="6.04075">
        <ele>1499.5999755859</ele>
        <time>2021-03-21T13:53:25.000Z</time>
      </trkpt>
      <trkpt lat="45.01344" lon="6.04076">
        <ele>1499.5999755859</ele>
        <time>2021-03-21T13:53:26.000Z</time>
      </trkpt>
      <trkpt lat="45.01344" lon="6.04077">
        <ele>1499.4000244141</ele>
        <time>2021-03-21T13:53:27.000Z</time>
      </trkpt>
      <trkpt lat="45.01345" lon="6.04077">
        <ele>1499.5999755859</ele>
        <time>2021-03-21T13:53:28.000Z</time>
      </trkpt>
      <trkpt lat="45.01345" lon="6.04078">
        <ele>1499.4000244141</ele>
        <time>2021-03-21T13:53:29.000Z</time>
      </trkpt>
      <trkpt lat="45.01346" lon="6.04079">
        <ele>1499.4000244141</ele>
        <time>2021-03-21T13:53:30.000Z</time>
      </trkpt>
      <trkpt lat="45.01346" lon="6.0408">
        <ele>1499.1999511719</ele>
        <time>2021-03-21T13:53:31.000Z</time>
      </trkpt>
      <trkpt lat="45.01346" lon="6.04081">
        <ele>1499</ele>
        <time>2021-03-21T13:53:32.000Z</time>
      </trkpt>
      <trkpt lat="45.01347" lon="6.04081">
        <ele>1499.1999511719</ele>
        <time>2021-03-21T13:53:33.000Z</time>
      </trkpt>
      <trkpt lat="45.01347" lon="6.04082">
        <ele>1499.1999511719</ele>
        <time>2021-03-21T13:53:34.000Z</time>
      </trkpt>
      <trkpt lat="45.01348" lon="6.04083">
        <ele>1499</ele>
        <time>2021-03-21T13:53:35.000Z</time>
      </trkpt>
      <trkpt lat="45.01348" lon="6.04084">
        <ele>1499</ele>
        <time>2021-03-21T13:53:36.000Z</time>
      </trkpt>
      <trkpt lat="45.01348" lon="6.04084">
        <ele>1498.8000488281</ele>
        <time>2021-03-21T13:53:37.000Z</time>
      </trkpt>
      <trkpt lat="45.01348" lon="6.04085">
        <ele>1498.8000488281</ele>
        <time>2021-03-21T13:53:38.000Z</time>
      </trkpt>
      <trkpt lat="45.01349" lon="6.04085">
        <ele>1498.8000488281</ele>
        <time>2021-03-21T13:53:39.000Z</time>
      </trkpt>
      <trkpt lat="45.01349" lon="6.04086">
        <ele>1498.8000488281</ele>
        <time>2021-03-21T13:53:40.000Z</time>
      </trkpt>
      <trkpt lat="45.01349" lon="6.04087">
        <ele>1498.8000488281</ele>
        <time>2021-03-21T13:53:41.000Z</time>
      </trkpt>
      <trkpt lat="45.0135" lon="6.04087">
        <ele>1498.8000488281</ele>
        <time>2021-03-21T13:53:42.000Z</time>
      </trkpt>
      <trkpt lat="45.0135" lon="6.04088">
        <ele>1498.8000488281</ele>
        <time>2021-03-21T13:53:43.000Z</time>
      </trkpt>
      <trkpt lat="45.0135" lon="6.04088">
        <ele>1498.8000488281</ele>
        <time>2021-03-21T13:53:44.000Z</time>
      </trkpt>
      <trkpt lat="45.0135" lon="6.04089">
        <ele>1498.8000488281</ele>
        <time>2021-03-21T13:53:45.000Z</time>
      </trkpt>
      <trkpt lat="45.01351" lon="6.04089">
        <ele>1498.8000488281</ele>
        <time>2021-03-21T13:53:46.000Z</time>
      </trkpt>
      <trkpt lat="45.01351" lon="6.0409">
        <ele>1498.8000488281</ele>
        <time>2021-03-21T13:53:47.000Z</time>
      </trkpt>
      <trkpt lat="45.01352" lon="6.04091">
        <ele>1498.8000488281</ele>
        <time>2021-03-21T13:53:48.000Z</time>
      </trkpt>
      <trkpt lat="45.01352" lon="6.04091">
        <ele>1498.5999755859</ele>
        <time>2021-03-21T13:53:49.000Z</time>
      </trkpt>
      <trkpt lat="45.01352" lon="6.04092">
        <ele>1498.5999755859</ele>
        <time>2021-03-21T13:53:50.000Z</time>
      </trkpt>
      <trkpt lat="45.01353" lon="6.04093">
        <ele>1498.1999511719</ele>
        <time>2021-03-21T13:53:51.000Z</time>
      </trkpt>
      <trkpt lat="45.01353" lon="6.04094">
        <ele>1498.4000244141</ele>
        <time>2021-03-21T13:53:52.000Z</time>
      </trkpt>
      <trkpt lat="45.01354" lon="6.04094">
        <ele>1498.5999755859</ele>
        <time>2021-03-21T13:53:53.000Z</time>
      </trkpt>
      <trkpt lat="45.01355" lon="6.04095">
        <ele>1498.8000488281</ele>
        <time>2021-03-21T13:53:54.000Z</time>
      </trkpt>
      <trkpt lat="45.01355" lon="6.04096">
        <ele>1499</ele>
        <time>2021-03-21T13:53:55.000Z</time>
      </trkpt>
      <trkpt lat="45.01356" lon="6.04096">
        <ele>1499.4000244141</ele>
        <time>2021-03-21T13:53:56.000Z</time>
      </trkpt>
      <trkpt lat="45.01357" lon="6.04097">
        <ele>1499.4000244141</ele>
        <time>2021-03-21T13:53:57.000Z</time>
      </trkpt>
      <trkpt lat="45.01357" lon="6.04098">
        <ele>1499.1999511719</ele>
        <time>2021-03-21T13:53:58.000Z</time>
      </trkpt>
      <trkpt lat="45.01358" lon="6.04098">
        <ele>1499.5999755859</ele>
        <time>2021-03-21T13:53:59.000Z</time>
      </trkpt>
      <trkpt lat="45.01358" lon="6.04099">
        <ele>1499.5999755859</ele>
        <time>2021-03-21T13:54:00.000Z</time>
      </trkpt>
      <trkpt lat="45.01359" lon="6.04099">
        <ele>1500</ele>
        <time>2021-03-21T13:54:01.000Z</time>
      </trkpt>
      <trkpt lat="45.01359" lon="6.04099">
        <ele>1500</ele>
        <time>2021-03-21T13:54:02.000Z</time>
      </trkpt>
      <trkpt lat="45.0136" lon="6.04099">
        <ele>1500.4000244141</ele>
        <time>2021-03-21T13:54:03.000Z</time>
      </trkpt>
      <trkpt lat="45.01361" lon="6.041">
        <ele>1500.8000488281</ele>
        <time>2021-03-21T13:54:04.000Z</time>
      </trkpt>
      <trkpt lat="45.01361" lon="6.041">
        <ele>1501</ele>
        <time>2021-03-21T13:54:05.000Z</time>
      </trkpt>
      <trkpt lat="45.01362" lon="6.041">
        <ele>1501.1999511719</ele>
        <time>2021-03-21T13:54:06.000Z</time>
      </trkpt>
      <trkpt lat="45.01362" lon="6.041">
        <ele>1501.8000488281</ele>
        <time>2021-03-21T13:54:07.000Z</time>
      </trkpt>
      <trkpt lat="45.01363" lon="6.041">
        <ele>1502.1999511719</ele>
        <time>2021-03-21T13:54:08.000Z</time>
      </trkpt>
      <trkpt lat="45.01364" lon="6.041">
        <ele>1502.5999755859</ele>
        <time>2021-03-21T13:54:09.000Z</time>
      </trkpt>
      <trkpt lat="45.01365" lon="6.04101">
        <ele>1503</ele>
        <time>2021-03-21T13:54:10.000Z</time>
      </trkpt>
      <trkpt lat="45.01365" lon="6.04101">
        <ele>1503.4000244141</ele>
        <time>2021-03-21T13:54:11.000Z</time>
      </trkpt>
      <trkpt lat="45.01366" lon="6.04101">
        <ele>1503.8000488281</ele>
        <time>2021-03-21T13:54:12.000Z</time>
      </trkpt>
      <trkpt lat="45.01366" lon="6.04101">
        <ele>1504</ele>
        <time>2021-03-21T13:54:13.000Z</time>
      </trkpt>
      <trkpt lat="45.01366" lon="6.041">
        <ele>1504.1999511719</ele>
        <time>2021-03-21T13:54:14.000Z</time>
      </trkpt>
      <trkpt lat="45.01367" lon="6.041">
        <ele>1504.4000244141</ele>
        <time>2021-03-21T13:54:15.000Z</time>
      </trkpt>
      <trkpt lat="45.01366" lon="6.041">
        <ele>1504.4000244141</ele>
        <time>2021-03-21T13:54:16.000Z</time>
      </trkpt>
      <trkpt lat="45.01366" lon="6.041">
        <ele>1504.4000244141</ele>
        <time>2021-03-21T13:54:17.000Z</time>
      </trkpt>
      <trkpt lat="45.01366" lon="6.041">
        <ele>1504.5999755859</ele>
        <time>2021-03-21T13:54:18.000Z</time>
      </trkpt>
      <trkpt lat="45.01366" lon="6.041">
        <ele>1504.5999755859</ele>
        <time>2021-03-21T13:54:19.000Z</time>
      </trkpt>
      <trkpt lat="45.01366" lon="6.041">
        <ele>1504.4000244141</ele>
        <time>2021-03-21T13:54:20.000Z</time>
      </trkpt>
      <trkpt lat="45.01366" lon="6.041">
        <ele>1504.1999511719</ele>
        <time>2021-03-21T13:54:21.000Z</time>
      </trkpt>
      <trkpt lat="45.01366" lon="6.04099">
        <ele>1504.1999511719</ele>
        <time>2021-03-21T13:54:22.000Z</time>
      </trkpt>
      <trkpt lat="45.01366" lon="6.04099">
        <ele>1504.1999511719</ele>
        <time>2021-03-21T13:54:23.000Z</time>
      </trkpt>
      <trkpt lat="45.01366" lon="6.04099">
        <ele>1504.1999511719</ele>
        <time>2021-03-21T13:54:24.000Z</time>
      </trkpt>
      <trkpt lat="45.01366" lon="6.04099">
        <ele>1504.1999511719</ele>
        <time>2021-03-21T13:54:25.000Z</time>
      </trkpt>
      <trkpt lat="45.01366" lon="6.041">
        <ele>1504.5999755859</ele>
        <time>2021-03-21T13:54:26.000Z</time>
      </trkpt>
      <trkpt lat="45.01367" lon="6.041">
        <ele>1504.8000488281</ele>
        <time>2021-03-21T13:54:27.000Z</time>
      </trkpt>
      <trkpt lat="45.01367" lon="6.04099">
        <ele>1505</ele>
        <time>2021-03-21T13:54:28.000Z</time>
      </trkpt>
      <trkpt lat="45.01367" lon="6.041">
        <ele>1505</ele>
        <time>2021-03-21T13:54:29.000Z</time>
      </trkpt>
      <trkpt lat="45.01368" lon="6.041">
        <ele>1505.4000244141</ele>
        <time>2021-03-21T13:54:30.000Z</time>
      </trkpt>
      <trkpt lat="45.01368" lon="6.041">
        <ele>1505.5999755859</ele>
        <time>2021-03-21T13:54:31.000Z</time>
      </trkpt>
      <trkpt lat="45.01369" lon="6.041">
        <ele>1506</ele>
        <time>2021-03-21T13:54:32.000Z</time>
      </trkpt>
      <trkpt lat="45.01369" lon="6.04101">
        <ele>1505.5999755859</ele>
        <time>2021-03-21T13:54:33.000Z</time>
      </trkpt>
      <trkpt lat="45.0137" lon="6.04102">
        <ele>1506.1999511719</ele>
        <time>2021-03-21T13:54:34.000Z</time>
      </trkpt>
      <trkpt lat="45.01371" lon="6.04102">
        <ele>1506.5999755859</ele>
        <time>2021-03-21T13:54:35.000Z</time>
      </trkpt>
      <trkpt lat="45.01373" lon="6.04101">
        <ele>1508</ele>
        <time>2021-03-21T13:54:36.000Z</time>
      </trkpt>
      <trkpt lat="45.01373" lon="6.04101">
        <ele>1508.4000244141</ele>
        <time>2021-03-21T13:54:37.000Z</time>
      </trkpt>
      <trkpt lat="45.01375" lon="6.04101">
        <ele>1509.1999511719</ele>
        <time>2021-03-21T13:54:38.000Z</time>
      </trkpt>
      <trkpt lat="45.01376" lon="6.04102">
        <ele>1509.5999755859</ele>
        <time>2021-03-21T13:54:39.000Z</time>
      </trkpt>
      <trkpt lat="45.01377" lon="6.04102">
        <ele>1510</ele>
        <time>2021-03-21T13:54:40.000Z</time>
      </trkpt>
      <trkpt lat="45.01378" lon="6.04102">
        <ele>1510.1999511719</ele>
        <time>2021-03-21T13:54:41.000Z</time>
      </trkpt>
      <trkpt lat="45.01379" lon="6.04103">
        <ele>1510</ele>
        <time>2021-03-21T13:54:42.000Z</time>
      </trkpt>
      <trkpt lat="45.01379" lon="6.04104">
        <ele>1509.8000488281</ele>
        <time>2021-03-21T13:54:43.000Z</time>
      </trkpt>
      <trkpt lat="45.0138" lon="6.04105">
        <ele>1510</ele>
        <time>2021-03-21T13:54:44.000Z</time>
      </trkpt>
      <trkpt lat="45.01381" lon="6.04105">
        <ele>1510</ele>
        <time>2021-03-21T13:54:45.000Z</time>
      </trkpt>
      <trkpt lat="45.01382" lon="6.04105">
        <ele>1510.4000244141</ele>
        <time>2021-03-21T13:54:46.000Z</time>
      </trkpt>
      <trkpt lat="45.01382" lon="6.04106">
        <ele>1509.8000488281</ele>
        <time>2021-03-21T13:54:47.000Z</time>
      </trkpt>
      <trkpt lat="45.01383" lon="6.04106">
        <ele>1510.1999511719</ele>
        <time>2021-03-21T13:54:48.000Z</time>
      </trkpt>
      <trkpt lat="45.01384" lon="6.04107">
        <ele>1510.5999755859</ele>
        <time>2021-03-21T13:54:49.000Z</time>
      </trkpt>
      <trkpt lat="45.01385" lon="6.04107">
        <ele>1510.4000244141</ele>
        <time>2021-03-21T13:54:50.000Z</time>
      </trkpt>
      <trkpt lat="45.01386" lon="6.04109">
        <ele>1510</ele>
        <time>2021-03-21T13:54:51.000Z</time>
      </trkpt>
      <trkpt lat="45.01386" lon="6.0411">
        <ele>1509.8000488281</ele>
        <time>2021-03-21T13:54:52.000Z</time>
      </trkpt>
      <trkpt lat="45.01387" lon="6.04111">
        <ele>1509.8000488281</ele>
        <time>2021-03-21T13:54:53.000Z</time>
      </trkpt>
      <trkpt lat="45.01388" lon="6.04112">
        <ele>1509.8000488281</ele>
        <time>2021-03-21T13:54:54.000Z</time>
      </trkpt>
      <trkpt lat="45.01389" lon="6.04112">
        <ele>1509.8000488281</ele>
        <time>2021-03-21T13:54:55.000Z</time>
      </trkpt>
      <trkpt lat="45.0139" lon="6.04113">
        <ele>1510</ele>
        <time>2021-03-21T13:54:56.000Z</time>
      </trkpt>
      <trkpt lat="45.0139" lon="6.04114">
        <ele>1509.8000488281</ele>
        <time>2021-03-21T13:54:57.000Z</time>
      </trkpt>
      <trkpt lat="45.01391" lon="6.04114">
        <ele>1510</ele>
        <time>2021-03-21T13:54:58.000Z</time>
      </trkpt>
      <trkpt lat="45.01391" lon="6.04114">
        <ele>1509.8000488281</ele>
        <time>2021-03-21T13:54:59.000Z</time>
      </trkpt>
      <trkpt lat="45.01392" lon="6.04115">
        <ele>1509.8000488281</ele>
        <time>2021-03-21T13:55:00.000Z</time>
      </trkpt>
      <trkpt lat="45.01392" lon="6.04115">
        <ele>1509.8000488281</ele>
        <time>2021-03-21T13:55:01.000Z</time>
      </trkpt>
      <trkpt lat="45.01393" lon="6.04116">
        <ele>1509.8000488281</ele>
        <time>2021-03-21T13:55:02.000Z</time>
      </trkpt>
      <trkpt lat="45.01393" lon="6.04116">
        <ele>1510</ele>
        <time>2021-03-21T13:55:03.000Z</time>
      </trkpt>
      <trkpt lat="45.01394" lon="6.04116">
        <ele>1510</ele>
        <time>2021-03-21T13:55:04.000Z</time>
      </trkpt>
      <trkpt lat="45.01395" lon="6.04116">
        <ele>1510.5999755859</ele>
        <time>2021-03-21T13:55:05.000Z</time>
      </trkpt>
      <trkpt lat="45.01395" lon="6.04116">
        <ele>1510.5999755859</ele>
        <time>2021-03-21T13:55:06.000Z</time>
      </trkpt>
      <trkpt lat="45.01396" lon="6.04117">
        <ele>1510.5999755859</ele>
        <time>2021-03-21T13:55:07.000Z</time>
      </trkpt>
      <trkpt lat="45.01397" lon="6.04118">
        <ele>1510.5999755859</ele>
        <time>2021-03-21T13:55:08.000Z</time>
      </trkpt>
      <trkpt lat="45.01398" lon="6.04118">
        <ele>1510.5999755859</ele>
        <time>2021-03-21T13:55:09.000Z</time>
      </trkpt>
      <trkpt lat="45.01398" lon="6.04119">
        <ele>1510.4000244141</ele>
        <time>2021-03-21T13:55:10.000Z</time>
      </trkpt>
      <trkpt lat="45.01398" lon="6.04119">
        <ele>1510.1999511719</ele>
        <time>2021-03-21T13:55:11.000Z</time>
      </trkpt>
      <trkpt lat="45.01399" lon="6.0412">
        <ele>1510.4000244141</ele>
        <time>2021-03-21T13:55:12.000Z</time>
      </trkpt>
      <trkpt lat="45.01399" lon="6.0412">
        <ele>1510</ele>
        <time>2021-03-21T13:55:13.000Z</time>
      </trkpt>
      <trkpt lat="45.01398" lon="6.0412">
        <ele>1509.8000488281</ele>
        <time>2021-03-21T13:55:14.000Z</time>
      </trkpt>
      <trkpt lat="45.01398" lon="6.0412">
        <ele>1509.8000488281</ele>
        <time>2021-03-21T13:55:15.000Z</time>
      </trkpt>
      <trkpt lat="45.01399" lon="6.04121">
        <ele>1509.8000488281</ele>
        <time>2021-03-21T13:55:16.000Z</time>
      </trkpt>
      <trkpt lat="45.01399" lon="6.04121">
        <ele>1509.5999755859</ele>
        <time>2021-03-21T13:55:17.000Z</time>
      </trkpt>
      <trkpt lat="45.01399" lon="6.04121">
        <ele>1509.5999755859</ele>
        <time>2021-03-21T13:55:18.000Z</time>
      </trkpt>
      <trkpt lat="45.014" lon="6.04122">
        <ele>1509.5999755859</ele>
        <time>2021-03-21T13:55:19.000Z</time>
      </trkpt>
      <trkpt lat="45.01399" lon="6.04122">
        <ele>1509.4000244141</ele>
        <time>2021-03-21T13:55:20.000Z</time>
      </trkpt>
      <trkpt lat="45.014" lon="6.04122">
        <ele>1509.5999755859</ele>
        <time>2021-03-21T13:55:21.000Z</time>
      </trkpt>
      <trkpt lat="45.014" lon="6.04123">
        <ele>1509.1999511719</ele>
        <time>2021-03-21T13:55:22.000Z</time>
      </trkpt>
      <trkpt lat="45.014" lon="6.04124">
        <ele>1508.4000244141</ele>
        <time>2021-03-21T13:55:23.000Z</time>
      </trkpt>
      <trkpt lat="45.01399" lon="6.04125">
        <ele>1508.1999511719</ele>
        <time>2021-03-21T13:55:24.000Z</time>
      </trkpt>
      <trkpt lat="45.01399" lon="6.04125">
        <ele>1507.8000488281</ele>
        <time>2021-03-21T13:55:25.000Z</time>
      </trkpt>
      <trkpt lat="45.01398" lon="6.04125">
        <ele>1507.4000244141</ele>
        <time>2021-03-21T13:55:26.000Z</time>
      </trkpt>
      <trkpt lat="45.01397" lon="6.04125">
        <ele>1507</ele>
        <time>2021-03-21T13:55:27.000Z</time>
      </trkpt>
      <trkpt lat="45.01396" lon="6.04126">
        <ele>1506.5999755859</ele>
        <time>2021-03-21T13:55:28.000Z</time>
      </trkpt>
      <trkpt lat="45.01397" lon="6.04126">
        <ele>1506.4000244141</ele>
        <time>2021-03-21T13:55:29.000Z</time>
      </trkpt>
      <trkpt lat="45.01396" lon="6.04126">
        <ele>1506.1999511719</ele>
        <time>2021-03-21T13:55:30.000Z</time>
      </trkpt>
      <trkpt lat="45.01396" lon="6.04126">
        <ele>1506</ele>
        <time>2021-03-21T13:55:31.000Z</time>
      </trkpt>
      <trkpt lat="45.01396" lon="6.04127">
        <ele>1505.5999755859</ele>
        <time>2021-03-21T13:55:32.000Z</time>
      </trkpt>
      <trkpt lat="45.01395" lon="6.04128">
        <ele>1505.1999511719</ele>
        <time>2021-03-21T13:55:33.000Z</time>
      </trkpt>
      <trkpt lat="45.01394" lon="6.04128">
        <ele>1504.8000488281</ele>
        <time>2021-03-21T13:55:34.000Z</time>
      </trkpt>
      <trkpt lat="45.01395" lon="6.04129">
        <ele>1504.5999755859</ele>
        <time>2021-03-21T13:55:35.000Z</time>
      </trkpt>
      <trkpt lat="45.01394" lon="6.04129">
        <ele>1504.4000244141</ele>
        <time>2021-03-21T13:55:36.000Z</time>
      </trkpt>
      <trkpt lat="45.01394" lon="6.04129">
        <ele>1504.1999511719</ele>
        <time>2021-03-21T13:55:37.000Z</time>
      </trkpt>
      <trkpt lat="45.01395" lon="6.0413">
        <ele>1504.1999511719</ele>
        <time>2021-03-21T13:55:38.000Z</time>
      </trkpt>
      <trkpt lat="45.01395" lon="6.0413">
        <ele>1504.1999511719</ele>
        <time>2021-03-21T13:55:39.000Z</time>
      </trkpt>
      <trkpt lat="45.01395" lon="6.04131">
        <ele>1503.5999755859</ele>
        <time>2021-03-21T13:55:40.000Z</time>
      </trkpt>
      <trkpt lat="45.01395" lon="6.04132">
        <ele>1503.5999755859</ele>
        <time>2021-03-21T13:55:41.000Z</time>
      </trkpt>
      <trkpt lat="45.01397" lon="6.04133">
        <ele>1504</ele>
        <time>2021-03-21T13:55:42.000Z</time>
      </trkpt>
      <trkpt lat="45.01398" lon="6.04133">
        <ele>1504.1999511719</ele>
        <time>2021-03-21T13:55:43.000Z</time>
      </trkpt>
      <trkpt lat="45.01398" lon="6.04134">
        <ele>1504</ele>
        <time>2021-03-21T13:55:44.000Z</time>
      </trkpt>
      <trkpt lat="45.01399" lon="6.04134">
        <ele>1504.1999511719</ele>
        <time>2021-03-21T13:55:45.000Z</time>
      </trkpt>
      <trkpt lat="45.014" lon="6.04135">
        <ele>1504.1999511719</ele>
        <time>2021-03-21T13:55:46.000Z</time>
      </trkpt>
      <trkpt lat="45.014" lon="6.04136">
        <ele>1504</ele>
        <time>2021-03-21T13:55:47.000Z</time>
      </trkpt>
      <trkpt lat="45.014" lon="6.04136">
        <ele>1503.8000488281</ele>
        <time>2021-03-21T13:55:48.000Z</time>
      </trkpt>
      <trkpt lat="45.01401" lon="6.04137">
        <ele>1503.8000488281</ele>
        <time>2021-03-21T13:55:49.000Z</time>
      </trkpt>
      <trkpt lat="45.01401" lon="6.04137">
        <ele>1503.8000488281</ele>
        <time>2021-03-21T13:55:50.000Z</time>
      </trkpt>
      <trkpt lat="45.01401" lon="6.04138">
        <ele>1503.8000488281</ele>
        <time>2021-03-21T13:55:51.000Z</time>
      </trkpt>
      <trkpt lat="45.01403" lon="6.04138">
        <ele>1504</ele>
        <time>2021-03-21T13:55:52.000Z</time>
      </trkpt>
      <trkpt lat="45.01404" lon="6.04139">
        <ele>1504</ele>
        <time>2021-03-21T13:55:53.000Z</time>
      </trkpt>
      <trkpt lat="45.01405" lon="6.0414">
        <ele>1504</ele>
        <time>2021-03-21T13:55:54.000Z</time>
      </trkpt>
      <trkpt lat="45.01408" lon="6.04141">
        <ele>1504.1999511719</ele>
        <time>2021-03-21T13:55:55.000Z</time>
      </trkpt>
      <trkpt lat="45.01409" lon="6.04141">
        <ele>1504.4000244141</ele>
        <time>2021-03-21T13:55:56.000Z</time>
      </trkpt>
      <trkpt lat="45.0141" lon="6.04141">
        <ele>1504.4000244141</ele>
        <time>2021-03-21T13:55:57.000Z</time>
      </trkpt>
      <trkpt lat="45.0141" lon="6.04142">
        <ele>1504.4000244141</ele>
        <time>2021-03-21T13:55:58.000Z</time>
      </trkpt>
      <trkpt lat="45.01411" lon="6.04142">
        <ele>1504.1999511719</ele>
        <time>2021-03-21T13:55:59.000Z</time>
      </trkpt>
      <trkpt lat="45.01415" lon="6.04144">
        <ele>1504.5999755859</ele>
        <time>2021-03-21T13:56:00.000Z</time>
      </trkpt>
      <trkpt lat="45.01415" lon="6.04144">
        <ele>1504.5999755859</ele>
        <time>2021-03-21T13:56:01.000Z</time>
      </trkpt>
      <trkpt lat="45.01416" lon="6.04144">
        <ele>1504.5999755859</ele>
        <time>2021-03-21T13:56:02.000Z</time>
      </trkpt>
      <trkpt lat="45.01417" lon="6.04144">
        <ele>1505</ele>
        <time>2021-03-21T13:56:03.000Z</time>
      </trkpt>
      <trkpt lat="45.01418" lon="6.04145">
        <ele>1505</ele>
        <time>2021-03-21T13:56:04.000Z</time>
      </trkpt>
      <trkpt lat="45.01419" lon="6.04145">
        <ele>1504.8000488281</ele>
        <time>2021-03-21T13:56:05.000Z</time>
      </trkpt>
      <trkpt lat="45.01419" lon="6.04145">
        <ele>1504.8000488281</ele>
        <time>2021-03-21T13:56:06.000Z</time>
      </trkpt>
      <trkpt lat="45.01419" lon="6.04146">
        <ele>1504.4000244141</ele>
        <time>2021-03-21T13:56:07.000Z</time>
      </trkpt>
      <trkpt lat="45.0142" lon="6.04147">
        <ele>1504.4000244141</ele>
        <time>2021-03-21T13:56:08.000Z</time>
      </trkpt>
      <trkpt lat="45.01421" lon="6.04148">
        <ele>1504.4000244141</ele>
        <time>2021-03-21T13:56:09.000Z</time>
      </trkpt>
      <trkpt lat="45.01421" lon="6.04148">
        <ele>1504.1999511719</ele>
        <time>2021-03-21T13:56:10.000Z</time>
      </trkpt>
      <trkpt lat="45.01422" lon="6.04149">
        <ele>1504.1999511719</ele>
        <time>2021-03-21T13:56:11.000Z</time>
      </trkpt>
      <trkpt lat="45.01423" lon="6.04149">
        <ele>1504.1999511719</ele>
        <time>2021-03-21T13:56:12.000Z</time>
      </trkpt>
      <trkpt lat="45.01424" lon="6.0415">
        <ele>1504.1999511719</ele>
        <time>2021-03-21T13:56:13.000Z</time>
      </trkpt>
      <trkpt lat="45.01426" lon="6.04151">
        <ele>1504.1999511719</ele>
        <time>2021-03-21T13:56:14.000Z</time>
      </trkpt>
      <trkpt lat="45.01426" lon="6.04151">
        <ele>1504.1999511719</ele>
        <time>2021-03-21T13:56:15.000Z</time>
      </trkpt>
      <trkpt lat="45.01428" lon="6.04152">
        <ele>1504.1999511719</ele>
        <time>2021-03-21T13:56:16.000Z</time>
      </trkpt>
      <trkpt lat="45.01428" lon="6.04152">
        <ele>1504.4000244141</ele>
        <time>2021-03-21T13:56:17.000Z</time>
      </trkpt>
      <trkpt lat="45.01429" lon="6.04151">
        <ele>1504.5999755859</ele>
        <time>2021-03-21T13:56:18.000Z</time>
      </trkpt>
      <trkpt lat="45.01429" lon="6.04152">
        <ele>1504.5999755859</ele>
        <time>2021-03-21T13:56:19.000Z</time>
      </trkpt>
      <trkpt lat="45.01429" lon="6.04152">
        <ele>1504.5999755859</ele>
        <time>2021-03-21T13:56:20.000Z</time>
      </trkpt>
      <trkpt lat="45.0143" lon="6.04152">
        <ele>1504.5999755859</ele>
        <time>2021-03-21T13:56:21.000Z</time>
      </trkpt>
      <trkpt lat="45.0143" lon="6.04152">
        <ele>1504.5999755859</ele>
        <time>2021-03-21T13:56:22.000Z</time>
      </trkpt>
      <trkpt lat="45.01432" lon="6.04153">
        <ele>1504.5999755859</ele>
        <time>2021-03-21T13:56:23.000Z</time>
      </trkpt>
      <trkpt lat="45.01433" lon="6.04154">
        <ele>1504.8000488281</ele>
        <time>2021-03-21T13:56:24.000Z</time>
      </trkpt>
      <trkpt lat="45.01434" lon="6.04154">
        <ele>1505.1999511719</ele>
        <time>2021-03-21T13:56:25.000Z</time>
      </trkpt>
      <trkpt lat="45.01435" lon="6.04155">
        <ele>1505.4000244141</ele>
        <time>2021-03-21T13:56:26.000Z</time>
      </trkpt>
      <trkpt lat="45.01435" lon="6.04155">
        <ele>1505.4000244141</ele>
        <time>2021-03-21T13:56:27.000Z</time>
      </trkpt>
      <trkpt lat="45.01436" lon="6.04156">
        <ele>1505.5999755859</ele>
        <time>2021-03-21T13:56:28.000Z</time>
      </trkpt>
      <trkpt lat="45.01437" lon="6.04156">
        <ele>1505.8000488281</ele>
        <time>2021-03-21T13:56:29.000Z</time>
      </trkpt>
      <trkpt lat="45.01437" lon="6.04157">
        <ele>1505.5999755859</ele>
        <time>2021-03-21T13:56:30.000Z</time>
      </trkpt>
      <trkpt lat="45.01437" lon="6.04158">
        <ele>1505.5999755859</ele>
        <time>2021-03-21T13:56:31.000Z</time>
      </trkpt>
      <trkpt lat="45.01438" lon="6.04158">
        <ele>1505.8000488281</ele>
        <time>2021-03-21T13:56:32.000Z</time>
      </trkpt>
      <trkpt lat="45.01439" lon="6.04159">
        <ele>1506</ele>
        <time>2021-03-21T13:56:33.000Z</time>
      </trkpt>
      <trkpt lat="45.01439" lon="6.04159">
        <ele>1506.1999511719</ele>
        <time>2021-03-21T13:56:34.000Z</time>
      </trkpt>
      <trkpt lat="45.0144" lon="6.04159">
        <ele>1506.1999511719</ele>
        <time>2021-03-21T13:56:35.000Z</time>
      </trkpt>
      <trkpt lat="45.0144" lon="6.0416">
        <ele>1506.1999511719</ele>
        <time>2021-03-21T13:56:36.000Z</time>
      </trkpt>
      <trkpt lat="45.01441" lon="6.0416">
        <ele>1506.4000244141</ele>
        <time>2021-03-21T13:56:37.000Z</time>
      </trkpt>
      <trkpt lat="45.01441" lon="6.0416">
        <ele>1506.5999755859</ele>
        <time>2021-03-21T13:56:38.000Z</time>
      </trkpt>
      <trkpt lat="45.01442" lon="6.04161">
        <ele>1506.8000488281</ele>
        <time>2021-03-21T13:56:39.000Z</time>
      </trkpt>
      <trkpt lat="45.01442" lon="6.04161">
        <ele>1506.5999755859</ele>
        <time>2021-03-21T13:56:40.000Z</time>
      </trkpt>
      <trkpt lat="45.01443" lon="6.04162">
        <ele>1506.8000488281</ele>
        <time>2021-03-21T13:56:41.000Z</time>
      </trkpt>
      <trkpt lat="45.01443" lon="6.04162">
        <ele>1506.8000488281</ele>
        <time>2021-03-21T13:56:42.000Z</time>
      </trkpt>
      <trkpt lat="45.01443" lon="6.04163">
        <ele>1506.5999755859</ele>
        <time>2021-03-21T13:56:43.000Z</time>
      </trkpt>
      <trkpt lat="45.01443" lon="6.04163">
        <ele>1506.8000488281</ele>
        <time>2021-03-21T13:56:44.000Z</time>
      </trkpt>
      <trkpt lat="45.01444" lon="6.04164">
        <ele>1506.8000488281</ele>
        <time>2021-03-21T13:56:45.000Z</time>
      </trkpt>
      <trkpt lat="45.01446" lon="6.04165">
        <ele>1507.1999511719</ele>
        <time>2021-03-21T13:56:46.000Z</time>
      </trkpt>
      <trkpt lat="45.01446" lon="6.04165">
        <ele>1507.4000244141</ele>
        <time>2021-03-21T13:56:47.000Z</time>
      </trkpt>
      <trkpt lat="45.01447" lon="6.04166">
        <ele>1507.5999755859</ele>
        <time>2021-03-21T13:56:48.000Z</time>
      </trkpt>
      <trkpt lat="45.01448" lon="6.04167">
        <ele>1507.8000488281</ele>
        <time>2021-03-21T13:56:49.000Z</time>
      </trkpt>
      <trkpt lat="45.01449" lon="6.04167">
        <ele>1508</ele>
        <time>2021-03-21T13:56:50.000Z</time>
      </trkpt>
      <trkpt lat="45.01449" lon="6.04168">
        <ele>1508</ele>
        <time>2021-03-21T13:56:51.000Z</time>
      </trkpt>
      <trkpt lat="45.01449" lon="6.04168">
        <ele>1508</ele>
        <time>2021-03-21T13:56:52.000Z</time>
      </trkpt>
      <trkpt lat="45.0145" lon="6.04169">
        <ele>1508.1999511719</ele>
        <time>2021-03-21T13:56:53.000Z</time>
      </trkpt>
      <trkpt lat="45.01451" lon="6.04169">
        <ele>1508.1999511719</ele>
        <time>2021-03-21T13:56:54.000Z</time>
      </trkpt>
      <trkpt lat="45.01451" lon="6.0417">
        <ele>1508.4000244141</ele>
        <time>2021-03-21T13:56:55.000Z</time>
      </trkpt>
      <trkpt lat="45.01452" lon="6.0417">
        <ele>1508.5999755859</ele>
        <time>2021-03-21T13:56:56.000Z</time>
      </trkpt>
      <trkpt lat="45.01452" lon="6.0417">
        <ele>1508.8000488281</ele>
        <time>2021-03-21T13:56:57.000Z</time>
      </trkpt>
      <trkpt lat="45.01453" lon="6.04171">
        <ele>1508.8000488281</ele>
        <time>2021-03-21T13:56:58.000Z</time>
      </trkpt>
      <trkpt lat="45.01453" lon="6.04171">
        <ele>1508.8000488281</ele>
        <time>2021-03-21T13:56:59.000Z</time>
      </trkpt>
      <trkpt lat="45.01453" lon="6.04172">
        <ele>1508.5999755859</ele>
        <time>2021-03-21T13:57:00.000Z</time>
      </trkpt>
      <trkpt lat="45.01453" lon="6.04172">
        <ele>1508.5999755859</ele>
        <time>2021-03-21T13:57:01.000Z</time>
      </trkpt>
      <trkpt lat="45.01453" lon="6.04173">
        <ele>1508.5999755859</ele>
        <time>2021-03-21T13:57:02.000Z</time>
      </trkpt>
      <trkpt lat="45.01453" lon="6.04173">
        <ele>1508.4000244141</ele>
        <time>2021-03-21T13:57:03.000Z</time>
      </trkpt>
      <trkpt lat="45.01453" lon="6.04174">
        <ele>1508.4000244141</ele>
        <time>2021-03-21T13:57:04.000Z</time>
      </trkpt>
      <trkpt lat="45.01453" lon="6.04174">
        <ele>1508.4000244141</ele>
        <time>2021-03-21T13:57:05.000Z</time>
      </trkpt>
      <trkpt lat="45.01454" lon="6.04174">
        <ele>1508.5999755859</ele>
        <time>2021-03-21T13:57:06.000Z</time>
      </trkpt>
      <trkpt lat="45.01454" lon="6.04174">
        <ele>1508.5999755859</ele>
        <time>2021-03-21T13:57:07.000Z</time>
      </trkpt>
      <trkpt lat="45.01455" lon="6.04174">
        <ele>1509</ele>
        <time>2021-03-21T13:57:08.000Z</time>
      </trkpt>
      <trkpt lat="45.01455" lon="6.04175">
        <ele>1509</ele>
        <time>2021-03-21T13:57:09.000Z</time>
      </trkpt>
      <trkpt lat="45.01455" lon="6.04175">
        <ele>1508.8000488281</ele>
        <time>2021-03-21T13:57:10.000Z</time>
      </trkpt>
      <trkpt lat="45.01455" lon="6.04175">
        <ele>1508.8000488281</ele>
        <time>2021-03-21T13:57:11.000Z</time>
      </trkpt>
      <trkpt lat="45.01455" lon="6.04176">
        <ele>1508.8000488281</ele>
        <time>2021-03-21T13:57:12.000Z</time>
      </trkpt>
      <trkpt lat="45.01456" lon="6.04176">
        <ele>1509</ele>
        <time>2021-03-21T13:57:13.000Z</time>
      </trkpt>
      <trkpt lat="45.01455" lon="6.04177">
        <ele>1508.5999755859</ele>
        <time>2021-03-21T13:57:14.000Z</time>
      </trkpt>
      <trkpt lat="45.01456" lon="6.04177">
        <ele>1508.8000488281</ele>
        <time>2021-03-21T13:57:15.000Z</time>
      </trkpt>
      <trkpt lat="45.01456" lon="6.04177">
        <ele>1508.8000488281</ele>
        <time>2021-03-21T13:57:16.000Z</time>
      </trkpt>
      <trkpt lat="45.01456" lon="6.04178">
        <ele>1508.5999755859</ele>
        <time>2021-03-21T13:57:17.000Z</time>
      </trkpt>
      <trkpt lat="45.01456" lon="6.04178">
        <ele>1508.5999755859</ele>
        <time>2021-03-21T13:57:18.000Z</time>
      </trkpt>
      <trkpt lat="45.01456" lon="6.04178">
        <ele>1508.5999755859</ele>
        <time>2021-03-21T13:57:19.000Z</time>
      </trkpt>
      <trkpt lat="45.01456" lon="6.04178">
        <ele>1508.5999755859</ele>
        <time>2021-03-21T13:57:20.000Z</time>
      </trkpt>
      <trkpt lat="45.01457" lon="6.04179">
        <ele>1508.8000488281</ele>
        <time>2021-03-21T13:57:21.000Z</time>
      </trkpt>
      <trkpt lat="45.0146" lon="6.0418">
        <ele>1509.8000488281</ele>
        <time>2021-03-21T13:57:22.000Z</time>
      </trkpt>
      <trkpt lat="45.01461" lon="6.0418">
        <ele>1509.8000488281</ele>
        <time>2021-03-21T13:57:23.000Z</time>
      </trkpt>
      <trkpt lat="45.01463" lon="6.04181">
        <ele>1510.4000244141</ele>
        <time>2021-03-21T13:57:24.000Z</time>
      </trkpt>
      <trkpt lat="45.01464" lon="6.04181">
        <ele>1510.4000244141</ele>
        <time>2021-03-21T13:57:25.000Z</time>
      </trkpt>
      <trkpt lat="45.01465" lon="6.04181">
        <ele>1510.5999755859</ele>
        <time>2021-03-21T13:57:26.000Z</time>
      </trkpt>
      <trkpt lat="45.01466" lon="6.04182">
        <ele>1510.8000488281</ele>
        <time>2021-03-21T13:57:27.000Z</time>
      </trkpt>
      <trkpt lat="45.01468" lon="6.04183">
        <ele>1511</ele>
        <time>2021-03-21T13:57:28.000Z</time>
      </trkpt>
      <trkpt lat="45.01469" lon="6.04183">
        <ele>1511.1999511719</ele>
        <time>2021-03-21T13:57:29.000Z</time>
      </trkpt>
      <trkpt lat="45.0147" lon="6.04184">
        <ele>1511.1999511719</ele>
        <time>2021-03-21T13:57:30.000Z</time>
      </trkpt>
      <trkpt lat="45.01471" lon="6.04184">
        <ele>1511.4000244141</ele>
        <time>2021-03-21T13:57:31.000Z</time>
      </trkpt>
      <trkpt lat="45.01472" lon="6.04185">
        <ele>1511.5999755859</ele>
        <time>2021-03-21T13:57:32.000Z</time>
      </trkpt>
      <trkpt lat="45.01474" lon="6.04185">
        <ele>1512</ele>
        <time>2021-03-21T13:57:33.000Z</time>
      </trkpt>
      <trkpt lat="45.01475" lon="6.04185">
        <ele>1512.1999511719</ele>
        <time>2021-03-21T13:57:34.000Z</time>
      </trkpt>
      <trkpt lat="45.01475" lon="6.04185">
        <ele>1512.4000244141</ele>
        <time>2021-03-21T13:57:35.000Z</time>
      </trkpt>
      <trkpt lat="45.01476" lon="6.04185">
        <ele>1512.5999755859</ele>
        <time>2021-03-21T13:57:36.000Z</time>
      </trkpt>
      <trkpt lat="45.01477" lon="6.04185">
        <ele>1512.5999755859</ele>
        <time>2021-03-21T13:57:37.000Z</time>
      </trkpt>
      <trkpt lat="45.01478" lon="6.04185">
        <ele>1512.8000488281</ele>
        <time>2021-03-21T13:57:38.000Z</time>
      </trkpt>
      <trkpt lat="45.01478" lon="6.04185">
        <ele>1513</ele>
        <time>2021-03-21T13:57:39.000Z</time>
      </trkpt>
      <trkpt lat="45.01478" lon="6.04185">
        <ele>1513</ele>
        <time>2021-03-21T13:57:40.000Z</time>
      </trkpt>
      <trkpt lat="45.01479" lon="6.04186">
        <ele>1513</ele>
        <time>2021-03-21T13:57:41.000Z</time>
      </trkpt>
      <trkpt lat="45.01478" lon="6.04186">
        <ele>1512.8000488281</ele>
        <time>2021-03-21T13:57:42.000Z</time>
      </trkpt>
      <trkpt lat="45.01478" lon="6.04186">
        <ele>1513</ele>
        <time>2021-03-21T13:57:43.000Z</time>
      </trkpt>
      <trkpt lat="45.01479" lon="6.04186">
        <ele>1512.8000488281</ele>
        <time>2021-03-21T13:57:44.000Z</time>
      </trkpt>
      <trkpt lat="45.01479" lon="6.04186">
        <ele>1513</ele>
        <time>2021-03-21T13:57:45.000Z</time>
      </trkpt>
      <trkpt lat="45.0148" lon="6.04186">
        <ele>1513.1999511719</ele>
        <time>2021-03-21T13:57:46.000Z</time>
      </trkpt>
      <trkpt lat="45.0148" lon="6.04186">
        <ele>1513.1999511719</ele>
        <time>2021-03-21T13:57:47.000Z</time>
      </trkpt>
      <trkpt lat="45.0148" lon="6.04186">
        <ele>1513.1999511719</ele>
        <time>2021-03-21T13:57:48.000Z</time>
      </trkpt>
      <trkpt lat="45.0148" lon="6.04186">
        <ele>1513.1999511719</ele>
        <time>2021-03-21T13:57:49.000Z</time>
      </trkpt>
      <trkpt lat="45.01481" lon="6.04187">
        <ele>1513.4000244141</ele>
        <time>2021-03-21T13:57:50.000Z</time>
      </trkpt>
      <trkpt lat="45.01481" lon="6.04186">
        <ele>1513.4000244141</ele>
        <time>2021-03-21T13:57:51.000Z</time>
      </trkpt>
      <trkpt lat="45.01482" lon="6.04187">
        <ele>1513.4000244141</ele>
        <time>2021-03-21T13:57:52.000Z</time>
      </trkpt>
      <trkpt lat="45.01482" lon="6.04187">
        <ele>1513.4000244141</ele>
        <time>2021-03-21T13:57:53.000Z</time>
      </trkpt>
      <trkpt lat="45.01483" lon="6.04187">
        <ele>1513.5999755859</ele>
        <time>2021-03-21T13:57:54.000Z</time>
      </trkpt>
      <trkpt lat="45.01483" lon="6.04187">
        <ele>1513.8000488281</ele>
        <time>2021-03-21T13:57:55.000Z</time>
      </trkpt>
      <trkpt lat="45.01485" lon="6.04188">
        <ele>1514</ele>
        <time>2021-03-21T13:57:56.000Z</time>
      </trkpt>
      <trkpt lat="45.01485" lon="6.04188">
        <ele>1514</ele>
        <time>2021-03-21T13:57:57.000Z</time>
      </trkpt>
      <trkpt lat="45.01486" lon="6.04188">
        <ele>1514.1999511719</ele>
        <time>2021-03-21T13:57:58.000Z</time>
      </trkpt>
      <trkpt lat="45.01487" lon="6.04188">
        <ele>1514.4000244141</ele>
        <time>2021-03-21T13:57:59.000Z</time>
      </trkpt>
      <trkpt lat="45.01488" lon="6.04188">
        <ele>1514.5999755859</ele>
        <time>2021-03-21T13:58:00.000Z</time>
      </trkpt>
      <trkpt lat="45.01488" lon="6.04188">
        <ele>1514.8000488281</ele>
        <time>2021-03-21T13:58:01.000Z</time>
      </trkpt>
      <trkpt lat="45.0149" lon="6.04189">
        <ele>1515</ele>
        <time>2021-03-21T13:58:02.000Z</time>
      </trkpt>
      <trkpt lat="45.01491" lon="6.04188">
        <ele>1515.1999511719</ele>
        <time>2021-03-21T13:58:03.000Z</time>
      </trkpt>
      <trkpt lat="45.01492" lon="6.04188">
        <ele>1515.4000244141</ele>
        <time>2021-03-21T13:58:04.000Z</time>
      </trkpt>
      <trkpt lat="45.01493" lon="6.04188">
        <ele>1515.5999755859</ele>
        <time>2021-03-21T13:58:05.000Z</time>
      </trkpt>
      <trkpt lat="45.01493" lon="6.04188">
        <ele>1515.8000488281</ele>
        <time>2021-03-21T13:58:06.000Z</time>
      </trkpt>
      <trkpt lat="45.01494" lon="6.04188">
        <ele>1515.8000488281</ele>
        <time>2021-03-21T13:58:07.000Z</time>
      </trkpt>
      <trkpt lat="45.01495" lon="6.04189">
        <ele>1515.8000488281</ele>
        <time>2021-03-21T13:58:08.000Z</time>
      </trkpt>
      <trkpt lat="45.01496" lon="6.04189">
        <ele>1515.8000488281</ele>
        <time>2021-03-21T13:58:09.000Z</time>
      </trkpt>
      <trkpt lat="45.01497" lon="6.04188">
        <ele>1516</ele>
        <time>2021-03-21T13:58:10.000Z</time>
      </trkpt>
      <trkpt lat="45.01498" lon="6.04188">
        <ele>1516</ele>
        <time>2021-03-21T13:58:11.000Z</time>
      </trkpt>
      <trkpt lat="45.01499" lon="6.04188">
        <ele>1516</ele>
        <time>2021-03-21T13:58:12.000Z</time>
      </trkpt>
      <trkpt lat="45.015" lon="6.04188">
        <ele>1516</ele>
        <time>2021-03-21T13:58:13.000Z</time>
      </trkpt>
      <trkpt lat="45.01502" lon="6.04188">
        <ele>1516</ele>
        <time>2021-03-21T13:58:14.000Z</time>
      </trkpt>
      <trkpt lat="45.01502" lon="6.04188">
        <ele>1516</ele>
        <time>2021-03-21T13:58:15.000Z</time>
      </trkpt>
      <trkpt lat="45.01504" lon="6.04189">
        <ele>1516.1999511719</ele>
        <time>2021-03-21T13:58:16.000Z</time>
      </trkpt>
      <trkpt lat="45.01505" lon="6.04188">
        <ele>1516.1999511719</ele>
        <time>2021-03-21T13:58:17.000Z</time>
      </trkpt>
      <trkpt lat="45.01506" lon="6.04189">
        <ele>1516.1999511719</ele>
        <time>2021-03-21T13:58:18.000Z</time>
      </trkpt>
      <trkpt lat="45.01506" lon="6.04189">
        <ele>1516.1999511719</ele>
        <time>2021-03-21T13:58:19.000Z</time>
      </trkpt>
      <trkpt lat="45.01507" lon="6.0419">
        <ele>1516.1999511719</ele>
        <time>2021-03-21T13:58:20.000Z</time>
      </trkpt>
      <trkpt lat="45.01508" lon="6.04189">
        <ele>1516.1999511719</ele>
        <time>2021-03-21T13:58:21.000Z</time>
      </trkpt>
      <trkpt lat="45.01508" lon="6.04189">
        <ele>1516.1999511719</ele>
        <time>2021-03-21T13:58:22.000Z</time>
      </trkpt>
      <trkpt lat="45.01508" lon="6.04188">
        <ele>1516.1999511719</ele>
        <time>2021-03-21T13:58:23.000Z</time>
      </trkpt>
      <trkpt lat="45.01509" lon="6.04188">
        <ele>1516.4000244141</ele>
        <time>2021-03-21T13:58:24.000Z</time>
      </trkpt>
      <trkpt lat="45.01509" lon="6.04188">
        <ele>1516.4000244141</ele>
        <time>2021-03-21T13:58:25.000Z</time>
      </trkpt>
      <trkpt lat="45.01509" lon="6.04189">
        <ele>1516.4000244141</ele>
        <time>2021-03-21T13:58:26.000Z</time>
      </trkpt>
      <trkpt lat="45.0151" lon="6.04189">
        <ele>1516.4000244141</ele>
        <time>2021-03-21T13:58:27.000Z</time>
      </trkpt>
      <trkpt lat="45.01511" lon="6.04188">
        <ele>1516.4000244141</ele>
        <time>2021-03-21T13:58:28.000Z</time>
      </trkpt>
      <trkpt lat="45.01512" lon="6.04188">
        <ele>1516.4000244141</ele>
        <time>2021-03-21T13:58:29.000Z</time>
      </trkpt>
      <trkpt lat="45.01513" lon="6.04188">
        <ele>1516.5999755859</ele>
        <time>2021-03-21T13:58:30.000Z</time>
      </trkpt>
      <trkpt lat="45.01513" lon="6.04187">
        <ele>1516.5999755859</ele>
        <time>2021-03-21T13:58:31.000Z</time>
      </trkpt>
      <trkpt lat="45.01514" lon="6.04187">
        <ele>1516.5999755859</ele>
        <time>2021-03-21T13:58:32.000Z</time>
      </trkpt>
      <trkpt lat="45.01515" lon="6.04187">
        <ele>1516.5999755859</ele>
        <time>2021-03-21T13:58:33.000Z</time>
      </trkpt>
      <trkpt lat="45.01516" lon="6.04186">
        <ele>1516.5999755859</ele>
        <time>2021-03-21T13:58:34.000Z</time>
      </trkpt>
      <trkpt lat="45.01517" lon="6.04186">
        <ele>1516.5999755859</ele>
        <time>2021-03-21T13:58:35.000Z</time>
      </trkpt>
      <trkpt lat="45.01518" lon="6.04186">
        <ele>1516.4000244141</ele>
        <time>2021-03-21T13:58:36.000Z</time>
      </trkpt>
      <trkpt lat="45.01519" lon="6.04184">
        <ele>1516.5999755859</ele>
        <time>2021-03-21T13:58:37.000Z</time>
      </trkpt>
      <trkpt lat="45.0152" lon="6.04184">
        <ele>1516.8000488281</ele>
        <time>2021-03-21T13:58:38.000Z</time>
      </trkpt>
      <trkpt lat="45.01521" lon="6.04183">
        <ele>1516.8000488281</ele>
        <time>2021-03-21T13:58:39.000Z</time>
      </trkpt>
      <trkpt lat="45.01521" lon="6.04182">
        <ele>1517</ele>
        <time>2021-03-21T13:58:40.000Z</time>
      </trkpt>
      <trkpt lat="45.01522" lon="6.04182">
        <ele>1517</ele>
        <time>2021-03-21T13:58:41.000Z</time>
      </trkpt>
      <trkpt lat="45.01523" lon="6.04181">
        <ele>1517</ele>
        <time>2021-03-21T13:58:42.000Z</time>
      </trkpt>
      <trkpt lat="45.01524" lon="6.04182">
        <ele>1517</ele>
        <time>2021-03-21T13:58:43.000Z</time>
      </trkpt>
      <trkpt lat="45.01526" lon="6.04182">
        <ele>1517</ele>
        <time>2021-03-21T13:58:44.000Z</time>
      </trkpt>
      <trkpt lat="45.01527" lon="6.04182">
        <ele>1517</ele>
        <time>2021-03-21T13:58:45.000Z</time>
      </trkpt>
      <trkpt lat="45.01527" lon="6.04182">
        <ele>1517</ele>
        <time>2021-03-21T13:58:46.000Z</time>
      </trkpt>
      <trkpt lat="45.01529" lon="6.04181">
        <ele>1517</ele>
        <time>2021-03-21T13:58:47.000Z</time>
      </trkpt>
      <trkpt lat="45.0153" lon="6.04181">
        <ele>1517</ele>
        <time>2021-03-21T13:58:48.000Z</time>
      </trkpt>
      <trkpt lat="45.01531" lon="6.04181">
        <ele>1517</ele>
        <time>2021-03-21T13:58:49.000Z</time>
      </trkpt>
      <trkpt lat="45.01532" lon="6.0418">
        <ele>1517</ele>
        <time>2021-03-21T13:58:50.000Z</time>
      </trkpt>
      <trkpt lat="45.01533" lon="6.0418">
        <ele>1517</ele>
        <time>2021-03-21T13:58:51.000Z</time>
      </trkpt>
      <trkpt lat="45.01533" lon="6.04179">
        <ele>1517</ele>
        <time>2021-03-21T13:58:52.000Z</time>
      </trkpt>
      <trkpt lat="45.01534" lon="6.04179">
        <ele>1517.1999511719</ele>
        <time>2021-03-21T13:58:53.000Z</time>
      </trkpt>
      <trkpt lat="45.01535" lon="6.04178">
        <ele>1517.1999511719</ele>
        <time>2021-03-21T13:58:54.000Z</time>
      </trkpt>
      <trkpt lat="45.01536" lon="6.04177">
        <ele>1517.1999511719</ele>
        <time>2021-03-21T13:58:55.000Z</time>
      </trkpt>
      <trkpt lat="45.01537" lon="6.04176">
        <ele>1517.4000244141</ele>
        <time>2021-03-21T13:58:56.000Z</time>
      </trkpt>
      <trkpt lat="45.01537" lon="6.04175">
        <ele>1517.4000244141</ele>
        <time>2021-03-21T13:58:57.000Z</time>
      </trkpt>
      <trkpt lat="45.01538" lon="6.04174">
        <ele>1517.5999755859</ele>
        <time>2021-03-21T13:58:58.000Z</time>
      </trkpt>
      <trkpt lat="45.01539" lon="6.04174">
        <ele>1517.8000488281</ele>
        <time>2021-03-21T13:58:59.000Z</time>
      </trkpt>
      <trkpt lat="45.01539" lon="6.04174">
        <ele>1517.8000488281</ele>
        <time>2021-03-21T13:59:00.000Z</time>
      </trkpt>
      <trkpt lat="45.0154" lon="6.04173">
        <ele>1518</ele>
        <time>2021-03-21T13:59:01.000Z</time>
      </trkpt>
      <trkpt lat="45.0154" lon="6.04173">
        <ele>1518</ele>
        <time>2021-03-21T13:59:02.000Z</time>
      </trkpt>
      <trkpt lat="45.01541" lon="6.04173">
        <ele>1518</ele>
        <time>2021-03-21T13:59:03.000Z</time>
      </trkpt>
      <trkpt lat="45.01542" lon="6.04173">
        <ele>1518.1999511719</ele>
        <time>2021-03-21T13:59:04.000Z</time>
      </trkpt>
      <trkpt lat="45.01542" lon="6.04172">
        <ele>1518.4000244141</ele>
        <time>2021-03-21T13:59:05.000Z</time>
      </trkpt>
      <trkpt lat="45.01543" lon="6.04172">
        <ele>1518.4000244141</ele>
        <time>2021-03-21T13:59:06.000Z</time>
      </trkpt>
      <trkpt lat="45.01544" lon="6.04171">
        <ele>1518.5999755859</ele>
        <time>2021-03-21T13:59:07.000Z</time>
      </trkpt>
      <trkpt lat="45.01545" lon="6.0417">
        <ele>1518.8000488281</ele>
        <time>2021-03-21T13:59:08.000Z</time>
      </trkpt>
      <trkpt lat="45.01545" lon="6.0417">
        <ele>1518.8000488281</ele>
        <time>2021-03-21T13:59:09.000Z</time>
      </trkpt>
      <trkpt lat="45.01546" lon="6.04169">
        <ele>1519</ele>
        <time>2021-03-21T13:59:10.000Z</time>
      </trkpt>
      <trkpt lat="45.01547" lon="6.04169">
        <ele>1519</ele>
        <time>2021-03-21T13:59:11.000Z</time>
      </trkpt>
      <trkpt lat="45.01546" lon="6.04169">
        <ele>1519</ele>
        <time>2021-03-21T13:59:12.000Z</time>
      </trkpt>
      <trkpt lat="45.01546" lon="6.04169">
        <ele>1519</ele>
        <time>2021-03-21T13:59:13.000Z</time>
      </trkpt>
      <trkpt lat="45.01546" lon="6.04169">
        <ele>1519</ele>
        <time>2021-03-21T13:59:14.000Z</time>
      </trkpt>
      <trkpt lat="45.01547" lon="6.04169">
        <ele>1519</ele>
        <time>2021-03-21T13:59:15.000Z</time>
      </trkpt>
      <trkpt lat="45.01546" lon="6.04168">
        <ele>1519</ele>
        <time>2021-03-21T13:59:16.000Z</time>
      </trkpt>
      <trkpt lat="45.01547" lon="6.04168">
        <ele>1519.1999511719</ele>
        <time>2021-03-21T13:59:17.000Z</time>
      </trkpt>
      <trkpt lat="45.01548" lon="6.04168">
        <ele>1519.1999511719</ele>
        <time>2021-03-21T13:59:18.000Z</time>
      </trkpt>
      <trkpt lat="45.01549" lon="6.04166">
        <ele>1519.4000244141</ele>
        <time>2021-03-21T13:59:19.000Z</time>
      </trkpt>
      <trkpt lat="45.0155" lon="6.04166">
        <ele>1519.5999755859</ele>
        <time>2021-03-21T13:59:20.000Z</time>
      </trkpt>
      <trkpt lat="45.01551" lon="6.04165">
        <ele>1519.8000488281</ele>
        <time>2021-03-21T13:59:21.000Z</time>
      </trkpt>
      <trkpt lat="45.01552" lon="6.04164">
        <ele>1519.8000488281</ele>
        <time>2021-03-21T13:59:22.000Z</time>
      </trkpt>
      <trkpt lat="45.01553" lon="6.04164">
        <ele>1520</ele>
        <time>2021-03-21T13:59:23.000Z</time>
      </trkpt>
      <trkpt lat="45.01553" lon="6.04163">
        <ele>1520.1999511719</ele>
        <time>2021-03-21T13:59:24.000Z</time>
      </trkpt>
      <trkpt lat="45.01553" lon="6.04164">
        <ele>1520.1999511719</ele>
        <time>2021-03-21T13:59:25.000Z</time>
      </trkpt>
      <trkpt lat="45.01554" lon="6.04163">
        <ele>1520.4000244141</ele>
        <time>2021-03-21T13:59:26.000Z</time>
      </trkpt>
      <trkpt lat="45.01555" lon="6.04163">
        <ele>1520.5999755859</ele>
        <time>2021-03-21T13:59:27.000Z</time>
      </trkpt>
      <trkpt lat="45.01556" lon="6.04162">
        <ele>1520.8000488281</ele>
        <time>2021-03-21T13:59:28.000Z</time>
      </trkpt>
      <trkpt lat="45.01557" lon="6.04162">
        <ele>1520.8000488281</ele>
        <time>2021-03-21T13:59:29.000Z</time>
      </trkpt>
      <trkpt lat="45.01558" lon="6.04162">
        <ele>1521</ele>
        <time>2021-03-21T13:59:30.000Z</time>
      </trkpt>
      <trkpt lat="45.01559" lon="6.04161">
        <ele>1521.4000244141</ele>
        <time>2021-03-21T13:59:31.000Z</time>
      </trkpt>
      <trkpt lat="45.0156" lon="6.04161">
        <ele>1521.4000244141</ele>
        <time>2021-03-21T13:59:32.000Z</time>
      </trkpt>
      <trkpt lat="45.0156" lon="6.04161">
        <ele>1521.4000244141</ele>
        <time>2021-03-21T13:59:33.000Z</time>
      </trkpt>
      <trkpt lat="45.0156" lon="6.04161">
        <ele>1521.4000244141</ele>
        <time>2021-03-21T13:59:34.000Z</time>
      </trkpt>
      <trkpt lat="45.01561" lon="6.04161">
        <ele>1521.5999755859</ele>
        <time>2021-03-21T13:59:35.000Z</time>
      </trkpt>
      <trkpt lat="45.01561" lon="6.0416">
        <ele>1521.8000488281</ele>
        <time>2021-03-21T13:59:36.000Z</time>
      </trkpt>
      <trkpt lat="45.01561" lon="6.0416">
        <ele>1521.8000488281</ele>
        <time>2021-03-21T13:59:37.000Z</time>
      </trkpt>
      <trkpt lat="45.01562" lon="6.0416">
        <ele>1522</ele>
        <time>2021-03-21T13:59:38.000Z</time>
      </trkpt>
      <trkpt lat="45.01563" lon="6.0416">
        <ele>1522</ele>
        <time>2021-03-21T13:59:39.000Z</time>
      </trkpt>
      <trkpt lat="45.01563" lon="6.0416">
        <ele>1522</ele>
        <time>2021-03-21T13:59:40.000Z</time>
      </trkpt>
      <trkpt lat="45.01564" lon="6.0416">
        <ele>1522</ele>
        <time>2021-03-21T13:59:41.000Z</time>
      </trkpt>
      <trkpt lat="45.01564" lon="6.04159">
        <ele>1522.4000244141</ele>
        <time>2021-03-21T13:59:42.000Z</time>
      </trkpt>
      <trkpt lat="45.01566" lon="6.0416">
        <ele>1522.1999511719</ele>
        <time>2021-03-21T13:59:43.000Z</time>
      </trkpt>
      <trkpt lat="45.01567" lon="6.0416">
        <ele>1522.4000244141</ele>
        <time>2021-03-21T13:59:44.000Z</time>
      </trkpt>
      <trkpt lat="45.01569" lon="6.0416">
        <ele>1522.5999755859</ele>
        <time>2021-03-21T13:59:45.000Z</time>
      </trkpt>
      <trkpt lat="45.01569" lon="6.0416">
        <ele>1522.5999755859</ele>
        <time>2021-03-21T13:59:46.000Z</time>
      </trkpt>
      <trkpt lat="45.01571" lon="6.0416">
        <ele>1522.5999755859</ele>
        <time>2021-03-21T13:59:47.000Z</time>
      </trkpt>
      <trkpt lat="45.01571" lon="6.0416">
        <ele>1522.4000244141</ele>
        <time>2021-03-21T13:59:48.000Z</time>
      </trkpt>
      <trkpt lat="45.01571" lon="6.0416">
        <ele>1522.4000244141</ele>
        <time>2021-03-21T13:59:49.000Z</time>
      </trkpt>
      <trkpt lat="45.01572" lon="6.0416">
        <ele>1522.4000244141</ele>
        <time>2021-03-21T13:59:50.000Z</time>
      </trkpt>
      <trkpt lat="45.01572" lon="6.0416">
        <ele>1522.1999511719</ele>
        <time>2021-03-21T13:59:51.000Z</time>
      </trkpt>
      <trkpt lat="45.01573" lon="6.0416">
        <ele>1522</ele>
        <time>2021-03-21T13:59:52.000Z</time>
      </trkpt>
      <trkpt lat="45.01574" lon="6.0416">
        <ele>1521.8000488281</ele>
        <time>2021-03-21T13:59:53.000Z</time>
      </trkpt>
      <trkpt lat="45.01575" lon="6.0416">
        <ele>1521.8000488281</ele>
        <time>2021-03-21T13:59:54.000Z</time>
      </trkpt>
      <trkpt lat="45.01575" lon="6.0416">
        <ele>1521.5999755859</ele>
        <time>2021-03-21T13:59:55.000Z</time>
      </trkpt>
      <trkpt lat="45.01576" lon="6.0416">
        <ele>1521.4000244141</ele>
        <time>2021-03-21T13:59:56.000Z</time>
      </trkpt>
      <trkpt lat="45.01577" lon="6.0416">
        <ele>1521.4000244141</ele>
        <time>2021-03-21T13:59:57.000Z</time>
      </trkpt>
      <trkpt lat="45.01577" lon="6.04159">
        <ele>1521.1999511719</ele>
        <time>2021-03-21T13:59:58.000Z</time>
      </trkpt>
      <trkpt lat="45.01578" lon="6.04159">
        <ele>1521.1999511719</ele>
        <time>2021-03-21T13:59:59.000Z</time>
      </trkpt>
      <trkpt lat="45.01578" lon="6.04159">
        <ele>1521</ele>
        <time>2021-03-21T14:00:00.000Z</time>
      </trkpt>
      <trkpt lat="45.01579" lon="6.04159">
        <ele>1521</ele>
        <time>2021-03-21T14:00:01.000Z</time>
      </trkpt>
      <trkpt lat="45.01579" lon="6.04158">
        <ele>1521</ele>
        <time>2021-03-21T14:00:02.000Z</time>
      </trkpt>
      <trkpt lat="45.0158" lon="6.04158">
        <ele>1521</ele>
        <time>2021-03-21T14:00:03.000Z</time>
      </trkpt>
      <trkpt lat="45.0158" lon="6.04158">
        <ele>1521</ele>
        <time>2021-03-21T14:00:04.000Z</time>
      </trkpt>
      <trkpt lat="45.01579" lon="6.04158">
        <ele>1521.1999511719</ele>
        <time>2021-03-21T14:00:05.000Z</time>
      </trkpt>
      <trkpt lat="45.01579" lon="6.04158">
        <ele>1521.1999511719</ele>
        <time>2021-03-21T14:00:06.000Z</time>
      </trkpt>
      <trkpt lat="45.01579" lon="6.04158">
        <ele>1521.4000244141</ele>
        <time>2021-03-21T14:00:07.000Z</time>
      </trkpt>
      <trkpt lat="45.01578" lon="6.04157">
        <ele>1521.4000244141</ele>
        <time>2021-03-21T14:00:08.000Z</time>
      </trkpt>
      <trkpt lat="45.01578" lon="6.04158">
        <ele>1521.4000244141</ele>
        <time>2021-03-21T14:00:09.000Z</time>
      </trkpt>
      <trkpt lat="45.01579" lon="6.04158">
        <ele>1521.1999511719</ele>
        <time>2021-03-21T14:00:10.000Z</time>
      </trkpt>
      <trkpt lat="45.0158" lon="6.04158">
        <ele>1521.1999511719</ele>
        <time>2021-03-21T14:00:11.000Z</time>
      </trkpt>
      <trkpt lat="45.01583" lon="6.04159">
        <ele>1520.4000244141</ele>
        <time>2021-03-21T14:00:12.000Z</time>
      </trkpt>
      <trkpt lat="45.01583" lon="6.04158">
        <ele>1520.1999511719</ele>
        <time>2021-03-21T14:00:13.000Z</time>
      </trkpt>
      <trkpt lat="45.01584" lon="6.04158">
        <ele>1520</ele>
        <time>2021-03-21T14:00:14.000Z</time>
      </trkpt>
      <trkpt lat="45.01585" lon="6.04157">
        <ele>1520</ele>
        <time>2021-03-21T14:00:15.000Z</time>
      </trkpt>
      <trkpt lat="45.01586" lon="6.04156">
        <ele>1520</ele>
        <time>2021-03-21T14:00:16.000Z</time>
      </trkpt>
      <trkpt lat="45.01588" lon="6.04156">
        <ele>1519.8000488281</ele>
        <time>2021-03-21T14:00:17.000Z</time>
      </trkpt>
      <trkpt lat="45.01589" lon="6.04155">
        <ele>1519.5999755859</ele>
        <time>2021-03-21T14:00:18.000Z</time>
      </trkpt>
      <trkpt lat="45.0159" lon="6.04156">
        <ele>1519.4000244141</ele>
        <time>2021-03-21T14:00:19.000Z</time>
      </trkpt>
      <trkpt lat="45.01591" lon="6.04156">
        <ele>1519</ele>
        <time>2021-03-21T14:00:20.000Z</time>
      </trkpt>
      <trkpt lat="45.01591" lon="6.04157">
        <ele>1518.8000488281</ele>
        <time>2021-03-21T14:00:21.000Z</time>
      </trkpt>
      <trkpt lat="45.01591" lon="6.04157">
        <ele>1518.5999755859</ele>
        <time>2021-03-21T14:00:22.000Z</time>
      </trkpt>
      <trkpt lat="45.01592" lon="6.04157">
        <ele>1518.5999755859</ele>
        <time>2021-03-21T14:00:23.000Z</time>
      </trkpt>
      <trkpt lat="45.01592" lon="6.04157">
        <ele>1518.4000244141</ele>
        <time>2021-03-21T14:00:24.000Z</time>
      </trkpt>
      <trkpt lat="45.01594" lon="6.04157">
        <ele>1518.1999511719</ele>
        <time>2021-03-21T14:00:25.000Z</time>
      </trkpt>
      <trkpt lat="45.01595" lon="6.04157">
        <ele>1518</ele>
        <time>2021-03-21T14:00:26.000Z</time>
      </trkpt>
      <trkpt lat="45.01595" lon="6.04156">
        <ele>1518</ele>
        <time>2021-03-21T14:00:27.000Z</time>
      </trkpt>
      <trkpt lat="45.01596" lon="6.04156">
        <ele>1517.8000488281</ele>
        <time>2021-03-21T14:00:28.000Z</time>
      </trkpt>
      <trkpt lat="45.01597" lon="6.04156">
        <ele>1517.5999755859</ele>
        <time>2021-03-21T14:00:29.000Z</time>
      </trkpt>
      <trkpt lat="45.01598" lon="6.04156">
        <ele>1517.5999755859</ele>
        <time>2021-03-21T14:00:30.000Z</time>
      </trkpt>
      <trkpt lat="45.01599" lon="6.04155">
        <ele>1517.1999511719</ele>
        <time>2021-03-21T14:00:31.000Z</time>
      </trkpt>
      <trkpt lat="45.016" lon="6.04154">
        <ele>1517</ele>
        <time>2021-03-21T14:00:32.000Z</time>
      </trkpt>
      <trkpt lat="45.01601" lon="6.04153">
        <ele>1516.5999755859</ele>
        <time>2021-03-21T14:00:33.000Z</time>
      </trkpt>
      <trkpt lat="45.01602" lon="6.04152">
        <ele>1516</ele>
        <time>2021-03-21T14:00:34.000Z</time>
      </trkpt>
      <trkpt lat="45.01603" lon="6.04151">
        <ele>1515.5999755859</ele>
        <time>2021-03-21T14:00:35.000Z</time>
      </trkpt>
      <trkpt lat="45.01603" lon="6.0415">
        <ele>1516</ele>
        <time>2021-03-21T14:00:36.000Z</time>
      </trkpt>
      <trkpt lat="45.01604" lon="6.04149">
        <ele>1515.8000488281</ele>
        <time>2021-03-21T14:00:37.000Z</time>
      </trkpt>
      <trkpt lat="45.01606" lon="6.04149">
        <ele>1515</ele>
        <time>2021-03-21T14:00:38.000Z</time>
      </trkpt>
      <trkpt lat="45.01607" lon="6.04148">
        <ele>1514.5999755859</ele>
        <time>2021-03-21T14:00:39.000Z</time>
      </trkpt>
      <trkpt lat="45.01608" lon="6.04148">
        <ele>1514.1999511719</ele>
        <time>2021-03-21T14:00:40.000Z</time>
      </trkpt>
      <trkpt lat="45.01609" lon="6.04148">
        <ele>1513.5999755859</ele>
        <time>2021-03-21T14:00:41.000Z</time>
      </trkpt>
      <trkpt lat="45.0161" lon="6.04148">
        <ele>1513</ele>
        <time>2021-03-21T14:00:42.000Z</time>
      </trkpt>
      <trkpt lat="45.01612" lon="6.04147">
        <ele>1512.4000244141</ele>
        <time>2021-03-21T14:00:43.000Z</time>
      </trkpt>
      <trkpt lat="45.01613" lon="6.04146">
        <ele>1512</ele>
        <time>2021-03-21T14:00:44.000Z</time>
      </trkpt>
      <trkpt lat="45.01614" lon="6.04145">
        <ele>1511.8000488281</ele>
        <time>2021-03-21T14:00:45.000Z</time>
      </trkpt>
      <trkpt lat="45.01614" lon="6.04145">
        <ele>1511.4000244141</ele>
        <time>2021-03-21T14:00:46.000Z</time>
      </trkpt>
      <trkpt lat="45.01615" lon="6.04145">
        <ele>1511.4000244141</ele>
        <time>2021-03-21T14:00:47.000Z</time>
      </trkpt>
      <trkpt lat="45.01615" lon="6.04144">
        <ele>1511.1999511719</ele>
        <time>2021-03-21T14:00:48.000Z</time>
      </trkpt>
      <trkpt lat="45.01616" lon="6.04144">
        <ele>1511</ele>
        <time>2021-03-21T14:00:49.000Z</time>
      </trkpt>
      <trkpt lat="45.01617" lon="6.04143">
        <ele>1510.4000244141</ele>
        <time>2021-03-21T14:00:50.000Z</time>
      </trkpt>
      <trkpt lat="45.01617" lon="6.04143">
        <ele>1509.8000488281</ele>
        <time>2021-03-21T14:00:51.000Z</time>
      </trkpt>
      <trkpt lat="45.01618" lon="6.04143">
        <ele>1509.4000244141</ele>
        <time>2021-03-21T14:00:52.000Z</time>
      </trkpt>
      <trkpt lat="45.01619" lon="6.04142">
        <ele>1509</ele>
        <time>2021-03-21T14:00:53.000Z</time>
      </trkpt>
      <trkpt lat="45.01619" lon="6.04141">
        <ele>1508.5999755859</ele>
        <time>2021-03-21T14:00:54.000Z</time>
      </trkpt>
      <trkpt lat="45.01619" lon="6.0414">
        <ele>1508.4000244141</ele>
        <time>2021-03-21T14:00:55.000Z</time>
      </trkpt>
      <trkpt lat="45.0162" lon="6.04139">
        <ele>1508</ele>
        <time>2021-03-21T14:00:56.000Z</time>
      </trkpt>
      <trkpt lat="45.01621" lon="6.04138">
        <ele>1507.5999755859</ele>
        <time>2021-03-21T14:00:57.000Z</time>
      </trkpt>
      <trkpt lat="45.01622" lon="6.04138">
        <ele>1506.8000488281</ele>
        <time>2021-03-21T14:00:58.000Z</time>
      </trkpt>
      <trkpt lat="45.01623" lon="6.04137">
        <ele>1506.4000244141</ele>
        <time>2021-03-21T14:00:59.000Z</time>
      </trkpt>
      <trkpt lat="45.01623" lon="6.04137">
        <ele>1506</ele>
        <time>2021-03-21T14:01:00.000Z</time>
      </trkpt>
      <trkpt lat="45.01624" lon="6.04136">
        <ele>1505.1999511719</ele>
        <time>2021-03-21T14:01:01.000Z</time>
      </trkpt>
      <trkpt lat="45.01626" lon="6.04136">
        <ele>1504.4000244141</ele>
        <time>2021-03-21T14:01:02.000Z</time>
      </trkpt>
      <trkpt lat="45.01627" lon="6.04136">
        <ele>1503</ele>
        <time>2021-03-21T14:01:03.000Z</time>
      </trkpt>
      <trkpt lat="45.01628" lon="6.04135">
        <ele>1502</ele>
        <time>2021-03-21T14:01:04.000Z</time>
      </trkpt>
      <trkpt lat="45.01628" lon="6.04135">
        <ele>1501.4000244141</ele>
        <time>2021-03-21T14:01:05.000Z</time>
      </trkpt>
      <trkpt lat="45.01629" lon="6.04134">
        <ele>1500.1999511719</ele>
        <time>2021-03-21T14:01:06.000Z</time>
      </trkpt>
      <trkpt lat="45.01628" lon="6.04133">
        <ele>1501.1999511719</ele>
        <time>2021-03-21T14:01:07.000Z</time>
      </trkpt>
      <trkpt lat="45.01628" lon="6.04132">
        <ele>1501.5999755859</ele>
        <time>2021-03-21T14:01:08.000Z</time>
      </trkpt>
      <trkpt lat="45.01628" lon="6.04132">
        <ele>1501.1999511719</ele>
        <time>2021-03-21T14:01:09.000Z</time>
      </trkpt>
      <trkpt lat="45.01629" lon="6.04131">
        <ele>1501</ele>
        <time>2021-03-21T14:01:10.000Z</time>
      </trkpt>
      <trkpt lat="45.01629" lon="6.0413">
        <ele>1500.4000244141</ele>
        <time>2021-03-21T14:01:11.000Z</time>
      </trkpt>
      <trkpt lat="45.01631" lon="6.04128">
        <ele>1499</ele>
        <time>2021-03-21T14:01:12.000Z</time>
      </trkpt>
      <trkpt lat="45.01631" lon="6.04127">
        <ele>1498.5999755859</ele>
        <time>2021-03-21T14:01:13.000Z</time>
      </trkpt>
      <trkpt lat="45.01632" lon="6.04127">
        <ele>1498.1999511719</ele>
        <time>2021-03-21T14:01:14.000Z</time>
      </trkpt>
      <trkpt lat="45.01631" lon="6.04126">
        <ele>1498.5999755859</ele>
        <time>2021-03-21T14:01:15.000Z</time>
      </trkpt>
      <trkpt lat="45.01632" lon="6.04126">
        <ele>1498.4000244141</ele>
        <time>2021-03-21T14:01:16.000Z</time>
      </trkpt>
      <trkpt lat="45.01632" lon="6.04125">
        <ele>1498.1999511719</ele>
        <time>2021-03-21T14:01:17.000Z</time>
      </trkpt>
      <trkpt lat="45.01632" lon="6.04123">
        <ele>1497.5999755859</ele>
        <time>2021-03-21T14:01:18.000Z</time>
      </trkpt>
      <trkpt lat="45.01633" lon="6.04121">
        <ele>1497</ele>
        <time>2021-03-21T14:01:19.000Z</time>
      </trkpt>
      <trkpt lat="45.01634" lon="6.04119">
        <ele>1496.5999755859</ele>
        <time>2021-03-21T14:01:20.000Z</time>
      </trkpt>
      <trkpt lat="45.01634" lon="6.04118">
        <ele>1496.1999511719</ele>
        <time>2021-03-21T14:01:21.000Z</time>
      </trkpt>
      <trkpt lat="45.01634" lon="6.04117">
        <ele>1495.5999755859</ele>
        <time>2021-03-21T14:01:22.000Z</time>
      </trkpt>
      <trkpt lat="45.01635" lon="6.04116">
        <ele>1495.1999511719</ele>
        <time>2021-03-21T14:01:23.000Z</time>
      </trkpt>
      <trkpt lat="45.01635" lon="6.04116">
        <ele>1494.5999755859</ele>
        <time>2021-03-21T14:01:24.000Z</time>
      </trkpt>
      <trkpt lat="45.01635" lon="6.04116">
        <ele>1494.8000488281</ele>
        <time>2021-03-21T14:01:25.000Z</time>
      </trkpt>
      <trkpt lat="45.01636" lon="6.04115">
        <ele>1494.5999755859</ele>
        <time>2021-03-21T14:01:26.000Z</time>
      </trkpt>
      <trkpt lat="45.01636" lon="6.04115">
        <ele>1494.4000244141</ele>
        <time>2021-03-21T14:01:27.000Z</time>
      </trkpt>
      <trkpt lat="45.01636" lon="6.04115">
        <ele>1494.4000244141</ele>
        <time>2021-03-21T14:01:28.000Z</time>
      </trkpt>
      <trkpt lat="45.01636" lon="6.04114">
        <ele>1494.5999755859</ele>
        <time>2021-03-21T14:01:29.000Z</time>
      </trkpt>
      <trkpt lat="45.01635" lon="6.04114">
        <ele>1494.8000488281</ele>
        <time>2021-03-21T14:01:30.000Z</time>
      </trkpt>
      <trkpt lat="45.01635" lon="6.04114">
        <ele>1495.1999511719</ele>
        <time>2021-03-21T14:01:31.000Z</time>
      </trkpt>
      <trkpt lat="45.01635" lon="6.04113">
        <ele>1495.1999511719</ele>
        <time>2021-03-21T14:01:32.000Z</time>
      </trkpt>
      <trkpt lat="45.01635" lon="6.04112">
        <ele>1494.8000488281</ele>
        <time>2021-03-21T14:01:33.000Z</time>
      </trkpt>
      <trkpt lat="45.01635" lon="6.0411">
        <ele>1494.8000488281</ele>
        <time>2021-03-21T14:01:34.000Z</time>
      </trkpt>
      <trkpt lat="45.01635" lon="6.0411">
        <ele>1494.8000488281</ele>
        <time>2021-03-21T14:01:35.000Z</time>
      </trkpt>
      <trkpt lat="45.01636" lon="6.04109">
        <ele>1494</ele>
        <time>2021-03-21T14:01:36.000Z</time>
      </trkpt>
      <trkpt lat="45.01636" lon="6.04108">
        <ele>1494</ele>
        <time>2021-03-21T14:01:37.000Z</time>
      </trkpt>
      <trkpt lat="45.01636" lon="6.04107">
        <ele>1494</ele>
        <time>2021-03-21T14:01:38.000Z</time>
      </trkpt>
      <trkpt lat="45.01636" lon="6.04106">
        <ele>1493.8000488281</ele>
        <time>2021-03-21T14:01:39.000Z</time>
      </trkpt>
      <trkpt lat="45.01636" lon="6.04106">
        <ele>1494.1999511719</ele>
        <time>2021-03-21T14:01:40.000Z</time>
      </trkpt>
      <trkpt lat="45.01636" lon="6.04106">
        <ele>1494.1999511719</ele>
        <time>2021-03-21T14:01:41.000Z</time>
      </trkpt>
      <trkpt lat="45.01636" lon="6.04105">
        <ele>1494</ele>
        <time>2021-03-21T14:01:42.000Z</time>
      </trkpt>
      <trkpt lat="45.01636" lon="6.04104">
        <ele>1494</ele>
        <time>2021-03-21T14:01:43.000Z</time>
      </trkpt>
      <trkpt lat="45.01636" lon="6.04103">
        <ele>1493.8000488281</ele>
        <time>2021-03-21T14:01:44.000Z</time>
      </trkpt>
      <trkpt lat="45.01637" lon="6.04103">
        <ele>1493.4000244141</ele>
        <time>2021-03-21T14:01:45.000Z</time>
      </trkpt>
      <trkpt lat="45.01637" lon="6.04102">
        <ele>1493</ele>
        <time>2021-03-21T14:01:46.000Z</time>
      </trkpt>
      <trkpt lat="45.01638" lon="6.041">
        <ele>1492.5999755859</ele>
        <time>2021-03-21T14:01:47.000Z</time>
      </trkpt>
      <trkpt lat="45.01638" lon="6.04099">
        <ele>1492.4000244141</ele>
        <time>2021-03-21T14:01:48.000Z</time>
      </trkpt>
      <trkpt lat="45.01639" lon="6.04099">
        <ele>1491.5999755859</ele>
        <time>2021-03-21T14:01:49.000Z</time>
      </trkpt>
      <trkpt lat="45.0164" lon="6.04097">
        <ele>1490.5999755859</ele>
        <time>2021-03-21T14:01:50.000Z</time>
      </trkpt>
      <trkpt lat="45.0164" lon="6.04096">
        <ele>1490.1999511719</ele>
        <time>2021-03-21T14:01:51.000Z</time>
      </trkpt>
      <trkpt lat="45.01641" lon="6.04095">
        <ele>1489.4000244141</ele>
        <time>2021-03-21T14:01:52.000Z</time>
      </trkpt>
      <trkpt lat="45.01641" lon="6.04094">
        <ele>1488.5999755859</ele>
        <time>2021-03-21T14:01:53.000Z</time>
      </trkpt>
      <trkpt lat="45.01642" lon="6.04092">
        <ele>1487.8000488281</ele>
        <time>2021-03-21T14:01:54.000Z</time>
      </trkpt>
      <trkpt lat="45.01643" lon="6.0409">
        <ele>1486.5999755859</ele>
        <time>2021-03-21T14:01:55.000Z</time>
      </trkpt>
      <trkpt lat="45.01644" lon="6.04089">
        <ele>1485.4000244141</ele>
        <time>2021-03-21T14:01:56.000Z</time>
      </trkpt>
      <trkpt lat="45.01645" lon="6.04088">
        <ele>1485.1999511719</ele>
        <time>2021-03-21T14:01:57.000Z</time>
      </trkpt>
      <trkpt lat="45.01645" lon="6.04087">
        <ele>1485.4000244141</ele>
        <time>2021-03-21T14:01:58.000Z</time>
      </trkpt>
      <trkpt lat="45.01646" lon="6.04085">
        <ele>1484.5999755859</ele>
        <time>2021-03-21T14:01:59.000Z</time>
      </trkpt>
      <trkpt lat="45.01647" lon="6.04083">
        <ele>1484.1999511719</ele>
        <time>2021-03-21T14:02:00.000Z</time>
      </trkpt>
      <trkpt lat="45.01647" lon="6.04082">
        <ele>1483.5999755859</ele>
        <time>2021-03-21T14:02:01.000Z</time>
      </trkpt>
      <trkpt lat="45.01647" lon="6.0408">
        <ele>1483.8000488281</ele>
        <time>2021-03-21T14:02:02.000Z</time>
      </trkpt>
      <trkpt lat="45.01647" lon="6.04079">
        <ele>1484</ele>
        <time>2021-03-21T14:02:03.000Z</time>
      </trkpt>
      <trkpt lat="45.01648" lon="6.04078">
        <ele>1483.1999511719</ele>
        <time>2021-03-21T14:02:04.000Z</time>
      </trkpt>
      <trkpt lat="45.0165" lon="6.04077">
        <ele>1482</ele>
        <time>2021-03-21T14:02:05.000Z</time>
      </trkpt>
      <trkpt lat="45.01652" lon="6.04076">
        <ele>1480.5999755859</ele>
        <time>2021-03-21T14:02:06.000Z</time>
      </trkpt>
      <trkpt lat="45.01653" lon="6.04075">
        <ele>1479.8000488281</ele>
        <time>2021-03-21T14:02:07.000Z</time>
      </trkpt>
      <trkpt lat="45.01654" lon="6.04074">
        <ele>1479.5999755859</ele>
        <time>2021-03-21T14:02:08.000Z</time>
      </trkpt>
      <trkpt lat="45.01654" lon="6.04073">
        <ele>1479.4000244141</ele>
        <time>2021-03-21T14:02:09.000Z</time>
      </trkpt>
      <trkpt lat="45.01655" lon="6.04071">
        <ele>1479</ele>
        <time>2021-03-21T14:02:10.000Z</time>
      </trkpt>
      <trkpt lat="45.01655" lon="6.0407">
        <ele>1479.1999511719</ele>
        <time>2021-03-21T14:02:11.000Z</time>
      </trkpt>
      <trkpt lat="45.01654" lon="6.04069">
        <ele>1479.5999755859</ele>
        <time>2021-03-21T14:02:12.000Z</time>
      </trkpt>
      <trkpt lat="45.01654" lon="6.04068">
        <ele>1479.5999755859</ele>
        <time>2021-03-21T14:02:13.000Z</time>
      </trkpt>
      <trkpt lat="45.01654" lon="6.04067">
        <ele>1479.5999755859</ele>
        <time>2021-03-21T14:02:14.000Z</time>
      </trkpt>
      <trkpt lat="45.01656" lon="6.04066">
        <ele>1479</ele>
        <time>2021-03-21T14:02:15.000Z</time>
      </trkpt>
      <trkpt lat="45.01656" lon="6.04064">
        <ele>1478.8000488281</ele>
        <time>2021-03-21T14:02:16.000Z</time>
      </trkpt>
      <trkpt lat="45.01656" lon="6.04063">
        <ele>1478.8000488281</ele>
        <time>2021-03-21T14:02:17.000Z</time>
      </trkpt>
      <trkpt lat="45.01656" lon="6.04062">
        <ele>1479</ele>
        <time>2021-03-21T14:02:18.000Z</time>
      </trkpt>
      <trkpt lat="45.01656" lon="6.04061">
        <ele>1479</ele>
        <time>2021-03-21T14:02:19.000Z</time>
      </trkpt>
      <trkpt lat="45.01657" lon="6.04059">
        <ele>1479</ele>
        <time>2021-03-21T14:02:20.000Z</time>
      </trkpt>
      <trkpt lat="45.01657" lon="6.04058">
        <ele>1479</ele>
        <time>2021-03-21T14:02:21.000Z</time>
      </trkpt>
      <trkpt lat="45.01656" lon="6.04057">
        <ele>1479.5999755859</ele>
        <time>2021-03-21T14:02:22.000Z</time>
      </trkpt>
      <trkpt lat="45.01655" lon="6.04056">
        <ele>1480.1999511719</ele>
        <time>2021-03-21T14:02:23.000Z</time>
      </trkpt>
      <trkpt lat="45.01655" lon="6.04054">
        <ele>1480.1999511719</ele>
        <time>2021-03-21T14:02:24.000Z</time>
      </trkpt>
      <trkpt lat="45.01654" lon="6.04053">
        <ele>1480.8000488281</ele>
        <time>2021-03-21T14:02:25.000Z</time>
      </trkpt>
      <trkpt lat="45.01655" lon="6.04052">
        <ele>1480.5999755859</ele>
        <time>2021-03-21T14:02:26.000Z</time>
      </trkpt>
      <trkpt lat="45.01654" lon="6.0405">
        <ele>1481</ele>
        <time>2021-03-21T14:02:27.000Z</time>
      </trkpt>
      <trkpt lat="45.01653" lon="6.0405">
        <ele>1481.8000488281</ele>
        <time>2021-03-21T14:02:28.000Z</time>
      </trkpt>
      <trkpt lat="45.01652" lon="6.04049">
        <ele>1482.1999511719</ele>
        <time>2021-03-21T14:02:29.000Z</time>
      </trkpt>
      <trkpt lat="45.01653" lon="6.04049">
        <ele>1482</ele>
        <time>2021-03-21T14:02:30.000Z</time>
      </trkpt>
      <trkpt lat="45.01653" lon="6.04047">
        <ele>1482</ele>
        <time>2021-03-21T14:02:31.000Z</time>
      </trkpt>
      <trkpt lat="45.01653" lon="6.04046">
        <ele>1482.1999511719</ele>
        <time>2021-03-21T14:02:32.000Z</time>
      </trkpt>
      <trkpt lat="45.01652" lon="6.04045">
        <ele>1482.4000244141</ele>
        <time>2021-03-21T14:02:33.000Z</time>
      </trkpt>
      <trkpt lat="45.01652" lon="6.04044">
        <ele>1482.5999755859</ele>
        <time>2021-03-21T14:02:34.000Z</time>
      </trkpt>
      <trkpt lat="45.01651" lon="6.04042">
        <ele>1483</ele>
        <time>2021-03-21T14:02:35.000Z</time>
      </trkpt>
      <trkpt lat="45.01652" lon="6.04041">
        <ele>1483</ele>
        <time>2021-03-21T14:02:36.000Z</time>
      </trkpt>
      <trkpt lat="45.01652" lon="6.0404">
        <ele>1483</ele>
        <time>2021-03-21T14:02:37.000Z</time>
      </trkpt>
      <trkpt lat="45.01653" lon="6.04039">
        <ele>1482.8000488281</ele>
        <time>2021-03-21T14:02:38.000Z</time>
      </trkpt>
      <trkpt lat="45.01653" lon="6.04038">
        <ele>1483</ele>
        <time>2021-03-21T14:02:39.000Z</time>
      </trkpt>
      <trkpt lat="45.01653" lon="6.04037">
        <ele>1483.1999511719</ele>
        <time>2021-03-21T14:02:40.000Z</time>
      </trkpt>
      <trkpt lat="45.01652" lon="6.04036">
        <ele>1483.4000244141</ele>
        <time>2021-03-21T14:02:41.000Z</time>
      </trkpt>
      <trkpt lat="45.01652" lon="6.04035">
        <ele>1483.8000488281</ele>
        <time>2021-03-21T14:02:42.000Z</time>
      </trkpt>
      <trkpt lat="45.01652" lon="6.04033">
        <ele>1484</ele>
        <time>2021-03-21T14:02:43.000Z</time>
      </trkpt>
      <trkpt lat="45.01652" lon="6.04032">
        <ele>1484.1999511719</ele>
        <time>2021-03-21T14:02:44.000Z</time>
      </trkpt>
      <trkpt lat="45.01653" lon="6.0403">
        <ele>1483.8000488281</ele>
        <time>2021-03-21T14:02:45.000Z</time>
      </trkpt>
      <trkpt lat="45.01654" lon="6.04029">
        <ele>1483.8000488281</ele>
        <time>2021-03-21T14:02:46.000Z</time>
      </trkpt>
      <trkpt lat="45.01653" lon="6.04028">
        <ele>1484</ele>
        <time>2021-03-21T14:02:47.000Z</time>
      </trkpt>
      <trkpt lat="45.01653" lon="6.04028">
        <ele>1484.4000244141</ele>
        <time>2021-03-21T14:02:48.000Z</time>
      </trkpt>
      <trkpt lat="45.01653" lon="6.04026">
        <ele>1484.4000244141</ele>
        <time>2021-03-21T14:02:49.000Z</time>
      </trkpt>
      <trkpt lat="45.01653" lon="6.04025">
        <ele>1484.5999755859</ele>
        <time>2021-03-21T14:02:50.000Z</time>
      </trkpt>
      <trkpt lat="45.01653" lon="6.04024">
        <ele>1484.8000488281</ele>
        <time>2021-03-21T14:02:51.000Z</time>
      </trkpt>
      <trkpt lat="45.01653" lon="6.04024">
        <ele>1485</ele>
        <time>2021-03-21T14:02:52.000Z</time>
      </trkpt>
      <trkpt lat="45.01653" lon="6.04023">
        <ele>1484.8000488281</ele>
        <time>2021-03-21T14:02:53.000Z</time>
      </trkpt>
      <trkpt lat="45.01654" lon="6.04022">
        <ele>1484.5999755859</ele>
        <time>2021-03-21T14:02:54.000Z</time>
      </trkpt>
      <trkpt lat="45.01654" lon="6.04021">
        <ele>1484.5999755859</ele>
        <time>2021-03-21T14:02:55.000Z</time>
      </trkpt>
      <trkpt lat="45.01655" lon="6.0402">
        <ele>1484.5999755859</ele>
        <time>2021-03-21T14:02:56.000Z</time>
      </trkpt>
      <trkpt lat="45.01655" lon="6.04019">
        <ele>1484.8000488281</ele>
        <time>2021-03-21T14:02:57.000Z</time>
      </trkpt>
      <trkpt lat="45.01655" lon="6.04018">
        <ele>1485</ele>
        <time>2021-03-21T14:02:58.000Z</time>
      </trkpt>
      <trkpt lat="45.01655" lon="6.04017">
        <ele>1485.1999511719</ele>
        <time>2021-03-21T14:02:59.000Z</time>
      </trkpt>
      <trkpt lat="45.01655" lon="6.04016">
        <ele>1485.1999511719</ele>
        <time>2021-03-21T14:03:00.000Z</time>
      </trkpt>
      <trkpt lat="45.01656" lon="6.04015">
        <ele>1485</ele>
        <time>2021-03-21T14:03:01.000Z</time>
      </trkpt>
      <trkpt lat="45.01657" lon="6.04013">
        <ele>1485</ele>
        <time>2021-03-21T14:03:02.000Z</time>
      </trkpt>
      <trkpt lat="45.01658" lon="6.04012">
        <ele>1485</ele>
        <time>2021-03-21T14:03:03.000Z</time>
      </trkpt>
      <trkpt lat="45.01658" lon="6.0401">
        <ele>1485</ele>
        <time>2021-03-21T14:03:04.000Z</time>
      </trkpt>
      <trkpt lat="45.01659" lon="6.04009">
        <ele>1484.8000488281</ele>
        <time>2021-03-21T14:03:05.000Z</time>
      </trkpt>
      <trkpt lat="45.0166" lon="6.04009">
        <ele>1484.5999755859</ele>
        <time>2021-03-21T14:03:06.000Z</time>
      </trkpt>
      <trkpt lat="45.01659" lon="6.04008">
        <ele>1485.4000244141</ele>
        <time>2021-03-21T14:03:07.000Z</time>
      </trkpt>
      <trkpt lat="45.01659" lon="6.04007">
        <ele>1485.5999755859</ele>
        <time>2021-03-21T14:03:08.000Z</time>
      </trkpt>
      <trkpt lat="45.01659" lon="6.04006">
        <ele>1485.5999755859</ele>
        <time>2021-03-21T14:03:09.000Z</time>
      </trkpt>
      <trkpt lat="45.01659" lon="6.04005">
        <ele>1485.5999755859</ele>
        <time>2021-03-21T14:03:10.000Z</time>
      </trkpt>
      <trkpt lat="45.01659" lon="6.04005">
        <ele>1485.5999755859</ele>
        <time>2021-03-21T14:03:11.000Z</time>
      </trkpt>
      <trkpt lat="45.01658" lon="6.04005">
        <ele>1486</ele>
        <time>2021-03-21T14:03:12.000Z</time>
      </trkpt>
      <trkpt lat="45.01657" lon="6.04005">
        <ele>1486.4000244141</ele>
        <time>2021-03-21T14:03:13.000Z</time>
      </trkpt>
      <trkpt lat="45.01656" lon="6.04004">
        <ele>1486.8000488281</ele>
        <time>2021-03-21T14:03:14.000Z</time>
      </trkpt>
      <trkpt lat="45.01656" lon="6.04003">
        <ele>1487</ele>
        <time>2021-03-21T14:03:15.000Z</time>
      </trkpt>
      <trkpt lat="45.01656" lon="6.04002">
        <ele>1487.4000244141</ele>
        <time>2021-03-21T14:03:16.000Z</time>
      </trkpt>
      <trkpt lat="45.01656" lon="6.04001">
        <ele>1487.5999755859</ele>
        <time>2021-03-21T14:03:17.000Z</time>
      </trkpt>
      <trkpt lat="45.01657" lon="6.04">
        <ele>1487.4000244141</ele>
        <time>2021-03-21T14:03:18.000Z</time>
      </trkpt>
      <trkpt lat="45.01656" lon="6.03999">
        <ele>1488</ele>
        <time>2021-03-21T14:03:19.000Z</time>
      </trkpt>
      <trkpt lat="45.01655" lon="6.03999">
        <ele>1488.4000244141</ele>
        <time>2021-03-21T14:03:20.000Z</time>
      </trkpt>
      <trkpt lat="45.01655" lon="6.03998">
        <ele>1488.5999755859</ele>
        <time>2021-03-21T14:03:21.000Z</time>
      </trkpt>
      <trkpt lat="45.01655" lon="6.03997">
        <ele>1488.5999755859</ele>
        <time>2021-03-21T14:03:22.000Z</time>
      </trkpt>
      <trkpt lat="45.01655" lon="6.03996">
        <ele>1488.8000488281</ele>
        <time>2021-03-21T14:03:23.000Z</time>
      </trkpt>
      <trkpt lat="45.01655" lon="6.03995">
        <ele>1489</ele>
        <time>2021-03-21T14:03:24.000Z</time>
      </trkpt>
      <trkpt lat="45.01655" lon="6.03993">
        <ele>1489.4000244141</ele>
        <time>2021-03-21T14:03:25.000Z</time>
      </trkpt>
      <trkpt lat="45.01654" lon="6.03992">
        <ele>1489.8000488281</ele>
        <time>2021-03-21T14:03:26.000Z</time>
      </trkpt>
      <trkpt lat="45.01654" lon="6.03991">
        <ele>1490</ele>
        <time>2021-03-21T14:03:27.000Z</time>
      </trkpt>
      <trkpt lat="45.01654" lon="6.0399">
        <ele>1490.4000244141</ele>
        <time>2021-03-21T14:03:28.000Z</time>
      </trkpt>
      <trkpt lat="45.01655" lon="6.03989">
        <ele>1490.1999511719</ele>
        <time>2021-03-21T14:03:29.000Z</time>
      </trkpt>
      <trkpt lat="45.01655" lon="6.03988">
        <ele>1490.1999511719</ele>
        <time>2021-03-21T14:03:30.000Z</time>
      </trkpt>
      <trkpt lat="45.01655" lon="6.03988">
        <ele>1490.1999511719</ele>
        <time>2021-03-21T14:03:31.000Z</time>
      </trkpt>
      <trkpt lat="45.01656" lon="6.03988">
        <ele>1490</ele>
        <time>2021-03-21T14:03:32.000Z</time>
      </trkpt>
      <trkpt lat="45.01658" lon="6.03987">
        <ele>1489.4000244141</ele>
        <time>2021-03-21T14:03:33.000Z</time>
      </trkpt>
      <trkpt lat="45.01659" lon="6.03987">
        <ele>1489</ele>
        <time>2021-03-21T14:03:34.000Z</time>
      </trkpt>
      <trkpt lat="45.0166" lon="6.03987">
        <ele>1488.5999755859</ele>
        <time>2021-03-21T14:03:35.000Z</time>
      </trkpt>
      <trkpt lat="45.01661" lon="6.03986">
        <ele>1488.4000244141</ele>
        <time>2021-03-21T14:03:36.000Z</time>
      </trkpt>
      <trkpt lat="45.01662" lon="6.03986">
        <ele>1488.1999511719</ele>
        <time>2021-03-21T14:03:37.000Z</time>
      </trkpt>
      <trkpt lat="45.01662" lon="6.03985">
        <ele>1488.1999511719</ele>
        <time>2021-03-21T14:03:38.000Z</time>
      </trkpt>
      <trkpt lat="45.01661" lon="6.03986">
        <ele>1488.4000244141</ele>
        <time>2021-03-21T14:03:39.000Z</time>
      </trkpt>
      <trkpt lat="45.01661" lon="6.03986">
        <ele>1488.5999755859</ele>
        <time>2021-03-21T14:03:40.000Z</time>
      </trkpt>
      <trkpt lat="45.0166" lon="6.03985">
        <ele>1489</ele>
        <time>2021-03-21T14:03:41.000Z</time>
      </trkpt>
      <trkpt lat="45.0166" lon="6.03985">
        <ele>1489</ele>
        <time>2021-03-21T14:03:42.000Z</time>
      </trkpt>
      <trkpt lat="45.0166" lon="6.03984">
        <ele>1489</ele>
        <time>2021-03-21T14:03:43.000Z</time>
      </trkpt>
      <trkpt lat="45.01661" lon="6.03984">
        <ele>1489</ele>
        <time>2021-03-21T14:03:44.000Z</time>
      </trkpt>
      <trkpt lat="45.0166" lon="6.03983">
        <ele>1489.1999511719</ele>
        <time>2021-03-21T14:03:45.000Z</time>
      </trkpt>
      <trkpt lat="45.0166" lon="6.03984">
        <ele>1489.4000244141</ele>
        <time>2021-03-21T14:03:46.000Z</time>
      </trkpt>
      <trkpt lat="45.0166" lon="6.03983">
        <ele>1489.4000244141</ele>
        <time>2021-03-21T14:03:47.000Z</time>
      </trkpt>
      <trkpt lat="45.0166" lon="6.03982">
        <ele>1489.5999755859</ele>
        <time>2021-03-21T14:03:48.000Z</time>
      </trkpt>
      <trkpt lat="45.01661" lon="6.03982">
        <ele>1489.4000244141</ele>
        <time>2021-03-21T14:03:49.000Z</time>
      </trkpt>
      <trkpt lat="45.01661" lon="6.03982">
        <ele>1489.4000244141</ele>
        <time>2021-03-21T14:03:50.000Z</time>
      </trkpt>
      <trkpt lat="45.01662" lon="6.03981">
        <ele>1489.1999511719</ele>
        <time>2021-03-21T14:03:51.000Z</time>
      </trkpt>
      <trkpt lat="45.01663" lon="6.03981">
        <ele>1489</ele>
        <time>2021-03-21T14:03:52.000Z</time>
      </trkpt>
      <trkpt lat="45.01663" lon="6.03981">
        <ele>1488.8000488281</ele>
        <time>2021-03-21T14:03:53.000Z</time>
      </trkpt>
      <trkpt lat="45.01664" lon="6.03982">
        <ele>1488.1999511719</ele>
        <time>2021-03-21T14:03:54.000Z</time>
      </trkpt>
      <trkpt lat="45.01665" lon="6.03981">
        <ele>1488</ele>
        <time>2021-03-21T14:03:55.000Z</time>
      </trkpt>
      <trkpt lat="45.01666" lon="6.03981">
        <ele>1487.5999755859</ele>
        <time>2021-03-21T14:03:56.000Z</time>
      </trkpt>
      <trkpt lat="45.01667" lon="6.0398">
        <ele>1487.5999755859</ele>
        <time>2021-03-21T14:03:57.000Z</time>
      </trkpt>
      <trkpt lat="45.01668" lon="6.03978">
        <ele>1487.4000244141</ele>
        <time>2021-03-21T14:03:58.000Z</time>
      </trkpt>
      <trkpt lat="45.01669" lon="6.03977">
        <ele>1487.4000244141</ele>
        <time>2021-03-21T14:03:59.000Z</time>
      </trkpt>
      <trkpt lat="45.0167" lon="6.03976">
        <ele>1487.4000244141</ele>
        <time>2021-03-21T14:04:00.000Z</time>
      </trkpt>
      <trkpt lat="45.0167" lon="6.03975">
        <ele>1487.4000244141</ele>
        <time>2021-03-21T14:04:01.000Z</time>
      </trkpt>
      <trkpt lat="45.01671" lon="6.03974">
        <ele>1487.1999511719</ele>
        <time>2021-03-21T14:04:02.000Z</time>
      </trkpt>
      <trkpt lat="45.01671" lon="6.03973">
        <ele>1487</ele>
        <time>2021-03-21T14:04:03.000Z</time>
      </trkpt>
      <trkpt lat="45.01672" lon="6.03972">
        <ele>1486.8000488281</ele>
        <time>2021-03-21T14:04:04.000Z</time>
      </trkpt>
      <trkpt lat="45.01672" lon="6.0397">
        <ele>1486.5999755859</ele>
        <time>2021-03-21T14:04:05.000Z</time>
      </trkpt>
      <trkpt lat="45.01674" lon="6.0397">
        <ele>1485.8000488281</ele>
        <time>2021-03-21T14:04:06.000Z</time>
      </trkpt>
      <trkpt lat="45.01675" lon="6.0397">
        <ele>1485.4000244141</ele>
        <time>2021-03-21T14:04:07.000Z</time>
      </trkpt>
      <trkpt lat="45.01675" lon="6.0397">
        <ele>1485.1999511719</ele>
        <time>2021-03-21T14:04:08.000Z</time>
      </trkpt>
      <trkpt lat="45.01675" lon="6.03969">
        <ele>1485.4000244141</ele>
        <time>2021-03-21T14:04:09.000Z</time>
      </trkpt>
      <trkpt lat="45.01676" lon="6.03968">
        <ele>1485</ele>
        <time>2021-03-21T14:04:10.000Z</time>
      </trkpt>
      <trkpt lat="45.01675" lon="6.03968">
        <ele>1485.1999511719</ele>
        <time>2021-03-21T14:04:11.000Z</time>
      </trkpt>
      <trkpt lat="45.01676" lon="6.03967">
        <ele>1485.1999511719</ele>
        <time>2021-03-21T14:04:12.000Z</time>
      </trkpt>
      <trkpt lat="45.01676" lon="6.03966">
        <ele>1485</ele>
        <time>2021-03-21T14:04:13.000Z</time>
      </trkpt>
      <trkpt lat="45.01676" lon="6.03966">
        <ele>1485.1999511719</ele>
        <time>2021-03-21T14:04:14.000Z</time>
      </trkpt>
      <trkpt lat="45.01677" lon="6.03965">
        <ele>1484.8000488281</ele>
        <time>2021-03-21T14:04:15.000Z</time>
      </trkpt>
      <trkpt lat="45.01677" lon="6.03964">
        <ele>1484.5999755859</ele>
        <time>2021-03-21T14:04:16.000Z</time>
      </trkpt>
      <trkpt lat="45.01677" lon="6.03964">
        <ele>1484.5999755859</ele>
        <time>2021-03-21T14:04:17.000Z</time>
      </trkpt>
      <trkpt lat="45.01678" lon="6.03963">
        <ele>1484.4000244141</ele>
        <time>2021-03-21T14:04:18.000Z</time>
      </trkpt>
      <trkpt lat="45.01677" lon="6.03963">
        <ele>1484.5999755859</ele>
        <time>2021-03-21T14:04:19.000Z</time>
      </trkpt>
      <trkpt lat="45.01677" lon="6.03963">
        <ele>1484.8000488281</ele>
        <time>2021-03-21T14:04:20.000Z</time>
      </trkpt>
      <trkpt lat="45.01677" lon="6.03962">
        <ele>1484.8000488281</ele>
        <time>2021-03-21T14:04:21.000Z</time>
      </trkpt>
      <trkpt lat="45.01678" lon="6.03961">
        <ele>1484.5999755859</ele>
        <time>2021-03-21T14:04:22.000Z</time>
      </trkpt>
      <trkpt lat="45.01678" lon="6.03961">
        <ele>1484.5999755859</ele>
        <time>2021-03-21T14:04:23.000Z</time>
      </trkpt>
      <trkpt lat="45.01678" lon="6.0396">
        <ele>1484.5999755859</ele>
        <time>2021-03-21T14:04:24.000Z</time>
      </trkpt>
      <trkpt lat="45.01679" lon="6.03959">
        <ele>1484.4000244141</ele>
        <time>2021-03-21T14:04:25.000Z</time>
      </trkpt>
      <trkpt lat="45.01679" lon="6.03959">
        <ele>1484.1999511719</ele>
        <time>2021-03-21T14:04:26.000Z</time>
      </trkpt>
      <trkpt lat="45.0168" lon="6.03958">
        <ele>1483.8000488281</ele>
        <time>2021-03-21T14:04:27.000Z</time>
      </trkpt>
      <trkpt lat="45.01681" lon="6.03958">
        <ele>1483.4000244141</ele>
        <time>2021-03-21T14:04:28.000Z</time>
      </trkpt>
      <trkpt lat="45.01682" lon="6.03957">
        <ele>1483.5999755859</ele>
        <time>2021-03-21T14:04:29.000Z</time>
      </trkpt>
      <trkpt lat="45.01682" lon="6.03956">
        <ele>1483.8000488281</ele>
        <time>2021-03-21T14:04:30.000Z</time>
      </trkpt>
      <trkpt lat="45.01682" lon="6.03955">
        <ele>1484</ele>
        <time>2021-03-21T14:04:31.000Z</time>
      </trkpt>
      <trkpt lat="45.01682" lon="6.03954">
        <ele>1484.1999511719</ele>
        <time>2021-03-21T14:04:32.000Z</time>
      </trkpt>
      <trkpt lat="45.01682" lon="6.03953">
        <ele>1484.4000244141</ele>
        <time>2021-03-21T14:04:33.000Z</time>
      </trkpt>
      <trkpt lat="45.01682" lon="6.03952">
        <ele>1484.5999755859</ele>
        <time>2021-03-21T14:04:34.000Z</time>
      </trkpt>
      <trkpt lat="45.01682" lon="6.0395">
        <ele>1485</ele>
        <time>2021-03-21T14:04:35.000Z</time>
      </trkpt>
      <trkpt lat="45.01682" lon="6.03949">
        <ele>1485.4000244141</ele>
        <time>2021-03-21T14:04:36.000Z</time>
      </trkpt>
      <trkpt lat="45.01682" lon="6.03947">
        <ele>1485.5999755859</ele>
        <time>2021-03-21T14:04:37.000Z</time>
      </trkpt>
      <trkpt lat="45.01681" lon="6.03946">
        <ele>1486</ele>
        <time>2021-03-21T14:04:38.000Z</time>
      </trkpt>
      <trkpt lat="45.01681" lon="6.03945">
        <ele>1486.1999511719</ele>
        <time>2021-03-21T14:04:39.000Z</time>
      </trkpt>
      <trkpt lat="45.01681" lon="6.03944">
        <ele>1486.1999511719</ele>
        <time>2021-03-21T14:04:40.000Z</time>
      </trkpt>
      <trkpt lat="45.01681" lon="6.03944">
        <ele>1486.4000244141</ele>
        <time>2021-03-21T14:04:41.000Z</time>
      </trkpt>
      <trkpt lat="45.0168" lon="6.03943">
        <ele>1487</ele>
        <time>2021-03-21T14:04:42.000Z</time>
      </trkpt>
      <trkpt lat="45.0168" lon="6.03942">
        <ele>1487.4000244141</ele>
        <time>2021-03-21T14:04:43.000Z</time>
      </trkpt>
      <trkpt lat="45.0168" lon="6.0394">
        <ele>1487.8000488281</ele>
        <time>2021-03-21T14:04:44.000Z</time>
      </trkpt>
      <trkpt lat="45.0168" lon="6.03939">
        <ele>1488.1999511719</ele>
        <time>2021-03-21T14:04:45.000Z</time>
      </trkpt>
      <trkpt lat="45.0168" lon="6.03938">
        <ele>1488.4000244141</ele>
        <time>2021-03-21T14:04:46.000Z</time>
      </trkpt>
      <trkpt lat="45.0168" lon="6.03937">
        <ele>1488.4000244141</ele>
        <time>2021-03-21T14:04:47.000Z</time>
      </trkpt>
      <trkpt lat="45.01681" lon="6.03936">
        <ele>1488.1999511719</ele>
        <time>2021-03-21T14:04:48.000Z</time>
      </trkpt>
      <trkpt lat="45.01681" lon="6.03936">
        <ele>1488.1999511719</ele>
        <time>2021-03-21T14:04:49.000Z</time>
      </trkpt>
      <trkpt lat="45.01682" lon="6.03935">
        <ele>1488.4000244141</ele>
        <time>2021-03-21T14:04:50.000Z</time>
      </trkpt>
      <trkpt lat="45.01682" lon="6.03934">
        <ele>1488.5999755859</ele>
        <time>2021-03-21T14:04:51.000Z</time>
      </trkpt>
      <trkpt lat="45.01682" lon="6.03932">
        <ele>1488.8000488281</ele>
        <time>2021-03-21T14:04:52.000Z</time>
      </trkpt>
      <trkpt lat="45.01682" lon="6.03932">
        <ele>1489</ele>
        <time>2021-03-21T14:04:53.000Z</time>
      </trkpt>
      <trkpt lat="45.01682" lon="6.03931">
        <ele>1489.1999511719</ele>
        <time>2021-03-21T14:04:54.000Z</time>
      </trkpt>
      <trkpt lat="45.01682" lon="6.03929">
        <ele>1489.1999511719</ele>
        <time>2021-03-21T14:04:55.000Z</time>
      </trkpt>
      <trkpt lat="45.01682" lon="6.03928">
        <ele>1489.4000244141</ele>
        <time>2021-03-21T14:04:56.000Z</time>
      </trkpt>
      <trkpt lat="45.01682" lon="6.03926">
        <ele>1489.8000488281</ele>
        <time>2021-03-21T14:04:57.000Z</time>
      </trkpt>
      <trkpt lat="45.01683" lon="6.03925">
        <ele>1489.8000488281</ele>
        <time>2021-03-21T14:04:58.000Z</time>
      </trkpt>
      <trkpt lat="45.01683" lon="6.03924">
        <ele>1490</ele>
        <time>2021-03-21T14:04:59.000Z</time>
      </trkpt>
      <trkpt lat="45.01684" lon="6.03923">
        <ele>1490</ele>
        <time>2021-03-21T14:05:00.000Z</time>
      </trkpt>
      <trkpt lat="45.01684" lon="6.03922">
        <ele>1490.1999511719</ele>
        <time>2021-03-21T14:05:01.000Z</time>
      </trkpt>
      <trkpt lat="45.01684" lon="6.03921">
        <ele>1490.1999511719</ele>
        <time>2021-03-21T14:05:02.000Z</time>
      </trkpt>
      <trkpt lat="45.01684" lon="6.03921">
        <ele>1490.4000244141</ele>
        <time>2021-03-21T14:05:03.000Z</time>
      </trkpt>
      <trkpt lat="45.01684" lon="6.0392">
        <ele>1490.4000244141</ele>
        <time>2021-03-21T14:05:04.000Z</time>
      </trkpt>
      <trkpt lat="45.01684" lon="6.03919">
        <ele>1490.5999755859</ele>
        <time>2021-03-21T14:05:05.000Z</time>
      </trkpt>
      <trkpt lat="45.01685" lon="6.03919">
        <ele>1490.5999755859</ele>
        <time>2021-03-21T14:05:06.000Z</time>
      </trkpt>
      <trkpt lat="45.01685" lon="6.03918">
        <ele>1490.5999755859</ele>
        <time>2021-03-21T14:05:07.000Z</time>
      </trkpt>
      <trkpt lat="45.01686" lon="6.03918">
        <ele>1490.5999755859</ele>
        <time>2021-03-21T14:05:08.000Z</time>
      </trkpt>
      <trkpt lat="45.01685" lon="6.03918">
        <ele>1490.8000488281</ele>
        <time>2021-03-21T14:05:09.000Z</time>
      </trkpt>
      <trkpt lat="45.01684" lon="6.03917">
        <ele>1490.8000488281</ele>
        <time>2021-03-21T14:05:10.000Z</time>
      </trkpt>
      <trkpt lat="45.01683" lon="6.03917">
        <ele>1491</ele>
        <time>2021-03-21T14:05:11.000Z</time>
      </trkpt>
      <trkpt lat="45.01683" lon="6.03917">
        <ele>1491</ele>
        <time>2021-03-21T14:05:12.000Z</time>
      </trkpt>
      <trkpt lat="45.0168" lon="6.03916">
        <ele>1492.1999511719</ele>
        <time>2021-03-21T14:05:13.000Z</time>
      </trkpt>
      <trkpt lat="45.01679" lon="6.03916">
        <ele>1492.8000488281</ele>
        <time>2021-03-21T14:05:14.000Z</time>
      </trkpt>
      <trkpt lat="45.01679" lon="6.03916">
        <ele>1493.1999511719</ele>
        <time>2021-03-21T14:05:15.000Z</time>
      </trkpt>
      <trkpt lat="45.01678" lon="6.03915">
        <ele>1493.5999755859</ele>
        <time>2021-03-21T14:05:16.000Z</time>
      </trkpt>
      <trkpt lat="45.01678" lon="6.03916">
        <ele>1493.4000244141</ele>
        <time>2021-03-21T14:05:17.000Z</time>
      </trkpt>
      <trkpt lat="45.01678" lon="6.03915">
        <ele>1493.5999755859</ele>
        <time>2021-03-21T14:05:18.000Z</time>
      </trkpt>
      <trkpt lat="45.0168" lon="6.03915">
        <ele>1492.5999755859</ele>
        <time>2021-03-21T14:05:19.000Z</time>
      </trkpt>
      <trkpt lat="45.0168" lon="6.03915">
        <ele>1492.1999511719</ele>
        <time>2021-03-21T14:05:20.000Z</time>
      </trkpt>
      <trkpt lat="45.01677" lon="6.03914">
        <ele>1495.1999511719</ele>
        <time>2021-03-21T14:05:21.000Z</time>
      </trkpt>
      <trkpt lat="45.01677" lon="6.03914">
        <ele>1495</ele>
        <time>2021-03-21T14:05:22.000Z</time>
      </trkpt>
      <trkpt lat="45.01676" lon="6.03913">
        <ele>1495.4000244141</ele>
        <time>2021-03-21T14:05:23.000Z</time>
      </trkpt>
      <trkpt lat="45.01676" lon="6.03913">
        <ele>1496</ele>
        <time>2021-03-21T14:05:24.000Z</time>
      </trkpt>
      <trkpt lat="45.01674" lon="6.03912">
        <ele>1497.1999511719</ele>
        <time>2021-03-21T14:05:25.000Z</time>
      </trkpt>
      <trkpt lat="45.01674" lon="6.03911">
        <ele>1497.8000488281</ele>
        <time>2021-03-21T14:05:26.000Z</time>
      </trkpt>
      <trkpt lat="45.01673" lon="6.0391">
        <ele>1498.5999755859</ele>
        <time>2021-03-21T14:05:27.000Z</time>
      </trkpt>
      <trkpt lat="45.01673" lon="6.03909">
        <ele>1498.8000488281</ele>
        <time>2021-03-21T14:05:28.000Z</time>
      </trkpt>
      <trkpt lat="45.01673" lon="6.03908">
        <ele>1498.5999755859</ele>
        <time>2021-03-21T14:05:29.000Z</time>
      </trkpt>
      <trkpt lat="45.01673" lon="6.03907">
        <ele>1498.5999755859</ele>
        <time>2021-03-21T14:05:30.000Z</time>
      </trkpt>
      <trkpt lat="45.01674" lon="6.03907">
        <ele>1498.5999755859</ele>
        <time>2021-03-21T14:05:31.000Z</time>
      </trkpt>
      <trkpt lat="45.01674" lon="6.03906">
        <ele>1498.1999511719</ele>
        <time>2021-03-21T14:05:32.000Z</time>
      </trkpt>
      <trkpt lat="45.01674" lon="6.03907">
        <ele>1498.4000244141</ele>
        <time>2021-03-21T14:05:33.000Z</time>
      </trkpt>
      <trkpt lat="45.01674" lon="6.03907">
        <ele>1498.1999511719</ele>
        <time>2021-03-21T14:05:34.000Z</time>
      </trkpt>
      <trkpt lat="45.01673" lon="6.03907">
        <ele>1499</ele>
        <time>2021-03-21T14:05:35.000Z</time>
      </trkpt>
      <trkpt lat="45.01673" lon="6.03907">
        <ele>1499</ele>
        <time>2021-03-21T14:05:36.000Z</time>
      </trkpt>
      <trkpt lat="45.01673" lon="6.03907">
        <ele>1499.1999511719</ele>
        <time>2021-03-21T14:05:37.000Z</time>
      </trkpt>
      <trkpt lat="45.01673" lon="6.03906">
        <ele>1499</ele>
        <time>2021-03-21T14:05:38.000Z</time>
      </trkpt>
      <trkpt lat="45.01674" lon="6.03906">
        <ele>1498.5999755859</ele>
        <time>2021-03-21T14:05:39.000Z</time>
      </trkpt>
      <trkpt lat="45.01674" lon="6.03905">
        <ele>1498.1999511719</ele>
        <time>2021-03-21T14:05:40.000Z</time>
      </trkpt>
      <trkpt lat="45.01674" lon="6.03904">
        <ele>1498.4000244141</ele>
        <time>2021-03-21T14:05:41.000Z</time>
      </trkpt>
      <trkpt lat="45.01675" lon="6.03905">
        <ele>1498</ele>
        <time>2021-03-21T14:05:42.000Z</time>
      </trkpt>
      <trkpt lat="45.01674" lon="6.03906">
        <ele>1498</ele>
        <time>2021-03-21T14:05:43.000Z</time>
      </trkpt>
      <trkpt lat="45.01674" lon="6.03906">
        <ele>1498.1999511719</ele>
        <time>2021-03-21T14:05:44.000Z</time>
      </trkpt>
      <trkpt lat="45.01674" lon="6.03907">
        <ele>1498.1999511719</ele>
        <time>2021-03-21T14:05:45.000Z</time>
      </trkpt>
      <trkpt lat="45.01674" lon="6.03907">
        <ele>1498.1999511719</ele>
        <time>2021-03-21T14:05:46.000Z</time>
      </trkpt>
      <trkpt lat="45.01674" lon="6.03908">
        <ele>1497.8000488281</ele>
        <time>2021-03-21T14:05:47.000Z</time>
      </trkpt>
      <trkpt lat="45.01675" lon="6.03908">
        <ele>1497</ele>
        <time>2021-03-21T14:05:48.000Z</time>
      </trkpt>
      <trkpt lat="45.01676" lon="6.03909">
        <ele>1496.1999511719</ele>
        <time>2021-03-21T14:05:49.000Z</time>
      </trkpt>
      <trkpt lat="45.01677" lon="6.0391">
        <ele>1495.1999511719</ele>
        <time>2021-03-21T14:05:50.000Z</time>
      </trkpt>
      <trkpt lat="45.01678" lon="6.0391">
        <ele>1494.5999755859</ele>
        <time>2021-03-21T14:05:51.000Z</time>
      </trkpt>
      <trkpt lat="45.01678" lon="6.03911">
        <ele>1494.4000244141</ele>
        <time>2021-03-21T14:05:52.000Z</time>
      </trkpt>
      <trkpt lat="45.01678" lon="6.03912">
        <ele>1494.1999511719</ele>
        <time>2021-03-21T14:05:53.000Z</time>
      </trkpt>
      <trkpt lat="45.01679" lon="6.03913">
        <ele>1493.1999511719</ele>
        <time>2021-03-21T14:05:54.000Z</time>
      </trkpt>
      <trkpt lat="45.01679" lon="6.03913">
        <ele>1493.1999511719</ele>
        <time>2021-03-21T14:05:55.000Z</time>
      </trkpt>
      <trkpt lat="45.0168" lon="6.03912">
        <ele>1492.8000488281</ele>
        <time>2021-03-21T14:05:56.000Z</time>
      </trkpt>
      <trkpt lat="45.0168" lon="6.03912">
        <ele>1492.8000488281</ele>
        <time>2021-03-21T14:05:57.000Z</time>
      </trkpt>
      <trkpt lat="45.01679" lon="6.03913">
        <ele>1493.1999511719</ele>
        <time>2021-03-21T14:05:58.000Z</time>
      </trkpt>
      <trkpt lat="45.01678" lon="6.03914">
        <ele>1493.8000488281</ele>
        <time>2021-03-21T14:05:59.000Z</time>
      </trkpt>
      <trkpt lat="45.01678" lon="6.03914">
        <ele>1494.1999511719</ele>
        <time>2021-03-21T14:06:00.000Z</time>
      </trkpt>
      <trkpt lat="45.01677" lon="6.03915">
        <ele>1494.4000244141</ele>
        <time>2021-03-21T14:06:01.000Z</time>
      </trkpt>
      <trkpt lat="45.01677" lon="6.03915">
        <ele>1494.4000244141</ele>
        <time>2021-03-21T14:06:02.000Z</time>
      </trkpt>
      <trkpt lat="45.01678" lon="6.03916">
        <ele>1494</ele>
        <time>2021-03-21T14:06:03.000Z</time>
      </trkpt>
      <trkpt lat="45.01679" lon="6.03916">
        <ele>1493.1999511719</ele>
        <time>2021-03-21T14:06:04.000Z</time>
      </trkpt>
      <trkpt lat="45.01679" lon="6.03916">
        <ele>1493.1999511719</ele>
        <time>2021-03-21T14:06:05.000Z</time>
      </trkpt>
      <trkpt lat="45.01678" lon="6.03916">
        <ele>1493.4000244141</ele>
        <time>2021-03-21T14:06:06.000Z</time>
      </trkpt>
      <trkpt lat="45.01679" lon="6.03916">
        <ele>1492.8000488281</ele>
        <time>2021-03-21T14:06:07.000Z</time>
      </trkpt>
      <trkpt lat="45.01679" lon="6.03916">
        <ele>1492.8000488281</ele>
        <time>2021-03-21T14:06:08.000Z</time>
      </trkpt>
      <trkpt lat="45.01679" lon="6.03916">
        <ele>1493</ele>
        <time>2021-03-21T14:06:09.000Z</time>
      </trkpt>
      <trkpt lat="45.01679" lon="6.03916">
        <ele>1493.1999511719</ele>
        <time>2021-03-21T14:06:10.000Z</time>
      </trkpt>
      <trkpt lat="45.01679" lon="6.03916">
        <ele>1492.8000488281</ele>
        <time>2021-03-21T14:06:11.000Z</time>
      </trkpt>
      <trkpt lat="45.0168" lon="6.03916">
        <ele>1492.1999511719</ele>
        <time>2021-03-21T14:06:12.000Z</time>
      </trkpt>
      <trkpt lat="45.01677" lon="6.03914">
        <ele>1494.5999755859</ele>
        <time>2021-03-21T14:06:13.000Z</time>
      </trkpt>
      <trkpt lat="45.01678" lon="6.03915">
        <ele>1494</ele>
        <time>2021-03-21T14:06:14.000Z</time>
      </trkpt>
      <trkpt lat="45.01678" lon="6.03915">
        <ele>1493.5999755859</ele>
        <time>2021-03-21T14:06:15.000Z</time>
      </trkpt>
      <trkpt lat="45.01678" lon="6.03915">
        <ele>1493.5999755859</ele>
        <time>2021-03-21T14:06:16.000Z</time>
      </trkpt>
      <trkpt lat="45.01678" lon="6.03915">
        <ele>1493.5999755859</ele>
        <time>2021-03-21T14:06:17.000Z</time>
      </trkpt>
      <trkpt lat="45.01678" lon="6.03915">
        <ele>1493.8000488281</ele>
        <time>2021-03-21T14:06:18.000Z</time>
      </trkpt>
      <trkpt lat="45.01678" lon="6.03915">
        <ele>1493.8000488281</ele>
        <time>2021-03-21T14:06:19.000Z</time>
      </trkpt>
      <trkpt lat="45.01678" lon="6.03915">
        <ele>1494.1999511719</ele>
        <time>2021-03-21T14:06:20.000Z</time>
      </trkpt>
      <trkpt lat="45.01678" lon="6.03915">
        <ele>1494.1999511719</ele>
        <time>2021-03-21T14:06:21.000Z</time>
      </trkpt>
      <trkpt lat="45.01677" lon="6.03915">
        <ele>1494.5999755859</ele>
        <time>2021-03-21T14:06:22.000Z</time>
      </trkpt>
      <trkpt lat="45.01676" lon="6.03914">
        <ele>1496</ele>
        <time>2021-03-21T14:06:23.000Z</time>
      </trkpt>
      <trkpt lat="45.01674" lon="6.03914">
        <ele>1496.8000488281</ele>
        <time>2021-03-21T14:06:24.000Z</time>
      </trkpt>
      <trkpt lat="45.01673" lon="6.03914">
        <ele>1497.5999755859</ele>
        <time>2021-03-21T14:06:25.000Z</time>
      </trkpt>
      <trkpt lat="45.01674" lon="6.03914">
        <ele>1496.8000488281</ele>
        <time>2021-03-21T14:06:26.000Z</time>
      </trkpt>
      <trkpt lat="45.01676" lon="6.03915">
        <ele>1495.4000244141</ele>
        <time>2021-03-21T14:06:27.000Z</time>
      </trkpt>
      <trkpt lat="45.01676" lon="6.03915">
        <ele>1495</ele>
        <time>2021-03-21T14:06:28.000Z</time>
      </trkpt>
      <trkpt lat="45.01676" lon="6.03915">
        <ele>1495.5999755859</ele>
        <time>2021-03-21T14:06:29.000Z</time>
      </trkpt>
      <trkpt lat="45.01675" lon="6.03914">
        <ele>1496.1999511719</ele>
        <time>2021-03-21T14:06:30.000Z</time>
      </trkpt>
      <trkpt lat="45.01675" lon="6.03915">
        <ele>1496.5999755859</ele>
        <time>2021-03-21T14:06:31.000Z</time>
      </trkpt>
      <trkpt lat="45.01674" lon="6.03915">
        <ele>1497</ele>
        <time>2021-03-21T14:06:32.000Z</time>
      </trkpt>
      <trkpt lat="45.01673" lon="6.03916">
        <ele>1497.1999511719</ele>
        <time>2021-03-21T14:06:33.000Z</time>
      </trkpt>
      <trkpt lat="45.01673" lon="6.03917">
        <ele>1497.4000244141</ele>
        <time>2021-03-21T14:06:34.000Z</time>
      </trkpt>
      <trkpt lat="45.01672" lon="6.03918">
        <ele>1498</ele>
        <time>2021-03-21T14:06:35.000Z</time>
      </trkpt>
      <trkpt lat="45.01672" lon="6.0392">
        <ele>1497.8000488281</ele>
        <time>2021-03-21T14:06:36.000Z</time>
      </trkpt>
      <trkpt lat="45.01672" lon="6.03922">
        <ele>1497.8000488281</ele>
        <time>2021-03-21T14:06:37.000Z</time>
      </trkpt>
      <trkpt lat="45.01672" lon="6.03923">
        <ele>1497.1999511719</ele>
        <time>2021-03-21T14:06:38.000Z</time>
      </trkpt>
      <trkpt lat="45.01673" lon="6.03924">
        <ele>1496.4000244141</ele>
        <time>2021-03-21T14:06:39.000Z</time>
      </trkpt>
      <trkpt lat="45.01672" lon="6.03926">
        <ele>1496.1999511719</ele>
        <time>2021-03-21T14:06:40.000Z</time>
      </trkpt>
      <trkpt lat="45.01673" lon="6.03927">
        <ele>1495.4000244141</ele>
        <time>2021-03-21T14:06:41.000Z</time>
      </trkpt>
      <trkpt lat="45.01673" lon="6.03928">
        <ele>1494.8000488281</ele>
        <time>2021-03-21T14:06:42.000Z</time>
      </trkpt>
      <trkpt lat="45.01673" lon="6.03929">
        <ele>1494.1999511719</ele>
        <time>2021-03-21T14:06:43.000Z</time>
      </trkpt>
      <trkpt lat="45.01672" lon="6.0393">
        <ele>1494.8000488281</ele>
        <time>2021-03-21T14:06:44.000Z</time>
      </trkpt>
      <trkpt lat="45.01672" lon="6.0393">
        <ele>1494.5999755859</ele>
        <time>2021-03-21T14:06:45.000Z</time>
      </trkpt>
      <trkpt lat="45.01671" lon="6.03931">
        <ele>1494.5999755859</ele>
        <time>2021-03-21T14:06:46.000Z</time>
      </trkpt>
      <trkpt lat="45.01671" lon="6.03932">
        <ele>1494.1999511719</ele>
        <time>2021-03-21T14:06:47.000Z</time>
      </trkpt>
      <trkpt lat="45.0167" lon="6.03933">
        <ele>1495</ele>
        <time>2021-03-21T14:06:48.000Z</time>
      </trkpt>
      <trkpt lat="45.01669" lon="6.03933">
        <ele>1495</ele>
        <time>2021-03-21T14:06:49.000Z</time>
      </trkpt>
      <trkpt lat="45.0167" lon="6.03934">
        <ele>1494.4000244141</ele>
        <time>2021-03-21T14:06:50.000Z</time>
      </trkpt>
      <trkpt lat="45.01671" lon="6.03936">
        <ele>1493.5999755859</ele>
        <time>2021-03-21T14:06:51.000Z</time>
      </trkpt>
      <trkpt lat="45.01672" lon="6.03937">
        <ele>1492.5999755859</ele>
        <time>2021-03-21T14:06:52.000Z</time>
      </trkpt>
      <trkpt lat="45.01673" lon="6.03938">
        <ele>1492</ele>
        <time>2021-03-21T14:06:53.000Z</time>
      </trkpt>
      <trkpt lat="45.01674" lon="6.03939">
        <ele>1491.4000244141</ele>
        <time>2021-03-21T14:06:54.000Z</time>
      </trkpt>
      <trkpt lat="45.01674" lon="6.0394">
        <ele>1491.1999511719</ele>
        <time>2021-03-21T14:06:55.000Z</time>
      </trkpt>
      <trkpt lat="45.01675" lon="6.03942">
        <ele>1490.1999511719</ele>
        <time>2021-03-21T14:06:56.000Z</time>
      </trkpt>
      <trkpt lat="45.01675" lon="6.03943">
        <ele>1489.8000488281</ele>
        <time>2021-03-21T14:06:57.000Z</time>
      </trkpt>
      <trkpt lat="45.0181" lon="6.04031">
        <ele>1518.8000488281</ele>
        <time>2021-03-21T14:08:43.000Z</time>
      </trkpt>
      <trkpt lat="45.01811" lon="6.04032">
        <ele>1519.5999755859</ele>
        <time>2021-03-21T14:08:44.000Z</time>
      </trkpt>
      <trkpt lat="45.01812" lon="6.04033">
        <ele>1519.8000488281</ele>
        <time>2021-03-21T14:08:45.000Z</time>
      </trkpt>
      <trkpt lat="45.01812" lon="6.04034">
        <ele>1520.1999511719</ele>
        <time>2021-03-21T14:08:46.000Z</time>
      </trkpt>
      <trkpt lat="45.01813" lon="6.04034">
        <ele>1520.5999755859</ele>
        <time>2021-03-21T14:08:47.000Z</time>
      </trkpt>
      <trkpt lat="45.01813" lon="6.04035">
        <ele>1520.8000488281</ele>
        <time>2021-03-21T14:08:48.000Z</time>
      </trkpt>
      <trkpt lat="45.01815" lon="6.04036">
        <ele>1521.5999755859</ele>
        <time>2021-03-21T14:08:49.000Z</time>
      </trkpt>
      <trkpt lat="45.01815" lon="6.04036">
        <ele>1521.8000488281</ele>
        <time>2021-03-21T14:08:50.000Z</time>
      </trkpt>
      <trkpt lat="45.01815" lon="6.04037">
        <ele>1522</ele>
        <time>2021-03-21T14:08:51.000Z</time>
      </trkpt>
      <trkpt lat="45.01816" lon="6.04038">
        <ele>1522.5999755859</ele>
        <time>2021-03-21T14:08:52.000Z</time>
      </trkpt>
      <trkpt lat="45.01822" lon="6.0404">
        <ele>1526.1999511719</ele>
        <time>2021-03-21T14:08:53.000Z</time>
      </trkpt>
      <trkpt lat="45.01823" lon="6.04041">
        <ele>1526.8000488281</ele>
        <time>2021-03-21T14:08:54.000Z</time>
      </trkpt>
      <trkpt lat="45.01823" lon="6.04041">
        <ele>1527</ele>
        <time>2021-03-21T14:08:55.000Z</time>
      </trkpt>
      <trkpt lat="45.01824" lon="6.04042">
        <ele>1527.4000244141</ele>
        <time>2021-03-21T14:08:56.000Z</time>
      </trkpt>
      <trkpt lat="45.01825" lon="6.04042">
        <ele>1527.5999755859</ele>
        <time>2021-03-21T14:08:57.000Z</time>
      </trkpt>
      <trkpt lat="45.01825" lon="6.04043">
        <ele>1528</ele>
        <time>2021-03-21T14:08:58.000Z</time>
      </trkpt>
      <trkpt lat="45.01826" lon="6.04044">
        <ele>1528.5999755859</ele>
        <time>2021-03-21T14:08:59.000Z</time>
      </trkpt>
      <trkpt lat="45.01826" lon="6.04045">
        <ele>1528.5999755859</ele>
        <time>2021-03-21T14:09:00.000Z</time>
      </trkpt>
      <trkpt lat="45.01827" lon="6.04047">
        <ele>1529.1999511719</ele>
        <time>2021-03-21T14:09:01.000Z</time>
      </trkpt>
      <trkpt lat="45.01827" lon="6.04048">
        <ele>1529.4000244141</ele>
        <time>2021-03-21T14:09:02.000Z</time>
      </trkpt>
      <trkpt lat="45.01828" lon="6.04049">
        <ele>1530</ele>
        <time>2021-03-21T14:09:03.000Z</time>
      </trkpt>
      <trkpt lat="45.01828" lon="6.0405">
        <ele>1530.4000244141</ele>
        <time>2021-03-21T14:09:04.000Z</time>
      </trkpt>
      <trkpt lat="45.01829" lon="6.04051">
        <ele>1530.8000488281</ele>
        <time>2021-03-21T14:09:05.000Z</time>
      </trkpt>
      <trkpt lat="45.01829" lon="6.04052">
        <ele>1531</ele>
        <time>2021-03-21T14:09:06.000Z</time>
      </trkpt>
      <trkpt lat="45.0183" lon="6.04052">
        <ele>1531.1999511719</ele>
        <time>2021-03-21T14:09:07.000Z</time>
      </trkpt>
      <trkpt lat="45.0183" lon="6.04053">
        <ele>1531.5999755859</ele>
        <time>2021-03-21T14:09:08.000Z</time>
      </trkpt>
      <trkpt lat="45.0183" lon="6.04054">
        <ele>1531.8000488281</ele>
        <time>2021-03-21T14:09:09.000Z</time>
      </trkpt>
      <trkpt lat="45.01831" lon="6.04055">
        <ele>1531.8000488281</ele>
        <time>2021-03-21T14:09:10.000Z</time>
      </trkpt>
      <trkpt lat="45.01831" lon="6.04056">
        <ele>1532.1999511719</ele>
        <time>2021-03-21T14:09:11.000Z</time>
      </trkpt>
      <trkpt lat="45.01831" lon="6.04057">
        <ele>1532.1999511719</ele>
        <time>2021-03-21T14:09:12.000Z</time>
      </trkpt>
      <trkpt lat="45.01832" lon="6.04058">
        <ele>1532.4000244141</ele>
        <time>2021-03-21T14:09:13.000Z</time>
      </trkpt>
      <trkpt lat="45.01832" lon="6.04059">
        <ele>1532.4000244141</ele>
        <time>2021-03-21T14:09:14.000Z</time>
      </trkpt>
      <trkpt lat="45.01831" lon="6.0406">
        <ele>1532.1999511719</ele>
        <time>2021-03-21T14:09:15.000Z</time>
      </trkpt>
      <trkpt lat="45.0183" lon="6.0406">
        <ele>1531.4000244141</ele>
        <time>2021-03-21T14:09:16.000Z</time>
      </trkpt>
      <trkpt lat="45.0183" lon="6.04061">
        <ele>1531</ele>
        <time>2021-03-21T14:09:17.000Z</time>
      </trkpt>
      <trkpt lat="45.01828" lon="6.04061">
        <ele>1529.8000488281</ele>
        <time>2021-03-21T14:09:18.000Z</time>
      </trkpt>
      <trkpt lat="45.01827" lon="6.04061">
        <ele>1529</ele>
        <time>2021-03-21T14:09:19.000Z</time>
      </trkpt>
      <trkpt lat="45.01826" lon="6.04062">
        <ele>1528.4000244141</ele>
        <time>2021-03-21T14:09:20.000Z</time>
      </trkpt>
      <trkpt lat="45.01825" lon="6.04062">
        <ele>1527.5999755859</ele>
        <time>2021-03-21T14:09:21.000Z</time>
      </trkpt>
      <trkpt lat="45.01824" lon="6.04063">
        <ele>1527.1999511719</ele>
        <time>2021-03-21T14:09:22.000Z</time>
      </trkpt>
      <trkpt lat="45.01824" lon="6.04063">
        <ele>1526.8000488281</ele>
        <time>2021-03-21T14:09:23.000Z</time>
      </trkpt>
      <trkpt lat="45.01823" lon="6.04063">
        <ele>1526.4000244141</ele>
        <time>2021-03-21T14:09:24.000Z</time>
      </trkpt>
      <trkpt lat="45.01823" lon="6.04063">
        <ele>1526.1999511719</ele>
        <time>2021-03-21T14:09:25.000Z</time>
      </trkpt>
      <trkpt lat="45.01823" lon="6.04063">
        <ele>1526</ele>
        <time>2021-03-21T14:09:26.000Z</time>
      </trkpt>
      <trkpt lat="45.01823" lon="6.04063">
        <ele>1526</ele>
        <time>2021-03-21T14:09:27.000Z</time>
      </trkpt>
      <trkpt lat="45.01823" lon="6.04063">
        <ele>1526</ele>
        <time>2021-03-21T14:09:28.000Z</time>
      </trkpt>
      <trkpt lat="45.01822" lon="6.04063">
        <ele>1526</ele>
        <time>2021-03-21T14:09:29.000Z</time>
      </trkpt>
      <trkpt lat="45.01822" lon="6.04064">
        <ele>1525.8000488281</ele>
        <time>2021-03-21T14:09:30.000Z</time>
      </trkpt>
      <trkpt lat="45.01822" lon="6.04064">
        <ele>1525.5999755859</ele>
        <time>2021-03-21T14:09:31.000Z</time>
      </trkpt>
      <trkpt lat="45.01822" lon="6.04065">
        <ele>1525.4000244141</ele>
        <time>2021-03-21T14:09:32.000Z</time>
      </trkpt>
      <trkpt lat="45.01821" lon="6.04065">
        <ele>1525.1999511719</ele>
        <time>2021-03-21T14:09:33.000Z</time>
      </trkpt>
      <trkpt lat="45.01821" lon="6.04066">
        <ele>1524.8000488281</ele>
        <time>2021-03-21T14:09:34.000Z</time>
      </trkpt>
      <trkpt lat="45.01821" lon="6.04066">
        <ele>1524.8000488281</ele>
        <time>2021-03-21T14:09:35.000Z</time>
      </trkpt>
      <trkpt lat="45.01821" lon="6.04066">
        <ele>1524.8000488281</ele>
        <time>2021-03-21T14:09:36.000Z</time>
      </trkpt>
      <trkpt lat="45.01821" lon="6.04067">
        <ele>1524.5999755859</ele>
        <time>2021-03-21T14:09:37.000Z</time>
      </trkpt>
      <trkpt lat="45.0182" lon="6.04067">
        <ele>1524.4000244141</ele>
        <time>2021-03-21T14:09:38.000Z</time>
      </trkpt>
      <trkpt lat="45.0182" lon="6.04067">
        <ele>1524.1999511719</ele>
        <time>2021-03-21T14:09:39.000Z</time>
      </trkpt>
      <trkpt lat="45.0182" lon="6.04067">
        <ele>1524</ele>
        <time>2021-03-21T14:09:40.000Z</time>
      </trkpt>
      <trkpt lat="45.0182" lon="6.04067">
        <ele>1523.8000488281</ele>
        <time>2021-03-21T14:09:41.000Z</time>
      </trkpt>
      <trkpt lat="45.01819" lon="6.04067">
        <ele>1523.5999755859</ele>
        <time>2021-03-21T14:09:42.000Z</time>
      </trkpt>
      <trkpt lat="45.01819" lon="6.04067">
        <ele>1523.5999755859</ele>
        <time>2021-03-21T14:09:43.000Z</time>
      </trkpt>
      <trkpt lat="45.01819" lon="6.04067">
        <ele>1523.5999755859</ele>
        <time>2021-03-21T14:09:44.000Z</time>
      </trkpt>
      <trkpt lat="45.01819" lon="6.04067">
        <ele>1523.4000244141</ele>
        <time>2021-03-21T14:09:45.000Z</time>
      </trkpt>
      <trkpt lat="45.01818" lon="6.04068">
        <ele>1523.1999511719</ele>
        <time>2021-03-21T14:09:46.000Z</time>
      </trkpt>
      <trkpt lat="45.01818" lon="6.04068">
        <ele>1523</ele>
        <time>2021-03-21T14:09:47.000Z</time>
      </trkpt>
      <trkpt lat="45.01818" lon="6.04068">
        <ele>1522.8000488281</ele>
        <time>2021-03-21T14:09:48.000Z</time>
      </trkpt>
      <trkpt lat="45.01818" lon="6.04068">
        <ele>1522.8000488281</ele>
        <time>2021-03-21T14:09:49.000Z</time>
      </trkpt>
      <trkpt lat="45.01818" lon="6.04068">
        <ele>1522.8000488281</ele>
        <time>2021-03-21T14:09:50.000Z</time>
      </trkpt>
      <trkpt lat="45.01818" lon="6.04068">
        <ele>1522.8000488281</ele>
        <time>2021-03-21T14:09:51.000Z</time>
      </trkpt>
      <trkpt lat="45.01818" lon="6.04067">
        <ele>1522.8000488281</ele>
        <time>2021-03-21T14:09:52.000Z</time>
      </trkpt>
      <trkpt lat="45.01818" lon="6.04067">
        <ele>1522.8000488281</ele>
        <time>2021-03-21T14:09:53.000Z</time>
      </trkpt>
      <trkpt lat="45.01818" lon="6.04067">
        <ele>1523</ele>
        <time>2021-03-21T14:09:54.000Z</time>
      </trkpt>
      <trkpt lat="45.01818" lon="6.04067">
        <ele>1523</ele>
        <time>2021-03-21T14:09:55.000Z</time>
      </trkpt>
      <trkpt lat="45.01818" lon="6.04067">
        <ele>1523</ele>
        <time>2021-03-21T14:09:56.000Z</time>
      </trkpt>
      <trkpt lat="45.01818" lon="6.04067">
        <ele>1523.1999511719</ele>
        <time>2021-03-21T14:09:57.000Z</time>
      </trkpt>
      <trkpt lat="45.01818" lon="6.04066">
        <ele>1523.1999511719</ele>
        <time>2021-03-21T14:09:58.000Z</time>
      </trkpt>
      <trkpt lat="45.01819" lon="6.04066">
        <ele>1523.4000244141</ele>
        <time>2021-03-21T14:09:59.000Z</time>
      </trkpt>
      <trkpt lat="45.01819" lon="6.04066">
        <ele>1523.4000244141</ele>
        <time>2021-03-21T14:10:00.000Z</time>
      </trkpt>
      <trkpt lat="45.01819" lon="6.04067">
        <ele>1523.5999755859</ele>
        <time>2021-03-21T14:10:01.000Z</time>
      </trkpt>
      <trkpt lat="45.01819" lon="6.04067">
        <ele>1523.5999755859</ele>
        <time>2021-03-21T14:10:02.000Z</time>
      </trkpt>
      <trkpt lat="45.01819" lon="6.04067">
        <ele>1523.5999755859</ele>
        <time>2021-03-21T14:10:03.000Z</time>
      </trkpt>
      <trkpt lat="45.01819" lon="6.04066">
        <ele>1523.8000488281</ele>
        <time>2021-03-21T14:10:04.000Z</time>
      </trkpt>
      <trkpt lat="45.0182" lon="6.04066">
        <ele>1524</ele>
        <time>2021-03-21T14:10:05.000Z</time>
      </trkpt>
      <trkpt lat="45.0182" lon="6.04066">
        <ele>1524.1999511719</ele>
        <time>2021-03-21T14:10:06.000Z</time>
      </trkpt>
      <trkpt lat="45.01821" lon="6.04066">
        <ele>1524.5999755859</ele>
        <time>2021-03-21T14:10:07.000Z</time>
      </trkpt>
      <trkpt lat="45.01821" lon="6.04066">
        <ele>1524.8000488281</ele>
        <time>2021-03-21T14:10:08.000Z</time>
      </trkpt>
      <trkpt lat="45.01821" lon="6.04066">
        <ele>1525</ele>
        <time>2021-03-21T14:10:09.000Z</time>
      </trkpt>
      <trkpt lat="45.01821" lon="6.04066">
        <ele>1525.1999511719</ele>
        <time>2021-03-21T14:10:10.000Z</time>
      </trkpt>
      <trkpt lat="45.01822" lon="6.04066">
        <ele>1525.5999755859</ele>
        <time>2021-03-21T14:10:15.000Z</time>
      </trkpt>
      <trkpt lat="45.01822" lon="6.04066">
        <ele>1525.4000244141</ele>
        <time>2021-03-21T14:10:16.000Z</time>
      </trkpt>
      <trkpt lat="45.01822" lon="6.04066">
        <ele>1525.4000244141</ele>
        <time>2021-03-21T14:10:17.000Z</time>
      </trkpt>
      <trkpt lat="45.01822" lon="6.04066">
        <ele>1525.5999755859</ele>
        <time>2021-03-21T14:10:18.000Z</time>
      </trkpt>
      <trkpt lat="45.01821" lon="6.04066">
        <ele>1525</ele>
        <time>2021-03-21T14:10:19.000Z</time>
      </trkpt>
      <trkpt lat="45.01821" lon="6.04066">
        <ele>1524.8000488281</ele>
        <time>2021-03-21T14:10:20.000Z</time>
      </trkpt>
      <trkpt lat="45.01821" lon="6.04066">
        <ele>1524.8000488281</ele>
        <time>2021-03-21T14:10:21.000Z</time>
      </trkpt>
      <trkpt lat="45.01821" lon="6.04066">
        <ele>1524.5999755859</ele>
        <time>2021-03-21T14:10:22.000Z</time>
      </trkpt>
      <trkpt lat="45.0182" lon="6.04066">
        <ele>1524.4000244141</ele>
        <time>2021-03-21T14:10:23.000Z</time>
      </trkpt>
      <trkpt lat="45.0182" lon="6.04066">
        <ele>1524.4000244141</ele>
        <time>2021-03-21T14:10:24.000Z</time>
      </trkpt>
      <trkpt lat="45.0182" lon="6.04066">
        <ele>1524.4000244141</ele>
        <time>2021-03-21T14:10:25.000Z</time>
      </trkpt>
      <trkpt lat="45.0182" lon="6.04066">
        <ele>1524.1999511719</ele>
        <time>2021-03-21T14:10:26.000Z</time>
      </trkpt>
      <trkpt lat="45.0182" lon="6.04066">
        <ele>1524.1999511719</ele>
        <time>2021-03-21T14:10:27.000Z</time>
      </trkpt>
      <trkpt lat="45.01819" lon="6.04066">
        <ele>1523.8000488281</ele>
        <time>2021-03-21T14:10:28.000Z</time>
      </trkpt>
      <trkpt lat="45.01819" lon="6.04066">
        <ele>1523.8000488281</ele>
        <time>2021-03-21T14:10:29.000Z</time>
      </trkpt>
      <trkpt lat="45.01819" lon="6.04065">
        <ele>1523.4000244141</ele>
        <time>2021-03-21T14:10:30.000Z</time>
      </trkpt>
      <trkpt lat="45.01818" lon="6.04065">
        <ele>1523.1999511719</ele>
        <time>2021-03-21T14:10:31.000Z</time>
      </trkpt>
      <trkpt lat="45.01819" lon="6.04065">
        <ele>1523.4000244141</ele>
        <time>2021-03-21T14:10:32.000Z</time>
      </trkpt>
      <trkpt lat="45.01819" lon="6.04065">
        <ele>1523.4000244141</ele>
        <time>2021-03-21T14:10:33.000Z</time>
      </trkpt>
      <trkpt lat="45.01818" lon="6.04064">
        <ele>1523.1999511719</ele>
        <time>2021-03-21T14:10:34.000Z</time>
      </trkpt>
      <trkpt lat="45.01818" lon="6.04064">
        <ele>1523.1999511719</ele>
        <time>2021-03-21T14:10:35.000Z</time>
      </trkpt>
      <trkpt lat="45.01818" lon="6.04064">
        <ele>1523</ele>
        <time>2021-03-21T14:10:36.000Z</time>
      </trkpt>
      <trkpt lat="45.01818" lon="6.04064">
        <ele>1523</ele>
        <time>2021-03-21T14:10:37.000Z</time>
      </trkpt>
      <trkpt lat="45.01818" lon="6.04064">
        <ele>1523</ele>
        <time>2021-03-21T14:10:38.000Z</time>
      </trkpt>
      <trkpt lat="45.01818" lon="6.04064">
        <ele>1523.1999511719</ele>
        <time>2021-03-21T14:10:39.000Z</time>
      </trkpt>
      <trkpt lat="45.01818" lon="6.04063">
        <ele>1523.1999511719</ele>
        <time>2021-03-21T14:10:40.000Z</time>
      </trkpt>
      <trkpt lat="45.01819" lon="6.04064">
        <ele>1523.4000244141</ele>
        <time>2021-03-21T14:10:41.000Z</time>
      </trkpt>
      <trkpt lat="45.01819" lon="6.04064">
        <ele>1523.4000244141</ele>
        <time>2021-03-21T14:10:42.000Z</time>
      </trkpt>
      <trkpt lat="45.01818" lon="6.04064">
        <ele>1523.1999511719</ele>
        <time>2021-03-21T14:10:43.000Z</time>
      </trkpt>
      <trkpt lat="45.01819" lon="6.04065">
        <ele>1523.4000244141</ele>
        <time>2021-03-21T14:10:44.000Z</time>
      </trkpt>
      <trkpt lat="45.01819" lon="6.04064">
        <ele>1523.4000244141</ele>
        <time>2021-03-21T14:10:45.000Z</time>
      </trkpt>
      <trkpt lat="45.01817" lon="6.04064">
        <ele>1522.4000244141</ele>
        <time>2021-03-21T14:10:46.000Z</time>
      </trkpt>
      <trkpt lat="45.01816" lon="6.04064">
        <ele>1521.5999755859</ele>
        <time>2021-03-21T14:10:47.000Z</time>
      </trkpt>
      <trkpt lat="45.01815" lon="6.04064">
        <ele>1521</ele>
        <time>2021-03-21T14:10:48.000Z</time>
      </trkpt>
      <trkpt lat="45.01813" lon="6.04064">
        <ele>1520.1999511719</ele>
        <time>2021-03-21T14:10:49.000Z</time>
      </trkpt>
      <trkpt lat="45.01812" lon="6.04063">
        <ele>1519.5999755859</ele>
        <time>2021-03-21T14:10:50.000Z</time>
      </trkpt>
      <trkpt lat="45.01812" lon="6.04063">
        <ele>1519.1999511719</ele>
        <time>2021-03-21T14:10:51.000Z</time>
      </trkpt>
      <trkpt lat="45.0181" lon="6.04063">
        <ele>1518.4000244141</ele>
        <time>2021-03-21T14:10:52.000Z</time>
      </trkpt>
      <trkpt lat="45.01809" lon="6.04063">
        <ele>1517.8000488281</ele>
        <time>2021-03-21T14:10:53.000Z</time>
      </trkpt>
      <trkpt lat="45.01808" lon="6.04063">
        <ele>1517.4000244141</ele>
        <time>2021-03-21T14:10:54.000Z</time>
      </trkpt>
      <trkpt lat="45.01807" lon="6.04063">
        <ele>1516.8000488281</ele>
        <time>2021-03-21T14:10:55.000Z</time>
      </trkpt>
      <trkpt lat="45.01807" lon="6.04063">
        <ele>1516.5999755859</ele>
        <time>2021-03-21T14:10:56.000Z</time>
      </trkpt>
      <trkpt lat="45.01807" lon="6.04062">
        <ele>1516.5999755859</ele>
        <time>2021-03-21T14:10:57.000Z</time>
      </trkpt>
      <trkpt lat="45.01806" lon="6.04062">
        <ele>1516</ele>
        <time>2021-03-21T14:10:58.000Z</time>
      </trkpt>
      <trkpt lat="45.01805" lon="6.04062">
        <ele>1515.5999755859</ele>
        <time>2021-03-21T14:10:59.000Z</time>
      </trkpt>
      <trkpt lat="45.01805" lon="6.04062">
        <ele>1515.4000244141</ele>
        <time>2021-03-21T14:11:00.000Z</time>
      </trkpt>
      <trkpt lat="45.01804" lon="6.04062">
        <ele>1515.1999511719</ele>
        <time>2021-03-21T14:11:01.000Z</time>
      </trkpt>
      <trkpt lat="45.01804" lon="6.04061">
        <ele>1515.1999511719</ele>
        <time>2021-03-21T14:11:02.000Z</time>
      </trkpt>
      <trkpt lat="45.01804" lon="6.04061">
        <ele>1515</ele>
        <time>2021-03-21T14:11:03.000Z</time>
      </trkpt>
      <trkpt lat="45.01804" lon="6.04061">
        <ele>1515</ele>
        <time>2021-03-21T14:11:04.000Z</time>
      </trkpt>
      <trkpt lat="45.01804" lon="6.04061">
        <ele>1514.8000488281</ele>
        <time>2021-03-21T14:11:05.000Z</time>
      </trkpt>
      <trkpt lat="45.01803" lon="6.04061">
        <ele>1514.5999755859</ele>
        <time>2021-03-21T14:11:06.000Z</time>
      </trkpt>
      <trkpt lat="45.01803" lon="6.04061">
        <ele>1514.4000244141</ele>
        <time>2021-03-21T14:11:07.000Z</time>
      </trkpt>
      <trkpt lat="45.01802" lon="6.04061">
        <ele>1514</ele>
        <time>2021-03-21T14:11:08.000Z</time>
      </trkpt>
      <trkpt lat="45.01801" lon="6.0406">
        <ele>1513.5999755859</ele>
        <time>2021-03-21T14:11:09.000Z</time>
      </trkpt>
      <trkpt lat="45.01802" lon="6.0406">
        <ele>1513.8000488281</ele>
        <time>2021-03-21T14:11:10.000Z</time>
      </trkpt>
      <trkpt lat="45.01802" lon="6.04059">
        <ele>1513.5999755859</ele>
        <time>2021-03-21T14:11:11.000Z</time>
      </trkpt>
      <trkpt lat="45.01801" lon="6.04058">
        <ele>1513.4000244141</ele>
        <time>2021-03-21T14:11:12.000Z</time>
      </trkpt>
      <trkpt lat="45.01801" lon="6.04058">
        <ele>1513</ele>
        <time>2021-03-21T14:11:13.000Z</time>
      </trkpt>
      <trkpt lat="45.018" lon="6.04057">
        <ele>1512.8000488281</ele>
        <time>2021-03-21T14:11:14.000Z</time>
      </trkpt>
      <trkpt lat="45.018" lon="6.04057">
        <ele>1512.5999755859</ele>
        <time>2021-03-21T14:11:15.000Z</time>
      </trkpt>
      <trkpt lat="45.018" lon="6.04057">
        <ele>1512.4000244141</ele>
        <time>2021-03-21T14:11:16.000Z</time>
      </trkpt>
      <trkpt lat="45.01799" lon="6.04057">
        <ele>1512.4000244141</ele>
        <time>2021-03-21T14:11:17.000Z</time>
      </trkpt>
      <trkpt lat="45.01799" lon="6.04057">
        <ele>1512.1999511719</ele>
        <time>2021-03-21T14:11:18.000Z</time>
      </trkpt>
      <trkpt lat="45.01799" lon="6.04058">
        <ele>1512.1999511719</ele>
        <time>2021-03-21T14:11:19.000Z</time>
      </trkpt>
      <trkpt lat="45.01799" lon="6.04058">
        <ele>1512</ele>
        <time>2021-03-21T14:11:20.000Z</time>
      </trkpt>
      <trkpt lat="45.01798" lon="6.04058">
        <ele>1511.8000488281</ele>
        <time>2021-03-21T14:11:21.000Z</time>
      </trkpt>
      <trkpt lat="45.01798" lon="6.04058">
        <ele>1511.8000488281</ele>
        <time>2021-03-21T14:11:22.000Z</time>
      </trkpt>
      <trkpt lat="45.01798" lon="6.04059">
        <ele>1512</ele>
        <time>2021-03-21T14:11:23.000Z</time>
      </trkpt>
      <trkpt lat="45.01799" lon="6.0406">
        <ele>1512</ele>
        <time>2021-03-21T14:11:24.000Z</time>
      </trkpt>
      <trkpt lat="45.01799" lon="6.0406">
        <ele>1512.1999511719</ele>
        <time>2021-03-21T14:11:25.000Z</time>
      </trkpt>
      <trkpt lat="45.01799" lon="6.0406">
        <ele>1512.4000244141</ele>
        <time>2021-03-21T14:11:26.000Z</time>
      </trkpt>
      <trkpt lat="45.01799" lon="6.0406">
        <ele>1512.5999755859</ele>
        <time>2021-03-21T14:11:27.000Z</time>
      </trkpt>
      <trkpt lat="45.01799" lon="6.04059">
        <ele>1512.4000244141</ele>
        <time>2021-03-21T14:11:28.000Z</time>
      </trkpt>
      <trkpt lat="45.018" lon="6.04059">
        <ele>1512.5999755859</ele>
        <time>2021-03-21T14:11:29.000Z</time>
      </trkpt>
      <trkpt lat="45.01799" lon="6.04058">
        <ele>1512.4000244141</ele>
        <time>2021-03-21T14:11:30.000Z</time>
      </trkpt>
      <trkpt lat="45.01799" lon="6.04058">
        <ele>1512.1999511719</ele>
        <time>2021-03-21T14:11:31.000Z</time>
      </trkpt>
      <trkpt lat="45.01799" lon="6.04059">
        <ele>1512.1999511719</ele>
        <time>2021-03-21T14:11:32.000Z</time>
      </trkpt>
      <trkpt lat="45.01799" lon="6.04059">
        <ele>1512.1999511719</ele>
        <time>2021-03-21T14:11:33.000Z</time>
      </trkpt>
      <trkpt lat="45.01799" lon="6.04059">
        <ele>1512</ele>
        <time>2021-03-21T14:11:34.000Z</time>
      </trkpt>
      <trkpt lat="45.01799" lon="6.04059">
        <ele>1512</ele>
        <time>2021-03-21T14:11:35.000Z</time>
      </trkpt>
      <trkpt lat="45.01799" lon="6.04059">
        <ele>1512</ele>
        <time>2021-03-21T14:11:36.000Z</time>
      </trkpt>
      <trkpt lat="45.01798" lon="6.04058">
        <ele>1511.8000488281</ele>
        <time>2021-03-21T14:11:37.000Z</time>
      </trkpt>
      <trkpt lat="45.01798" lon="6.04058">
        <ele>1512</ele>
        <time>2021-03-21T14:11:38.000Z</time>
      </trkpt>
      <trkpt lat="45.01799" lon="6.04058">
        <ele>1512</ele>
        <time>2021-03-21T14:11:39.000Z</time>
      </trkpt>
      <trkpt lat="45.01799" lon="6.04059">
        <ele>1512</ele>
        <time>2021-03-21T14:11:40.000Z</time>
      </trkpt>
      <trkpt lat="45.01798" lon="6.04059">
        <ele>1512</ele>
        <time>2021-03-21T14:11:41.000Z</time>
      </trkpt>
      <trkpt lat="45.01798" lon="6.04059">
        <ele>1512</ele>
        <time>2021-03-21T14:11:42.000Z</time>
      </trkpt>
      <trkpt lat="45.01798" lon="6.04059">
        <ele>1511.8000488281</ele>
        <time>2021-03-21T14:11:43.000Z</time>
      </trkpt>
      <trkpt lat="45.01797" lon="6.0406">
        <ele>1511.4000244141</ele>
        <time>2021-03-21T14:11:44.000Z</time>
      </trkpt>
      <trkpt lat="45.01797" lon="6.0406">
        <ele>1511.1999511719</ele>
        <time>2021-03-21T14:11:45.000Z</time>
      </trkpt>
      <trkpt lat="45.01797" lon="6.04061">
        <ele>1511</ele>
        <time>2021-03-21T14:11:46.000Z</time>
      </trkpt>
      <trkpt lat="45.01797" lon="6.04061">
        <ele>1511</ele>
        <time>2021-03-21T14:11:47.000Z</time>
      </trkpt>
      <trkpt lat="45.01796" lon="6.04061">
        <ele>1511</ele>
        <time>2021-03-21T14:11:48.000Z</time>
      </trkpt>
      <trkpt lat="45.01796" lon="6.04061">
        <ele>1511</ele>
        <time>2021-03-21T14:11:49.000Z</time>
      </trkpt>
      <trkpt lat="45.01796" lon="6.04061">
        <ele>1510.8000488281</ele>
        <time>2021-03-21T14:11:50.000Z</time>
      </trkpt>
      <trkpt lat="45.01796" lon="6.04061">
        <ele>1510.8000488281</ele>
        <time>2021-03-21T14:11:51.000Z</time>
      </trkpt>
      <trkpt lat="45.01796" lon="6.04061">
        <ele>1510.8000488281</ele>
        <time>2021-03-21T14:11:52.000Z</time>
      </trkpt>
      <trkpt lat="45.01796" lon="6.04061">
        <ele>1510.8000488281</ele>
        <time>2021-03-21T14:11:53.000Z</time>
      </trkpt>
      <trkpt lat="45.01796" lon="6.04061">
        <ele>1510.5999755859</ele>
        <time>2021-03-21T14:11:54.000Z</time>
      </trkpt>
      <trkpt lat="45.01796" lon="6.04061">
        <ele>1510.5999755859</ele>
        <time>2021-03-21T14:11:55.000Z</time>
      </trkpt>
      <trkpt lat="45.01795" lon="6.0406">
        <ele>1510.1999511719</ele>
        <time>2021-03-21T14:11:56.000Z</time>
      </trkpt>
      <trkpt lat="45.01795" lon="6.04061">
        <ele>1510</ele>
        <time>2021-03-21T14:11:57.000Z</time>
      </trkpt>
      <trkpt lat="45.01794" lon="6.04061">
        <ele>1509.8000488281</ele>
        <time>2021-03-21T14:11:58.000Z</time>
      </trkpt>
      <trkpt lat="45.01794" lon="6.04061">
        <ele>1509.5999755859</ele>
        <time>2021-03-21T14:11:59.000Z</time>
      </trkpt>
      <trkpt lat="45.01794" lon="6.04061">
        <ele>1509.4000244141</ele>
        <time>2021-03-21T14:12:00.000Z</time>
      </trkpt>
      <trkpt lat="45.01794" lon="6.04061">
        <ele>1509.4000244141</ele>
        <time>2021-03-21T14:12:01.000Z</time>
      </trkpt>
      <trkpt lat="45.01793" lon="6.04061">
        <ele>1509.1999511719</ele>
        <time>2021-03-21T14:12:02.000Z</time>
      </trkpt>
      <trkpt lat="45.01793" lon="6.04061">
        <ele>1509.1999511719</ele>
        <time>2021-03-21T14:12:03.000Z</time>
      </trkpt>
      <trkpt lat="45.01793" lon="6.04061">
        <ele>1509.1999511719</ele>
        <time>2021-03-21T14:12:04.000Z</time>
      </trkpt>
      <trkpt lat="45.01794" lon="6.04061">
        <ele>1509.4000244141</ele>
        <time>2021-03-21T14:12:05.000Z</time>
      </trkpt>
      <trkpt lat="45.01794" lon="6.04061">
        <ele>1509.5999755859</ele>
        <time>2021-03-21T14:12:06.000Z</time>
      </trkpt>
      <trkpt lat="45.01794" lon="6.04061">
        <ele>1509.5999755859</ele>
        <time>2021-03-21T14:12:07.000Z</time>
      </trkpt>
      <trkpt lat="45.01794" lon="6.04061">
        <ele>1509.8000488281</ele>
        <time>2021-03-21T14:12:08.000Z</time>
      </trkpt>
      <trkpt lat="45.01795" lon="6.04061">
        <ele>1510</ele>
        <time>2021-03-21T14:12:09.000Z</time>
      </trkpt>
      <trkpt lat="45.01794" lon="6.04061">
        <ele>1509.8000488281</ele>
        <time>2021-03-21T14:12:10.000Z</time>
      </trkpt>
      <trkpt lat="45.01795" lon="6.04061">
        <ele>1510.1999511719</ele>
        <time>2021-03-21T14:12:11.000Z</time>
      </trkpt>
      <trkpt lat="45.01795" lon="6.04061">
        <ele>1510.1999511719</ele>
        <time>2021-03-21T14:12:12.000Z</time>
      </trkpt>
      <trkpt lat="45.01795" lon="6.04061">
        <ele>1510.4000244141</ele>
        <time>2021-03-21T14:12:13.000Z</time>
      </trkpt>
      <trkpt lat="45.01796" lon="6.04061">
        <ele>1510.4000244141</ele>
        <time>2021-03-21T14:12:14.000Z</time>
      </trkpt>
      <trkpt lat="45.01796" lon="6.04061">
        <ele>1510.4000244141</ele>
        <time>2021-03-21T14:12:15.000Z</time>
      </trkpt>
      <trkpt lat="45.01796" lon="6.04061">
        <ele>1510.4000244141</ele>
        <time>2021-03-21T14:12:16.000Z</time>
      </trkpt>
      <trkpt lat="45.01796" lon="6.04061">
        <ele>1510.5999755859</ele>
        <time>2021-03-21T14:12:17.000Z</time>
      </trkpt>
      <trkpt lat="45.01796" lon="6.04061">
        <ele>1510.5999755859</ele>
        <time>2021-03-21T14:12:18.000Z</time>
      </trkpt>
      <trkpt lat="45.01796" lon="6.04061">
        <ele>1510.5999755859</ele>
        <time>2021-03-21T14:12:19.000Z</time>
      </trkpt>
      <trkpt lat="45.01796" lon="6.04061">
        <ele>1510.5999755859</ele>
        <time>2021-03-21T14:12:20.000Z</time>
      </trkpt>
      <trkpt lat="45.01796" lon="6.04061">
        <ele>1510.5999755859</ele>
        <time>2021-03-21T14:12:21.000Z</time>
      </trkpt>
      <trkpt lat="45.01795" lon="6.04062">
        <ele>1510.4000244141</ele>
        <time>2021-03-21T14:12:22.000Z</time>
      </trkpt>
      <trkpt lat="45.01795" lon="6.04062">
        <ele>1510.4000244141</ele>
        <time>2021-03-21T14:12:23.000Z</time>
      </trkpt>
      <trkpt lat="45.01795" lon="6.04062">
        <ele>1510.1999511719</ele>
        <time>2021-03-21T14:12:24.000Z</time>
      </trkpt>
      <trkpt lat="45.01795" lon="6.04062">
        <ele>1510</ele>
        <time>2021-03-21T14:12:25.000Z</time>
      </trkpt>
      <trkpt lat="45.01795" lon="6.04062">
        <ele>1510</ele>
        <time>2021-03-21T14:12:26.000Z</time>
      </trkpt>
      <trkpt lat="45.01794" lon="6.04062">
        <ele>1509.8000488281</ele>
        <time>2021-03-21T14:12:27.000Z</time>
      </trkpt>
      <trkpt lat="45.01794" lon="6.04062">
        <ele>1509.8000488281</ele>
        <time>2021-03-21T14:12:28.000Z</time>
      </trkpt>
      <trkpt lat="45.01794" lon="6.04062">
        <ele>1509.8000488281</ele>
        <time>2021-03-21T14:12:29.000Z</time>
      </trkpt>
      <trkpt lat="45.01794" lon="6.04062">
        <ele>1509.8000488281</ele>
        <time>2021-03-21T14:12:30.000Z</time>
      </trkpt>
      <trkpt lat="45.01794" lon="6.04061">
        <ele>1509.8000488281</ele>
        <time>2021-03-21T14:12:31.000Z</time>
      </trkpt>
      <trkpt lat="45.01794" lon="6.04061">
        <ele>1509.5999755859</ele>
        <time>2021-03-21T14:12:32.000Z</time>
      </trkpt>
      <trkpt lat="45.01794" lon="6.04061">
        <ele>1509.5999755859</ele>
        <time>2021-03-21T14:12:33.000Z</time>
      </trkpt>
      <trkpt lat="45.01794" lon="6.04061">
        <ele>1509.5999755859</ele>
        <time>2021-03-21T14:12:34.000Z</time>
      </trkpt>
      <trkpt lat="45.01794" lon="6.04061">
        <ele>1509.4000244141</ele>
        <time>2021-03-21T14:12:35.000Z</time>
      </trkpt>
      <trkpt lat="45.01794" lon="6.04061">
        <ele>1509.4000244141</ele>
        <time>2021-03-21T14:12:36.000Z</time>
      </trkpt>
      <trkpt lat="45.01794" lon="6.04062">
        <ele>1509.5999755859</ele>
        <time>2021-03-21T14:12:37.000Z</time>
      </trkpt>
      <trkpt lat="45.01794" lon="6.04062">
        <ele>1509.4000244141</ele>
        <time>2021-03-21T14:12:38.000Z</time>
      </trkpt>
      <trkpt lat="45.01794" lon="6.04062">
        <ele>1509.4000244141</ele>
        <time>2021-03-21T14:12:39.000Z</time>
      </trkpt>
      <trkpt lat="45.01794" lon="6.04061">
        <ele>1509.4000244141</ele>
        <time>2021-03-21T14:12:40.000Z</time>
      </trkpt>
      <trkpt lat="45.01794" lon="6.04061">
        <ele>1509.4000244141</ele>
        <time>2021-03-21T14:12:41.000Z</time>
      </trkpt>
      <trkpt lat="45.01794" lon="6.04061">
        <ele>1509.4000244141</ele>
        <time>2021-03-21T14:12:42.000Z</time>
      </trkpt>
      <trkpt lat="45.01794" lon="6.04061">
        <ele>1509.4000244141</ele>
        <time>2021-03-21T14:12:43.000Z</time>
      </trkpt>
      <trkpt lat="45.01794" lon="6.04061">
        <ele>1509.4000244141</ele>
        <time>2021-03-21T14:12:44.000Z</time>
      </trkpt>
      <trkpt lat="45.01794" lon="6.04062">
        <ele>1509.5999755859</ele>
        <time>2021-03-21T14:12:45.000Z</time>
      </trkpt>
    </trkseg>
  </trk>
</gpx>